<?xml version='1.0' encoding='UTF-8'?><gpx version="1.1" creator="JPX - https://github.com/jenetics/jpx" xmlns="http://www.topografix.com/GPX/1/1"><trk><trkseg><trkpt lat="45.6677834" lon="11.7196607"><ele>61.6</ele><time>2026-04-26T12:42:13.987Z</time></trkpt><trkpt lat="45.6677251" lon="11.7195739"><ele>61.2</ele><time>2026-04-26T12:42:15.988Z</time></trkpt><trkpt lat="45.6676231" lon="11.7196318"><ele>60.8</ele><time>2026-04-26T12:42:17.997Z</time></trkpt><trkpt lat="45.6675722" lon="11.7197643"><ele>60.4</ele><time>2026-04-26T12:42:19.986Z</time></trkpt><trkpt lat="45.6675127" lon="11.7198569"><ele>60.0</ele><time>2026-04-26T12:42:21.992Z</time></trkpt><trkpt lat="45.6674585" lon="11.7199287"><ele>60.0</ele><time>2026-04-26T12:43:02.99Z</time></trkpt><trkpt lat="45.667452" lon="11.7200255"><ele>60.0</ele><time>2026-04-26T12:43:04.986Z</time></trkpt><trkpt lat="45.6674604" lon="11.7201269"><ele>60.0</ele><time>2026-04-26T12:43:05.983Z</time></trkpt><trkpt lat="45.6674781" lon="11.7202479"><ele>60.0</ele><time>2026-04-26T12:43:06.994Z</time></trkpt><trkpt lat="45.6674977" lon="11.7203788"><ele>60.0</ele><time>2026-04-26T12:43:07.985Z</time></trkpt><trkpt lat="45.6675265" lon="11.7205351"><ele>60.0</ele><time>2026-04-26T12:43:08.989Z</time></trkpt><trkpt lat="45.6675579" lon="11.7207073"><ele>60.0</ele><time>2026-04-26T12:43:09.985Z</time></trkpt><trkpt lat="45.6675897" lon="11.7208925"><ele>60.0</ele><time>2026-04-26T12:43:10.992Z</time></trkpt><trkpt lat="45.6676243" lon="11.7210907"><ele>60.0</ele><time>2026-04-26T12:43:11.995Z</time></trkpt><trkpt lat="45.667665" lon="11.7213027"><ele>60.0</ele><time>2026-04-26T12:43:12.989Z</time></trkpt><trkpt lat="45.667704" lon="11.7215085"><ele>60.0</ele><time>2026-04-26T12:43:14Z</time></trkpt><trkpt lat="45.6677465" lon="11.7217076"><ele>60.0</ele><time>2026-04-26T12:43:14.998Z</time></trkpt><trkpt lat="45.6677924" lon="11.7219236"><ele>60.0</ele><time>2026-04-26T12:43:15.989Z</time></trkpt><trkpt lat="45.6678492" lon="11.7221579"><ele>60.33333333333333</ele><time>2026-04-26T12:43:16.997Z</time></trkpt><trkpt lat="45.667911" lon="11.722403"><ele>60.666666666666664</ele><time>2026-04-26T12:43:17.988Z</time></trkpt><trkpt lat="45.6679768" lon="11.7226568"><ele>61.0</ele><time>2026-04-26T12:43:18.998Z</time></trkpt><trkpt lat="45.6680431" lon="11.7229208"><ele>61.33333333333333</ele><time>2026-04-26T12:43:19.996Z</time></trkpt><trkpt lat="45.6681043" lon="11.7231931"><ele>61.66666666666667</ele><time>2026-04-26T12:43:21.035Z</time></trkpt><trkpt lat="45.6681617" lon="11.7234736"><ele>62.0</ele><time>2026-04-26T12:43:22.079Z</time></trkpt><trkpt lat="45.6682215" lon="11.7237574"><ele>61.333333333333336</ele><time>2026-04-26T12:43:23Z</time></trkpt><trkpt lat="45.6682794" lon="11.7240455"><ele>60.66666666666667</ele><time>2026-04-26T12:43:24.009Z</time></trkpt><trkpt lat="45.6683366" lon="11.7243375"><ele>60.0</ele><time>2026-04-26T12:43:24.99Z</time></trkpt><trkpt lat="45.6683936" lon="11.7246352"><ele>60.0</ele><time>2026-04-26T12:43:26.002Z</time></trkpt><trkpt lat="45.6684516" lon="11.7249079"><ele>60.0</ele><time>2026-04-26T12:43:26.998Z</time></trkpt><trkpt lat="45.6685177" lon="11.7252056"><ele>60.0</ele><time>2026-04-26T12:43:28.004Z</time></trkpt><trkpt lat="45.6685813" lon="11.7254946"><ele>60.0</ele><time>2026-04-26T12:43:29.003Z</time></trkpt><trkpt lat="45.6686431" lon="11.7257943"><ele>60.0</ele><time>2026-04-26T12:43:30.007Z</time></trkpt><trkpt lat="45.6687054" lon="11.7260943"><ele>60.0</ele><time>2026-04-26T12:43:31.035Z</time></trkpt><trkpt lat="45.6687646" lon="11.7263962"><ele>60.0</ele><time>2026-04-26T12:43:32.005Z</time></trkpt><trkpt lat="45.6688247" lon="11.726697"><ele>60.0</ele><time>2026-04-26T12:43:33.029Z</time></trkpt><trkpt lat="45.6688845" lon="11.7269963"><ele>60.0</ele><time>2026-04-26T12:43:33.988Z</time></trkpt><trkpt lat="45.6689434" lon="11.7272939"><ele>60.0</ele><time>2026-04-26T12:43:35.019Z</time></trkpt><trkpt lat="45.6689967" lon="11.7275706"><ele>60.0</ele><time>2026-04-26T12:43:36Z</time></trkpt><trkpt lat="45.6690459" lon="11.7278164"><ele>60.0</ele><time>2026-04-26T12:43:37.008Z</time></trkpt><trkpt lat="45.6690896" lon="11.7280475"><ele>60.0</ele><time>2026-04-26T12:43:38.006Z</time></trkpt><trkpt lat="45.669135" lon="11.7282806"><ele>60.0</ele><time>2026-04-26T12:43:39.008Z</time></trkpt><trkpt lat="45.6691806" lon="11.7285205"><ele>60.0</ele><time>2026-04-26T12:43:40.007Z</time></trkpt><trkpt lat="45.6692282" lon="11.728768"><ele>60.0</ele><time>2026-04-26T12:43:41.007Z</time></trkpt><trkpt lat="45.6692782" lon="11.7290245"><ele>60.0</ele><time>2026-04-26T12:43:42.005Z</time></trkpt><trkpt lat="45.6693306" lon="11.729284"><ele>60.0</ele><time>2026-04-26T12:43:43Z</time></trkpt><trkpt lat="45.6693873" lon="11.7295444"><ele>60.0</ele><time>2026-04-26T12:43:44.007Z</time></trkpt><trkpt lat="45.6694477" lon="11.7298064"><ele>60.0</ele><time>2026-04-26T12:43:45.011Z</time></trkpt><trkpt lat="45.6695125" lon="11.7300738"><ele>60.0</ele><time>2026-04-26T12:43:46.01Z</time></trkpt><trkpt lat="45.6695759" lon="11.7303481"><ele>60.0</ele><time>2026-04-26T12:43:47.002Z</time></trkpt><trkpt lat="45.6696379" lon="11.730631"><ele>60.0</ele><time>2026-04-26T12:43:48.006Z</time></trkpt><trkpt lat="45.6697003" lon="11.7309201"><ele>60.0</ele><time>2026-04-26T12:43:49.005Z</time></trkpt><trkpt lat="45.6697632" lon="11.7312156"><ele>60.0</ele><time>2026-04-26T12:43:50.011Z</time></trkpt><trkpt lat="45.6698284" lon="11.7315196"><ele>60.0</ele><time>2026-04-26T12:43:51.009Z</time></trkpt><trkpt lat="45.6698927" lon="11.7318216"><ele>60.0</ele><time>2026-04-26T12:43:52.006Z</time></trkpt><trkpt lat="45.669952" lon="11.732105"><ele>60.0</ele><time>2026-04-26T12:43:52.994Z</time></trkpt><trkpt lat="45.6700048" lon="11.7323649"><ele>60.0</ele><time>2026-04-26T12:43:54.004Z</time></trkpt><trkpt lat="45.6700502" lon="11.7325936"><ele>60.0</ele><time>2026-04-26T12:43:55.008Z</time></trkpt><trkpt lat="45.670089" lon="11.7327952"><ele>60.0</ele><time>2026-04-26T12:43:56.005Z</time></trkpt><trkpt lat="45.6701217" lon="11.7329655"><ele>60.0</ele><time>2026-04-26T12:43:57.003Z</time></trkpt><trkpt lat="45.6701467" lon="11.7331006"><ele>60.0</ele><time>2026-04-26T12:43:58.005Z</time></trkpt><trkpt lat="45.6701651" lon="11.733202"><ele>60.0</ele><time>2026-04-26T12:43:59Z</time></trkpt><trkpt lat="45.6702199" lon="11.7333488"><ele>60.0</ele><time>2026-04-26T12:44:03.998Z</time></trkpt><trkpt lat="45.6703527" lon="11.7333344"><ele>60.75</ele><time>2026-04-26T12:44:05.998Z</time></trkpt><trkpt lat="45.6704479" lon="11.7333083"><ele>61.5</ele><time>2026-04-26T12:44:07.005Z</time></trkpt><trkpt lat="45.6705524" lon="11.7332761"><ele>62.25</ele><time>2026-04-26T12:44:08.013Z</time></trkpt><trkpt lat="45.6706847" lon="11.733246"><ele>63.0</ele><time>2026-04-26T12:44:08.994Z</time></trkpt><trkpt lat="45.6708258" lon="11.7332186"><ele>63.0</ele><time>2026-04-26T12:44:10.008Z</time></trkpt><trkpt lat="45.6709802" lon="11.7331884"><ele>63.0</ele><time>2026-04-26T12:44:11.004Z</time></trkpt><trkpt lat="45.6711479" lon="11.7331573"><ele>63.0</ele><time>2026-04-26T12:44:12.008Z</time></trkpt><trkpt lat="45.6713162" lon="11.7331222"><ele>63.0</ele><time>2026-04-26T12:44:12.997Z</time></trkpt><trkpt lat="45.6714912" lon="11.7330847"><ele>63.0</ele><time>2026-04-26T12:44:13.996Z</time></trkpt><trkpt lat="45.6716723" lon="11.7330447"><ele>63.0</ele><time>2026-04-26T12:44:14.989Z</time></trkpt><trkpt lat="45.6718575" lon="11.7330073"><ele>62.66666666666667</ele><time>2026-04-26T12:44:15.993Z</time></trkpt><trkpt lat="45.6720487" lon="11.7329683"><ele>62.333333333333336</ele><time>2026-04-26T12:44:16.981Z</time></trkpt><trkpt lat="45.672242" lon="11.7329388"><ele>62.0</ele><time>2026-04-26T12:44:17.987Z</time></trkpt><trkpt lat="45.6724301" lon="11.7328886"><ele>62.0</ele><time>2026-04-26T12:44:18.993Z</time></trkpt><trkpt lat="45.6726313" lon="11.7328479"><ele>62.0</ele><time>2026-04-26T12:44:20.006Z</time></trkpt><trkpt lat="45.6728344" lon="11.7328075"><ele>62.0</ele><time>2026-04-26T12:44:21.005Z</time></trkpt><trkpt lat="45.6730346" lon="11.7327594"><ele>62.0</ele><time>2026-04-26T12:44:22.005Z</time></trkpt><trkpt lat="45.6732372" lon="11.7327074"><ele>62.0</ele><time>2026-04-26T12:44:23.006Z</time></trkpt><trkpt lat="45.6734501" lon="11.7326464"><ele>62.0</ele><time>2026-04-26T12:44:24.005Z</time></trkpt><trkpt lat="45.6736385" lon="11.7325985"><ele>62.0</ele><time>2026-04-26T12:44:25.003Z</time></trkpt><trkpt lat="45.6738034" lon="11.7325504"><ele>62.0</ele><time>2026-04-26T12:44:25.997Z</time></trkpt><trkpt lat="45.6739675" lon="11.7324942"><ele>62.0</ele><time>2026-04-26T12:44:26.996Z</time></trkpt><trkpt lat="45.6741341" lon="11.7324271"><ele>62.0</ele><time>2026-04-26T12:44:27.992Z</time></trkpt><trkpt lat="45.6743163" lon="11.7323734"><ele>62.0</ele><time>2026-04-26T12:44:28.996Z</time></trkpt><trkpt lat="45.674509" lon="11.7323322"><ele>62.0</ele><time>2026-04-26T12:44:29.993Z</time></trkpt><trkpt lat="45.6747064" lon="11.7322892"><ele>62.333333333333336</ele><time>2026-04-26T12:44:30.994Z</time></trkpt><trkpt lat="45.6749248" lon="11.7322646"><ele>62.66666666666667</ele><time>2026-04-26T12:44:31.994Z</time></trkpt><trkpt lat="45.6751409" lon="11.7322307"><ele>63.0</ele><time>2026-04-26T12:44:32.993Z</time></trkpt><trkpt lat="45.6753654" lon="11.7321788"><ele>63.5</ele><time>2026-04-26T12:44:34.001Z</time></trkpt><trkpt lat="45.6755986" lon="11.732125"><ele>64.0</ele><time>2026-04-26T12:44:34.996Z</time></trkpt><trkpt lat="45.6758367" lon="11.7320703"><ele>64.0</ele><time>2026-04-26T12:44:36.021Z</time></trkpt><trkpt lat="45.6760722" lon="11.7320165"><ele>64.0</ele><time>2026-04-26T12:44:37.003Z</time></trkpt><trkpt lat="45.6763116" lon="11.7319582"><ele>63.5</ele><time>2026-04-26T12:44:38Z</time></trkpt><trkpt lat="45.6765501" lon="11.7319002"><ele>63.0</ele><time>2026-04-26T12:44:39.004Z</time></trkpt><trkpt lat="45.6767908" lon="11.7318433"><ele>63.5</ele><time>2026-04-26T12:44:40.011Z</time></trkpt><trkpt lat="45.6770317" lon="11.7317837"><ele>64.0</ele><time>2026-04-26T12:44:41.005Z</time></trkpt><trkpt lat="45.6772683" lon="11.731725"><ele>64.0</ele><time>2026-04-26T12:44:42.01Z</time></trkpt><trkpt lat="45.6775043" lon="11.7316697"><ele>64.0</ele><time>2026-04-26T12:44:43.005Z</time></trkpt><trkpt lat="45.677738" lon="11.7316142"><ele>64.5</ele><time>2026-04-26T12:44:44.008Z</time></trkpt><trkpt lat="45.677972" lon="11.7315582"><ele>65.0</ele><time>2026-04-26T12:44:45.011Z</time></trkpt><trkpt lat="45.6782016" lon="11.7315056"><ele>65.0</ele><time>2026-04-26T12:44:46.023Z</time></trkpt><trkpt lat="45.67842" lon="11.7314554"><ele>65.0</ele><time>2026-04-26T12:44:47.006Z</time></trkpt><trkpt lat="45.6786233" lon="11.7314076"><ele>65.0</ele><time>2026-04-26T12:44:48.001Z</time></trkpt><trkpt lat="45.6788122" lon="11.7313648"><ele>65.33333333333334</ele><time>2026-04-26T12:44:49.012Z</time></trkpt><trkpt lat="45.6789926" lon="11.7313252"><ele>65.66666666666667</ele><time>2026-04-26T12:44:50.005Z</time></trkpt><trkpt lat="45.6791725" lon="11.7312849"><ele>66.0</ele><time>2026-04-26T12:44:51.006Z</time></trkpt><trkpt lat="45.6793541" lon="11.7312546"><ele>66.33333333333333</ele><time>2026-04-26T12:44:52.008Z</time></trkpt><trkpt lat="45.6795378" lon="11.7312204"><ele>66.66666666666666</ele><time>2026-04-26T12:44:52.995Z</time></trkpt><trkpt lat="45.6797347" lon="11.7311664"><ele>67.0</ele><time>2026-04-26T12:44:54.009Z</time></trkpt><trkpt lat="45.6799302" lon="11.7311179"><ele>67.0</ele><time>2026-04-26T12:44:55Z</time></trkpt><trkpt lat="45.6801237" lon="11.7310716"><ele>67.0</ele><time>2026-04-26T12:44:55.994Z</time></trkpt><trkpt lat="45.6803193" lon="11.7310178"><ele>67.0</ele><time>2026-04-26T12:44:57.011Z</time></trkpt><trkpt lat="45.6805092" lon="11.7309721"><ele>67.33333333333333</ele><time>2026-04-26T12:44:58.002Z</time></trkpt><trkpt lat="45.6807019" lon="11.7309246"><ele>67.66666666666667</ele><time>2026-04-26T12:44:59.01Z</time></trkpt><trkpt lat="45.6808988" lon="11.7308767"><ele>68.0</ele><time>2026-04-26T12:45:00.005Z</time></trkpt><trkpt lat="45.6810951" lon="11.7308268"><ele>68.33333333333334</ele><time>2026-04-26T12:45:01.009Z</time></trkpt><trkpt lat="45.6812878" lon="11.7307792"><ele>68.66666666666667</ele><time>2026-04-26T12:45:02.009Z</time></trkpt><trkpt lat="45.6814795" lon="11.7307294"><ele>69.0</ele><time>2026-04-26T12:45:02.991Z</time></trkpt><trkpt lat="45.6816695" lon="11.7306778"><ele>69.0</ele><time>2026-04-26T12:45:03.998Z</time></trkpt><trkpt lat="45.6818604" lon="11.730627"><ele>69.0</ele><time>2026-04-26T12:45:05.006Z</time></trkpt><trkpt lat="45.6820517" lon="11.7305797"><ele>69.0</ele><time>2026-04-26T12:45:06.009Z</time></trkpt><trkpt lat="45.6822346" lon="11.7305442"><ele>69.0</ele><time>2026-04-26T12:45:06.99Z</time></trkpt><trkpt lat="45.6824069" lon="11.7305129"><ele>69.0</ele><time>2026-04-26T12:45:07.996Z</time></trkpt><trkpt lat="45.6825649" lon="11.7304779"><ele>69.0</ele><time>2026-04-26T12:45:09.006Z</time></trkpt><trkpt lat="45.6827005" lon="11.7304415"><ele>69.0</ele><time>2026-04-26T12:45:09.994Z</time></trkpt><trkpt lat="45.6828117" lon="11.7304128"><ele>69.0</ele><time>2026-04-26T12:45:10.999Z</time></trkpt><trkpt lat="45.6828945" lon="11.7303944"><ele>69.0</ele><time>2026-04-26T12:45:12.002Z</time></trkpt><trkpt lat="45.6830011" lon="11.7303686"><ele>69.0</ele><time>2026-04-26T12:45:14.006Z</time></trkpt><trkpt lat="45.6831316" lon="11.7303122"><ele>69.0</ele><time>2026-04-26T12:45:16.02Z</time></trkpt><trkpt lat="45.6831924" lon="11.7302345"><ele>69.25</ele><time>2026-04-26T12:45:16.992Z</time></trkpt><trkpt lat="45.6832395" lon="11.7301518"><ele>69.5</ele><time>2026-04-26T12:45:17.995Z</time></trkpt><trkpt lat="45.6833552" lon="11.7301102"><ele>69.75</ele><time>2026-04-26T12:45:19.994Z</time></trkpt><trkpt lat="45.683494" lon="11.7301487"><ele>70.0</ele><time>2026-04-26T12:45:21.004Z</time></trkpt><trkpt lat="45.6836548" lon="11.7301788"><ele>70.33333333333333</ele><time>2026-04-26T12:45:21.996Z</time></trkpt><trkpt lat="45.6838252" lon="11.7302168"><ele>70.66666666666667</ele><time>2026-04-26T12:45:22.993Z</time></trkpt><trkpt lat="45.6840197" lon="11.7302257"><ele>71.0</ele><time>2026-04-26T12:45:23.993Z</time></trkpt><trkpt lat="45.684213" lon="11.7302583"><ele>71.0</ele><time>2026-04-26T12:45:24.998Z</time></trkpt><trkpt lat="45.6844019" lon="11.7302879"><ele>71.0</ele><time>2026-04-26T12:45:25.996Z</time></trkpt><trkpt lat="45.6845927" lon="11.730318"><ele>71.0</ele><time>2026-04-26T12:45:26.998Z</time></trkpt><trkpt lat="45.6847733" lon="11.730344"><ele>70.66666666666667</ele><time>2026-04-26T12:45:27.998Z</time></trkpt><trkpt lat="45.684944" lon="11.7303673"><ele>70.33333333333333</ele><time>2026-04-26T12:45:29.014Z</time></trkpt><trkpt lat="45.6851069" lon="11.7303895"><ele>70.0</ele><time>2026-04-26T12:45:30Z</time></trkpt><trkpt lat="45.6852551" lon="11.7304113"><ele>70.2</ele><time>2026-04-26T12:45:31.012Z</time></trkpt><trkpt lat="45.685386" lon="11.7304315"><ele>70.4</ele><time>2026-04-26T12:45:32.002Z</time></trkpt><trkpt lat="45.6855009" lon="11.7304508"><ele>70.6</ele><time>2026-04-26T12:45:33.006Z</time></trkpt><trkpt lat="45.6855863" lon="11.7304664"><ele>70.8</ele><time>2026-04-26T12:45:34.003Z</time></trkpt><trkpt lat="45.6856847" lon="11.7304753"><ele>71.0</ele><time>2026-04-26T12:45:36.005Z</time></trkpt><trkpt lat="45.6857601" lon="11.7304803"><ele>71.0</ele><time>2026-04-26T12:45:38.007Z</time></trkpt><trkpt lat="45.6858706" lon="11.7304863"><ele>71.0</ele><time>2026-04-26T12:45:43.008Z</time></trkpt><trkpt lat="45.6860034" lon="11.7304843"><ele>71.0</ele><time>2026-04-26T12:45:44.999Z</time></trkpt><trkpt lat="45.6861017" lon="11.7304832"><ele>71.0</ele><time>2026-04-26T12:45:45.999Z</time></trkpt><trkpt lat="45.6862284" lon="11.7304828"><ele>71.0</ele><time>2026-04-26T12:45:47Z</time></trkpt><trkpt lat="45.6863768" lon="11.7304823"><ele>71.0</ele><time>2026-04-26T12:45:48.007Z</time></trkpt><trkpt lat="45.6865419" lon="11.7304823"><ele>71.0</ele><time>2026-04-26T12:45:48.999Z</time></trkpt><trkpt lat="45.6867221" lon="11.7304816"><ele>71.0</ele><time>2026-04-26T12:45:50.001Z</time></trkpt><trkpt lat="45.6869115" lon="11.7304779"><ele>71.0</ele><time>2026-04-26T12:45:51.009Z</time></trkpt><trkpt lat="45.6871117" lon="11.7304739"><ele>71.0</ele><time>2026-04-26T12:45:52.01Z</time></trkpt><trkpt lat="45.6873203" lon="11.7304682"><ele>71.0</ele><time>2026-04-26T12:45:53.008Z</time></trkpt><trkpt lat="45.687536" lon="11.7304622"><ele>71.0</ele><time>2026-04-26T12:45:54.004Z</time></trkpt><trkpt lat="45.687755" lon="11.7304542"><ele>71.0</ele><time>2026-04-26T12:45:55.003Z</time></trkpt><trkpt lat="45.6879699" lon="11.7304489"><ele>71.0</ele><time>2026-04-26T12:45:55.998Z</time></trkpt><trkpt lat="45.6881709" lon="11.73045"><ele>71.0</ele><time>2026-04-26T12:45:57.008Z</time></trkpt><trkpt lat="45.688354" lon="11.7304697"><ele>71.0</ele><time>2026-04-26T12:45:58.004Z</time></trkpt><trkpt lat="45.6885258" lon="11.7305178"><ele>71.33333333333334</ele><time>2026-04-26T12:45:59.005Z</time></trkpt><trkpt lat="45.6886845" lon="11.7306073"><ele>71.66666666666667</ele><time>2026-04-26T12:46:00.002Z</time></trkpt><trkpt lat="45.6888206" lon="11.7307503"><ele>72.0</ele><time>2026-04-26T12:46:01.002Z</time></trkpt><trkpt lat="45.6889292" lon="11.7309462"><ele>72.0</ele><time>2026-04-26T12:46:02.006Z</time></trkpt><trkpt lat="45.6890072" lon="11.7311932"><ele>72.0</ele><time>2026-04-26T12:46:03.005Z</time></trkpt><trkpt lat="45.6890637" lon="11.731475"><ele>72.0</ele><time>2026-04-26T12:46:03.993Z</time></trkpt><trkpt lat="45.6891143" lon="11.731769"><ele>72.0</ele><time>2026-04-26T12:46:05.005Z</time></trkpt><trkpt lat="45.6891645" lon="11.7320607"><ele>72.0</ele><time>2026-04-26T12:46:05.999Z</time></trkpt><trkpt lat="45.6892131" lon="11.7323325"><ele>72.0</ele><time>2026-04-26T12:46:07.003Z</time></trkpt><trkpt lat="45.6892734" lon="11.7325778"><ele>72.0</ele><time>2026-04-26T12:46:08.013Z</time></trkpt><trkpt lat="45.6893599" lon="11.7327989"><ele>72.0</ele><time>2026-04-26T12:46:08.997Z</time></trkpt><trkpt lat="45.6894711" lon="11.7329848"><ele>72.0</ele><time>2026-04-26T12:46:09.997Z</time></trkpt><trkpt lat="45.6895908" lon="11.7331162"><ele>72.33333333333333</ele><time>2026-04-26T12:46:11Z</time></trkpt><trkpt lat="45.6897375" lon="11.7331957"><ele>72.66666666666666</ele><time>2026-04-26T12:46:11.994Z</time></trkpt><trkpt lat="45.6899117" lon="11.7332204"><ele>73.0</ele><time>2026-04-26T12:46:12.999Z</time></trkpt><trkpt lat="45.6901056" lon="11.7332058"><ele>73.0</ele><time>2026-04-26T12:46:14.005Z</time></trkpt><trkpt lat="45.6903156" lon="11.7331802"><ele>73.0</ele><time>2026-04-26T12:46:15.003Z</time></trkpt><trkpt lat="45.6905346" lon="11.7331571"><ele>73.0</ele><time>2026-04-26T12:46:16.007Z</time></trkpt><trkpt lat="45.6907547" lon="11.733134"><ele>73.0</ele><time>2026-04-26T12:46:17.004Z</time></trkpt><trkpt lat="45.6909726" lon="11.7331117"><ele>73.0</ele><time>2026-04-26T12:46:18.009Z</time></trkpt><trkpt lat="45.6911804" lon="11.7330909"><ele>73.0</ele><time>2026-04-26T12:46:19.01Z</time></trkpt><trkpt lat="45.6913777" lon="11.7330681"><ele>73.0</ele><time>2026-04-26T12:46:20.01Z</time></trkpt><trkpt lat="45.6915751" lon="11.7330306"><ele>73.0</ele><time>2026-04-26T12:46:21.008Z</time></trkpt><trkpt lat="45.6917803" lon="11.7329578"><ele>73.0</ele><time>2026-04-26T12:46:22.007Z</time></trkpt><trkpt lat="45.6919995" lon="11.732872"><ele>74.5</ele><time>2026-04-26T12:46:23.004Z</time></trkpt><trkpt lat="45.6922372" lon="11.7328107"><ele>76.0</ele><time>2026-04-26T12:46:24.002Z</time></trkpt><trkpt lat="45.6924858" lon="11.7327679"><ele>76.0</ele><time>2026-04-26T12:46:25.006Z</time></trkpt><trkpt lat="45.6927387" lon="11.7327303"><ele>76.0</ele><time>2026-04-26T12:46:26Z</time></trkpt><trkpt lat="45.6929947" lon="11.7326549"><ele>75.5</ele><time>2026-04-26T12:46:27.014Z</time></trkpt><trkpt lat="45.6932329" lon="11.7326259"><ele>75.0</ele><time>2026-04-26T12:46:27.999Z</time></trkpt><trkpt lat="45.6934798" lon="11.7326048"><ele>75.0</ele><time>2026-04-26T12:46:29.008Z</time></trkpt><trkpt lat="45.6937292" lon="11.7325927"><ele>75.0</ele><time>2026-04-26T12:46:30Z</time></trkpt><trkpt lat="45.6939632" lon="11.7325857"><ele>75.0</ele><time>2026-04-26T12:46:30.992Z</time></trkpt><trkpt lat="45.6941848" lon="11.7325884"><ele>75.0</ele><time>2026-04-26T12:46:31.98Z</time></trkpt><trkpt lat="45.6943847" lon="11.7325834"><ele>75.0</ele><time>2026-04-26T12:46:32.996Z</time></trkpt><trkpt lat="45.6945626" lon="11.7325784"><ele>75.33333333333333</ele><time>2026-04-26T12:46:33.984Z</time></trkpt><trkpt lat="45.6947156" lon="11.7325728"><ele>75.66666666666666</ele><time>2026-04-26T12:46:34.997Z</time></trkpt><trkpt lat="45.6948666" lon="11.7325857"><ele>76.0</ele><time>2026-04-26T12:46:35.992Z</time></trkpt><trkpt lat="45.6950322" lon="11.7326152"><ele>76.0</ele><time>2026-04-26T12:46:36.99Z</time></trkpt><trkpt lat="45.6952052" lon="11.7326195"><ele>76.0</ele><time>2026-04-26T12:46:38Z</time></trkpt><trkpt lat="45.6953947" lon="11.7326127"><ele>76.0</ele><time>2026-04-26T12:46:39.015Z</time></trkpt><trkpt lat="45.6956003" lon="11.7326208"><ele>76.0</ele><time>2026-04-26T12:46:39.995Z</time></trkpt><trkpt lat="45.6958162" lon="11.7326288"><ele>76.0</ele><time>2026-04-26T12:46:40.998Z</time></trkpt><trkpt lat="45.6960363" lon="11.7326349"><ele>76.0</ele><time>2026-04-26T12:46:42.003Z</time></trkpt><trkpt lat="45.6962585" lon="11.732642"><ele>76.0</ele><time>2026-04-26T12:46:43.009Z</time></trkpt><trkpt lat="45.6964894" lon="11.7326506"><ele>76.0</ele><time>2026-04-26T12:46:44.002Z</time></trkpt><trkpt lat="45.6967267" lon="11.7326482"><ele>77.0</ele><time>2026-04-26T12:46:45Z</time></trkpt><trkpt lat="45.6969635" lon="11.7326385"><ele>78.0</ele><time>2026-04-26T12:46:46.001Z</time></trkpt><trkpt lat="45.6971962" lon="11.7326408"><ele>78.0</ele><time>2026-04-26T12:46:46.999Z</time></trkpt><trkpt lat="45.6974326" lon="11.7326521"><ele>78.0</ele><time>2026-04-26T12:46:48.007Z</time></trkpt><trkpt lat="45.6976707" lon="11.7326585"><ele>78.0</ele><time>2026-04-26T12:46:49.001Z</time></trkpt><trkpt lat="45.6979106" lon="11.7326749"><ele>78.0</ele><time>2026-04-26T12:46:49.999Z</time></trkpt><trkpt lat="45.698149" lon="11.7326971"><ele>77.5</ele><time>2026-04-26T12:46:51.007Z</time></trkpt><trkpt lat="45.6983924" lon="11.7327292"><ele>77.0</ele><time>2026-04-26T12:46:52.002Z</time></trkpt><trkpt lat="45.6986355" lon="11.7327681"><ele>78.0</ele><time>2026-04-26T12:46:53.01Z</time></trkpt><trkpt lat="45.6988794" lon="11.7328076"><ele>79.0</ele><time>2026-04-26T12:46:54.004Z</time></trkpt><trkpt lat="45.6991364" lon="11.7328262"><ele>79.0</ele><time>2026-04-26T12:46:55.01Z</time></trkpt><trkpt lat="45.6993869" lon="11.732856"><ele>79.0</ele><time>2026-04-26T12:46:56.007Z</time></trkpt><trkpt lat="45.6996393" lon="11.732888"><ele>79.0</ele><time>2026-04-26T12:46:57.007Z</time></trkpt><trkpt lat="45.6998841" lon="11.7329321"><ele>79.0</ele><time>2026-04-26T12:46:58Z</time></trkpt><trkpt lat="45.7001279" lon="11.7329773"><ele>78.5</ele><time>2026-04-26T12:46:59.012Z</time></trkpt><trkpt lat="45.7003693" lon="11.7330192"><ele>78.0</ele><time>2026-04-26T12:47:00.001Z</time></trkpt><trkpt lat="45.7006129" lon="11.7330592"><ele>78.0</ele><time>2026-04-26T12:47:01.014Z</time></trkpt><trkpt lat="45.7008527" lon="11.7330815"><ele>78.0</ele><time>2026-04-26T12:47:02.006Z</time></trkpt><trkpt lat="45.701097" lon="11.7330925"><ele>77.5</ele><time>2026-04-26T12:47:03Z</time></trkpt><trkpt lat="45.7013395" lon="11.73309"><ele>77.0</ele><time>2026-04-26T12:47:04.002Z</time></trkpt><trkpt lat="45.7015816" lon="11.7330814"><ele>77.0</ele><time>2026-04-26T12:47:04.997Z</time></trkpt><trkpt lat="45.7018267" lon="11.7330719"><ele>77.0</ele><time>2026-04-26T12:47:05.998Z</time></trkpt><trkpt lat="45.7020705" lon="11.7330566"><ele>77.5</ele><time>2026-04-26T12:47:06.989Z</time></trkpt><trkpt lat="45.702317" lon="11.7330368"><ele>78.0</ele><time>2026-04-26T12:47:08.011Z</time></trkpt><trkpt lat="45.7025637" lon="11.7330129"><ele>78.5</ele><time>2026-04-26T12:47:09.007Z</time></trkpt><trkpt lat="45.7028143" lon="11.7329892"><ele>79.0</ele><time>2026-04-26T12:47:10.001Z</time></trkpt><trkpt lat="45.7030747" lon="11.7329654"><ele>79.0</ele><time>2026-04-26T12:47:11.019Z</time></trkpt><trkpt lat="45.7033357" lon="11.732942"><ele>79.0</ele><time>2026-04-26T12:47:12.008Z</time></trkpt><trkpt lat="45.7035949" lon="11.7329179"><ele>79.5</ele><time>2026-04-26T12:47:13.004Z</time></trkpt><trkpt lat="45.7038382" lon="11.732892"><ele>80.0</ele><time>2026-04-26T12:47:14.006Z</time></trkpt><trkpt lat="45.7040586" lon="11.7328676"><ele>80.0</ele><time>2026-04-26T12:47:15.005Z</time></trkpt><trkpt lat="45.7042559" lon="11.7328443"><ele>80.0</ele><time>2026-04-26T12:47:16.005Z</time></trkpt><trkpt lat="45.7044261" lon="11.7328248"><ele>80.0</ele><time>2026-04-26T12:47:17.004Z</time></trkpt><trkpt lat="45.7045834" lon="11.7328017"><ele>80.0</ele><time>2026-04-26T12:47:18.005Z</time></trkpt><trkpt lat="45.7047459" lon="11.7327655"><ele>80.0</ele><time>2026-04-26T12:47:19.01Z</time></trkpt><trkpt lat="45.704923" lon="11.7327203"><ele>80.0</ele><time>2026-04-26T12:47:20.01Z</time></trkpt><trkpt lat="45.705113" lon="11.7326736"><ele>80.33333333333334</ele><time>2026-04-26T12:47:21.02Z</time></trkpt><trkpt lat="45.7053109" lon="11.7326195"><ele>80.66666666666667</ele><time>2026-04-26T12:47:22.011Z</time></trkpt><trkpt lat="45.7055189" lon="11.7325542"><ele>81.0</ele><time>2026-04-26T12:47:23.007Z</time></trkpt><trkpt lat="45.7057352" lon="11.7324866"><ele>81.0</ele><time>2026-04-26T12:47:23.998Z</time></trkpt><trkpt lat="45.7059573" lon="11.7324214"><ele>81.0</ele><time>2026-04-26T12:47:25.005Z</time></trkpt><trkpt lat="45.7061658" lon="11.7323611"><ele>81.0</ele><time>2026-04-26T12:47:25.996Z</time></trkpt><trkpt lat="45.7063619" lon="11.7323077"><ele>81.33333333333333</ele><time>2026-04-26T12:47:27.017Z</time></trkpt><trkpt lat="45.7065427" lon="11.7322625"><ele>81.66666666666666</ele><time>2026-04-26T12:47:28Z</time></trkpt><trkpt lat="45.7067119" lon="11.7322242"><ele>82.0</ele><time>2026-04-26T12:47:29.003Z</time></trkpt><trkpt lat="45.7068588" lon="11.7321982"><ele>82.25</ele><time>2026-04-26T12:47:30.002Z</time></trkpt><trkpt lat="45.7069966" lon="11.7321729"><ele>82.5</ele><time>2026-04-26T12:47:31.003Z</time></trkpt><trkpt lat="45.7071209" lon="11.7321498"><ele>82.75</ele><time>2026-04-26T12:47:31.999Z</time></trkpt><trkpt lat="45.7072345" lon="11.7321273"><ele>83.0</ele><time>2026-04-26T12:47:33.02Z</time></trkpt><trkpt lat="45.7073421" lon="11.7321051"><ele>83.0</ele><time>2026-04-26T12:47:34.008Z</time></trkpt><trkpt lat="45.7074452" lon="11.7320826"><ele>83.0</ele><time>2026-04-26T12:47:35.012Z</time></trkpt><trkpt lat="45.7075502" lon="11.7320579"><ele>83.0</ele><time>2026-04-26T12:47:36.004Z</time></trkpt><trkpt lat="45.7076514" lon="11.7320301"><ele>83.0</ele><time>2026-04-26T12:47:37.007Z</time></trkpt><trkpt lat="45.707743" lon="11.7320021"><ele>83.0</ele><time>2026-04-26T12:47:38.005Z</time></trkpt><trkpt lat="45.7078266" lon="11.7319781"><ele>83.2</ele><time>2026-04-26T12:47:39.008Z</time></trkpt><trkpt lat="45.7079125" lon="11.7319543"><ele>83.4</ele><time>2026-04-26T12:47:39.997Z</time></trkpt><trkpt lat="45.7080057" lon="11.7319315"><ele>83.60000000000001</ele><time>2026-04-26T12:47:40.999Z</time></trkpt><trkpt lat="45.7081008" lon="11.7319128"><ele>83.80000000000001</ele><time>2026-04-26T12:47:41.993Z</time></trkpt><trkpt lat="45.7081884" lon="11.7319162"><ele>84.0</ele><time>2026-04-26T12:47:42.984Z</time></trkpt><trkpt lat="45.7082753" lon="11.7319109"><ele>84.0</ele><time>2026-04-26T12:47:43.994Z</time></trkpt><trkpt lat="45.7083609" lon="11.7318928"><ele>84.0</ele><time>2026-04-26T12:47:44.993Z</time></trkpt><trkpt lat="45.7084406" lon="11.7318806"><ele>84.0</ele><time>2026-04-26T12:47:45.983Z</time></trkpt><trkpt lat="45.7085259" lon="11.7318717"><ele>84.0</ele><time>2026-04-26T12:47:47.014Z</time></trkpt><trkpt lat="45.7086026" lon="11.7318536"><ele>84.0</ele><time>2026-04-26T12:47:48.01Z</time></trkpt><trkpt lat="45.7086735" lon="11.7318445"><ele>84.0</ele><time>2026-04-26T12:47:49.007Z</time></trkpt><trkpt lat="45.7087408" lon="11.731832"><ele>84.0</ele><time>2026-04-26T12:47:50.012Z</time></trkpt><trkpt lat="45.7088558" lon="11.731813"><ele>84.0</ele><time>2026-04-26T12:47:52.001Z</time></trkpt><trkpt lat="45.7089312" lon="11.7318076"><ele>84.0</ele><time>2026-04-26T12:47:53.007Z</time></trkpt><trkpt lat="45.7090234" lon="11.731791"><ele>84.0</ele><time>2026-04-26T12:47:54.005Z</time></trkpt><trkpt lat="45.7091289" lon="11.7317713"><ele>84.0</ele><time>2026-04-26T12:47:55.008Z</time></trkpt><trkpt lat="45.7092207" lon="11.7317578"><ele>84.0</ele><time>2026-04-26T12:47:56.007Z</time></trkpt><trkpt lat="45.7093292" lon="11.7317447"><ele>84.0</ele><time>2026-04-26T12:47:58.002Z</time></trkpt><trkpt lat="45.7093967" lon="11.7317357"><ele>84.0</ele><time>2026-04-26T12:48:00.003Z</time></trkpt><trkpt lat="45.709459" lon="11.7316645"><ele>84.0</ele><time>2026-04-26T12:48:02.005Z</time></trkpt><trkpt lat="45.7094544" lon="11.7315213"><ele>84.0</ele><time>2026-04-26T12:48:03.995Z</time></trkpt><trkpt lat="45.709448" lon="11.7314088"><ele>84.0</ele><time>2026-04-26T12:48:06Z</time></trkpt><trkpt lat="45.7094477" lon="11.7313047"><ele>84.0</ele><time>2026-04-26T12:48:08Z</time></trkpt><trkpt lat="45.7093978" lon="11.7313817"><ele>84.0</ele><time>2026-04-26T12:48:13.992Z</time></trkpt><trkpt lat="45.7093995" lon="11.7314879"><ele>84.0</ele><time>2026-04-26T12:48:16.006Z</time></trkpt><trkpt lat="45.7093995" lon="11.7315971"><ele>84.0</ele><time>2026-04-26T12:48:18.015Z</time></trkpt><trkpt lat="45.7094364" lon="11.731703"><ele>84.0</ele><time>2026-04-26T12:53:11.998Z</time></trkpt><trkpt lat="45.7095089" lon="11.7317662"><ele>84.0</ele><time>2026-04-26T12:53:20.983Z</time></trkpt><trkpt lat="45.7095761" lon="11.7317684"><ele>84.4</ele><time>2026-04-26T12:53:22Z</time></trkpt><trkpt lat="45.709654" lon="11.7317631"><ele>84.80000000000001</ele><time>2026-04-26T12:53:22.997Z</time></trkpt><trkpt lat="45.7097454" lon="11.7317548"><ele>85.19999999999999</ele><time>2026-04-26T12:53:23.992Z</time></trkpt><trkpt lat="45.7098452" lon="11.7317439"><ele>85.6</ele><time>2026-04-26T12:53:25.006Z</time></trkpt><trkpt lat="45.7099499" lon="11.7317369"><ele>86.0</ele><time>2026-04-26T12:53:26.002Z</time></trkpt><trkpt lat="45.7100567" lon="11.7317312"><ele>86.0</ele><time>2026-04-26T12:53:27.007Z</time></trkpt><trkpt lat="45.7101651" lon="11.7317211"><ele>86.0</ele><time>2026-04-26T12:53:28.009Z</time></trkpt><trkpt lat="45.7102719" lon="11.7317144"><ele>86.0</ele><time>2026-04-26T12:53:29.022Z</time></trkpt><trkpt lat="45.7103789" lon="11.7317093"><ele>86.0</ele><time>2026-04-26T12:53:30.016Z</time></trkpt><trkpt lat="45.7104961" lon="11.7317047"><ele>86.0</ele><time>2026-04-26T12:53:30.991Z</time></trkpt><trkpt lat="45.7106165" lon="11.7316976"><ele>85.75</ele><time>2026-04-26T12:53:32.024Z</time></trkpt><trkpt lat="45.7107384" lon="11.731689"><ele>85.5</ele><time>2026-04-26T12:53:33.011Z</time></trkpt><trkpt lat="45.7108659" lon="11.7316807"><ele>85.25</ele><time>2026-04-26T12:53:34.017Z</time></trkpt><trkpt lat="45.7109971" lon="11.7316737"><ele>85.0</ele><time>2026-04-26T12:53:35.024Z</time></trkpt><trkpt lat="45.7111218" lon="11.7316635"><ele>85.0</ele><time>2026-04-26T12:53:36.003Z</time></trkpt><trkpt lat="45.7112487" lon="11.7316551"><ele>85.0</ele><time>2026-04-26T12:53:37.004Z</time></trkpt><trkpt lat="45.711377" lon="11.7316489"><ele>85.0</ele><time>2026-04-26T12:53:38.013Z</time></trkpt><trkpt lat="45.7115098" lon="11.73164"><ele>85.0</ele><time>2026-04-26T12:53:38.991Z</time></trkpt><trkpt lat="45.7116462" lon="11.731631"><ele>85.0</ele><time>2026-04-26T12:53:39.997Z</time></trkpt><trkpt lat="45.7117834" lon="11.7316207"><ele>85.0</ele><time>2026-04-26T12:53:41.019Z</time></trkpt><trkpt lat="45.71192" lon="11.731609"><ele>85.0</ele><time>2026-04-26T12:53:41.999Z</time></trkpt><trkpt lat="45.7120568" lon="11.7315966"><ele>85.0</ele><time>2026-04-26T12:53:43.004Z</time></trkpt><trkpt lat="45.7121946" lon="11.7315846"><ele>85.5</ele><time>2026-04-26T12:53:44.005Z</time></trkpt><trkpt lat="45.7123347" lon="11.7315747"><ele>86.0</ele><time>2026-04-26T12:53:45.002Z</time></trkpt><trkpt lat="45.7124795" lon="11.7315667"><ele>86.5</ele><time>2026-04-26T12:53:46.005Z</time></trkpt><trkpt lat="45.7126254" lon="11.7315614"><ele>87.0</ele><time>2026-04-26T12:53:47.001Z</time></trkpt><trkpt lat="45.712772" lon="11.7315582"><ele>87.25</ele><time>2026-04-26T12:53:48.009Z</time></trkpt><trkpt lat="45.712918" lon="11.7315558"><ele>87.5</ele><time>2026-04-26T12:53:48.997Z</time></trkpt><trkpt lat="45.7130696" lon="11.7315748"><ele>87.75</ele><time>2026-04-26T12:53:49.994Z</time></trkpt><trkpt lat="45.7132195" lon="11.7316022"><ele>88.0</ele><time>2026-04-26T12:53:51Z</time></trkpt><trkpt lat="45.7133666" lon="11.7316328"><ele>88.0</ele><time>2026-04-26T12:53:51.998Z</time></trkpt><trkpt lat="45.7135185" lon="11.7316672"><ele>88.0</ele><time>2026-04-26T12:53:53.006Z</time></trkpt><trkpt lat="45.7136677" lon="11.7317004"><ele>88.0</ele><time>2026-04-26T12:53:54.018Z</time></trkpt><trkpt lat="45.7138197" lon="11.7317355"><ele>87.66666666666666</ele><time>2026-04-26T12:53:55.008Z</time></trkpt><trkpt lat="45.7139705" lon="11.7317721"><ele>87.33333333333333</ele><time>2026-04-26T12:53:56.005Z</time></trkpt><trkpt lat="45.7141202" lon="11.7318127"><ele>87.0</ele><time>2026-04-26T12:53:57.007Z</time></trkpt><trkpt lat="45.7142705" lon="11.7318577"><ele>87.33333333333333</ele><time>2026-04-26T12:53:57.999Z</time></trkpt><trkpt lat="45.7144204" lon="11.7319054"><ele>87.66666666666666</ele><time>2026-04-26T12:53:59.002Z</time></trkpt><trkpt lat="45.7145712" lon="11.7319527"><ele>88.0</ele><time>2026-04-26T12:54:00.005Z</time></trkpt><trkpt lat="45.7147272" lon="11.7320005"><ele>88.0</ele><time>2026-04-26T12:54:00.999Z</time></trkpt><trkpt lat="45.7148801" lon="11.7320453"><ele>88.0</ele><time>2026-04-26T12:54:02.005Z</time></trkpt><trkpt lat="45.7150315" lon="11.7320921"><ele>88.0</ele><time>2026-04-26T12:54:03.012Z</time></trkpt><trkpt lat="45.7151845" lon="11.7321359"><ele>88.66666666666666</ele><time>2026-04-26T12:54:04.002Z</time></trkpt><trkpt lat="45.7153281" lon="11.7321772"><ele>89.33333333333333</ele><time>2026-04-26T12:54:05.005Z</time></trkpt><trkpt lat="45.7154775" lon="11.7322188"><ele>90.0</ele><time>2026-04-26T12:54:06.01Z</time></trkpt><trkpt lat="45.7156262" lon="11.7322617"><ele>90.0</ele><time>2026-04-26T12:54:07.003Z</time></trkpt><trkpt lat="45.7157769" lon="11.7323074"><ele>90.0</ele><time>2026-04-26T12:54:08.004Z</time></trkpt><trkpt lat="45.7159278" lon="11.7323515"><ele>90.0</ele><time>2026-04-26T12:54:09.005Z</time></trkpt><trkpt lat="45.7160786" lon="11.7323943"><ele>89.66666666666667</ele><time>2026-04-26T12:54:09.992Z</time></trkpt><trkpt lat="45.7162316" lon="11.7324381"><ele>89.33333333333334</ele><time>2026-04-26T12:54:11.004Z</time></trkpt><trkpt lat="45.7163862" lon="11.7324817"><ele>89.0</ele><time>2026-04-26T12:54:12.005Z</time></trkpt><trkpt lat="45.7165441" lon="11.7325283"><ele>89.0</ele><time>2026-04-26T12:54:12.998Z</time></trkpt><trkpt lat="45.7166992" lon="11.7325742"><ele>89.0</ele><time>2026-04-26T12:54:14.004Z</time></trkpt><trkpt lat="45.7168544" lon="11.7326294"><ele>89.0</ele><time>2026-04-26T12:54:14.993Z</time></trkpt><trkpt lat="45.7170061" lon="11.7326669"><ele>89.33333333333334</ele><time>2026-04-26T12:54:16.001Z</time></trkpt><trkpt lat="45.7171583" lon="11.7326965"><ele>89.66666666666667</ele><time>2026-04-26T12:54:17.003Z</time></trkpt><trkpt lat="45.7173103" lon="11.73272"><ele>90.0</ele><time>2026-04-26T12:54:18.003Z</time></trkpt><trkpt lat="45.7174664" lon="11.7327301"><ele>90.0</ele><time>2026-04-26T12:54:19.006Z</time></trkpt><trkpt lat="45.717627" lon="11.7327376"><ele>90.0</ele><time>2026-04-26T12:54:20.005Z</time></trkpt><trkpt lat="45.7177941" lon="11.7327368"><ele>90.0</ele><time>2026-04-26T12:54:20.991Z</time></trkpt><trkpt lat="45.7179594" lon="11.7327357"><ele>90.0</ele><time>2026-04-26T12:54:22.002Z</time></trkpt><trkpt lat="45.7181204" lon="11.7327391"><ele>90.0</ele><time>2026-04-26T12:54:23.004Z</time></trkpt><trkpt lat="45.7182819" lon="11.7327465"><ele>90.0</ele><time>2026-04-26T12:54:24.02Z</time></trkpt><trkpt lat="45.7184459" lon="11.7327555"><ele>90.33333333333333</ele><time>2026-04-26T12:54:25.001Z</time></trkpt><trkpt lat="45.7186054" lon="11.7327718"><ele>90.66666666666666</ele><time>2026-04-26T12:54:26.009Z</time></trkpt><trkpt lat="45.7187645" lon="11.7327914"><ele>91.0</ele><time>2026-04-26T12:54:27.015Z</time></trkpt><trkpt lat="45.7189248" lon="11.7328124"><ele>91.0</ele><time>2026-04-26T12:54:28.041Z</time></trkpt><trkpt lat="45.7190853" lon="11.7328331"><ele>91.0</ele><time>2026-04-26T12:54:29.007Z</time></trkpt><trkpt lat="45.7192464" lon="11.7328532"><ele>91.0</ele><time>2026-04-26T12:54:30.007Z</time></trkpt><trkpt lat="45.7194074" lon="11.7328731"><ele>91.66666666666666</ele><time>2026-04-26T12:54:31.02Z</time></trkpt><trkpt lat="45.7195658" lon="11.7328924"><ele>92.33333333333333</ele><time>2026-04-26T12:54:32.002Z</time></trkpt><trkpt lat="45.719722" lon="11.732912"><ele>93.0</ele><time>2026-04-26T12:54:33.01Z</time></trkpt><trkpt lat="45.7198753" lon="11.7329251"><ele>93.0</ele><time>2026-04-26T12:54:34.016Z</time></trkpt><trkpt lat="45.7200287" lon="11.7329501"><ele>93.0</ele><time>2026-04-26T12:54:34.994Z</time></trkpt><trkpt lat="45.7201747" lon="11.7329736"><ele>93.0</ele><time>2026-04-26T12:54:35.995Z</time></trkpt><trkpt lat="45.7203047" lon="11.7329889"><ele>93.0</ele><time>2026-04-26T12:54:37.006Z</time></trkpt><trkpt lat="45.7204286" lon="11.7330117"><ele>93.0</ele><time>2026-04-26T12:54:38.015Z</time></trkpt><trkpt lat="45.7205315" lon="11.733024"><ele>93.0</ele><time>2026-04-26T12:54:39.012Z</time></trkpt><trkpt lat="45.7206174" lon="11.7330354"><ele>93.0</ele><time>2026-04-26T12:54:40.002Z</time></trkpt><trkpt lat="45.7206885" lon="11.7330492"><ele>93.0</ele><time>2026-04-26T12:54:41.001Z</time></trkpt><trkpt lat="45.7208003" lon="11.7330773"><ele>93.0</ele><time>2026-04-26T12:54:43.001Z</time></trkpt><trkpt lat="45.7208577" lon="11.733125"><ele>93.0</ele><time>2026-04-26T12:54:43.996Z</time></trkpt><trkpt lat="45.720914" lon="11.7332048"><ele>93.0</ele><time>2026-04-26T12:54:44.99Z</time></trkpt><trkpt lat="45.7209618" lon="11.7333145"><ele>93.0</ele><time>2026-04-26T12:54:45.99Z</time></trkpt><trkpt lat="45.7209992" lon="11.7334428"><ele>93.0</ele><time>2026-04-26T12:54:46.987Z</time></trkpt><trkpt lat="45.7210298" lon="11.7335869"><ele>93.0</ele><time>2026-04-26T12:54:47.993Z</time></trkpt><trkpt lat="45.7210577" lon="11.7337433"><ele>93.0</ele><time>2026-04-26T12:54:49.003Z</time></trkpt><trkpt lat="45.7210856" lon="11.7339032"><ele>93.0</ele><time>2026-04-26T12:54:50.004Z</time></trkpt><trkpt lat="45.7211125" lon="11.7340693"><ele>93.0</ele><time>2026-04-26T12:54:51Z</time></trkpt><trkpt lat="45.7211411" lon="11.7342399"><ele>93.0</ele><time>2026-04-26T12:54:51.993Z</time></trkpt><trkpt lat="45.721171" lon="11.7344161"><ele>93.0</ele><time>2026-04-26T12:54:52.992Z</time></trkpt><trkpt lat="45.7212015" lon="11.7345944"><ele>93.0</ele><time>2026-04-26T12:54:53.987Z</time></trkpt><trkpt lat="45.7212325" lon="11.7347729"><ele>93.0</ele><time>2026-04-26T12:54:54.99Z</time></trkpt><trkpt lat="45.7212633" lon="11.7349459"><ele>93.0</ele><time>2026-04-26T12:54:55.987Z</time></trkpt><trkpt lat="45.7212923" lon="11.7351115"><ele>93.0</ele><time>2026-04-26T12:54:57.004Z</time></trkpt><trkpt lat="45.7213179" lon="11.7352771"><ele>93.25</ele><time>2026-04-26T12:54:58Z</time></trkpt><trkpt lat="45.7213468" lon="11.7354473"><ele>93.5</ele><time>2026-04-26T12:54:59.004Z</time></trkpt><trkpt lat="45.7213761" lon="11.7356184"><ele>93.75</ele><time>2026-04-26T12:54:59.99Z</time></trkpt><trkpt lat="45.7214069" lon="11.7357908"><ele>94.0</ele><time>2026-04-26T12:55:00.999Z</time></trkpt><trkpt lat="45.7214377" lon="11.7359654"><ele>94.0</ele><time>2026-04-26T12:55:02.002Z</time></trkpt><trkpt lat="45.7214666" lon="11.7361394"><ele>94.0</ele><time>2026-04-26T12:55:03.001Z</time></trkpt><trkpt lat="45.7214967" lon="11.736314"><ele>94.0</ele><time>2026-04-26T12:55:04.002Z</time></trkpt><trkpt lat="45.7215275" lon="11.7364903"><ele>94.0</ele><time>2026-04-26T12:55:05.002Z</time></trkpt><trkpt lat="45.72156" lon="11.7366683"><ele>94.0</ele><time>2026-04-26T12:55:05.992Z</time></trkpt><trkpt lat="45.7215905" lon="11.736849"><ele>94.0</ele><time>2026-04-26T12:55:06.999Z</time></trkpt><trkpt lat="45.7216187" lon="11.7370334"><ele>94.0</ele><time>2026-04-26T12:55:08.001Z</time></trkpt><trkpt lat="45.7216494" lon="11.7372198"><ele>94.0</ele><time>2026-04-26T12:55:08.994Z</time></trkpt><trkpt lat="45.7216809" lon="11.7374087"><ele>93.5</ele><time>2026-04-26T12:55:09.985Z</time></trkpt><trkpt lat="45.7217127" lon="11.7375996"><ele>93.0</ele><time>2026-04-26T12:55:10.986Z</time></trkpt><trkpt lat="45.7217445" lon="11.7377918"><ele>92.5</ele><time>2026-04-26T12:55:12.016Z</time></trkpt><trkpt lat="45.7217753" lon="11.7379847"><ele>92.0</ele><time>2026-04-26T12:55:12.997Z</time></trkpt><trkpt lat="45.7218044" lon="11.7381799"><ele>92.0</ele><time>2026-04-26T12:55:14.002Z</time></trkpt><trkpt lat="45.7218285" lon="11.7383793"><ele>92.0</ele><time>2026-04-26T12:55:15.008Z</time></trkpt><trkpt lat="45.7218559" lon="11.7385769"><ele>92.0</ele><time>2026-04-26T12:55:16.007Z</time></trkpt><trkpt lat="45.7218833" lon="11.7387732"><ele>92.0</ele><time>2026-04-26T12:55:17.003Z</time></trkpt><trkpt lat="45.7219108" lon="11.7389719"><ele>92.0</ele><time>2026-04-26T12:55:18Z</time></trkpt><trkpt lat="45.7219378" lon="11.7391687"><ele>92.0</ele><time>2026-04-26T12:55:19Z</time></trkpt><trkpt lat="45.721965" lon="11.7393665"><ele>92.0</ele><time>2026-04-26T12:55:19.998Z</time></trkpt><trkpt lat="45.721993" lon="11.739565"><ele>92.0</ele><time>2026-04-26T12:55:20.984Z</time></trkpt><trkpt lat="45.7220208" lon="11.7397634"><ele>92.5</ele><time>2026-04-26T12:55:21.999Z</time></trkpt><trkpt lat="45.7220482" lon="11.7399611"><ele>93.0</ele><time>2026-04-26T12:55:22.994Z</time></trkpt><trkpt lat="45.7220751" lon="11.7401554"><ele>93.5</ele><time>2026-04-26T12:55:24.001Z</time></trkpt><trkpt lat="45.7221011" lon="11.7403361"><ele>94.0</ele><time>2026-04-26T12:55:24.996Z</time></trkpt><trkpt lat="45.7221278" lon="11.7405142"><ele>94.25</ele><time>2026-04-26T12:55:25.996Z</time></trkpt><trkpt lat="45.7221574" lon="11.7406934"><ele>94.5</ele><time>2026-04-26T12:55:27.013Z</time></trkpt><trkpt lat="45.72219" lon="11.7408709"><ele>94.75</ele><time>2026-04-26T12:55:28.003Z</time></trkpt><trkpt lat="45.7222301" lon="11.7410478"><ele>95.0</ele><time>2026-04-26T12:55:28.995Z</time></trkpt><trkpt lat="45.7222779" lon="11.7412225"><ele>95.0</ele><time>2026-04-26T12:55:30.009Z</time></trkpt><trkpt lat="45.7223327" lon="11.7413944"><ele>95.0</ele><time>2026-04-26T12:55:31.001Z</time></trkpt><trkpt lat="45.7223945" lon="11.7415635"><ele>95.0</ele><time>2026-04-26T12:55:31.999Z</time></trkpt><trkpt lat="45.7224635" lon="11.741734"><ele>95.0</ele><time>2026-04-26T12:55:32.997Z</time></trkpt><trkpt lat="45.722538" lon="11.741904"><ele>95.0</ele><time>2026-04-26T12:55:34.004Z</time></trkpt><trkpt lat="45.7226157" lon="11.7420696"><ele>95.0</ele><time>2026-04-26T12:55:34.987Z</time></trkpt><trkpt lat="45.7226936" lon="11.7422286"><ele>95.0</ele><time>2026-04-26T12:55:36.009Z</time></trkpt><trkpt lat="45.7227688" lon="11.7423797"><ele>95.0</ele><time>2026-04-26T12:55:37.007Z</time></trkpt><trkpt lat="45.7228369" lon="11.7425187"><ele>95.0</ele><time>2026-04-26T12:55:38.001Z</time></trkpt><trkpt lat="45.7228992" lon="11.7426478"><ele>95.0</ele><time>2026-04-26T12:55:38.992Z</time></trkpt><trkpt lat="45.7229553" lon="11.7427653"><ele>95.0</ele><time>2026-04-26T12:55:40.008Z</time></trkpt><trkpt lat="45.7230064" lon="11.7428726"><ele>95.0</ele><time>2026-04-26T12:55:40.99Z</time></trkpt><trkpt lat="45.7230531" lon="11.7429734"><ele>95.0</ele><time>2026-04-26T12:55:41.996Z</time></trkpt><trkpt lat="45.7231012" lon="11.7430729"><ele>95.2</ele><time>2026-04-26T12:55:43.001Z</time></trkpt><trkpt lat="45.7231295" lon="11.7432018"><ele>95.4</ele><time>2026-04-26T12:55:44.008Z</time></trkpt><trkpt lat="45.7231579" lon="11.7433413"><ele>95.6</ele><time>2026-04-26T12:55:44.996Z</time></trkpt><trkpt lat="45.7232139" lon="11.7434906"><ele>95.8</ele><time>2026-04-26T12:55:45.991Z</time></trkpt><trkpt lat="45.723275" lon="11.7436417"><ele>96.0</ele><time>2026-04-26T12:55:46.992Z</time></trkpt><trkpt lat="45.7233229" lon="11.7438078"><ele>96.0</ele><time>2026-04-26T12:55:47.995Z</time></trkpt><trkpt lat="45.7233591" lon="11.7439866"><ele>96.0</ele><time>2026-04-26T12:55:48.986Z</time></trkpt><trkpt lat="45.7233846" lon="11.7441715"><ele>96.0</ele><time>2026-04-26T12:55:50Z</time></trkpt><trkpt lat="45.7234014" lon="11.7443565"><ele>96.0</ele><time>2026-04-26T12:55:50.996Z</time></trkpt><trkpt lat="45.7234127" lon="11.744544"><ele>96.0</ele><time>2026-04-26T12:55:52.007Z</time></trkpt><trkpt lat="45.7234183" lon="11.7447434"><ele>96.0</ele><time>2026-04-26T12:55:53.002Z</time></trkpt><trkpt lat="45.7234171" lon="11.7449464"><ele>96.0</ele><time>2026-04-26T12:55:54.013Z</time></trkpt><trkpt lat="45.7234156" lon="11.745148"><ele>96.0</ele><time>2026-04-26T12:55:54.995Z</time></trkpt><trkpt lat="45.7234139" lon="11.7453596"><ele>97.33333333333334</ele><time>2026-04-26T12:55:56.004Z</time></trkpt><trkpt lat="45.723415" lon="11.7455756"><ele>98.66666666666667</ele><time>2026-04-26T12:55:57.013Z</time></trkpt><trkpt lat="45.723415" lon="11.7457949"><ele>100.0</ele><time>2026-04-26T12:55:58.004Z</time></trkpt><trkpt lat="45.723414" lon="11.7460173"><ele>100.0</ele><time>2026-04-26T12:55:59.002Z</time></trkpt><trkpt lat="45.7234124" lon="11.7462416"><ele>100.0</ele><time>2026-04-26T12:55:59.999Z</time></trkpt><trkpt lat="45.7234078" lon="11.746464"><ele>100.0</ele><time>2026-04-26T12:56:01.002Z</time></trkpt><trkpt lat="45.7234068" lon="11.7466848"><ele>100.33333333333334</ele><time>2026-04-26T12:56:02.007Z</time></trkpt><trkpt lat="45.723407" lon="11.7469052"><ele>100.66666666666666</ele><time>2026-04-26T12:56:02.991Z</time></trkpt><trkpt lat="45.7234106" lon="11.7471256"><ele>101.0</ele><time>2026-04-26T12:56:03.991Z</time></trkpt><trkpt lat="45.7234171" lon="11.7473522"><ele>101.0</ele><time>2026-04-26T12:56:05.001Z</time></trkpt><trkpt lat="45.7234295" lon="11.7475891"><ele>101.0</ele><time>2026-04-26T12:56:05.992Z</time></trkpt><trkpt lat="45.7234503" lon="11.7478287"><ele>101.0</ele><time>2026-04-26T12:56:06.995Z</time></trkpt><trkpt lat="45.7234813" lon="11.7480666"><ele>100.33333333333333</ele><time>2026-04-26T12:56:08Z</time></trkpt><trkpt lat="45.7235178" lon="11.7483059"><ele>99.66666666666666</ele><time>2026-04-26T12:56:08.99Z</time></trkpt><trkpt lat="45.723558" lon="11.74855"><ele>99.0</ele><time>2026-04-26T12:56:09.997Z</time></trkpt><trkpt lat="45.7236017" lon="11.7487956"><ele>99.0</ele><time>2026-04-26T12:56:11.01Z</time></trkpt><trkpt lat="45.7236471" lon="11.749041"><ele>99.0</ele><time>2026-04-26T12:56:11.999Z</time></trkpt><trkpt lat="45.7236915" lon="11.7492831"><ele>99.0</ele><time>2026-04-26T12:56:12.985Z</time></trkpt><trkpt lat="45.7237358" lon="11.7495241"><ele>98.0</ele><time>2026-04-26T12:56:14.01Z</time></trkpt><trkpt lat="45.7237803" lon="11.7497654"><ele>97.0</ele><time>2026-04-26T12:56:15.007Z</time></trkpt><trkpt lat="45.7238248" lon="11.7500082"><ele>96.0</ele><time>2026-04-26T12:56:16.009Z</time></trkpt><trkpt lat="45.7238676" lon="11.7502499"><ele>96.0</ele><time>2026-04-26T12:56:17.013Z</time></trkpt><trkpt lat="45.7239119" lon="11.7504868"><ele>96.0</ele><time>2026-04-26T12:56:17.998Z</time></trkpt><trkpt lat="45.7239548" lon="11.7507221"><ele>96.0</ele><time>2026-04-26T12:56:19.001Z</time></trkpt><trkpt lat="45.7239995" lon="11.7509552"><ele>96.0</ele><time>2026-04-26T12:56:20.002Z</time></trkpt><trkpt lat="45.7240468" lon="11.7511867"><ele>96.0</ele><time>2026-04-26T12:56:21.007Z</time></trkpt><trkpt lat="45.7240958" lon="11.751418"><ele>96.0</ele><time>2026-04-26T12:56:21.996Z</time></trkpt><trkpt lat="45.7241447" lon="11.7516512"><ele>96.0</ele><time>2026-04-26T12:56:22.991Z</time></trkpt><trkpt lat="45.7241964" lon="11.7518797"><ele>96.0</ele><time>2026-04-26T12:56:24.001Z</time></trkpt><trkpt lat="45.7242397" lon="11.7521156"><ele>96.0</ele><time>2026-04-26T12:56:24.996Z</time></trkpt><trkpt lat="45.7242813" lon="11.752363"><ele>96.0</ele><time>2026-04-26T12:56:26.022Z</time></trkpt><trkpt lat="45.7243109" lon="11.7526096"><ele>96.0</ele><time>2026-04-26T12:56:27.002Z</time></trkpt><trkpt lat="45.7243361" lon="11.7528556"><ele>96.0</ele><time>2026-04-26T12:56:28.001Z</time></trkpt><trkpt lat="45.7243631" lon="11.7531028"><ele>96.0</ele><time>2026-04-26T12:56:28.988Z</time></trkpt><trkpt lat="45.7243883" lon="11.7533544"><ele>96.0</ele><time>2026-04-26T12:56:29.989Z</time></trkpt><trkpt lat="45.7244088" lon="11.7536108"><ele>96.0</ele><time>2026-04-26T12:56:30.988Z</time></trkpt><trkpt lat="45.7244239" lon="11.7538635"><ele>96.0</ele><time>2026-04-26T12:56:32.003Z</time></trkpt><trkpt lat="45.724432" lon="11.7541128"><ele>96.0</ele><time>2026-04-26T12:56:32.99Z</time></trkpt><trkpt lat="45.7244307" lon="11.7543545"><ele>96.0</ele><time>2026-04-26T12:56:33.99Z</time></trkpt><trkpt lat="45.7244254" lon="11.7545986"><ele>96.0</ele><time>2026-04-26T12:56:34.996Z</time></trkpt><trkpt lat="45.7244142" lon="11.754842"><ele>96.0</ele><time>2026-04-26T12:56:35.994Z</time></trkpt><trkpt lat="45.7244058" lon="11.7550854"><ele>96.0</ele><time>2026-04-26T12:56:36.995Z</time></trkpt><trkpt lat="45.7243979" lon="11.7553283"><ele>96.0</ele><time>2026-04-26T12:56:37.991Z</time></trkpt><trkpt lat="45.7243913" lon="11.7555722"><ele>96.0</ele><time>2026-04-26T12:56:38.998Z</time></trkpt><trkpt lat="45.7243875" lon="11.7558171"><ele>96.0</ele><time>2026-04-26T12:56:39.992Z</time></trkpt><trkpt lat="45.7243852" lon="11.7560575"><ele>96.0</ele><time>2026-04-26T12:56:41.011Z</time></trkpt><trkpt lat="45.7243829" lon="11.7562955"><ele>96.0</ele><time>2026-04-26T12:56:42.003Z</time></trkpt><trkpt lat="45.7243807" lon="11.7565297"><ele>96.0</ele><time>2026-04-26T12:56:42.994Z</time></trkpt><trkpt lat="45.7243774" lon="11.7567556"><ele>96.0</ele><time>2026-04-26T12:56:43.987Z</time></trkpt><trkpt lat="45.7243752" lon="11.756978"><ele>96.0</ele><time>2026-04-26T12:56:45.001Z</time></trkpt><trkpt lat="45.7243741" lon="11.7571981"><ele>96.0</ele><time>2026-04-26T12:56:45.997Z</time></trkpt><trkpt lat="45.7243736" lon="11.7574165"><ele>96.0</ele><time>2026-04-26T12:56:47.001Z</time></trkpt><trkpt lat="45.7243718" lon="11.7576322"><ele>96.0</ele><time>2026-04-26T12:56:47.999Z</time></trkpt><trkpt lat="45.7243696" lon="11.7578387"><ele>96.0</ele><time>2026-04-26T12:56:49.004Z</time></trkpt><trkpt lat="45.724368" lon="11.7580362"><ele>96.0</ele><time>2026-04-26T12:56:49.996Z</time></trkpt><trkpt lat="45.724366" lon="11.7582321"><ele>95.5</ele><time>2026-04-26T12:56:50.991Z</time></trkpt><trkpt lat="45.7243656" lon="11.7584238"><ele>95.0</ele><time>2026-04-26T12:56:52.005Z</time></trkpt><trkpt lat="45.7243641" lon="11.7586031"><ele>94.5</ele><time>2026-04-26T12:56:52.996Z</time></trkpt><trkpt lat="45.7243636" lon="11.7587695"><ele>94.0</ele><time>2026-04-26T12:56:54.005Z</time></trkpt><trkpt lat="45.7243622" lon="11.7589233"><ele>94.0</ele><time>2026-04-26T12:56:55.006Z</time></trkpt><trkpt lat="45.7243602" lon="11.7590708"><ele>94.0</ele><time>2026-04-26T12:56:56.004Z</time></trkpt><trkpt lat="45.7243571" lon="11.7592169"><ele>94.0</ele><time>2026-04-26T12:56:56.997Z</time></trkpt><trkpt lat="45.7243511" lon="11.7593511"><ele>94.0</ele><time>2026-04-26T12:56:57.992Z</time></trkpt><trkpt lat="45.7243399" lon="11.7594724"><ele>94.0</ele><time>2026-04-26T12:56:58.999Z</time></trkpt><trkpt lat="45.7243197" lon="11.7595821"><ele>94.0</ele><time>2026-04-26T12:56:59.994Z</time></trkpt><trkpt lat="45.7243051" lon="11.7596952"><ele>94.0</ele><time>2026-04-26T12:57:00.991Z</time></trkpt><trkpt lat="45.7243143" lon="11.759815"><ele>94.0</ele><time>2026-04-26T12:57:01.998Z</time></trkpt><trkpt lat="45.7243329" lon="11.7599488"><ele>94.0</ele><time>2026-04-26T12:57:02.996Z</time></trkpt><trkpt lat="45.7243437" lon="11.760094"><ele>94.0</ele><time>2026-04-26T12:57:03.999Z</time></trkpt><trkpt lat="45.7243448" lon="11.7602394"><ele>94.0</ele><time>2026-04-26T12:57:05.005Z</time></trkpt><trkpt lat="45.7243457" lon="11.7603845"><ele>94.0</ele><time>2026-04-26T12:57:06.007Z</time></trkpt><trkpt lat="45.7243467" lon="11.7605283"><ele>94.0</ele><time>2026-04-26T12:57:06.993Z</time></trkpt><trkpt lat="45.7243469" lon="11.7606646"><ele>94.0</ele><time>2026-04-26T12:57:07.986Z</time></trkpt><trkpt lat="45.7243459" lon="11.7607938"><ele>94.0</ele><time>2026-04-26T12:57:09.008Z</time></trkpt><trkpt lat="45.724346" lon="11.7609235"><ele>94.0</ele><time>2026-04-26T12:57:09.992Z</time></trkpt><trkpt lat="45.7243475" lon="11.7610457"><ele>94.0</ele><time>2026-04-26T12:57:10.989Z</time></trkpt><trkpt lat="45.7243484" lon="11.7611568"><ele>94.0</ele><time>2026-04-26T12:57:11.997Z</time></trkpt><trkpt lat="45.7243486" lon="11.7612599"><ele>94.0</ele><time>2026-04-26T12:57:12.989Z</time></trkpt><trkpt lat="45.7243488" lon="11.7613525"><ele>94.0</ele><time>2026-04-26T12:57:13.978Z</time></trkpt><trkpt lat="45.7243463" lon="11.7614807"><ele>94.0</ele><time>2026-04-26T12:57:15.99Z</time></trkpt><trkpt lat="45.7243432" lon="11.76162"><ele>94.0</ele><time>2026-04-26T12:57:50.992Z</time></trkpt><trkpt lat="45.7243459" lon="11.7617566"><ele>94.0</ele><time>2026-04-26T12:57:52.997Z</time></trkpt><trkpt lat="45.7243476" lon="11.761888"><ele>94.0</ele><time>2026-04-26T12:57:54.996Z</time></trkpt><trkpt lat="45.7243503" lon="11.762019"><ele>94.0</ele><time>2026-04-26T12:57:57.006Z</time></trkpt><trkpt lat="45.724353" lon="11.7621485"><ele>94.0</ele><time>2026-04-26T12:57:59.004Z</time></trkpt><trkpt lat="45.7243545" lon="11.7622651"><ele>94.16666666666666</ele><time>2026-04-26T12:58:01.001Z</time></trkpt><trkpt lat="45.724365" lon="11.7623613"><ele>94.33333333333333</ele><time>2026-04-26T12:58:02.986Z</time></trkpt><trkpt lat="45.7243705" lon="11.7624873"><ele>94.5</ele><time>2026-04-26T12:58:04.99Z</time></trkpt><trkpt lat="45.7243721" lon="11.7625996"><ele>94.66666666666667</ele><time>2026-04-26T12:58:06.996Z</time></trkpt><trkpt lat="45.7243859" lon="11.7626994"><ele>94.83333333333334</ele><time>2026-04-26T12:58:08.992Z</time></trkpt><trkpt lat="45.7244487" lon="11.7627927"><ele>95.0</ele><time>2026-04-26T12:58:10.982Z</time></trkpt><trkpt lat="45.7245456" lon="11.7628088"><ele>95.0</ele><time>2026-04-26T12:58:12.995Z</time></trkpt><trkpt lat="45.7246226" lon="11.7627943"><ele>95.0</ele><time>2026-04-26T12:58:14.994Z</time></trkpt><trkpt lat="45.7247257" lon="11.7627643"><ele>95.0</ele><time>2026-04-26T12:58:17Z</time></trkpt><trkpt lat="45.7247961" lon="11.7627454"><ele>95.0</ele><time>2026-04-26T12:58:17.998Z</time></trkpt><trkpt lat="45.7248721" lon="11.7627216"><ele>95.0</ele><time>2026-04-26T12:58:19.006Z</time></trkpt><trkpt lat="45.7249445" lon="11.762698"><ele>95.0</ele><time>2026-04-26T12:58:20.008Z</time></trkpt><trkpt lat="45.7250225" lon="11.762678"><ele>95.33333333333334</ele><time>2026-04-26T12:58:21.004Z</time></trkpt><trkpt lat="45.7251023" lon="11.7626525"><ele>95.66666666666667</ele><time>2026-04-26T12:58:21.997Z</time></trkpt><trkpt lat="45.7251811" lon="11.7626297"><ele>96.0</ele><time>2026-04-26T12:58:22.999Z</time></trkpt><trkpt lat="45.7252559" lon="11.7626076"><ele>96.33333333333334</ele><time>2026-04-26T12:58:23.994Z</time></trkpt><trkpt lat="45.7253332" lon="11.7625856"><ele>96.66666666666667</ele><time>2026-04-26T12:58:24.995Z</time></trkpt><trkpt lat="45.7254109" lon="11.7625593"><ele>97.0</ele><time>2026-04-26T12:58:25.988Z</time></trkpt><trkpt lat="45.7254907" lon="11.7625362"><ele>97.00000000000001</ele><time>2026-04-26T12:58:26.992Z</time></trkpt><trkpt lat="45.7255697" lon="11.762514"><ele>97.0</ele><time>2026-04-26T12:58:28Z</time></trkpt><trkpt lat="45.7256501" lon="11.7624916"><ele>97.0</ele><time>2026-04-26T12:58:28.995Z</time></trkpt><trkpt lat="45.7257309" lon="11.7624689"><ele>97.0</ele><time>2026-04-26T12:58:29.999Z</time></trkpt><trkpt lat="45.7258167" lon="11.7624448"><ele>97.00000000000001</ele><time>2026-04-26T12:58:31.004Z</time></trkpt><trkpt lat="45.7259047" lon="11.7624181"><ele>97.0</ele><time>2026-04-26T12:58:31.993Z</time></trkpt><trkpt lat="45.7259957" lon="11.7623926"><ele>97.0</ele><time>2026-04-26T12:58:33.001Z</time></trkpt><trkpt lat="45.7260843" lon="11.7623643"><ele>97.0</ele><time>2026-04-26T12:58:34.001Z</time></trkpt><trkpt lat="45.7261755" lon="11.7623373"><ele>97.0</ele><time>2026-04-26T12:58:35.001Z</time></trkpt><trkpt lat="45.7262659" lon="11.7623109"><ele>97.0</ele><time>2026-04-26T12:58:35.993Z</time></trkpt><trkpt lat="45.7263702" lon="11.7622847"><ele>97.0</ele><time>2026-04-26T12:58:36.993Z</time></trkpt><trkpt lat="45.7264661" lon="11.76226"><ele>97.0</ele><time>2026-04-26T12:58:37.995Z</time></trkpt><trkpt lat="45.7265583" lon="11.7622305"><ele>97.0</ele><time>2026-04-26T12:58:38.99Z</time></trkpt><trkpt lat="45.7266508" lon="11.7622092"><ele>97.0</ele><time>2026-04-26T12:58:40.006Z</time></trkpt><trkpt lat="45.7267422" lon="11.7621839"><ele>97.0</ele><time>2026-04-26T12:58:40.995Z</time></trkpt><trkpt lat="45.7268348" lon="11.7621566"><ele>97.0</ele><time>2026-04-26T12:58:41.993Z</time></trkpt><trkpt lat="45.7269303" lon="11.7621298"><ele>97.33333333333334</ele><time>2026-04-26T12:58:43.001Z</time></trkpt><trkpt lat="45.7270231" lon="11.7621037"><ele>97.66666666666667</ele><time>2026-04-26T12:58:43.994Z</time></trkpt><trkpt lat="45.7271131" lon="11.7620742"><ele>98.0</ele><time>2026-04-26T12:58:44.996Z</time></trkpt><trkpt lat="45.7271972" lon="11.7620481"><ele>98.33333333333334</ele><time>2026-04-26T12:58:45.996Z</time></trkpt><trkpt lat="45.7272749" lon="11.7620269"><ele>98.66666666666667</ele><time>2026-04-26T12:58:46.996Z</time></trkpt><trkpt lat="45.7273563" lon="11.7620041"><ele>99.0</ele><time>2026-04-26T12:58:48.001Z</time></trkpt><trkpt lat="45.7274414" lon="11.7619782"><ele>99.0</ele><time>2026-04-26T12:58:49.001Z</time></trkpt><trkpt lat="45.7275305" lon="11.7619522"><ele>99.0</ele><time>2026-04-26T12:58:49.999Z</time></trkpt><trkpt lat="45.727623" lon="11.7619247"><ele>99.0</ele><time>2026-04-26T12:58:50.998Z</time></trkpt><trkpt lat="45.7277171" lon="11.7619001"><ele>99.0</ele><time>2026-04-26T12:58:51.995Z</time></trkpt><trkpt lat="45.7278144" lon="11.7618768"><ele>99.0</ele><time>2026-04-26T12:58:52.996Z</time></trkpt><trkpt lat="45.7279146" lon="11.7618552"><ele>99.0</ele><time>2026-04-26T12:58:54.001Z</time></trkpt><trkpt lat="45.7280135" lon="11.7618316"><ele>99.0</ele><time>2026-04-26T12:58:54.996Z</time></trkpt><trkpt lat="45.728112" lon="11.7618078"><ele>99.0</ele><time>2026-04-26T12:58:55.995Z</time></trkpt><trkpt lat="45.7282137" lon="11.761783"><ele>99.0</ele><time>2026-04-26T12:58:57.003Z</time></trkpt><trkpt lat="45.728316" lon="11.7617567"><ele>99.0</ele><time>2026-04-26T12:58:57.999Z</time></trkpt><trkpt lat="45.7284144" lon="11.7617311"><ele>99.0</ele><time>2026-04-26T12:58:59Z</time></trkpt><trkpt lat="45.7285115" lon="11.7617049"><ele>99.0</ele><time>2026-04-26T12:58:59.992Z</time></trkpt><trkpt lat="45.7286109" lon="11.7616811"><ele>99.0</ele><time>2026-04-26T12:59:01.004Z</time></trkpt><trkpt lat="45.7287083" lon="11.7616587"><ele>99.0</ele><time>2026-04-26T12:59:01.992Z</time></trkpt><trkpt lat="45.728806" lon="11.7616366"><ele>99.0</ele><time>2026-04-26T12:59:03.001Z</time></trkpt><trkpt lat="45.7289003" lon="11.7616161"><ele>99.2</ele><time>2026-04-26T12:59:04.009Z</time></trkpt><trkpt lat="45.7289981" lon="11.7615955"><ele>99.4</ele><time>2026-04-26T12:59:05.002Z</time></trkpt><trkpt lat="45.7290944" lon="11.7615756"><ele>99.6</ele><time>2026-04-26T12:59:06.003Z</time></trkpt><trkpt lat="45.729188" lon="11.7615563"><ele>99.8</ele><time>2026-04-26T12:59:07.003Z</time></trkpt><trkpt lat="45.7292842" lon="11.7615358"><ele>100.0</ele><time>2026-04-26T12:59:08.005Z</time></trkpt><trkpt lat="45.729382" lon="11.7615156"><ele>100.0</ele><time>2026-04-26T12:59:09.001Z</time></trkpt><trkpt lat="45.7294804" lon="11.761494"><ele>100.0</ele><time>2026-04-26T12:59:09.991Z</time></trkpt><trkpt lat="45.729579" lon="11.7614727"><ele>100.0</ele><time>2026-04-26T12:59:11.004Z</time></trkpt><trkpt lat="45.7296729" lon="11.7614529"><ele>100.0</ele><time>2026-04-26T12:59:11.996Z</time></trkpt><trkpt lat="45.7297634" lon="11.7614345"><ele>100.0</ele><time>2026-04-26T12:59:12.999Z</time></trkpt><trkpt lat="45.7298481" lon="11.761413"><ele>100.0</ele><time>2026-04-26T12:59:13.997Z</time></trkpt><trkpt lat="45.7299328" lon="11.7613898"><ele>100.0</ele><time>2026-04-26T12:59:14.999Z</time></trkpt><trkpt lat="45.7301052" lon="11.7613452"><ele>100.0</ele><time>2026-04-26T12:59:17.001Z</time></trkpt><trkpt lat="45.7302023" lon="11.7613211"><ele>100.0</ele><time>2026-04-26T12:59:17.995Z</time></trkpt><trkpt lat="45.7303041" lon="11.7612959"><ele>99.75</ele><time>2026-04-26T12:59:19.01Z</time></trkpt><trkpt lat="45.7304187" lon="11.7612661"><ele>99.5</ele><time>2026-04-26T12:59:20.006Z</time></trkpt><trkpt lat="45.7305398" lon="11.761233"><ele>99.25</ele><time>2026-04-26T12:59:21.006Z</time></trkpt><trkpt lat="45.7306645" lon="11.7611988"><ele>99.0</ele><time>2026-04-26T12:59:22.006Z</time></trkpt><trkpt lat="45.7307925" lon="11.7611632"><ele>99.0</ele><time>2026-04-26T12:59:23.001Z</time></trkpt><trkpt lat="45.7309263" lon="11.7611258"><ele>99.0</ele><time>2026-04-26T12:59:24.005Z</time></trkpt><trkpt lat="45.7310643" lon="11.7610859"><ele>99.0</ele><time>2026-04-26T12:59:24.997Z</time></trkpt><trkpt lat="45.731201" lon="11.7610457"><ele>99.0</ele><time>2026-04-26T12:59:26.004Z</time></trkpt><trkpt lat="45.7313389" lon="11.7610075"><ele>99.25</ele><time>2026-04-26T12:59:26.991Z</time></trkpt><trkpt lat="45.7314782" lon="11.7609689"><ele>99.5</ele><time>2026-04-26T12:59:28Z</time></trkpt><trkpt lat="45.731616" lon="11.7609289"><ele>99.75</ele><time>2026-04-26T12:59:28.988Z</time></trkpt><trkpt lat="45.7317527" lon="11.7608889"><ele>100.0</ele><time>2026-04-26T12:59:29.996Z</time></trkpt><trkpt lat="45.7318847" lon="11.7608514"><ele>100.0</ele><time>2026-04-26T12:59:30.998Z</time></trkpt><trkpt lat="45.7320098" lon="11.7608161"><ele>100.0</ele><time>2026-04-26T12:59:31.99Z</time></trkpt><trkpt lat="45.7321329" lon="11.7607822"><ele>100.0</ele><time>2026-04-26T12:59:32.991Z</time></trkpt><trkpt lat="45.7322462" lon="11.7607508"><ele>100.0</ele><time>2026-04-26T12:59:33.986Z</time></trkpt><trkpt lat="45.7323469" lon="11.7607235"><ele>100.0</ele><time>2026-04-26T12:59:34.99Z</time></trkpt><trkpt lat="45.732432" lon="11.7607041"><ele>100.0</ele><time>2026-04-26T12:59:35.995Z</time></trkpt><trkpt lat="45.7325061" lon="11.760687"><ele>100.0</ele><time>2026-04-26T12:59:36.996Z</time></trkpt><trkpt lat="45.7326205" lon="11.7606564"><ele>100.0</ele><time>2026-04-26T12:59:39.04Z</time></trkpt><trkpt lat="45.7327342" lon="11.7606248"><ele>100.0</ele><time>2026-04-26T12:59:40.987Z</time></trkpt><trkpt lat="45.7328318" lon="11.7606327"><ele>100.0</ele><time>2026-04-26T12:59:42.992Z</time></trkpt><trkpt lat="45.7328888" lon="11.7607669"><ele>100.0</ele><time>2026-04-26T12:59:44.989Z</time></trkpt><trkpt lat="45.7329672" lon="11.7607845"><ele>100.0</ele><time>2026-04-26T12:59:46.987Z</time></trkpt><trkpt lat="45.7330094" lon="11.7606879"><ele>100.0</ele><time>2026-04-26T12:59:48.993Z</time></trkpt><trkpt lat="45.7330868" lon="11.760556"><ele>100.0</ele><time>2026-04-26T13:08:20.025Z</time></trkpt><trkpt lat="45.7331589" lon="11.7605151"><ele>100.0</ele><time>2026-04-26T13:08:23.032Z</time></trkpt><trkpt lat="45.7332595" lon="11.7604788"><ele>100.0</ele><time>2026-04-26T13:08:25.035Z</time></trkpt><trkpt lat="45.7333339" lon="11.7604542"><ele>100.0</ele><time>2026-04-26T13:08:26.046Z</time></trkpt><trkpt lat="45.7334279" lon="11.7604215"><ele>100.0</ele><time>2026-04-26T13:08:27.047Z</time></trkpt><trkpt lat="45.7335386" lon="11.7603842"><ele>100.0</ele><time>2026-04-26T13:08:28.029Z</time></trkpt><trkpt lat="45.733658" lon="11.7603488"><ele>100.25</ele><time>2026-04-26T13:08:29.027Z</time></trkpt><trkpt lat="45.7337851" lon="11.7603084"><ele>100.5</ele><time>2026-04-26T13:08:30.025Z</time></trkpt><trkpt lat="45.7339198" lon="11.760265"><ele>100.75</ele><time>2026-04-26T13:08:31.032Z</time></trkpt><trkpt lat="45.7340618" lon="11.760221"><ele>101.0</ele><time>2026-04-26T13:08:32.024Z</time></trkpt><trkpt lat="45.7342109" lon="11.76018"><ele>101.0</ele><time>2026-04-26T13:08:33.025Z</time></trkpt><trkpt lat="45.7343621" lon="11.7601419"><ele>101.0</ele><time>2026-04-26T13:08:34.029Z</time></trkpt><trkpt lat="45.734512" lon="11.7601071"><ele>101.0</ele><time>2026-04-26T13:08:35.025Z</time></trkpt><trkpt lat="45.7346583" lon="11.7600744"><ele>101.0</ele><time>2026-04-26T13:08:36.039Z</time></trkpt><trkpt lat="45.7348009" lon="11.7600425"><ele>101.0</ele><time>2026-04-26T13:08:37.023Z</time></trkpt><trkpt lat="45.73494" lon="11.7600121"><ele>101.0</ele><time>2026-04-26T13:08:38.031Z</time></trkpt><trkpt lat="45.7350762" lon="11.7599823"><ele>101.0</ele><time>2026-04-26T13:08:39.03Z</time></trkpt><trkpt lat="45.73521" lon="11.7599528"><ele>101.75</ele><time>2026-04-26T13:08:40.023Z</time></trkpt><trkpt lat="45.7353446" lon="11.7599225"><ele>102.5</ele><time>2026-04-26T13:08:41.026Z</time></trkpt><trkpt lat="45.7354798" lon="11.7598926"><ele>103.25</ele><time>2026-04-26T13:08:42.027Z</time></trkpt><trkpt lat="45.7356149" lon="11.7598617"><ele>104.0</ele><time>2026-04-26T13:08:43.039Z</time></trkpt><trkpt lat="45.7357499" lon="11.7598293"><ele>104.0</ele><time>2026-04-26T13:08:44.025Z</time></trkpt><trkpt lat="45.7358843" lon="11.7597954"><ele>104.0</ele><time>2026-04-26T13:08:45.027Z</time></trkpt><trkpt lat="45.7360186" lon="11.759762"><ele>104.0</ele><time>2026-04-26T13:08:46.024Z</time></trkpt><trkpt lat="45.7361506" lon="11.7597292"><ele>104.0</ele><time>2026-04-26T13:08:47.02Z</time></trkpt><trkpt lat="45.7362755" lon="11.7596975"><ele>103.6</ele><time>2026-04-26T13:08:48.025Z</time></trkpt><trkpt lat="45.7363906" lon="11.7596636"><ele>103.2</ele><time>2026-04-26T13:08:49.023Z</time></trkpt><trkpt lat="45.7365013" lon="11.7596156"><ele>102.8</ele><time>2026-04-26T13:08:50.027Z</time></trkpt><trkpt lat="45.7366" lon="11.7595548"><ele>102.39999999999999</ele><time>2026-04-26T13:08:51.023Z</time></trkpt><trkpt lat="45.736685" lon="11.7594815"><ele>102.0</ele><time>2026-04-26T13:08:52.047Z</time></trkpt><trkpt lat="45.7367562" lon="11.7594079"><ele>102.0</ele><time>2026-04-26T13:08:53.025Z</time></trkpt><trkpt lat="45.7368138" lon="11.7593448"><ele>102.0</ele><time>2026-04-26T13:08:54.028Z</time></trkpt><trkpt lat="45.7368957" lon="11.7592615"><ele>102.0</ele><time>2026-04-26T13:08:56.028Z</time></trkpt><trkpt lat="45.7369772" lon="11.7592199"><ele>102.0</ele><time>2026-04-26T13:08:58.041Z</time></trkpt><trkpt lat="45.7370838" lon="11.7592581"><ele>102.0</ele><time>2026-04-26T13:09:00.02Z</time></trkpt><trkpt lat="45.7371982" lon="11.7593705"><ele>102.39999999999999</ele><time>2026-04-26T13:09:02.027Z</time></trkpt><trkpt lat="45.7372644" lon="11.7594403"><ele>102.8</ele><time>2026-04-26T13:09:03.03Z</time></trkpt><trkpt lat="45.7373188" lon="11.759564"><ele>103.2</ele><time>2026-04-26T13:09:04.03Z</time></trkpt><trkpt lat="45.7373629" lon="11.7597172"><ele>103.6</ele><time>2026-04-26T13:09:05.024Z</time></trkpt><trkpt lat="45.7374002" lon="11.759878"><ele>104.0</ele><time>2026-04-26T13:09:06.027Z</time></trkpt><trkpt lat="45.7374333" lon="11.7600608"><ele>103.75</ele><time>2026-04-26T13:09:07.031Z</time></trkpt><trkpt lat="45.7374653" lon="11.7602583"><ele>103.5</ele><time>2026-04-26T13:09:08.033Z</time></trkpt><trkpt lat="45.7374881" lon="11.760468"><ele>103.25</ele><time>2026-04-26T13:09:09.096Z</time></trkpt><trkpt lat="45.7374899" lon="11.7606943"><ele>103.0</ele><time>2026-04-26T13:09:10.028Z</time></trkpt><trkpt lat="45.7374759" lon="11.7609318"><ele>102.33333333333334</ele><time>2026-04-26T13:09:11.025Z</time></trkpt><trkpt lat="45.7374609" lon="11.7611715"><ele>101.66666666666666</ele><time>2026-04-26T13:09:12.031Z</time></trkpt><trkpt lat="45.7374502" lon="11.7614256"><ele>101.0</ele><time>2026-04-26T13:09:13.091Z</time></trkpt><trkpt lat="45.7374502" lon="11.7616803"><ele>101.0</ele><time>2026-04-26T13:09:14.08Z</time></trkpt><trkpt lat="45.7374678" lon="11.7619388"><ele>101.0</ele><time>2026-04-26T13:09:15.033Z</time></trkpt><trkpt lat="45.7375006" lon="11.7621949"><ele>101.0</ele><time>2026-04-26T13:09:16.144Z</time></trkpt><trkpt lat="45.7375278" lon="11.7624512"><ele>101.0</ele><time>2026-04-26T13:09:17.107Z</time></trkpt><trkpt lat="45.7375693" lon="11.7627224"><ele>101.0</ele><time>2026-04-26T13:09:18.019Z</time></trkpt><trkpt lat="45.7376047" lon="11.7629915"><ele>101.0</ele><time>2026-04-26T13:09:19.022Z</time></trkpt><trkpt lat="45.7376451" lon="11.7632603"><ele>101.0</ele><time>2026-04-26T13:09:20.028Z</time></trkpt><trkpt lat="45.7376826" lon="11.7635263"><ele>101.0</ele><time>2026-04-26T13:09:21.028Z</time></trkpt><trkpt lat="45.7377316" lon="11.7637923"><ele>101.0</ele><time>2026-04-26T13:09:22.018Z</time></trkpt><trkpt lat="45.7377819" lon="11.764057"><ele>101.33333333333333</ele><time>2026-04-26T13:09:23.017Z</time></trkpt><trkpt lat="45.7378294" lon="11.764328"><ele>101.66666666666666</ele><time>2026-04-26T13:09:24.027Z</time></trkpt><trkpt lat="45.7378804" lon="11.7646095"><ele>102.0</ele><time>2026-04-26T13:09:25.03Z</time></trkpt><trkpt lat="45.737929" lon="11.764889"><ele>102.0</ele><time>2026-04-26T13:09:26.022Z</time></trkpt><trkpt lat="45.7379813" lon="11.7651659"><ele>102.0</ele><time>2026-04-26T13:09:27.02Z</time></trkpt><trkpt lat="45.7380288" lon="11.7654431"><ele>102.0</ele><time>2026-04-26T13:09:28.02Z</time></trkpt><trkpt lat="45.7380784" lon="11.765717"><ele>102.0</ele><time>2026-04-26T13:09:29.029Z</time></trkpt><trkpt lat="45.7381274" lon="11.7659899"><ele>102.0</ele><time>2026-04-26T13:09:30.015Z</time></trkpt><trkpt lat="45.7381765" lon="11.7662593"><ele>102.0</ele><time>2026-04-26T13:09:31.017Z</time></trkpt><trkpt lat="45.738225" lon="11.7665279"><ele>102.0</ele><time>2026-04-26T13:09:32.024Z</time></trkpt><trkpt lat="45.7382733" lon="11.7667967"><ele>102.0</ele><time>2026-04-26T13:09:33.02Z</time></trkpt><trkpt lat="45.7383196" lon="11.7670638"><ele>102.0</ele><time>2026-04-26T13:09:34.021Z</time></trkpt><trkpt lat="45.7383657" lon="11.7673295"><ele>102.33333333333334</ele><time>2026-04-26T13:09:35.018Z</time></trkpt><trkpt lat="45.738412" lon="11.7675943"><ele>102.66666666666667</ele><time>2026-04-26T13:09:36.023Z</time></trkpt><trkpt lat="45.7384649" lon="11.7678556"><ele>103.0</ele><time>2026-04-26T13:09:37.029Z</time></trkpt><trkpt lat="45.7385287" lon="11.7681097"><ele>102.66666666666667</ele><time>2026-04-26T13:09:38.025Z</time></trkpt><trkpt lat="45.7386073" lon="11.7683556"><ele>102.33333333333334</ele><time>2026-04-26T13:09:39.017Z</time></trkpt><trkpt lat="45.7386974" lon="11.7685935"><ele>102.0</ele><time>2026-04-26T13:09:40.019Z</time></trkpt><trkpt lat="45.7387916" lon="11.7688339"><ele>102.0</ele><time>2026-04-26T13:09:41.019Z</time></trkpt><trkpt lat="45.7388794" lon="11.7690758"><ele>102.0</ele><time>2026-04-26T13:09:42.022Z</time></trkpt><trkpt lat="45.7389541" lon="11.7693277"><ele>102.0</ele><time>2026-04-26T13:09:43.02Z</time></trkpt><trkpt lat="45.7390162" lon="11.769588"><ele>102.0</ele><time>2026-04-26T13:09:44.021Z</time></trkpt><trkpt lat="45.7390695" lon="11.7698533"><ele>102.0</ele><time>2026-04-26T13:09:45.019Z</time></trkpt><trkpt lat="45.7391175" lon="11.7701204"><ele>102.0</ele><time>2026-04-26T13:09:46.02Z</time></trkpt><trkpt lat="45.7391581" lon="11.7703877"><ele>102.0</ele><time>2026-04-26T13:09:47.027Z</time></trkpt><trkpt lat="45.7391802" lon="11.7706607"><ele>102.0</ele><time>2026-04-26T13:09:48.021Z</time></trkpt><trkpt lat="45.7391806" lon="11.7709359"><ele>102.0</ele><time>2026-04-26T13:09:49.034Z</time></trkpt><trkpt lat="45.7391757" lon="11.7712119"><ele>101.66666666666666</ele><time>2026-04-26T13:09:50.027Z</time></trkpt><trkpt lat="45.7391847" lon="11.7714886"><ele>101.33333333333333</ele><time>2026-04-26T13:09:51.031Z</time></trkpt><trkpt lat="45.7392147" lon="11.7717634"><ele>101.0</ele><time>2026-04-26T13:09:52.025Z</time></trkpt><trkpt lat="45.739259" lon="11.7720354"><ele>101.0</ele><time>2026-04-26T13:09:53.021Z</time></trkpt><trkpt lat="45.7393165" lon="11.7723043"><ele>101.0</ele><time>2026-04-26T13:09:54.027Z</time></trkpt><trkpt lat="45.7393937" lon="11.7725612"><ele>101.0</ele><time>2026-04-26T13:09:55.031Z</time></trkpt><trkpt lat="45.7394883" lon="11.7728023"><ele>102.0</ele><time>2026-04-26T13:09:56.026Z</time></trkpt><trkpt lat="45.7395887" lon="11.7730306"><ele>103.0</ele><time>2026-04-26T13:09:57.027Z</time></trkpt><trkpt lat="45.7397074" lon="11.7732427"><ele>104.0</ele><time>2026-04-26T13:09:58.022Z</time></trkpt><trkpt lat="45.7398382" lon="11.7734407"><ele>103.66666666666666</ele><time>2026-04-26T13:09:59.026Z</time></trkpt><trkpt lat="45.7399812" lon="11.7736337"><ele>103.33333333333334</ele><time>2026-04-26T13:10:00.017Z</time></trkpt><trkpt lat="45.7401266" lon="11.7738278"><ele>103.0</ele><time>2026-04-26T13:10:01.024Z</time></trkpt><trkpt lat="45.7402784" lon="11.7740132"><ele>103.0</ele><time>2026-04-26T13:10:02.019Z</time></trkpt><trkpt lat="45.7407934" lon="11.7745225"><ele>103.0</ele><time>2026-04-26T13:10:05.023Z</time></trkpt><trkpt lat="45.7409863" lon="11.774652"><ele>103.0</ele><time>2026-04-26T13:10:06.019Z</time></trkpt><trkpt lat="45.7411781" lon="11.7748138"><ele>103.0</ele><time>2026-04-26T13:10:07.022Z</time></trkpt><trkpt lat="45.7413687" lon="11.774986"><ele>103.0</ele><time>2026-04-26T13:10:08.04Z</time></trkpt><trkpt lat="45.7415697" lon="11.7751254"><ele>103.0</ele><time>2026-04-26T13:10:09.029Z</time></trkpt><trkpt lat="45.7417662" lon="11.7752938"><ele>102.66666666666667</ele><time>2026-04-26T13:10:10.02Z</time></trkpt><trkpt lat="45.7419477" lon="11.7754485"><ele>102.33333333333334</ele><time>2026-04-26T13:10:11.026Z</time></trkpt><trkpt lat="45.7421282" lon="11.7755914"><ele>102.0</ele><time>2026-04-26T13:10:12.025Z</time></trkpt><trkpt lat="45.7423156" lon="11.7757185"><ele>102.0</ele><time>2026-04-26T13:10:13.026Z</time></trkpt><trkpt lat="45.742516" lon="11.7758131"><ele>102.0</ele><time>2026-04-26T13:10:14.033Z</time></trkpt><trkpt lat="45.7427168" lon="11.7758898"><ele>102.0</ele><time>2026-04-26T13:10:15.03Z</time></trkpt><trkpt lat="45.7429224" lon="11.7759589"><ele>102.0</ele><time>2026-04-26T13:10:16.027Z</time></trkpt><trkpt lat="45.7431282" lon="11.776019"><ele>102.0</ele><time>2026-04-26T13:10:17.03Z</time></trkpt><trkpt lat="45.7433429" lon="11.7760689"><ele>102.0</ele><time>2026-04-26T13:10:18.026Z</time></trkpt><trkpt lat="45.7435576" lon="11.7761171"><ele>102.5</ele><time>2026-04-26T13:10:19.025Z</time></trkpt><trkpt lat="45.7437738" lon="11.776173"><ele>103.0</ele><time>2026-04-26T13:10:20.036Z</time></trkpt><trkpt lat="45.7440032" lon="11.7761991"><ele>103.0</ele><time>2026-04-26T13:10:21.024Z</time></trkpt><trkpt lat="45.7442232" lon="11.7762304"><ele>103.0</ele><time>2026-04-26T13:10:22.018Z</time></trkpt><trkpt lat="45.7444434" lon="11.7762654"><ele>103.0</ele><time>2026-04-26T13:10:23.027Z</time></trkpt><trkpt lat="45.7446619" lon="11.7763078"><ele>103.0</ele><time>2026-04-26T13:10:24.023Z</time></trkpt><trkpt lat="45.744886" lon="11.7763243"><ele>103.0</ele><time>2026-04-26T13:10:25.025Z</time></trkpt><trkpt lat="45.7451068" lon="11.7763381"><ele>103.0</ele><time>2026-04-26T13:10:26.026Z</time></trkpt><trkpt lat="45.7453286" lon="11.7763456"><ele>102.5</ele><time>2026-04-26T13:10:27.028Z</time></trkpt><trkpt lat="45.7455544" lon="11.7763446"><ele>102.0</ele><time>2026-04-26T13:10:28.029Z</time></trkpt><trkpt lat="45.7457791" lon="11.7763411"><ele>102.0</ele><time>2026-04-26T13:10:29.029Z</time></trkpt><trkpt lat="45.7460042" lon="11.7763399"><ele>102.0</ele><time>2026-04-26T13:10:30.023Z</time></trkpt><trkpt lat="45.7462344" lon="11.7763315"><ele>102.5</ele><time>2026-04-26T13:10:31.058Z</time></trkpt><trkpt lat="45.74646" lon="11.7763248"><ele>103.0</ele><time>2026-04-26T13:10:32.045Z</time></trkpt><trkpt lat="45.7466843" lon="11.7763208"><ele>104.0</ele><time>2026-04-26T13:10:33.033Z</time></trkpt><trkpt lat="45.7469083" lon="11.7763182"><ele>105.0</ele><time>2026-04-26T13:10:34.025Z</time></trkpt><trkpt lat="45.747133" lon="11.7763147"><ele>106.0</ele><time>2026-04-26T13:10:35.023Z</time></trkpt><trkpt lat="45.7473573" lon="11.7763122"><ele>106.0</ele><time>2026-04-26T13:10:36.031Z</time></trkpt><trkpt lat="45.747578" lon="11.7763106"><ele>106.0</ele><time>2026-04-26T13:10:37.035Z</time></trkpt><trkpt lat="45.7478003" lon="11.7763075"><ele>106.0</ele><time>2026-04-26T13:10:38.094Z</time></trkpt><trkpt lat="45.7480234" lon="11.7763042"><ele>105.66666666666667</ele><time>2026-04-26T13:10:39.053Z</time></trkpt><trkpt lat="45.7482448" lon="11.7762976"><ele>105.33333333333334</ele><time>2026-04-26T13:10:40.023Z</time></trkpt><trkpt lat="45.7484679" lon="11.7762918"><ele>105.0</ele><time>2026-04-26T13:10:41.024Z</time></trkpt><trkpt lat="45.7486897" lon="11.7762865"><ele>105.0</ele><time>2026-04-26T13:10:42.051Z</time></trkpt><trkpt lat="45.7489121" lon="11.77628"><ele>105.0</ele><time>2026-04-26T13:10:43.053Z</time></trkpt><trkpt lat="45.7491338" lon="11.7762743"><ele>105.0</ele><time>2026-04-26T13:10:44.117Z</time></trkpt><trkpt lat="45.7493549" lon="11.7762705"><ele>105.5</ele><time>2026-04-26T13:10:45.03Z</time></trkpt><trkpt lat="45.7495743" lon="11.7762665"><ele>106.0</ele><time>2026-04-26T13:10:46.236Z</time></trkpt><trkpt lat="45.7500102" lon="11.7762577"><ele>106.0</ele><time>2026-04-26T13:10:48.021Z</time></trkpt><trkpt lat="45.7502267" lon="11.7762543"><ele>106.0</ele><time>2026-04-26T13:10:49.029Z</time></trkpt><trkpt lat="45.7504426" lon="11.7762486"><ele>106.0</ele><time>2026-04-26T13:10:50.073Z</time></trkpt><trkpt lat="45.7506563" lon="11.7762435"><ele>106.0</ele><time>2026-04-26T13:10:51.03Z</time></trkpt><trkpt lat="45.7508697" lon="11.7762341"><ele>106.0</ele><time>2026-04-26T13:10:52.025Z</time></trkpt><trkpt lat="45.7510836" lon="11.7762213"><ele>106.0</ele><time>2026-04-26T13:10:53.022Z</time></trkpt><trkpt lat="45.751299" lon="11.7762052"><ele>106.33333333333334</ele><time>2026-04-26T13:10:54.043Z</time></trkpt><trkpt lat="45.7515148" lon="11.7761827"><ele>106.66666666666666</ele><time>2026-04-26T13:10:55.02Z</time></trkpt><trkpt lat="45.7517325" lon="11.7761483"><ele>107.0</ele><time>2026-04-26T13:10:56.017Z</time></trkpt><trkpt lat="45.7519564" lon="11.7761015"><ele>107.5</ele><time>2026-04-26T13:10:57.02Z</time></trkpt><trkpt lat="45.7521911" lon="11.7760463"><ele>108.0</ele><time>2026-04-26T13:10:58.024Z</time></trkpt><trkpt lat="45.7524332" lon="11.7759865"><ele>108.0</ele><time>2026-04-26T13:10:59.103Z</time></trkpt><trkpt lat="45.7526779" lon="11.7759238"><ele>108.0</ele><time>2026-04-26T13:11:00.034Z</time></trkpt><trkpt lat="45.7529253" lon="11.7758584"><ele>108.0</ele><time>2026-04-26T13:11:01.03Z</time></trkpt><trkpt lat="45.7531723" lon="11.7757934"><ele>108.0</ele><time>2026-04-26T13:11:02.027Z</time></trkpt><trkpt lat="45.7534193" lon="11.7757198"><ele>108.5</ele><time>2026-04-26T13:11:03.032Z</time></trkpt><trkpt lat="45.7536625" lon="11.7756454"><ele>109.0</ele><time>2026-04-26T13:11:04.024Z</time></trkpt><trkpt lat="45.7539083" lon="11.77557"><ele>109.0</ele><time>2026-04-26T13:11:05.027Z</time></trkpt><trkpt lat="45.7541495" lon="11.7754833"><ele>109.0</ele><time>2026-04-26T13:11:06.059Z</time></trkpt><trkpt lat="45.7543923" lon="11.7753891"><ele>109.0</ele><time>2026-04-26T13:11:07.029Z</time></trkpt><trkpt lat="45.7546328" lon="11.7752931"><ele>109.0</ele><time>2026-04-26T13:11:08.018Z</time></trkpt><trkpt lat="45.7548706" lon="11.7751914"><ele>108.0</ele><time>2026-04-26T13:11:09.027Z</time></trkpt><trkpt lat="45.7551046" lon="11.7750896"><ele>107.0</ele><time>2026-04-26T13:11:10.022Z</time></trkpt><trkpt lat="45.7553372" lon="11.7749884"><ele>110.0</ele><time>2026-04-26T13:11:11.025Z</time></trkpt><trkpt lat="45.7555681" lon="11.7748887"><ele>113.0</ele><time>2026-04-26T13:11:12.023Z</time></trkpt><trkpt lat="45.7557981" lon="11.7747902"><ele>113.0</ele><time>2026-04-26T13:11:13.028Z</time></trkpt><trkpt lat="45.7560254" lon="11.7746914"><ele>113.0</ele><time>2026-04-26T13:11:14.019Z</time></trkpt><trkpt lat="45.7562485" lon="11.7745933"><ele>112.0</ele><time>2026-04-26T13:11:15.025Z</time></trkpt><trkpt lat="45.7564724" lon="11.7744933"><ele>111.0</ele><time>2026-04-26T13:11:16.019Z</time></trkpt><trkpt lat="45.756695" lon="11.7743918"><ele>111.0</ele><time>2026-04-26T13:11:17.027Z</time></trkpt><trkpt lat="45.7569163" lon="11.7742863"><ele>111.0</ele><time>2026-04-26T13:11:18.021Z</time></trkpt><trkpt lat="45.7571364" lon="11.7741771"><ele>111.0</ele><time>2026-04-26T13:11:19.016Z</time></trkpt><trkpt lat="45.7573547" lon="11.7740628"><ele>111.0</ele><time>2026-04-26T13:11:20.017Z</time></trkpt><trkpt lat="45.7575723" lon="11.7739457"><ele>111.5</ele><time>2026-04-26T13:11:21.062Z</time></trkpt><trkpt lat="45.7577909" lon="11.7738252"><ele>112.0</ele><time>2026-04-26T13:11:22.02Z</time></trkpt><trkpt lat="45.7580088" lon="11.7737022"><ele>112.0</ele><time>2026-04-26T13:11:23.015Z</time></trkpt><trkpt lat="45.758227" lon="11.7735765"><ele>112.0</ele><time>2026-04-26T13:11:24.023Z</time></trkpt><trkpt lat="45.758444" lon="11.7734472"><ele>111.0</ele><time>2026-04-26T13:11:25.023Z</time></trkpt><trkpt lat="45.7586615" lon="11.7733149"><ele>110.0</ele><time>2026-04-26T13:11:26.018Z</time></trkpt><trkpt lat="45.758879" lon="11.7731787"><ele>110.0</ele><time>2026-04-26T13:11:27.025Z</time></trkpt><trkpt lat="45.7590952" lon="11.7730388"><ele>110.0</ele><time>2026-04-26T13:11:28.019Z</time></trkpt><trkpt lat="45.7593106" lon="11.7728958"><ele>112.0</ele><time>2026-04-26T13:11:29.023Z</time></trkpt><trkpt lat="45.7595254" lon="11.7727488"><ele>114.0</ele><time>2026-04-26T13:11:30.016Z</time></trkpt><trkpt lat="45.7597379" lon="11.7725963"><ele>114.0</ele><time>2026-04-26T13:11:31.026Z</time></trkpt><trkpt lat="45.7599493" lon="11.7724413"><ele>114.0</ele><time>2026-04-26T13:11:32.017Z</time></trkpt><trkpt lat="45.7601599" lon="11.772284"><ele>113.5</ele><time>2026-04-26T13:11:33.022Z</time></trkpt><trkpt lat="45.7603694" lon="11.7721236"><ele>113.0</ele><time>2026-04-26T13:11:34.02Z</time></trkpt><trkpt lat="45.7605768" lon="11.7719598"><ele>114.0</ele><time>2026-04-26T13:11:35.03Z</time></trkpt><trkpt lat="45.7607826" lon="11.7717925"><ele>115.0</ele><time>2026-04-26T13:11:36.023Z</time></trkpt><trkpt lat="45.7609875" lon="11.7716255"><ele>115.0</ele><time>2026-04-26T13:11:37.018Z</time></trkpt><trkpt lat="45.7611926" lon="11.7714598"><ele>115.0</ele><time>2026-04-26T13:11:38.019Z</time></trkpt><trkpt lat="45.7613966" lon="11.7712953"><ele>115.0</ele><time>2026-04-26T13:11:39.029Z</time></trkpt><trkpt lat="45.7615992" lon="11.771131"><ele>115.0</ele><time>2026-04-26T13:11:40.026Z</time></trkpt><trkpt lat="45.7618032" lon="11.7709728"><ele>114.5</ele><time>2026-04-26T13:11:41.02Z</time></trkpt><trkpt lat="45.7620041" lon="11.7708163"><ele>114.0</ele><time>2026-04-26T13:11:42.034Z</time></trkpt><trkpt lat="45.7622031" lon="11.7706511"><ele>114.0</ele><time>2026-04-26T13:11:43.026Z</time></trkpt><trkpt lat="45.7623998" lon="11.7704933"><ele>114.0</ele><time>2026-04-26T13:11:44.022Z</time></trkpt><trkpt lat="45.7626018" lon="11.7703304"><ele>114.66666666666666</ele><time>2026-04-26T13:11:45.02Z</time></trkpt><trkpt lat="45.7627999" lon="11.7701671"><ele>115.33333333333333</ele><time>2026-04-26T13:11:46.075Z</time></trkpt><trkpt lat="45.7629867" lon="11.770011"><ele>116.0</ele><time>2026-04-26T13:11:47.023Z</time></trkpt><trkpt lat="45.7631848" lon="11.7698475"><ele>116.0</ele><time>2026-04-26T13:11:48.099Z</time></trkpt><trkpt lat="45.7633725" lon="11.7696953"><ele>116.0</ele><time>2026-04-26T13:11:49.075Z</time></trkpt><trkpt lat="45.7635604" lon="11.7695428"><ele>116.0</ele><time>2026-04-26T13:11:50.027Z</time></trkpt><trkpt lat="45.7637539" lon="11.7693845"><ele>117.0</ele><time>2026-04-26T13:11:51.017Z</time></trkpt><trkpt lat="45.7639469" lon="11.7692262"><ele>118.0</ele><time>2026-04-26T13:11:52.018Z</time></trkpt><trkpt lat="45.7641398" lon="11.7690692"><ele>119.0</ele><time>2026-04-26T13:11:53.02Z</time></trkpt><trkpt lat="45.7643323" lon="11.7689166"><ele>119.0</ele><time>2026-04-26T13:11:54.017Z</time></trkpt><trkpt lat="45.7645272" lon="11.7687683"><ele>119.0</ele><time>2026-04-26T13:11:55.015Z</time></trkpt><trkpt lat="45.7647257" lon="11.7686222"><ele>119.0</ele><time>2026-04-26T13:11:56.063Z</time></trkpt><trkpt lat="45.764918" lon="11.7684841"><ele>119.0</ele><time>2026-04-26T13:11:57.025Z</time></trkpt><trkpt lat="45.7651173" lon="11.7683456"><ele>119.0</ele><time>2026-04-26T13:11:58.043Z</time></trkpt><trkpt lat="45.7653169" lon="11.768213"><ele>119.0</ele><time>2026-04-26T13:11:59.053Z</time></trkpt><trkpt lat="45.7655148" lon="11.7680879"><ele>119.0</ele><time>2026-04-26T13:12:00.02Z</time></trkpt><trkpt lat="45.7657231" lon="11.7679616"><ele>119.0</ele><time>2026-04-26T13:12:01.096Z</time></trkpt><trkpt lat="45.7659256" lon="11.7678438"><ele>119.0</ele><time>2026-04-26T13:12:02.124Z</time></trkpt><trkpt lat="45.7661223" lon="11.7677327"><ele>119.66666666666666</ele><time>2026-04-26T13:12:03.031Z</time></trkpt><trkpt lat="45.7663309" lon="11.7676183"><ele>120.33333333333334</ele><time>2026-04-26T13:12:04.024Z</time></trkpt><trkpt lat="45.766539" lon="11.7675067"><ele>121.0</ele><time>2026-04-26T13:12:05.029Z</time></trkpt><trkpt lat="45.7667456" lon="11.7673954"><ele>120.66666666666667</ele><time>2026-04-26T13:12:06.026Z</time></trkpt><trkpt lat="45.7669528" lon="11.767284"><ele>120.33333333333334</ele><time>2026-04-26T13:12:07.027Z</time></trkpt><trkpt lat="45.7671597" lon="11.7671711"><ele>120.0</ele><time>2026-04-26T13:12:08.03Z</time></trkpt><trkpt lat="45.7673667" lon="11.7670577"><ele>120.0</ele><time>2026-04-26T13:12:09.033Z</time></trkpt><trkpt lat="45.7675742" lon="11.7669433"><ele>120.0</ele><time>2026-04-26T13:12:10.05Z</time></trkpt><trkpt lat="45.7677777" lon="11.7668294"><ele>120.0</ele><time>2026-04-26T13:12:11.029Z</time></trkpt><trkpt lat="45.7679848" lon="11.7667175"><ele>120.66666666666666</ele><time>2026-04-26T13:12:12.026Z</time></trkpt><trkpt lat="45.7681914" lon="11.7666063"><ele>121.33333333333333</ele><time>2026-04-26T13:12:13.025Z</time></trkpt><trkpt lat="45.7683977" lon="11.7664957"><ele>122.0</ele><time>2026-04-26T13:12:14.032Z</time></trkpt><trkpt lat="45.7686018" lon="11.7663859"><ele>122.66666666666666</ele><time>2026-04-26T13:12:15.019Z</time></trkpt><trkpt lat="45.7688072" lon="11.766275"><ele>123.33333333333334</ele><time>2026-04-26T13:12:16.019Z</time></trkpt><trkpt lat="45.7690112" lon="11.766164"><ele>124.0</ele><time>2026-04-26T13:12:17.02Z</time></trkpt><trkpt lat="45.7692143" lon="11.7660529"><ele>124.66666666666667</ele><time>2026-04-26T13:12:18.022Z</time></trkpt><trkpt lat="45.769417" lon="11.7659424"><ele>125.33333333333334</ele><time>2026-04-26T13:12:19.02Z</time></trkpt><trkpt lat="45.7696209" lon="11.7658321"><ele>126.0</ele><time>2026-04-26T13:12:20.031Z</time></trkpt><trkpt lat="45.7698231" lon="11.7657236"><ele>126.0</ele><time>2026-04-26T13:12:21.025Z</time></trkpt><trkpt lat="45.7700254" lon="11.7656154"><ele>126.0</ele><time>2026-04-26T13:12:22.024Z</time></trkpt><trkpt lat="45.7702264" lon="11.7655063"><ele>126.0</ele><time>2026-04-26T13:12:23.019Z</time></trkpt><trkpt lat="45.7704276" lon="11.765396"><ele>126.0</ele><time>2026-04-26T13:12:24.021Z</time></trkpt><trkpt lat="45.7706288" lon="11.7652858"><ele>126.0</ele><time>2026-04-26T13:12:25.026Z</time></trkpt><trkpt lat="45.7708277" lon="11.7651815"><ele>126.0</ele><time>2026-04-26T13:12:26.021Z</time></trkpt><trkpt lat="45.7710264" lon="11.7650785"><ele>126.33333333333334</ele><time>2026-04-26T13:12:27.021Z</time></trkpt><trkpt lat="45.7712306" lon="11.7649722"><ele>126.66666666666667</ele><time>2026-04-26T13:12:28.018Z</time></trkpt><trkpt lat="45.7714375" lon="11.7648601"><ele>127.0</ele><time>2026-04-26T13:12:29.02Z</time></trkpt><trkpt lat="45.7716442" lon="11.764747"><ele>127.0</ele><time>2026-04-26T13:12:30.021Z</time></trkpt><trkpt lat="45.7718506" lon="11.7646358"><ele>127.0</ele><time>2026-04-26T13:12:31.03Z</time></trkpt><trkpt lat="45.7720585" lon="11.7645236"><ele>127.0</ele><time>2026-04-26T13:12:32.029Z</time></trkpt><trkpt lat="45.7722672" lon="11.7644121"><ele>128.0</ele><time>2026-04-26T13:12:33.021Z</time></trkpt><trkpt lat="45.7724788" lon="11.7642951"><ele>129.0</ele><time>2026-04-26T13:12:34.023Z</time></trkpt><trkpt lat="45.7726901" lon="11.764176"><ele>129.0</ele><time>2026-04-26T13:12:35.021Z</time></trkpt><trkpt lat="45.7729042" lon="11.7640584"><ele>129.0</ele><time>2026-04-26T13:12:36.019Z</time></trkpt><trkpt lat="45.7731211" lon="11.7639407"><ele>129.0</ele><time>2026-04-26T13:12:37.022Z</time></trkpt><trkpt lat="45.7733387" lon="11.7638223"><ele>129.0</ele><time>2026-04-26T13:12:38.018Z</time></trkpt><trkpt lat="45.7735592" lon="11.7637019"><ele>128.0</ele><time>2026-04-26T13:12:39.02Z</time></trkpt><trkpt lat="45.7737797" lon="11.7635818"><ele>127.0</ele><time>2026-04-26T13:12:40.02Z</time></trkpt><trkpt lat="45.7740012" lon="11.763461"><ele>127.0</ele><time>2026-04-26T13:12:41.026Z</time></trkpt><trkpt lat="45.7742237" lon="11.7633412"><ele>127.0</ele><time>2026-04-26T13:12:42.06Z</time></trkpt><trkpt lat="45.7744394" lon="11.7632245"><ele>127.0</ele><time>2026-04-26T13:12:43.018Z</time></trkpt><trkpt lat="45.7746603" lon="11.7631059"><ele>127.0</ele><time>2026-04-26T13:12:44.016Z</time></trkpt><trkpt lat="45.77488" lon="11.7629875"><ele>127.0</ele><time>2026-04-26T13:12:45.021Z</time></trkpt><trkpt lat="45.7750986" lon="11.7628696"><ele>127.0</ele><time>2026-04-26T13:12:46.023Z</time></trkpt><trkpt lat="45.7753155" lon="11.7627529"><ele>127.5</ele><time>2026-04-26T13:12:47.016Z</time></trkpt><trkpt lat="45.7755341" lon="11.7626358"><ele>128.0</ele><time>2026-04-26T13:12:48.023Z</time></trkpt><trkpt lat="45.7757511" lon="11.7625192"><ele>128.0</ele><time>2026-04-26T13:12:49.018Z</time></trkpt><trkpt lat="45.7759698" lon="11.7624021"><ele>128.0</ele><time>2026-04-26T13:12:50.021Z</time></trkpt><trkpt lat="45.7761886" lon="11.7622846"><ele>129.0</ele><time>2026-04-26T13:12:51.022Z</time></trkpt><trkpt lat="45.7764081" lon="11.762166"><ele>130.0</ele><time>2026-04-26T13:12:52.028Z</time></trkpt><trkpt lat="45.7766271" lon="11.7620473"><ele>130.0</ele><time>2026-04-26T13:12:53.024Z</time></trkpt><trkpt lat="45.7768471" lon="11.7619289"><ele>130.0</ele><time>2026-04-26T13:12:54.014Z</time></trkpt><trkpt lat="45.7770688" lon="11.761811"><ele>131.0</ele><time>2026-04-26T13:12:55.015Z</time></trkpt><trkpt lat="45.7772909" lon="11.7616955"><ele>132.0</ele><time>2026-04-26T13:12:56.02Z</time></trkpt><trkpt lat="45.7775131" lon="11.7615826"><ele>132.0</ele><time>2026-04-26T13:12:57.021Z</time></trkpt><trkpt lat="45.7777353" lon="11.7614698"><ele>132.0</ele><time>2026-04-26T13:12:58.021Z</time></trkpt><trkpt lat="45.7779566" lon="11.7613559"><ele>132.0</ele><time>2026-04-26T13:12:59.014Z</time></trkpt><trkpt lat="45.7781782" lon="11.7612403"><ele>132.0</ele><time>2026-04-26T13:13:00.029Z</time></trkpt><trkpt lat="45.7783958" lon="11.7611254"><ele>132.0</ele><time>2026-04-26T13:13:01.015Z</time></trkpt><trkpt lat="45.7786155" lon="11.7610109"><ele>132.0</ele><time>2026-04-26T13:13:02.024Z</time></trkpt><trkpt lat="45.7788342" lon="11.7608982"><ele>132.0</ele><time>2026-04-26T13:13:03.019Z</time></trkpt><trkpt lat="45.7790523" lon="11.7607846"><ele>132.0</ele><time>2026-04-26T13:13:04.019Z</time></trkpt><trkpt lat="45.7792693" lon="11.760671"><ele>132.5</ele><time>2026-04-26T13:13:05.02Z</time></trkpt><trkpt lat="45.7794856" lon="11.7605588"><ele>133.0</ele><time>2026-04-26T13:13:06.025Z</time></trkpt><trkpt lat="45.7797043" lon="11.7604466"><ele>133.0</ele><time>2026-04-26T13:13:07.074Z</time></trkpt><trkpt lat="45.7799134" lon="11.7603399"><ele>133.0</ele><time>2026-04-26T13:13:08.016Z</time></trkpt><trkpt lat="45.7801326" lon="11.7602335"><ele>134.5</ele><time>2026-04-26T13:13:09.012Z</time></trkpt><trkpt lat="45.7803507" lon="11.760122"><ele>136.0</ele><time>2026-04-26T13:13:10.015Z</time></trkpt><trkpt lat="45.780562" lon="11.7600069"><ele>136.0</ele><time>2026-04-26T13:13:11.019Z</time></trkpt><trkpt lat="45.7807769" lon="11.7598938"><ele>136.0</ele><time>2026-04-26T13:13:12.015Z</time></trkpt><trkpt lat="45.7809884" lon="11.7597823"><ele>136.33333333333334</ele><time>2026-04-26T13:13:13.016Z</time></trkpt><trkpt lat="45.7811986" lon="11.7596725"><ele>136.66666666666666</ele><time>2026-04-26T13:13:14.016Z</time></trkpt><trkpt lat="45.7814079" lon="11.7595632"><ele>137.0</ele><time>2026-04-26T13:13:15.022Z</time></trkpt><trkpt lat="45.7816161" lon="11.7594523"><ele>137.33333333333331</ele><time>2026-04-26T13:13:16.014Z</time></trkpt><trkpt lat="45.7818217" lon="11.7593353"><ele>137.66666666666666</ele><time>2026-04-26T13:13:17.019Z</time></trkpt><trkpt lat="45.782022" lon="11.7592092"><ele>138.0</ele><time>2026-04-26T13:13:18.017Z</time></trkpt><trkpt lat="45.7822208" lon="11.7590743"><ele>138.0</ele><time>2026-04-26T13:13:19.023Z</time></trkpt><trkpt lat="45.7824163" lon="11.7589339"><ele>138.0</ele><time>2026-04-26T13:13:20.02Z</time></trkpt><trkpt lat="45.7826065" lon="11.7587879"><ele>138.0</ele><time>2026-04-26T13:13:21.022Z</time></trkpt><trkpt lat="45.7827954" lon="11.7586424"><ele>138.66666666666666</ele><time>2026-04-26T13:13:22.023Z</time></trkpt><trkpt lat="45.782981" lon="11.7584965"><ele>139.33333333333331</ele><time>2026-04-26T13:13:23.021Z</time></trkpt><trkpt lat="45.7831608" lon="11.7583433"><ele>140.0</ele><time>2026-04-26T13:13:24.017Z</time></trkpt><trkpt lat="45.7833273" lon="11.758182"><ele>140.0</ele><time>2026-04-26T13:13:25.022Z</time></trkpt><trkpt lat="45.7834779" lon="11.7580219"><ele>140.0</ele><time>2026-04-26T13:13:26.015Z</time></trkpt><trkpt lat="45.7836146" lon="11.7578692"><ele>140.0</ele><time>2026-04-26T13:13:27.018Z</time></trkpt><trkpt lat="45.7837349" lon="11.7577358"><ele>141.0</ele><time>2026-04-26T13:13:28.026Z</time></trkpt><trkpt lat="45.7838477" lon="11.7576354"><ele>142.0</ele><time>2026-04-26T13:13:29.012Z</time></trkpt><trkpt lat="45.7839706" lon="11.7575871"><ele>143.0</ele><time>2026-04-26T13:13:30.016Z</time></trkpt><trkpt lat="45.7841028" lon="11.7575916"><ele>144.0</ele><time>2026-04-26T13:13:31.021Z</time></trkpt><trkpt lat="45.7842382" lon="11.7576434"><ele>144.0</ele><time>2026-04-26T13:13:32.019Z</time></trkpt><trkpt lat="45.7843671" lon="11.7577356"><ele>144.0</ele><time>2026-04-26T13:13:33.011Z</time></trkpt><trkpt lat="45.784492" lon="11.7578755"><ele>144.0</ele><time>2026-04-26T13:13:34.014Z</time></trkpt><trkpt lat="45.7846146" lon="11.7580069"><ele>144.0</ele><time>2026-04-26T13:13:35.017Z</time></trkpt><trkpt lat="45.7847312" lon="11.7581252"><ele>144.0</ele><time>2026-04-26T13:13:36.015Z</time></trkpt><trkpt lat="45.784834" lon="11.7582279"><ele>144.0</ele><time>2026-04-26T13:13:37.019Z</time></trkpt><trkpt lat="45.7849205" lon="11.7583148"><ele>144.0</ele><time>2026-04-26T13:13:38.017Z</time></trkpt><trkpt lat="45.7849917" lon="11.7583914"><ele>144.0</ele><time>2026-04-26T13:13:39.024Z</time></trkpt><trkpt lat="45.785057" lon="11.7584724"><ele>144.0</ele><time>2026-04-26T13:13:40.025Z</time></trkpt><trkpt lat="45.7851225" lon="11.7585601"><ele>144.0</ele><time>2026-04-26T13:13:41.018Z</time></trkpt><trkpt lat="45.7851982" lon="11.7586491"><ele>144.0</ele><time>2026-04-26T13:13:42.026Z</time></trkpt><trkpt lat="45.7852865" lon="11.7587209"><ele>144.0</ele><time>2026-04-26T13:13:43.018Z</time></trkpt><trkpt lat="45.7853789" lon="11.7587881"><ele>144.6</ele><time>2026-04-26T13:13:44.022Z</time></trkpt><trkpt lat="45.7854613" lon="11.7588686"><ele>145.2</ele><time>2026-04-26T13:13:45.015Z</time></trkpt><trkpt lat="45.7855345" lon="11.7589684"><ele>145.79999999999998</ele><time>2026-04-26T13:13:46.026Z</time></trkpt><trkpt lat="45.7855949" lon="11.7590887"><ele>146.4</ele><time>2026-04-26T13:13:47.019Z</time></trkpt><trkpt lat="45.7856474" lon="11.7592196"><ele>147.0</ele><time>2026-04-26T13:13:48.021Z</time></trkpt><trkpt lat="45.7856802" lon="11.7593808"><ele>147.0</ele><time>2026-04-26T13:13:49.032Z</time></trkpt><trkpt lat="45.7857125" lon="11.759544"><ele>147.0</ele><time>2026-04-26T13:13:50.076Z</time></trkpt><trkpt lat="45.7857458" lon="11.759704"><ele>147.0</ele><time>2026-04-26T13:13:51.022Z</time></trkpt><trkpt lat="45.7857807" lon="11.7598695"><ele>147.0</ele><time>2026-04-26T13:13:52.025Z</time></trkpt><trkpt lat="45.7858141" lon="11.7600375"><ele>146.75</ele><time>2026-04-26T13:13:53.021Z</time></trkpt><trkpt lat="45.7858484" lon="11.7602127"><ele>146.5</ele><time>2026-04-26T13:13:54.023Z</time></trkpt><trkpt lat="45.7858823" lon="11.7603918"><ele>146.25</ele><time>2026-04-26T13:13:55.028Z</time></trkpt><trkpt lat="45.7859168" lon="11.7605719"><ele>146.0</ele><time>2026-04-26T13:13:56.025Z</time></trkpt><trkpt lat="45.7859543" lon="11.7607529"><ele>146.0</ele><time>2026-04-26T13:13:57.018Z</time></trkpt><trkpt lat="45.7859944" lon="11.7609365"><ele>146.0</ele><time>2026-04-26T13:13:58.021Z</time></trkpt><trkpt lat="45.7860358" lon="11.7611198"><ele>146.0</ele><time>2026-04-26T13:13:59.025Z</time></trkpt><trkpt lat="45.7860798" lon="11.7613009"><ele>146.0</ele><time>2026-04-26T13:14:00.023Z</time></trkpt><trkpt lat="45.7861317" lon="11.7614798"><ele>146.75</ele><time>2026-04-26T13:14:01.024Z</time></trkpt><trkpt lat="45.7861882" lon="11.7616581"><ele>147.5</ele><time>2026-04-26T13:14:02.031Z</time></trkpt><trkpt lat="45.7862481" lon="11.761842"><ele>148.25</ele><time>2026-04-26T13:14:03.015Z</time></trkpt><trkpt lat="45.7863087" lon="11.7620194"><ele>149.0</ele><time>2026-04-26T13:14:04.027Z</time></trkpt><trkpt lat="45.7863625" lon="11.7622103"><ele>149.25</ele><time>2026-04-26T13:14:05.025Z</time></trkpt><trkpt lat="45.7864088" lon="11.762401"><ele>149.5</ele><time>2026-04-26T13:14:06.019Z</time></trkpt><trkpt lat="45.7864504" lon="11.7625889"><ele>149.75</ele><time>2026-04-26T13:14:07.026Z</time></trkpt><trkpt lat="45.786486" lon="11.7627582"><ele>150.0</ele><time>2026-04-26T13:14:08.022Z</time></trkpt><trkpt lat="45.7865208" lon="11.7629213"><ele>149.25</ele><time>2026-04-26T13:14:09.015Z</time></trkpt><trkpt lat="45.7865566" lon="11.7630821"><ele>148.5</ele><time>2026-04-26T13:14:10.02Z</time></trkpt><trkpt lat="45.7865924" lon="11.7632394"><ele>147.75</ele><time>2026-04-26T13:14:11.023Z</time></trkpt><trkpt lat="45.7866274" lon="11.7633974"><ele>147.0</ele><time>2026-04-26T13:14:12.022Z</time></trkpt><trkpt lat="45.7866607" lon="11.7635519"><ele>147.0</ele><time>2026-04-26T13:14:13.037Z</time></trkpt><trkpt lat="45.7866895" lon="11.7637065"><ele>147.0</ele><time>2026-04-26T13:14:14.035Z</time></trkpt><trkpt lat="45.7867162" lon="11.7638489"><ele>147.0</ele><time>2026-04-26T13:14:15.024Z</time></trkpt><trkpt lat="45.7867396" lon="11.7639857"><ele>147.0</ele><time>2026-04-26T13:14:16.023Z</time></trkpt><trkpt lat="45.7867607" lon="11.7641092"><ele>147.0</ele><time>2026-04-26T13:14:17.03Z</time></trkpt><trkpt lat="45.7867791" lon="11.7642182"><ele>147.2</ele><time>2026-04-26T13:14:18.026Z</time></trkpt><trkpt lat="45.7867999" lon="11.7643667"><ele>147.39999999999998</ele><time>2026-04-26T13:14:20.018Z</time></trkpt><trkpt lat="45.7868042" lon="11.7644994"><ele>147.60000000000002</ele><time>2026-04-26T13:14:28.026Z</time></trkpt><trkpt lat="45.7868302" lon="11.7646686"><ele>147.8</ele><time>2026-04-26T13:14:30.02Z</time></trkpt><trkpt lat="45.7868793" lon="11.7647408"><ele>148.0</ele><time>2026-04-26T13:14:31.018Z</time></trkpt><trkpt lat="45.7869512" lon="11.7647692"><ele>149.0</ele><time>2026-04-26T13:14:32.024Z</time></trkpt><trkpt lat="45.7870327" lon="11.7647498"><ele>150.0</ele><time>2026-04-26T13:14:33.017Z</time></trkpt><trkpt lat="45.7871252" lon="11.7647131"><ele>151.0</ele><time>2026-04-26T13:14:34.023Z</time></trkpt><trkpt lat="45.7872241" lon="11.7646808"><ele>152.0</ele><time>2026-04-26T13:14:35.019Z</time></trkpt><trkpt lat="45.78734" lon="11.7646624"><ele>153.0</ele><time>2026-04-26T13:14:36.021Z</time></trkpt><trkpt lat="45.7874617" lon="11.7646336"><ele>153.0</ele><time>2026-04-26T13:14:37.021Z</time></trkpt><trkpt lat="45.7875977" lon="11.764601"><ele>153.0</ele><time>2026-04-26T13:14:38.025Z</time></trkpt><trkpt lat="45.7877364" lon="11.7645611"><ele>153.0</ele><time>2026-04-26T13:14:39.019Z</time></trkpt><trkpt lat="45.7878786" lon="11.7645107"><ele>153.0</ele><time>2026-04-26T13:14:40.017Z</time></trkpt><trkpt lat="45.7880258" lon="11.7644631"><ele>152.66666666666666</ele><time>2026-04-26T13:14:41.034Z</time></trkpt><trkpt lat="45.7881763" lon="11.7644136"><ele>152.33333333333331</ele><time>2026-04-26T13:14:42.025Z</time></trkpt><trkpt lat="45.7883255" lon="11.7643404"><ele>152.0</ele><time>2026-04-26T13:14:43.017Z</time></trkpt><trkpt lat="45.7884833" lon="11.7642794"><ele>152.0</ele><time>2026-04-26T13:14:44.035Z</time></trkpt><trkpt lat="45.7886424" lon="11.7642072"><ele>152.0</ele><time>2026-04-26T13:14:45.023Z</time></trkpt><trkpt lat="45.7888015" lon="11.764122"><ele>152.0</ele><time>2026-04-26T13:14:46.017Z</time></trkpt><trkpt lat="45.7889625" lon="11.7640326"><ele>152.0</ele><time>2026-04-26T13:14:47.029Z</time></trkpt><trkpt lat="45.7891242" lon="11.7639378"><ele>152.0</ele><time>2026-04-26T13:14:48.033Z</time></trkpt><trkpt lat="45.7892865" lon="11.7638398"><ele>152.0</ele><time>2026-04-26T13:14:49.03Z</time></trkpt><trkpt lat="45.7894487" lon="11.7637432"><ele>152.0</ele><time>2026-04-26T13:14:50.017Z</time></trkpt><trkpt lat="45.7896116" lon="11.7636449"><ele>152.0</ele><time>2026-04-26T13:14:51.023Z</time></trkpt><trkpt lat="45.7897738" lon="11.7635482"><ele>152.0</ele><time>2026-04-26T13:14:52.022Z</time></trkpt><trkpt lat="45.7899353" lon="11.7634501"><ele>152.0</ele><time>2026-04-26T13:14:53.017Z</time></trkpt><trkpt lat="45.7900945" lon="11.7633542"><ele>152.0</ele><time>2026-04-26T13:14:54.034Z</time></trkpt><trkpt lat="45.7902522" lon="11.7632605"><ele>152.0</ele><time>2026-04-26T13:14:55.019Z</time></trkpt><trkpt lat="45.7904113" lon="11.7631675"><ele>153.0</ele><time>2026-04-26T13:14:56.018Z</time></trkpt><trkpt lat="45.7905702" lon="11.7630737"><ele>154.0</ele><time>2026-04-26T13:14:57.023Z</time></trkpt><trkpt lat="45.7907274" lon="11.7629809"><ele>155.0</ele><time>2026-04-26T13:14:58.031Z</time></trkpt><trkpt lat="45.7908815" lon="11.7628876"><ele>155.0</ele><time>2026-04-26T13:14:59.034Z</time></trkpt><trkpt lat="45.7910332" lon="11.7627916"><ele>155.0</ele><time>2026-04-26T13:15:00.021Z</time></trkpt><trkpt lat="45.7911831" lon="11.7626855"><ele>155.0</ele><time>2026-04-26T13:15:01.026Z</time></trkpt><trkpt lat="45.7913257" lon="11.7625668"><ele>155.25</ele><time>2026-04-26T13:15:02.035Z</time></trkpt><trkpt lat="45.7914554" lon="11.7624468"><ele>155.5</ele><time>2026-04-26T13:15:03.025Z</time></trkpt><trkpt lat="45.7915706" lon="11.7623354"><ele>155.75</ele><time>2026-04-26T13:15:04.049Z</time></trkpt><trkpt lat="45.7916662" lon="11.7622373"><ele>156.0</ele><time>2026-04-26T13:15:05.038Z</time></trkpt><trkpt lat="45.7917487" lon="11.7621476"><ele>156.0</ele><time>2026-04-26T13:15:06.038Z</time></trkpt><trkpt lat="45.7918189" lon="11.7620742"><ele>156.0</ele><time>2026-04-26T13:15:07.028Z</time></trkpt><trkpt lat="45.7918817" lon="11.7620063"><ele>156.0</ele><time>2026-04-26T13:15:08.026Z</time></trkpt><trkpt lat="45.7919441" lon="11.7619385"><ele>156.0</ele><time>2026-04-26T13:15:09.025Z</time></trkpt><trkpt lat="45.7920088" lon="11.7618663"><ele>156.0</ele><time>2026-04-26T13:15:10.027Z</time></trkpt><trkpt lat="45.7920816" lon="11.7617887"><ele>156.0</ele><time>2026-04-26T13:15:11.02Z</time></trkpt><trkpt lat="45.7921615" lon="11.7617071"><ele>156.33333333333334</ele><time>2026-04-26T13:15:12.023Z</time></trkpt><trkpt lat="45.7922454" lon="11.7616208"><ele>156.66666666666666</ele><time>2026-04-26T13:15:13.019Z</time></trkpt><trkpt lat="45.7923239" lon="11.7615383"><ele>157.0</ele><time>2026-04-26T13:15:14.022Z</time></trkpt><trkpt lat="45.7923937" lon="11.7614645"><ele>157.33333333333331</ele><time>2026-04-26T13:15:15.068Z</time></trkpt><trkpt lat="45.7924567" lon="11.7613975"><ele>157.66666666666666</ele><time>2026-04-26T13:15:16.02Z</time></trkpt><trkpt lat="45.7925174" lon="11.7613291"><ele>158.0</ele><time>2026-04-26T13:15:17.033Z</time></trkpt><trkpt lat="45.7925817" lon="11.7612536"><ele>158.0</ele><time>2026-04-26T13:15:18.047Z</time></trkpt><trkpt lat="45.7926556" lon="11.7611709"><ele>158.0</ele><time>2026-04-26T13:15:19.021Z</time></trkpt><trkpt lat="45.7927404" lon="11.7610844"><ele>158.0</ele><time>2026-04-26T13:15:20.024Z</time></trkpt><trkpt lat="45.7928332" lon="11.7609979"><ele>158.0</ele><time>2026-04-26T13:15:21.019Z</time></trkpt><trkpt lat="45.7929312" lon="11.7609074"><ele>158.0</ele><time>2026-04-26T13:15:22.022Z</time></trkpt><trkpt lat="45.7930305" lon="11.7608118"><ele>158.75</ele><time>2026-04-26T13:15:23.028Z</time></trkpt><trkpt lat="45.7931304" lon="11.7607123"><ele>159.5</ele><time>2026-04-26T13:15:24.018Z</time></trkpt><trkpt lat="45.793231" lon="11.7606116"><ele>160.25</ele><time>2026-04-26T13:15:25.013Z</time></trkpt><trkpt lat="45.7933349" lon="11.7605126"><ele>161.0</ele><time>2026-04-26T13:15:26.025Z</time></trkpt><trkpt lat="45.7934429" lon="11.7604205"><ele>161.0</ele><time>2026-04-26T13:15:27.024Z</time></trkpt><trkpt lat="45.7935552" lon="11.7603397"><ele>161.0</ele><time>2026-04-26T13:15:28.027Z</time></trkpt><trkpt lat="45.7936722" lon="11.7602688"><ele>161.0</ele><time>2026-04-26T13:15:29.018Z</time></trkpt><trkpt lat="45.7937904" lon="11.760208"><ele>161.0</ele><time>2026-04-26T13:15:30.016Z</time></trkpt><trkpt lat="45.793903" lon="11.7601579"><ele>161.5</ele><time>2026-04-26T13:15:31.019Z</time></trkpt><trkpt lat="45.7940166" lon="11.7601146"><ele>162.0</ele><time>2026-04-26T13:15:32.025Z</time></trkpt><trkpt lat="45.7941304" lon="11.7600758"><ele>162.5</ele><time>2026-04-26T13:15:33.019Z</time></trkpt><trkpt lat="45.7942463" lon="11.7600386"><ele>163.0</ele><time>2026-04-26T13:15:34.023Z</time></trkpt><trkpt lat="45.7943655" lon="11.7600008"><ele>164.0</ele><time>2026-04-26T13:15:35.039Z</time></trkpt><trkpt lat="45.7944855" lon="11.7599624"><ele>165.0</ele><time>2026-04-26T13:15:36.018Z</time></trkpt><trkpt lat="45.7946075" lon="11.7599255"><ele>166.0</ele><time>2026-04-26T13:15:37.026Z</time></trkpt><trkpt lat="45.7947294" lon="11.7598901"><ele>167.0</ele><time>2026-04-26T13:15:38.024Z</time></trkpt><trkpt lat="45.7948514" lon="11.7598576"><ele>167.0</ele><time>2026-04-26T13:15:39.017Z</time></trkpt><trkpt lat="45.7949734" lon="11.7598249"><ele>167.0</ele><time>2026-04-26T13:15:40.022Z</time></trkpt><trkpt lat="45.7950943" lon="11.7597888"><ele>167.0</ele><time>2026-04-26T13:15:41.017Z</time></trkpt><trkpt lat="45.7952136" lon="11.7597482"><ele>167.0</ele><time>2026-04-26T13:15:42.017Z</time></trkpt><trkpt lat="45.7953306" lon="11.7596977"><ele>168.75</ele><time>2026-04-26T13:15:43.043Z</time></trkpt><trkpt lat="45.795441" lon="11.7596253"><ele>170.5</ele><time>2026-04-26T13:15:44.014Z</time></trkpt><trkpt lat="45.7955396" lon="11.7595273"><ele>172.25</ele><time>2026-04-26T13:15:45.027Z</time></trkpt><trkpt lat="45.7956246" lon="11.7594134"><ele>174.0</ele><time>2026-04-26T13:15:46.019Z</time></trkpt><trkpt lat="45.7956944" lon="11.7593002"><ele>174.0</ele><time>2026-04-26T13:15:47.022Z</time></trkpt><trkpt lat="45.7957509" lon="11.7591923"><ele>174.0</ele><time>2026-04-26T13:15:48.024Z</time></trkpt><trkpt lat="45.7957996" lon="11.7590902"><ele>174.0</ele><time>2026-04-26T13:15:49.021Z</time></trkpt><trkpt lat="45.7958452" lon="11.758996"><ele>174.0</ele><time>2026-04-26T13:15:50.022Z</time></trkpt><trkpt lat="45.7958889" lon="11.7589106"><ele>174.0</ele><time>2026-04-26T13:15:51.026Z</time></trkpt><trkpt lat="45.7959289" lon="11.7588375"><ele>174.0</ele><time>2026-04-26T13:15:52.021Z</time></trkpt><trkpt lat="45.7960039" lon="11.7587115"><ele>173.5</ele><time>2026-04-26T13:15:54.017Z</time></trkpt><trkpt lat="45.7960735" lon="11.7586305"><ele>173.0</ele><time>2026-04-26T13:15:56.026Z</time></trkpt><trkpt lat="45.7961693" lon="11.7585833"><ele>172.5</ele><time>2026-04-26T13:16:00.016Z</time></trkpt><trkpt lat="45.7962348" lon="11.7585521"><ele>172.0</ele><time>2026-04-26T13:16:02.055Z</time></trkpt><trkpt lat="45.796289" lon="11.7584845"><ele>171.5</ele><time>2026-04-26T13:16:04.028Z</time></trkpt><trkpt lat="45.7962879" lon="11.7583835"><ele>171.0</ele><time>2026-04-26T13:16:06.027Z</time></trkpt><trkpt lat="45.7962247" lon="11.7583205"><ele>171.0</ele><time>2026-04-26T13:16:08.02Z</time></trkpt><trkpt lat="45.7961508" lon="11.7583636"><ele>171.0</ele><time>2026-04-26T13:16:10.033Z</time></trkpt><trkpt lat="45.7961553" lon="11.758485"><ele>171.0</ele><time>2026-04-26T13:16:12.018Z</time></trkpt><trkpt lat="45.7962328" lon="11.7585547"><ele>171.0</ele><time>2026-04-26T13:16:14.031Z</time></trkpt><trkpt lat="45.7963047" lon="11.7586303"><ele>171.0</ele><time>2026-04-26T13:16:16.021Z</time></trkpt><trkpt lat="45.7963465" lon="11.758722"><ele>171.0</ele><time>2026-04-26T13:16:18.048Z</time></trkpt><trkpt lat="45.7963931" lon="11.7588138"><ele>171.0</ele><time>2026-04-26T13:17:09.031Z</time></trkpt><trkpt lat="45.7964613" lon="11.7588819"><ele>171.0</ele><time>2026-04-26T13:17:11.016Z</time></trkpt><trkpt lat="45.7965124" lon="11.7589564"><ele>171.0</ele><time>2026-04-26T13:17:13.025Z</time></trkpt><trkpt lat="45.7965738" lon="11.7590495"><ele>171.0</ele><time>2026-04-26T13:17:15.029Z</time></trkpt><trkpt lat="45.7966485" lon="11.7591534"><ele>171.0</ele><time>2026-04-26T13:17:17.021Z</time></trkpt><trkpt lat="45.7967367" lon="11.7592727"><ele>170.99999999999997</ele><time>2026-04-26T13:17:19.029Z</time></trkpt><trkpt lat="45.796785" lon="11.7593429"><ele>171.0</ele><time>2026-04-26T13:17:20.031Z</time></trkpt><trkpt lat="45.796834" lon="11.759411"><ele>171.0</ele><time>2026-04-26T13:17:21.021Z</time></trkpt><trkpt lat="45.796879" lon="11.7594747"><ele>171.0</ele><time>2026-04-26T13:17:22.021Z</time></trkpt><trkpt lat="45.7969257" lon="11.7595405"><ele>171.0</ele><time>2026-04-26T13:17:23.014Z</time></trkpt><trkpt lat="45.7969703" lon="11.7596067"><ele>170.99999999999997</ele><time>2026-04-26T13:17:24.018Z</time></trkpt><trkpt lat="45.7970195" lon="11.7596741"><ele>171.0</ele><time>2026-04-26T13:17:25.017Z</time></trkpt><trkpt lat="45.7970666" lon="11.7597432"><ele>171.14285714285714</ele><time>2026-04-26T13:17:26.027Z</time></trkpt><trkpt lat="45.7971126" lon="11.7598115"><ele>171.28571428571428</ele><time>2026-04-26T13:17:27.022Z</time></trkpt><trkpt lat="45.7971573" lon="11.7598801"><ele>171.42857142857144</ele><time>2026-04-26T13:17:28.017Z</time></trkpt><trkpt lat="45.7972041" lon="11.7599526"><ele>171.57142857142856</ele><time>2026-04-26T13:17:29.019Z</time></trkpt><trkpt lat="45.7972546" lon="11.7600277"><ele>171.71428571428572</ele><time>2026-04-26T13:17:30.024Z</time></trkpt><trkpt lat="45.7973053" lon="11.760102"><ele>171.85714285714286</ele><time>2026-04-26T13:17:31.017Z</time></trkpt><trkpt lat="45.7973514" lon="11.7601698"><ele>172.0</ele><time>2026-04-26T13:17:32.018Z</time></trkpt><trkpt lat="45.7974255" lon="11.7602801"><ele>172.8</ele><time>2026-04-26T13:17:34.029Z</time></trkpt><trkpt lat="45.7974942" lon="11.7603802"><ele>173.6</ele><time>2026-04-26T13:17:36.028Z</time></trkpt><trkpt lat="45.7975615" lon="11.7604785"><ele>174.4</ele><time>2026-04-26T13:17:38.018Z</time></trkpt><trkpt lat="45.7976276" lon="11.7605801"><ele>175.20000000000002</ele><time>2026-04-26T13:17:40.024Z</time></trkpt><trkpt lat="45.797709" lon="11.7607088"><ele>176.0</ele><time>2026-04-26T13:17:42.022Z</time></trkpt><trkpt lat="45.7977604" lon="11.760788"><ele>176.0</ele><time>2026-04-26T13:17:43.018Z</time></trkpt><trkpt lat="45.7978195" lon="11.7608756"><ele>176.0</ele><time>2026-04-26T13:17:44.018Z</time></trkpt><trkpt lat="45.7978875" lon="11.7609762"><ele>176.0</ele><time>2026-04-26T13:17:45.013Z</time></trkpt><trkpt lat="45.797963" lon="11.7610851"><ele>176.0</ele><time>2026-04-26T13:17:46.027Z</time></trkpt><trkpt lat="45.7980489" lon="11.7612124"><ele>176.0</ele><time>2026-04-26T13:17:47.037Z</time></trkpt><trkpt lat="45.7981377" lon="11.7613391"><ele>177.0</ele><time>2026-04-26T13:17:48.019Z</time></trkpt><trkpt lat="45.7982337" lon="11.7614787"><ele>178.0</ele><time>2026-04-26T13:17:49.017Z</time></trkpt><trkpt lat="45.7983346" lon="11.7616268"><ele>179.0</ele><time>2026-04-26T13:17:50.022Z</time></trkpt><trkpt lat="45.7984394" lon="11.7617829"><ele>180.0</ele><time>2026-04-26T13:17:51.02Z</time></trkpt><trkpt lat="45.7985482" lon="11.7619419"><ele>181.33333333333334</ele><time>2026-04-26T13:17:52.024Z</time></trkpt><trkpt lat="45.7986553" lon="11.7620999"><ele>182.66666666666669</ele><time>2026-04-26T13:17:53.014Z</time></trkpt><trkpt lat="45.798764" lon="11.7622602"><ele>184.0</ele><time>2026-04-26T13:17:54.02Z</time></trkpt><trkpt lat="45.7988702" lon="11.7624234"><ele>184.0</ele><time>2026-04-26T13:17:55.017Z</time></trkpt><trkpt lat="45.7989758" lon="11.7625783"><ele>184.0</ele><time>2026-04-26T13:17:56.016Z</time></trkpt><trkpt lat="45.7990837" lon="11.7627159"><ele>184.0</ele><time>2026-04-26T13:17:57.011Z</time></trkpt><trkpt lat="45.7992039" lon="11.7628315"><ele>184.0</ele><time>2026-04-26T13:17:58.023Z</time></trkpt><trkpt lat="45.7993435" lon="11.7629221"><ele>186.0</ele><time>2026-04-26T13:17:59.038Z</time></trkpt><trkpt lat="45.79949" lon="11.7630122"><ele>188.0</ele><time>2026-04-26T13:18:00.014Z</time></trkpt><trkpt lat="45.799649" lon="11.7630896"><ele>190.0</ele><time>2026-04-26T13:18:01.011Z</time></trkpt><trkpt lat="45.7998092" lon="11.7631618"><ele>190.0</ele><time>2026-04-26T13:18:02.014Z</time></trkpt><trkpt lat="45.7999789" lon="11.76323"><ele>190.0</ele><time>2026-04-26T13:18:03.013Z</time></trkpt><trkpt lat="45.8001125" lon="11.7633082"><ele>190.0</ele><time>2026-04-26T13:18:04.013Z</time></trkpt><trkpt lat="45.8002144" lon="11.7633481"><ele>190.0</ele><time>2026-04-26T13:18:05.046Z</time></trkpt><trkpt lat="45.8002732" lon="11.763381"><ele>189.66666666666669</ele><time>2026-04-26T13:18:06.023Z</time></trkpt><trkpt lat="45.8003396" lon="11.7634352"><ele>189.33333333333334</ele><time>2026-04-26T13:18:08.035Z</time></trkpt><trkpt lat="45.8004396" lon="11.7633529"><ele>189.0</ele><time>2026-04-26T13:18:29.036Z</time></trkpt><trkpt lat="45.8004927" lon="11.7632913"><ele>188.66666666666666</ele><time>2026-04-26T13:18:30.087Z</time></trkpt><trkpt lat="45.8005707" lon="11.7632338"><ele>188.33333333333331</ele><time>2026-04-26T13:18:31.02Z</time></trkpt><trkpt lat="45.8006595" lon="11.7631895"><ele>188.0</ele><time>2026-04-26T13:18:32.018Z</time></trkpt><trkpt lat="45.8007459" lon="11.7631358"><ele>188.0</ele><time>2026-04-26T13:18:33.024Z</time></trkpt><trkpt lat="45.8008173" lon="11.7630641"><ele>188.0</ele><time>2026-04-26T13:18:34.092Z</time></trkpt><trkpt lat="45.8008698" lon="11.7629725"><ele>188.0</ele><time>2026-04-26T13:18:35.023Z</time></trkpt><trkpt lat="45.8009012" lon="11.7628651"><ele>188.0</ele><time>2026-04-26T13:18:36.019Z</time></trkpt><trkpt lat="45.8009088" lon="11.7627411"><ele>188.0</ele><time>2026-04-26T13:18:37.023Z</time></trkpt><trkpt lat="45.8008972" lon="11.7626028"><ele>188.0</ele><time>2026-04-26T13:18:38.02Z</time></trkpt><trkpt lat="45.8008813" lon="11.7624626"><ele>187.33333333333331</ele><time>2026-04-26T13:18:39.018Z</time></trkpt><trkpt lat="45.800863" lon="11.7623289"><ele>186.66666666666666</ele><time>2026-04-26T13:18:40.017Z</time></trkpt><trkpt lat="45.8008479" lon="11.7621981"><ele>186.0</ele><time>2026-04-26T13:18:41.023Z</time></trkpt><trkpt lat="45.8008308" lon="11.7620859"><ele>185.33333333333334</ele><time>2026-04-26T13:18:42.022Z</time></trkpt><trkpt lat="45.8008093" lon="11.7619808"><ele>184.66666666666669</ele><time>2026-04-26T13:18:43.018Z</time></trkpt><trkpt lat="45.8007978" lon="11.7618876"><ele>184.0</ele><time>2026-04-26T13:18:44.015Z</time></trkpt><trkpt lat="45.8007776" lon="11.7617388"><ele>183.83333333333334</ele><time>2026-04-26T13:18:46.02Z</time></trkpt><trkpt lat="45.8007547" lon="11.7616042"><ele>183.66666666666669</ele><time>2026-04-26T13:18:48.018Z</time></trkpt><trkpt lat="45.8007387" lon="11.7615104"><ele>183.5</ele><time>2026-04-26T13:18:50.035Z</time></trkpt><trkpt lat="45.800739" lon="11.761362"><ele>183.33333333333334</ele><time>2026-04-26T13:18:57.016Z</time></trkpt><trkpt lat="45.8007404" lon="11.7612704"><ele>183.16666666666666</ele><time>2026-04-26T13:18:58.026Z</time></trkpt><trkpt lat="45.800746" lon="11.7611611"><ele>183.0</ele><time>2026-04-26T13:18:59.017Z</time></trkpt><trkpt lat="45.8007602" lon="11.7610404"><ele>183.0</ele><time>2026-04-26T13:19:00.018Z</time></trkpt><trkpt lat="45.8007864" lon="11.7609211"><ele>183.0</ele><time>2026-04-26T13:19:01.016Z</time></trkpt><trkpt lat="45.8008243" lon="11.7608087"><ele>183.0</ele><time>2026-04-26T13:19:02.02Z</time></trkpt><trkpt lat="45.80087" lon="11.760698"><ele>183.0</ele><time>2026-04-26T13:19:03.015Z</time></trkpt><trkpt lat="45.8009243" lon="11.7605872"><ele>183.0</ele><time>2026-04-26T13:19:04.02Z</time></trkpt><trkpt lat="45.8009874" lon="11.7604761"><ele>183.5</ele><time>2026-04-26T13:19:05.017Z</time></trkpt><trkpt lat="45.8010599" lon="11.7603638"><ele>184.0</ele><time>2026-04-26T13:19:06.026Z</time></trkpt><trkpt lat="45.8011406" lon="11.7602515"><ele>184.5</ele><time>2026-04-26T13:19:07.02Z</time></trkpt><trkpt lat="45.8012288" lon="11.7601402"><ele>185.0</ele><time>2026-04-26T13:19:08.015Z</time></trkpt><trkpt lat="45.8013197" lon="11.7600259"><ele>185.0</ele><time>2026-04-26T13:19:09.016Z</time></trkpt><trkpt lat="45.8014112" lon="11.7599102"><ele>185.0</ele><time>2026-04-26T13:19:10.017Z</time></trkpt><trkpt lat="45.8015009" lon="11.7597952"><ele>185.0</ele><time>2026-04-26T13:19:11.018Z</time></trkpt><trkpt lat="45.8015876" lon="11.7596762"><ele>185.0</ele><time>2026-04-26T13:19:12.018Z</time></trkpt><trkpt lat="45.8016687" lon="11.7595479"><ele>185.0</ele><time>2026-04-26T13:19:13.022Z</time></trkpt><trkpt lat="45.8017358" lon="11.7594063"><ele>185.0</ele><time>2026-04-26T13:19:14.012Z</time></trkpt><trkpt lat="45.8017744" lon="11.7592536"><ele>185.0</ele><time>2026-04-26T13:19:15.009Z</time></trkpt><trkpt lat="45.801789" lon="11.7590874"><ele>185.0</ele><time>2026-04-26T13:19:16.02Z</time></trkpt><trkpt lat="45.801806" lon="11.7589293"><ele>185.6</ele><time>2026-04-26T13:19:17.017Z</time></trkpt><trkpt lat="45.8018381" lon="11.7587742"><ele>186.2</ele><time>2026-04-26T13:19:18.014Z</time></trkpt><trkpt lat="45.8018736" lon="11.7586267"><ele>186.8</ele><time>2026-04-26T13:19:19.027Z</time></trkpt><trkpt lat="45.8019122" lon="11.7584827"><ele>187.4</ele><time>2026-04-26T13:19:20.02Z</time></trkpt><trkpt lat="45.8019501" lon="11.7583639"><ele>188.0</ele><time>2026-04-26T13:19:21.021Z</time></trkpt><trkpt lat="45.8019808" lon="11.7582635"><ele>188.16666666666666</ele><time>2026-04-26T13:19:22.015Z</time></trkpt><trkpt lat="45.8020052" lon="11.7581762"><ele>188.33333333333331</ele><time>2026-04-26T13:19:23.026Z</time></trkpt><trkpt lat="45.8020442" lon="11.7580356"><ele>188.5</ele><time>2026-04-26T13:19:30.02Z</time></trkpt><trkpt lat="45.8021009" lon="11.7579254"><ele>188.66666666666666</ele><time>2026-04-26T13:19:32.029Z</time></trkpt><trkpt lat="45.8021646" lon="11.7579139"><ele>188.83333333333334</ele><time>2026-04-26T13:19:33.015Z</time></trkpt><trkpt lat="45.8022369" lon="11.7579116"><ele>189.0</ele><time>2026-04-26T13:19:34.03Z</time></trkpt><trkpt lat="45.8023152" lon="11.7578864"><ele>189.0</ele><time>2026-04-26T13:19:35.016Z</time></trkpt><trkpt lat="45.8023969" lon="11.7578448"><ele>189.0</ele><time>2026-04-26T13:19:36.035Z</time></trkpt><trkpt lat="45.8024794" lon="11.757799"><ele>189.0</ele><time>2026-04-26T13:19:37.027Z</time></trkpt><trkpt lat="45.8025639" lon="11.7577424"><ele>189.0</ele><time>2026-04-26T13:19:38.017Z</time></trkpt><trkpt lat="45.8026452" lon="11.7576893"><ele>189.0</ele><time>2026-04-26T13:19:39.019Z</time></trkpt><trkpt lat="45.8027317" lon="11.7576368"><ele>189.79999999999998</ele><time>2026-04-26T13:19:40.016Z</time></trkpt><trkpt lat="45.8028247" lon="11.7575737"><ele>190.6</ele><time>2026-04-26T13:19:41.022Z</time></trkpt><trkpt lat="45.8029219" lon="11.7575075"><ele>191.4</ele><time>2026-04-26T13:19:42.036Z</time></trkpt><trkpt lat="45.803021" lon="11.7574381"><ele>192.2</ele><time>2026-04-26T13:19:43.025Z</time></trkpt><trkpt lat="45.803123" lon="11.7573787"><ele>193.0</ele><time>2026-04-26T13:19:44.023Z</time></trkpt><trkpt lat="45.8032277" lon="11.7573126"><ele>193.0</ele><time>2026-04-26T13:19:45.017Z</time></trkpt><trkpt lat="45.8033361" lon="11.7572476"><ele>193.0</ele><time>2026-04-26T13:19:46.011Z</time></trkpt><trkpt lat="45.8034472" lon="11.7571801"><ele>193.0</ele><time>2026-04-26T13:19:47.015Z</time></trkpt><trkpt lat="45.8035609" lon="11.75711"><ele>193.0</ele><time>2026-04-26T13:19:48.032Z</time></trkpt><trkpt lat="45.8036725" lon="11.7570393"><ele>193.2</ele><time>2026-04-26T13:19:49.024Z</time></trkpt><trkpt lat="45.8037812" lon="11.7569712"><ele>193.4</ele><time>2026-04-26T13:19:50.017Z</time></trkpt><trkpt lat="45.8038761" lon="11.756911"><ele>193.6</ele><time>2026-04-26T13:19:51.018Z</time></trkpt><trkpt lat="45.8039685" lon="11.7568547"><ele>193.79999999999998</ele><time>2026-04-26T13:19:52.04Z</time></trkpt><trkpt lat="45.8040612" lon="11.7567967"><ele>194.0</ele><time>2026-04-26T13:19:53.015Z</time></trkpt><trkpt lat="45.8041549" lon="11.7567288"><ele>195.75</ele><time>2026-04-26T13:19:54.021Z</time></trkpt><trkpt lat="45.8042441" lon="11.7566345"><ele>197.5</ele><time>2026-04-26T13:19:55.025Z</time></trkpt><trkpt lat="45.8043324" lon="11.7565219"><ele>199.25</ele><time>2026-04-26T13:19:56.032Z</time></trkpt><trkpt lat="45.804431" lon="11.756417"><ele>201.0</ele><time>2026-04-26T13:19:57.036Z</time></trkpt><trkpt lat="45.8045462" lon="11.7563399"><ele>203.0</ele><time>2026-04-26T13:19:58.022Z</time></trkpt><trkpt lat="45.8046759" lon="11.7563054"><ele>205.0</ele><time>2026-04-26T13:19:59.021Z</time></trkpt><trkpt lat="45.8048146" lon="11.7563132"><ele>207.0</ele><time>2026-04-26T13:20:00.035Z</time></trkpt><trkpt lat="45.8049622" lon="11.7563546"><ele>209.0</ele><time>2026-04-26T13:20:01.019Z</time></trkpt><trkpt lat="45.8051221" lon="11.756418"><ele>214.0</ele><time>2026-04-26T13:20:02.024Z</time></trkpt><trkpt lat="45.8052928" lon="11.7564877"><ele>219.0</ele><time>2026-04-26T13:20:03.021Z</time></trkpt><trkpt lat="45.8054743" lon="11.7565581"><ele>224.0</ele><time>2026-04-26T13:20:04.034Z</time></trkpt><trkpt lat="45.8056602" lon="11.7566283"><ele>224.0</ele><time>2026-04-26T13:20:05.026Z</time></trkpt><trkpt lat="45.8058464" lon="11.7566679"><ele>224.0</ele><time>2026-04-26T13:20:06.022Z</time></trkpt><trkpt lat="45.8060358" lon="11.7567001"><ele>224.0</ele><time>2026-04-26T13:20:07.017Z</time></trkpt><trkpt lat="45.8062211" lon="11.7567302"><ele>228.66666666666669</ele><time>2026-04-26T13:20:08.03Z</time></trkpt><trkpt lat="45.8064014" lon="11.756752"><ele>233.33333333333331</ele><time>2026-04-26T13:20:09.014Z</time></trkpt><trkpt lat="45.8065683" lon="11.7567679"><ele>238.0</ele><time>2026-04-26T13:20:10.02Z</time></trkpt><trkpt lat="45.8067225" lon="11.7567784"><ele>239.25</ele><time>2026-04-26T13:20:11.02Z</time></trkpt><trkpt lat="45.8068657" lon="11.7567836"><ele>240.5</ele><time>2026-04-26T13:20:12.027Z</time></trkpt><trkpt lat="45.8070033" lon="11.7567886"><ele>241.75</ele><time>2026-04-26T13:20:13.024Z</time></trkpt><trkpt lat="45.8071347" lon="11.7567911"><ele>243.0</ele><time>2026-04-26T13:20:14.018Z</time></trkpt><trkpt lat="45.8072616" lon="11.7567967"><ele>243.0</ele><time>2026-04-26T13:20:15.024Z</time></trkpt><trkpt lat="45.807382" lon="11.7568075"><ele>243.0</ele><time>2026-04-26T13:20:16.019Z</time></trkpt><trkpt lat="45.8074888" lon="11.7568288"><ele>243.0</ele><time>2026-04-26T13:20:17.01Z</time></trkpt><trkpt lat="45.8075746" lon="11.7568682"><ele>243.0</ele><time>2026-04-26T13:20:18.019Z</time></trkpt><trkpt lat="45.8076415" lon="11.756898"><ele>243.0</ele><time>2026-04-26T13:20:19.021Z</time></trkpt><trkpt lat="45.8077051" lon="11.7568893"><ele>243.0</ele><time>2026-04-26T13:20:20.024Z</time></trkpt><trkpt lat="45.80777" lon="11.7567498"><ele>243.0</ele><time>2026-04-26T13:20:22.008Z</time></trkpt><trkpt lat="45.807744" lon="11.7566624"><ele>243.0</ele><time>2026-04-26T13:20:23.033Z</time></trkpt><trkpt lat="45.8076801" lon="11.7566055"><ele>243.0</ele><time>2026-04-26T13:20:24.017Z</time></trkpt><trkpt lat="45.8075919" lon="11.7565735"><ele>243.0</ele><time>2026-04-26T13:20:25.011Z</time></trkpt><trkpt lat="45.8074965" lon="11.7565402"><ele>243.0</ele><time>2026-04-26T13:20:26.019Z</time></trkpt><trkpt lat="45.8074013" lon="11.7565261"><ele>243.0</ele><time>2026-04-26T13:20:27.018Z</time></trkpt><trkpt lat="45.8073248" lon="11.7565074"><ele>243.0</ele><time>2026-04-26T13:20:28.009Z</time></trkpt><trkpt lat="45.8072445" lon="11.7564959"><ele>243.0</ele><time>2026-04-26T13:20:29.014Z</time></trkpt><trkpt lat="45.8071566" lon="11.7564851"><ele>243.0</ele><time>2026-04-26T13:20:30.017Z</time></trkpt><trkpt lat="45.8070646" lon="11.7564663"><ele>243.0</ele><time>2026-04-26T13:20:31.018Z</time></trkpt><trkpt lat="45.8069654" lon="11.7564586"><ele>243.0</ele><time>2026-04-26T13:20:32.019Z</time></trkpt><trkpt lat="45.8068632" lon="11.7564245"><ele>241.75</ele><time>2026-04-26T13:20:33.022Z</time></trkpt><trkpt lat="45.8067541" lon="11.7563956"><ele>240.5</ele><time>2026-04-26T13:20:34.015Z</time></trkpt><trkpt lat="45.8066384" lon="11.7563539"><ele>239.25</ele><time>2026-04-26T13:20:35.014Z</time></trkpt><trkpt lat="45.8065306" lon="11.7563097"><ele>238.0</ele><time>2026-04-26T13:20:36.017Z</time></trkpt><trkpt lat="45.8064092" lon="11.7562482"><ele>238.0</ele><time>2026-04-26T13:20:37.018Z</time></trkpt><trkpt lat="45.806288" lon="11.7561662"><ele>238.0</ele><time>2026-04-26T13:20:38.014Z</time></trkpt><trkpt lat="45.8061601" lon="11.7560934"><ele>238.0</ele><time>2026-04-26T13:20:39.013Z</time></trkpt><trkpt lat="45.8060382" lon="11.7560199"><ele>238.0</ele><time>2026-04-26T13:20:40.014Z</time></trkpt><trkpt lat="45.8059219" lon="11.75594"><ele>244.5</ele><time>2026-04-26T13:20:41.021Z</time></trkpt><trkpt lat="45.8058068" lon="11.7558618"><ele>251.0</ele><time>2026-04-26T13:20:42.024Z</time></trkpt><trkpt lat="45.8056965" lon="11.7557754"><ele>257.5</ele><time>2026-04-26T13:20:43.02Z</time></trkpt><trkpt lat="45.8055944" lon="11.7556851"><ele>264.0</ele><time>2026-04-26T13:20:44.023Z</time></trkpt><trkpt lat="45.8054972" lon="11.7556027"><ele>264.0</ele><time>2026-04-26T13:20:45.016Z</time></trkpt><trkpt lat="45.8054083" lon="11.7555175"><ele>264.0</ele><time>2026-04-26T13:20:46.022Z</time></trkpt><trkpt lat="45.8053214" lon="11.7554244"><ele>264.0</ele><time>2026-04-26T13:20:47.018Z</time></trkpt><trkpt lat="45.8052346" lon="11.7553249"><ele>264.0</ele><time>2026-04-26T13:20:48.024Z</time></trkpt><trkpt lat="45.8051657" lon="11.7552228"><ele>264.0</ele><time>2026-04-26T13:20:49.016Z</time></trkpt><trkpt lat="45.8050799" lon="11.7551052"><ele>266.2</ele><time>2026-04-26T13:20:50.018Z</time></trkpt><trkpt lat="45.8049963" lon="11.7549873"><ele>268.4</ele><time>2026-04-26T13:20:51.02Z</time></trkpt><trkpt lat="45.804913" lon="11.7548763"><ele>270.6</ele><time>2026-04-26T13:20:52.019Z</time></trkpt><trkpt lat="45.8048407" lon="11.7547757"><ele>272.8</ele><time>2026-04-26T13:20:53.021Z</time></trkpt><trkpt lat="45.8047724" lon="11.7546796"><ele>275.0</ele><time>2026-04-26T13:20:54.019Z</time></trkpt><trkpt lat="45.8047033" lon="11.7545841"><ele>275.0</ele><time>2026-04-26T13:20:55.01Z</time></trkpt><trkpt lat="45.8046369" lon="11.754502"><ele>275.0</ele><time>2026-04-26T13:20:56.028Z</time></trkpt><trkpt lat="45.804577" lon="11.754426"><ele>275.0</ele><time>2026-04-26T13:20:57.018Z</time></trkpt><trkpt lat="45.8045113" lon="11.754343"><ele>275.0</ele><time>2026-04-26T13:20:58.021Z</time></trkpt><trkpt lat="45.8044413" lon="11.7542485"><ele>275.0</ele><time>2026-04-26T13:20:59.017Z</time></trkpt><trkpt lat="45.8043613" lon="11.7541332"><ele>274.0</ele><time>2026-04-26T13:21:00.014Z</time></trkpt><trkpt lat="45.8042682" lon="11.7540072"><ele>273.0</ele><time>2026-04-26T13:21:01.02Z</time></trkpt><trkpt lat="45.8041676" lon="11.7538546"><ele>272.0</ele><time>2026-04-26T13:21:02.016Z</time></trkpt><trkpt lat="45.8040758" lon="11.7536931"><ele>271.0</ele><time>2026-04-26T13:21:03.016Z</time></trkpt><trkpt lat="45.8039961" lon="11.7535489"><ele>277.0</ele><time>2026-04-26T13:21:04.015Z</time></trkpt><trkpt lat="45.8039277" lon="11.7534328"><ele>283.0</ele><time>2026-04-26T13:21:05.019Z</time></trkpt><trkpt lat="45.8038614" lon="11.7533174"><ele>289.0</ele><time>2026-04-26T13:21:06.017Z</time></trkpt><trkpt lat="45.8037949" lon="11.7531964"><ele>295.0</ele><time>2026-04-26T13:21:07.024Z</time></trkpt><trkpt lat="45.8037255" lon="11.7530607"><ele>301.0</ele><time>2026-04-26T13:21:08.018Z</time></trkpt><trkpt lat="45.8036419" lon="11.7529323"><ele>301.0</ele><time>2026-04-26T13:21:09.017Z</time></trkpt><trkpt lat="45.8035669" lon="11.7527969"><ele>301.0</ele><time>2026-04-26T13:21:10.016Z</time></trkpt><trkpt lat="45.8034929" lon="11.752668"><ele>301.0</ele><time>2026-04-26T13:21:11.023Z</time></trkpt><trkpt lat="45.8034198" lon="11.752527"><ele>301.0</ele><time>2026-04-26T13:21:12.024Z</time></trkpt><trkpt lat="45.8033512" lon="11.7523788"><ele>296.0</ele><time>2026-04-26T13:21:13.023Z</time></trkpt><trkpt lat="45.8032769" lon="11.7521971"><ele>291.0</ele><time>2026-04-26T13:21:14.014Z</time></trkpt><trkpt lat="45.8031967" lon="11.7519835"><ele>286.0</ele><time>2026-04-26T13:21:15.017Z</time></trkpt><trkpt lat="45.8031142" lon="11.7517574"><ele>298.0</ele><time>2026-04-26T13:21:16.032Z</time></trkpt><trkpt lat="45.8030295" lon="11.7514971"><ele>310.0</ele><time>2026-04-26T13:21:17.019Z</time></trkpt><trkpt lat="45.8029539" lon="11.7512239"><ele>322.0</ele><time>2026-04-26T13:21:18.019Z</time></trkpt><trkpt lat="45.8028719" lon="11.7509561"><ele>329.0</ele><time>2026-04-26T13:21:19.015Z</time></trkpt><trkpt lat="45.8027941" lon="11.7506957"><ele>336.0</ele><time>2026-04-26T13:21:20.019Z</time></trkpt><trkpt lat="45.802717" lon="11.7504501"><ele>343.0</ele><time>2026-04-26T13:21:21.019Z</time></trkpt><trkpt lat="45.802643" lon="11.7502272"><ele>337.0</ele><time>2026-04-26T13:21:22.017Z</time></trkpt><trkpt lat="45.802593" lon="11.7500234"><ele>331.0</ele><time>2026-04-26T13:21:23.046Z</time></trkpt><trkpt lat="45.802527" lon="11.7498694"><ele>325.0</ele><time>2026-04-26T13:21:24.019Z</time></trkpt><trkpt lat="45.8024352" lon="11.7497353"><ele>319.0</ele><time>2026-04-26T13:21:25.051Z</time></trkpt><trkpt lat="45.8023274" lon="11.7495965"><ele>319.0</ele><time>2026-04-26T13:21:26.019Z</time></trkpt><trkpt lat="45.8021706" lon="11.7494981"><ele>319.0</ele><time>2026-04-26T13:21:27.02Z</time></trkpt><trkpt lat="45.8020117" lon="11.7494215"><ele>319.0</ele><time>2026-04-26T13:21:28.014Z</time></trkpt><trkpt lat="45.8018494" lon="11.7493321"><ele>321.3333333333333</ele><time>2026-04-26T13:21:29.02Z</time></trkpt><trkpt lat="45.8017046" lon="11.7492182"><ele>323.6666666666667</ele><time>2026-04-26T13:21:30.009Z</time></trkpt><trkpt lat="45.8015771" lon="11.7490676"><ele>326.0</ele><time>2026-04-26T13:21:31.019Z</time></trkpt><trkpt lat="45.8014564" lon="11.748859"><ele>326.0</ele><time>2026-04-26T13:21:32.012Z</time></trkpt><trkpt lat="45.8013479" lon="11.7486403"><ele>326.0</ele><time>2026-04-26T13:21:33.018Z</time></trkpt><trkpt lat="45.8012345" lon="11.7484226"><ele>326.0</ele><time>2026-04-26T13:21:34.018Z</time></trkpt><trkpt lat="45.8011251" lon="11.7482013"><ele>325.0</ele><time>2026-04-26T13:21:35.019Z</time></trkpt><trkpt lat="45.8010251" lon="11.7479828"><ele>324.0</ele><time>2026-04-26T13:21:36.021Z</time></trkpt><trkpt lat="45.80094" lon="11.7477823"><ele>323.0</ele><time>2026-04-26T13:21:37.014Z</time></trkpt><trkpt lat="45.8008575" lon="11.7476228"><ele>328.0</ele><time>2026-04-26T13:21:38.017Z</time></trkpt><trkpt lat="45.8008023" lon="11.7474658"><ele>333.0</ele><time>2026-04-26T13:21:39.02Z</time></trkpt><trkpt lat="45.8007567" lon="11.7473369"><ele>338.0</ele><time>2026-04-26T13:21:40.074Z</time></trkpt><trkpt lat="45.8007039" lon="11.747241"><ele>343.0</ele><time>2026-04-26T13:21:41.011Z</time></trkpt><trkpt lat="45.8006404" lon="11.7471893"><ele>348.0</ele><time>2026-04-26T13:21:42.012Z</time></trkpt><trkpt lat="45.8005642" lon="11.7471518"><ele>348.0</ele><time>2026-04-26T13:21:43.02Z</time></trkpt><trkpt lat="45.8005151" lon="11.7470626"><ele>348.0</ele><time>2026-04-26T13:21:44.013Z</time></trkpt><trkpt lat="45.80053" lon="11.7469461"><ele>348.0</ele><time>2026-04-26T13:21:45.016Z</time></trkpt><trkpt lat="45.8005861" lon="11.7469016"><ele>348.0</ele><time>2026-04-26T13:21:46.026Z</time></trkpt><trkpt lat="45.8006616" lon="11.7469285"><ele>348.0</ele><time>2026-04-26T13:21:47.013Z</time></trkpt><trkpt lat="45.8007537" lon="11.7470235"><ele>348.0</ele><time>2026-04-26T13:21:48.011Z</time></trkpt><trkpt lat="45.8007983" lon="11.7471981"><ele>348.0</ele><time>2026-04-26T13:21:49.022Z</time></trkpt><trkpt lat="45.8008668" lon="11.7473479"><ele>348.0</ele><time>2026-04-26T13:21:50.019Z</time></trkpt><trkpt lat="45.8009689" lon="11.7474976"><ele>348.0</ele><time>2026-04-26T13:21:51.02Z</time></trkpt><trkpt lat="45.8010926" lon="11.7476328"><ele>348.0</ele><time>2026-04-26T13:21:52.023Z</time></trkpt><trkpt lat="45.8012233" lon="11.7477762"><ele>353.3333333333333</ele><time>2026-04-26T13:21:53.011Z</time></trkpt><trkpt lat="45.8013633" lon="11.7479281"><ele>358.66666666666663</ele><time>2026-04-26T13:21:54.012Z</time></trkpt><trkpt lat="45.8015159" lon="11.7480982"><ele>364.0</ele><time>2026-04-26T13:21:55.011Z</time></trkpt><trkpt lat="45.8016474" lon="11.7483182"><ele>364.0</ele><time>2026-04-26T13:21:56.019Z</time></trkpt><trkpt lat="45.8017784" lon="11.748496"><ele>364.0</ele><time>2026-04-26T13:21:57.016Z</time></trkpt><trkpt lat="45.8019367" lon="11.7486495"><ele>364.0</ele><time>2026-04-26T13:21:58.029Z</time></trkpt><trkpt lat="45.8021129" lon="11.7487411"><ele>361.0</ele><time>2026-04-26T13:21:59.014Z</time></trkpt><trkpt lat="45.8022725" lon="11.7488028"><ele>358.0</ele><time>2026-04-26T13:22:00.022Z</time></trkpt><trkpt lat="45.8024292" lon="11.7488191"><ele>355.0</ele><time>2026-04-26T13:22:01.016Z</time></trkpt><trkpt lat="45.8025921" lon="11.7488232"><ele>364.0</ele><time>2026-04-26T13:22:02.012Z</time></trkpt><trkpt lat="45.802749" lon="11.7488169"><ele>373.0</ele><time>2026-04-26T13:22:03.017Z</time></trkpt><trkpt lat="45.8028727" lon="11.7488176"><ele>382.0</ele><time>2026-04-26T13:22:04.018Z</time></trkpt><trkpt lat="45.8030037" lon="11.7488487"><ele>391.0</ele><time>2026-04-26T13:22:05.035Z</time></trkpt><trkpt lat="45.8031221" lon="11.7489798"><ele>391.0</ele><time>2026-04-26T13:22:06.024Z</time></trkpt><trkpt lat="45.8032163" lon="11.7491402"><ele>391.0</ele><time>2026-04-26T13:22:07.015Z</time></trkpt><trkpt lat="45.8033107" lon="11.7492949"><ele>391.0</ele><time>2026-04-26T13:22:08.022Z</time></trkpt><trkpt lat="45.8034029" lon="11.7494638"><ele>391.0</ele><time>2026-04-26T13:22:09.012Z</time></trkpt><trkpt lat="45.803511" lon="11.7496525"><ele>393.0</ele><time>2026-04-26T13:22:10.013Z</time></trkpt><trkpt lat="45.8036105" lon="11.7498927"><ele>395.0</ele><time>2026-04-26T13:22:11.019Z</time></trkpt><trkpt lat="45.8037187" lon="11.7501058"><ele>397.0</ele><time>2026-04-26T13:22:12.023Z</time></trkpt><trkpt lat="45.8038199" lon="11.7503154"><ele>397.0</ele><time>2026-04-26T13:22:13.023Z</time></trkpt><trkpt lat="45.8039246" lon="11.7505265"><ele>397.0</ele><time>2026-04-26T13:22:14.016Z</time></trkpt><trkpt lat="45.8040249" lon="11.750746"><ele>397.0</ele><time>2026-04-26T13:22:15.012Z</time></trkpt><trkpt lat="45.8041184" lon="11.7509391"><ele>401.5</ele><time>2026-04-26T13:22:16.014Z</time></trkpt><trkpt lat="45.8042047" lon="11.7511081"><ele>406.0</ele><time>2026-04-26T13:22:17.012Z</time></trkpt><trkpt lat="45.8042603" lon="11.7512793"><ele>410.5</ele><time>2026-04-26T13:22:18.022Z</time></trkpt><trkpt lat="45.8043439" lon="11.7514312"><ele>415.0</ele><time>2026-04-26T13:22:19.016Z</time></trkpt><trkpt lat="45.8044494" lon="11.7515587"><ele>415.0</ele><time>2026-04-26T13:22:20.027Z</time></trkpt><trkpt lat="45.8045736" lon="11.7516679"><ele>415.0</ele><time>2026-04-26T13:22:21.014Z</time></trkpt><trkpt lat="45.8047009" lon="11.7517692"><ele>415.0</ele><time>2026-04-26T13:22:22.005Z</time></trkpt><trkpt lat="45.8048253" lon="11.7518671"><ele>415.0</ele><time>2026-04-26T13:22:23.021Z</time></trkpt><trkpt lat="45.8049439" lon="11.7519582"><ele>416.6666666666667</ele><time>2026-04-26T13:22:24.011Z</time></trkpt><trkpt lat="45.8050784" lon="11.7520533"><ele>418.33333333333337</ele><time>2026-04-26T13:22:25.007Z</time></trkpt><trkpt lat="45.8052185" lon="11.75217"><ele>420.0</ele><time>2026-04-26T13:22:26.012Z</time></trkpt><trkpt lat="45.8053624" lon="11.752271"><ele>420.0</ele><time>2026-04-26T13:22:27.018Z</time></trkpt><trkpt lat="45.8055086" lon="11.7523892"><ele>420.0</ele><time>2026-04-26T13:22:28.013Z</time></trkpt><trkpt lat="45.8056553" lon="11.7525143"><ele>420.0</ele><time>2026-04-26T13:22:29.007Z</time></trkpt><trkpt lat="45.8057985" lon="11.7526395"><ele>416.66666666666663</ele><time>2026-04-26T13:22:30.023Z</time></trkpt><trkpt lat="45.8059438" lon="11.7527581"><ele>413.3333333333333</ele><time>2026-04-26T13:22:31.018Z</time></trkpt><trkpt lat="45.8060878" lon="11.7528899"><ele>410.0</ele><time>2026-04-26T13:22:32.015Z</time></trkpt><trkpt lat="45.8062339" lon="11.7529969"><ele>410.0</ele><time>2026-04-26T13:22:33.015Z</time></trkpt><trkpt lat="45.8063811" lon="11.7531082"><ele>410.0</ele><time>2026-04-26T13:22:34.006Z</time></trkpt><trkpt lat="45.8065416" lon="11.7532019"><ele>410.0</ele><time>2026-04-26T13:22:35.009Z</time></trkpt><trkpt lat="45.8066965" lon="11.7532776"><ele>415.0</ele><time>2026-04-26T13:22:36.007Z</time></trkpt><trkpt lat="45.8068626" lon="11.7533304"><ele>420.0</ele><time>2026-04-26T13:22:37.011Z</time></trkpt><trkpt lat="45.806996" lon="11.7533518"><ele>425.0</ele><time>2026-04-26T13:22:38.009Z</time></trkpt><trkpt lat="45.8071385" lon="11.7533493"><ele>430.0</ele><time>2026-04-26T13:22:39.01Z</time></trkpt><trkpt lat="45.8072804" lon="11.7533049"><ele>430.0</ele><time>2026-04-26T13:22:40.021Z</time></trkpt><trkpt lat="45.8074251" lon="11.7532504"><ele>430.0</ele><time>2026-04-26T13:22:41.02Z</time></trkpt><trkpt lat="45.8075751" lon="11.7531965"><ele>430.0</ele><time>2026-04-26T13:22:42.012Z</time></trkpt><trkpt lat="45.8077431" lon="11.7531736"><ele>427.0</ele><time>2026-04-26T13:22:43.012Z</time></trkpt><trkpt lat="45.8079084" lon="11.7531455"><ele>424.0</ele><time>2026-04-26T13:22:44.007Z</time></trkpt><trkpt lat="45.8080742" lon="11.7530955"><ele>421.0</ele><time>2026-04-26T13:22:45.014Z</time></trkpt><trkpt lat="45.8082461" lon="11.7530567"><ele>421.0</ele><time>2026-04-26T13:22:46.023Z</time></trkpt><trkpt lat="45.8084035" lon="11.7530005"><ele>421.0</ele><time>2026-04-26T13:22:47.016Z</time></trkpt><trkpt lat="45.8085664" lon="11.752947"><ele>421.0</ele><time>2026-04-26T13:22:48.006Z</time></trkpt><trkpt lat="45.8087182" lon="11.7528688"><ele>419.0</ele><time>2026-04-26T13:22:49.014Z</time></trkpt><trkpt lat="45.8088674" lon="11.7527971"><ele>417.0</ele><time>2026-04-26T13:22:50.008Z</time></trkpt><trkpt lat="45.8090146" lon="11.7527338"><ele>415.0</ele><time>2026-04-26T13:22:51.003Z</time></trkpt><trkpt lat="45.809161" lon="11.7526745"><ele>420.75</ele><time>2026-04-26T13:22:52.009Z</time></trkpt><trkpt lat="45.8092984" lon="11.7526309"><ele>426.5</ele><time>2026-04-26T13:22:53.076Z</time></trkpt><trkpt lat="45.80942" lon="11.752593"><ele>432.25</ele><time>2026-04-26T13:22:54.015Z</time></trkpt><trkpt lat="45.8095314" lon="11.7525349"><ele>438.0</ele><time>2026-04-26T13:22:55.043Z</time></trkpt><trkpt lat="45.8096372" lon="11.7524436"><ele>438.0</ele><time>2026-04-26T13:22:56.015Z</time></trkpt><trkpt lat="45.8097316" lon="11.7523518"><ele>437.99999999999994</ele><time>2026-04-26T13:22:57.014Z</time></trkpt><trkpt lat="45.809806" lon="11.7522574"><ele>437.99999999999994</ele><time>2026-04-26T13:22:58.018Z</time></trkpt><trkpt lat="45.809879" lon="11.7521625"><ele>438.0</ele><time>2026-04-26T13:22:59.016Z</time></trkpt><trkpt lat="45.8099466" lon="11.7520579"><ele>438.0</ele><time>2026-04-26T13:23:00.018Z</time></trkpt><trkpt lat="45.8100215" lon="11.7519809"><ele>438.0</ele><time>2026-04-26T13:23:01.018Z</time></trkpt><trkpt lat="45.8101216" lon="11.7519474"><ele>437.99999999999994</ele><time>2026-04-26T13:23:02.014Z</time></trkpt><trkpt lat="45.8102113" lon="11.7519325"><ele>437.99999999999994</ele><time>2026-04-26T13:23:03.011Z</time></trkpt><trkpt lat="45.810321" lon="11.7519295"><ele>438.0</ele><time>2026-04-26T13:23:04.02Z</time></trkpt><trkpt lat="45.8104168" lon="11.7519222"><ele>438.0</ele><time>2026-04-26T13:23:05.009Z</time></trkpt><trkpt lat="45.8105116" lon="11.7518981"><ele>440.8333333333333</ele><time>2026-04-26T13:23:06.013Z</time></trkpt><trkpt lat="45.8105945" lon="11.7518825"><ele>443.66666666666663</ele><time>2026-04-26T13:23:07.015Z</time></trkpt><trkpt lat="45.810657" lon="11.7518481"><ele>446.5</ele><time>2026-04-26T13:23:08.014Z</time></trkpt><trkpt lat="45.8107016" lon="11.7517162"><ele>449.3333333333333</ele><time>2026-04-26T13:23:10.017Z</time></trkpt><trkpt lat="45.8105968" lon="11.7516427"><ele>452.16666666666663</ele><time>2026-04-26T13:23:12.021Z</time></trkpt><trkpt lat="45.8105266" lon="11.7516425"><ele>455.0</ele><time>2026-04-26T13:23:13.011Z</time></trkpt><trkpt lat="45.8104362" lon="11.7516984"><ele>455.0</ele><time>2026-04-26T13:23:14.01Z</time></trkpt><trkpt lat="45.8103202" lon="11.751744"><ele>455.0</ele><time>2026-04-26T13:23:15.01Z</time></trkpt><trkpt lat="45.8101983" lon="11.7517732"><ele>455.0</ele><time>2026-04-26T13:23:16.011Z</time></trkpt><trkpt lat="45.8100754" lon="11.751795"><ele>455.0</ele><time>2026-04-26T13:23:17.009Z</time></trkpt><trkpt lat="45.809939" lon="11.7518277"><ele>450.75</ele><time>2026-04-26T13:23:18.014Z</time></trkpt><trkpt lat="45.8097875" lon="11.7518694"><ele>446.5</ele><time>2026-04-26T13:23:19.013Z</time></trkpt><trkpt lat="45.8096627" lon="11.7519819"><ele>442.25</ele><time>2026-04-26T13:23:20.002Z</time></trkpt><trkpt lat="45.8095341" lon="11.7520757"><ele>438.0</ele><time>2026-04-26T13:23:21.017Z</time></trkpt><trkpt lat="45.8093939" lon="11.7521677"><ele>444.33333333333337</ele><time>2026-04-26T13:23:22.013Z</time></trkpt><trkpt lat="45.8092351" lon="11.7522215"><ele>450.6666666666667</ele><time>2026-04-26T13:23:23.013Z</time></trkpt><trkpt lat="45.8090673" lon="11.7522365"><ele>457.0</ele><time>2026-04-26T13:23:24.01Z</time></trkpt><trkpt lat="45.8088976" lon="11.752255"><ele>457.0</ele><time>2026-04-26T13:23:25.021Z</time></trkpt><trkpt lat="45.8087317" lon="11.7522812"><ele>457.0</ele><time>2026-04-26T13:23:26.014Z</time></trkpt><trkpt lat="45.8085672" lon="11.7522976"><ele>457.0</ele><time>2026-04-26T13:23:27.007Z</time></trkpt><trkpt lat="45.8084043" lon="11.7523407"><ele>460.6666666666667</ele><time>2026-04-26T13:23:28.012Z</time></trkpt><trkpt lat="45.808243" lon="11.7523369"><ele>464.33333333333337</ele><time>2026-04-26T13:23:29.007Z</time></trkpt><trkpt lat="45.8080596" lon="11.7523148"><ele>468.0</ele><time>2026-04-26T13:23:30.01Z</time></trkpt><trkpt lat="45.8078706" lon="11.7523006"><ele>468.0</ele><time>2026-04-26T13:23:31.005Z</time></trkpt><trkpt lat="45.8076963" lon="11.7522826"><ele>468.0</ele><time>2026-04-26T13:23:32.014Z</time></trkpt><trkpt lat="45.8075417" lon="11.752255"><ele>468.0</ele><time>2026-04-26T13:23:33.015Z</time></trkpt><trkpt lat="45.8074002" lon="11.7522294"><ele>467.75</ele><time>2026-04-26T13:23:34.011Z</time></trkpt><trkpt lat="45.8072742" lon="11.7522064"><ele>467.5</ele><time>2026-04-26T13:23:35.011Z</time></trkpt><trkpt lat="45.8071564" lon="11.7521631"><ele>467.25</ele><time>2026-04-26T13:23:36.031Z</time></trkpt><trkpt lat="45.8070357" lon="11.7520957"><ele>467.0</ele><time>2026-04-26T13:23:37.012Z</time></trkpt><trkpt lat="45.8069115" lon="11.7519903"><ele>463.75</ele><time>2026-04-26T13:23:38.009Z</time></trkpt><trkpt lat="45.8067873" lon="11.7518755"><ele>460.5</ele><time>2026-04-26T13:23:39.01Z</time></trkpt><trkpt lat="45.8066775" lon="11.751753"><ele>457.25</ele><time>2026-04-26T13:23:40.013Z</time></trkpt><trkpt lat="45.8065736" lon="11.7516224"><ele>454.0</ele><time>2026-04-26T13:23:41.01Z</time></trkpt><trkpt lat="45.806482" lon="11.7514521"><ele>467.33333333333337</ele><time>2026-04-26T13:23:42.02Z</time></trkpt><trkpt lat="45.8063868" lon="11.7512427"><ele>480.66666666666663</ele><time>2026-04-26T13:23:43.015Z</time></trkpt><trkpt lat="45.8062765" lon="11.7510142"><ele>494.0</ele><time>2026-04-26T13:23:44.012Z</time></trkpt><trkpt lat="45.8061546" lon="11.7507948"><ele>492.3333333333333</ele><time>2026-04-26T13:23:45.01Z</time></trkpt><trkpt lat="45.8060323" lon="11.7505923"><ele>490.66666666666663</ele><time>2026-04-26T13:23:46.013Z</time></trkpt><trkpt lat="45.8059026" lon="11.7504448"><ele>489.0</ele><time>2026-04-26T13:23:47.014Z</time></trkpt><trkpt lat="45.8057688" lon="11.7503266"><ele>489.0</ele><time>2026-04-26T13:23:48.016Z</time></trkpt><trkpt lat="45.8056535" lon="11.7502361"><ele>489.0</ele><time>2026-04-26T13:23:49.018Z</time></trkpt><trkpt lat="45.8055586" lon="11.7501503"><ele>489.0</ele><time>2026-04-26T13:23:50.021Z</time></trkpt><trkpt lat="45.8054762" lon="11.7500598"><ele>489.0</ele><time>2026-04-26T13:23:51.013Z</time></trkpt><trkpt lat="45.8054125" lon="11.7499416"><ele>497.25</ele><time>2026-04-26T13:23:52.016Z</time></trkpt><trkpt lat="45.8053815" lon="11.7497774"><ele>505.5</ele><time>2026-04-26T13:23:53.016Z</time></trkpt><trkpt lat="45.8053542" lon="11.7495873"><ele>513.75</ele><time>2026-04-26T13:23:54.02Z</time></trkpt><trkpt lat="45.8053078" lon="11.7493927"><ele>522.0</ele><time>2026-04-26T13:23:55.014Z</time></trkpt><trkpt lat="45.805249" lon="11.7491867"><ele>522.0</ele><time>2026-04-26T13:23:56.009Z</time></trkpt><trkpt lat="45.8051812" lon="11.7489576"><ele>522.0</ele><time>2026-04-26T13:23:57.018Z</time></trkpt><trkpt lat="45.8051127" lon="11.7487232"><ele>522.0</ele><time>2026-04-26T13:23:58.01Z</time></trkpt><trkpt lat="45.8050438" lon="11.7484826"><ele>522.0</ele><time>2026-04-26T13:23:59.02Z</time></trkpt><trkpt lat="45.8049729" lon="11.7482418"><ele>522.0</ele><time>2026-04-26T13:24:00.017Z</time></trkpt><trkpt lat="45.8048999" lon="11.7479953"><ele>522.0</ele><time>2026-04-26T13:24:01.009Z</time></trkpt><trkpt lat="45.8048189" lon="11.7477471"><ele>530.3333333333334</ele><time>2026-04-26T13:24:02.031Z</time></trkpt><trkpt lat="45.8047304" lon="11.7475079"><ele>538.6666666666667</ele><time>2026-04-26T13:24:03.012Z</time></trkpt><trkpt lat="45.8046392" lon="11.7472739"><ele>547.0</ele><time>2026-04-26T13:24:04.015Z</time></trkpt><trkpt lat="45.8045219" lon="11.747058"><ele>540.0</ele><time>2026-04-26T13:24:05.01Z</time></trkpt><trkpt lat="45.8043892" lon="11.7468544"><ele>533.0</ele><time>2026-04-26T13:24:06.015Z</time></trkpt><trkpt lat="45.8042584" lon="11.7466617"><ele>526.0</ele><time>2026-04-26T13:24:07.012Z</time></trkpt><trkpt lat="45.8041282" lon="11.7464737"><ele>526.0</ele><time>2026-04-26T13:24:08.013Z</time></trkpt><trkpt lat="45.804" lon="11.746282"><ele>526.0</ele><time>2026-04-26T13:24:09.008Z</time></trkpt><trkpt lat="45.8038826" lon="11.7460887"><ele>526.0</ele><time>2026-04-26T13:24:10.017Z</time></trkpt><trkpt lat="45.803798" lon="11.7458967"><ele>533.3333333333334</ele><time>2026-04-26T13:24:11.017Z</time></trkpt><trkpt lat="45.8037454" lon="11.7456919"><ele>540.6666666666666</ele><time>2026-04-26T13:24:12.013Z</time></trkpt><trkpt lat="45.8037499" lon="11.745476"><ele>548.0</ele><time>2026-04-26T13:24:13.009Z</time></trkpt><trkpt lat="45.8038011" lon="11.7452716"><ele>550.5</ele><time>2026-04-26T13:24:14.01Z</time></trkpt><trkpt lat="45.8038598" lon="11.7450865"><ele>553.0</ele><time>2026-04-26T13:24:15.014Z</time></trkpt><trkpt lat="45.8039151" lon="11.7449179"><ele>555.5</ele><time>2026-04-26T13:24:16.01Z</time></trkpt><trkpt lat="45.8039376" lon="11.7447615"><ele>558.0</ele><time>2026-04-26T13:24:17.003Z</time></trkpt><trkpt lat="45.8039409" lon="11.7446266"><ele>558.0</ele><time>2026-04-26T13:24:18.008Z</time></trkpt><trkpt lat="45.8039345" lon="11.7445094"><ele>558.0</ele><time>2026-04-26T13:24:19.007Z</time></trkpt><trkpt lat="45.8038896" lon="11.7444266"><ele>558.0</ele><time>2026-04-26T13:24:20.011Z</time></trkpt><trkpt lat="45.8038079" lon="11.7443839"><ele>558.0</ele><time>2026-04-26T13:24:21.009Z</time></trkpt><trkpt lat="45.8037112" lon="11.7444004"><ele>558.0</ele><time>2026-04-26T13:24:22.011Z</time></trkpt><trkpt lat="45.8036105" lon="11.7444745"><ele>558.0</ele><time>2026-04-26T13:24:23.013Z</time></trkpt><trkpt lat="45.8035062" lon="11.7445334"><ele>558.0</ele><time>2026-04-26T13:24:24.014Z</time></trkpt><trkpt lat="45.8033973" lon="11.7445302"><ele>558.0</ele><time>2026-04-26T13:24:25.015Z</time></trkpt><trkpt lat="45.8032835" lon="11.744477"><ele>558.0</ele><time>2026-04-26T13:24:26.016Z</time></trkpt><trkpt lat="45.8031679" lon="11.7443974"><ele>557.0</ele><time>2026-04-26T13:24:27.012Z</time></trkpt><trkpt lat="45.8030584" lon="11.7442447"><ele>556.0</ele><time>2026-04-26T13:24:28.015Z</time></trkpt><trkpt lat="45.802953" lon="11.7441313"><ele>555.0</ele><time>2026-04-26T13:24:29.01Z</time></trkpt><trkpt lat="45.8028611" lon="11.7440629"><ele>554.0</ele><time>2026-04-26T13:24:30.006Z</time></trkpt><trkpt lat="45.802784" lon="11.7440196"><ele>554.0</ele><time>2026-04-26T13:24:31.01Z</time></trkpt><trkpt lat="45.8027109" lon="11.7438958"><ele>554.0</ele><time>2026-04-26T13:24:33.015Z</time></trkpt><trkpt lat="45.8027846" lon="11.7437484"><ele>554.0</ele><time>2026-04-26T13:24:35.011Z</time></trkpt><trkpt lat="45.8028694" lon="11.7437358"><ele>554.0</ele><time>2026-04-26T13:24:36.014Z</time></trkpt><trkpt lat="45.802982" lon="11.7437875"><ele>554.0</ele><time>2026-04-26T13:24:37.01Z</time></trkpt><trkpt lat="45.8031083" lon="11.7438687"><ele>554.0</ele><time>2026-04-26T13:24:38.011Z</time></trkpt><trkpt lat="45.8032484" lon="11.7439582"><ele>554.0</ele><time>2026-04-26T13:24:39.018Z</time></trkpt><trkpt lat="45.8033953" lon="11.7440021"><ele>554.0</ele><time>2026-04-26T13:24:40.014Z</time></trkpt><trkpt lat="45.8035528" lon="11.7439968"><ele>557.3333333333333</ele><time>2026-04-26T13:24:41.009Z</time></trkpt><trkpt lat="45.8037168" lon="11.7439281"><ele>560.6666666666666</ele><time>2026-04-26T13:24:42.016Z</time></trkpt><trkpt lat="45.8038801" lon="11.7438411"><ele>564.0</ele><time>2026-04-26T13:24:43.012Z</time></trkpt><trkpt lat="45.8040278" lon="11.7437523"><ele>564.0</ele><time>2026-04-26T13:24:44.016Z</time></trkpt><trkpt lat="45.8041483" lon="11.7436778"><ele>564.0</ele><time>2026-04-26T13:24:45.007Z</time></trkpt><trkpt lat="45.8042511" lon="11.7436186"><ele>564.0</ele><time>2026-04-26T13:24:46.014Z</time></trkpt><trkpt lat="45.8043247" lon="11.7436258"><ele>564.0</ele><time>2026-04-26T13:24:47.012Z</time></trkpt><trkpt lat="45.8044087" lon="11.7437179"><ele>564.0</ele><time>2026-04-26T13:24:48.014Z</time></trkpt><trkpt lat="45.8044403" lon="11.7438871"><ele>571.25</ele><time>2026-04-26T13:24:49.011Z</time></trkpt><trkpt lat="45.804435" lon="11.7440803"><ele>578.5</ele><time>2026-04-26T13:24:50.012Z</time></trkpt><trkpt lat="45.8044449" lon="11.7442701"><ele>585.75</ele><time>2026-04-26T13:24:51.008Z</time></trkpt><trkpt lat="45.8044741" lon="11.7444502"><ele>593.0</ele><time>2026-04-26T13:24:52.012Z</time></trkpt><trkpt lat="45.8045173" lon="11.7446423"><ele>593.0</ele><time>2026-04-26T13:24:53.013Z</time></trkpt><trkpt lat="45.8045825" lon="11.7448366"><ele>593.0</ele><time>2026-04-26T13:24:54.009Z</time></trkpt><trkpt lat="45.8046688" lon="11.7450251"><ele>593.0</ele><time>2026-04-26T13:24:55.022Z</time></trkpt><trkpt lat="45.8047697" lon="11.7452221"><ele>590.6666666666666</ele><time>2026-04-26T13:24:56.012Z</time></trkpt><trkpt lat="45.8048603" lon="11.7454362"><ele>588.3333333333334</ele><time>2026-04-26T13:24:57.019Z</time></trkpt><trkpt lat="45.8049298" lon="11.7456675"><ele>586.0</ele><time>2026-04-26T13:24:58.013Z</time></trkpt><trkpt lat="45.8049857" lon="11.7459138"><ele>581.3333333333334</ele><time>2026-04-26T13:24:59.016Z</time></trkpt><trkpt lat="45.8050414" lon="11.7461553"><ele>576.6666666666666</ele><time>2026-04-26T13:25:00.017Z</time></trkpt><trkpt lat="45.8051093" lon="11.7463921"><ele>572.0</ele><time>2026-04-26T13:25:01.019Z</time></trkpt><trkpt lat="45.805195" lon="11.7466096"><ele>580.0</ele><time>2026-04-26T13:25:02.01Z</time></trkpt><trkpt lat="45.8052965" lon="11.7468155"><ele>588.0</ele><time>2026-04-26T13:25:03.021Z</time></trkpt><trkpt lat="45.8053932" lon="11.7470274"><ele>596.0</ele><time>2026-04-26T13:25:04.017Z</time></trkpt><trkpt lat="45.8054747" lon="11.7472467"><ele>596.0</ele><time>2026-04-26T13:25:05.012Z</time></trkpt><trkpt lat="45.805556" lon="11.7474645"><ele>596.0</ele><time>2026-04-26T13:25:06.013Z</time></trkpt><trkpt lat="45.8056367" lon="11.7476634"><ele>596.0</ele><time>2026-04-26T13:25:07.012Z</time></trkpt><trkpt lat="45.8057434" lon="11.7478434"><ele>596.75</ele><time>2026-04-26T13:25:08.016Z</time></trkpt><trkpt lat="45.8058668" lon="11.7479864"><ele>597.5</ele><time>2026-04-26T13:25:09.017Z</time></trkpt><trkpt lat="45.8059806" lon="11.748112"><ele>598.25</ele><time>2026-04-26T13:25:10.016Z</time></trkpt><trkpt lat="45.8060869" lon="11.7482287"><ele>599.0</ele><time>2026-04-26T13:25:11.01Z</time></trkpt><trkpt lat="45.8061815" lon="11.7483267"><ele>599.0</ele><time>2026-04-26T13:25:12.025Z</time></trkpt><trkpt lat="45.8062635" lon="11.7483928"><ele>599.0</ele><time>2026-04-26T13:25:13.008Z</time></trkpt><trkpt lat="45.8063416" lon="11.7484099"><ele>599.0</ele><time>2026-04-26T13:25:14.013Z</time></trkpt><trkpt lat="45.806409" lon="11.7484126"><ele>599.0</ele><time>2026-04-26T13:25:15.017Z</time></trkpt><trkpt lat="45.8064572" lon="11.748321"><ele>599.0</ele><time>2026-04-26T13:25:16.018Z</time></trkpt><trkpt lat="45.8064573" lon="11.7482056"><ele>599.0</ele><time>2026-04-26T13:25:17.018Z</time></trkpt><trkpt lat="45.8064056" lon="11.7480977"><ele>599.0</ele><time>2026-04-26T13:25:18.01Z</time></trkpt><trkpt lat="45.8063189" lon="11.7480072"><ele>599.0</ele><time>2026-04-26T13:25:19.015Z</time></trkpt><trkpt lat="45.8062069" lon="11.7479056"><ele>599.0</ele><time>2026-04-26T13:25:20.012Z</time></trkpt><trkpt lat="45.8061002" lon="11.7477692"><ele>599.0</ele><time>2026-04-26T13:25:21.007Z</time></trkpt><trkpt lat="45.8059912" lon="11.7476142"><ele>598.0</ele><time>2026-04-26T13:25:22.018Z</time></trkpt><trkpt lat="45.8059105" lon="11.747412"><ele>597.0</ele><time>2026-04-26T13:25:23.017Z</time></trkpt><trkpt lat="45.805844" lon="11.7471952"><ele>596.0</ele><time>2026-04-26T13:25:24.015Z</time></trkpt><trkpt lat="45.8057937" lon="11.7469703"><ele>602.0</ele><time>2026-04-26T13:25:25.01Z</time></trkpt><trkpt lat="45.8057599" lon="11.7467461"><ele>608.0</ele><time>2026-04-26T13:25:26.014Z</time></trkpt><trkpt lat="45.8057354" lon="11.7465184"><ele>614.0</ele><time>2026-04-26T13:25:27.013Z</time></trkpt><trkpt lat="45.8057294" lon="11.7462853"><ele>614.0</ele><time>2026-04-26T13:25:28.019Z</time></trkpt><trkpt lat="45.8057334" lon="11.7460555"><ele>614.0</ele><time>2026-04-26T13:25:29.02Z</time></trkpt><trkpt lat="45.8057542" lon="11.7458314"><ele>614.0</ele><time>2026-04-26T13:25:30.018Z</time></trkpt><trkpt lat="45.80579" lon="11.7456169"><ele>615.25</ele><time>2026-04-26T13:25:31.017Z</time></trkpt><trkpt lat="45.8058279" lon="11.7454105"><ele>616.5</ele><time>2026-04-26T13:25:32.02Z</time></trkpt><trkpt lat="45.805821" lon="11.7452004"><ele>617.75</ele><time>2026-04-26T13:25:33.013Z</time></trkpt><trkpt lat="45.8057833" lon="11.7450031"><ele>619.0</ele><time>2026-04-26T13:25:34.013Z</time></trkpt><trkpt lat="45.8057378" lon="11.7447988"><ele>620.5</ele><time>2026-04-26T13:25:35.015Z</time></trkpt><trkpt lat="45.8057054" lon="11.7445943"><ele>622.0</ele><time>2026-04-26T13:25:36.018Z</time></trkpt><trkpt lat="45.8056926" lon="11.7443821"><ele>623.5</ele><time>2026-04-26T13:25:37.017Z</time></trkpt><trkpt lat="45.8056964" lon="11.7441627"><ele>625.0</ele><time>2026-04-26T13:25:38.02Z</time></trkpt><trkpt lat="45.8057191" lon="11.743942"><ele>627.3333333333334</ele><time>2026-04-26T13:25:39.006Z</time></trkpt><trkpt lat="45.8057436" lon="11.7437205"><ele>629.6666666666666</ele><time>2026-04-26T13:25:40.021Z</time></trkpt><trkpt lat="45.8057977" lon="11.7435028"><ele>632.0</ele><time>2026-04-26T13:25:41.013Z</time></trkpt><trkpt lat="45.8058625" lon="11.7432965"><ele>632.0</ele><time>2026-04-26T13:25:42.011Z</time></trkpt><trkpt lat="45.8059266" lon="11.7430982"><ele>632.0</ele><time>2026-04-26T13:25:43.015Z</time></trkpt><trkpt lat="45.8059817" lon="11.7429174"><ele>632.0</ele><time>2026-04-26T13:25:44.016Z</time></trkpt><trkpt lat="45.8060237" lon="11.7427529"><ele>632.0</ele><time>2026-04-26T13:25:45.014Z</time></trkpt><trkpt lat="45.8060533" lon="11.7426125"><ele>637.3333333333333</ele><time>2026-04-26T13:25:46.03Z</time></trkpt><trkpt lat="45.8060761" lon="11.7424982"><ele>642.6666666666666</ele><time>2026-04-26T13:25:47.024Z</time></trkpt><trkpt lat="45.8061048" lon="11.7424165"><ele>648.0</ele><time>2026-04-26T13:25:48.019Z</time></trkpt><trkpt lat="45.8061802" lon="11.742379"><ele>653.3333333333334</ele><time>2026-04-26T13:25:50.016Z</time></trkpt><trkpt lat="45.8062386" lon="11.7424658"><ele>658.6666666666667</ele><time>2026-04-26T13:25:51.014Z</time></trkpt><trkpt lat="45.806236" lon="11.7426155"><ele>664.0</ele><time>2026-04-26T13:25:52.019Z</time></trkpt><trkpt lat="45.8061906" lon="11.7427552"><ele>664.0</ele><time>2026-04-26T13:25:53.037Z</time></trkpt><trkpt lat="45.8061497" lon="11.7429106"><ele>664.0</ele><time>2026-04-26T13:25:54.017Z</time></trkpt><trkpt lat="45.8061159" lon="11.7430848"><ele>664.0</ele><time>2026-04-26T13:25:55.008Z</time></trkpt><trkpt lat="45.8061039" lon="11.7432743"><ele>664.0</ele><time>2026-04-26T13:25:56.018Z</time></trkpt><trkpt lat="45.8061186" lon="11.7434732"><ele>662.0</ele><time>2026-04-26T13:25:57.019Z</time></trkpt><trkpt lat="45.8061676" lon="11.7436738"><ele>660.0</ele><time>2026-04-26T13:25:58.02Z</time></trkpt><trkpt lat="45.8062386" lon="11.7438726"><ele>658.0</ele><time>2026-04-26T13:25:59.007Z</time></trkpt><trkpt lat="45.8063209" lon="11.7440697"><ele>658.0</ele><time>2026-04-26T13:26:00.02Z</time></trkpt><trkpt lat="45.8064188" lon="11.7442543"><ele>658.0</ele><time>2026-04-26T13:26:01.024Z</time></trkpt><trkpt lat="45.8065262" lon="11.7444214"><ele>658.0</ele><time>2026-04-26T13:26:02.019Z</time></trkpt><trkpt lat="45.8066429" lon="11.7445649"><ele>658.75</ele><time>2026-04-26T13:26:03.014Z</time></trkpt><trkpt lat="45.8067705" lon="11.7446771"><ele>659.5</ele><time>2026-04-26T13:26:04.017Z</time></trkpt><trkpt lat="45.8069069" lon="11.7447544"><ele>660.25</ele><time>2026-04-26T13:26:05.017Z</time></trkpt><trkpt lat="45.8070463" lon="11.7447952"><ele>661.0</ele><time>2026-04-26T13:26:06.01Z</time></trkpt><trkpt lat="45.8071868" lon="11.7447972"><ele>661.0</ele><time>2026-04-26T13:26:07.009Z</time></trkpt><trkpt lat="45.8073266" lon="11.744762"><ele>661.0</ele><time>2026-04-26T13:26:08.01Z</time></trkpt><trkpt lat="45.8074582" lon="11.7446895"><ele>661.0</ele><time>2026-04-26T13:26:09.011Z</time></trkpt><trkpt lat="45.8075824" lon="11.7445871"><ele>661.0</ele><time>2026-04-26T13:26:10.014Z</time></trkpt><trkpt lat="45.8077012" lon="11.7444674"><ele>663.0</ele><time>2026-04-26T13:26:11.009Z</time></trkpt><trkpt lat="45.8078172" lon="11.7443398"><ele>665.0</ele><time>2026-04-26T13:26:12.016Z</time></trkpt><trkpt lat="45.8079314" lon="11.7442107"><ele>667.0</ele><time>2026-04-26T13:26:13.011Z</time></trkpt><trkpt lat="45.8080429" lon="11.7440808"><ele>669.0</ele><time>2026-04-26T13:26:14.016Z</time></trkpt><trkpt lat="45.8081533" lon="11.7439524"><ele>669.0</ele><time>2026-04-26T13:26:15.017Z</time></trkpt><trkpt lat="45.8082602" lon="11.7438249"><ele>669.0</ele><time>2026-04-26T13:26:16.016Z</time></trkpt><trkpt lat="45.8083683" lon="11.7437051"><ele>669.0</ele><time>2026-04-26T13:26:17.008Z</time></trkpt><trkpt lat="45.8084731" lon="11.7435899"><ele>669.0</ele><time>2026-04-26T13:26:18.013Z</time></trkpt><trkpt lat="45.8085866" lon="11.7434935"><ele>674.75</ele><time>2026-04-26T13:26:19.034Z</time></trkpt><trkpt lat="45.8087269" lon="11.7434203"><ele>680.5</ele><time>2026-04-26T13:26:20.01Z</time></trkpt><trkpt lat="45.8088617" lon="11.7433628"><ele>686.25</ele><time>2026-04-26T13:26:21.019Z</time></trkpt><trkpt lat="45.8089983" lon="11.7433079"><ele>692.0</ele><time>2026-04-26T13:26:22.013Z</time></trkpt><trkpt lat="45.8091358" lon="11.7432751"><ele>692.0</ele><time>2026-04-26T13:26:23.012Z</time></trkpt><trkpt lat="45.8092568" lon="11.7432495"><ele>692.0</ele><time>2026-04-26T13:26:24.019Z</time></trkpt><trkpt lat="45.8093681" lon="11.7432325"><ele>692.0</ele><time>2026-04-26T13:26:25.03Z</time></trkpt><trkpt lat="45.809449" lon="11.7432255"><ele>692.0</ele><time>2026-04-26T13:26:26.01Z</time></trkpt><trkpt lat="45.8095214" lon="11.743255"><ele>692.0</ele><time>2026-04-26T13:26:27.006Z</time></trkpt><trkpt lat="45.8095903" lon="11.7433693"><ele>694.0</ele><time>2026-04-26T13:26:28.016Z</time></trkpt><trkpt lat="45.8096065" lon="11.7435131"><ele>696.0</ele><time>2026-04-26T13:26:29.009Z</time></trkpt><trkpt lat="45.8096148" lon="11.7436667"><ele>698.0</ele><time>2026-04-26T13:26:30.006Z</time></trkpt><trkpt lat="45.8096369" lon="11.7438198"><ele>700.0</ele><time>2026-04-26T13:26:31.015Z</time></trkpt><trkpt lat="45.809687" lon="11.7439645"><ele>702.0</ele><time>2026-04-26T13:26:32.011Z</time></trkpt><trkpt lat="45.8097632" lon="11.744114"><ele>702.0</ele><time>2026-04-26T13:26:33.016Z</time></trkpt><trkpt lat="45.8098594" lon="11.7442483"><ele>702.0</ele><time>2026-04-26T13:26:34.012Z</time></trkpt><trkpt lat="45.8099432" lon="11.744368"><ele>702.0</ele><time>2026-04-26T13:26:35.02Z</time></trkpt><trkpt lat="45.8100163" lon="11.7444688"><ele>702.0</ele><time>2026-04-26T13:26:36.018Z</time></trkpt><trkpt lat="45.8100844" lon="11.7445862"><ele>700.75</ele><time>2026-04-26T13:26:37.013Z</time></trkpt><trkpt lat="45.8101202" lon="11.7447507"><ele>699.5</ele><time>2026-04-26T13:26:38.02Z</time></trkpt><trkpt lat="45.8100867" lon="11.7449116"><ele>698.25</ele><time>2026-04-26T13:26:39.018Z</time></trkpt><trkpt lat="45.8100665" lon="11.745084"><ele>697.0</ele><time>2026-04-26T13:26:40.025Z</time></trkpt><trkpt lat="45.8100614" lon="11.745253"><ele>696.75</ele><time>2026-04-26T13:26:41.009Z</time></trkpt><trkpt lat="45.8100832" lon="11.7454207"><ele>696.5</ele><time>2026-04-26T13:26:42.019Z</time></trkpt><trkpt lat="45.8101111" lon="11.7455914"><ele>696.25</ele><time>2026-04-26T13:26:43.019Z</time></trkpt><trkpt lat="45.8101808" lon="11.7457392"><ele>696.0</ele><time>2026-04-26T13:26:44.017Z</time></trkpt><trkpt lat="45.8102701" lon="11.7458546"><ele>699.5</ele><time>2026-04-26T13:26:45.029Z</time></trkpt><trkpt lat="45.810375" lon="11.7459256"><ele>703.0</ele><time>2026-04-26T13:26:46.021Z</time></trkpt><trkpt lat="45.8104924" lon="11.7459603"><ele>706.5</ele><time>2026-04-26T13:26:47.005Z</time></trkpt><trkpt lat="45.8106097" lon="11.7459685"><ele>710.0</ele><time>2026-04-26T13:26:48.024Z</time></trkpt><trkpt lat="45.8107287" lon="11.7459682"><ele>710.0</ele><time>2026-04-26T13:26:49.016Z</time></trkpt><trkpt lat="45.8108559" lon="11.7459591"><ele>710.0</ele><time>2026-04-26T13:26:50.015Z</time></trkpt><trkpt lat="45.8109922" lon="11.7459438"><ele>710.0</ele><time>2026-04-26T13:26:51.015Z</time></trkpt><trkpt lat="45.8111408" lon="11.7459217"><ele>710.0</ele><time>2026-04-26T13:26:52.026Z</time></trkpt><trkpt lat="45.8113018" lon="11.7458982"><ele>712.6666666666666</ele><time>2026-04-26T13:26:53.013Z</time></trkpt><trkpt lat="45.8114707" lon="11.7458804"><ele>715.3333333333334</ele><time>2026-04-26T13:26:54.013Z</time></trkpt><trkpt lat="45.811648" lon="11.7458696"><ele>718.0</ele><time>2026-04-26T13:26:55.025Z</time></trkpt><trkpt lat="45.8118091" lon="11.7458658"><ele>720.25</ele><time>2026-04-26T13:26:56.021Z</time></trkpt><trkpt lat="45.8119592" lon="11.7458683"><ele>722.5</ele><time>2026-04-26T13:26:57.022Z</time></trkpt><trkpt lat="45.8121096" lon="11.7458694"><ele>724.75</ele><time>2026-04-26T13:26:58.012Z</time></trkpt><trkpt lat="45.8122543" lon="11.7458743"><ele>727.0</ele><time>2026-04-26T13:26:59.015Z</time></trkpt><trkpt lat="45.8123946" lon="11.7458854"><ele>727.0</ele><time>2026-04-26T13:27:00.022Z</time></trkpt><trkpt lat="45.8125348" lon="11.7459037"><ele>727.0</ele><time>2026-04-26T13:27:01.013Z</time></trkpt><trkpt lat="45.8126804" lon="11.7459305"><ele>727.0</ele><time>2026-04-26T13:27:02.02Z</time></trkpt><trkpt lat="45.8128318" lon="11.7459521"><ele>727.0</ele><time>2026-04-26T13:27:03.017Z</time></trkpt><trkpt lat="45.8129915" lon="11.7459203"><ele>728.25</ele><time>2026-04-26T13:27:04.011Z</time></trkpt><trkpt lat="45.8131287" lon="11.7458617"><ele>729.5</ele><time>2026-04-26T13:27:05.013Z</time></trkpt><trkpt lat="45.8132489" lon="11.7457967"><ele>730.75</ele><time>2026-04-26T13:27:06.018Z</time></trkpt><trkpt lat="45.813362" lon="11.7457508"><ele>732.0</ele><time>2026-04-26T13:27:07.009Z</time></trkpt><trkpt lat="45.8134735" lon="11.7457229"><ele>730.4000000000001</ele><time>2026-04-26T13:27:08.022Z</time></trkpt><trkpt lat="45.8135908" lon="11.7457522"><ele>728.8000000000001</ele><time>2026-04-26T13:27:09.024Z</time></trkpt><trkpt lat="45.813699" lon="11.7457842"><ele>727.2</ele><time>2026-04-26T13:27:10.011Z</time></trkpt><trkpt lat="45.8138" lon="11.745817"><ele>725.6</ele><time>2026-04-26T13:27:11.015Z</time></trkpt><trkpt lat="45.8138885" lon="11.7458429"><ele>724.0</ele><time>2026-04-26T13:27:12.021Z</time></trkpt><trkpt lat="45.813965" lon="11.7458727"><ele>724.0</ele><time>2026-04-26T13:27:13.017Z</time></trkpt><trkpt lat="45.8140401" lon="11.7459144"><ele>724.0</ele><time>2026-04-26T13:27:14.016Z</time></trkpt><trkpt lat="45.8141083" lon="11.7459569"><ele>724.0</ele><time>2026-04-26T13:27:15.019Z</time></trkpt><trkpt lat="45.8142155" lon="11.7459208"><ele>724.0</ele><time>2026-04-26T13:27:17.019Z</time></trkpt><trkpt lat="45.8141965" lon="11.7457511"><ele>724.0</ele><time>2026-04-26T13:27:19.014Z</time></trkpt><trkpt lat="45.8141235" lon="11.7457064"><ele>724.0</ele><time>2026-04-26T13:27:20.017Z</time></trkpt><trkpt lat="45.8140225" lon="11.7456926"><ele>724.0</ele><time>2026-04-26T13:27:21.011Z</time></trkpt><trkpt lat="45.8139059" lon="11.7456768"><ele>724.0</ele><time>2026-04-26T13:27:22.013Z</time></trkpt><trkpt lat="45.8137833" lon="11.7456414"><ele>724.0</ele><time>2026-04-26T13:27:23.024Z</time></trkpt><trkpt lat="45.8136609" lon="11.7455922"><ele>724.0</ele><time>2026-04-26T13:27:24.013Z</time></trkpt><trkpt lat="45.8135469" lon="11.7455536"><ele>724.0</ele><time>2026-04-26T13:27:25.014Z</time></trkpt><trkpt lat="45.8134288" lon="11.7455267"><ele>724.0</ele><time>2026-04-26T13:27:26.011Z</time></trkpt><trkpt lat="45.8133097" lon="11.745501"><ele>724.0</ele><time>2026-04-26T13:27:27.014Z</time></trkpt><trkpt lat="45.8131868" lon="11.745476"><ele>726.0</ele><time>2026-04-26T13:27:28.016Z</time></trkpt><trkpt lat="45.8130652" lon="11.7454307"><ele>728.0</ele><time>2026-04-26T13:27:29.025Z</time></trkpt><trkpt lat="45.8129379" lon="11.7453656"><ele>730.0</ele><time>2026-04-26T13:27:30.026Z</time></trkpt><trkpt lat="45.812802" lon="11.7452958"><ele>732.0</ele><time>2026-04-26T13:27:31.014Z</time></trkpt><trkpt lat="45.8126707" lon="11.7451997"><ele>737.25</ele><time>2026-04-26T13:27:32.024Z</time></trkpt><trkpt lat="45.8125482" lon="11.7451101"><ele>742.5</ele><time>2026-04-26T13:27:33.024Z</time></trkpt><trkpt lat="45.8124281" lon="11.7450277"><ele>747.75</ele><time>2026-04-26T13:27:34.031Z</time></trkpt><trkpt lat="45.8123066" lon="11.7449461"><ele>753.0</ele><time>2026-04-26T13:27:35.012Z</time></trkpt><trkpt lat="45.8121903" lon="11.7448689"><ele>753.0</ele><time>2026-04-26T13:27:36.012Z</time></trkpt><trkpt lat="45.812077" lon="11.7447853"><ele>753.0</ele><time>2026-04-26T13:27:37.021Z</time></trkpt><trkpt lat="45.8119621" lon="11.7446934"><ele>753.0</ele><time>2026-04-26T13:27:38.017Z</time></trkpt><trkpt lat="45.8118628" lon="11.7445812"><ele>753.0</ele><time>2026-04-26T13:27:39.024Z</time></trkpt><trkpt lat="45.8117819" lon="11.7444513"><ele>753.75</ele><time>2026-04-26T13:27:40.019Z</time></trkpt><trkpt lat="45.8117278" lon="11.744293"><ele>754.5</ele><time>2026-04-26T13:27:41.016Z</time></trkpt><trkpt lat="45.8117046" lon="11.7441219"><ele>755.25</ele><time>2026-04-26T13:27:42.019Z</time></trkpt><trkpt lat="45.8116979" lon="11.743948"><ele>756.0</ele><time>2026-04-26T13:27:43.017Z</time></trkpt><trkpt lat="45.8116939" lon="11.7437903"><ele>756.0</ele><time>2026-04-26T13:27:44.009Z</time></trkpt><trkpt lat="45.8117017" lon="11.7436336"><ele>756.0</ele><time>2026-04-26T13:27:45.012Z</time></trkpt><trkpt lat="45.8117171" lon="11.7434735"><ele>756.0</ele><time>2026-04-26T13:27:46.015Z</time></trkpt><trkpt lat="45.8117584" lon="11.7433262"><ele>756.0</ele><time>2026-04-26T13:27:47.024Z</time></trkpt><trkpt lat="45.8118086" lon="11.7431797"><ele>756.0</ele><time>2026-04-26T13:27:48.015Z</time></trkpt><trkpt lat="45.8118383" lon="11.7430526"><ele>758.25</ele><time>2026-04-26T13:27:49.017Z</time></trkpt><trkpt lat="45.8118452" lon="11.7428974"><ele>760.5</ele><time>2026-04-26T13:27:50.016Z</time></trkpt><trkpt lat="45.8118115" lon="11.7427292"><ele>762.75</ele><time>2026-04-26T13:27:51.023Z</time></trkpt><trkpt lat="45.8117563" lon="11.7425658"><ele>765.0</ele><time>2026-04-26T13:27:52.01Z</time></trkpt><trkpt lat="45.8116902" lon="11.74241"><ele>766.25</ele><time>2026-04-26T13:27:53.02Z</time></trkpt><trkpt lat="45.8116239" lon="11.7422597"><ele>767.5</ele><time>2026-04-26T13:27:54.023Z</time></trkpt><trkpt lat="45.8115489" lon="11.742107"><ele>768.75</ele><time>2026-04-26T13:27:55.015Z</time></trkpt><trkpt lat="45.8114911" lon="11.7419684"><ele>770.0</ele><time>2026-04-26T13:27:56.019Z</time></trkpt><trkpt lat="45.8114569" lon="11.7418126"><ele>771.5</ele><time>2026-04-26T13:27:57.016Z</time></trkpt><trkpt lat="45.8114237" lon="11.741662"><ele>773.0</ele><time>2026-04-26T13:27:58.019Z</time></trkpt><trkpt lat="45.8114456" lon="11.741482"><ele>774.5</ele><time>2026-04-26T13:27:59.019Z</time></trkpt><trkpt lat="45.8114818" lon="11.7413195"><ele>776.0</ele><time>2026-04-26T13:28:00.017Z</time></trkpt><trkpt lat="45.8115365" lon="11.7411563"><ele>777.75</ele><time>2026-04-26T13:28:01.013Z</time></trkpt><trkpt lat="45.8116305" lon="11.7410321"><ele>779.5</ele><time>2026-04-26T13:28:02.016Z</time></trkpt><trkpt lat="45.8117059" lon="11.7409097"><ele>781.25</ele><time>2026-04-26T13:28:03.014Z</time></trkpt><trkpt lat="45.8117754" lon="11.7407925"><ele>783.0</ele><time>2026-04-26T13:28:04.011Z</time></trkpt><trkpt lat="45.8118456" lon="11.740686"><ele>785.5</ele><time>2026-04-26T13:28:05.019Z</time></trkpt><trkpt lat="45.8119264" lon="11.7405976"><ele>788.0</ele><time>2026-04-26T13:28:06.013Z</time></trkpt><trkpt lat="45.8120099" lon="11.7405148"><ele>790.5</ele><time>2026-04-26T13:28:07.013Z</time></trkpt><trkpt lat="45.8121247" lon="11.7404812"><ele>793.0</ele><time>2026-04-26T13:28:08.018Z</time></trkpt><trkpt lat="45.8122597" lon="11.7405054"><ele>793.0</ele><time>2026-04-26T13:28:09.018Z</time></trkpt><trkpt lat="45.8123859" lon="11.7405329"><ele>793.0</ele><time>2026-04-26T13:28:10.012Z</time></trkpt><trkpt lat="45.8125274" lon="11.7405987"><ele>793.0</ele><time>2026-04-26T13:28:11.015Z</time></trkpt><trkpt lat="45.8126865" lon="11.7406872"><ele>793.0</ele><time>2026-04-26T13:28:12.026Z</time></trkpt><trkpt lat="45.812846" lon="11.7407781"><ele>792.6666666666666</ele><time>2026-04-26T13:28:13.019Z</time></trkpt><trkpt lat="45.8130063" lon="11.7409131"><ele>792.3333333333333</ele><time>2026-04-26T13:28:14.014Z</time></trkpt><trkpt lat="45.8131585" lon="11.7410407"><ele>792.0</ele><time>2026-04-26T13:28:15.012Z</time></trkpt><trkpt lat="45.8133037" lon="11.7411476"><ele>786.0</ele><time>2026-04-26T13:28:16.029Z</time></trkpt><trkpt lat="45.8134525" lon="11.7412442"><ele>780.0</ele><time>2026-04-26T13:28:17.014Z</time></trkpt><trkpt lat="45.8136116" lon="11.7412727"><ele>774.0</ele><time>2026-04-26T13:28:18.031Z</time></trkpt><trkpt lat="45.8137715" lon="11.7412722"><ele>773.0</ele><time>2026-04-26T13:28:19.012Z</time></trkpt><trkpt lat="45.813931" lon="11.7412403"><ele>772.0</ele><time>2026-04-26T13:28:20.019Z</time></trkpt><trkpt lat="45.8140821" lon="11.7412002"><ele>771.0</ele><time>2026-04-26T13:28:21.076Z</time></trkpt><trkpt lat="45.8142115" lon="11.741138"><ele>771.0</ele><time>2026-04-26T13:28:22.02Z</time></trkpt><trkpt lat="45.8143352" lon="11.7410571"><ele>771.0</ele><time>2026-04-26T13:28:23.019Z</time></trkpt><trkpt lat="45.8144507" lon="11.7409442"><ele>771.0</ele><time>2026-04-26T13:28:24.013Z</time></trkpt><trkpt lat="45.8145647" lon="11.7408169"><ele>771.0</ele><time>2026-04-26T13:28:25.07Z</time></trkpt><trkpt lat="45.814651" lon="11.7406339"><ele>773.0</ele><time>2026-04-26T13:28:26.013Z</time></trkpt><trkpt lat="45.814742" lon="11.7404539"><ele>775.0</ele><time>2026-04-26T13:28:27.011Z</time></trkpt><trkpt lat="45.8148281" lon="11.7402934"><ele>777.0</ele><time>2026-04-26T13:28:28.013Z</time></trkpt><trkpt lat="45.814904" lon="11.7401434"><ele>779.0</ele><time>2026-04-26T13:28:29.013Z</time></trkpt><trkpt lat="45.8149885" lon="11.7400144"><ele>781.0</ele><time>2026-04-26T13:28:30.008Z</time></trkpt><trkpt lat="45.8150815" lon="11.7399197"><ele>783.0</ele><time>2026-04-26T13:28:31.009Z</time></trkpt><trkpt lat="45.8151716" lon="11.739839"><ele>785.0</ele><time>2026-04-26T13:28:32.007Z</time></trkpt><trkpt lat="45.8152713" lon="11.7398096"><ele>787.0</ele><time>2026-04-26T13:28:33.024Z</time></trkpt><trkpt lat="45.8153731" lon="11.7398107"><ele>789.0</ele><time>2026-04-26T13:28:34.021Z</time></trkpt><trkpt lat="45.8154744" lon="11.7398376"><ele>791.75</ele><time>2026-04-26T13:28:35.012Z</time></trkpt><trkpt lat="45.8155645" lon="11.7398818"><ele>794.5</ele><time>2026-04-26T13:28:36.017Z</time></trkpt><trkpt lat="45.8156384" lon="11.7399876"><ele>797.25</ele><time>2026-04-26T13:28:37.014Z</time></trkpt><trkpt lat="45.8156772" lon="11.7401518"><ele>800.0</ele><time>2026-04-26T13:28:38.013Z</time></trkpt><trkpt lat="45.8157133" lon="11.7403352"><ele>801.3333333333334</ele><time>2026-04-26T13:28:39.008Z</time></trkpt><trkpt lat="45.815737" lon="11.7405664"><ele>802.6666666666667</ele><time>2026-04-26T13:28:40.021Z</time></trkpt><trkpt lat="45.8157621" lon="11.7407989"><ele>804.0</ele><time>2026-04-26T13:28:41.015Z</time></trkpt><trkpt lat="45.8157713" lon="11.7410173"><ele>803.0</ele><time>2026-04-26T13:28:42.011Z</time></trkpt><trkpt lat="45.8157454" lon="11.7412044"><ele>802.0</ele><time>2026-04-26T13:28:43.014Z</time></trkpt><trkpt lat="45.8157474" lon="11.7413641"><ele>801.0</ele><time>2026-04-26T13:28:44.007Z</time></trkpt><trkpt lat="45.8157676" lon="11.741509"><ele>800.0</ele><time>2026-04-26T13:28:45.02Z</time></trkpt><trkpt lat="45.8158067" lon="11.741655"><ele>800.0</ele><time>2026-04-26T13:28:46.017Z</time></trkpt><trkpt lat="45.8158585" lon="11.7417975"><ele>800.0</ele><time>2026-04-26T13:28:47.009Z</time></trkpt><trkpt lat="45.815917" lon="11.7419245"><ele>800.0</ele><time>2026-04-26T13:28:48.019Z</time></trkpt><trkpt lat="45.8159965" lon="11.7420161"><ele>800.0</ele><time>2026-04-26T13:28:49.015Z</time></trkpt><trkpt lat="45.8161063" lon="11.7420655"><ele>800.0</ele><time>2026-04-26T13:28:50.02Z</time></trkpt><trkpt lat="45.8162488" lon="11.7420831"><ele>796.3333333333334</ele><time>2026-04-26T13:28:51.019Z</time></trkpt><trkpt lat="45.8164031" lon="11.7420961"><ele>792.6666666666667</ele><time>2026-04-26T13:28:52.019Z</time></trkpt><trkpt lat="45.8165607" lon="11.7421167"><ele>789.0</ele><time>2026-04-26T13:28:53.015Z</time></trkpt><trkpt lat="45.8167001" lon="11.7421345"><ele>785.75</ele><time>2026-04-26T13:28:54.014Z</time></trkpt><trkpt lat="45.8168252" lon="11.7421432"><ele>782.5</ele><time>2026-04-26T13:28:55.006Z</time></trkpt><trkpt lat="45.816931" lon="11.7420696"><ele>779.25</ele><time>2026-04-26T13:28:56.014Z</time></trkpt><trkpt lat="45.8170167" lon="11.7419408"><ele>776.0</ele><time>2026-04-26T13:28:57.028Z</time></trkpt><trkpt lat="45.8170901" lon="11.7417743"><ele>785.75</ele><time>2026-04-26T13:28:58.014Z</time></trkpt><trkpt lat="45.8171597" lon="11.7415889"><ele>795.5</ele><time>2026-04-26T13:28:59.016Z</time></trkpt><trkpt lat="45.8172243" lon="11.741417"><ele>805.25</ele><time>2026-04-26T13:29:00.021Z</time></trkpt><trkpt lat="45.8172941" lon="11.7412899"><ele>815.0</ele><time>2026-04-26T13:29:01.009Z</time></trkpt><trkpt lat="45.8173619" lon="11.7411893"><ele>815.0</ele><time>2026-04-26T13:29:02.034Z</time></trkpt><trkpt lat="45.8174607" lon="11.7411565"><ele>815.0</ele><time>2026-04-26T13:29:03.01Z</time></trkpt><trkpt lat="45.8175958" lon="11.7412051"><ele>815.0</ele><time>2026-04-26T13:29:04.005Z</time></trkpt><trkpt lat="45.8177231" lon="11.7412745"><ele>815.0</ele><time>2026-04-26T13:29:05.009Z</time></trkpt><trkpt lat="45.8178288" lon="11.7413554"><ele>816.2</ele><time>2026-04-26T13:29:06.021Z</time></trkpt><trkpt lat="45.8179182" lon="11.7414459"><ele>817.4</ele><time>2026-04-26T13:29:07.015Z</time></trkpt><trkpt lat="45.8179862" lon="11.7415518"><ele>818.5999999999999</ele><time>2026-04-26T13:29:08.014Z</time></trkpt><trkpt lat="45.8180457" lon="11.7416211"><ele>819.8</ele><time>2026-04-26T13:29:09.012Z</time></trkpt><trkpt lat="45.8181246" lon="11.7417277"><ele>821.0</ele><time>2026-04-26T13:29:10.011Z</time></trkpt><trkpt lat="45.8181906" lon="11.7417773"><ele>821.0</ele><time>2026-04-26T13:29:11.013Z</time></trkpt><trkpt lat="45.8182686" lon="11.7417519"><ele>821.0</ele><time>2026-04-26T13:29:12.017Z</time></trkpt><trkpt lat="45.8183619" lon="11.7416877"><ele>821.0</ele><time>2026-04-26T13:29:13.021Z</time></trkpt><trkpt lat="45.8184965" lon="11.7415541"><ele>821.0</ele><time>2026-04-26T13:29:14.018Z</time></trkpt><trkpt lat="45.8186079" lon="11.7414007"><ele>819.75</ele><time>2026-04-26T13:29:15.019Z</time></trkpt><trkpt lat="45.8187051" lon="11.7412502"><ele>818.5</ele><time>2026-04-26T13:29:16.025Z</time></trkpt><trkpt lat="45.8188023" lon="11.7411267"><ele>817.25</ele><time>2026-04-26T13:29:17.019Z</time></trkpt><trkpt lat="45.8188924" lon="11.7410272"><ele>816.0</ele><time>2026-04-26T13:29:18.018Z</time></trkpt><trkpt lat="45.8189975" lon="11.740974"><ele>819.25</ele><time>2026-04-26T13:29:19.015Z</time></trkpt><trkpt lat="45.8191307" lon="11.7409766"><ele>822.5</ele><time>2026-04-26T13:29:20.014Z</time></trkpt><trkpt lat="45.8192808" lon="11.7410091"><ele>825.75</ele><time>2026-04-26T13:29:21.022Z</time></trkpt><trkpt lat="45.8194366" lon="11.7410495"><ele>829.0</ele><time>2026-04-26T13:29:22.011Z</time></trkpt><trkpt lat="45.8195815" lon="11.741112"><ele>830.75</ele><time>2026-04-26T13:29:23.013Z</time></trkpt><trkpt lat="45.8197275" lon="11.741195"><ele>832.5</ele><time>2026-04-26T13:29:24.012Z</time></trkpt><trkpt lat="45.8198328" lon="11.7413477"><ele>834.25</ele><time>2026-04-26T13:29:25.015Z</time></trkpt><trkpt lat="45.8198985" lon="11.7415162"><ele>836.0</ele><time>2026-04-26T13:29:26.008Z</time></trkpt><trkpt lat="45.8199794" lon="11.7416621"><ele>836.0</ele><time>2026-04-26T13:29:27.029Z</time></trkpt><trkpt lat="45.8200689" lon="11.7417732"><ele>836.0</ele><time>2026-04-26T13:29:28.026Z</time></trkpt><trkpt lat="45.8201749" lon="11.7418271"><ele>836.0</ele><time>2026-04-26T13:29:29.009Z</time></trkpt><trkpt lat="45.8202999" lon="11.741838"><ele>836.0</ele><time>2026-04-26T13:29:30.014Z</time></trkpt><trkpt lat="45.8204259" lon="11.7418662"><ele>833.75</ele><time>2026-04-26T13:29:31.026Z</time></trkpt><trkpt lat="45.8205561" lon="11.7419266"><ele>831.5</ele><time>2026-04-26T13:29:32.007Z</time></trkpt><trkpt lat="45.8206873" lon="11.741996"><ele>829.25</ele><time>2026-04-26T13:29:33.012Z</time></trkpt><trkpt lat="45.8208166" lon="11.7420814"><ele>827.0</ele><time>2026-04-26T13:29:34.009Z</time></trkpt><trkpt lat="45.8209449" lon="11.7421325"><ele>831.2</ele><time>2026-04-26T13:29:35.014Z</time></trkpt><trkpt lat="45.8210612" lon="11.7421614"><ele>835.4000000000001</ele><time>2026-04-26T13:29:36.021Z</time></trkpt><trkpt lat="45.821165" lon="11.7420866"><ele>839.5999999999999</ele><time>2026-04-26T13:29:37.009Z</time></trkpt><trkpt lat="45.8212632" lon="11.742018"><ele>843.8</ele><time>2026-04-26T13:29:38.007Z</time></trkpt><trkpt lat="45.8213536" lon="11.741952"><ele>848.0</ele><time>2026-04-26T13:29:39.013Z</time></trkpt><trkpt lat="45.8214592" lon="11.7419667"><ele>848.0</ele><time>2026-04-26T13:29:40.009Z</time></trkpt><trkpt lat="45.8215641" lon="11.7420712"><ele>848.0</ele><time>2026-04-26T13:29:41.018Z</time></trkpt><trkpt lat="45.8216651" lon="11.742181"><ele>848.0</ele><time>2026-04-26T13:29:42.018Z</time></trkpt><trkpt lat="45.8217778" lon="11.7422384"><ele>848.0</ele><time>2026-04-26T13:29:43.007Z</time></trkpt><trkpt lat="45.8219125" lon="11.7422408"><ele>850.0</ele><time>2026-04-26T13:29:44.011Z</time></trkpt><trkpt lat="45.8220491" lon="11.7422345"><ele>852.0</ele><time>2026-04-26T13:29:45.013Z</time></trkpt><trkpt lat="45.8221832" lon="11.7422271"><ele>854.0</ele><time>2026-04-26T13:29:46.015Z</time></trkpt><trkpt lat="45.8223014" lon="11.742312"><ele>856.0</ele><time>2026-04-26T13:29:47.017Z</time></trkpt><trkpt lat="45.8224408" lon="11.7424283"><ele>856.0</ele><time>2026-04-26T13:29:48.016Z</time></trkpt><trkpt lat="45.8225805" lon="11.7425387"><ele>856.0</ele><time>2026-04-26T13:29:49.009Z</time></trkpt><trkpt lat="45.8227138" lon="11.7426252"><ele>856.0</ele><time>2026-04-26T13:29:50.008Z</time></trkpt><trkpt lat="45.8228669" lon="11.7426651"><ele>857.25</ele><time>2026-04-26T13:29:51.018Z</time></trkpt><trkpt lat="45.8230251" lon="11.7426694"><ele>858.5</ele><time>2026-04-26T13:29:52.019Z</time></trkpt><trkpt lat="45.8231639" lon="11.7426578"><ele>859.75</ele><time>2026-04-26T13:29:53.01Z</time></trkpt><trkpt lat="45.8232891" lon="11.7426207"><ele>861.0</ele><time>2026-04-26T13:29:54.02Z</time></trkpt><trkpt lat="45.8233995" lon="11.7425243"><ele>854.3333333333333</ele><time>2026-04-26T13:29:55.028Z</time></trkpt><trkpt lat="45.823509" lon="11.7423996"><ele>847.6666666666666</ele><time>2026-04-26T13:29:56.006Z</time></trkpt><trkpt lat="45.8235868" lon="11.7422081"><ele>841.0</ele><time>2026-04-26T13:29:57.01Z</time></trkpt><trkpt lat="45.8236661" lon="11.7419553"><ele>843.0</ele><time>2026-04-26T13:29:58.018Z</time></trkpt><trkpt lat="45.8237723" lon="11.7417609"><ele>845.0</ele><time>2026-04-26T13:29:59.019Z</time></trkpt><trkpt lat="45.823872" lon="11.7415494"><ele>847.0</ele><time>2026-04-26T13:30:00.02Z</time></trkpt><trkpt lat="45.823966" lon="11.7413288"><ele>847.0</ele><time>2026-04-26T13:30:01.013Z</time></trkpt><trkpt lat="45.8240227" lon="11.7410634"><ele>847.0</ele><time>2026-04-26T13:30:02.012Z</time></trkpt><trkpt lat="45.8240333" lon="11.7407745"><ele>847.0</ele><time>2026-04-26T13:30:03.018Z</time></trkpt><trkpt lat="45.824043" lon="11.7404676"><ele>850.6666666666666</ele><time>2026-04-26T13:30:04.018Z</time></trkpt><trkpt lat="45.8240833" lon="11.74018"><ele>854.3333333333333</ele><time>2026-04-26T13:30:05.011Z</time></trkpt><trkpt lat="45.8241436" lon="11.7399079"><ele>858.0</ele><time>2026-04-26T13:30:06.011Z</time></trkpt><trkpt lat="45.8241903" lon="11.7396287"><ele>859.0</ele><time>2026-04-26T13:30:07.011Z</time></trkpt><trkpt lat="45.8242012" lon="11.7393444"><ele>860.0</ele><time>2026-04-26T13:30:08.015Z</time></trkpt><trkpt lat="45.8242245" lon="11.7390613"><ele>861.0</ele><time>2026-04-26T13:30:09.025Z</time></trkpt><trkpt lat="45.8242689" lon="11.7388163"><ele>861.0</ele><time>2026-04-26T13:30:10.018Z</time></trkpt><trkpt lat="45.8243249" lon="11.7386112"><ele>861.0</ele><time>2026-04-26T13:30:11.01Z</time></trkpt><trkpt lat="45.8243574" lon="11.738423"><ele>861.0</ele><time>2026-04-26T13:30:12.021Z</time></trkpt><trkpt lat="45.8243559" lon="11.738238"><ele>861.0</ele><time>2026-04-26T13:30:13.017Z</time></trkpt><trkpt lat="45.8242933" lon="11.7380574"><ele>861.0</ele><time>2026-04-26T13:30:14.047Z</time></trkpt><trkpt lat="45.824201" lon="11.737886"><ele>861.0</ele><time>2026-04-26T13:30:15.008Z</time></trkpt><trkpt lat="45.8240937" lon="11.7377404"><ele>861.0</ele><time>2026-04-26T13:30:16.012Z</time></trkpt><trkpt lat="45.8239849" lon="11.737599"><ele>861.0</ele><time>2026-04-26T13:30:17.01Z</time></trkpt><trkpt lat="45.8238917" lon="11.7374861"><ele>860.0</ele><time>2026-04-26T13:30:18.01Z</time></trkpt><trkpt lat="45.8238243" lon="11.7373789"><ele>858.9999999999999</ele><time>2026-04-26T13:30:19.008Z</time></trkpt><trkpt lat="45.8237867" lon="11.7372625"><ele>857.9999999999999</ele><time>2026-04-26T13:30:20.016Z</time></trkpt><trkpt lat="45.8237887" lon="11.7371535"><ele>857.0</ele><time>2026-04-26T13:30:21.015Z</time></trkpt><trkpt lat="45.8238797" lon="11.7370809"><ele>856.0</ele><time>2026-04-26T13:30:22.012Z</time></trkpt><trkpt lat="45.8239941" lon="11.7370029"><ele>856.0</ele><time>2026-04-26T13:30:23.015Z</time></trkpt><trkpt lat="45.8241095" lon="11.7369402"><ele>856.0</ele><time>2026-04-26T13:30:24.014Z</time></trkpt><trkpt lat="45.8242156" lon="11.7369082"><ele>856.0</ele><time>2026-04-26T13:30:25.004Z</time></trkpt><trkpt lat="45.8243526" lon="11.7369079"><ele>856.0</ele><time>2026-04-26T13:30:26.014Z</time></trkpt><trkpt lat="45.8245224" lon="11.7370347"><ele>856.6666666666666</ele><time>2026-04-26T13:30:27.008Z</time></trkpt><trkpt lat="45.8246511" lon="11.7371728"><ele>857.3333333333333</ele><time>2026-04-26T13:30:28.012Z</time></trkpt><trkpt lat="45.8247857" lon="11.7372947"><ele>858.0</ele><time>2026-04-26T13:30:29.008Z</time></trkpt><trkpt lat="45.8249203" lon="11.7374262"><ele>858.0</ele><time>2026-04-26T13:30:30.016Z</time></trkpt><trkpt lat="45.8250564" lon="11.7375674"><ele>858.0</ele><time>2026-04-26T13:30:31.016Z</time></trkpt><trkpt lat="45.8251341" lon="11.7377624"><ele>858.0</ele><time>2026-04-26T13:30:32.02Z</time></trkpt><trkpt lat="45.8252027" lon="11.7379551"><ele>862.25</ele><time>2026-04-26T13:30:33.013Z</time></trkpt><trkpt lat="45.8252809" lon="11.7381003"><ele>866.5</ele><time>2026-04-26T13:30:34.015Z</time></trkpt><trkpt lat="45.8253991" lon="11.7382069"><ele>870.75</ele><time>2026-04-26T13:30:35.009Z</time></trkpt><trkpt lat="45.8255172" lon="11.7383105"><ele>875.0</ele><time>2026-04-26T13:30:36.015Z</time></trkpt><trkpt lat="45.8256419" lon="11.7384184"><ele>874.0</ele><time>2026-04-26T13:30:37.015Z</time></trkpt><trkpt lat="45.8257262" lon="11.7385738"><ele>873.0</ele><time>2026-04-26T13:30:38.009Z</time></trkpt><trkpt lat="45.8258098" lon="11.7387801"><ele>872.0</ele><time>2026-04-26T13:30:39.014Z</time></trkpt><trkpt lat="45.8258909" lon="11.73898"><ele>883.3333333333334</ele><time>2026-04-26T13:30:40.015Z</time></trkpt><trkpt lat="45.8259821" lon="11.7391848"><ele>894.6666666666667</ele><time>2026-04-26T13:30:41.008Z</time></trkpt><trkpt lat="45.8260702" lon="11.7393606"><ele>906.0</ele><time>2026-04-26T13:30:42.019Z</time></trkpt><trkpt lat="45.8261217" lon="11.7395955"><ele>907.0</ele><time>2026-04-26T13:30:43.017Z</time></trkpt><trkpt lat="45.8261198" lon="11.7398703"><ele>908.0</ele><time>2026-04-26T13:30:44.033Z</time></trkpt><trkpt lat="45.8261319" lon="11.7401453"><ele>909.0</ele><time>2026-04-26T13:30:45.011Z</time></trkpt><trkpt lat="45.8261456" lon="11.7404191"><ele>910.0</ele><time>2026-04-26T13:30:46.015Z</time></trkpt><trkpt lat="45.8261792" lon="11.7406982"><ele>911.0</ele><time>2026-04-26T13:30:47.009Z</time></trkpt><trkpt lat="45.8262197" lon="11.7409737"><ele>912.0</ele><time>2026-04-26T13:30:48.006Z</time></trkpt><trkpt lat="45.8262683" lon="11.7412342"><ele>909.6666666666667</ele><time>2026-04-26T13:30:49.017Z</time></trkpt><trkpt lat="45.8263598" lon="11.7414926"><ele>907.3333333333334</ele><time>2026-04-26T13:30:50.012Z</time></trkpt><trkpt lat="45.8264573" lon="11.7417247"><ele>905.0</ele><time>2026-04-26T13:30:51.014Z</time></trkpt><trkpt lat="45.8265431" lon="11.7419376"><ele>906.6666666666667</ele><time>2026-04-26T13:30:52.014Z</time></trkpt><trkpt lat="45.826626" lon="11.7421363"><ele>908.3333333333333</ele><time>2026-04-26T13:30:53.02Z</time></trkpt><trkpt lat="45.8267394" lon="11.7423036"><ele>910.0</ele><time>2026-04-26T13:30:54.011Z</time></trkpt><trkpt lat="45.8268604" lon="11.7424557"><ele>910.0</ele><time>2026-04-26T13:30:55.016Z</time></trkpt><trkpt lat="45.8270164" lon="11.7425461"><ele>910.0</ele><time>2026-04-26T13:30:56.013Z</time></trkpt><trkpt lat="45.8271861" lon="11.7426162"><ele>910.0</ele><time>2026-04-26T13:30:57.015Z</time></trkpt><trkpt lat="45.8273634" lon="11.7426473"><ele>910.0</ele><time>2026-04-26T13:30:58.01Z</time></trkpt><trkpt lat="45.8275441" lon="11.7426389"><ele>910.0</ele><time>2026-04-26T13:30:59.008Z</time></trkpt><trkpt lat="45.8277099" lon="11.7425948"><ele>910.0</ele><time>2026-04-26T13:31:00.007Z</time></trkpt><trkpt lat="45.8278624" lon="11.7425379"><ele>914.0</ele><time>2026-04-26T13:31:01.008Z</time></trkpt><trkpt lat="45.8280072" lon="11.7425022"><ele>918.0</ele><time>2026-04-26T13:31:02.009Z</time></trkpt><trkpt lat="45.828148" lon="11.7424845"><ele>922.0</ele><time>2026-04-26T13:31:03.014Z</time></trkpt><trkpt lat="45.828248" lon="11.7424863"><ele>926.0</ele><time>2026-04-26T13:31:04.015Z</time></trkpt><trkpt lat="45.8283603" lon="11.7425765"><ele>925.25</ele><time>2026-04-26T13:31:05.022Z</time></trkpt><trkpt lat="45.8284267" lon="11.7427445"><ele>924.5</ele><time>2026-04-26T13:31:06.016Z</time></trkpt><trkpt lat="45.8284461" lon="11.7429193"><ele>923.75</ele><time>2026-04-26T13:31:07.003Z</time></trkpt><trkpt lat="45.8284563" lon="11.7431237"><ele>923.0</ele><time>2026-04-26T13:31:08.007Z</time></trkpt><trkpt lat="45.828464" lon="11.7433645"><ele>922.6666666666667</ele><time>2026-04-26T13:31:09.019Z</time></trkpt><trkpt lat="45.8284586" lon="11.7435945"><ele>922.3333333333333</ele><time>2026-04-26T13:31:10.009Z</time></trkpt><trkpt lat="45.8284502" lon="11.7438265"><ele>922.0</ele><time>2026-04-26T13:31:11.01Z</time></trkpt><trkpt lat="45.8284486" lon="11.7440573"><ele>929.3333333333333</ele><time>2026-04-26T13:31:12.019Z</time></trkpt><trkpt lat="45.8284879" lon="11.7442887"><ele>936.6666666666667</ele><time>2026-04-26T13:31:13.01Z</time></trkpt><trkpt lat="45.8285405" lon="11.7445202"><ele>944.0</ele><time>2026-04-26T13:31:14.009Z</time></trkpt><trkpt lat="45.8286023" lon="11.7447369"><ele>944.0</ele><time>2026-04-26T13:31:15.015Z</time></trkpt><trkpt lat="45.8286917" lon="11.7449107"><ele>944.0</ele><time>2026-04-26T13:31:16.012Z</time></trkpt><trkpt lat="45.828805" lon="11.7450527"><ele>944.0</ele><time>2026-04-26T13:31:17.014Z</time></trkpt><trkpt lat="45.8289262" lon="11.7451868"><ele>940.0</ele><time>2026-04-26T13:31:18.017Z</time></trkpt><trkpt lat="45.8290734" lon="11.7452616"><ele>936.0</ele><time>2026-04-26T13:31:19.012Z</time></trkpt><trkpt lat="45.8292268" lon="11.7453162"><ele>932.0</ele><time>2026-04-26T13:31:20.011Z</time></trkpt><trkpt lat="45.8293747" lon="11.74533"><ele>932.0</ele><time>2026-04-26T13:31:21.014Z</time></trkpt><trkpt lat="45.8294913" lon="11.745311"><ele>932.0</ele><time>2026-04-26T13:31:22.009Z</time></trkpt><trkpt lat="45.8295877" lon="11.7452852"><ele>932.0</ele><time>2026-04-26T13:31:23.012Z</time></trkpt><trkpt lat="45.8296834" lon="11.7453042"><ele>932.0</ele><time>2026-04-26T13:31:24.015Z</time></trkpt><trkpt lat="45.8297653" lon="11.7453265"><ele>932.0</ele><time>2026-04-26T13:31:25.008Z</time></trkpt><trkpt lat="45.8298498" lon="11.7453805"><ele>932.0</ele><time>2026-04-26T13:31:26.019Z</time></trkpt><trkpt lat="45.8299542" lon="11.7453429"><ele>932.0</ele><time>2026-04-26T13:31:28.006Z</time></trkpt><trkpt lat="45.8299207" lon="11.7451866"><ele>932.0</ele><time>2026-04-26T13:31:30.009Z</time></trkpt><trkpt lat="45.8298363" lon="11.7451579"><ele>932.0</ele><time>2026-04-26T13:31:31.004Z</time></trkpt><trkpt lat="45.8297326" lon="11.7451249"><ele>932.0</ele><time>2026-04-26T13:31:32.014Z</time></trkpt><trkpt lat="45.8295991" lon="11.7451182"><ele>936.0</ele><time>2026-04-26T13:31:33.005Z</time></trkpt><trkpt lat="45.8294492" lon="11.7450747"><ele>940.0</ele><time>2026-04-26T13:31:34.01Z</time></trkpt><trkpt lat="45.8293013" lon="11.7449608"><ele>944.0</ele><time>2026-04-26T13:31:35.011Z</time></trkpt><trkpt lat="45.8291658" lon="11.7448539"><ele>944.0</ele><time>2026-04-26T13:31:36.008Z</time></trkpt><trkpt lat="45.8290685" lon="11.7447615"><ele>944.0</ele><time>2026-04-26T13:31:37.012Z</time></trkpt><trkpt lat="45.8289999" lon="11.7446296"><ele>944.0</ele><time>2026-04-26T13:31:38.012Z</time></trkpt><trkpt lat="45.8289768" lon="11.7444619"><ele>944.0</ele><time>2026-04-26T13:31:39.021Z</time></trkpt><trkpt lat="45.8289819" lon="11.7442845"><ele>950.0</ele><time>2026-04-26T13:31:40.02Z</time></trkpt><trkpt lat="45.8289975" lon="11.7440757"><ele>956.0</ele><time>2026-04-26T13:31:41.009Z</time></trkpt><trkpt lat="45.8290124" lon="11.7438465"><ele>962.0</ele><time>2026-04-26T13:31:42.013Z</time></trkpt><trkpt lat="45.8290118" lon="11.7436125"><ele>962.6666666666667</ele><time>2026-04-26T13:31:43.011Z</time></trkpt><trkpt lat="45.8290333" lon="11.7433624"><ele>963.3333333333333</ele><time>2026-04-26T13:31:44.016Z</time></trkpt><trkpt lat="45.8290741" lon="11.743117"><ele>964.0</ele><time>2026-04-26T13:31:45.007Z</time></trkpt><trkpt lat="45.8291426" lon="11.742892"><ele>962.6666666666666</ele><time>2026-04-26T13:31:46.024Z</time></trkpt><trkpt lat="45.829205" lon="11.7426601"><ele>961.3333333333333</ele><time>2026-04-26T13:31:47.011Z</time></trkpt><trkpt lat="45.8292885" lon="11.7424305"><ele>960.0</ele><time>2026-04-26T13:31:48.018Z</time></trkpt><trkpt lat="45.8293723" lon="11.7422023"><ele>970.6666666666667</ele><time>2026-04-26T13:31:49.013Z</time></trkpt><trkpt lat="45.8294384" lon="11.7419736"><ele>981.3333333333334</ele><time>2026-04-26T13:31:50.007Z</time></trkpt><trkpt lat="45.8294953" lon="11.741755"><ele>992.0</ele><time>2026-04-26T13:31:51.018Z</time></trkpt><trkpt lat="45.829549" lon="11.7415462"><ele>992.0</ele><time>2026-04-26T13:31:52.016Z</time></trkpt><trkpt lat="45.8296299" lon="11.7413769"><ele>992.0</ele><time>2026-04-26T13:31:53.008Z</time></trkpt><trkpt lat="45.8297017" lon="11.7412307"><ele>992.0</ele><time>2026-04-26T13:31:54.015Z</time></trkpt><trkpt lat="45.829763" lon="11.7410931"><ele>992.0</ele><time>2026-04-26T13:31:55.033Z</time></trkpt><trkpt lat="45.8297835" lon="11.7409516"><ele>991.4000000000001</ele><time>2026-04-26T13:31:56.016Z</time></trkpt><trkpt lat="45.8297413" lon="11.7408318"><ele>990.8000000000001</ele><time>2026-04-26T13:31:57.008Z</time></trkpt><trkpt lat="45.8296663" lon="11.740753"><ele>990.2</ele><time>2026-04-26T13:31:58.016Z</time></trkpt><trkpt lat="45.8295734" lon="11.7406713"><ele>989.6</ele><time>2026-04-26T13:31:59.013Z</time></trkpt><trkpt lat="45.8294485" lon="11.7406758"><ele>989.0</ele><time>2026-04-26T13:32:00.005Z</time></trkpt><trkpt lat="45.8292995" lon="11.7406899"><ele>984.0</ele><time>2026-04-26T13:32:01.019Z</time></trkpt><trkpt lat="45.8291381" lon="11.7406706"><ele>979.0</ele><time>2026-04-26T13:32:02.007Z</time></trkpt><trkpt lat="45.8289712" lon="11.7406496"><ele>974.0</ele><time>2026-04-26T13:32:03.01Z</time></trkpt><trkpt lat="45.8287838" lon="11.7406174"><ele>974.0</ele><time>2026-04-26T13:32:04.009Z</time></trkpt><trkpt lat="45.8286054" lon="11.7406105"><ele>974.0</ele><time>2026-04-26T13:32:05.018Z</time></trkpt><trkpt lat="45.8284554" lon="11.7405872"><ele>974.0</ele><time>2026-04-26T13:32:06.012Z</time></trkpt><trkpt lat="45.8283304" lon="11.7405865"><ele>973.75</ele><time>2026-04-26T13:32:07.01Z</time></trkpt><trkpt lat="45.8282166" lon="11.7405526"><ele>973.5</ele><time>2026-04-26T13:32:08.01Z</time></trkpt><trkpt lat="45.8281496" lon="11.7404334"><ele>973.25</ele><time>2026-04-26T13:32:09.011Z</time></trkpt><trkpt lat="45.8281276" lon="11.7402627"><ele>973.0</ele><time>2026-04-26T13:32:10.054Z</time></trkpt><trkpt lat="45.8281126" lon="11.7400948"><ele>975.25</ele><time>2026-04-26T13:32:11.023Z</time></trkpt><trkpt lat="45.8281282" lon="11.7399164"><ele>977.5</ele><time>2026-04-26T13:32:12.022Z</time></trkpt><trkpt lat="45.8281904" lon="11.7397573"><ele>979.75</ele><time>2026-04-26T13:32:13.025Z</time></trkpt><trkpt lat="45.8282761" lon="11.7396119"><ele>982.0</ele><time>2026-04-26T13:32:14.015Z</time></trkpt><trkpt lat="45.8283502" lon="11.7394595"><ele>983.75</ele><time>2026-04-26T13:32:15.023Z</time></trkpt><trkpt lat="45.8283879" lon="11.7392764"><ele>985.5</ele><time>2026-04-26T13:32:16.015Z</time></trkpt><trkpt lat="45.8283833" lon="11.7390837"><ele>987.25</ele><time>2026-04-26T13:32:17.024Z</time></trkpt><trkpt lat="45.8283442" lon="11.7388818"><ele>989.0</ele><time>2026-04-26T13:32:18.013Z</time></trkpt><trkpt lat="45.8283035" lon="11.7386748"><ele>992.3333333333334</ele><time>2026-04-26T13:32:19.018Z</time></trkpt><trkpt lat="45.8282365" lon="11.738461"><ele>995.6666666666667</ele><time>2026-04-26T13:32:20.008Z</time></trkpt><trkpt lat="45.8281788" lon="11.7382206"><ele>999.0</ele><time>2026-04-26T13:32:21.012Z</time></trkpt><trkpt lat="45.8281626" lon="11.7379571"><ele>1000.0</ele><time>2026-04-26T13:32:22.017Z</time></trkpt><trkpt lat="45.8281612" lon="11.7376915"><ele>1001.0</ele><time>2026-04-26T13:32:23.018Z</time></trkpt><trkpt lat="45.8281843" lon="11.7374523"><ele>1002.0</ele><time>2026-04-26T13:32:24.016Z</time></trkpt><trkpt lat="45.8282257" lon="11.7372409"><ele>1002.0</ele><time>2026-04-26T13:32:25.019Z</time></trkpt><trkpt lat="45.828278" lon="11.7370753"><ele>1002.0</ele><time>2026-04-26T13:32:26.014Z</time></trkpt><trkpt lat="45.8283411" lon="11.7369323"><ele>1002.0</ele><time>2026-04-26T13:32:27.014Z</time></trkpt><trkpt lat="45.8284397" lon="11.7368322"><ele>1002.0</ele><time>2026-04-26T13:32:28.032Z</time></trkpt><trkpt lat="45.8285582" lon="11.7367731"><ele>1001.75</ele><time>2026-04-26T13:32:29.017Z</time></trkpt><trkpt lat="45.8286938" lon="11.7367416"><ele>1001.5</ele><time>2026-04-26T13:32:30.014Z</time></trkpt><trkpt lat="45.8288388" lon="11.7367273"><ele>1001.25</ele><time>2026-04-26T13:32:31.015Z</time></trkpt><trkpt lat="45.8289944" lon="11.7367231"><ele>1001.0</ele><time>2026-04-26T13:32:32.016Z</time></trkpt><trkpt lat="45.8291545" lon="11.7367432"><ele>999.0</ele><time>2026-04-26T13:32:33.025Z</time></trkpt><trkpt lat="45.8293159" lon="11.7367824"><ele>997.0</ele><time>2026-04-26T13:32:34.015Z</time></trkpt><trkpt lat="45.8294803" lon="11.7368339"><ele>995.0</ele><time>2026-04-26T13:32:35.019Z</time></trkpt><trkpt lat="45.8296606" lon="11.736898"><ele>1004.6666666666667</ele><time>2026-04-26T13:32:36.022Z</time></trkpt><trkpt lat="45.8298282" lon="11.7369101"><ele>1014.3333333333333</ele><time>2026-04-26T13:32:37.031Z</time></trkpt><trkpt lat="45.8299969" lon="11.7369389"><ele>1024.0</ele><time>2026-04-26T13:32:38.017Z</time></trkpt><trkpt lat="45.8301731" lon="11.7369775"><ele>1026.3333333333333</ele><time>2026-04-26T13:32:39.024Z</time></trkpt><trkpt lat="45.830343" lon="11.7370122"><ele>1028.6666666666667</ele><time>2026-04-26T13:32:40.024Z</time></trkpt><trkpt lat="45.8305151" lon="11.7370271"><ele>1031.0</ele><time>2026-04-26T13:32:41.016Z</time></trkpt><trkpt lat="45.8306897" lon="11.737008"><ele>1031.0</ele><time>2026-04-26T13:32:42.035Z</time></trkpt><trkpt lat="45.8308545" lon="11.7369645"><ele>1031.0</ele><time>2026-04-26T13:32:43.027Z</time></trkpt><trkpt lat="45.8310142" lon="11.7369393"><ele>1031.0</ele><time>2026-04-26T13:32:44.009Z</time></trkpt><trkpt lat="45.8311598" lon="11.7369214"><ele>1028.0</ele><time>2026-04-26T13:32:45.028Z</time></trkpt><trkpt lat="45.8312882" lon="11.7369427"><ele>1025.0</ele><time>2026-04-26T13:32:46.041Z</time></trkpt><trkpt lat="45.8314091" lon="11.7368932"><ele>1022.0</ele><time>2026-04-26T13:32:47.029Z</time></trkpt><trkpt lat="45.8315232" lon="11.7368379"><ele>1019.0</ele><time>2026-04-26T13:32:48.052Z</time></trkpt><trkpt lat="45.8315929" lon="11.7366978"><ele>1019.0</ele><time>2026-04-26T13:32:49.026Z</time></trkpt><trkpt lat="45.8316357" lon="11.7365127"><ele>1019.0</ele><time>2026-04-26T13:32:50.022Z</time></trkpt><trkpt lat="45.8316791" lon="11.7363272"><ele>1019.0</ele><time>2026-04-26T13:32:51.03Z</time></trkpt><trkpt lat="45.8317286" lon="11.7361682"><ele>1019.0</ele><time>2026-04-26T13:32:52.023Z</time></trkpt><trkpt lat="45.8317936" lon="11.736052"><ele>1019.75</ele><time>2026-04-26T13:32:53.01Z</time></trkpt><trkpt lat="45.8318655" lon="11.735953"><ele>1020.5</ele><time>2026-04-26T13:32:54.021Z</time></trkpt><trkpt lat="45.8319775" lon="11.7359503"><ele>1021.25</ele><time>2026-04-26T13:32:55.044Z</time></trkpt><trkpt lat="45.8320881" lon="11.7359751"><ele>1022.0</ele><time>2026-04-26T13:32:56.031Z</time></trkpt><trkpt lat="45.8322189" lon="11.7359727"><ele>1022.0</ele><time>2026-04-26T13:32:57.009Z</time></trkpt><trkpt lat="45.8323553" lon="11.7359339"><ele>1022.0</ele><time>2026-04-26T13:32:58.028Z</time></trkpt><trkpt lat="45.8324901" lon="11.7358986"><ele>1022.0</ele><time>2026-04-26T13:32:59.015Z</time></trkpt><trkpt lat="45.8325989" lon="11.7357815"><ele>1022.0</ele><time>2026-04-26T13:33:00.019Z</time></trkpt><trkpt lat="45.8326878" lon="11.7356299"><ele>1021.25</ele><time>2026-04-26T13:33:01.021Z</time></trkpt><trkpt lat="45.8327718" lon="11.7354754"><ele>1020.5</ele><time>2026-04-26T13:33:02.01Z</time></trkpt><trkpt lat="45.8328185" lon="11.7353178"><ele>1019.75</ele><time>2026-04-26T13:33:03.009Z</time></trkpt><trkpt lat="45.8328973" lon="11.735227"><ele>1019.0</ele><time>2026-04-26T13:33:04.028Z</time></trkpt><trkpt lat="45.8329833" lon="11.7351418"><ele>1019.0</ele><time>2026-04-26T13:33:05.021Z</time></trkpt><trkpt lat="45.8330947" lon="11.7351045"><ele>1019.0</ele><time>2026-04-26T13:33:06.028Z</time></trkpt><trkpt lat="45.8332245" lon="11.7350705"><ele>1019.0</ele><time>2026-04-26T13:33:07.019Z</time></trkpt><trkpt lat="45.8333655" lon="11.7350402"><ele>1019.0</ele><time>2026-04-26T13:33:08.018Z</time></trkpt><trkpt lat="45.833502" lon="11.7350042"><ele>1019.75</ele><time>2026-04-26T13:33:09.01Z</time></trkpt><trkpt lat="45.8336431" lon="11.7349623"><ele>1020.5</ele><time>2026-04-26T13:33:10.024Z</time></trkpt><trkpt lat="45.8337577" lon="11.7348835"><ele>1021.25</ele><time>2026-04-26T13:33:11.036Z</time></trkpt><trkpt lat="45.833862" lon="11.7347929"><ele>1022.0</ele><time>2026-04-26T13:33:12.014Z</time></trkpt><trkpt lat="45.8339584" lon="11.7346893"><ele>1022.0</ele><time>2026-04-26T13:33:13.015Z</time></trkpt><trkpt lat="45.8340495" lon="11.7345737"><ele>1022.0</ele><time>2026-04-26T13:33:14.045Z</time></trkpt><trkpt lat="45.834134" lon="11.7344562"><ele>1022.0</ele><time>2026-04-26T13:33:15.021Z</time></trkpt><trkpt lat="45.8342079" lon="11.734347"><ele>1022.0</ele><time>2026-04-26T13:33:16.016Z</time></trkpt><trkpt lat="45.834271" lon="11.734261"><ele>1022.0</ele><time>2026-04-26T13:33:17.033Z</time></trkpt><trkpt lat="45.8343342" lon="11.7341943"><ele>1022.0</ele><time>2026-04-26T13:33:18.021Z</time></trkpt><trkpt lat="45.8343863" lon="11.7341272"><ele>1022.0</ele><time>2026-04-26T13:33:19.025Z</time></trkpt><trkpt lat="45.8344422" lon="11.7340611"><ele>1022.0</ele><time>2026-04-26T13:33:20.065Z</time></trkpt><trkpt lat="45.8344959" lon="11.7339913"><ele>1022.0</ele><time>2026-04-26T13:33:21.014Z</time></trkpt><trkpt lat="45.8345434" lon="11.7339179"><ele>1022.0</ele><time>2026-04-26T13:33:22.011Z</time></trkpt><trkpt lat="45.8345794" lon="11.7338292"><ele>1022.0</ele><time>2026-04-26T13:33:23.031Z</time></trkpt><trkpt lat="45.8346071" lon="11.7337274"><ele>1022.0</ele><time>2026-04-26T13:33:24.017Z</time></trkpt><trkpt lat="45.8346293" lon="11.7336371"><ele>1023.5000000000001</ele><time>2026-04-26T13:33:25.009Z</time></trkpt><trkpt lat="45.8346334" lon="11.7335365"><ele>1025.0</ele><time>2026-04-26T13:33:26.027Z</time></trkpt><trkpt lat="45.8346267" lon="11.7334311"><ele>1026.5</ele><time>2026-04-26T13:33:27.02Z</time></trkpt><trkpt lat="45.8346238" lon="11.733332"><ele>1028.0</ele><time>2026-04-26T13:33:28.024Z</time></trkpt><trkpt lat="45.8346184" lon="11.7332404"><ele>1029.5</ele><time>2026-04-26T13:33:29.017Z</time></trkpt><trkpt lat="45.8346532" lon="11.7330754"><ele>1031.0</ele><time>2026-04-26T13:33:31.021Z</time></trkpt><trkpt lat="45.8346793" lon="11.7329849"><ele>1031.0</ele><time>2026-04-26T13:33:32.012Z</time></trkpt><trkpt lat="45.8347218" lon="11.7329171"><ele>1031.0</ele><time>2026-04-26T13:33:33.021Z</time></trkpt><trkpt lat="45.8347781" lon="11.7328421"><ele>1031.0</ele><time>2026-04-26T13:33:34.023Z</time></trkpt><trkpt lat="45.8348429" lon="11.7327542"><ele>1031.0</ele><time>2026-04-26T13:33:35.029Z</time></trkpt><trkpt lat="45.8349047" lon="11.7326607"><ele>1031.0</ele><time>2026-04-26T13:33:36.011Z</time></trkpt><trkpt lat="45.8349496" lon="11.7325343"><ele>1031.0</ele><time>2026-04-26T13:33:37.015Z</time></trkpt><trkpt lat="45.8349771" lon="11.7324043"><ele>1031.8</ele><time>2026-04-26T13:33:38.025Z</time></trkpt><trkpt lat="45.8350175" lon="11.7322892"><ele>1032.6</ele><time>2026-04-26T13:33:39.03Z</time></trkpt><trkpt lat="45.8350547" lon="11.7321583"><ele>1033.4</ele><time>2026-04-26T13:33:40.014Z</time></trkpt><trkpt lat="45.8351278" lon="11.7320363"><ele>1034.2</ele><time>2026-04-26T13:33:41.016Z</time></trkpt><trkpt lat="45.8351545" lon="11.7318757"><ele>1035.0</ele><time>2026-04-26T13:33:42.014Z</time></trkpt><trkpt lat="45.8351689" lon="11.7317305"><ele>1041.0</ele><time>2026-04-26T13:33:43.019Z</time></trkpt><trkpt lat="45.8352177" lon="11.7316034"><ele>1047.0</ele><time>2026-04-26T13:33:44.008Z</time></trkpt><trkpt lat="45.8352559" lon="11.7314694"><ele>1053.0</ele><time>2026-04-26T13:33:45.017Z</time></trkpt><trkpt lat="45.83528" lon="11.7313385"><ele>1059.0</ele><time>2026-04-26T13:33:46.036Z</time></trkpt><trkpt lat="45.8353104" lon="11.7312217"><ele>1065.0</ele><time>2026-04-26T13:33:47.027Z</time></trkpt><trkpt lat="45.8353343" lon="11.7311212"><ele>1062.1666666666667</ele><time>2026-04-26T13:33:48.016Z</time></trkpt><trkpt lat="45.8353816" lon="11.7310334"><ele>1059.3333333333333</ele><time>2026-04-26T13:33:49.018Z</time></trkpt><trkpt lat="45.8354352" lon="11.7309637"><ele>1056.5</ele><time>2026-04-26T13:33:50.028Z</time></trkpt><trkpt lat="45.8354904" lon="11.7309026"><ele>1053.6666666666665</ele><time>2026-04-26T13:33:51.011Z</time></trkpt><trkpt lat="45.8355611" lon="11.7308715"><ele>1050.8333333333333</ele><time>2026-04-26T13:33:52.018Z</time></trkpt><trkpt lat="45.8356526" lon="11.7308443"><ele>1048.0</ele><time>2026-04-26T13:33:53.021Z</time></trkpt><trkpt lat="45.8357597" lon="11.7308347"><ele>1048.0</ele><time>2026-04-26T13:33:54.023Z</time></trkpt><trkpt lat="45.835879" lon="11.7308343"><ele>1048.0</ele><time>2026-04-26T13:33:55.012Z</time></trkpt><trkpt lat="45.8360069" lon="11.7308315"><ele>1048.0</ele><time>2026-04-26T13:33:56.012Z</time></trkpt><trkpt lat="45.8361239" lon="11.7307974"><ele>1048.0</ele><time>2026-04-26T13:33:57.017Z</time></trkpt><trkpt lat="45.8362135" lon="11.7307843"><ele>1051.4</ele><time>2026-04-26T13:33:58.018Z</time></trkpt><trkpt lat="45.8362874" lon="11.7307467"><ele>1054.8</ele><time>2026-04-26T13:33:59.007Z</time></trkpt><trkpt lat="45.8363631" lon="11.730647"><ele>1058.2</ele><time>2026-04-26T13:34:00.017Z</time></trkpt><trkpt lat="45.8363984" lon="11.730477"><ele>1061.6</ele><time>2026-04-26T13:34:01.019Z</time></trkpt><trkpt lat="45.8364306" lon="11.7302889"><ele>1065.0</ele><time>2026-04-26T13:34:02.029Z</time></trkpt><trkpt lat="45.836472" lon="11.7301265"><ele>1065.0</ele><time>2026-04-26T13:34:03.006Z</time></trkpt><trkpt lat="45.8365227" lon="11.7299793"><ele>1065.0</ele><time>2026-04-26T13:34:04.018Z</time></trkpt><trkpt lat="45.8365565" lon="11.7298484"><ele>1065.0</ele><time>2026-04-26T13:34:05.012Z</time></trkpt><trkpt lat="45.8366001" lon="11.7297051"><ele>1065.0</ele><time>2026-04-26T13:34:06.008Z</time></trkpt><trkpt lat="45.8366484" lon="11.7295753"><ele>1065.0</ele><time>2026-04-26T13:34:07.019Z</time></trkpt><trkpt lat="45.8367163" lon="11.7294522"><ele>1060.4</ele><time>2026-04-26T13:34:08.023Z</time></trkpt><trkpt lat="45.8367852" lon="11.7293399"><ele>1055.8</ele><time>2026-04-26T13:34:09.011Z</time></trkpt><trkpt lat="45.8368558" lon="11.7292451"><ele>1051.2</ele><time>2026-04-26T13:34:10.012Z</time></trkpt><trkpt lat="45.8369292" lon="11.7291448"><ele>1046.6</ele><time>2026-04-26T13:34:11.044Z</time></trkpt><trkpt lat="45.8370089" lon="11.7290498"><ele>1042.0</ele><time>2026-04-26T13:34:12.026Z</time></trkpt><trkpt lat="45.8370885" lon="11.7289494"><ele>1050.0</ele><time>2026-04-26T13:34:13.011Z</time></trkpt><trkpt lat="45.8371764" lon="11.7288418"><ele>1058.0</ele><time>2026-04-26T13:34:14.026Z</time></trkpt><trkpt lat="45.8372609" lon="11.7287235"><ele>1066.0</ele><time>2026-04-26T13:34:15.019Z</time></trkpt><trkpt lat="45.8373381" lon="11.7285887"><ele>1074.0</ele><time>2026-04-26T13:34:16.012Z</time></trkpt><trkpt lat="45.8373915" lon="11.7284615"><ele>1074.0</ele><time>2026-04-26T13:34:17.014Z</time></trkpt><trkpt lat="45.8374421" lon="11.7283523"><ele>1074.0</ele><time>2026-04-26T13:34:18.027Z</time></trkpt><trkpt lat="45.8374773" lon="11.7282635"><ele>1074.0</ele><time>2026-04-26T13:34:19.013Z</time></trkpt><trkpt lat="45.8375245" lon="11.7281203"><ele>1074.0</ele><time>2026-04-26T13:34:21.01Z</time></trkpt><trkpt lat="45.8375699" lon="11.728023"><ele>1074.0</ele><time>2026-04-26T13:34:23.015Z</time></trkpt><trkpt lat="45.8376027" lon="11.7279233"><ele>1074.0</ele><time>2026-04-26T13:34:25.013Z</time></trkpt><trkpt lat="45.837626" lon="11.7278272"><ele>1080.8</ele><time>2026-04-26T13:34:27.014Z</time></trkpt><trkpt lat="45.8376524" lon="11.7276855"><ele>1087.6000000000001</ele><time>2026-04-26T13:34:29.035Z</time></trkpt><trkpt lat="45.8376706" lon="11.727597"><ele>1094.4</ele><time>2026-04-26T13:34:30.029Z</time></trkpt><trkpt lat="45.8377075" lon="11.7274309"><ele>1101.2</ele><time>2026-04-26T13:34:32.012Z</time></trkpt><trkpt lat="45.8377612" lon="11.7272637"><ele>1108.0</ele><time>2026-04-26T13:34:34.026Z</time></trkpt><trkpt lat="45.8378077" lon="11.7271262"><ele>1108.0</ele><time>2026-04-26T13:34:36.009Z</time></trkpt><trkpt lat="45.8379019" lon="11.7270247"><ele>1108.0</ele><time>2026-04-26T13:34:38.02Z</time></trkpt><trkpt lat="45.8379595" lon="11.726973"><ele>1108.0</ele><time>2026-04-26T13:34:39.026Z</time></trkpt><trkpt lat="45.838025" lon="11.7269238"><ele>1108.0</ele><time>2026-04-26T13:34:40.012Z</time></trkpt><trkpt lat="45.8380898" lon="11.7268712"><ele>1108.0</ele><time>2026-04-26T13:34:41.017Z</time></trkpt><trkpt lat="45.838161" lon="11.7268285"><ele>1108.0</ele><time>2026-04-26T13:34:42.014Z</time></trkpt><trkpt lat="45.8382287" lon="11.7267902"><ele>1108.0</ele><time>2026-04-26T13:34:43.016Z</time></trkpt><trkpt lat="45.8382987" lon="11.7267281"><ele>1108.0</ele><time>2026-04-26T13:34:44.017Z</time></trkpt><trkpt lat="45.8383671" lon="11.7266622"><ele>1108.0</ele><time>2026-04-26T13:34:45.011Z</time></trkpt><trkpt lat="45.8384304" lon="11.726587"><ele>1108.0</ele><time>2026-04-26T13:34:46.017Z</time></trkpt><trkpt lat="45.83849" lon="11.7265099"><ele>1108.0</ele><time>2026-04-26T13:34:47.008Z</time></trkpt><trkpt lat="45.8385436" lon="11.7264291"><ele>1108.0</ele><time>2026-04-26T13:34:48.013Z</time></trkpt><trkpt lat="45.8385921" lon="11.7263473"><ele>1108.0</ele><time>2026-04-26T13:34:49.013Z</time></trkpt><trkpt lat="45.8386416" lon="11.7262672"><ele>1108.0</ele><time>2026-04-26T13:34:50.03Z</time></trkpt><trkpt lat="45.8386877" lon="11.7261798"><ele>1108.0</ele><time>2026-04-26T13:34:51.006Z</time></trkpt><trkpt lat="45.838725" lon="11.7260837"><ele>1108.0</ele><time>2026-04-26T13:34:52.009Z</time></trkpt><trkpt lat="45.8387599" lon="11.7259915"><ele>1108.0</ele><time>2026-04-26T13:34:53.01Z</time></trkpt><trkpt lat="45.8387841" lon="11.72589"><ele>1108.0</ele><time>2026-04-26T13:34:54.022Z</time></trkpt><trkpt lat="45.8388157" lon="11.7258004"><ele>1108.0</ele><time>2026-04-26T13:34:55.014Z</time></trkpt><trkpt lat="45.8388634" lon="11.7256655"><ele>1102.6</ele><time>2026-04-26T13:34:57.019Z</time></trkpt><trkpt lat="45.8389115" lon="11.7255805"><ele>1097.1999999999998</ele><time>2026-04-26T13:34:59.013Z</time></trkpt><trkpt lat="45.8389845" lon="11.7255671"><ele>1091.8</ele><time>2026-04-26T13:35:01.014Z</time></trkpt><trkpt lat="45.8390723" lon="11.7256493"><ele>1086.3999999999999</ele><time>2026-04-26T13:35:03.032Z</time></trkpt><trkpt lat="45.8391698" lon="11.725745"><ele>1081.0</ele><time>2026-04-26T13:35:05.011Z</time></trkpt><trkpt lat="45.8392801" lon="11.7258349"><ele>1081.2</ele><time>2026-04-26T13:35:07.014Z</time></trkpt><trkpt lat="45.8393404" lon="11.7258772"><ele>1081.3999999999999</ele><time>2026-04-26T13:35:08.023Z</time></trkpt><trkpt lat="45.839468" lon="11.725908"><ele>1081.6</ele><time>2026-04-26T13:35:10.022Z</time></trkpt><trkpt lat="45.839551" lon="11.7259051"><ele>1081.8</ele><time>2026-04-26T13:35:11.017Z</time></trkpt><trkpt lat="45.8396475" lon="11.7258931"><ele>1082.0</ele><time>2026-04-26T13:35:12.018Z</time></trkpt><trkpt lat="45.8397591" lon="11.7259211"><ele>1082.0</ele><time>2026-04-26T13:35:13.016Z</time></trkpt><trkpt lat="45.8398755" lon="11.7259292"><ele>1082.0</ele><time>2026-04-26T13:35:14.028Z</time></trkpt><trkpt lat="45.8399955" lon="11.7259393"><ele>1082.0</ele><time>2026-04-26T13:35:15.018Z</time></trkpt><trkpt lat="45.8401104" lon="11.7259483"><ele>1082.0</ele><time>2026-04-26T13:35:16.003Z</time></trkpt><trkpt lat="45.8402119" lon="11.7259629"><ele>1082.1666666666667</ele><time>2026-04-26T13:35:17.007Z</time></trkpt><trkpt lat="45.8403001" lon="11.7259744"><ele>1082.3333333333335</ele><time>2026-04-26T13:35:18.026Z</time></trkpt><trkpt lat="45.8403737" lon="11.7259864"><ele>1082.5</ele><time>2026-04-26T13:35:19.009Z</time></trkpt><trkpt lat="45.8404451" lon="11.7260067"><ele>1082.6666666666667</ele><time>2026-04-26T13:35:20.013Z</time></trkpt><trkpt lat="45.840504" lon="11.7260491"><ele>1082.8333333333333</ele><time>2026-04-26T13:35:21.013Z</time></trkpt><trkpt lat="45.8405933" lon="11.7261718"><ele>1083.0</ele><time>2026-04-26T13:35:23.009Z</time></trkpt><trkpt lat="45.8406257" lon="11.7262882"><ele>1083.0</ele><time>2026-04-26T13:35:24.024Z</time></trkpt><trkpt lat="45.8406484" lon="11.7264383"><ele>1083.0</ele><time>2026-04-26T13:35:25.024Z</time></trkpt><trkpt lat="45.8406626" lon="11.7265881"><ele>1083.0</ele><time>2026-04-26T13:35:26.017Z</time></trkpt><trkpt lat="45.8406771" lon="11.7267311"><ele>1083.0</ele><time>2026-04-26T13:35:27.008Z</time></trkpt><trkpt lat="45.8406909" lon="11.7268442"><ele>1083.0</ele><time>2026-04-26T13:35:28.024Z</time></trkpt><trkpt lat="45.8407281" lon="11.7269412"><ele>1084.3333333333333</ele><time>2026-04-26T13:35:29.021Z</time></trkpt><trkpt lat="45.8407964" lon="11.7270078"><ele>1085.6666666666667</ele><time>2026-04-26T13:35:30.018Z</time></trkpt><trkpt lat="45.8408813" lon="11.7270404"><ele>1087.0</ele><time>2026-04-26T13:35:31.022Z</time></trkpt><trkpt lat="45.8409627" lon="11.7270478"><ele>1088.3333333333335</ele><time>2026-04-26T13:35:32.004Z</time></trkpt><trkpt lat="45.841028" lon="11.7270587"><ele>1089.6666666666667</ele><time>2026-04-26T13:35:33.025Z</time></trkpt><trkpt lat="45.8410967" lon="11.727088"><ele>1091.0</ele><time>2026-04-26T13:35:34.015Z</time></trkpt><trkpt lat="45.8411572" lon="11.7271611"><ele>1091.0</ele><time>2026-04-26T13:35:35.024Z</time></trkpt><trkpt lat="45.841215" lon="11.7272805"><ele>1091.0</ele><time>2026-04-26T13:35:36.025Z</time></trkpt><trkpt lat="45.841264" lon="11.7273903"><ele>1091.0</ele><time>2026-04-26T13:35:37.027Z</time></trkpt><trkpt lat="45.8413179" lon="11.7274831"><ele>1091.0</ele><time>2026-04-26T13:35:38.015Z</time></trkpt><trkpt lat="45.8413787" lon="11.7275234"><ele>1091.0</ele><time>2026-04-26T13:35:39.028Z</time></trkpt><trkpt lat="45.8414521" lon="11.7275164"><ele>1091.0</ele><time>2026-04-26T13:35:40.022Z</time></trkpt><trkpt lat="45.8415193" lon="11.7274712"><ele>1091.0</ele><time>2026-04-26T13:35:41.016Z</time></trkpt><trkpt lat="45.8415792" lon="11.7273822"><ele>1091.0</ele><time>2026-04-26T13:35:42.009Z</time></trkpt><trkpt lat="45.8416259" lon="11.7272612"><ele>1091.0</ele><time>2026-04-26T13:35:43.023Z</time></trkpt><trkpt lat="45.8416703" lon="11.7271309"><ele>1091.0</ele><time>2026-04-26T13:35:44.021Z</time></trkpt><trkpt lat="45.8417211" lon="11.7270028"><ele>1091.0</ele><time>2026-04-26T13:35:45.021Z</time></trkpt><trkpt lat="45.8417794" lon="11.7268816"><ele>1089.3999999999999</ele><time>2026-04-26T13:35:46.018Z</time></trkpt><trkpt lat="45.8418111" lon="11.7267703"><ele>1087.8</ele><time>2026-04-26T13:35:47.025Z</time></trkpt><trkpt lat="45.8418184" lon="11.7266733"><ele>1086.1999999999998</ele><time>2026-04-26T13:35:48.027Z</time></trkpt><trkpt lat="45.8417993" lon="11.7264895"><ele>1084.6</ele><time>2026-04-26T13:35:50.023Z</time></trkpt><trkpt lat="45.8417955" lon="11.7263255"><ele>1083.0</ele><time>2026-04-26T13:35:52.021Z</time></trkpt><trkpt lat="45.8418141" lon="11.7261482"><ele>1083.0</ele><time>2026-04-26T13:35:54.024Z</time></trkpt><trkpt lat="45.8418381" lon="11.7260644"><ele>1083.0</ele><time>2026-04-26T13:35:55.019Z</time></trkpt><trkpt lat="45.8419018" lon="11.7259616"><ele>1083.0</ele><time>2026-04-26T13:35:57.03Z</time></trkpt><trkpt lat="45.8419675" lon="11.725951"><ele>1083.0</ele><time>2026-04-26T13:35:58.016Z</time></trkpt><trkpt lat="45.8420437" lon="11.7259404"><ele>1083.0</ele><time>2026-04-26T13:35:59.01Z</time></trkpt><trkpt lat="45.8421473" lon="11.7259316"><ele>1083.0</ele><time>2026-04-26T13:36:00.02Z</time></trkpt><trkpt lat="45.8422667" lon="11.7259203"><ele>1083.0</ele><time>2026-04-26T13:36:01.019Z</time></trkpt><trkpt lat="45.8423852" lon="11.7259068"><ele>1083.0</ele><time>2026-04-26T13:36:02.017Z</time></trkpt><trkpt lat="45.8425125" lon="11.7258926"><ele>1083.0</ele><time>2026-04-26T13:36:03.027Z</time></trkpt><trkpt lat="45.8426311" lon="11.725879"><ele>1083.0</ele><time>2026-04-26T13:36:04.021Z</time></trkpt><trkpt lat="45.8427499" lon="11.7258602"><ele>1085.6</ele><time>2026-04-26T13:36:05.005Z</time></trkpt><trkpt lat="45.8428677" lon="11.7258481"><ele>1088.1999999999998</ele><time>2026-04-26T13:36:06.017Z</time></trkpt><trkpt lat="45.8429831" lon="11.7258303"><ele>1090.8</ele><time>2026-04-26T13:36:07.016Z</time></trkpt><trkpt lat="45.8430832" lon="11.7258172"><ele>1093.3999999999999</ele><time>2026-04-26T13:36:08.017Z</time></trkpt><trkpt lat="45.8431707" lon="11.7257891"><ele>1096.0</ele><time>2026-04-26T13:36:09.01Z</time></trkpt><trkpt lat="45.8432472" lon="11.7257699"><ele>1096.0</ele><time>2026-04-26T13:36:10.019Z</time></trkpt><trkpt lat="45.8433244" lon="11.7257395"><ele>1096.0</ele><time>2026-04-26T13:36:11.009Z</time></trkpt><trkpt lat="45.8434025" lon="11.7256227"><ele>1096.0</ele><time>2026-04-26T13:36:13.01Z</time></trkpt><trkpt lat="45.8433903" lon="11.725451"><ele>1096.0</ele><time>2026-04-26T13:36:15.01Z</time></trkpt><trkpt lat="45.8433546" lon="11.7253165"><ele>1096.0</ele><time>2026-04-26T13:36:16.015Z</time></trkpt><trkpt lat="45.8433061" lon="11.7251694"><ele>1093.75</ele><time>2026-04-26T13:36:17.017Z</time></trkpt><trkpt lat="45.8432426" lon="11.724997"><ele>1091.5</ele><time>2026-04-26T13:36:18.012Z</time></trkpt><trkpt lat="45.8431655" lon="11.7248054"><ele>1089.25</ele><time>2026-04-26T13:36:19.016Z</time></trkpt><trkpt lat="45.8430901" lon="11.7246437"><ele>1087.0</ele><time>2026-04-26T13:36:20.054Z</time></trkpt><trkpt lat="45.8430159" lon="11.7244941"><ele>1088.0</ele><time>2026-04-26T13:36:21.017Z</time></trkpt><trkpt lat="45.8429448" lon="11.7243419"><ele>1089.0</ele><time>2026-04-26T13:36:22.014Z</time></trkpt><trkpt lat="45.8428916" lon="11.7242338"><ele>1090.0</ele><time>2026-04-26T13:36:23.009Z</time></trkpt><trkpt lat="45.8428574" lon="11.7241311"><ele>1091.0</ele><time>2026-04-26T13:36:24.014Z</time></trkpt><trkpt lat="45.842834" lon="11.7240118"><ele>1092.0</ele><time>2026-04-26T13:36:25.003Z</time></trkpt><trkpt lat="45.8428263" lon="11.7238944"><ele>1092.0</ele><time>2026-04-26T13:36:26.01Z</time></trkpt><trkpt lat="45.8428182" lon="11.7237798"><ele>1092.0</ele><time>2026-04-26T13:36:27.012Z</time></trkpt><trkpt lat="45.8428424" lon="11.7236497"><ele>1092.0</ele><time>2026-04-26T13:36:28.011Z</time></trkpt><trkpt lat="45.8428793" lon="11.7235054"><ele>1092.0</ele><time>2026-04-26T13:36:29.023Z</time></trkpt><trkpt lat="45.8429181" lon="11.7233635"><ele>1092.0</ele><time>2026-04-26T13:36:30.018Z</time></trkpt><trkpt lat="45.8429493" lon="11.7232341"><ele>1090.8333333333333</ele><time>2026-04-26T13:36:31.005Z</time></trkpt><trkpt lat="45.8429842" lon="11.7231366"><ele>1089.6666666666667</ele><time>2026-04-26T13:36:32.021Z</time></trkpt><trkpt lat="45.8430169" lon="11.7230543"><ele>1088.5</ele><time>2026-04-26T13:36:33.018Z</time></trkpt><trkpt lat="45.8431227" lon="11.7229833"><ele>1087.3333333333335</ele><time>2026-04-26T13:36:35.023Z</time></trkpt><trkpt lat="45.8431891" lon="11.7229971"><ele>1086.1666666666667</ele><time>2026-04-26T13:36:36.02Z</time></trkpt><trkpt lat="45.843262" lon="11.7230105"><ele>1085.0</ele><time>2026-04-26T13:36:37.023Z</time></trkpt><trkpt lat="45.8433425" lon="11.7230512"><ele>1085.0</ele><time>2026-04-26T13:36:38.018Z</time></trkpt><trkpt lat="45.8434208" lon="11.7230938"><ele>1085.0</ele><time>2026-04-26T13:36:39.018Z</time></trkpt><trkpt lat="45.8435001" lon="11.7231289"><ele>1085.0</ele><time>2026-04-26T13:36:40.025Z</time></trkpt><trkpt lat="45.8435795" lon="11.7231915"><ele>1085.0</ele><time>2026-04-26T13:36:41.01Z</time></trkpt><trkpt lat="45.8436581" lon="11.7232656"><ele>1085.0</ele><time>2026-04-26T13:36:42.013Z</time></trkpt><trkpt lat="45.8437304" lon="11.7233284"><ele>1085.0</ele><time>2026-04-26T13:36:43.011Z</time></trkpt><trkpt lat="45.8437983" lon="11.7233556"><ele>1086.5</ele><time>2026-04-26T13:36:44.021Z</time></trkpt><trkpt lat="45.8438689" lon="11.7233765"><ele>1088.0</ele><time>2026-04-26T13:36:45.008Z</time></trkpt><trkpt lat="45.8439364" lon="11.7233316"><ele>1089.5</ele><time>2026-04-26T13:36:46.013Z</time></trkpt><trkpt lat="45.8440084" lon="11.7232528"><ele>1091.0</ele><time>2026-04-26T13:36:47.019Z</time></trkpt><trkpt lat="45.8440812" lon="11.7231683"><ele>1092.5</ele><time>2026-04-26T13:36:48.013Z</time></trkpt><trkpt lat="45.8441573" lon="11.7230871"><ele>1094.0</ele><time>2026-04-26T13:36:49.015Z</time></trkpt><trkpt lat="45.8442324" lon="11.7230072"><ele>1096.1666666666667</ele><time>2026-04-26T13:36:50.026Z</time></trkpt><trkpt lat="45.8443027" lon="11.722937"><ele>1098.3333333333335</ele><time>2026-04-26T13:36:51.006Z</time></trkpt><trkpt lat="45.8443795" lon="11.7228957"><ele>1100.5</ele><time>2026-04-26T13:36:52.01Z</time></trkpt><trkpt lat="45.8444489" lon="11.7228562"><ele>1102.6666666666667</ele><time>2026-04-26T13:36:53.006Z</time></trkpt><trkpt lat="45.8445555" lon="11.7228071"><ele>1104.8333333333333</ele><time>2026-04-26T13:36:55.009Z</time></trkpt><trkpt lat="45.844616" lon="11.7227088"><ele>1107.0</ele><time>2026-04-26T13:36:57.018Z</time></trkpt><trkpt lat="45.844575" lon="11.7225756"><ele>1108.0</ele><time>2026-04-26T13:36:59.017Z</time></trkpt><trkpt lat="45.844514" lon="11.7224695"><ele>1109.0</ele><time>2026-04-26T13:37:00.016Z</time></trkpt><trkpt lat="45.8444197" lon="11.7223425"><ele>1110.0</ele><time>2026-04-26T13:37:01.016Z</time></trkpt><trkpt lat="45.8443401" lon="11.7222074"><ele>1111.0</ele><time>2026-04-26T13:37:02.007Z</time></trkpt><trkpt lat="45.8442593" lon="11.7220505"><ele>1106.3999999999999</ele><time>2026-04-26T13:37:03.015Z</time></trkpt><trkpt lat="45.8441891" lon="11.7219023"><ele>1101.8</ele><time>2026-04-26T13:37:04.012Z</time></trkpt><trkpt lat="45.8441274" lon="11.7217721"><ele>1097.1999999999998</ele><time>2026-04-26T13:37:05.009Z</time></trkpt><trkpt lat="45.8440713" lon="11.7216389"><ele>1092.6</ele><time>2026-04-26T13:37:06.016Z</time></trkpt><trkpt lat="45.8440272" lon="11.721523"><ele>1088.0</ele><time>2026-04-26T13:37:07.012Z</time></trkpt><trkpt lat="45.8439832" lon="11.7214123"><ele>1088.0</ele><time>2026-04-26T13:37:08.009Z</time></trkpt><trkpt lat="45.8439419" lon="11.7213092"><ele>1088.0</ele><time>2026-04-26T13:37:09.016Z</time></trkpt><trkpt lat="45.8439016" lon="11.7212075"><ele>1088.0</ele><time>2026-04-26T13:37:10.005Z</time></trkpt><trkpt lat="45.8438609" lon="11.7211108"><ele>1088.0</ele><time>2026-04-26T13:37:11.003Z</time></trkpt><trkpt lat="45.8438204" lon="11.7210135"><ele>1088.0</ele><time>2026-04-26T13:37:12.014Z</time></trkpt><trkpt lat="45.8437757" lon="11.7209197"><ele>1088.0</ele><time>2026-04-26T13:37:13.022Z</time></trkpt><trkpt lat="45.8437347" lon="11.7208147"><ele>1090.2</ele><time>2026-04-26T13:37:14.008Z</time></trkpt><trkpt lat="45.8436882" lon="11.7207082"><ele>1092.4</ele><time>2026-04-26T13:37:15.016Z</time></trkpt><trkpt lat="45.8436379" lon="11.7205846"><ele>1094.6000000000001</ele><time>2026-04-26T13:37:16.01Z</time></trkpt><trkpt lat="45.8435791" lon="11.7204603"><ele>1096.8</ele><time>2026-04-26T13:37:17.005Z</time></trkpt><trkpt lat="45.8435339" lon="11.7203503"><ele>1099.0</ele><time>2026-04-26T13:37:18.016Z</time></trkpt><trkpt lat="45.8435039" lon="11.7202575"><ele>1098.6000000000001</ele><time>2026-04-26T13:37:19.016Z</time></trkpt><trkpt lat="45.8435319" lon="11.7200628"><ele>1098.2</ele><time>2026-04-26T13:37:21.008Z</time></trkpt><trkpt lat="45.8435774" lon="11.7199538"><ele>1097.8000000000002</ele><time>2026-04-26T13:37:22.016Z</time></trkpt><trkpt lat="45.8436253" lon="11.719815"><ele>1097.4</ele><time>2026-04-26T13:37:23.019Z</time></trkpt><trkpt lat="45.8436608" lon="11.7196771"><ele>1097.0</ele><time>2026-04-26T13:37:24.011Z</time></trkpt><trkpt lat="45.8436823" lon="11.7195459"><ele>1097.0</ele><time>2026-04-26T13:37:25.011Z</time></trkpt><trkpt lat="45.8437164" lon="11.7194313"><ele>1097.0</ele><time>2026-04-26T13:37:26.027Z</time></trkpt><trkpt lat="45.8437612" lon="11.7193584"><ele>1097.0</ele><time>2026-04-26T13:37:27.008Z</time></trkpt><trkpt lat="45.843885" lon="11.7193326"><ele>1097.0</ele><time>2026-04-26T13:37:29.02Z</time></trkpt><trkpt lat="45.84396" lon="11.7193664"><ele>1097.0</ele><time>2026-04-26T13:37:30.015Z</time></trkpt><trkpt lat="45.8440359" lon="11.7194265"><ele>1097.0</ele><time>2026-04-26T13:37:31.022Z</time></trkpt><trkpt lat="45.8441291" lon="11.7195159"><ele>1097.0</ele><time>2026-04-26T13:37:32.015Z</time></trkpt><trkpt lat="45.8442336" lon="11.7196092"><ele>1097.0</ele><time>2026-04-26T13:37:33.002Z</time></trkpt><trkpt lat="45.8443669" lon="11.7197094"><ele>1097.0</ele><time>2026-04-26T13:37:34.007Z</time></trkpt><trkpt lat="45.8444858" lon="11.7197861"><ele>1097.0</ele><time>2026-04-26T13:37:35.019Z</time></trkpt><trkpt lat="45.844592" lon="11.7198566"><ele>1096.8333333333335</ele><time>2026-04-26T13:37:36.01Z</time></trkpt><trkpt lat="45.8446862" lon="11.7199344"><ele>1096.6666666666667</ele><time>2026-04-26T13:37:37.005Z</time></trkpt><trkpt lat="45.8447636" lon="11.7200027"><ele>1096.5</ele><time>2026-04-26T13:37:38.018Z</time></trkpt><trkpt lat="45.8448282" lon="11.7200467"><ele>1096.3333333333333</ele><time>2026-04-26T13:37:39.019Z</time></trkpt><trkpt lat="45.8449066" lon="11.7200781"><ele>1096.1666666666665</ele><time>2026-04-26T13:37:40.007Z</time></trkpt><trkpt lat="45.8449923" lon="11.7201122"><ele>1096.0</ele><time>2026-04-26T13:37:41.008Z</time></trkpt><trkpt lat="45.8450967" lon="11.7201054"><ele>1100.75</ele><time>2026-04-26T13:37:42.011Z</time></trkpt><trkpt lat="45.8452114" lon="11.7200506"><ele>1105.5</ele><time>2026-04-26T13:37:43.004Z</time></trkpt><trkpt lat="45.8453261" lon="11.7199548"><ele>1110.25</ele><time>2026-04-26T13:37:44.01Z</time></trkpt><trkpt lat="45.8454434" lon="11.7198548"><ele>1115.0</ele><time>2026-04-26T13:37:45.009Z</time></trkpt><trkpt lat="45.845539" lon="11.7197719"><ele>1115.0</ele><time>2026-04-26T13:37:46.014Z</time></trkpt><trkpt lat="45.8456299" lon="11.7196943"><ele>1115.0</ele><time>2026-04-26T13:37:47.003Z</time></trkpt><trkpt lat="45.8457184" lon="11.7196084"><ele>1115.0</ele><time>2026-04-26T13:37:48.017Z</time></trkpt><trkpt lat="45.8458071" lon="11.7195266"><ele>1115.0</ele><time>2026-04-26T13:37:49.011Z</time></trkpt><trkpt lat="45.8458827" lon="11.7194362"><ele>1115.0</ele><time>2026-04-26T13:37:50.017Z</time></trkpt><trkpt lat="45.8459401" lon="11.719318"><ele>1116.2</ele><time>2026-04-26T13:37:51.006Z</time></trkpt><trkpt lat="45.8459829" lon="11.7191948"><ele>1117.4</ele><time>2026-04-26T13:37:52.026Z</time></trkpt><trkpt lat="45.8460154" lon="11.7190582"><ele>1118.6</ele><time>2026-04-26T13:37:53.018Z</time></trkpt><trkpt lat="45.846046" lon="11.7189185"><ele>1119.8</ele><time>2026-04-26T13:37:54.017Z</time></trkpt><trkpt lat="45.8460706" lon="11.7187669"><ele>1121.0</ele><time>2026-04-26T13:37:55.015Z</time></trkpt><trkpt lat="45.8460831" lon="11.7186144"><ele>1117.3999999999999</ele><time>2026-04-26T13:37:56.023Z</time></trkpt><trkpt lat="45.8460859" lon="11.7184596"><ele>1113.8</ele><time>2026-04-26T13:37:57.014Z</time></trkpt><trkpt lat="45.8460906" lon="11.7183095"><ele>1110.1999999999998</ele><time>2026-04-26T13:37:58.02Z</time></trkpt><trkpt lat="45.8460914" lon="11.7181611"><ele>1106.6</ele><time>2026-04-26T13:37:59.014Z</time></trkpt><trkpt lat="45.8460928" lon="11.7180254"><ele>1103.0</ele><time>2026-04-26T13:38:00.01Z</time></trkpt><trkpt lat="45.846093" lon="11.7179062"><ele>1103.0</ele><time>2026-04-26T13:38:01.014Z</time></trkpt><trkpt lat="45.846106" lon="11.7178098"><ele>1103.0</ele><time>2026-04-26T13:38:02.014Z</time></trkpt><trkpt lat="45.84618" lon="11.7176708"><ele>1103.0</ele><time>2026-04-26T13:38:04.031Z</time></trkpt><trkpt lat="45.8462459" lon="11.7175999"><ele>1103.0</ele><time>2026-04-26T13:38:05.026Z</time></trkpt><trkpt lat="45.8463363" lon="11.7175323"><ele>1103.0</ele><time>2026-04-26T13:38:06.024Z</time></trkpt><trkpt lat="45.8464361" lon="11.7175078"><ele>1101.6666666666667</ele><time>2026-04-26T13:38:07.019Z</time></trkpt><trkpt lat="45.846522" lon="11.7175105"><ele>1100.3333333333335</ele><time>2026-04-26T13:38:08.029Z</time></trkpt><trkpt lat="45.846596" lon="11.717533"><ele>1099.0</ele><time>2026-04-26T13:38:09.02Z</time></trkpt><trkpt lat="45.8466735" lon="11.717583"><ele>1097.6666666666667</ele><time>2026-04-26T13:38:10.009Z</time></trkpt><trkpt lat="45.8467456" lon="11.7176425"><ele>1096.3333333333333</ele><time>2026-04-26T13:38:11.015Z</time></trkpt><trkpt lat="45.8468123" lon="11.717713"><ele>1095.0</ele><time>2026-04-26T13:38:12.023Z</time></trkpt><trkpt lat="45.8468752" lon="11.7177818"><ele>1098.1666666666667</ele><time>2026-04-26T13:38:13.026Z</time></trkpt><trkpt lat="45.8469375" lon="11.7178461"><ele>1101.3333333333333</ele><time>2026-04-26T13:38:14.025Z</time></trkpt><trkpt lat="45.8469937" lon="11.7178922"><ele>1104.5</ele><time>2026-04-26T13:38:15.019Z</time></trkpt><trkpt lat="45.8471217" lon="11.7179394"><ele>1107.6666666666665</ele><time>2026-04-26T13:38:17.016Z</time></trkpt><trkpt lat="45.8471972" lon="11.7179317"><ele>1110.8333333333333</ele><time>2026-04-26T13:38:18.01Z</time></trkpt><trkpt lat="45.8472767" lon="11.717921"><ele>1114.0</ele><time>2026-04-26T13:38:19.009Z</time></trkpt><trkpt lat="45.8473625" lon="11.7178612"><ele>1114.0</ele><time>2026-04-26T13:38:20.018Z</time></trkpt><trkpt lat="45.8474458" lon="11.7178013"><ele>1114.0</ele><time>2026-04-26T13:38:21.014Z</time></trkpt><trkpt lat="45.8475109" lon="11.7176897"><ele>1114.0</ele><time>2026-04-26T13:38:22.013Z</time></trkpt><trkpt lat="45.8475795" lon="11.7175656"><ele>1114.0</ele><time>2026-04-26T13:38:23.015Z</time></trkpt><trkpt lat="45.8476308" lon="11.7174208"><ele>1114.0</ele><time>2026-04-26T13:38:24.021Z</time></trkpt><trkpt lat="45.8476751" lon="11.7172647"><ele>1115.0</ele><time>2026-04-26T13:38:25.022Z</time></trkpt><trkpt lat="45.8477172" lon="11.7171132"><ele>1116.0</ele><time>2026-04-26T13:38:26.015Z</time></trkpt><trkpt lat="45.847758" lon="11.716978"><ele>1117.0</ele><time>2026-04-26T13:38:27.018Z</time></trkpt><trkpt lat="45.8477953" lon="11.716853"><ele>1118.0</ele><time>2026-04-26T13:38:28.015Z</time></trkpt><trkpt lat="45.8478363" lon="11.7167599"><ele>1119.0</ele><time>2026-04-26T13:38:29.011Z</time></trkpt><trkpt lat="45.8479109" lon="11.7166983"><ele>1114.0</ele><time>2026-04-26T13:38:30.02Z</time></trkpt><trkpt lat="45.8480015" lon="11.7166489"><ele>1109.0</ele><time>2026-04-26T13:38:31.016Z</time></trkpt><trkpt lat="45.8480985" lon="11.7165979"><ele>1104.0</ele><time>2026-04-26T13:38:32.019Z</time></trkpt><trkpt lat="45.8482032" lon="11.7165653"><ele>1099.0</ele><time>2026-04-26T13:38:33.024Z</time></trkpt><trkpt lat="45.848311" lon="11.7165438"><ele>1094.0</ele><time>2026-04-26T13:38:34.019Z</time></trkpt><trkpt lat="45.8484206" lon="11.7165343"><ele>1096.8</ele><time>2026-04-26T13:38:35.019Z</time></trkpt><trkpt lat="45.8485306" lon="11.7165407"><ele>1099.6000000000001</ele><time>2026-04-26T13:38:36.025Z</time></trkpt><trkpt lat="45.8486403" lon="11.7165595"><ele>1102.4</ele><time>2026-04-26T13:38:37.03Z</time></trkpt><trkpt lat="45.8487442" lon="11.7165898"><ele>1105.2</ele><time>2026-04-26T13:38:38.021Z</time></trkpt><trkpt lat="45.848838" lon="11.7166266"><ele>1108.0</ele><time>2026-04-26T13:38:39.015Z</time></trkpt><trkpt lat="45.8489173" lon="11.7166542"><ele>1108.0</ele><time>2026-04-26T13:38:40.015Z</time></trkpt><trkpt lat="45.8489926" lon="11.7166507"><ele>1108.0</ele><time>2026-04-26T13:38:41.005Z</time></trkpt><trkpt lat="45.8490614" lon="11.7166172"><ele>1108.0</ele><time>2026-04-26T13:38:42.012Z</time></trkpt><trkpt lat="45.8491338" lon="11.7165765"><ele>1108.0</ele><time>2026-04-26T13:38:43.009Z</time></trkpt><trkpt lat="45.8491933" lon="11.7164713"><ele>1108.0</ele><time>2026-04-26T13:38:44.016Z</time></trkpt><trkpt lat="45.8492589" lon="11.716344"><ele>1108.0</ele><time>2026-04-26T13:38:45.012Z</time></trkpt><trkpt lat="45.8493258" lon="11.7162109"><ele>1108.0</ele><time>2026-04-26T13:38:46.008Z</time></trkpt><trkpt lat="45.8493927" lon="11.7160822"><ele>1108.0</ele><time>2026-04-26T13:38:47.007Z</time></trkpt><trkpt lat="45.8494547" lon="11.7159737"><ele>1108.0</ele><time>2026-04-26T13:38:48.011Z</time></trkpt><trkpt lat="45.8495136" lon="11.715874"><ele>1108.0</ele><time>2026-04-26T13:38:49.01Z</time></trkpt><trkpt lat="45.8495906" lon="11.7158057"><ele>1108.0</ele><time>2026-04-26T13:38:50.038Z</time></trkpt><trkpt lat="45.8496812" lon="11.7157539"><ele>1108.0</ele><time>2026-04-26T13:38:51.009Z</time></trkpt><trkpt lat="45.8497791" lon="11.7157176"><ele>1108.0</ele><time>2026-04-26T13:38:52.012Z</time></trkpt><trkpt lat="45.8498782" lon="11.7156811"><ele>1108.0</ele><time>2026-04-26T13:38:53.015Z</time></trkpt><trkpt lat="45.8499795" lon="11.7156638"><ele>1108.0</ele><time>2026-04-26T13:38:54.01Z</time></trkpt><trkpt lat="45.8500615" lon="11.7156503"><ele>1108.0</ele><time>2026-04-26T13:38:55.006Z</time></trkpt><trkpt lat="45.8501364" lon="11.7156339"><ele>1110.0</ele><time>2026-04-26T13:38:56.016Z</time></trkpt><trkpt lat="45.8502007" lon="11.7155821"><ele>1112.0</ele><time>2026-04-26T13:38:57.009Z</time></trkpt><trkpt lat="45.850236" lon="11.7154932"><ele>1114.0</ele><time>2026-04-26T13:38:58.009Z</time></trkpt><trkpt lat="45.8502493" lon="11.7153791"><ele>1116.0</ele><time>2026-04-26T13:38:59.011Z</time></trkpt><trkpt lat="45.8502556" lon="11.7152636"><ele>1118.0</ele><time>2026-04-26T13:39:00.011Z</time></trkpt><trkpt lat="45.8502775" lon="11.7151603"><ele>1120.0</ele><time>2026-04-26T13:39:01.006Z</time></trkpt><trkpt lat="45.8503188" lon="11.7150781"><ele>1120.0</ele><time>2026-04-26T13:39:02.017Z</time></trkpt><trkpt lat="45.8503714" lon="11.715015"><ele>1120.0</ele><time>2026-04-26T13:39:03.02Z</time></trkpt><trkpt lat="45.8504256" lon="11.7149549"><ele>1120.0</ele><time>2026-04-26T13:39:04.015Z</time></trkpt><trkpt lat="45.8504841" lon="11.7149112"><ele>1120.0</ele><time>2026-04-26T13:39:05.015Z</time></trkpt><trkpt lat="45.8505387" lon="11.7148519"><ele>1120.0</ele><time>2026-04-26T13:39:06.014Z</time></trkpt><trkpt lat="45.850573" lon="11.7147709"><ele>1120.0</ele><time>2026-04-26T13:39:07.01Z</time></trkpt><trkpt lat="45.8505752" lon="11.7146748"><ele>1120.0</ele><time>2026-04-26T13:39:08.023Z</time></trkpt><trkpt lat="45.8505766" lon="11.7145662"><ele>1120.0</ele><time>2026-04-26T13:39:09.015Z</time></trkpt><trkpt lat="45.8505507" lon="11.7144556"><ele>1120.0</ele><time>2026-04-26T13:39:10.01Z</time></trkpt><trkpt lat="45.850525" lon="11.7143465"><ele>1120.0</ele><time>2026-04-26T13:39:11.019Z</time></trkpt><trkpt lat="45.8504865" lon="11.7142425"><ele>1120.0</ele><time>2026-04-26T13:39:12.006Z</time></trkpt><trkpt lat="45.8504402" lon="11.7141254"><ele>1120.0</ele><time>2026-04-26T13:39:13.014Z</time></trkpt><trkpt lat="45.8503569" lon="11.7140259"><ele>1120.0</ele><time>2026-04-26T13:39:14.015Z</time></trkpt><trkpt lat="45.8502816" lon="11.713937"><ele>1121.0</ele><time>2026-04-26T13:39:15.016Z</time></trkpt><trkpt lat="45.8502045" lon="11.7138757"><ele>1122.0</ele><time>2026-04-26T13:39:16.012Z</time></trkpt><trkpt lat="45.8501272" lon="11.7138141"><ele>1123.0</ele><time>2026-04-26T13:39:17.026Z</time></trkpt><trkpt lat="45.8500599" lon="11.7137732"><ele>1124.0</ele><time>2026-04-26T13:39:18.015Z</time></trkpt><trkpt lat="45.8499964" lon="11.7137416"><ele>1125.0</ele><time>2026-04-26T13:39:19.013Z</time></trkpt><trkpt lat="45.8498856" lon="11.7136876"><ele>1126.0</ele><time>2026-04-26T13:39:21.015Z</time></trkpt><trkpt lat="45.8497849" lon="11.7136094"><ele>1125.5</ele><time>2026-04-26T13:39:23.018Z</time></trkpt><trkpt lat="45.8496769" lon="11.7135098"><ele>1125.0</ele><time>2026-04-26T13:39:25.019Z</time></trkpt><trkpt lat="45.8496237" lon="11.7134447"><ele>1124.5</ele><time>2026-04-26T13:39:26.013Z</time></trkpt><trkpt lat="45.8495703" lon="11.7133723"><ele>1124.0</ele><time>2026-04-26T13:39:27.012Z</time></trkpt><trkpt lat="45.8495108" lon="11.7132838"><ele>1123.5</ele><time>2026-04-26T13:39:28.022Z</time></trkpt><trkpt lat="45.8494503" lon="11.7131855"><ele>1123.0</ele><time>2026-04-26T13:39:29.011Z</time></trkpt><trkpt lat="45.8494017" lon="11.7130893"><ele>1123.0</ele><time>2026-04-26T13:39:30.021Z</time></trkpt><trkpt lat="45.8493663" lon="11.7129848"><ele>1123.0</ele><time>2026-04-26T13:39:31.021Z</time></trkpt><trkpt lat="45.8493456" lon="11.7128643"><ele>1123.0</ele><time>2026-04-26T13:39:32.009Z</time></trkpt><trkpt lat="45.8493427" lon="11.7127387"><ele>1123.0</ele><time>2026-04-26T13:39:33.017Z</time></trkpt><trkpt lat="45.8493427" lon="11.7126176"><ele>1123.0</ele><time>2026-04-26T13:39:34.011Z</time></trkpt><trkpt lat="45.8493636" lon="11.7124896"><ele>1123.0</ele><time>2026-04-26T13:39:35.019Z</time></trkpt><trkpt lat="45.8493806" lon="11.7123495"><ele>1123.2</ele><time>2026-04-26T13:39:36.008Z</time></trkpt><trkpt lat="45.8493919" lon="11.7121979"><ele>1123.4</ele><time>2026-04-26T13:39:37.018Z</time></trkpt><trkpt lat="45.8493884" lon="11.7120627"><ele>1123.6000000000001</ele><time>2026-04-26T13:39:38.008Z</time></trkpt><trkpt lat="45.8493685" lon="11.7119379"><ele>1123.8</ele><time>2026-04-26T13:39:39.026Z</time></trkpt><trkpt lat="45.8493308" lon="11.7118234"><ele>1124.0</ele><time>2026-04-26T13:39:40.014Z</time></trkpt><trkpt lat="45.8492558" lon="11.7117153"><ele>1124.0</ele><time>2026-04-26T13:39:41.01Z</time></trkpt><trkpt lat="45.8491684" lon="11.7116109"><ele>1124.0</ele><time>2026-04-26T13:39:42.011Z</time></trkpt><trkpt lat="45.8490742" lon="11.7115091"><ele>1124.0</ele><time>2026-04-26T13:39:43.012Z</time></trkpt><trkpt lat="45.8489913" lon="11.7114228"><ele>1124.0</ele><time>2026-04-26T13:39:44.001Z</time></trkpt><trkpt lat="45.8489248" lon="11.7113565"><ele>1124.0</ele><time>2026-04-26T13:39:45.019Z</time></trkpt><trkpt lat="45.8488696" lon="11.7112286"><ele>1124.0</ele><time>2026-04-26T13:39:47.017Z</time></trkpt><trkpt lat="45.8488656" lon="11.7111236"><ele>1124.0</ele><time>2026-04-26T13:39:49.016Z</time></trkpt><trkpt lat="45.8489121" lon="11.7110306"><ele>1124.0</ele><time>2026-04-26T13:39:51.024Z</time></trkpt><trkpt lat="45.8490178" lon="11.710936"><ele>1124.0</ele><time>2026-04-26T13:39:53.006Z</time></trkpt><trkpt lat="45.8490679" lon="11.7108704"><ele>1124.0</ele><time>2026-04-26T13:39:54.009Z</time></trkpt><trkpt lat="45.8491444" lon="11.7107532"><ele>1124.0</ele><time>2026-04-26T13:39:56.009Z</time></trkpt><trkpt lat="45.8492127" lon="11.7106477"><ele>1124.0</ele><time>2026-04-26T13:39:58.038Z</time></trkpt><trkpt lat="45.8492853" lon="11.7105757"><ele>1124.0</ele><time>2026-04-26T13:40:00.01Z</time></trkpt><trkpt lat="45.8493511" lon="11.7105265"><ele>1124.0</ele><time>2026-04-26T13:40:02.025Z</time></trkpt><trkpt lat="45.8494318" lon="11.7104854"><ele>1124.0</ele><time>2026-04-26T13:40:20.027Z</time></trkpt><trkpt lat="45.8495356" lon="11.7104316"><ele>1127.2857142857144</ele><time>2026-04-26T13:40:22.027Z</time></trkpt><trkpt lat="45.8496043" lon="11.7104042"><ele>1130.5714285714287</ele><time>2026-04-26T13:40:23.013Z</time></trkpt><trkpt lat="45.8496752" lon="11.7103859"><ele>1133.857142857143</ele><time>2026-04-26T13:40:24.012Z</time></trkpt><trkpt lat="45.8497437" lon="11.7103801"><ele>1137.1428571428573</ele><time>2026-04-26T13:40:25.025Z</time></trkpt><trkpt lat="45.8498179" lon="11.7103944"><ele>1140.4285714285716</ele><time>2026-04-26T13:40:26.013Z</time></trkpt><trkpt lat="45.8498943" lon="11.7104083"><ele>1143.7142857142858</ele><time>2026-04-26T13:40:27.025Z</time></trkpt><trkpt lat="45.8499712" lon="11.710426"><ele>1147.0</ele><time>2026-04-26T13:40:28.022Z</time></trkpt><trkpt lat="45.8500521" lon="11.7104357"><ele>1146.8</ele><time>2026-04-26T13:40:29.014Z</time></trkpt><trkpt lat="45.8501471" lon="11.7104281"><ele>1146.6</ele><time>2026-04-26T13:40:30.024Z</time></trkpt><trkpt lat="45.8502379" lon="11.7103869"><ele>1146.3999999999999</ele><time>2026-04-26T13:40:31.021Z</time></trkpt><trkpt lat="45.8503219" lon="11.7103037"><ele>1146.2</ele><time>2026-04-26T13:40:32.016Z</time></trkpt><trkpt lat="45.8504005" lon="11.710218"><ele>1146.0</ele><time>2026-04-26T13:40:33.005Z</time></trkpt><trkpt lat="45.8504831" lon="11.710124"><ele>1146.0</ele><time>2026-04-26T13:40:34.014Z</time></trkpt><trkpt lat="45.8505642" lon="11.710028"><ele>1146.0</ele><time>2026-04-26T13:40:35.016Z</time></trkpt><trkpt lat="45.8506238" lon="11.7098966"><ele>1146.0</ele><time>2026-04-26T13:40:36.013Z</time></trkpt><trkpt lat="45.8506799" lon="11.7097544"><ele>1146.0</ele><time>2026-04-26T13:40:37.006Z</time></trkpt><trkpt lat="45.8507322" lon="11.7096269"><ele>1146.0</ele><time>2026-04-26T13:40:38.023Z</time></trkpt><trkpt lat="45.8507783" lon="11.7095078"><ele>1145.6</ele><time>2026-04-26T13:40:39.02Z</time></trkpt><trkpt lat="45.8508243" lon="11.7094025"><ele>1145.1999999999998</ele><time>2026-04-26T13:40:40.015Z</time></trkpt><trkpt lat="45.8508953" lon="11.7093307"><ele>1144.8000000000002</ele><time>2026-04-26T13:40:41.012Z</time></trkpt><trkpt lat="45.8509782" lon="11.709279"><ele>1144.4</ele><time>2026-04-26T13:40:42.034Z</time></trkpt><trkpt lat="45.8510653" lon="11.7092527"><ele>1144.0</ele><time>2026-04-26T13:40:43.007Z</time></trkpt><trkpt lat="45.8511627" lon="11.7092508"><ele>1144.0</ele><time>2026-04-26T13:40:45.018Z</time></trkpt><trkpt lat="45.8512398" lon="11.709279"><ele>1144.0</ele><time>2026-04-26T13:40:47.027Z</time></trkpt><trkpt lat="45.8513136" lon="11.7093397"><ele>1144.0</ele><time>2026-04-26T13:40:49.013Z</time></trkpt><trkpt lat="45.8513968" lon="11.7093961"><ele>1144.0</ele><time>2026-04-26T13:40:51.009Z</time></trkpt><trkpt lat="45.8515114" lon="11.709389"><ele>1144.0</ele><time>2026-04-26T13:40:53.019Z</time></trkpt><trkpt lat="45.8515648" lon="11.7093177"><ele>1144.0</ele><time>2026-04-26T13:40:54.015Z</time></trkpt><trkpt lat="45.8516049" lon="11.7092024"><ele>1144.0</ele><time>2026-04-26T13:40:55.006Z</time></trkpt><trkpt lat="45.8516615" lon="11.7090798"><ele>1144.0</ele><time>2026-04-26T13:40:56.014Z</time></trkpt><trkpt lat="45.8517287" lon="11.7089375"><ele>1144.0</ele><time>2026-04-26T13:40:57.012Z</time></trkpt><trkpt lat="45.851797" lon="11.7088214"><ele>1144.0</ele><time>2026-04-26T13:40:58.014Z</time></trkpt><trkpt lat="45.8518533" lon="11.7086971"><ele>1144.0</ele><time>2026-04-26T13:40:59.014Z</time></trkpt><trkpt lat="45.8518842" lon="11.7085588"><ele>1151.25</ele><time>2026-04-26T13:41:00.009Z</time></trkpt><trkpt lat="45.8518969" lon="11.7083872"><ele>1158.5</ele><time>2026-04-26T13:41:01.009Z</time></trkpt><trkpt lat="45.8518954" lon="11.7082028"><ele>1165.75</ele><time>2026-04-26T13:41:02.005Z</time></trkpt><trkpt lat="45.8518955" lon="11.7080311"><ele>1173.0</ele><time>2026-04-26T13:41:03.017Z</time></trkpt><trkpt lat="45.8518884" lon="11.7078599"><ele>1171.0</ele><time>2026-04-26T13:41:04.006Z</time></trkpt><trkpt lat="45.851874" lon="11.707681"><ele>1169.0</ele><time>2026-04-26T13:41:05.03Z</time></trkpt><trkpt lat="45.851863" lon="11.7075048"><ele>1167.0</ele><time>2026-04-26T13:41:06.026Z</time></trkpt><trkpt lat="45.8518589" lon="11.7073354"><ele>1165.0</ele><time>2026-04-26T13:41:07.016Z</time></trkpt><trkpt lat="45.8518657" lon="11.70717"><ele>1165.0</ele><time>2026-04-26T13:41:08.017Z</time></trkpt><trkpt lat="45.8518906" lon="11.7070253"><ele>1165.0</ele><time>2026-04-26T13:41:09.016Z</time></trkpt><trkpt lat="45.8519282" lon="11.7068944"><ele>1165.0</ele><time>2026-04-26T13:41:10.01Z</time></trkpt><trkpt lat="45.8519867" lon="11.706762"><ele>1165.0</ele><time>2026-04-26T13:41:11.01Z</time></trkpt><trkpt lat="45.8520538" lon="11.7066398"><ele>1165.0</ele><time>2026-04-26T13:41:12.015Z</time></trkpt><trkpt lat="45.8521138" lon="11.7065243"><ele>1161.5</ele><time>2026-04-26T13:41:13.013Z</time></trkpt><trkpt lat="45.8521626" lon="11.7064424"><ele>1158.0</ele><time>2026-04-26T13:41:14.021Z</time></trkpt><trkpt lat="45.85222" lon="11.706374"><ele>1154.5</ele><time>2026-04-26T13:41:15.013Z</time></trkpt><trkpt lat="45.8522927" lon="11.70631"><ele>1151.0</ele><time>2026-04-26T13:41:16.017Z</time></trkpt><trkpt lat="45.8523675" lon="11.7062702"><ele>1147.5</ele><time>2026-04-26T13:41:17.013Z</time></trkpt><trkpt lat="45.8524485" lon="11.7062605"><ele>1144.0</ele><time>2026-04-26T13:41:18.014Z</time></trkpt><trkpt lat="45.8525323" lon="11.7062844"><ele>1144.0</ele><time>2026-04-26T13:41:19.007Z</time></trkpt><trkpt lat="45.8526021" lon="11.7063122"><ele>1144.0</ele><time>2026-04-26T13:41:20.014Z</time></trkpt><trkpt lat="45.8527001" lon="11.7063744"><ele>1144.0</ele><time>2026-04-26T13:41:22.022Z</time></trkpt><trkpt lat="45.8528064" lon="11.7064369"><ele>1144.0</ele><time>2026-04-26T13:41:24.018Z</time></trkpt><trkpt lat="45.8528926" lon="11.7064837"><ele>1144.0</ele><time>2026-04-26T13:41:26.022Z</time></trkpt><trkpt lat="45.8529842" lon="11.706535"><ele>1142.4</ele><time>2026-04-26T13:41:28.015Z</time></trkpt><trkpt lat="45.8530919" lon="11.706605"><ele>1140.8000000000002</ele><time>2026-04-26T13:41:30.007Z</time></trkpt><trkpt lat="45.8531916" lon="11.7067015"><ele>1139.1999999999998</ele><time>2026-04-26T13:41:32.021Z</time></trkpt><trkpt lat="45.8532433" lon="11.7067581"><ele>1137.6</ele><time>2026-04-26T13:41:33.002Z</time></trkpt><trkpt lat="45.8533133" lon="11.7068228"><ele>1136.0</ele><time>2026-04-26T13:41:34.017Z</time></trkpt><trkpt lat="45.8533816" lon="11.7068636"><ele>1136.0</ele><time>2026-04-26T13:41:35.011Z</time></trkpt><trkpt lat="45.8534469" lon="11.70689"><ele>1136.0</ele><time>2026-04-26T13:41:36.007Z</time></trkpt><trkpt lat="45.8535212" lon="11.7069087"><ele>1136.0</ele><time>2026-04-26T13:41:37.01Z</time></trkpt><trkpt lat="45.8535951" lon="11.7069158"><ele>1136.0</ele><time>2026-04-26T13:41:38.015Z</time></trkpt><trkpt lat="45.8536775" lon="11.7069222"><ele>1136.0</ele><time>2026-04-26T13:41:39.014Z</time></trkpt><trkpt lat="45.8537469" lon="11.7068706"><ele>1136.0</ele><time>2026-04-26T13:41:40.01Z</time></trkpt><trkpt lat="45.8538035" lon="11.7067869"><ele>1138.0</ele><time>2026-04-26T13:41:41.01Z</time></trkpt><trkpt lat="45.853857" lon="11.7066952"><ele>1140.0</ele><time>2026-04-26T13:41:42.012Z</time></trkpt><trkpt lat="45.853926" lon="11.7066113"><ele>1142.0</ele><time>2026-04-26T13:41:43.008Z</time></trkpt><trkpt lat="45.8540049" lon="11.7065534"><ele>1144.0</ele><time>2026-04-26T13:41:44.016Z</time></trkpt><trkpt lat="45.8540963" lon="11.7065078"><ele>1146.0</ele><time>2026-04-26T13:41:45.007Z</time></trkpt><trkpt lat="45.8541709" lon="11.7064476"><ele>1148.0</ele><time>2026-04-26T13:41:46.013Z</time></trkpt><trkpt lat="45.8542479" lon="11.7063853"><ele>1150.6666666666667</ele><time>2026-04-26T13:41:47.019Z</time></trkpt><trkpt lat="45.8543225" lon="11.7063196"><ele>1153.3333333333335</ele><time>2026-04-26T13:41:48.013Z</time></trkpt><trkpt lat="45.8543912" lon="11.7062634"><ele>1156.0</ele><time>2026-04-26T13:41:49.014Z</time></trkpt><trkpt lat="45.8544613" lon="11.7062142"><ele>1158.6666666666667</ele><time>2026-04-26T13:41:50.016Z</time></trkpt><trkpt lat="45.854529" lon="11.7061619"><ele>1161.3333333333333</ele><time>2026-04-26T13:41:51.02Z</time></trkpt><trkpt lat="45.8545961" lon="11.7061149"><ele>1164.0</ele><time>2026-04-26T13:41:52.009Z</time></trkpt><trkpt lat="45.8546438" lon="11.706026"><ele>1164.0</ele><time>2026-04-26T13:41:53.013Z</time></trkpt><trkpt lat="45.8546839" lon="11.7059118"><ele>1164.0</ele><time>2026-04-26T13:41:54.014Z</time></trkpt><trkpt lat="45.8547246" lon="11.7057928"><ele>1164.0</ele><time>2026-04-26T13:41:55.025Z</time></trkpt><trkpt lat="45.8547353" lon="11.7056483"><ele>1164.0</ele><time>2026-04-26T13:41:56.023Z</time></trkpt><trkpt lat="45.8547443" lon="11.705505"><ele>1164.0</ele><time>2026-04-26T13:41:57.011Z</time></trkpt><trkpt lat="45.854729" lon="11.7053512"><ele>1162.0</ele><time>2026-04-26T13:41:58.017Z</time></trkpt><trkpt lat="45.8547159" lon="11.7051966"><ele>1160.0</ele><time>2026-04-26T13:41:59.012Z</time></trkpt><trkpt lat="45.8547046" lon="11.7050473"><ele>1158.0</ele><time>2026-04-26T13:42:00.01Z</time></trkpt><trkpt lat="45.8546913" lon="11.7049025"><ele>1156.0</ele><time>2026-04-26T13:42:01.002Z</time></trkpt><trkpt lat="45.8546854" lon="11.7047622"><ele>1154.0</ele><time>2026-04-26T13:42:02.015Z</time></trkpt><trkpt lat="45.854688" lon="11.7046375"><ele>1154.0</ele><time>2026-04-26T13:42:03.037Z</time></trkpt><trkpt lat="45.8547037" lon="11.704528"><ele>1154.0</ele><time>2026-04-26T13:42:04.011Z</time></trkpt><trkpt lat="45.8547174" lon="11.7044387"><ele>1154.0</ele><time>2026-04-26T13:42:05.019Z</time></trkpt><trkpt lat="45.8547666" lon="11.7043181"><ele>1154.0</ele><time>2026-04-26T13:42:07.013Z</time></trkpt><trkpt lat="45.8548429" lon="11.7042782"><ele>1154.0</ele><time>2026-04-26T13:42:09.025Z</time></trkpt><trkpt lat="45.8549287" lon="11.7043046"><ele>1154.0</ele><time>2026-04-26T13:42:11.012Z</time></trkpt><trkpt lat="45.8549926" lon="11.7044107"><ele>1154.0</ele><time>2026-04-26T13:42:13.015Z</time></trkpt><trkpt lat="45.8550262" lon="11.7044902"><ele>1154.0</ele><time>2026-04-26T13:42:14.004Z</time></trkpt><trkpt lat="45.8550627" lon="11.7045657"><ele>1154.0</ele><time>2026-04-26T13:42:15.014Z</time></trkpt><trkpt lat="45.8551394" lon="11.7046993"><ele>1154.0</ele><time>2026-04-26T13:42:17.022Z</time></trkpt><trkpt lat="45.8552004" lon="11.7047374"><ele>1154.0</ele><time>2026-04-26T13:42:18.008Z</time></trkpt><trkpt lat="45.8552841" lon="11.7047514"><ele>1154.0</ele><time>2026-04-26T13:42:19.006Z</time></trkpt><trkpt lat="45.8553689" lon="11.7047636"><ele>1161.1666666666667</ele><time>2026-04-26T13:42:20.004Z</time></trkpt><trkpt lat="45.8554444" lon="11.7047814"><ele>1168.3333333333335</ele><time>2026-04-26T13:42:21.014Z</time></trkpt><trkpt lat="45.8555257" lon="11.7047873"><ele>1175.5</ele><time>2026-04-26T13:42:22.005Z</time></trkpt><trkpt lat="45.8556031" lon="11.7047631"><ele>1182.6666666666667</ele><time>2026-04-26T13:42:23.01Z</time></trkpt><trkpt lat="45.8556798" lon="11.7046811"><ele>1189.8333333333333</ele><time>2026-04-26T13:42:24.012Z</time></trkpt><trkpt lat="45.8557544" lon="11.7045933"><ele>1197.0</ele><time>2026-04-26T13:42:25.003Z</time></trkpt><trkpt lat="45.8558224" lon="11.7044819"><ele>1196.6</ele><time>2026-04-26T13:42:26.011Z</time></trkpt><trkpt lat="45.8558868" lon="11.704374"><ele>1196.2</ele><time>2026-04-26T13:42:27.009Z</time></trkpt><trkpt lat="45.8559493" lon="11.7042627"><ele>1195.8</ele><time>2026-04-26T13:42:28.009Z</time></trkpt><trkpt lat="45.8560098" lon="11.7041557"><ele>1195.4</ele><time>2026-04-26T13:42:29.01Z</time></trkpt><trkpt lat="45.8560582" lon="11.7040658"><ele>1195.0</ele><time>2026-04-26T13:42:30.011Z</time></trkpt><trkpt lat="45.8561121" lon="11.7039885"><ele>1195.0</ele><time>2026-04-26T13:42:31.018Z</time></trkpt><trkpt lat="45.8561837" lon="11.7039375"><ele>1195.0</ele><time>2026-04-26T13:42:32.016Z</time></trkpt><trkpt lat="45.8562514" lon="11.7038811"><ele>1195.0</ele><time>2026-04-26T13:42:33.009Z</time></trkpt><trkpt lat="45.85632" lon="11.7038205"><ele>1195.0</ele><time>2026-04-26T13:42:34.005Z</time></trkpt><trkpt lat="45.8563762" lon="11.7037383"><ele>1195.0</ele><time>2026-04-26T13:42:35.015Z</time></trkpt><trkpt lat="45.8564278" lon="11.7036692"><ele>1195.0</ele><time>2026-04-26T13:42:36.015Z</time></trkpt><trkpt lat="45.8565041" lon="11.7035378"><ele>1191.5</ele><time>2026-04-26T13:42:38.009Z</time></trkpt><trkpt lat="45.8565256" lon="11.7034479"><ele>1188.0</ele><time>2026-04-26T13:42:39.012Z</time></trkpt><trkpt lat="45.8565416" lon="11.7033464"><ele>1184.5</ele><time>2026-04-26T13:42:40.015Z</time></trkpt><trkpt lat="45.856561" lon="11.7032198"><ele>1181.0</ele><time>2026-04-26T13:42:41.023Z</time></trkpt><trkpt lat="45.8565759" lon="11.7030759"><ele>1177.5</ele><time>2026-04-26T13:42:42.015Z</time></trkpt><trkpt lat="45.8565868" lon="11.7029426"><ele>1174.0</ele><time>2026-04-26T13:42:43.007Z</time></trkpt><trkpt lat="45.8565901" lon="11.7028119"><ele>1172.4</ele><time>2026-04-26T13:42:44.009Z</time></trkpt><trkpt lat="45.8565928" lon="11.7026701"><ele>1170.8000000000002</ele><time>2026-04-26T13:42:45.018Z</time></trkpt><trkpt lat="45.8565906" lon="11.7025303"><ele>1169.1999999999998</ele><time>2026-04-26T13:42:46.015Z</time></trkpt><trkpt lat="45.8565699" lon="11.7023753"><ele>1167.6</ele><time>2026-04-26T13:42:47.016Z</time></trkpt><trkpt lat="45.8565606" lon="11.7022411"><ele>1166.0</ele><time>2026-04-26T13:42:48.015Z</time></trkpt><trkpt lat="45.8565625" lon="11.7021234"><ele>1166.0</ele><time>2026-04-26T13:42:49.015Z</time></trkpt><trkpt lat="45.8565729" lon="11.7020272"><ele>1166.0</ele><time>2026-04-26T13:42:50.008Z</time></trkpt><trkpt lat="45.8566259" lon="11.7018971"><ele>1166.0</ele><time>2026-04-26T13:42:52.024Z</time></trkpt><trkpt lat="45.8567192" lon="11.7018612"><ele>1166.0</ele><time>2026-04-26T13:42:54.009Z</time></trkpt><trkpt lat="45.8568217" lon="11.7018956"><ele>1166.0</ele><time>2026-04-26T13:42:56.014Z</time></trkpt><trkpt lat="45.8568803" lon="11.7019414"><ele>1166.0</ele><time>2026-04-26T13:42:57.014Z</time></trkpt><trkpt lat="45.8569811" lon="11.7020078"><ele>1170.1666666666667</ele><time>2026-04-26T13:42:59.012Z</time></trkpt><trkpt lat="45.8570629" lon="11.7019946"><ele>1174.3333333333335</ele><time>2026-04-26T13:43:01.012Z</time></trkpt><trkpt lat="45.857132" lon="11.7019117"><ele>1178.5</ele><time>2026-04-26T13:43:03.013Z</time></trkpt><trkpt lat="45.8571738" lon="11.7018068"><ele>1182.6666666666667</ele><time>2026-04-26T13:43:05.032Z</time></trkpt><trkpt lat="45.8572059" lon="11.7017035"><ele>1186.8333333333333</ele><time>2026-04-26T13:43:07.026Z</time></trkpt><trkpt lat="45.857236" lon="11.7015623"><ele>1191.0</ele><time>2026-04-26T13:43:10.014Z</time></trkpt><trkpt lat="45.8572628" lon="11.7014472"><ele>1191.0</ele><time>2026-04-26T13:43:12.018Z</time></trkpt><trkpt lat="45.8572866" lon="11.7013536"><ele>1191.0</ele><time>2026-04-26T13:43:14.011Z</time></trkpt><trkpt lat="45.857333" lon="11.7012679"><ele>1191.0</ele><time>2026-04-26T13:43:17.025Z</time></trkpt><trkpt lat="45.8573835" lon="11.7012117"><ele>1191.0</ele><time>2026-04-26T13:43:23.02Z</time></trkpt><trkpt lat="45.8574648" lon="11.7011584"><ele>1191.0</ele><time>2026-04-26T13:43:25.012Z</time></trkpt><trkpt lat="45.8575755" lon="11.701107"><ele>1191.0</ele><time>2026-04-26T13:43:27.014Z</time></trkpt><trkpt lat="45.8576886" lon="11.7010432"><ele>1195.5</ele><time>2026-04-26T13:43:29.018Z</time></trkpt><trkpt lat="45.8577489" lon="11.7010033"><ele>1200.0</ele><time>2026-04-26T13:43:30.025Z</time></trkpt><trkpt lat="45.8578098" lon="11.7009612"><ele>1204.5</ele><time>2026-04-26T13:43:31.024Z</time></trkpt><trkpt lat="45.8578702" lon="11.700905"><ele>1209.0</ele><time>2026-04-26T13:43:32.024Z</time></trkpt><trkpt lat="45.8579319" lon="11.7008415"><ele>1213.5</ele><time>2026-04-26T13:43:33.023Z</time></trkpt><trkpt lat="45.8579955" lon="11.7007666"><ele>1218.0</ele><time>2026-04-26T13:43:34.008Z</time></trkpt><trkpt lat="45.8580557" lon="11.7006695"><ele>1218.0</ele><time>2026-04-26T13:43:35.023Z</time></trkpt><trkpt lat="45.8581009" lon="11.7005712"><ele>1218.0</ele><time>2026-04-26T13:43:36.014Z</time></trkpt><trkpt lat="45.8581397" lon="11.700446"><ele>1218.0</ele><time>2026-04-26T13:43:37.006Z</time></trkpt><trkpt lat="45.8581735" lon="11.700299"><ele>1218.0</ele><time>2026-04-26T13:43:38.022Z</time></trkpt><trkpt lat="45.8581896" lon="11.7001386"><ele>1218.0</ele><time>2026-04-26T13:43:39.02Z</time></trkpt><trkpt lat="45.8581966" lon="11.6999592"><ele>1215.4</ele><time>2026-04-26T13:43:40.014Z</time></trkpt><trkpt lat="45.8582076" lon="11.6998073"><ele>1212.8</ele><time>2026-04-26T13:43:41.017Z</time></trkpt><trkpt lat="45.8582162" lon="11.6996776"><ele>1210.2</ele><time>2026-04-26T13:43:42.015Z</time></trkpt><trkpt lat="45.8582241" lon="11.6995423"><ele>1207.6</ele><time>2026-04-26T13:43:43.019Z</time></trkpt><trkpt lat="45.8582023" lon="11.6994336"><ele>1205.0</ele><time>2026-04-26T13:43:44.003Z</time></trkpt><trkpt lat="45.8581535" lon="11.6993386"><ele>1205.0</ele><time>2026-04-26T13:43:45.03Z</time></trkpt><trkpt lat="45.8580855" lon="11.6992441"><ele>1205.0</ele><time>2026-04-26T13:43:46.019Z</time></trkpt><trkpt lat="45.8580216" lon="11.6991286"><ele>1205.0</ele><time>2026-04-26T13:43:47.014Z</time></trkpt><trkpt lat="45.8579834" lon="11.6990055"><ele>1205.0</ele><time>2026-04-26T13:43:48.01Z</time></trkpt><trkpt lat="45.8579416" lon="11.6988611"><ele>1205.0</ele><time>2026-04-26T13:43:49.024Z</time></trkpt><trkpt lat="45.8578708" lon="11.698721"><ele>1205.0</ele><time>2026-04-26T13:43:50.014Z</time></trkpt><trkpt lat="45.8578135" lon="11.6985923"><ele>1205.0</ele><time>2026-04-26T13:43:51.024Z</time></trkpt><trkpt lat="45.8577803" lon="11.6984548"><ele>1205.0</ele><time>2026-04-26T13:43:52.012Z</time></trkpt><trkpt lat="45.8577566" lon="11.698325"><ele>1205.0</ele><time>2026-04-26T13:43:53.023Z</time></trkpt><trkpt lat="45.8577357" lon="11.6981893"><ele>1205.0</ele><time>2026-04-26T13:43:54.022Z</time></trkpt><trkpt lat="45.8576973" lon="11.6980622"><ele>1203.3333333333335</ele><time>2026-04-26T13:43:55.011Z</time></trkpt><trkpt lat="45.8576422" lon="11.6979725"><ele>1201.6666666666667</ele><time>2026-04-26T13:43:56.006Z</time></trkpt><trkpt lat="45.8575908" lon="11.6978987"><ele>1200.0</ele><time>2026-04-26T13:43:57.015Z</time></trkpt><trkpt lat="45.8574986" lon="11.6978024"><ele>1198.3333333333333</ele><time>2026-04-26T13:43:59.01Z</time></trkpt><trkpt lat="45.8574424" lon="11.6977594"><ele>1196.6666666666665</ele><time>2026-04-26T13:44:00.009Z</time></trkpt><trkpt lat="45.8573497" lon="11.6976645"><ele>1195.0</ele><time>2026-04-26T13:44:02.012Z</time></trkpt><trkpt lat="45.8573046" lon="11.6975279"><ele>1195.0</ele><time>2026-04-26T13:44:04.012Z</time></trkpt><trkpt lat="45.8573103" lon="11.6974081"><ele>1195.0</ele><time>2026-04-26T13:44:06.021Z</time></trkpt><trkpt lat="45.8573333" lon="11.6972934"><ele>1195.0</ele><time>2026-04-26T13:44:08.018Z</time></trkpt><trkpt lat="45.8573543" lon="11.697173"><ele>1195.0</ele><time>2026-04-26T13:44:10.018Z</time></trkpt><trkpt lat="45.8573658" lon="11.6970365"><ele>1195.0</ele><time>2026-04-26T13:44:12.022Z</time></trkpt><trkpt lat="45.857391" lon="11.69686"><ele>1196.5</ele><time>2026-04-26T13:44:14.013Z</time></trkpt><trkpt lat="45.8574001" lon="11.6967493"><ele>1198.0</ele><time>2026-04-26T13:44:15.021Z</time></trkpt><trkpt lat="45.8574094" lon="11.6966304"><ele>1199.5</ele><time>2026-04-26T13:44:16.016Z</time></trkpt><trkpt lat="45.8574142" lon="11.696512"><ele>1201.0</ele><time>2026-04-26T13:44:17.012Z</time></trkpt><trkpt lat="45.8574188" lon="11.6964058"><ele>1202.5</ele><time>2026-04-26T13:44:18.021Z</time></trkpt><trkpt lat="45.8574205" lon="11.696253"><ele>1204.0</ele><time>2026-04-26T13:44:20.018Z</time></trkpt><trkpt lat="45.8574102" lon="11.6961414"><ele>1203.1666666666665</ele><time>2026-04-26T13:44:23.02Z</time></trkpt><trkpt lat="45.8573797" lon="11.6960483"><ele>1202.3333333333333</ele><time>2026-04-26T13:44:39.01Z</time></trkpt><trkpt lat="45.8573172" lon="11.695967"><ele>1201.5</ele><time>2026-04-26T13:44:43.005Z</time></trkpt><trkpt lat="45.8572496" lon="11.6958757"><ele>1200.6666666666667</ele><time>2026-04-26T13:44:46.015Z</time></trkpt><trkpt lat="45.8571993" lon="11.6957999"><ele>1199.8333333333335</ele><time>2026-04-26T13:44:48.016Z</time></trkpt><trkpt lat="45.8571301" lon="11.695686"><ele>1199.0</ele><time>2026-04-26T13:44:50.016Z</time></trkpt><trkpt lat="45.857088" lon="11.6956137"><ele>1199.0</ele><time>2026-04-26T13:44:51.018Z</time></trkpt><trkpt lat="45.8570458" lon="11.6955407"><ele>1199.0</ele><time>2026-04-26T13:44:52.011Z</time></trkpt><trkpt lat="45.8570011" lon="11.6954669"><ele>1199.0</ele><time>2026-04-26T13:44:53.014Z</time></trkpt><trkpt lat="45.8569613" lon="11.695392"><ele>1199.0</ele><time>2026-04-26T13:44:54.014Z</time></trkpt><trkpt lat="45.8569326" lon="11.6952361"><ele>1199.0</ele><time>2026-04-26T13:44:56.02Z</time></trkpt><trkpt lat="45.8569804" lon="11.6950892"><ele>1199.0</ele><time>2026-04-26T13:44:58.013Z</time></trkpt><trkpt lat="45.857033" lon="11.6950286"><ele>1196.8</ele><time>2026-04-26T13:44:59.02Z</time></trkpt><trkpt lat="45.8571024" lon="11.6949722"><ele>1194.6000000000001</ele><time>2026-04-26T13:45:00.013Z</time></trkpt><trkpt lat="45.8571833" lon="11.6949193"><ele>1192.4</ele><time>2026-04-26T13:45:01.012Z</time></trkpt><trkpt lat="45.8572684" lon="11.6948647"><ele>1190.2</ele><time>2026-04-26T13:45:02.033Z</time></trkpt><trkpt lat="45.8573572" lon="11.6948078"><ele>1188.0</ele><time>2026-04-26T13:45:03.021Z</time></trkpt><trkpt lat="45.8574539" lon="11.6947402"><ele>1188.0</ele><time>2026-04-26T13:45:04.015Z</time></trkpt><trkpt lat="45.8575493" lon="11.6946716"><ele>1188.0</ele><time>2026-04-26T13:45:05.03Z</time></trkpt><trkpt lat="45.8576342" lon="11.6945947"><ele>1188.0</ele><time>2026-04-26T13:45:06.032Z</time></trkpt><trkpt lat="45.8577109" lon="11.6945019"><ele>1188.0</ele><time>2026-04-26T13:45:07.02Z</time></trkpt><trkpt lat="45.8577879" lon="11.6944043"><ele>1188.0</ele><time>2026-04-26T13:45:08.035Z</time></trkpt><trkpt lat="45.8578626" lon="11.6943019"><ele>1190.4</ele><time>2026-04-26T13:45:09.018Z</time></trkpt><trkpt lat="45.8579416" lon="11.6942061"><ele>1192.8</ele><time>2026-04-26T13:45:10.013Z</time></trkpt><trkpt lat="45.8580201" lon="11.6941102"><ele>1195.2</ele><time>2026-04-26T13:45:11.005Z</time></trkpt><trkpt lat="45.8580999" lon="11.6940206"><ele>1197.6</ele><time>2026-04-26T13:45:12.011Z</time></trkpt><trkpt lat="45.8581744" lon="11.6939276"><ele>1200.0</ele><time>2026-04-26T13:45:13.022Z</time></trkpt><trkpt lat="45.8582363" lon="11.6938322"><ele>1200.0</ele><time>2026-04-26T13:45:14.019Z</time></trkpt><trkpt lat="45.8582952" lon="11.693715"><ele>1200.0</ele><time>2026-04-26T13:45:15.001Z</time></trkpt><trkpt lat="45.8583406" lon="11.6935801"><ele>1200.0</ele><time>2026-04-26T13:45:16.007Z</time></trkpt><trkpt lat="45.8583823" lon="11.6934535"><ele>1200.0</ele><time>2026-04-26T13:45:17.017Z</time></trkpt><trkpt lat="45.8584112" lon="11.6933458"><ele>1200.0</ele><time>2026-04-26T13:45:18.01Z</time></trkpt><trkpt lat="45.8584761" lon="11.6931979"><ele>1201.3333333333333</ele><time>2026-04-26T13:45:20.012Z</time></trkpt><trkpt lat="45.8585279" lon="11.6931191"><ele>1202.6666666666667</ele><time>2026-04-26T13:45:21.008Z</time></trkpt><trkpt lat="45.858607" lon="11.6930419"><ele>1204.0</ele><time>2026-04-26T13:45:22.019Z</time></trkpt><trkpt lat="45.8586809" lon="11.692976"><ele>1205.3333333333335</ele><time>2026-04-26T13:45:23.013Z</time></trkpt><trkpt lat="45.858738" lon="11.692906"><ele>1206.6666666666667</ele><time>2026-04-26T13:45:24.009Z</time></trkpt><trkpt lat="45.85878" lon="11.6928253"><ele>1208.0</ele><time>2026-04-26T13:45:25.007Z</time></trkpt><trkpt lat="45.8587928" lon="11.6927124"><ele>1208.0</ele><time>2026-04-26T13:45:26.021Z</time></trkpt><trkpt lat="45.8587875" lon="11.6925685"><ele>1208.0</ele><time>2026-04-26T13:45:27.005Z</time></trkpt><trkpt lat="45.8587794" lon="11.6924049"><ele>1208.0</ele><time>2026-04-26T13:45:28.014Z</time></trkpt><trkpt lat="45.8587933" lon="11.6922216"><ele>1208.0</ele><time>2026-04-26T13:45:29.011Z</time></trkpt><trkpt lat="45.8588028" lon="11.6920432"><ele>1206.0</ele><time>2026-04-26T13:45:30.009Z</time></trkpt><trkpt lat="45.8588094" lon="11.6918766"><ele>1204.0</ele><time>2026-04-26T13:45:31.017Z</time></trkpt><trkpt lat="45.8587941" lon="11.6917066"><ele>1202.0</ele><time>2026-04-26T13:45:32.009Z</time></trkpt><trkpt lat="45.8587614" lon="11.6915345"><ele>1200.0</ele><time>2026-04-26T13:45:33.012Z</time></trkpt><trkpt lat="45.8587312" lon="11.6913669"><ele>1200.0</ele><time>2026-04-26T13:45:34.011Z</time></trkpt><trkpt lat="45.8587096" lon="11.6912357"><ele>1200.0</ele><time>2026-04-26T13:45:35.018Z</time></trkpt><trkpt lat="45.8587036" lon="11.6911203"><ele>1200.0</ele><time>2026-04-26T13:45:36.017Z</time></trkpt><trkpt lat="45.8587111" lon="11.6910135"><ele>1200.0</ele><time>2026-04-26T13:45:37.018Z</time></trkpt><trkpt lat="45.8587411" lon="11.6909126"><ele>1200.0</ele><time>2026-04-26T13:45:38.015Z</time></trkpt><trkpt lat="45.858771" lon="11.6908037"><ele>1200.0</ele><time>2026-04-26T13:45:39.009Z</time></trkpt><trkpt lat="45.8588199" lon="11.6906919"><ele>1198.0</ele><time>2026-04-26T13:45:40.016Z</time></trkpt><trkpt lat="45.8588796" lon="11.690566"><ele>1196.0</ele><time>2026-04-26T13:45:41.018Z</time></trkpt><trkpt lat="45.8589355" lon="11.6904533"><ele>1194.0</ele><time>2026-04-26T13:45:42.02Z</time></trkpt><trkpt lat="45.8589897" lon="11.6903623"><ele>1192.0</ele><time>2026-04-26T13:45:43.006Z</time></trkpt><trkpt lat="45.8590391" lon="11.6902785"><ele>1190.0</ele><time>2026-04-26T13:45:44.017Z</time></trkpt><trkpt lat="45.8591014" lon="11.6902065"><ele>1188.0</ele><time>2026-04-26T13:45:45.019Z</time></trkpt><trkpt lat="45.8591898" lon="11.6901492"><ele>1188.4</ele><time>2026-04-26T13:45:46.014Z</time></trkpt><trkpt lat="45.8592828" lon="11.6900881"><ele>1188.8</ele><time>2026-04-26T13:45:47.015Z</time></trkpt><trkpt lat="45.8593748" lon="11.6900282"><ele>1189.2</ele><time>2026-04-26T13:45:48.014Z</time></trkpt><trkpt lat="45.8594777" lon="11.689978"><ele>1189.6</ele><time>2026-04-26T13:45:49.029Z</time></trkpt><trkpt lat="45.8595779" lon="11.6899058"><ele>1190.0</ele><time>2026-04-26T13:45:50.014Z</time></trkpt><trkpt lat="45.8596702" lon="11.6898132"><ele>1190.0</ele><time>2026-04-26T13:45:51.021Z</time></trkpt><trkpt lat="45.8597599" lon="11.6897194"><ele>1190.0</ele><time>2026-04-26T13:45:52.031Z</time></trkpt><trkpt lat="45.8598472" lon="11.6896289"><ele>1190.0</ele><time>2026-04-26T13:45:53.013Z</time></trkpt><trkpt lat="45.8599284" lon="11.689543"><ele>1190.0</ele><time>2026-04-26T13:45:54.017Z</time></trkpt><trkpt lat="45.8600074" lon="11.689447"><ele>1190.0</ele><time>2026-04-26T13:45:55.012Z</time></trkpt><trkpt lat="45.8600784" lon="11.6893432"><ele>1191.8</ele><time>2026-04-26T13:45:56.019Z</time></trkpt><trkpt lat="45.8601217" lon="11.6892173"><ele>1193.6</ele><time>2026-04-26T13:45:57.014Z</time></trkpt><trkpt lat="45.8601503" lon="11.6891165"><ele>1195.4</ele><time>2026-04-26T13:45:58.008Z</time></trkpt><trkpt lat="45.8601684" lon="11.6890144"><ele>1197.2</ele><time>2026-04-26T13:45:59.007Z</time></trkpt><trkpt lat="45.8601684" lon="11.6888672"><ele>1199.0</ele><time>2026-04-26T13:46:01.01Z</time></trkpt><trkpt lat="45.8601633" lon="11.6887193"><ele>1193.8</ele><time>2026-04-26T13:46:03.008Z</time></trkpt><trkpt lat="45.8601454" lon="11.6885431"><ele>1188.6000000000001</ele><time>2026-04-26T13:46:05.016Z</time></trkpt><trkpt lat="45.8601271" lon="11.6884371"><ele>1183.4</ele><time>2026-04-26T13:46:06.018Z</time></trkpt><trkpt lat="45.8601271" lon="11.6882874"><ele>1178.2</ele><time>2026-04-26T13:46:08.017Z</time></trkpt><trkpt lat="45.8601704" lon="11.6881965"><ele>1173.0</ele><time>2026-04-26T13:46:10.036Z</time></trkpt><trkpt lat="45.8602794" lon="11.6881892"><ele>1173.0</ele><time>2026-04-26T13:46:12.015Z</time></trkpt><trkpt lat="45.8603539" lon="11.6882021"><ele>1173.0</ele><time>2026-04-26T13:46:13.014Z</time></trkpt><trkpt lat="45.8604453" lon="11.6881997"><ele>1173.0</ele><time>2026-04-26T13:46:14.012Z</time></trkpt><trkpt lat="45.8605341" lon="11.6881859"><ele>1173.0</ele><time>2026-04-26T13:46:15.02Z</time></trkpt><trkpt lat="45.8606111" lon="11.6881856"><ele>1173.0</ele><time>2026-04-26T13:46:16.016Z</time></trkpt><trkpt lat="45.8607055" lon="11.6882014"><ele>1173.0</ele><time>2026-04-26T13:46:18.025Z</time></trkpt><trkpt lat="45.8607678" lon="11.6882206"><ele>1173.0</ele><time>2026-04-26T13:46:21.029Z</time></trkpt><trkpt lat="45.8608353" lon="11.6882371"><ele>1173.0</ele><time>2026-04-26T13:46:38.01Z</time></trkpt><trkpt lat="45.8609145" lon="11.6882546"><ele>1173.0</ele><time>2026-04-26T13:46:41.008Z</time></trkpt><trkpt lat="45.8610054" lon="11.6882628"><ele>1173.0</ele><time>2026-04-26T13:47:19.023Z</time></trkpt><trkpt lat="45.8611303" lon="11.6882424"><ele>1173.0</ele><time>2026-04-26T13:47:21.013Z</time></trkpt><trkpt lat="45.8612051" lon="11.6882521"><ele>1173.0</ele><time>2026-04-26T13:47:22.012Z</time></trkpt><trkpt lat="45.8612949" lon="11.6882545"><ele>1172.6666666666667</ele><time>2026-04-26T13:47:23.012Z</time></trkpt><trkpt lat="45.8613908" lon="11.6882425"><ele>1172.3333333333333</ele><time>2026-04-26T13:47:24.019Z</time></trkpt><trkpt lat="45.8614877" lon="11.6882176"><ele>1172.0</ele><time>2026-04-26T13:47:25.014Z</time></trkpt><trkpt lat="45.8615788" lon="11.6881961"><ele>1171.6666666666665</ele><time>2026-04-26T13:47:26.017Z</time></trkpt><trkpt lat="45.8616547" lon="11.6881657"><ele>1171.3333333333333</ele><time>2026-04-26T13:47:27.015Z</time></trkpt><trkpt lat="45.8617317" lon="11.6881391"><ele>1171.0</ele><time>2026-04-26T13:47:28.01Z</time></trkpt><trkpt lat="45.8618011" lon="11.6881369"><ele>1171.0</ele><time>2026-04-26T13:47:29.013Z</time></trkpt><trkpt lat="45.8619046" lon="11.6881452"><ele>1171.0</ele><time>2026-04-26T13:47:31.025Z</time></trkpt><trkpt lat="45.8619539" lon="11.6882479"><ele>1171.0</ele><time>2026-04-26T13:47:33.034Z</time></trkpt><trkpt lat="45.8619807" lon="11.6883391"><ele>1171.0</ele><time>2026-04-26T13:47:35.087Z</time></trkpt><trkpt lat="45.8620426" lon="11.6883022"><ele>1171.0</ele><time>2026-04-26T13:47:40.013Z</time></trkpt><trkpt lat="45.8620508" lon="11.6881402"><ele>1171.0</ele><time>2026-04-26T13:47:42.022Z</time></trkpt><trkpt lat="45.8620594" lon="11.6880435"><ele>1171.0</ele><time>2026-04-26T13:47:43.012Z</time></trkpt><trkpt lat="45.8620693" lon="11.6879466"><ele>1171.0</ele><time>2026-04-26T13:47:44.024Z</time></trkpt><trkpt lat="45.8620823" lon="11.6878541"><ele>1171.0</ele><time>2026-04-26T13:47:45.02Z</time></trkpt><trkpt lat="45.8621006" lon="11.6876822"><ele>1171.0</ele><time>2026-04-26T13:47:47.013Z</time></trkpt><trkpt lat="45.8621287" lon="11.6875321"><ele>1171.0</ele><time>2026-04-26T13:47:49.017Z</time></trkpt><trkpt lat="45.8622221" lon="11.6874579"><ele>1169.1666666666665</ele><time>2026-04-26T13:47:51.019Z</time></trkpt><trkpt lat="45.8622882" lon="11.6874359"><ele>1167.3333333333333</ele><time>2026-04-26T13:47:52.018Z</time></trkpt><trkpt lat="45.8623582" lon="11.6874261"><ele>1165.5</ele><time>2026-04-26T13:47:53.01Z</time></trkpt><trkpt lat="45.8624268" lon="11.6874243"><ele>1163.6666666666667</ele><time>2026-04-26T13:47:54.026Z</time></trkpt><trkpt lat="45.8625417" lon="11.6874492"><ele>1161.8333333333335</ele><time>2026-04-26T13:47:56.011Z</time></trkpt><trkpt lat="45.8626438" lon="11.6875119"><ele>1160.0</ele><time>2026-04-26T13:47:58.011Z</time></trkpt><trkpt lat="45.8627268" lon="11.6876116"><ele>1157.6666666666667</ele><time>2026-04-26T13:48:00.025Z</time></trkpt><trkpt lat="45.8627713" lon="11.6877349"><ele>1155.3333333333335</ele><time>2026-04-26T13:48:02.006Z</time></trkpt><trkpt lat="45.8627953" lon="11.6878623"><ele>1153.0</ele><time>2026-04-26T13:48:04.029Z</time></trkpt><trkpt lat="45.8628399" lon="11.6879471"><ele>1150.6666666666667</ele><time>2026-04-26T13:48:06.043Z</time></trkpt><trkpt lat="45.8629165" lon="11.6879601"><ele>1148.3333333333333</ele><time>2026-04-26T13:48:09.024Z</time></trkpt><trkpt lat="45.8629436" lon="11.687877"><ele>1146.0</ele><time>2026-04-26T13:48:12.019Z</time></trkpt><trkpt lat="45.8630153" lon="11.6877259"><ele>1146.0</ele><time>2026-04-26T13:48:14.02Z</time></trkpt><trkpt lat="45.8630578" lon="11.6876309"><ele>1146.0</ele><time>2026-04-26T13:48:15.021Z</time></trkpt><trkpt lat="45.8631005" lon="11.6875391"><ele>1146.0</ele><time>2026-04-26T13:48:16.014Z</time></trkpt><trkpt lat="45.8631437" lon="11.6874482"><ele>1146.0</ele><time>2026-04-26T13:48:17.004Z</time></trkpt><trkpt lat="45.8631875" lon="11.6873552"><ele>1146.0</ele><time>2026-04-26T13:48:18.012Z</time></trkpt><trkpt lat="45.8632328" lon="11.6872554"><ele>1146.0</ele><time>2026-04-26T13:48:19.016Z</time></trkpt><trkpt lat="45.8632789" lon="11.6871614"><ele>1146.0</ele><time>2026-04-26T13:48:20.016Z</time></trkpt><trkpt lat="45.8633174" lon="11.6870839"><ele>1146.0</ele><time>2026-04-26T13:48:21.007Z</time></trkpt><trkpt lat="45.8633939" lon="11.6869603"><ele>1146.0</ele><time>2026-04-26T13:48:23.009Z</time></trkpt><trkpt lat="45.8634916" lon="11.6868793"><ele>1146.0</ele><time>2026-04-26T13:48:25.012Z</time></trkpt><trkpt lat="45.8635697" lon="11.6869167"><ele>1146.0</ele><time>2026-04-26T13:48:27.018Z</time></trkpt><trkpt lat="45.8636091" lon="11.6870523"><ele>1141.0</ele><time>2026-04-26T13:48:29.013Z</time></trkpt><trkpt lat="45.8635963" lon="11.6872293"><ele>1136.0</ele><time>2026-04-26T13:48:31.021Z</time></trkpt><trkpt lat="45.8635896" lon="11.6873345"><ele>1131.0</ele><time>2026-04-26T13:48:32.017Z</time></trkpt><trkpt lat="45.863582" lon="11.6874428"><ele>1126.0</ele><time>2026-04-26T13:48:33.017Z</time></trkpt><trkpt lat="45.8635927" lon="11.6875606"><ele>1121.0</ele><time>2026-04-26T13:48:34.013Z</time></trkpt><trkpt lat="45.8636068" lon="11.6876806"><ele>1116.0</ele><time>2026-04-26T13:48:35.019Z</time></trkpt><trkpt lat="45.8636218" lon="11.6877968"><ele>1115.0</ele><time>2026-04-26T13:48:36.01Z</time></trkpt><trkpt lat="45.8636306" lon="11.687919"><ele>1114.0</ele><time>2026-04-26T13:48:37.011Z</time></trkpt><trkpt lat="45.8636181" lon="11.6880345"><ele>1113.0</ele><time>2026-04-26T13:48:38.016Z</time></trkpt><trkpt lat="45.8636099" lon="11.6881501"><ele>1112.0</ele><time>2026-04-26T13:48:39.017Z</time></trkpt><trkpt lat="45.8635973" lon="11.6883115"><ele>1111.0</ele><time>2026-04-26T13:48:41.007Z</time></trkpt><trkpt lat="45.8636286" lon="11.6884249"><ele>1110.0</ele><time>2026-04-26T13:48:43.026Z</time></trkpt><trkpt lat="45.8637452" lon="11.6884734"><ele>1110.0</ele><time>2026-04-26T13:48:45.012Z</time></trkpt><trkpt lat="45.8638358" lon="11.688567"><ele>1110.0</ele><time>2026-04-26T13:48:46.017Z</time></trkpt><trkpt lat="45.8639403" lon="11.6886661"><ele>1110.0</ele><time>2026-04-26T13:48:47.006Z</time></trkpt><trkpt lat="45.8640272" lon="11.6887743"><ele>1110.0</ele><time>2026-04-26T13:48:48.002Z</time></trkpt><trkpt lat="45.8640883" lon="11.6888789"><ele>1110.0</ele><time>2026-04-26T13:48:49.007Z</time></trkpt><trkpt lat="45.8641379" lon="11.6890041"><ele>1112.4</ele><time>2026-04-26T13:48:50.005Z</time></trkpt><trkpt lat="45.8641743" lon="11.6891494"><ele>1114.8</ele><time>2026-04-26T13:48:51.01Z</time></trkpt><trkpt lat="45.8641983" lon="11.6892964"><ele>1117.2</ele><time>2026-04-26T13:48:52.012Z</time></trkpt><trkpt lat="45.8642183" lon="11.6894131"><ele>1119.6</ele><time>2026-04-26T13:48:53Z</time></trkpt><trkpt lat="45.8642223" lon="11.6895312"><ele>1122.0</ele><time>2026-04-26T13:48:55.024Z</time></trkpt><trkpt lat="45.8641556" lon="11.6896411"><ele>1122.3333333333333</ele><time>2026-04-26T13:48:57.005Z</time></trkpt><trkpt lat="45.8640745" lon="11.6897744"><ele>1122.6666666666667</ele><time>2026-04-26T13:48:59.018Z</time></trkpt><trkpt lat="45.8640386" lon="11.689858"><ele>1123.0</ele><time>2026-04-26T13:49:00.007Z</time></trkpt><trkpt lat="45.8640351" lon="11.6899631"><ele>1123.3333333333335</ele><time>2026-04-26T13:49:01.004Z</time></trkpt><trkpt lat="45.8640518" lon="11.6900781"><ele>1123.6666666666667</ele><time>2026-04-26T13:49:02.013Z</time></trkpt><trkpt lat="45.8640925" lon="11.6901778"><ele>1124.0</ele><time>2026-04-26T13:49:03.007Z</time></trkpt><trkpt lat="45.8641535" lon="11.6902585"><ele>1123.6000000000001</ele><time>2026-04-26T13:49:04.015Z</time></trkpt><trkpt lat="45.8642176" lon="11.690322"><ele>1123.2</ele><time>2026-04-26T13:49:05.006Z</time></trkpt><trkpt lat="45.8642896" lon="11.6903858"><ele>1122.8000000000002</ele><time>2026-04-26T13:49:06.007Z</time></trkpt><trkpt lat="45.8643764" lon="11.690444"><ele>1122.4</ele><time>2026-04-26T13:49:07.006Z</time></trkpt><trkpt lat="45.8644715" lon="11.6905137"><ele>1122.0</ele><time>2026-04-26T13:49:08.011Z</time></trkpt><trkpt lat="45.8645873" lon="11.6905837"><ele>1122.0</ele><time>2026-04-26T13:49:09.01Z</time></trkpt><trkpt lat="45.8647075" lon="11.6906656"><ele>1122.0</ele><time>2026-04-26T13:49:10.013Z</time></trkpt><trkpt lat="45.8648151" lon="11.6907631"><ele>1122.0</ele><time>2026-04-26T13:49:11.016Z</time></trkpt><trkpt lat="45.8649066" lon="11.6908437"><ele>1122.0</ele><time>2026-04-26T13:49:12.019Z</time></trkpt><trkpt lat="45.8649672" lon="11.6909261"><ele>1122.0</ele><time>2026-04-26T13:49:13.018Z</time></trkpt><trkpt lat="45.8650172" lon="11.6910015"><ele>1122.0</ele><time>2026-04-26T13:49:14.012Z</time></trkpt><trkpt lat="45.8650536" lon="11.6910958"><ele>1122.0</ele><time>2026-04-26T13:49:15.011Z</time></trkpt><trkpt lat="45.8650792" lon="11.6912125"><ele>1122.0</ele><time>2026-04-26T13:49:16.011Z</time></trkpt><trkpt lat="45.8650963" lon="11.69134"><ele>1122.0</ele><time>2026-04-26T13:49:17.01Z</time></trkpt><trkpt lat="45.8651012" lon="11.6914973"><ele>1122.0</ele><time>2026-04-26T13:49:18.015Z</time></trkpt><trkpt lat="45.8650852" lon="11.691658"><ele>1122.6666666666667</ele><time>2026-04-26T13:49:19.009Z</time></trkpt><trkpt lat="45.8650676" lon="11.6918029"><ele>1123.3333333333333</ele><time>2026-04-26T13:49:20.007Z</time></trkpt><trkpt lat="45.8650476" lon="11.6919041"><ele>1124.0</ele><time>2026-04-26T13:49:21.015Z</time></trkpt><trkpt lat="45.8650086" lon="11.691994"><ele>1124.6666666666665</ele><time>2026-04-26T13:49:22.015Z</time></trkpt><trkpt lat="45.8649505" lon="11.6920956"><ele>1125.3333333333333</ele><time>2026-04-26T13:49:23.013Z</time></trkpt><trkpt lat="45.8648871" lon="11.6922176"><ele>1126.0</ele><time>2026-04-26T13:49:24.007Z</time></trkpt><trkpt lat="45.8648314" lon="11.6923479"><ele>1126.0</ele><time>2026-04-26T13:49:25.012Z</time></trkpt><trkpt lat="45.8647938" lon="11.6924807"><ele>1126.0</ele><time>2026-04-26T13:49:26.019Z</time></trkpt><trkpt lat="45.86479" lon="11.6926332"><ele>1126.0</ele><time>2026-04-26T13:49:27.002Z</time></trkpt><trkpt lat="45.8647587" lon="11.6927964"><ele>1126.0</ele><time>2026-04-26T13:49:28.012Z</time></trkpt><trkpt lat="45.8647338" lon="11.6929428"><ele>1126.0</ele><time>2026-04-26T13:49:29.005Z</time></trkpt><trkpt lat="45.8647282" lon="11.6931169"><ele>1125.2</ele><time>2026-04-26T13:49:30.012Z</time></trkpt><trkpt lat="45.864719" lon="11.6932758"><ele>1124.3999999999999</ele><time>2026-04-26T13:49:31.007Z</time></trkpt><trkpt lat="45.8646909" lon="11.6933956"><ele>1123.6</ele><time>2026-04-26T13:49:32.013Z</time></trkpt><trkpt lat="45.8646469" lon="11.6935134"><ele>1122.8</ele><time>2026-04-26T13:49:33.009Z</time></trkpt><trkpt lat="45.8645947" lon="11.693626"><ele>1122.0</ele><time>2026-04-26T13:49:34.015Z</time></trkpt><trkpt lat="45.8645541" lon="11.6937234"><ele>1122.0</ele><time>2026-04-26T13:49:35.008Z</time></trkpt><trkpt lat="45.8645406" lon="11.6938135"><ele>1122.0</ele><time>2026-04-26T13:49:36.006Z</time></trkpt><trkpt lat="45.8645506" lon="11.6939785"><ele>1122.0</ele><time>2026-04-26T13:49:38.017Z</time></trkpt><trkpt lat="45.864611" lon="11.6940427"><ele>1122.0</ele><time>2026-04-26T13:49:39.002Z</time></trkpt><trkpt lat="45.8647197" lon="11.6940925"><ele>1122.0</ele><time>2026-04-26T13:49:40.017Z</time></trkpt><trkpt lat="45.8648088" lon="11.6941709"><ele>1122.0</ele><time>2026-04-26T13:49:41.017Z</time></trkpt><trkpt lat="45.8648991" lon="11.6942911"><ele>1122.0</ele><time>2026-04-26T13:49:42.002Z</time></trkpt><trkpt lat="45.8649935" lon="11.6944196"><ele>1122.0</ele><time>2026-04-26T13:49:43.007Z</time></trkpt><trkpt lat="45.8650689" lon="11.6945444"><ele>1122.0</ele><time>2026-04-26T13:49:44.019Z</time></trkpt><trkpt lat="45.8651363" lon="11.6946498"><ele>1118.4</ele><time>2026-04-26T13:49:45.006Z</time></trkpt><trkpt lat="45.8651894" lon="11.6947544"><ele>1114.8000000000002</ele><time>2026-04-26T13:49:46.009Z</time></trkpt><trkpt lat="45.8652297" lon="11.6948725"><ele>1111.2</ele><time>2026-04-26T13:49:47.017Z</time></trkpt><trkpt lat="45.8652762" lon="11.6950275"><ele>1107.6000000000001</ele><time>2026-04-26T13:49:48.037Z</time></trkpt><trkpt lat="45.8652837" lon="11.6951969"><ele>1104.0</ele><time>2026-04-26T13:49:49.02Z</time></trkpt><trkpt lat="45.8652823" lon="11.6953716"><ele>1103.0</ele><time>2026-04-26T13:49:50.008Z</time></trkpt><trkpt lat="45.8652739" lon="11.6955482"><ele>1102.0</ele><time>2026-04-26T13:49:51.015Z</time></trkpt><trkpt lat="45.8652668" lon="11.6957437"><ele>1101.0</ele><time>2026-04-26T13:49:52.018Z</time></trkpt><trkpt lat="45.8652541" lon="11.695911"><ele>1100.0</ele><time>2026-04-26T13:49:53.005Z</time></trkpt><trkpt lat="45.8652336" lon="11.6960389"><ele>1098.8</ele><time>2026-04-26T13:49:54.023Z</time></trkpt><trkpt lat="45.8652143" lon="11.6961692"><ele>1097.6</ele><time>2026-04-26T13:49:55.012Z</time></trkpt><trkpt lat="45.8651861" lon="11.6962867"><ele>1096.4</ele><time>2026-04-26T13:49:56.013Z</time></trkpt><trkpt lat="45.8651518" lon="11.6964129"><ele>1095.2</ele><time>2026-04-26T13:49:57.024Z</time></trkpt><trkpt lat="45.8651217" lon="11.6965547"><ele>1094.0</ele><time>2026-04-26T13:49:58.01Z</time></trkpt><trkpt lat="45.8650866" lon="11.6967188"><ele>1097.0</ele><time>2026-04-26T13:49:59.008Z</time></trkpt><trkpt lat="45.8650521" lon="11.6968873"><ele>1100.0</ele><time>2026-04-26T13:50:00.015Z</time></trkpt><trkpt lat="45.8649939" lon="11.6970258"><ele>1103.0</ele><time>2026-04-26T13:50:01.016Z</time></trkpt><trkpt lat="45.8649355" lon="11.6971347"><ele>1106.0</ele><time>2026-04-26T13:50:02.023Z</time></trkpt><trkpt lat="45.8648819" lon="11.6972196"><ele>1109.0</ele><time>2026-04-26T13:50:03.002Z</time></trkpt><trkpt lat="45.8648053" lon="11.6973053"><ele>1109.0</ele><time>2026-04-26T13:50:04.007Z</time></trkpt><trkpt lat="45.8647312" lon="11.6973831"><ele>1109.0</ele><time>2026-04-26T13:50:05.006Z</time></trkpt><trkpt lat="45.8646656" lon="11.6974749"><ele>1109.0</ele><time>2026-04-26T13:50:06.004Z</time></trkpt><trkpt lat="45.8646145" lon="11.6975907"><ele>1109.0</ele><time>2026-04-26T13:50:07.019Z</time></trkpt><trkpt lat="45.8645791" lon="11.6977044"><ele>1109.0</ele><time>2026-04-26T13:50:08.01Z</time></trkpt><trkpt lat="45.8645565" lon="11.6978149"><ele>1109.0</ele><time>2026-04-26T13:50:09.008Z</time></trkpt><trkpt lat="45.8645388" lon="11.6979056"><ele>1107.6666666666667</ele><time>2026-04-26T13:50:10.001Z</time></trkpt><trkpt lat="45.8644794" lon="11.6980049"><ele>1106.3333333333335</ele><time>2026-04-26T13:50:12.017Z</time></trkpt><trkpt lat="45.8644205" lon="11.6980538"><ele>1105.0</ele><time>2026-04-26T13:50:13.017Z</time></trkpt><trkpt lat="45.8643469" lon="11.6980864"><ele>1103.6666666666667</ele><time>2026-04-26T13:50:14.006Z</time></trkpt><trkpt lat="45.8642766" lon="11.6981097"><ele>1102.3333333333333</ele><time>2026-04-26T13:50:15.013Z</time></trkpt><trkpt lat="45.8641965" lon="11.6982135"><ele>1101.0</ele><time>2026-04-26T13:50:17.016Z</time></trkpt><trkpt lat="45.8641833" lon="11.6983567"><ele>1101.0</ele><time>2026-04-26T13:50:19.01Z</time></trkpt><trkpt lat="45.8642109" lon="11.6985057"><ele>1101.0</ele><time>2026-04-26T13:50:21.016Z</time></trkpt><trkpt lat="45.8643196" lon="11.6985649"><ele>1101.0</ele><time>2026-04-26T13:50:23.012Z</time></trkpt><trkpt lat="45.8644183" lon="11.6986132"><ele>1101.0</ele><time>2026-04-26T13:50:24.009Z</time></trkpt><trkpt lat="45.8645103" lon="11.6986646"><ele>1101.0</ele><time>2026-04-26T13:50:25.016Z</time></trkpt><trkpt lat="45.8645993" lon="11.6987069"><ele>1101.5</ele><time>2026-04-26T13:50:26.008Z</time></trkpt><trkpt lat="45.8646728" lon="11.6987495"><ele>1102.0</ele><time>2026-04-26T13:50:27.021Z</time></trkpt><trkpt lat="45.8647516" lon="11.6988167"><ele>1102.5</ele><time>2026-04-26T13:50:28.01Z</time></trkpt><trkpt lat="45.8648225" lon="11.6988981"><ele>1103.0</ele><time>2026-04-26T13:50:29.02Z</time></trkpt><trkpt lat="45.8648597" lon="11.6990152"><ele>1103.5</ele><time>2026-04-26T13:50:30.015Z</time></trkpt><trkpt lat="45.8648824" lon="11.6991396"><ele>1104.0</ele><time>2026-04-26T13:50:31.018Z</time></trkpt><trkpt lat="45.8649147" lon="11.6992687"><ele>1104.0</ele><time>2026-04-26T13:50:32.014Z</time></trkpt><trkpt lat="45.8649565" lon="11.6993879"><ele>1104.0</ele><time>2026-04-26T13:50:33.017Z</time></trkpt><trkpt lat="45.864999" lon="11.6994953"><ele>1104.0</ele><time>2026-04-26T13:50:34.017Z</time></trkpt><trkpt lat="45.8650446" lon="11.6996004"><ele>1104.0</ele><time>2026-04-26T13:50:35.02Z</time></trkpt><trkpt lat="45.8650853" lon="11.6996964"><ele>1104.0</ele><time>2026-04-26T13:50:36.006Z</time></trkpt><trkpt lat="45.8651106" lon="11.6998054"><ele>1104.0</ele><time>2026-04-26T13:50:37.011Z</time></trkpt><trkpt lat="45.8651266" lon="11.6999313"><ele>1105.4285714285716</ele><time>2026-04-26T13:50:38.02Z</time></trkpt><trkpt lat="45.8651544" lon="11.7000403"><ele>1106.857142857143</ele><time>2026-04-26T13:50:39.024Z</time></trkpt><trkpt lat="45.8651969" lon="11.7001206"><ele>1108.2857142857142</ele><time>2026-04-26T13:50:40.017Z</time></trkpt><trkpt lat="45.8652422" lon="11.7001915"><ele>1109.7142857142858</ele><time>2026-04-26T13:50:41.015Z</time></trkpt><trkpt lat="45.8653039" lon="11.7002255"><ele>1111.142857142857</ele><time>2026-04-26T13:50:42.017Z</time></trkpt><trkpt lat="45.8653687" lon="11.7002271"><ele>1112.5714285714287</ele><time>2026-04-26T13:50:43.019Z</time></trkpt><trkpt lat="45.8654442" lon="11.7002073"><ele>1114.0</ele><time>2026-04-26T13:50:44.011Z</time></trkpt><trkpt lat="45.8655265" lon="11.7001674"><ele>1114.0</ele><time>2026-04-26T13:50:45.009Z</time></trkpt><trkpt lat="45.865615" lon="11.7001269"><ele>1114.0</ele><time>2026-04-26T13:50:46.01Z</time></trkpt><trkpt lat="45.865708" lon="11.7000945"><ele>1114.0</ele><time>2026-04-26T13:50:47.018Z</time></trkpt><trkpt lat="45.8658054" lon="11.7000693"><ele>1114.0</ele><time>2026-04-26T13:50:48.024Z</time></trkpt><trkpt lat="45.8659144" lon="11.7000616"><ele>1114.0</ele><time>2026-04-26T13:50:49.02Z</time></trkpt><trkpt lat="45.8660258" lon="11.7000588"><ele>1117.25</ele><time>2026-04-26T13:50:50.031Z</time></trkpt><trkpt lat="45.8661365" lon="11.7000559"><ele>1120.5</ele><time>2026-04-26T13:50:51.013Z</time></trkpt><trkpt lat="45.86625" lon="11.7000517"><ele>1123.75</ele><time>2026-04-26T13:50:52.012Z</time></trkpt><trkpt lat="45.8663711" lon="11.7000426"><ele>1127.0</ele><time>2026-04-26T13:50:53.017Z</time></trkpt><trkpt lat="45.8664944" lon="11.7000272"><ele>1127.0</ele><time>2026-04-26T13:50:54.01Z</time></trkpt><trkpt lat="45.866621" lon="11.699992"><ele>1127.0</ele><time>2026-04-26T13:50:55.012Z</time></trkpt><trkpt lat="45.8667406" lon="11.6999317"><ele>1127.0</ele><time>2026-04-26T13:50:56.025Z</time></trkpt><trkpt lat="45.8668669" lon="11.6998677"><ele>1127.0</ele><time>2026-04-26T13:50:57.011Z</time></trkpt><trkpt lat="45.8669782" lon="11.6998016"><ele>1128.4</ele><time>2026-04-26T13:50:58.011Z</time></trkpt><trkpt lat="45.8670814" lon="11.6997451"><ele>1129.8000000000002</ele><time>2026-04-26T13:50:59.015Z</time></trkpt><trkpt lat="45.8671795" lon="11.6997037"><ele>1131.2</ele><time>2026-04-26T13:51:00.002Z</time></trkpt><trkpt lat="45.8672685" lon="11.6997012"><ele>1132.6000000000001</ele><time>2026-04-26T13:51:01.015Z</time></trkpt><trkpt lat="45.8673566" lon="11.6997257"><ele>1134.0</ele><time>2026-04-26T13:51:02.008Z</time></trkpt><trkpt lat="45.8674496" lon="11.6997651"><ele>1134.0</ele><time>2026-04-26T13:51:03.01Z</time></trkpt><trkpt lat="45.8675366" lon="11.6998655"><ele>1134.0</ele><time>2026-04-26T13:51:04.011Z</time></trkpt><trkpt lat="45.8676241" lon="11.6999675"><ele>1134.0</ele><time>2026-04-26T13:51:05.01Z</time></trkpt><trkpt lat="45.867719" lon="11.7000693"><ele>1134.0</ele><time>2026-04-26T13:51:06.025Z</time></trkpt><trkpt lat="45.8677833" lon="11.7001562"><ele>1134.0</ele><time>2026-04-26T13:51:07.006Z</time></trkpt><trkpt lat="45.8678432" lon="11.7002371"><ele>1134.8333333333333</ele><time>2026-04-26T13:51:08.02Z</time></trkpt><trkpt lat="45.8678873" lon="11.7003178"><ele>1135.6666666666667</ele><time>2026-04-26T13:51:09.016Z</time></trkpt><trkpt lat="45.867934" lon="11.7004237"><ele>1136.5</ele><time>2026-04-26T13:51:10.014Z</time></trkpt><trkpt lat="45.8679669" lon="11.7005294"><ele>1137.3333333333335</ele><time>2026-04-26T13:51:11.013Z</time></trkpt><trkpt lat="45.8679834" lon="11.7006469"><ele>1138.1666666666667</ele><time>2026-04-26T13:51:12.011Z</time></trkpt><trkpt lat="45.8679962" lon="11.7007524"><ele>1139.0</ele><time>2026-04-26T13:51:13.01Z</time></trkpt><trkpt lat="45.8680202" lon="11.7008375"><ele>1139.0</ele><time>2026-04-26T13:51:14.003Z</time></trkpt><trkpt lat="45.8680812" lon="11.7009095"><ele>1139.0</ele><time>2026-04-26T13:51:15.012Z</time></trkpt><trkpt lat="45.8681706" lon="11.70095"><ele>1139.0</ele><time>2026-04-26T13:51:16.02Z</time></trkpt><trkpt lat="45.8682763" lon="11.7009885"><ele>1139.0</ele><time>2026-04-26T13:51:17.01Z</time></trkpt><trkpt lat="45.8683628" lon="11.7010273"><ele>1139.0</ele><time>2026-04-26T13:51:18.008Z</time></trkpt><trkpt lat="45.8684234" lon="11.7010609"><ele>1139.0</ele><time>2026-04-26T13:51:19.017Z</time></trkpt><trkpt lat="45.8684906" lon="11.7011486"><ele>1144.5</ele><time>2026-04-26T13:51:21.016Z</time></trkpt><trkpt lat="45.8685448" lon="11.7012089"><ele>1150.0</ele><time>2026-04-26T13:51:29.029Z</time></trkpt><trkpt lat="45.8686233" lon="11.7011729"><ele>1155.5</ele><time>2026-04-26T13:51:33.016Z</time></trkpt><trkpt lat="45.8687434" lon="11.7012262"><ele>1161.0</ele><time>2026-04-26T13:51:35.024Z</time></trkpt><trkpt lat="45.8688101" lon="11.7012307"><ele>1166.5</ele><time>2026-04-26T13:51:36.018Z</time></trkpt><trkpt lat="45.8688753" lon="11.7012139"><ele>1172.0</ele><time>2026-04-26T13:51:37.007Z</time></trkpt><trkpt lat="45.8689332" lon="11.7011406"><ele>1167.4</ele><time>2026-04-26T13:51:38.015Z</time></trkpt><trkpt lat="45.8689934" lon="11.7010568"><ele>1162.8000000000002</ele><time>2026-04-26T13:51:39.014Z</time></trkpt><trkpt lat="45.8690578" lon="11.7009691"><ele>1158.2</ele><time>2026-04-26T13:51:40.014Z</time></trkpt><trkpt lat="45.869125" lon="11.7008696"><ele>1153.6000000000001</ele><time>2026-04-26T13:51:41.02Z</time></trkpt><trkpt lat="45.869175" lon="11.7007301"><ele>1149.0</ele><time>2026-04-26T13:51:42.015Z</time></trkpt><trkpt lat="45.8692072" lon="11.7005834"><ele>1149.0</ele><time>2026-04-26T13:51:43.012Z</time></trkpt><trkpt lat="45.8692365" lon="11.7004427"><ele>1149.0</ele><time>2026-04-26T13:51:44.002Z</time></trkpt><trkpt lat="45.8692617" lon="11.7002641"><ele>1149.0</ele><time>2026-04-26T13:51:45.005Z</time></trkpt><trkpt lat="45.869283" lon="11.7001206"><ele>1149.0</ele><time>2026-04-26T13:51:46.018Z</time></trkpt><trkpt lat="45.8693064" lon="11.6999771"><ele>1149.0</ele><time>2026-04-26T13:51:47.01Z</time></trkpt><trkpt lat="45.8693432" lon="11.6998338"><ele>1149.0</ele><time>2026-04-26T13:51:48.021Z</time></trkpt><trkpt lat="45.8693892" lon="11.6997107"><ele>1149.0</ele><time>2026-04-26T13:51:49.014Z</time></trkpt><trkpt lat="45.8694617" lon="11.6995935"><ele>1149.0</ele><time>2026-04-26T13:51:50.018Z</time></trkpt><trkpt lat="45.8695359" lon="11.6994737"><ele>1149.0</ele><time>2026-04-26T13:51:51.018Z</time></trkpt><trkpt lat="45.8696009" lon="11.6993462"><ele>1149.0</ele><time>2026-04-26T13:51:52.018Z</time></trkpt><trkpt lat="45.8696449" lon="11.6992181"><ele>1149.0</ele><time>2026-04-26T13:51:53.012Z</time></trkpt><trkpt lat="45.8696746" lon="11.6990864"><ele>1149.0</ele><time>2026-04-26T13:51:54.025Z</time></trkpt><trkpt lat="45.8697101" lon="11.6989471"><ele>1149.0</ele><time>2026-04-26T13:51:55.011Z</time></trkpt><trkpt lat="45.8697494" lon="11.6988296"><ele>1149.0</ele><time>2026-04-26T13:51:56.016Z</time></trkpt><trkpt lat="45.869802" lon="11.6987462"><ele>1149.0</ele><time>2026-04-26T13:51:57.017Z</time></trkpt><trkpt lat="45.8698746" lon="11.6986504"><ele>1145.8</ele><time>2026-04-26T13:51:58.012Z</time></trkpt><trkpt lat="45.8699677" lon="11.698577"><ele>1142.6000000000001</ele><time>2026-04-26T13:51:59.009Z</time></trkpt><trkpt lat="45.8700672" lon="11.6985042"><ele>1139.4</ele><time>2026-04-26T13:52:00.027Z</time></trkpt><trkpt lat="45.8701693" lon="11.6984465"><ele>1136.2</ele><time>2026-04-26T13:52:01.02Z</time></trkpt><trkpt lat="45.8702792" lon="11.6983823"><ele>1133.0</ele><time>2026-04-26T13:52:02.01Z</time></trkpt><trkpt lat="45.8703805" lon="11.6983143"><ele>1133.0</ele><time>2026-04-26T13:52:03.021Z</time></trkpt><trkpt lat="45.8704745" lon="11.6982453"><ele>1133.0</ele><time>2026-04-26T13:52:04.019Z</time></trkpt><trkpt lat="45.8705535" lon="11.6981769"><ele>1133.0</ele><time>2026-04-26T13:52:05.018Z</time></trkpt><trkpt lat="45.8706388" lon="11.6981444"><ele>1133.0</ele><time>2026-04-26T13:52:06.012Z</time></trkpt><trkpt lat="45.8707156" lon="11.6981253"><ele>1133.0</ele><time>2026-04-26T13:52:07.017Z</time></trkpt><trkpt lat="45.8707845" lon="11.6981733"><ele>1133.0</ele><time>2026-04-26T13:52:08.016Z</time></trkpt><trkpt lat="45.8708603" lon="11.6982314"><ele>1133.0</ele><time>2026-04-26T13:52:09.019Z</time></trkpt><trkpt lat="45.8709335" lon="11.69832"><ele>1133.0</ele><time>2026-04-26T13:52:10.007Z</time></trkpt><trkpt lat="45.8710311" lon="11.6983865"><ele>1133.0</ele><time>2026-04-26T13:52:11.018Z</time></trkpt><trkpt lat="45.8711341" lon="11.6984534"><ele>1133.0</ele><time>2026-04-26T13:52:12.017Z</time></trkpt><trkpt lat="45.8712582" lon="11.6984929"><ele>1133.0</ele><time>2026-04-26T13:52:13.008Z</time></trkpt><trkpt lat="45.8713952" lon="11.698508"><ele>1131.4</ele><time>2026-04-26T13:52:14.009Z</time></trkpt><trkpt lat="45.8715304" lon="11.6985157"><ele>1129.8</ele><time>2026-04-26T13:52:15.02Z</time></trkpt><trkpt lat="45.871651" lon="11.6985059"><ele>1128.2</ele><time>2026-04-26T13:52:16.015Z</time></trkpt><trkpt lat="45.8717525" lon="11.6984966"><ele>1126.6</ele><time>2026-04-26T13:52:17.01Z</time></trkpt><trkpt lat="45.8718413" lon="11.6985057"><ele>1125.0</ele><time>2026-04-26T13:52:18.008Z</time></trkpt><trkpt lat="45.8719324" lon="11.6985162"><ele>1124.2</ele><time>2026-04-26T13:52:19.003Z</time></trkpt><trkpt lat="45.8720124" lon="11.6985366"><ele>1123.4</ele><time>2026-04-26T13:52:20.01Z</time></trkpt><trkpt lat="45.8721283" lon="11.6986005"><ele>1122.6</ele><time>2026-04-26T13:52:22.016Z</time></trkpt><trkpt lat="45.8721939" lon="11.6986589"><ele>1121.8</ele><time>2026-04-26T13:52:23.01Z</time></trkpt><trkpt lat="45.8722737" lon="11.698734"><ele>1121.0</ele><time>2026-04-26T13:52:24.009Z</time></trkpt><trkpt lat="45.8723534" lon="11.6988242"><ele>1125.6</ele><time>2026-04-26T13:52:25.017Z</time></trkpt><trkpt lat="45.8724302" lon="11.6989001"><ele>1130.1999999999998</ele><time>2026-04-26T13:52:26.012Z</time></trkpt><trkpt lat="45.8724914" lon="11.6989499"><ele>1134.8000000000002</ele><time>2026-04-26T13:52:27.031Z</time></trkpt><trkpt lat="45.8725887" lon="11.6989529"><ele>1139.4</ele><time>2026-04-26T13:52:29Z</time></trkpt><trkpt lat="45.8726491" lon="11.6988205"><ele>1144.0</ele><time>2026-04-26T13:52:31.013Z</time></trkpt><trkpt lat="45.8726634" lon="11.6987059"><ele>1142.1666666666665</ele><time>2026-04-26T13:52:32.022Z</time></trkpt><trkpt lat="45.8726415" lon="11.6985759"><ele>1140.3333333333333</ele><time>2026-04-26T13:52:33.005Z</time></trkpt><trkpt lat="45.8726265" lon="11.6984437"><ele>1138.5</ele><time>2026-04-26T13:52:34.013Z</time></trkpt><trkpt lat="45.8726292" lon="11.6983374"><ele>1136.6666666666667</ele><time>2026-04-26T13:52:35.017Z</time></trkpt><trkpt lat="45.8726789" lon="11.6981972"><ele>1134.8333333333335</ele><time>2026-04-26T13:52:37.014Z</time></trkpt><trkpt lat="45.8727363" lon="11.6981516"><ele>1133.0</ele><time>2026-04-26T13:52:38.034Z</time></trkpt><trkpt lat="45.872818" lon="11.6981373"><ele>1133.0</ele><time>2026-04-26T13:52:39.007Z</time></trkpt><trkpt lat="45.8729312" lon="11.6981203"><ele>1133.0</ele><time>2026-04-26T13:52:40.009Z</time></trkpt><trkpt lat="45.8730476" lon="11.6981142"><ele>1133.0</ele><time>2026-04-26T13:52:41.021Z</time></trkpt><trkpt lat="45.8731571" lon="11.6981057"><ele>1133.0</ele><time>2026-04-26T13:52:42.012Z</time></trkpt><trkpt lat="45.8732551" lon="11.698096"><ele>1133.0</ele><time>2026-04-26T13:52:43.023Z</time></trkpt><trkpt lat="45.8733573" lon="11.6980823"><ele>1133.0</ele><time>2026-04-26T13:52:44.006Z</time></trkpt><trkpt lat="45.8734591" lon="11.6980492"><ele>1133.0</ele><time>2026-04-26T13:52:45.007Z</time></trkpt><trkpt lat="45.8735351" lon="11.6980116"><ele>1133.0</ele><time>2026-04-26T13:52:46.01Z</time></trkpt><trkpt lat="45.8736506" lon="11.6979975"><ele>1133.0</ele><time>2026-04-26T13:52:48.005Z</time></trkpt><trkpt lat="45.8737318" lon="11.6979971"><ele>1133.0</ele><time>2026-04-26T13:52:49.015Z</time></trkpt><trkpt lat="45.8738212" lon="11.6980043"><ele>1133.0</ele><time>2026-04-26T13:52:50.009Z</time></trkpt><trkpt lat="45.873913" lon="11.6980164"><ele>1133.0</ele><time>2026-04-26T13:52:51.011Z</time></trkpt><trkpt lat="45.8740037" lon="11.6980134"><ele>1133.0</ele><time>2026-04-26T13:52:52.006Z</time></trkpt><trkpt lat="45.8740895" lon="11.6979982"><ele>1133.0</ele><time>2026-04-26T13:52:53.007Z</time></trkpt><trkpt lat="45.8741626" lon="11.697981"><ele>1133.0</ele><time>2026-04-26T13:52:54.016Z</time></trkpt><trkpt lat="45.8742506" lon="11.6979851"><ele>1133.0</ele><time>2026-04-26T13:52:55.017Z</time></trkpt><trkpt lat="45.8743516" lon="11.6980253"><ele>1131.2</ele><time>2026-04-26T13:52:56.006Z</time></trkpt><trkpt lat="45.8744551" lon="11.6980711"><ele>1129.4</ele><time>2026-04-26T13:52:57.004Z</time></trkpt><trkpt lat="45.8745554" lon="11.6981182"><ele>1127.6000000000001</ele><time>2026-04-26T13:52:58.01Z</time></trkpt><trkpt lat="45.8746572" lon="11.6981714"><ele>1125.8</ele><time>2026-04-26T13:52:59.023Z</time></trkpt><trkpt lat="45.8747664" lon="11.6982221"><ele>1124.0</ele><time>2026-04-26T13:53:00.011Z</time></trkpt><trkpt lat="45.8748804" lon="11.6982621"><ele>1124.0</ele><time>2026-04-26T13:53:01.014Z</time></trkpt><trkpt lat="45.8749939" lon="11.6982991"><ele>1124.0</ele><time>2026-04-26T13:53:02.014Z</time></trkpt><trkpt lat="45.8750996" lon="11.6983271"><ele>1124.0</ele><time>2026-04-26T13:53:03.008Z</time></trkpt><trkpt lat="45.8752042" lon="11.6983494"><ele>1124.0</ele><time>2026-04-26T13:53:04.014Z</time></trkpt><trkpt lat="45.8753247" lon="11.6983308"><ele>1120.25</ele><time>2026-04-26T13:53:05.017Z</time></trkpt><trkpt lat="45.8754397" lon="11.6982671"><ele>1116.5</ele><time>2026-04-26T13:53:06.013Z</time></trkpt><trkpt lat="45.8755556" lon="11.6982101"><ele>1112.75</ele><time>2026-04-26T13:53:07.01Z</time></trkpt><trkpt lat="45.8756636" lon="11.6981782"><ele>1109.0</ele><time>2026-04-26T13:53:08.017Z</time></trkpt><trkpt lat="45.8757558" lon="11.6981495"><ele>1109.0</ele><time>2026-04-26T13:53:09.011Z</time></trkpt><trkpt lat="45.8758176" lon="11.6981311"><ele>1109.0</ele><time>2026-04-26T13:53:10.015Z</time></trkpt><trkpt lat="45.8759127" lon="11.6981504"><ele>1109.0</ele><time>2026-04-26T13:53:12.018Z</time></trkpt><trkpt lat="45.8759985" lon="11.6982797"><ele>1109.0</ele><time>2026-04-26T13:53:14.019Z</time></trkpt><trkpt lat="45.8760383" lon="11.6983896"><ele>1109.0</ele><time>2026-04-26T13:53:15.011Z</time></trkpt><trkpt lat="45.8760876" lon="11.6985258"><ele>1109.0</ele><time>2026-04-26T13:53:16.007Z</time></trkpt><trkpt lat="45.8761333" lon="11.6986548"><ele>1109.0</ele><time>2026-04-26T13:53:17.013Z</time></trkpt><trkpt lat="45.8761697" lon="11.6987716"><ele>1109.0</ele><time>2026-04-26T13:53:18.013Z</time></trkpt><trkpt lat="45.876209" lon="11.6988933"><ele>1109.0</ele><time>2026-04-26T13:53:19.012Z</time></trkpt><trkpt lat="45.8762608" lon="11.6989993"><ele>1109.0</ele><time>2026-04-26T13:53:20.002Z</time></trkpt><trkpt lat="45.8763294" lon="11.6991004"><ele>1109.0</ele><time>2026-04-26T13:53:21.011Z</time></trkpt><trkpt lat="45.8764136" lon="11.6992099"><ele>1109.0</ele><time>2026-04-26T13:53:22.009Z</time></trkpt><trkpt lat="45.8764959" lon="11.6993073"><ele>1109.0</ele><time>2026-04-26T13:53:23.004Z</time></trkpt><trkpt lat="45.8765632" lon="11.6993783"><ele>1109.0</ele><time>2026-04-26T13:53:24.012Z</time></trkpt><trkpt lat="45.8766519" lon="11.6994448"><ele>1109.0</ele><time>2026-04-26T13:53:25.005Z</time></trkpt><trkpt lat="45.8767364" lon="11.6994861"><ele>1109.0</ele><time>2026-04-26T13:53:26.006Z</time></trkpt><trkpt lat="45.8768112" lon="11.6995053"><ele>1109.0</ele><time>2026-04-26T13:53:27.021Z</time></trkpt><trkpt lat="45.8768854" lon="11.6995109"><ele>1109.0</ele><time>2026-04-26T13:53:28.015Z</time></trkpt><trkpt lat="45.8769742" lon="11.6994464"><ele>1109.0</ele><time>2026-04-26T13:53:29.003Z</time></trkpt><trkpt lat="45.8770654" lon="11.699366"><ele>1109.0</ele><time>2026-04-26T13:53:30.013Z</time></trkpt><trkpt lat="45.8771654" lon="11.699286"><ele>1109.0</ele><time>2026-04-26T13:53:31.015Z</time></trkpt><trkpt lat="45.8772498" lon="11.699225"><ele>1109.0</ele><time>2026-04-26T13:53:32.01Z</time></trkpt><trkpt lat="45.8773414" lon="11.6991776"><ele>1109.0</ele><time>2026-04-26T13:53:33.007Z</time></trkpt><trkpt lat="45.8774368" lon="11.6991152"><ele>1109.0</ele><time>2026-04-26T13:53:34.005Z</time></trkpt><trkpt lat="45.8775196" lon="11.6990616"><ele>1109.0</ele><time>2026-04-26T13:53:35.011Z</time></trkpt><trkpt lat="45.8775808" lon="11.6989484"><ele>1106.4</ele><time>2026-04-26T13:53:36.011Z</time></trkpt><trkpt lat="45.877616" lon="11.6987851"><ele>1103.8000000000002</ele><time>2026-04-26T13:53:37.009Z</time></trkpt><trkpt lat="45.8776551" lon="11.6986439"><ele>1101.1999999999998</ele><time>2026-04-26T13:53:38.014Z</time></trkpt><trkpt lat="45.8776933" lon="11.6985323"><ele>1098.6</ele><time>2026-04-26T13:53:39.007Z</time></trkpt><trkpt lat="45.8777555" lon="11.6984546"><ele>1096.0</ele><time>2026-04-26T13:53:40.018Z</time></trkpt><trkpt lat="45.8778391" lon="11.6983802"><ele>1096.0</ele><time>2026-04-26T13:53:41.003Z</time></trkpt><trkpt lat="45.8779344" lon="11.6983197"><ele>1096.0</ele><time>2026-04-26T13:53:42.015Z</time></trkpt><trkpt lat="45.8780376" lon="11.6982578"><ele>1096.0</ele><time>2026-04-26T13:53:43.014Z</time></trkpt><trkpt lat="45.8781284" lon="11.6981956"><ele>1096.0</ele><time>2026-04-26T13:53:44.012Z</time></trkpt><trkpt lat="45.8782105" lon="11.6981509"><ele>1096.0</ele><time>2026-04-26T13:53:45.017Z</time></trkpt><trkpt lat="45.878281" lon="11.6981081"><ele>1096.0</ele><time>2026-04-26T13:53:46.019Z</time></trkpt><trkpt lat="45.8783472" lon="11.6980948"><ele>1096.0</ele><time>2026-04-26T13:53:47.009Z</time></trkpt><trkpt lat="45.8784239" lon="11.698112"><ele>1096.0</ele><time>2026-04-26T13:53:48.016Z</time></trkpt><trkpt lat="45.878492" lon="11.6981295"><ele>1096.0</ele><time>2026-04-26T13:53:49.02Z</time></trkpt><trkpt lat="45.8785523" lon="11.6981602"><ele>1096.0</ele><time>2026-04-26T13:53:50.023Z</time></trkpt><trkpt lat="45.8786718" lon="11.698243"><ele>1096.0</ele><time>2026-04-26T13:53:52.013Z</time></trkpt><trkpt lat="45.8787265" lon="11.69833"><ele>1098.8</ele><time>2026-04-26T13:53:53.013Z</time></trkpt><trkpt lat="45.8787844" lon="11.698423"><ele>1101.6</ele><time>2026-04-26T13:53:54.011Z</time></trkpt><trkpt lat="45.8788634" lon="11.6984947"><ele>1104.4</ele><time>2026-04-26T13:53:55.005Z</time></trkpt><trkpt lat="45.8789438" lon="11.6985748"><ele>1107.2</ele><time>2026-04-26T13:53:56.005Z</time></trkpt><trkpt lat="45.8790566" lon="11.6986528"><ele>1110.0</ele><time>2026-04-26T13:53:57.02Z</time></trkpt><trkpt lat="45.8791658" lon="11.69871"><ele>1106.0</ele><time>2026-04-26T13:53:58.022Z</time></trkpt><trkpt lat="45.879272" lon="11.6987606"><ele>1102.0</ele><time>2026-04-26T13:53:59.013Z</time></trkpt><trkpt lat="45.8793784" lon="11.6988004"><ele>1098.0</ele><time>2026-04-26T13:54:00.008Z</time></trkpt><trkpt lat="45.8794903" lon="11.6988358"><ele>1094.0</ele><time>2026-04-26T13:54:01.016Z</time></trkpt><trkpt lat="45.8796125" lon="11.6988445"><ele>1094.0</ele><time>2026-04-26T13:54:02.004Z</time></trkpt><trkpt lat="45.8797442" lon="11.6988293"><ele>1094.0</ele><time>2026-04-26T13:54:03.004Z</time></trkpt><trkpt lat="45.8798764" lon="11.6988125"><ele>1094.0</ele><time>2026-04-26T13:54:04.014Z</time></trkpt><trkpt lat="45.879998" lon="11.6987995"><ele>1094.0</ele><time>2026-04-26T13:54:05.009Z</time></trkpt><trkpt lat="45.8801216" lon="11.6987722"><ele>1088.6000000000001</ele><time>2026-04-26T13:54:06.005Z</time></trkpt><trkpt lat="45.880237" lon="11.698741"><ele>1083.2</ele><time>2026-04-26T13:54:07.01Z</time></trkpt><trkpt lat="45.8803371" lon="11.6987225"><ele>1077.8000000000002</ele><time>2026-04-26T13:54:08.023Z</time></trkpt><trkpt lat="45.8804219" lon="11.6986903"><ele>1072.4</ele><time>2026-04-26T13:54:09.007Z</time></trkpt><trkpt lat="45.8804972" lon="11.6986722"><ele>1067.0</ele><time>2026-04-26T13:54:10.016Z</time></trkpt><trkpt lat="45.8805653" lon="11.69868"><ele>1067.0</ele><time>2026-04-26T13:54:11.016Z</time></trkpt><trkpt lat="45.8806244" lon="11.6987161"><ele>1067.0</ele><time>2026-04-26T13:54:12.011Z</time></trkpt><trkpt lat="45.8806833" lon="11.6987542"><ele>1067.0</ele><time>2026-04-26T13:54:13.017Z</time></trkpt><trkpt lat="45.8807117" lon="11.6988363"><ele>1067.0</ele><time>2026-04-26T13:54:14.022Z</time></trkpt><trkpt lat="45.8807272" lon="11.698946"><ele>1067.0</ele><time>2026-04-26T13:54:15.012Z</time></trkpt><trkpt lat="45.8807445" lon="11.699069"><ele>1067.0</ele><time>2026-04-26T13:54:16.011Z</time></trkpt><trkpt lat="45.8807506" lon="11.6992123"><ele>1067.0</ele><time>2026-04-26T13:54:17.021Z</time></trkpt><trkpt lat="45.8807556" lon="11.6993782"><ele>1067.0</ele><time>2026-04-26T13:54:18.02Z</time></trkpt><trkpt lat="45.8807588" lon="11.699534"><ele>1067.0</ele><time>2026-04-26T13:54:19.017Z</time></trkpt><trkpt lat="45.8807557" lon="11.6996877"><ele>1067.0</ele><time>2026-04-26T13:54:20.009Z</time></trkpt><trkpt lat="45.8807308" lon="11.6998408"><ele>1067.0</ele><time>2026-04-26T13:54:21.011Z</time></trkpt><trkpt lat="45.8807038" lon="11.69999"><ele>1067.2</ele><time>2026-04-26T13:54:22.005Z</time></trkpt><trkpt lat="45.8806801" lon="11.7001394"><ele>1067.4</ele><time>2026-04-26T13:54:23.015Z</time></trkpt><trkpt lat="45.8806594" lon="11.7002897"><ele>1067.6</ele><time>2026-04-26T13:54:24.034Z</time></trkpt><trkpt lat="45.880656" lon="11.7004371"><ele>1067.8</ele><time>2026-04-26T13:54:25.014Z</time></trkpt><trkpt lat="45.8806611" lon="11.7005867"><ele>1068.0</ele><time>2026-04-26T13:54:26.007Z</time></trkpt><trkpt lat="45.8806682" lon="11.70074"><ele>1066.4</ele><time>2026-04-26T13:54:27.012Z</time></trkpt><trkpt lat="45.8806779" lon="11.7008867"><ele>1064.8</ele><time>2026-04-26T13:54:28.008Z</time></trkpt><trkpt lat="45.8806636" lon="11.7010373"><ele>1063.2</ele><time>2026-04-26T13:54:29.007Z</time></trkpt><trkpt lat="45.8806368" lon="11.701181"><ele>1061.6</ele><time>2026-04-26T13:54:30.011Z</time></trkpt><trkpt lat="45.8806094" lon="11.7013193"><ele>1060.0</ele><time>2026-04-26T13:54:31.018Z</time></trkpt><trkpt lat="45.8805633" lon="11.7014437"><ele>1059.6</ele><time>2026-04-26T13:54:32.014Z</time></trkpt><trkpt lat="45.8805118" lon="11.7015615"><ele>1059.2</ele><time>2026-04-26T13:54:33.013Z</time></trkpt><trkpt lat="45.8804483" lon="11.701682"><ele>1058.8</ele><time>2026-04-26T13:54:34.009Z</time></trkpt><trkpt lat="45.8803751" lon="11.701797"><ele>1058.4</ele><time>2026-04-26T13:54:35.021Z</time></trkpt><trkpt lat="45.8802929" lon="11.7019125"><ele>1058.0</ele><time>2026-04-26T13:54:36.017Z</time></trkpt><trkpt lat="45.880204" lon="11.7020222"><ele>1060.25</ele><time>2026-04-26T13:54:37.019Z</time></trkpt><trkpt lat="45.880095" lon="11.7021378"><ele>1062.5</ele><time>2026-04-26T13:54:38.018Z</time></trkpt><trkpt lat="45.8799872" lon="11.7022414"><ele>1064.75</ele><time>2026-04-26T13:54:39.005Z</time></trkpt><trkpt lat="45.8798784" lon="11.7023373"><ele>1067.0</ele><time>2026-04-26T13:54:40.017Z</time></trkpt><trkpt lat="45.879763" lon="11.7024406"><ele>1067.0</ele><time>2026-04-26T13:54:41.011Z</time></trkpt><trkpt lat="45.8796542" lon="11.7025418"><ele>1067.0</ele><time>2026-04-26T13:54:42.004Z</time></trkpt><trkpt lat="45.8795636" lon="11.7026332"><ele>1067.0</ele><time>2026-04-26T13:54:43.008Z</time></trkpt><trkpt lat="45.8794907" lon="11.7027197"><ele>1067.0</ele><time>2026-04-26T13:54:44.002Z</time></trkpt><trkpt lat="45.8794377" lon="11.7027896"><ele>1067.0</ele><time>2026-04-26T13:54:45.013Z</time></trkpt><trkpt lat="45.8794172" lon="11.7029402"><ele>1068.8</ele><time>2026-04-26T13:54:47.016Z</time></trkpt><trkpt lat="45.8795221" lon="11.703033"><ele>1070.6</ele><time>2026-04-26T13:54:49.011Z</time></trkpt><trkpt lat="45.8796343" lon="11.70307"><ele>1072.3999999999999</ele><time>2026-04-26T13:54:51.018Z</time></trkpt><trkpt lat="45.8797298" lon="11.7030823"><ele>1074.2</ele><time>2026-04-26T13:54:53.008Z</time></trkpt><trkpt lat="45.8798431" lon="11.7030601"><ele>1076.0</ele><time>2026-04-26T13:54:55.017Z</time></trkpt><trkpt lat="45.8799583" lon="11.7030445"><ele>1076.0</ele><time>2026-04-26T13:54:57.016Z</time></trkpt><trkpt lat="45.8800328" lon="11.7030289"><ele>1076.0</ele><time>2026-04-26T13:54:59.022Z</time></trkpt><trkpt lat="45.8801304" lon="11.7030107"><ele>1076.0</ele><time>2026-04-26T13:55:07.012Z</time></trkpt><trkpt lat="45.8802064" lon="11.7029982"><ele>1076.0</ele><time>2026-04-26T13:55:08.012Z</time></trkpt><trkpt lat="45.8802982" lon="11.7029712"><ele>1076.0</ele><time>2026-04-26T13:55:09.015Z</time></trkpt><trkpt lat="45.8803918" lon="11.7029458"><ele>1076.0</ele><time>2026-04-26T13:55:10.009Z</time></trkpt><trkpt lat="45.8805008" lon="11.7029182"><ele>1078.25</ele><time>2026-04-26T13:55:11.012Z</time></trkpt><trkpt lat="45.8805983" lon="11.7029016"><ele>1080.5</ele><time>2026-04-26T13:55:12.009Z</time></trkpt><trkpt lat="45.8807246" lon="11.7028893"><ele>1082.75</ele><time>2026-04-26T13:55:13.01Z</time></trkpt><trkpt lat="45.8808368" lon="11.7028636"><ele>1085.0</ele><time>2026-04-26T13:55:14.016Z</time></trkpt><trkpt lat="45.8809551" lon="11.7028381"><ele>1085.6</ele><time>2026-04-26T13:55:15.01Z</time></trkpt><trkpt lat="45.8810705" lon="11.7028045"><ele>1086.2</ele><time>2026-04-26T13:55:16.016Z</time></trkpt><trkpt lat="45.8811821" lon="11.7027801"><ele>1086.8</ele><time>2026-04-26T13:55:17.005Z</time></trkpt><trkpt lat="45.8812947" lon="11.7027681"><ele>1087.4</ele><time>2026-04-26T13:55:18.015Z</time></trkpt><trkpt lat="45.8813943" lon="11.7027659"><ele>1088.0</ele><time>2026-04-26T13:55:19.015Z</time></trkpt><trkpt lat="45.881492" lon="11.702781"><ele>1088.0</ele><time>2026-04-26T13:55:20.006Z</time></trkpt><trkpt lat="45.8815849" lon="11.702814"><ele>1088.0</ele><time>2026-04-26T13:55:21.003Z</time></trkpt><trkpt lat="45.8816608" lon="11.7028509"><ele>1088.0</ele><time>2026-04-26T13:55:22.019Z</time></trkpt><trkpt lat="45.8817407" lon="11.7028749"><ele>1088.0</ele><time>2026-04-26T13:55:23.002Z</time></trkpt><trkpt lat="45.881826" lon="11.7028963"><ele>1088.0</ele><time>2026-04-26T13:55:24.01Z</time></trkpt><trkpt lat="45.8819002" lon="11.7028858"><ele>1088.0</ele><time>2026-04-26T13:55:25.014Z</time></trkpt><trkpt lat="45.8819568" lon="11.7027997"><ele>1083.0</ele><time>2026-04-26T13:55:26.011Z</time></trkpt><trkpt lat="45.8820082" lon="11.70274"><ele>1078.0</ele><time>2026-04-26T13:55:27.005Z</time></trkpt><trkpt lat="45.8821202" lon="11.702691"><ele>1073.0</ele><time>2026-04-26T13:55:29.014Z</time></trkpt><trkpt lat="45.8822379" lon="11.7026287"><ele>1068.0</ele><time>2026-04-26T13:55:31.004Z</time></trkpt><trkpt lat="45.8822938" lon="11.7025652"><ele>1063.0</ele><time>2026-04-26T13:55:32.01Z</time></trkpt><trkpt lat="45.882343" lon="11.7024666"><ele>1063.0</ele><time>2026-04-26T13:55:33.014Z</time></trkpt><trkpt lat="45.8823891" lon="11.7023807"><ele>1063.0</ele><time>2026-04-26T13:55:34.017Z</time></trkpt><trkpt lat="45.8824715" lon="11.7023184"><ele>1063.0</ele><time>2026-04-26T13:55:35.011Z</time></trkpt><trkpt lat="45.8825544" lon="11.7022622"><ele>1063.0</ele><time>2026-04-26T13:55:36.015Z</time></trkpt><trkpt lat="45.88265" lon="11.702214"><ele>1063.0</ele><time>2026-04-26T13:55:37.014Z</time></trkpt><trkpt lat="45.882767" lon="11.7021811"><ele>1064.75</ele><time>2026-04-26T13:55:38.007Z</time></trkpt><trkpt lat="45.8828847" lon="11.7021435"><ele>1066.5</ele><time>2026-04-26T13:55:39.006Z</time></trkpt><trkpt lat="45.8829969" lon="11.7021128"><ele>1068.25</ele><time>2026-04-26T13:55:40.011Z</time></trkpt><trkpt lat="45.8831132" lon="11.7020975"><ele>1070.0</ele><time>2026-04-26T13:55:41.002Z</time></trkpt><trkpt lat="45.8832291" lon="11.7020718"><ele>1070.0</ele><time>2026-04-26T13:55:42.011Z</time></trkpt><trkpt lat="45.8833544" lon="11.7020447"><ele>1070.0</ele><time>2026-04-26T13:55:43.013Z</time></trkpt><trkpt lat="45.8834793" lon="11.7020023"><ele>1070.0</ele><time>2026-04-26T13:55:44.017Z</time></trkpt><trkpt lat="45.8836118" lon="11.7019656"><ele>1070.0</ele><time>2026-04-26T13:55:45.003Z</time></trkpt><trkpt lat="45.8837438" lon="11.7019547"><ele>1070.2</ele><time>2026-04-26T13:55:46.015Z</time></trkpt><trkpt lat="45.8838531" lon="11.7019379"><ele>1070.4</ele><time>2026-04-26T13:55:47.007Z</time></trkpt><trkpt lat="45.883954" lon="11.7019223"><ele>1070.6</ele><time>2026-04-26T13:55:48.007Z</time></trkpt><trkpt lat="45.8840307" lon="11.7018927"><ele>1070.8</ele><time>2026-04-26T13:55:49.015Z</time></trkpt><trkpt lat="45.884106" lon="11.7018848"><ele>1071.0</ele><time>2026-04-26T13:55:50.025Z</time></trkpt><trkpt lat="45.8841961" lon="11.7018974"><ele>1067.3999999999999</ele><time>2026-04-26T13:55:51.007Z</time></trkpt><trkpt lat="45.8842851" lon="11.701919"><ele>1063.8</ele><time>2026-04-26T13:55:52.013Z</time></trkpt><trkpt lat="45.8843647" lon="11.701964"><ele>1060.1999999999998</ele><time>2026-04-26T13:55:53.017Z</time></trkpt><trkpt lat="45.8844505" lon="11.7020265"><ele>1056.6</ele><time>2026-04-26T13:55:54.02Z</time></trkpt><trkpt lat="45.8845551" lon="11.7021006"><ele>1053.0</ele><time>2026-04-26T13:55:55.007Z</time></trkpt><trkpt lat="45.8846645" lon="11.7021694"><ele>1053.0</ele><time>2026-04-26T13:55:56.013Z</time></trkpt><trkpt lat="45.8847645" lon="11.7022333"><ele>1053.0</ele><time>2026-04-26T13:55:57.014Z</time></trkpt><trkpt lat="45.8848639" lon="11.7023039"><ele>1053.0</ele><time>2026-04-26T13:55:58.017Z</time></trkpt><trkpt lat="45.8849704" lon="11.7023741"><ele>1053.0</ele><time>2026-04-26T13:55:59.008Z</time></trkpt><trkpt lat="45.8850704" lon="11.7024288"><ele>1053.0</ele><time>2026-04-26T13:56:00.014Z</time></trkpt><trkpt lat="45.8851771" lon="11.7024883"><ele>1055.4</ele><time>2026-04-26T13:56:01.01Z</time></trkpt><trkpt lat="45.88528" lon="11.7025476"><ele>1057.8</ele><time>2026-04-26T13:56:02.009Z</time></trkpt><trkpt lat="45.8853768" lon="11.7026363"><ele>1060.2</ele><time>2026-04-26T13:56:03.007Z</time></trkpt><trkpt lat="45.8854615" lon="11.702725"><ele>1062.6</ele><time>2026-04-26T13:56:04.018Z</time></trkpt><trkpt lat="45.8855501" lon="11.7028209"><ele>1065.0</ele><time>2026-04-26T13:56:05.016Z</time></trkpt><trkpt lat="45.8856223" lon="11.70291"><ele>1065.0</ele><time>2026-04-26T13:56:06.014Z</time></trkpt><trkpt lat="45.8857006" lon="11.7029771"><ele>1065.0</ele><time>2026-04-26T13:56:07.028Z</time></trkpt><trkpt lat="45.8857993" lon="11.7030144"><ele>1065.0</ele><time>2026-04-26T13:56:08.009Z</time></trkpt><trkpt lat="45.8858938" lon="11.7030271"><ele>1065.0</ele><time>2026-04-26T13:56:09.002Z</time></trkpt><trkpt lat="45.8859898" lon="11.703033"><ele>1065.0</ele><time>2026-04-26T13:56:10.019Z</time></trkpt><trkpt lat="45.8860856" lon="11.703051"><ele>1061.3333333333333</ele><time>2026-04-26T13:56:11.009Z</time></trkpt><trkpt lat="45.8861788" lon="11.7031119"><ele>1057.6666666666667</ele><time>2026-04-26T13:56:12.009Z</time></trkpt><trkpt lat="45.8862671" lon="11.7031861"><ele>1054.0</ele><time>2026-04-26T13:56:13.016Z</time></trkpt><trkpt lat="45.8863315" lon="11.7032598"><ele>1050.3333333333335</ele><time>2026-04-26T13:56:14.021Z</time></trkpt><trkpt lat="45.8863924" lon="11.7033216"><ele>1046.6666666666667</ele><time>2026-04-26T13:56:15.009Z</time></trkpt><trkpt lat="45.8864483" lon="11.7034055"><ele>1043.0</ele><time>2026-04-26T13:56:16.022Z</time></trkpt><trkpt lat="45.8864931" lon="11.7034988"><ele>1046.3333333333335</ele><time>2026-04-26T13:56:17.012Z</time></trkpt><trkpt lat="45.8865289" lon="11.7036071"><ele>1049.6666666666667</ele><time>2026-04-26T13:56:18.007Z</time></trkpt><trkpt lat="45.8865649" lon="11.7037023"><ele>1053.0</ele><time>2026-04-26T13:56:19.013Z</time></trkpt><trkpt lat="45.8866431" lon="11.703839"><ele>1056.3333333333333</ele><time>2026-04-26T13:56:21.011Z</time></trkpt><trkpt lat="45.8867046" lon="11.7038853"><ele>1059.6666666666665</ele><time>2026-04-26T13:56:22.021Z</time></trkpt><trkpt lat="45.8867872" lon="11.7039294"><ele>1063.0</ele><time>2026-04-26T13:56:23.018Z</time></trkpt><trkpt lat="45.8869003" lon="11.7039551"><ele>1063.0</ele><time>2026-04-26T13:56:24.008Z</time></trkpt><trkpt lat="45.8870261" lon="11.7039675"><ele>1063.0</ele><time>2026-04-26T13:56:25.021Z</time></trkpt><trkpt lat="45.8871299" lon="11.7039547"><ele>1063.0</ele><time>2026-04-26T13:56:26.026Z</time></trkpt><trkpt lat="45.8871934" lon="11.7039477"><ele>1063.0</ele><time>2026-04-26T13:56:27.021Z</time></trkpt><trkpt lat="45.8873015" lon="11.7040099"><ele>1063.0</ele><time>2026-04-26T13:56:29.018Z</time></trkpt><trkpt lat="45.8873521" lon="11.7040758"><ele>1063.0</ele><time>2026-04-26T13:56:30.012Z</time></trkpt><trkpt lat="45.8874102" lon="11.7041496"><ele>1063.0</ele><time>2026-04-26T13:56:31.025Z</time></trkpt><trkpt lat="45.8875084" lon="11.7042053"><ele>1063.0</ele><time>2026-04-26T13:56:32.013Z</time></trkpt><trkpt lat="45.8875829" lon="11.7042428"><ele>1063.0</ele><time>2026-04-26T13:56:33.007Z</time></trkpt><trkpt lat="45.8876427" lon="11.704274"><ele>1063.0</ele><time>2026-04-26T13:56:34.014Z</time></trkpt><trkpt lat="45.8877103" lon="11.7043794"><ele>1063.0</ele><time>2026-04-26T13:56:36.015Z</time></trkpt><trkpt lat="45.8877433" lon="11.7045949"><ele>1063.1666666666665</ele><time>2026-04-26T13:56:38.005Z</time></trkpt><trkpt lat="45.887743" lon="11.7047124"><ele>1063.3333333333333</ele><time>2026-04-26T13:56:39.015Z</time></trkpt><trkpt lat="45.8877465" lon="11.704832"><ele>1063.5</ele><time>2026-04-26T13:56:40.007Z</time></trkpt><trkpt lat="45.8877667" lon="11.7049679"><ele>1063.6666666666667</ele><time>2026-04-26T13:56:41.002Z</time></trkpt><trkpt lat="45.8877823" lon="11.7050851"><ele>1063.8333333333335</ele><time>2026-04-26T13:56:42.013Z</time></trkpt><trkpt lat="45.8878204" lon="11.705201"><ele>1064.0</ele><time>2026-04-26T13:56:43.016Z</time></trkpt><trkpt lat="45.8878596" lon="11.7053416"><ele>1064.0</ele><time>2026-04-26T13:56:44.002Z</time></trkpt><trkpt lat="45.8879077" lon="11.7054636"><ele>1064.0</ele><time>2026-04-26T13:56:45.002Z</time></trkpt><trkpt lat="45.8879687" lon="11.7055792"><ele>1064.0</ele><time>2026-04-26T13:56:46.013Z</time></trkpt><trkpt lat="45.8880182" lon="11.7057081"><ele>1064.0</ele><time>2026-04-26T13:56:47.006Z</time></trkpt><trkpt lat="45.888076" lon="11.7058466"><ele>1064.0</ele><time>2026-04-26T13:56:48.011Z</time></trkpt><trkpt lat="45.8881456" lon="11.7059779"><ele>1059.0</ele><time>2026-04-26T13:56:49.01Z</time></trkpt><trkpt lat="45.8882336" lon="11.7060941"><ele>1054.0</ele><time>2026-04-26T13:56:50.005Z</time></trkpt><trkpt lat="45.8882976" lon="11.706194"><ele>1049.0</ele><time>2026-04-26T13:56:51.007Z</time></trkpt><trkpt lat="45.888355" lon="11.7062905"><ele>1044.0</ele><time>2026-04-26T13:56:52.005Z</time></trkpt><trkpt lat="45.888406" lon="11.7063979"><ele>1039.0</ele><time>2026-04-26T13:56:53.005Z</time></trkpt><trkpt lat="45.8884548" lon="11.70653"><ele>1039.0</ele><time>2026-04-26T13:56:54.016Z</time></trkpt><trkpt lat="45.8885042" lon="11.7066517"><ele>1039.0</ele><time>2026-04-26T13:56:55.015Z</time></trkpt><trkpt lat="45.888554" lon="11.7067819"><ele>1039.0</ele><time>2026-04-26T13:56:56.01Z</time></trkpt><trkpt lat="45.8885988" lon="11.706901"><ele>1039.0</ele><time>2026-04-26T13:56:57.006Z</time></trkpt><trkpt lat="45.8886224" lon="11.7070103"><ele>1039.0</ele><time>2026-04-26T13:56:58.008Z</time></trkpt><trkpt lat="45.8886316" lon="11.707132"><ele>1043.0</ele><time>2026-04-26T13:56:59.009Z</time></trkpt><trkpt lat="45.8886219" lon="11.707261"><ele>1047.0</ele><time>2026-04-26T13:57:00.014Z</time></trkpt><trkpt lat="45.8886128" lon="11.7073788"><ele>1051.0</ele><time>2026-04-26T13:57:01.013Z</time></trkpt><trkpt lat="45.8886032" lon="11.7074773"><ele>1055.0</ele><time>2026-04-26T13:57:02.019Z</time></trkpt><trkpt lat="45.8886252" lon="11.7075967"><ele>1059.0</ele><time>2026-04-26T13:57:03.012Z</time></trkpt><trkpt lat="45.8886565" lon="11.7076996"><ele>1063.0</ele><time>2026-04-26T13:57:04.009Z</time></trkpt><trkpt lat="45.8887061" lon="11.707806"><ele>1071.4</ele><time>2026-04-26T13:57:05.017Z</time></trkpt><trkpt lat="45.8887802" lon="11.7079083"><ele>1079.8</ele><time>2026-04-26T13:57:06.01Z</time></trkpt><trkpt lat="45.8888639" lon="11.707975"><ele>1088.2</ele><time>2026-04-26T13:57:07.011Z</time></trkpt><trkpt lat="45.8889405" lon="11.7080579"><ele>1096.6</ele><time>2026-04-26T13:57:08.009Z</time></trkpt><trkpt lat="45.8890333" lon="11.7081113"><ele>1105.0</ele><time>2026-04-26T13:57:09.015Z</time></trkpt><trkpt lat="45.8891371" lon="11.7081524"><ele>1105.0</ele><time>2026-04-26T13:57:10.007Z</time></trkpt><trkpt lat="45.8892588" lon="11.708185"><ele>1105.0</ele><time>2026-04-26T13:57:11.021Z</time></trkpt><trkpt lat="45.8893856" lon="11.7082052"><ele>1105.0</ele><time>2026-04-26T13:57:12.004Z</time></trkpt><trkpt lat="45.8895058" lon="11.7082247"><ele>1105.0</ele><time>2026-04-26T13:57:13.007Z</time></trkpt><trkpt lat="45.8896163" lon="11.7082336"><ele>1102.8</ele><time>2026-04-26T13:57:14.001Z</time></trkpt><trkpt lat="45.8897223" lon="11.7082369"><ele>1100.6</ele><time>2026-04-26T13:57:15.005Z</time></trkpt><trkpt lat="45.8898121" lon="11.7082403"><ele>1098.4</ele><time>2026-04-26T13:57:16.005Z</time></trkpt><trkpt lat="45.8898914" lon="11.7082382"><ele>1096.2</ele><time>2026-04-26T13:57:17.01Z</time></trkpt><trkpt lat="45.8899777" lon="11.7082255"><ele>1094.0</ele><time>2026-04-26T13:57:18.005Z</time></trkpt><trkpt lat="45.8900627" lon="11.7081679"><ele>1086.4</ele><time>2026-04-26T13:57:19.012Z</time></trkpt><trkpt lat="45.8901456" lon="11.7080639"><ele>1078.8000000000002</ele><time>2026-04-26T13:57:21.006Z</time></trkpt><trkpt lat="45.890227" lon="11.7080149"><ele>1071.1999999999998</ele><time>2026-04-26T13:57:23.017Z</time></trkpt><trkpt lat="45.8903015" lon="11.707998"><ele>1063.6</ele><time>2026-04-26T13:57:25.004Z</time></trkpt><trkpt lat="45.8904017" lon="11.7081057"><ele>1056.0</ele><time>2026-04-26T13:57:27.016Z</time></trkpt><trkpt lat="45.8904665" lon="11.7081006"><ele>1056.0</ele><time>2026-04-26T13:57:28Z</time></trkpt><trkpt lat="45.8905614" lon="11.7081244"><ele>1056.0</ele><time>2026-04-26T13:57:30.014Z</time></trkpt><trkpt lat="45.8906158" lon="11.7082896"><ele>1056.0</ele><time>2026-04-26T13:57:32.011Z</time></trkpt><trkpt lat="45.8906399" lon="11.7083949"><ele>1056.0</ele><time>2026-04-26T13:57:33.004Z</time></trkpt><trkpt lat="45.8906319" lon="11.7084885"><ele>1056.0</ele><time>2026-04-26T13:57:34Z</time></trkpt><trkpt lat="45.8906031" lon="11.7085763"><ele>1056.0</ele><time>2026-04-26T13:57:35.007Z</time></trkpt><trkpt lat="45.890559" lon="11.70867"><ele>1057.5</ele><time>2026-04-26T13:57:36.009Z</time></trkpt><trkpt lat="45.8905095" lon="11.7087634"><ele>1059.0</ele><time>2026-04-26T13:57:37.003Z</time></trkpt><trkpt lat="45.8904648" lon="11.7088572"><ele>1060.5</ele><time>2026-04-26T13:57:38.014Z</time></trkpt><trkpt lat="45.8904449" lon="11.708965"><ele>1062.0</ele><time>2026-04-26T13:57:39.009Z</time></trkpt><trkpt lat="45.8904414" lon="11.7090799"><ele>1063.5</ele><time>2026-04-26T13:57:40.018Z</time></trkpt><trkpt lat="45.8904449" lon="11.7091973"><ele>1065.0</ele><time>2026-04-26T13:57:41.015Z</time></trkpt><trkpt lat="45.8904421" lon="11.7093194"><ele>1054.1666666666667</ele><time>2026-04-26T13:57:42.003Z</time></trkpt><trkpt lat="45.8904482" lon="11.7094415"><ele>1043.3333333333333</ele><time>2026-04-26T13:57:43.032Z</time></trkpt><trkpt lat="45.8904641" lon="11.7095533"><ele>1032.5</ele><time>2026-04-26T13:57:44.008Z</time></trkpt><trkpt lat="45.890478" lon="11.7096625"><ele>1021.6666666666666</ele><time>2026-04-26T13:57:45.013Z</time></trkpt><trkpt lat="45.8904787" lon="11.7097562"><ele>1010.8333333333333</ele><time>2026-04-26T13:57:46.003Z</time></trkpt><trkpt lat="45.8904749" lon="11.7098618"><ele>1000.0</ele><time>2026-04-26T13:57:47.013Z</time></trkpt><trkpt lat="45.8904263" lon="11.7100338"><ele>1000.0</ele><time>2026-04-26T13:57:49.014Z</time></trkpt><trkpt lat="45.8904075" lon="11.7101325"><ele>1000.0</ele><time>2026-04-26T13:57:50.012Z</time></trkpt><trkpt lat="45.8903386" lon="11.7102213"><ele>1000.0</ele><time>2026-04-26T13:57:52.005Z</time></trkpt><trkpt lat="45.8902512" lon="11.710261"><ele>1000.0</ele><time>2026-04-26T13:57:54.014Z</time></trkpt><trkpt lat="45.8901222" lon="11.7102167"><ele>1000.0</ele><time>2026-04-26T13:57:56.009Z</time></trkpt><trkpt lat="45.890042" lon="11.7101985"><ele>1012.4</ele><time>2026-04-26T13:57:57.006Z</time></trkpt><trkpt lat="45.8899608" lon="11.7102027"><ele>1024.8</ele><time>2026-04-26T13:57:58.004Z</time></trkpt><trkpt lat="45.8898758" lon="11.710215"><ele>1037.2</ele><time>2026-04-26T13:57:59.003Z</time></trkpt><trkpt lat="45.8897786" lon="11.7102606"><ele>1049.6</ele><time>2026-04-26T13:58:00.005Z</time></trkpt><trkpt lat="45.8896886" lon="11.7103284"><ele>1062.0</ele><time>2026-04-26T13:58:01.004Z</time></trkpt><trkpt lat="45.8896091" lon="11.7103935"><ele>1062.0</ele><time>2026-04-26T13:58:02.006Z</time></trkpt><trkpt lat="45.8895544" lon="11.7104712"><ele>1062.0</ele><time>2026-04-26T13:58:03.005Z</time></trkpt><trkpt lat="45.8895015" lon="11.7105751"><ele>1062.0</ele><time>2026-04-26T13:58:04.009Z</time></trkpt><trkpt lat="45.8894758" lon="11.7107092"><ele>1062.0</ele><time>2026-04-26T13:58:05.007Z</time></trkpt><trkpt lat="45.8894591" lon="11.7108218"><ele>1062.0</ele><time>2026-04-26T13:58:06.005Z</time></trkpt><trkpt lat="45.8893994" lon="11.7109096"><ele>1062.0</ele><time>2026-04-26T13:58:09.019Z</time></trkpt><trkpt lat="45.8893072" lon="11.7108487"><ele>1068.6</ele><time>2026-04-26T13:58:11.016Z</time></trkpt><trkpt lat="45.8892076" lon="11.7108309"><ele>1075.2</ele><time>2026-04-26T13:58:13.005Z</time></trkpt><trkpt lat="45.8891067" lon="11.710861"><ele>1081.8</ele><time>2026-04-26T13:59:07.018Z</time></trkpt><trkpt lat="45.8890119" lon="11.71095"><ele>1088.4</ele><time>2026-04-26T14:05:30.016Z</time></trkpt><trkpt lat="45.88891" lon="11.710962"><ele>1095.0</ele><time>2026-04-26T14:05:32.005Z</time></trkpt><trkpt lat="45.8887877" lon="11.7109939"><ele>1094.9999999999998</ele><time>2026-04-26T14:05:34.024Z</time></trkpt><trkpt lat="45.8887167" lon="11.7110155"><ele>1095.0</ele><time>2026-04-26T14:05:35.006Z</time></trkpt><trkpt lat="45.8886383" lon="11.7110335"><ele>1095.0</ele><time>2026-04-26T14:05:36.015Z</time></trkpt><trkpt lat="45.8885681" lon="11.7110435"><ele>1095.0</ele><time>2026-04-26T14:05:37.014Z</time></trkpt><trkpt lat="45.8885071" lon="11.71108"><ele>1095.0</ele><time>2026-04-26T14:05:38.011Z</time></trkpt><trkpt lat="45.8884529" lon="11.7111384"><ele>1094.9999999999998</ele><time>2026-04-26T14:05:39.011Z</time></trkpt><trkpt lat="45.8883985" lon="11.7112286"><ele>1095.0</ele><time>2026-04-26T14:05:40.007Z</time></trkpt><trkpt lat="45.8883455" lon="11.7113531"><ele>1095.8</ele><time>2026-04-26T14:05:41.011Z</time></trkpt><trkpt lat="45.888295" lon="11.7114774"><ele>1096.6</ele><time>2026-04-26T14:05:42.007Z</time></trkpt><trkpt lat="45.8882505" lon="11.7116053"><ele>1097.4</ele><time>2026-04-26T14:05:43.009Z</time></trkpt><trkpt lat="45.8882129" lon="11.7117447"><ele>1098.2</ele><time>2026-04-26T14:05:44.009Z</time></trkpt><trkpt lat="45.8881776" lon="11.7118883"><ele>1099.0</ele><time>2026-04-26T14:05:45.006Z</time></trkpt><trkpt lat="45.8881429" lon="11.7120334"><ele>1094.2</ele><time>2026-04-26T14:05:46.014Z</time></trkpt><trkpt lat="45.8880994" lon="11.712162"><ele>1089.4</ele><time>2026-04-26T14:05:47.013Z</time></trkpt><trkpt lat="45.8880299" lon="11.7122837"><ele>1084.6</ele><time>2026-04-26T14:05:48.006Z</time></trkpt><trkpt lat="45.8879677" lon="11.7123858"><ele>1079.8</ele><time>2026-04-26T14:05:49.009Z</time></trkpt><trkpt lat="45.8879084" lon="11.7124924"><ele>1075.0</ele><time>2026-04-26T14:05:50.002Z</time></trkpt><trkpt lat="45.8878508" lon="11.7126107"><ele>1075.0</ele><time>2026-04-26T14:05:51.012Z</time></trkpt><trkpt lat="45.8878057" lon="11.7127001"><ele>1075.0</ele><time>2026-04-26T14:05:52.014Z</time></trkpt><trkpt lat="45.8877553" lon="11.7127911"><ele>1075.0</ele><time>2026-04-26T14:05:53.007Z</time></trkpt><trkpt lat="45.8877185" lon="11.7128758"><ele>1075.0</ele><time>2026-04-26T14:05:54.007Z</time></trkpt><trkpt lat="45.8876853" lon="11.7129738"><ele>1075.0</ele><time>2026-04-26T14:05:55.021Z</time></trkpt><trkpt lat="45.8876724" lon="11.7130857"><ele>1075.0</ele><time>2026-04-26T14:05:56.018Z</time></trkpt><trkpt lat="45.8876824" lon="11.7132113"><ele>1074.0</ele><time>2026-04-26T14:05:57.014Z</time></trkpt><trkpt lat="45.8876942" lon="11.7133326"><ele>1073.0</ele><time>2026-04-26T14:05:58.009Z</time></trkpt><trkpt lat="45.8877032" lon="11.7134328"><ele>1072.0</ele><time>2026-04-26T14:05:59.009Z</time></trkpt><trkpt lat="45.8877137" lon="11.713552"><ele>1071.0</ele><time>2026-04-26T14:06:00.02Z</time></trkpt><trkpt lat="45.8877271" lon="11.7136659"><ele>1070.0</ele><time>2026-04-26T14:06:01.014Z</time></trkpt><trkpt lat="45.8877295" lon="11.7137657"><ele>1069.0</ele><time>2026-04-26T14:06:02.013Z</time></trkpt><trkpt lat="45.8877153" lon="11.7138543"><ele>1068.8333333333333</ele><time>2026-04-26T14:06:03.023Z</time></trkpt><trkpt lat="45.8876931" lon="11.7139509"><ele>1068.6666666666665</ele><time>2026-04-26T14:06:04.025Z</time></trkpt><trkpt lat="45.887678" lon="11.7140589"><ele>1068.5</ele><time>2026-04-26T14:06:05.008Z</time></trkpt><trkpt lat="45.8876791" lon="11.7141677"><ele>1068.3333333333333</ele><time>2026-04-26T14:06:06.013Z</time></trkpt><trkpt lat="45.8876893" lon="11.7142781"><ele>1068.1666666666667</ele><time>2026-04-26T14:06:07.009Z</time></trkpt><trkpt lat="45.8876898" lon="11.7144008"><ele>1068.0</ele><time>2026-04-26T14:06:08.012Z</time></trkpt><trkpt lat="45.8876854" lon="11.7145026"><ele>1068.0</ele><time>2026-04-26T14:06:09.015Z</time></trkpt><trkpt lat="45.8876633" lon="11.7145967"><ele>1068.0</ele><time>2026-04-26T14:06:10.019Z</time></trkpt><trkpt lat="45.8876341" lon="11.7146891"><ele>1068.0</ele><time>2026-04-26T14:06:11.01Z</time></trkpt><trkpt lat="45.887607" lon="11.7147903"><ele>1068.0</ele><time>2026-04-26T14:06:12.012Z</time></trkpt><trkpt lat="45.8875755" lon="11.7149082"><ele>1068.0</ele><time>2026-04-26T14:06:13.014Z</time></trkpt><trkpt lat="45.8875464" lon="11.7150357"><ele>1068.0</ele><time>2026-04-26T14:06:14.006Z</time></trkpt><trkpt lat="45.8875221" lon="11.7151552"><ele>1074.1666666666667</ele><time>2026-04-26T14:06:15.011Z</time></trkpt><trkpt lat="45.8875062" lon="11.7152633"><ele>1080.3333333333333</ele><time>2026-04-26T14:06:16.011Z</time></trkpt><trkpt lat="45.8874926" lon="11.7153628"><ele>1086.5</ele><time>2026-04-26T14:06:17.009Z</time></trkpt><trkpt lat="45.8874958" lon="11.7154607"><ele>1092.6666666666665</ele><time>2026-04-26T14:06:18.016Z</time></trkpt><trkpt lat="45.8875196" lon="11.7155711"><ele>1098.8333333333333</ele><time>2026-04-26T14:06:19.008Z</time></trkpt><trkpt lat="45.8875629" lon="11.7156727"><ele>1105.0</ele><time>2026-04-26T14:06:20.007Z</time></trkpt><trkpt lat="45.8876153" lon="11.7157878"><ele>1105.0</ele><time>2026-04-26T14:06:21.005Z</time></trkpt><trkpt lat="45.8876741" lon="11.7159008"><ele>1105.0</ele><time>2026-04-26T14:06:22.008Z</time></trkpt><trkpt lat="45.887741" lon="11.7160151"><ele>1105.0</ele><time>2026-04-26T14:06:23.021Z</time></trkpt><trkpt lat="45.8878192" lon="11.716131"><ele>1105.0</ele><time>2026-04-26T14:06:24.016Z</time></trkpt><trkpt lat="45.8878893" lon="11.7162125"><ele>1105.0</ele><time>2026-04-26T14:06:25.011Z</time></trkpt><trkpt lat="45.8879466" lon="11.7162939"><ele>1111.0</ele><time>2026-04-26T14:06:26.02Z</time></trkpt><trkpt lat="45.8879953" lon="11.7163763"><ele>1117.0</ele><time>2026-04-26T14:06:27.015Z</time></trkpt><trkpt lat="45.8880353" lon="11.7164599"><ele>1123.0</ele><time>2026-04-26T14:06:28.011Z</time></trkpt><trkpt lat="45.8880757" lon="11.7165294"><ele>1129.0</ele><time>2026-04-26T14:06:29.012Z</time></trkpt><trkpt lat="45.8881842" lon="11.716614"><ele>1135.0</ele><time>2026-04-26T14:06:31.007Z</time></trkpt><trkpt lat="45.8882701" lon="11.7166138"><ele>1141.0</ele><time>2026-04-26T14:06:32.007Z</time></trkpt><trkpt lat="45.8883328" lon="11.7166221"><ele>1141.0</ele><time>2026-04-26T14:06:33.019Z</time></trkpt><trkpt lat="45.8884187" lon="11.7166357"><ele>1141.0</ele><time>2026-04-26T14:06:34.017Z</time></trkpt><trkpt lat="45.8885078" lon="11.7166661"><ele>1141.0</ele><time>2026-04-26T14:06:35.008Z</time></trkpt><trkpt lat="45.888607" lon="11.7166933"><ele>1141.0</ele><time>2026-04-26T14:06:36.02Z</time></trkpt><trkpt lat="45.8887087" lon="11.7167272"><ele>1141.0</ele><time>2026-04-26T14:06:37.012Z</time></trkpt><trkpt lat="45.8888163" lon="11.7167423"><ele>1140.5</ele><time>2026-04-26T14:06:38.006Z</time></trkpt><trkpt lat="45.8889136" lon="11.7167606"><ele>1140.0</ele><time>2026-04-26T14:06:39.013Z</time></trkpt><trkpt lat="45.8890047" lon="11.7167778"><ele>1139.5</ele><time>2026-04-26T14:06:40.011Z</time></trkpt><trkpt lat="45.8890772" lon="11.7167977"><ele>1139.0</ele><time>2026-04-26T14:06:41.011Z</time></trkpt><trkpt lat="45.8891743" lon="11.7168587"><ele>1138.5</ele><time>2026-04-26T14:06:43.021Z</time></trkpt><trkpt lat="45.8892221" lon="11.7169178"><ele>1138.0</ele><time>2026-04-26T14:06:44.024Z</time></trkpt><trkpt lat="45.8892715" lon="11.7170072"><ele>1138.0</ele><time>2026-04-26T14:06:45.016Z</time></trkpt><trkpt lat="45.889315" lon="11.7171265"><ele>1138.0</ele><time>2026-04-26T14:06:46.016Z</time></trkpt><trkpt lat="45.8893586" lon="11.7172443"><ele>1138.0</ele><time>2026-04-26T14:06:47.012Z</time></trkpt><trkpt lat="45.8894084" lon="11.7173583"><ele>1138.0</ele><time>2026-04-26T14:06:48.013Z</time></trkpt><trkpt lat="45.889447" lon="11.7174706"><ele>1138.0</ele><time>2026-04-26T14:06:49.018Z</time></trkpt><trkpt lat="45.8894937" lon="11.7175655"><ele>1138.0</ele><time>2026-04-26T14:06:50.01Z</time></trkpt><trkpt lat="45.8895455" lon="11.7176457"><ele>1138.0</ele><time>2026-04-26T14:06:51.002Z</time></trkpt><trkpt lat="45.8896046" lon="11.7177252"><ele>1138.0</ele><time>2026-04-26T14:06:52.016Z</time></trkpt><trkpt lat="45.8896559" lon="11.7178035"><ele>1138.0</ele><time>2026-04-26T14:06:53.021Z</time></trkpt><trkpt lat="45.8897109" lon="11.7178621"><ele>1138.0</ele><time>2026-04-26T14:06:54.021Z</time></trkpt><trkpt lat="45.8897773" lon="11.7178933"><ele>1138.0</ele><time>2026-04-26T14:06:55.022Z</time></trkpt><trkpt lat="45.8898762" lon="11.7179107"><ele>1138.0</ele><time>2026-04-26T14:06:57.011Z</time></trkpt><trkpt lat="45.8899366" lon="11.7180169"><ele>1139.7142857142858</ele><time>2026-04-26T14:06:59.011Z</time></trkpt><trkpt lat="45.8899685" lon="11.718095"><ele>1141.4285714285716</ele><time>2026-04-26T14:07:00.006Z</time></trkpt><trkpt lat="45.889997" lon="11.7181945"><ele>1143.142857142857</ele><time>2026-04-26T14:07:01.016Z</time></trkpt><trkpt lat="45.8900415" lon="11.7182679"><ele>1144.857142857143</ele><time>2026-04-26T14:07:02.01Z</time></trkpt><trkpt lat="45.8900998" lon="11.718315"><ele>1146.5714285714284</ele><time>2026-04-26T14:07:03.008Z</time></trkpt><trkpt lat="45.8901618" lon="11.7183449"><ele>1148.2857142857142</ele><time>2026-04-26T14:07:04.001Z</time></trkpt><trkpt lat="45.8902471" lon="11.7183749"><ele>1150.0</ele><time>2026-04-26T14:07:05.012Z</time></trkpt><trkpt lat="45.8903408" lon="11.718412"><ele>1150.0</ele><time>2026-04-26T14:07:06.008Z</time></trkpt><trkpt lat="45.8904206" lon="11.7184425"><ele>1150.0</ele><time>2026-04-26T14:07:07.023Z</time></trkpt><trkpt lat="45.8905125" lon="11.718478"><ele>1150.0</ele><time>2026-04-26T14:07:08.008Z</time></trkpt><trkpt lat="45.8905931" lon="11.7185158"><ele>1150.0</ele><time>2026-04-26T14:07:09.013Z</time></trkpt><trkpt lat="45.8906674" lon="11.7185434"><ele>1150.0</ele><time>2026-04-26T14:07:10.007Z</time></trkpt><trkpt lat="45.8907413" lon="11.7185755"><ele>1150.0</ele><time>2026-04-26T14:07:11.021Z</time></trkpt><trkpt lat="45.8908205" lon="11.718612"><ele>1154.5</ele><time>2026-04-26T14:07:12.009Z</time></trkpt><trkpt lat="45.8908926" lon="11.7186622"><ele>1159.0</ele><time>2026-04-26T14:07:13.012Z</time></trkpt><trkpt lat="45.8909573" lon="11.7187264"><ele>1163.5</ele><time>2026-04-26T14:07:14.014Z</time></trkpt><trkpt lat="45.8910297" lon="11.7187945"><ele>1168.0</ele><time>2026-04-26T14:07:15.015Z</time></trkpt><trkpt lat="45.8910962" lon="11.7188601"><ele>1172.5</ele><time>2026-04-26T14:07:16.014Z</time></trkpt><trkpt lat="45.8911662" lon="11.7189358"><ele>1177.0</ele><time>2026-04-26T14:07:17.01Z</time></trkpt><trkpt lat="45.8912301" lon="11.719011"><ele>1177.0</ele><time>2026-04-26T14:07:18.006Z</time></trkpt><trkpt lat="45.8913304" lon="11.7191319"><ele>1177.0</ele><time>2026-04-26T14:07:20.007Z</time></trkpt><trkpt lat="45.8913936" lon="11.7191914"><ele>1177.0</ele><time>2026-04-26T14:07:21.009Z</time></trkpt><trkpt lat="45.8914658" lon="11.7192418"><ele>1177.0</ele><time>2026-04-26T14:07:22.008Z</time></trkpt><trkpt lat="45.8915554" lon="11.7192865"><ele>1177.0</ele><time>2026-04-26T14:07:23.01Z</time></trkpt><trkpt lat="45.8916505" lon="11.7193102"><ele>1177.0</ele><time>2026-04-26T14:07:24.002Z</time></trkpt><trkpt lat="45.8917567" lon="11.7193241"><ele>1177.0</ele><time>2026-04-26T14:07:25.01Z</time></trkpt><trkpt lat="45.8918494" lon="11.7193173"><ele>1177.0</ele><time>2026-04-26T14:07:26.006Z</time></trkpt><trkpt lat="45.8919408" lon="11.7192927"><ele>1177.0</ele><time>2026-04-26T14:07:27.018Z</time></trkpt><trkpt lat="45.8920382" lon="11.7192666"><ele>1177.0</ele><time>2026-04-26T14:07:28.011Z</time></trkpt><trkpt lat="45.8921296" lon="11.7192365"><ele>1177.6666666666665</ele><time>2026-04-26T14:07:29.008Z</time></trkpt><trkpt lat="45.8922098" lon="11.7192177"><ele>1178.3333333333333</ele><time>2026-04-26T14:07:30.014Z</time></trkpt><trkpt lat="45.8922859" lon="11.7191944"><ele>1179.0</ele><time>2026-04-26T14:07:31.01Z</time></trkpt><trkpt lat="45.8923586" lon="11.7191887"><ele>1179.6666666666667</ele><time>2026-04-26T14:07:32.008Z</time></trkpt><trkpt lat="45.8924272" lon="11.7192126"><ele>1180.3333333333335</ele><time>2026-04-26T14:07:33.008Z</time></trkpt><trkpt lat="45.8925045" lon="11.7192554"><ele>1181.0</ele><time>2026-04-26T14:07:34.017Z</time></trkpt><trkpt lat="45.892572" lon="11.7193086"><ele>1184.5</ele><time>2026-04-26T14:07:35.025Z</time></trkpt><trkpt lat="45.8926301" lon="11.7193587"><ele>1188.0</ele><time>2026-04-26T14:07:36.013Z</time></trkpt><trkpt lat="45.8926745" lon="11.7194808"><ele>1191.5</ele><time>2026-04-26T14:07:38.018Z</time></trkpt><trkpt lat="45.8926177" lon="11.7195461"><ele>1195.0</ele><time>2026-04-26T14:07:41.03Z</time></trkpt><trkpt lat="45.8925075" lon="11.7194986"><ele>1198.5</ele><time>2026-04-26T14:07:43.017Z</time></trkpt><trkpt lat="45.8924411" lon="11.7194479"><ele>1202.0</ele><time>2026-04-26T14:07:44.02Z</time></trkpt><trkpt lat="45.8923547" lon="11.719444"><ele>1202.0</ele><time>2026-04-26T14:07:45.01Z</time></trkpt><trkpt lat="45.8922637" lon="11.7194747"><ele>1202.0</ele><time>2026-04-26T14:07:46.011Z</time></trkpt><trkpt lat="45.8921769" lon="11.7195021"><ele>1202.0</ele><time>2026-04-26T14:07:47.017Z</time></trkpt><trkpt lat="45.8920994" lon="11.7195389"><ele>1202.0</ele><time>2026-04-26T14:07:48.01Z</time></trkpt><trkpt lat="45.8920164" lon="11.7195862"><ele>1202.0</ele><time>2026-04-26T14:07:49.014Z</time></trkpt><trkpt lat="45.8919246" lon="11.7196407"><ele>1202.0</ele><time>2026-04-26T14:07:50.013Z</time></trkpt><trkpt lat="45.891821" lon="11.7196825"><ele>1202.0</ele><time>2026-04-26T14:07:51.019Z</time></trkpt><trkpt lat="45.8917271" lon="11.7197124"><ele>1202.0</ele><time>2026-04-26T14:07:52.029Z</time></trkpt><trkpt lat="45.8916322" lon="11.7197311"><ele>1202.0</ele><time>2026-04-26T14:07:53.022Z</time></trkpt><trkpt lat="45.8915376" lon="11.7197346"><ele>1202.0</ele><time>2026-04-26T14:07:54.017Z</time></trkpt><trkpt lat="45.8914357" lon="11.7197282"><ele>1206.4</ele><time>2026-04-26T14:07:55.004Z</time></trkpt><trkpt lat="45.8913433" lon="11.7197028"><ele>1210.8000000000002</ele><time>2026-04-26T14:07:56.014Z</time></trkpt><trkpt lat="45.8912523" lon="11.7196732"><ele>1215.2</ele><time>2026-04-26T14:07:57.024Z</time></trkpt><trkpt lat="45.8911681" lon="11.7196315"><ele>1219.6000000000001</ele><time>2026-04-26T14:07:58.011Z</time></trkpt><trkpt lat="45.8910792" lon="11.7195801"><ele>1224.0</ele><time>2026-04-26T14:07:59.008Z</time></trkpt><trkpt lat="45.8909885" lon="11.7195115"><ele>1226.8</ele><time>2026-04-26T14:08:00.006Z</time></trkpt><trkpt lat="45.89091" lon="11.7194513"><ele>1229.6000000000001</ele><time>2026-04-26T14:08:01.004Z</time></trkpt><trkpt lat="45.8908352" lon="11.7194274"><ele>1232.4</ele><time>2026-04-26T14:08:02.013Z</time></trkpt><trkpt lat="45.8907465" lon="11.7194036"><ele>1235.2</ele><time>2026-04-26T14:08:03.024Z</time></trkpt><trkpt lat="45.8906513" lon="11.7193882"><ele>1238.0</ele><time>2026-04-26T14:08:04.011Z</time></trkpt><trkpt lat="45.8905517" lon="11.719374"><ele>1234.8333333333335</ele><time>2026-04-26T14:08:05.011Z</time></trkpt><trkpt lat="45.8904536" lon="11.719372"><ele>1231.6666666666667</ele><time>2026-04-26T14:08:06.017Z</time></trkpt><trkpt lat="45.8903564" lon="11.7193682"><ele>1228.5</ele><time>2026-04-26T14:08:07.008Z</time></trkpt><trkpt lat="45.8902685" lon="11.7193631"><ele>1225.3333333333333</ele><time>2026-04-26T14:08:08.003Z</time></trkpt><trkpt lat="45.8901875" lon="11.7193602"><ele>1222.1666666666665</ele><time>2026-04-26T14:08:09.024Z</time></trkpt><trkpt lat="45.8901132" lon="11.7193703"><ele>1219.0</ele><time>2026-04-26T14:08:10.019Z</time></trkpt><trkpt lat="45.8900248" lon="11.7193793"><ele>1219.0</ele><time>2026-04-26T14:08:11.006Z</time></trkpt><trkpt lat="45.8899391" lon="11.7193913"><ele>1219.0</ele><time>2026-04-26T14:08:12.006Z</time></trkpt><trkpt lat="45.8898544" lon="11.7193752"><ele>1219.0</ele><time>2026-04-26T14:08:13.017Z</time></trkpt><trkpt lat="45.8897546" lon="11.7193046"><ele>1219.0</ele><time>2026-04-26T14:08:14.012Z</time></trkpt><trkpt lat="45.8896743" lon="11.7192394"><ele>1219.0</ele><time>2026-04-26T14:08:15.013Z</time></trkpt><trkpt lat="45.8895941" lon="11.7191546"><ele>1219.0</ele><time>2026-04-26T14:08:16.009Z</time></trkpt><trkpt lat="45.8895139" lon="11.7190632"><ele>1219.0</ele><time>2026-04-26T14:08:17.011Z</time></trkpt><trkpt lat="45.8894448" lon="11.7189748"><ele>1219.0</ele><time>2026-04-26T14:08:18.021Z</time></trkpt><trkpt lat="45.8893706" lon="11.7188977"><ele>1219.0</ele><time>2026-04-26T14:08:19.014Z</time></trkpt><trkpt lat="45.8892953" lon="11.7188365"><ele>1219.0</ele><time>2026-04-26T14:08:20.007Z</time></trkpt><trkpt lat="45.8892099" lon="11.7187347"><ele>1218.3333333333333</ele><time>2026-04-26T14:08:21.019Z</time></trkpt><trkpt lat="45.8891309" lon="11.718668"><ele>1217.6666666666665</ele><time>2026-04-26T14:08:22.007Z</time></trkpt><trkpt lat="45.8890599" lon="11.7186024"><ele>1217.0</ele><time>2026-04-26T14:08:23.023Z</time></trkpt><trkpt lat="45.889" lon="11.7185323"><ele>1216.3333333333333</ele><time>2026-04-26T14:08:24.016Z</time></trkpt><trkpt lat="45.8889459" lon="11.7184647"><ele>1215.6666666666667</ele><time>2026-04-26T14:08:25.01Z</time></trkpt><trkpt lat="45.8888908" lon="11.7184129"><ele>1215.0</ele><time>2026-04-26T14:08:26.039Z</time></trkpt><trkpt lat="45.8888282" lon="11.7183817"><ele>1215.0</ele><time>2026-04-26T14:08:27.03Z</time></trkpt><trkpt lat="45.8887595" lon="11.7183943"><ele>1215.0</ele><time>2026-04-26T14:08:28.021Z</time></trkpt><trkpt lat="45.8886772" lon="11.7184139"><ele>1215.0</ele><time>2026-04-26T14:08:29.022Z</time></trkpt><trkpt lat="45.8885829" lon="11.7184363"><ele>1215.0</ele><time>2026-04-26T14:08:30.015Z</time></trkpt><trkpt lat="45.8884939" lon="11.7184586"><ele>1215.0</ele><time>2026-04-26T14:08:31.022Z</time></trkpt><trkpt lat="45.8884205" lon="11.7184733"><ele>1215.0</ele><time>2026-04-26T14:08:32.027Z</time></trkpt><trkpt lat="45.8883444" lon="11.7184737"><ele>1217.8</ele><time>2026-04-26T14:08:33.011Z</time></trkpt><trkpt lat="45.8882421" lon="11.7185173"><ele>1220.6</ele><time>2026-04-26T14:08:35.027Z</time></trkpt><trkpt lat="45.8882077" lon="11.7186755"><ele>1223.4</ele><time>2026-04-26T14:08:37.013Z</time></trkpt><trkpt lat="45.888204" lon="11.7187918"><ele>1226.2</ele><time>2026-04-26T14:08:38.029Z</time></trkpt><trkpt lat="45.8881863" lon="11.7189185"><ele>1229.0</ele><time>2026-04-26T14:08:39.023Z</time></trkpt><trkpt lat="45.8881706" lon="11.719051"><ele>1232.2</ele><time>2026-04-26T14:08:40.013Z</time></trkpt><trkpt lat="45.8881576" lon="11.7191907"><ele>1235.4</ele><time>2026-04-26T14:08:41.019Z</time></trkpt><trkpt lat="45.8881515" lon="11.7193469"><ele>1238.6</ele><time>2026-04-26T14:08:42.017Z</time></trkpt><trkpt lat="45.8881459" lon="11.7194961"><ele>1241.8</ele><time>2026-04-26T14:08:43.013Z</time></trkpt><trkpt lat="45.8881398" lon="11.7196353"><ele>1245.0</ele><time>2026-04-26T14:08:44.019Z</time></trkpt><trkpt lat="45.8881381" lon="11.7197667"><ele>1245.0</ele><time>2026-04-26T14:08:45.028Z</time></trkpt><trkpt lat="45.8881327" lon="11.719894"><ele>1245.0</ele><time>2026-04-26T14:08:46.017Z</time></trkpt><trkpt lat="45.8881263" lon="11.7200199"><ele>1245.0</ele><time>2026-04-26T14:08:47.028Z</time></trkpt><trkpt lat="45.8881197" lon="11.7201329"><ele>1245.0</ele><time>2026-04-26T14:08:48.031Z</time></trkpt><trkpt lat="45.8881129" lon="11.7202446"><ele>1245.0</ele><time>2026-04-26T14:08:49.017Z</time></trkpt><trkpt lat="45.8881049" lon="11.7203549"><ele>1245.0</ele><time>2026-04-26T14:08:50.013Z</time></trkpt><trkpt lat="45.8880985" lon="11.7204564"><ele>1244.0</ele><time>2026-04-26T14:08:51.024Z</time></trkpt><trkpt lat="45.888094" lon="11.7205481"><ele>1243.0</ele><time>2026-04-26T14:08:52.018Z</time></trkpt><trkpt lat="45.8880889" lon="11.7207009"><ele>1242.0</ele><time>2026-04-26T14:08:54.034Z</time></trkpt><trkpt lat="45.8880845" lon="11.7208098"><ele>1241.0</ele><time>2026-04-26T14:08:56.041Z</time></trkpt><trkpt lat="45.8880864" lon="11.7209393"><ele>1240.0</ele><time>2026-04-26T14:09:54.033Z</time></trkpt><trkpt lat="45.8880943" lon="11.7210938"><ele>1239.0</ele><time>2026-04-26T14:09:56.009Z</time></trkpt><trkpt lat="45.8880892" lon="11.7212504"><ele>1238.5</ele><time>2026-04-26T14:09:58.014Z</time></trkpt><trkpt lat="45.8880241" lon="11.7213442"><ele>1238.0</ele><time>2026-04-26T14:10:00.012Z</time></trkpt><trkpt lat="45.8879626" lon="11.7213652"><ele>1237.5</ele><time>2026-04-26T14:10:01.017Z</time></trkpt><trkpt lat="45.8878873" lon="11.721362"><ele>1237.0</ele><time>2026-04-26T14:10:02.015Z</time></trkpt><trkpt lat="45.8878026" lon="11.7213525"><ele>1236.5</ele><time>2026-04-26T14:10:03.019Z</time></trkpt><trkpt lat="45.887706" lon="11.7213527"><ele>1236.0</ele><time>2026-04-26T14:10:04.025Z</time></trkpt><trkpt lat="45.8876023" lon="11.7213625"><ele>1234.8</ele><time>2026-04-26T14:10:05.011Z</time></trkpt><trkpt lat="45.8874947" lon="11.7213774"><ele>1233.6</ele><time>2026-04-26T14:10:06.015Z</time></trkpt><trkpt lat="45.8873844" lon="11.7213988"><ele>1232.4</ele><time>2026-04-26T14:10:07.025Z</time></trkpt><trkpt lat="45.8872721" lon="11.7214243"><ele>1231.2</ele><time>2026-04-26T14:10:08.015Z</time></trkpt><trkpt lat="45.887157" lon="11.7214462"><ele>1230.0</ele><time>2026-04-26T14:10:09.022Z</time></trkpt><trkpt lat="45.8870402" lon="11.7214449"><ele>1230.0</ele><time>2026-04-26T14:10:10.019Z</time></trkpt><trkpt lat="45.8869215" lon="11.7214084"><ele>1230.0</ele><time>2026-04-26T14:10:11.021Z</time></trkpt><trkpt lat="45.8868042" lon="11.7213505"><ele>1230.0</ele><time>2026-04-26T14:10:12.026Z</time></trkpt><trkpt lat="45.8866864" lon="11.7212901"><ele>1230.0</ele><time>2026-04-26T14:10:13.013Z</time></trkpt><trkpt lat="45.8865682" lon="11.7212275"><ele>1230.5</ele><time>2026-04-26T14:10:14.009Z</time></trkpt><trkpt lat="45.886448" lon="11.7211621"><ele>1231.0</ele><time>2026-04-26T14:10:15.014Z</time></trkpt><trkpt lat="45.886331" lon="11.7210912"><ele>1231.5</ele><time>2026-04-26T14:10:16.016Z</time></trkpt><trkpt lat="45.8862155" lon="11.7210118"><ele>1232.0</ele><time>2026-04-26T14:10:17.019Z</time></trkpt><trkpt lat="45.8861039" lon="11.7209241"><ele>1232.0</ele><time>2026-04-26T14:10:18.014Z</time></trkpt><trkpt lat="45.8859992" lon="11.7208268"><ele>1232.0</ele><time>2026-04-26T14:10:19.021Z</time></trkpt><trkpt lat="45.8859" lon="11.7207216"><ele>1232.0</ele><time>2026-04-26T14:10:20.02Z</time></trkpt><trkpt lat="45.8858089" lon="11.7205989"><ele>1232.0</ele><time>2026-04-26T14:10:21.02Z</time></trkpt><trkpt lat="45.8857312" lon="11.7204583"><ele>1230.75</ele><time>2026-04-26T14:10:22.017Z</time></trkpt><trkpt lat="45.8856556" lon="11.720309"><ele>1229.5</ele><time>2026-04-26T14:10:23.025Z</time></trkpt><trkpt lat="45.8855784" lon="11.7201573"><ele>1228.25</ele><time>2026-04-26T14:10:24.017Z</time></trkpt><trkpt lat="45.8854961" lon="11.7200064"><ele>1227.0</ele><time>2026-04-26T14:10:25.006Z</time></trkpt><trkpt lat="45.8854107" lon="11.7198543"><ele>1227.0</ele><time>2026-04-26T14:10:26.012Z</time></trkpt><trkpt lat="45.8853239" lon="11.7197001"><ele>1227.0</ele><time>2026-04-26T14:10:27.008Z</time></trkpt><trkpt lat="45.8852358" lon="11.719546"><ele>1227.0</ele><time>2026-04-26T14:10:28.009Z</time></trkpt><trkpt lat="45.8851459" lon="11.7193922"><ele>1227.0</ele><time>2026-04-26T14:10:29.01Z</time></trkpt><trkpt lat="45.8850566" lon="11.7192357"><ele>1224.5</ele><time>2026-04-26T14:10:30.016Z</time></trkpt><trkpt lat="45.8849661" lon="11.7190822"><ele>1222.0</ele><time>2026-04-26T14:10:31.012Z</time></trkpt><trkpt lat="45.8848737" lon="11.7189338"><ele>1219.5</ele><time>2026-04-26T14:10:32.015Z</time></trkpt><trkpt lat="45.8847757" lon="11.7187891"><ele>1217.0</ele><time>2026-04-26T14:10:33.024Z</time></trkpt><trkpt lat="45.884675" lon="11.7186538"><ele>1219.75</ele><time>2026-04-26T14:10:34.066Z</time></trkpt><trkpt lat="45.8845735" lon="11.7185203"><ele>1222.5</ele><time>2026-04-26T14:10:35.009Z</time></trkpt><trkpt lat="45.8844766" lon="11.718395"><ele>1225.25</ele><time>2026-04-26T14:10:36.008Z</time></trkpt><trkpt lat="45.884376" lon="11.7182943"><ele>1228.0</ele><time>2026-04-26T14:10:37.017Z</time></trkpt><trkpt lat="45.8842682" lon="11.7182276"><ele>1224.5</ele><time>2026-04-26T14:10:38.027Z</time></trkpt><trkpt lat="45.8841571" lon="11.7181966"><ele>1221.0</ele><time>2026-04-26T14:10:39.015Z</time></trkpt><trkpt lat="45.8840432" lon="11.7181903"><ele>1217.5</ele><time>2026-04-26T14:10:40.016Z</time></trkpt><trkpt lat="45.8839291" lon="11.7181948"><ele>1214.0</ele><time>2026-04-26T14:10:41.016Z</time></trkpt><trkpt lat="45.8838065" lon="11.7182071"><ele>1214.0</ele><time>2026-04-26T14:10:42.003Z</time></trkpt><trkpt lat="45.8836802" lon="11.7182209"><ele>1214.0</ele><time>2026-04-26T14:10:43.029Z</time></trkpt><trkpt lat="45.8835456" lon="11.7182578"><ele>1214.0</ele><time>2026-04-26T14:10:44.014Z</time></trkpt><trkpt lat="45.8834091" lon="11.7182994"><ele>1214.0</ele><time>2026-04-26T14:10:45.011Z</time></trkpt><trkpt lat="45.8832744" lon="11.7183677"><ele>1214.0</ele><time>2026-04-26T14:10:46.021Z</time></trkpt><trkpt lat="45.8831382" lon="11.7184349"><ele>1214.0</ele><time>2026-04-26T14:10:47.019Z</time></trkpt><trkpt lat="45.8830009" lon="11.7185044"><ele>1214.0</ele><time>2026-04-26T14:10:48.01Z</time></trkpt><trkpt lat="45.8828639" lon="11.7185876"><ele>1214.0</ele><time>2026-04-26T14:10:49.015Z</time></trkpt><trkpt lat="45.8827286" lon="11.7186854"><ele>1212.6666666666667</ele><time>2026-04-26T14:10:50.012Z</time></trkpt><trkpt lat="45.8825915" lon="11.7187882"><ele>1211.3333333333333</ele><time>2026-04-26T14:10:50.999Z</time></trkpt><trkpt lat="45.8824501" lon="11.7188823"><ele>1210.0</ele><time>2026-04-26T14:10:52.017Z</time></trkpt><trkpt lat="45.8823044" lon="11.7189669"><ele>1210.0</ele><time>2026-04-26T14:10:53.011Z</time></trkpt><trkpt lat="45.8821561" lon="11.7190449"><ele>1210.0</ele><time>2026-04-26T14:10:54.002Z</time></trkpt><trkpt lat="45.882005" lon="11.7191061"><ele>1210.0</ele><time>2026-04-26T14:10:55.017Z</time></trkpt><trkpt lat="45.8818491" lon="11.7191617"><ele>1209.0</ele><time>2026-04-26T14:10:56.015Z</time></trkpt><trkpt lat="45.8816971" lon="11.7191628"><ele>1208.0</ele><time>2026-04-26T14:10:57.009Z</time></trkpt><trkpt lat="45.8815588" lon="11.7191597"><ele>1207.0</ele><time>2026-04-26T14:10:58.013Z</time></trkpt><trkpt lat="45.8814257" lon="11.7191826"><ele>1206.0</ele><time>2026-04-26T14:10:59.002Z</time></trkpt><trkpt lat="45.881291" lon="11.7192404"><ele>1206.0</ele><time>2026-04-26T14:11:00.005Z</time></trkpt><trkpt lat="45.8811643" lon="11.7193118"><ele>1206.0</ele><time>2026-04-26T14:11:01.02Z</time></trkpt><trkpt lat="45.8810382" lon="11.7193751"><ele>1206.0</ele><time>2026-04-26T14:11:02.024Z</time></trkpt><trkpt lat="45.8809107" lon="11.7194384"><ele>1206.0</ele><time>2026-04-26T14:11:03.018Z</time></trkpt><trkpt lat="45.8807876" lon="11.7195241"><ele>1207.0</ele><time>2026-04-26T14:11:04.013Z</time></trkpt><trkpt lat="45.880675" lon="11.7196377"><ele>1208.0</ele><time>2026-04-26T14:11:05.011Z</time></trkpt><trkpt lat="45.8805675" lon="11.7197689"><ele>1209.0</ele><time>2026-04-26T14:11:06.019Z</time></trkpt><trkpt lat="45.8804649" lon="11.7199039"><ele>1210.0</ele><time>2026-04-26T14:11:07.016Z</time></trkpt><trkpt lat="45.8803701" lon="11.7200256"><ele>1210.0</ele><time>2026-04-26T14:11:08.017Z</time></trkpt><trkpt lat="45.8802651" lon="11.720127"><ele>1210.0</ele><time>2026-04-26T14:11:09.01Z</time></trkpt><trkpt lat="45.8801484" lon="11.7202035"><ele>1210.0</ele><time>2026-04-26T14:11:10.03Z</time></trkpt><trkpt lat="45.8800237" lon="11.7202594"><ele>1210.0</ele><time>2026-04-26T14:11:11.018Z</time></trkpt><trkpt lat="45.8798943" lon="11.7203026"><ele>1208.25</ele><time>2026-04-26T14:11:12.006Z</time></trkpt><trkpt lat="45.8797586" lon="11.7203354"><ele>1206.5</ele><time>2026-04-26T14:11:13.018Z</time></trkpt><trkpt lat="45.8796182" lon="11.7203637"><ele>1204.75</ele><time>2026-04-26T14:11:14.02Z</time></trkpt><trkpt lat="45.8794764" lon="11.720388"><ele>1203.0</ele><time>2026-04-26T14:11:15.006Z</time></trkpt><trkpt lat="45.8793335" lon="11.7204104"><ele>1201.5</ele><time>2026-04-26T14:11:16.025Z</time></trkpt><trkpt lat="45.8791894" lon="11.7204252"><ele>1200.0</ele><time>2026-04-26T14:11:17.012Z</time></trkpt><trkpt lat="45.8790442" lon="11.720426"><ele>1198.5</ele><time>2026-04-26T14:11:18.012Z</time></trkpt><trkpt lat="45.8788986" lon="11.7204162"><ele>1197.0</ele><time>2026-04-26T14:11:19.018Z</time></trkpt><trkpt lat="45.8787529" lon="11.7203985"><ele>1197.0</ele><time>2026-04-26T14:11:20.033Z</time></trkpt><trkpt lat="45.8786076" lon="11.720381"><ele>1197.0</ele><time>2026-04-26T14:11:21.015Z</time></trkpt><trkpt lat="45.8784625" lon="11.7203653"><ele>1197.0</ele><time>2026-04-26T14:11:22.008Z</time></trkpt><trkpt lat="45.8783207" lon="11.7203524"><ele>1197.0</ele><time>2026-04-26T14:11:23.023Z</time></trkpt><trkpt lat="45.8781857" lon="11.7203429"><ele>1197.25</ele><time>2026-04-26T14:11:24.012Z</time></trkpt><trkpt lat="45.8780532" lon="11.7203334"><ele>1197.5</ele><time>2026-04-26T14:11:25.011Z</time></trkpt><trkpt lat="45.8779185" lon="11.7203184"><ele>1197.75</ele><time>2026-04-26T14:11:26.026Z</time></trkpt><trkpt lat="45.8777932" lon="11.720278"><ele>1198.0</ele><time>2026-04-26T14:11:27.028Z</time></trkpt><trkpt lat="45.8776971" lon="11.7202174"><ele>1197.0</ele><time>2026-04-26T14:11:28.025Z</time></trkpt><trkpt lat="45.8776005" lon="11.7201391"><ele>1196.0</ele><time>2026-04-26T14:11:29.01Z</time></trkpt><trkpt lat="45.8775081" lon="11.720051"><ele>1195.0</ele><time>2026-04-26T14:11:30.02Z</time></trkpt><trkpt lat="45.8774114" lon="11.7199663"><ele>1194.0</ele><time>2026-04-26T14:11:31.02Z</time></trkpt><trkpt lat="45.8773111" lon="11.7198833"><ele>1194.0</ele><time>2026-04-26T14:11:32.015Z</time></trkpt><trkpt lat="45.8772015" lon="11.7198251"><ele>1194.0</ele><time>2026-04-26T14:11:33.015Z</time></trkpt><trkpt lat="45.8770933" lon="11.7197799"><ele>1194.0</ele><time>2026-04-26T14:11:34.016Z</time></trkpt><trkpt lat="45.8769688" lon="11.7197396"><ele>1194.0</ele><time>2026-04-26T14:11:35.014Z</time></trkpt><trkpt lat="45.8768436" lon="11.7197076"><ele>1193.5</ele><time>2026-04-26T14:11:36.017Z</time></trkpt><trkpt lat="45.8767197" lon="11.7196837"><ele>1193.0</ele><time>2026-04-26T14:11:37.009Z</time></trkpt><trkpt lat="45.8765817" lon="11.7196634"><ele>1192.5</ele><time>2026-04-26T14:11:38.008Z</time></trkpt><trkpt lat="45.8764465" lon="11.7196451"><ele>1192.0</ele><time>2026-04-26T14:11:39.015Z</time></trkpt><trkpt lat="45.8763061" lon="11.7196335"><ele>1192.0</ele><time>2026-04-26T14:11:40.009Z</time></trkpt><trkpt lat="45.8761611" lon="11.7196412"><ele>1192.0</ele><time>2026-04-26T14:11:41.008Z</time></trkpt><trkpt lat="45.8760188" lon="11.7196621"><ele>1192.0</ele><time>2026-04-26T14:11:42.023Z</time></trkpt><trkpt lat="45.8758848" lon="11.719695"><ele>1192.0</ele><time>2026-04-26T14:11:43.024Z</time></trkpt><trkpt lat="45.8757597" lon="11.7197339"><ele>1192.0</ele><time>2026-04-26T14:11:44.01Z</time></trkpt><trkpt lat="45.8756392" lon="11.7197929"><ele>1192.0</ele><time>2026-04-26T14:11:45.012Z</time></trkpt><trkpt lat="45.8755254" lon="11.7198821"><ele>1192.0</ele><time>2026-04-26T14:11:46.014Z</time></trkpt><trkpt lat="45.875423" lon="11.7199964"><ele>1192.0</ele><time>2026-04-26T14:11:47.024Z</time></trkpt><trkpt lat="45.8753286" lon="11.7201287"><ele>1190.75</ele><time>2026-04-26T14:11:48.005Z</time></trkpt><trkpt lat="45.8752289" lon="11.7202528"><ele>1189.5</ele><time>2026-04-26T14:11:49.006Z</time></trkpt><trkpt lat="45.8751151" lon="11.7203603"><ele>1188.25</ele><time>2026-04-26T14:11:50.018Z</time></trkpt><trkpt lat="45.8749917" lon="11.7204394"><ele>1187.0</ele><time>2026-04-26T14:11:51.021Z</time></trkpt><trkpt lat="45.8748717" lon="11.7204978"><ele>1187.0</ele><time>2026-04-26T14:11:52.013Z</time></trkpt><trkpt lat="45.874755" lon="11.7205398"><ele>1187.0</ele><time>2026-04-26T14:11:53.024Z</time></trkpt><trkpt lat="45.8746406" lon="11.720555"><ele>1187.0</ele><time>2026-04-26T14:11:54.008Z</time></trkpt><trkpt lat="45.8745254" lon="11.7205296"><ele>1187.0</ele><time>2026-04-26T14:11:55.003Z</time></trkpt><trkpt lat="45.8744073" lon="11.7204887"><ele>1187.0</ele><time>2026-04-26T14:11:56.017Z</time></trkpt><trkpt lat="45.8742997" lon="11.7203806"><ele>1187.0</ele><time>2026-04-26T14:11:57.02Z</time></trkpt><trkpt lat="45.8741735" lon="11.7202868"><ele>1187.0</ele><time>2026-04-26T14:11:57.998Z</time></trkpt><trkpt lat="45.8740458" lon="11.7201917"><ele>1187.0</ele><time>2026-04-26T14:11:59.019Z</time></trkpt><trkpt lat="45.8739155" lon="11.7201083"><ele>1186.0</ele><time>2026-04-26T14:12:00.003Z</time></trkpt><trkpt lat="45.8737899" lon="11.7200337"><ele>1185.0</ele><time>2026-04-26T14:12:01.011Z</time></trkpt><trkpt lat="45.8736703" lon="11.7199851"><ele>1184.0</ele><time>2026-04-26T14:12:02.016Z</time></trkpt><trkpt lat="45.8735576" lon="11.7199429"><ele>1183.0</ele><time>2026-04-26T14:12:03.025Z</time></trkpt><trkpt lat="45.8734248" lon="11.7199781"><ele>1183.0</ele><time>2026-04-26T14:12:04.009Z</time></trkpt><trkpt lat="45.8732953" lon="11.720045"><ele>1183.0</ele><time>2026-04-26T14:12:05.019Z</time></trkpt><trkpt lat="45.8731625" lon="11.7201262"><ele>1183.0</ele><time>2026-04-26T14:12:06.008Z</time></trkpt><trkpt lat="45.8730291" lon="11.7202079"><ele>1183.0</ele><time>2026-04-26T14:12:07.006Z</time></trkpt><trkpt lat="45.8728914" lon="11.7202773"><ele>1182.5</ele><time>2026-04-26T14:12:08.007Z</time></trkpt><trkpt lat="45.8727545" lon="11.7203299"><ele>1182.0</ele><time>2026-04-26T14:12:09.008Z</time></trkpt><trkpt lat="45.8726141" lon="11.7203721"><ele>1181.5</ele><time>2026-04-26T14:12:10.007Z</time></trkpt><trkpt lat="45.8724771" lon="11.7204173"><ele>1181.0</ele><time>2026-04-26T14:12:11.016Z</time></trkpt><trkpt lat="45.8723484" lon="11.7204658"><ele>1179.5</ele><time>2026-04-26T14:12:12.017Z</time></trkpt><trkpt lat="45.8722376" lon="11.7205217"><ele>1178.0</ele><time>2026-04-26T14:12:13.009Z</time></trkpt><trkpt lat="45.8721401" lon="11.7205979"><ele>1176.5</ele><time>2026-04-26T14:12:14.026Z</time></trkpt><trkpt lat="45.872057" lon="11.7207012"><ele>1175.0</ele><time>2026-04-26T14:12:15.018Z</time></trkpt><trkpt lat="45.8719856" lon="11.720836"><ele>1175.0</ele><time>2026-04-26T14:12:16.014Z</time></trkpt><trkpt lat="45.8719213" lon="11.7209938"><ele>1175.0</ele><time>2026-04-26T14:12:17.011Z</time></trkpt><trkpt lat="45.8718654" lon="11.7211551"><ele>1175.0</ele><time>2026-04-26T14:12:18.023Z</time></trkpt><trkpt lat="45.8717968" lon="11.7213146"><ele>1175.0</ele><time>2026-04-26T14:12:19.012Z</time></trkpt><trkpt lat="45.8717266" lon="11.7214279"><ele>1173.2</ele><time>2026-04-26T14:12:20.004Z</time></trkpt><trkpt lat="45.8716388" lon="11.7214956"><ele>1171.4</ele><time>2026-04-26T14:12:21.006Z</time></trkpt><trkpt lat="45.8715268" lon="11.7215099"><ele>1169.6</ele><time>2026-04-26T14:12:22.018Z</time></trkpt><trkpt lat="45.8714167" lon="11.7214754"><ele>1167.8</ele><time>2026-04-26T14:12:23.011Z</time></trkpt><trkpt lat="45.8713061" lon="11.721448"><ele>1166.0</ele><time>2026-04-26T14:12:24.016Z</time></trkpt><trkpt lat="45.8711961" lon="11.7214387"><ele>1166.0</ele><time>2026-04-26T14:12:25.003Z</time></trkpt><trkpt lat="45.8710925" lon="11.7214482"><ele>1166.0</ele><time>2026-04-26T14:12:26.012Z</time></trkpt><trkpt lat="45.8710002" lon="11.7214539"><ele>1166.0</ele><time>2026-04-26T14:12:27.013Z</time></trkpt><trkpt lat="45.8709251" lon="11.7215109"><ele>1166.0</ele><time>2026-04-26T14:12:28.007Z</time></trkpt><trkpt lat="45.870854" lon="11.7216084"><ele>1166.0</ele><time>2026-04-26T14:12:29.02Z</time></trkpt><trkpt lat="45.8707871" lon="11.7217243"><ele>1164.25</ele><time>2026-04-26T14:12:30.016Z</time></trkpt><trkpt lat="45.8707176" lon="11.7218449"><ele>1162.5</ele><time>2026-04-26T14:12:31.002Z</time></trkpt><trkpt lat="45.8706276" lon="11.7219644"><ele>1160.75</ele><time>2026-04-26T14:12:32.012Z</time></trkpt><trkpt lat="45.8705246" lon="11.7220157"><ele>1159.0</ele><time>2026-04-26T14:12:33.016Z</time></trkpt><trkpt lat="45.8704133" lon="11.7220254"><ele>1158.75</ele><time>2026-04-26T14:12:34.006Z</time></trkpt><trkpt lat="45.8703145" lon="11.7219777"><ele>1158.5</ele><time>2026-04-26T14:12:35.014Z</time></trkpt><trkpt lat="45.8702032" lon="11.721935"><ele>1158.25</ele><time>2026-04-26T14:12:36.009Z</time></trkpt><trkpt lat="45.8700849" lon="11.7219426"><ele>1158.0</ele><time>2026-04-26T14:12:37.005Z</time></trkpt><trkpt lat="45.8699611" lon="11.721966"><ele>1155.0</ele><time>2026-04-26T14:12:38.021Z</time></trkpt><trkpt lat="45.8698512" lon="11.722032"><ele>1152.0</ele><time>2026-04-26T14:12:39.017Z</time></trkpt><trkpt lat="45.8697445" lon="11.7221294"><ele>1149.0</ele><time>2026-04-26T14:12:40.011Z</time></trkpt><trkpt lat="45.8696457" lon="11.7222453"><ele>1146.0</ele><time>2026-04-26T14:12:41.017Z</time></trkpt><trkpt lat="45.8695536" lon="11.7223704"><ele>1146.0</ele><time>2026-04-26T14:12:42.019Z</time></trkpt><trkpt lat="45.8694632" lon="11.7224992"><ele>1146.0</ele><time>2026-04-26T14:12:43.008Z</time></trkpt><trkpt lat="45.8693739" lon="11.7226259"><ele>1146.0</ele><time>2026-04-26T14:12:44.019Z</time></trkpt><trkpt lat="45.8692825" lon="11.7227498"><ele>1146.0</ele><time>2026-04-26T14:12:45.025Z</time></trkpt><trkpt lat="45.8691885" lon="11.7228708"><ele>1145.0</ele><time>2026-04-26T14:12:46.009Z</time></trkpt><trkpt lat="45.8690967" lon="11.7229917"><ele>1144.0</ele><time>2026-04-26T14:12:47.011Z</time></trkpt><trkpt lat="45.8690085" lon="11.7231164"><ele>1143.0</ele><time>2026-04-26T14:12:48.012Z</time></trkpt><trkpt lat="45.8689349" lon="11.7232552"><ele>1142.0</ele><time>2026-04-26T14:12:49.018Z</time></trkpt><trkpt lat="45.8688923" lon="11.7234104"><ele>1142.5</ele><time>2026-04-26T14:12:50.007Z</time></trkpt><trkpt lat="45.8688802" lon="11.72359"><ele>1143.0</ele><time>2026-04-26T14:12:51.019Z</time></trkpt><trkpt lat="45.8688773" lon="11.7237737"><ele>1143.5</ele><time>2026-04-26T14:12:52.033Z</time></trkpt><trkpt lat="45.8688772" lon="11.7239621"><ele>1144.0</ele><time>2026-04-26T14:12:53.013Z</time></trkpt><trkpt lat="45.868882" lon="11.7241537"><ele>1144.0</ele><time>2026-04-26T14:12:54.021Z</time></trkpt><trkpt lat="45.8688902" lon="11.7243397"><ele>1144.0</ele><time>2026-04-26T14:12:55.008Z</time></trkpt><trkpt lat="45.8689121" lon="11.7245118"><ele>1144.0</ele><time>2026-04-26T14:12:56.005Z</time></trkpt><trkpt lat="45.8689209" lon="11.7246861"><ele>1144.0</ele><time>2026-04-26T14:12:57.005Z</time></trkpt><trkpt lat="45.868907" lon="11.7248522"><ele>1144.6000000000001</ele><time>2026-04-26T14:12:58.015Z</time></trkpt><trkpt lat="45.868831" lon="11.7250004"><ele>1145.2</ele><time>2026-04-26T14:12:59.016Z</time></trkpt><trkpt lat="45.8687592" lon="11.7251232"><ele>1145.8000000000002</ele><time>2026-04-26T14:13:00.003Z</time></trkpt><trkpt lat="45.8687017" lon="11.7252359"><ele>1146.4</ele><time>2026-04-26T14:13:01.004Z</time></trkpt><trkpt lat="45.8685994" lon="11.7252718"><ele>1147.0</ele><time>2026-04-26T14:13:02.01Z</time></trkpt><trkpt lat="45.8684971" lon="11.7252987"><ele>1146.5</ele><time>2026-04-26T14:13:03.017Z</time></trkpt><trkpt lat="45.868378" lon="11.7252505"><ele>1146.0</ele><time>2026-04-26T14:13:04.011Z</time></trkpt><trkpt lat="45.8682612" lon="11.7252142"><ele>1145.5</ele><time>2026-04-26T14:13:05.012Z</time></trkpt><trkpt lat="45.8681378" lon="11.7252097"><ele>1145.0</ele><time>2026-04-26T14:13:06.014Z</time></trkpt><trkpt lat="45.8680203" lon="11.7252233"><ele>1145.0</ele><time>2026-04-26T14:13:07.013Z</time></trkpt><trkpt lat="45.867904" lon="11.725237"><ele>1145.0</ele><time>2026-04-26T14:13:08.018Z</time></trkpt><trkpt lat="45.8678074" lon="11.7253237"><ele>1145.0</ele><time>2026-04-26T14:13:09.019Z</time></trkpt><trkpt lat="45.8677104" lon="11.7254446"><ele>1145.0</ele><time>2026-04-26T14:13:10.007Z</time></trkpt><trkpt lat="45.8676125" lon="11.7255677"><ele>1140.75</ele><time>2026-04-26T14:13:11.011Z</time></trkpt><trkpt lat="45.8675192" lon="11.7256964"><ele>1136.5</ele><time>2026-04-26T14:13:12.02Z</time></trkpt><trkpt lat="45.8674342" lon="11.7258258"><ele>1132.25</ele><time>2026-04-26T14:13:13.026Z</time></trkpt><trkpt lat="45.8673526" lon="11.7259365"><ele>1128.0</ele><time>2026-04-26T14:13:14.018Z</time></trkpt><trkpt lat="45.8672748" lon="11.726039"><ele>1130.1666666666667</ele><time>2026-04-26T14:13:15.002Z</time></trkpt><trkpt lat="45.8671909" lon="11.7261181"><ele>1132.3333333333333</ele><time>2026-04-26T14:13:16.017Z</time></trkpt><trkpt lat="45.8671064" lon="11.7261717"><ele>1134.5</ele><time>2026-04-26T14:13:17.012Z</time></trkpt><trkpt lat="45.8670297" lon="11.7262222"><ele>1136.6666666666665</ele><time>2026-04-26T14:13:18.001Z</time></trkpt><trkpt lat="45.8669559" lon="11.7262277"><ele>1138.8333333333333</ele><time>2026-04-26T14:13:19.017Z</time></trkpt><trkpt lat="45.8668779" lon="11.7262124"><ele>1141.0</ele><time>2026-04-26T14:13:20.017Z</time></trkpt><trkpt lat="45.8667995" lon="11.7261892"><ele>1139.0</ele><time>2026-04-26T14:13:21.002Z</time></trkpt><trkpt lat="45.8667357" lon="11.7261605"><ele>1137.0</ele><time>2026-04-26T14:13:22.012Z</time></trkpt><trkpt lat="45.8666251" lon="11.7261229"><ele>1135.0</ele><time>2026-04-26T14:13:23.999Z</time></trkpt><trkpt lat="45.8665061" lon="11.7260852"><ele>1133.0</ele><time>2026-04-26T14:13:26.018Z</time></trkpt><trkpt lat="45.8663879" lon="11.7260489"><ele>1131.0</ele><time>2026-04-26T14:13:28.011Z</time></trkpt><trkpt lat="45.8663209" lon="11.726035"><ele>1131.0000000000002</ele><time>2026-04-26T14:13:29.018Z</time></trkpt><trkpt lat="45.8662547" lon="11.7260513"><ele>1131.0</ele><time>2026-04-26T14:13:30.035Z</time></trkpt><trkpt lat="45.8661874" lon="11.7260819"><ele>1131.0</ele><time>2026-04-26T14:13:31.025Z</time></trkpt><trkpt lat="45.8661222" lon="11.7261249"><ele>1131.0</ele><time>2026-04-26T14:13:32.015Z</time></trkpt><trkpt lat="45.8660555" lon="11.7261649"><ele>1131.0</ele><time>2026-04-26T14:13:33.015Z</time></trkpt><trkpt lat="45.8659999" lon="11.7262207"><ele>1131.0000000000002</ele><time>2026-04-26T14:13:34.02Z</time></trkpt><trkpt lat="45.8659456" lon="11.7262964"><ele>1131.0</ele><time>2026-04-26T14:13:35.023Z</time></trkpt><trkpt lat="45.8658872" lon="11.7263773"><ele>1129.8333333333333</ele><time>2026-04-26T14:13:36.012Z</time></trkpt><trkpt lat="45.8658251" lon="11.7264391"><ele>1128.6666666666667</ele><time>2026-04-26T14:13:37.006Z</time></trkpt><trkpt lat="45.8657551" lon="11.7264815"><ele>1127.5</ele><time>2026-04-26T14:13:38.015Z</time></trkpt><trkpt lat="45.8656753" lon="11.7265136"><ele>1126.3333333333335</ele><time>2026-04-26T14:13:39.004Z</time></trkpt><trkpt lat="45.8655905" lon="11.7265405"><ele>1125.1666666666667</ele><time>2026-04-26T14:13:40.02Z</time></trkpt><trkpt lat="45.8654986" lon="11.7265663"><ele>1124.0</ele><time>2026-04-26T14:13:41.013Z</time></trkpt><trkpt lat="45.8654024" lon="11.7265921"><ele>1124.0</ele><time>2026-04-26T14:13:42.019Z</time></trkpt><trkpt lat="45.8653086" lon="11.7266172"><ele>1124.0</ele><time>2026-04-26T14:13:43.004Z</time></trkpt><trkpt lat="45.8652204" lon="11.7266456"><ele>1124.0</ele><time>2026-04-26T14:13:44.023Z</time></trkpt><trkpt lat="45.8651359" lon="11.7266804"><ele>1124.0</ele><time>2026-04-26T14:13:45.012Z</time></trkpt><trkpt lat="45.8650536" lon="11.7267223"><ele>1124.0</ele><time>2026-04-26T14:13:46.013Z</time></trkpt><trkpt lat="45.8649814" lon="11.726772"><ele>1124.0</ele><time>2026-04-26T14:13:47.029Z</time></trkpt><trkpt lat="45.8649196" lon="11.7268147"><ele>1121.8</ele><time>2026-04-26T14:13:48.013Z</time></trkpt><trkpt lat="45.8648151" lon="11.7268396"><ele>1119.6000000000001</ele><time>2026-04-26T14:13:50.011Z</time></trkpt><trkpt lat="45.8647235" lon="11.7267836"><ele>1117.4</ele><time>2026-04-26T14:13:52.012Z</time></trkpt><trkpt lat="45.8646408" lon="11.7266555"><ele>1115.2</ele><time>2026-04-26T14:13:54.021Z</time></trkpt><trkpt lat="45.8646025" lon="11.7265805"><ele>1113.0</ele><time>2026-04-26T14:13:55.019Z</time></trkpt><trkpt lat="45.864559" lon="11.7265146"><ele>1113.0</ele><time>2026-04-26T14:13:56.016Z</time></trkpt><trkpt lat="45.8644707" lon="11.7264191"><ele>1113.0</ele><time>2026-04-26T14:13:58.01Z</time></trkpt><trkpt lat="45.8643758" lon="11.7264122"><ele>1113.0</ele><time>2026-04-26T14:14:00.006Z</time></trkpt><trkpt lat="45.8643081" lon="11.726491"><ele>1113.0</ele><time>2026-04-26T14:14:02.024Z</time></trkpt><trkpt lat="45.8642806" lon="11.7266144"><ele>1113.0</ele><time>2026-04-26T14:14:04.021Z</time></trkpt><trkpt lat="45.8642862" lon="11.726766"><ele>1111.8</ele><time>2026-04-26T14:14:06.007Z</time></trkpt><trkpt lat="45.864259" lon="11.726885"><ele>1110.6</ele><time>2026-04-26T14:14:08.015Z</time></trkpt><trkpt lat="45.8641881" lon="11.7269398"><ele>1109.4</ele><time>2026-04-26T14:14:10.003Z</time></trkpt><trkpt lat="45.8640876" lon="11.7269404"><ele>1108.2</ele><time>2026-04-26T14:14:12.01Z</time></trkpt><trkpt lat="45.8639727" lon="11.7269016"><ele>1107.0</ele><time>2026-04-26T14:14:14.021Z</time></trkpt><trkpt lat="45.8638804" lon="11.7268479"><ele>1107.0</ele><time>2026-04-26T14:14:16.004Z</time></trkpt><trkpt lat="45.8638063" lon="11.726828"><ele>1107.0</ele><time>2026-04-26T14:14:20.02Z</time></trkpt><trkpt lat="45.8637148" lon="11.7269004"><ele>1107.0</ele><time>2026-04-26T14:14:22.003Z</time></trkpt><trkpt lat="45.8636593" lon="11.7269791"><ele>1107.0</ele><time>2026-04-26T14:14:23.011Z</time></trkpt><trkpt lat="45.8636021" lon="11.727075"><ele>1107.0</ele><time>2026-04-26T14:14:24.017Z</time></trkpt><trkpt lat="45.8635423" lon="11.7271942"><ele>1107.0</ele><time>2026-04-26T14:14:25.011Z</time></trkpt><trkpt lat="45.8634892" lon="11.7273266"><ele>1105.0</ele><time>2026-04-26T14:14:26.035Z</time></trkpt><trkpt lat="45.8634308" lon="11.7274518"><ele>1103.0</ele><time>2026-04-26T14:14:27.021Z</time></trkpt><trkpt lat="45.8633733" lon="11.7275739"><ele>1101.0</ele><time>2026-04-26T14:14:28.015Z</time></trkpt><trkpt lat="45.8632958" lon="11.727664"><ele>1099.0</ele><time>2026-04-26T14:14:28.998Z</time></trkpt><trkpt lat="45.8631807" lon="11.7276988"><ele>1097.0</ele><time>2026-04-26T14:14:30.018Z</time></trkpt><trkpt lat="45.8630603" lon="11.7277136"><ele>1097.0</ele><time>2026-04-26T14:14:31.019Z</time></trkpt><trkpt lat="45.8629357" lon="11.7276848"><ele>1097.0</ele><time>2026-04-26T14:14:32.016Z</time></trkpt><trkpt lat="45.8627979" lon="11.7275932"><ele>1097.0</ele><time>2026-04-26T14:14:33.015Z</time></trkpt><trkpt lat="45.8626722" lon="11.7275349"><ele>1097.0</ele><time>2026-04-26T14:14:34.017Z</time></trkpt><trkpt lat="45.8625474" lon="11.7274797"><ele>1096.4</ele><time>2026-04-26T14:14:35.009Z</time></trkpt><trkpt lat="45.8624329" lon="11.7274429"><ele>1095.8000000000002</ele><time>2026-04-26T14:14:36.015Z</time></trkpt><trkpt lat="45.8623226" lon="11.7274219"><ele>1095.2</ele><time>2026-04-26T14:14:37.016Z</time></trkpt><trkpt lat="45.8622222" lon="11.7274198"><ele>1094.6000000000001</ele><time>2026-04-26T14:14:38.009Z</time></trkpt><trkpt lat="45.8621337" lon="11.7274139"><ele>1094.0</ele><time>2026-04-26T14:14:39.01Z</time></trkpt><trkpt lat="45.8620467" lon="11.727464"><ele>1094.0</ele><time>2026-04-26T14:14:40.02Z</time></trkpt><trkpt lat="45.8619772" lon="11.7275711"><ele>1094.0</ele><time>2026-04-26T14:14:41.018Z</time></trkpt><trkpt lat="45.8618966" lon="11.7277009"><ele>1094.0</ele><time>2026-04-26T14:14:42.014Z</time></trkpt><trkpt lat="45.8618163" lon="11.72784"><ele>1094.0</ele><time>2026-04-26T14:14:43.014Z</time></trkpt><trkpt lat="45.8616873" lon="11.727893"><ele>1094.75</ele><time>2026-04-26T14:14:44.027Z</time></trkpt><trkpt lat="45.8615539" lon="11.7279479"><ele>1095.5</ele><time>2026-04-26T14:14:45.009Z</time></trkpt><trkpt lat="45.8614062" lon="11.7279972"><ele>1096.25</ele><time>2026-04-26T14:14:46.029Z</time></trkpt><trkpt lat="45.8612675" lon="11.7280746"><ele>1097.0</ele><time>2026-04-26T14:14:47.018Z</time></trkpt><trkpt lat="45.8611261" lon="11.7281545"><ele>1097.0</ele><time>2026-04-26T14:14:48.011Z</time></trkpt><trkpt lat="45.8609953" lon="11.7282683"><ele>1097.0</ele><time>2026-04-26T14:14:49.023Z</time></trkpt><trkpt lat="45.8608743" lon="11.7284149"><ele>1097.0</ele><time>2026-04-26T14:14:50.025Z</time></trkpt><trkpt lat="45.8607614" lon="11.7285602"><ele>1095.2</ele><time>2026-04-26T14:14:51.004Z</time></trkpt><trkpt lat="45.8606623" lon="11.7286861"><ele>1093.4</ele><time>2026-04-26T14:14:52.004Z</time></trkpt><trkpt lat="45.8605723" lon="11.7287879"><ele>1091.6</ele><time>2026-04-26T14:14:53.01Z</time></trkpt><trkpt lat="45.8605249" lon="11.7289028"><ele>1089.8</ele><time>2026-04-26T14:14:54.014Z</time></trkpt><trkpt lat="45.8604848" lon="11.7290394"><ele>1088.0</ele><time>2026-04-26T14:14:55.004Z</time></trkpt><trkpt lat="45.8604911" lon="11.7292036"><ele>1088.0</ele><time>2026-04-26T14:14:56.012Z</time></trkpt><trkpt lat="45.8605165" lon="11.7293916"><ele>1088.0</ele><time>2026-04-26T14:14:57.01Z</time></trkpt><trkpt lat="45.8604996" lon="11.7295813"><ele>1088.0</ele><time>2026-04-26T14:14:58.011Z</time></trkpt><trkpt lat="45.8604471" lon="11.7297608"><ele>1088.0</ele><time>2026-04-26T14:14:59.006Z</time></trkpt><trkpt lat="45.8603913" lon="11.7299231"><ele>1088.25</ele><time>2026-04-26T14:15:00.012Z</time></trkpt><trkpt lat="45.8602976" lon="11.7300722"><ele>1088.5</ele><time>2026-04-26T14:15:01.012Z</time></trkpt><trkpt lat="45.86016" lon="11.7301471"><ele>1088.75</ele><time>2026-04-26T14:15:02.01Z</time></trkpt><trkpt lat="45.8600319" lon="11.7301978"><ele>1089.0</ele><time>2026-04-26T14:15:03.024Z</time></trkpt><trkpt lat="45.8598976" lon="11.7302468"><ele>1086.0</ele><time>2026-04-26T14:15:04.02Z</time></trkpt><trkpt lat="45.8597808" lon="11.7302742"><ele>1083.0</ele><time>2026-04-26T14:15:05.006Z</time></trkpt><trkpt lat="45.8596809" lon="11.7302709"><ele>1080.0</ele><time>2026-04-26T14:15:07.006Z</time></trkpt><trkpt lat="45.8596382" lon="11.7303643"><ele>1077.0</ele><time>2026-04-26T14:15:10.011Z</time></trkpt><trkpt lat="45.8595955" lon="11.7304661"><ele>1074.0</ele><time>2026-04-26T14:15:12.013Z</time></trkpt><trkpt lat="45.8595127" lon="11.7305765"><ele>1074.0</ele><time>2026-04-26T14:15:14.019Z</time></trkpt><trkpt lat="45.8594428" lon="11.7306893"><ele>1074.0</ele><time>2026-04-26T14:15:16.009Z</time></trkpt><trkpt lat="45.8594233" lon="11.7308037"><ele>1074.0</ele><time>2026-04-26T14:15:18.02Z</time></trkpt><trkpt lat="45.8594862" lon="11.7308927"><ele>1074.0</ele><time>2026-04-26T14:15:20.009Z</time></trkpt><trkpt lat="45.8595801" lon="11.7309129"><ele>1074.0</ele><time>2026-04-26T14:15:22.001Z</time></trkpt><trkpt lat="45.859702" lon="11.7309137"><ele>1074.0</ele><time>2026-04-26T14:15:24.005Z</time></trkpt><trkpt lat="45.8598248" lon="11.7309607"><ele>1074.0</ele><time>2026-04-26T14:15:26.016Z</time></trkpt><trkpt lat="45.8598904" lon="11.7309919"><ele>1074.0</ele><time>2026-04-26T14:15:27.011Z</time></trkpt><trkpt lat="45.8599562" lon="11.7310239"><ele>1074.0</ele><time>2026-04-26T14:15:28.01Z</time></trkpt><trkpt lat="45.8600218" lon="11.7310517"><ele>1074.0</ele><time>2026-04-26T14:15:29.017Z</time></trkpt><trkpt lat="45.8600847" lon="11.7310803"><ele>1074.0</ele><time>2026-04-26T14:15:30.018Z</time></trkpt><trkpt lat="45.860147" lon="11.7311052"><ele>1076.3333333333333</ele><time>2026-04-26T14:15:31.008Z</time></trkpt><trkpt lat="45.8602097" lon="11.7311514"><ele>1078.6666666666667</ele><time>2026-04-26T14:15:32.013Z</time></trkpt><trkpt lat="45.8602667" lon="11.7312112"><ele>1081.0</ele><time>2026-04-26T14:15:33.021Z</time></trkpt><trkpt lat="45.86031" lon="11.7312865"><ele>1083.3333333333335</ele><time>2026-04-26T14:15:34.006Z</time></trkpt><trkpt lat="45.8603521" lon="11.7313644"><ele>1085.6666666666667</ele><time>2026-04-26T14:15:35.011Z</time></trkpt><trkpt lat="45.860401" lon="11.731528"><ele>1088.0</ele><time>2026-04-26T14:15:37.008Z</time></trkpt><trkpt lat="45.8604432" lon="11.7316136"><ele>1088.0</ele><time>2026-04-26T14:15:38.007Z</time></trkpt><trkpt lat="45.8604903" lon="11.7316907"><ele>1088.0</ele><time>2026-04-26T14:15:39.018Z</time></trkpt><trkpt lat="45.8605454" lon="11.7317558"><ele>1088.0</ele><time>2026-04-26T14:15:40.014Z</time></trkpt><trkpt lat="45.8606039" lon="11.7318054"><ele>1088.0</ele><time>2026-04-26T14:15:41.007Z</time></trkpt><trkpt lat="45.8607079" lon="11.7318577"><ele>1088.0</ele><time>2026-04-26T14:15:43.015Z</time></trkpt><trkpt lat="45.8607832" lon="11.7319087"><ele>1088.0</ele><time>2026-04-26T14:15:45.021Z</time></trkpt><trkpt lat="45.8607744" lon="11.7320423"><ele>1088.6</ele><time>2026-04-26T14:15:48.008Z</time></trkpt><trkpt lat="45.8607037" lon="11.7321434"><ele>1089.1999999999998</ele><time>2026-04-26T14:15:50.002Z</time></trkpt><trkpt lat="45.8605945" lon="11.732255"><ele>1089.8</ele><time>2026-04-26T14:15:52.011Z</time></trkpt><trkpt lat="45.8605319" lon="11.7323064"><ele>1090.3999999999999</ele><time>2026-04-26T14:15:53.001Z</time></trkpt><trkpt lat="45.8604706" lon="11.7323478"><ele>1091.0</ele><time>2026-04-26T14:15:54.029Z</time></trkpt><trkpt lat="45.8603753" lon="11.7324261"><ele>1091.0</ele><time>2026-04-26T14:15:56.002Z</time></trkpt><trkpt lat="45.8603264" lon="11.7325417"><ele>1091.0</ele><time>2026-04-26T14:15:58.018Z</time></trkpt><trkpt lat="45.8603088" lon="11.7327223"><ele>1091.0</ele><time>2026-04-26T14:16:00.009Z</time></trkpt><trkpt lat="45.8603011" lon="11.7328189"><ele>1091.0</ele><time>2026-04-26T14:16:01.024Z</time></trkpt><trkpt lat="45.8602796" lon="11.7329894"><ele>1091.0</ele><time>2026-04-26T14:16:03.013Z</time></trkpt><trkpt lat="45.8602949" lon="11.733159"><ele>1094.3999999999999</ele><time>2026-04-26T14:16:05.011Z</time></trkpt><trkpt lat="45.8603228" lon="11.7332471"><ele>1097.8</ele><time>2026-04-26T14:16:06.019Z</time></trkpt><trkpt lat="45.8603565" lon="11.7333406"><ele>1101.1999999999998</ele><time>2026-04-26T14:16:07.015Z</time></trkpt><trkpt lat="45.8603654" lon="11.7335116"><ele>1104.6</ele><time>2026-04-26T14:16:09.024Z</time></trkpt><trkpt lat="45.8602908" lon="11.733628"><ele>1108.0</ele><time>2026-04-26T14:16:11.024Z</time></trkpt><trkpt lat="45.8602287" lon="11.7337044"><ele>1110.142857142857</ele><time>2026-04-26T14:16:13.015Z</time></trkpt><trkpt lat="45.8602363" lon="11.7337986"><ele>1112.2857142857142</ele><time>2026-04-26T14:16:15.015Z</time></trkpt><trkpt lat="45.8603185" lon="11.7338331"><ele>1114.4285714285713</ele><time>2026-04-26T14:16:17.016Z</time></trkpt><trkpt lat="45.8603816" lon="11.733832"><ele>1116.5714285714284</ele><time>2026-04-26T14:16:18.018Z</time></trkpt><trkpt lat="45.8604532" lon="11.7338071"><ele>1118.7142857142858</ele><time>2026-04-26T14:16:19.025Z</time></trkpt><trkpt lat="45.8605238" lon="11.7337645"><ele>1120.8571428571427</ele><time>2026-04-26T14:16:20.018Z</time></trkpt><trkpt lat="45.8605926" lon="11.7337117"><ele>1123.0</ele><time>2026-04-26T14:16:21.026Z</time></trkpt><trkpt lat="45.8606603" lon="11.7336528"><ele>1123.0</ele><time>2026-04-26T14:16:22.029Z</time></trkpt><trkpt lat="45.8607018" lon="11.7335695"><ele>1123.0</ele><time>2026-04-26T14:16:23.014Z</time></trkpt><trkpt lat="45.8607263" lon="11.7334689"><ele>1123.0</ele><time>2026-04-26T14:16:24.017Z</time></trkpt><trkpt lat="45.8607395" lon="11.7333577"><ele>1123.0</ele><time>2026-04-26T14:16:25.008Z</time></trkpt><trkpt lat="45.860756" lon="11.7332664"><ele>1123.0</ele><time>2026-04-26T14:16:26.017Z</time></trkpt><trkpt lat="45.860852" lon="11.7331672"><ele>1123.0</ele><time>2026-04-26T14:16:28.023Z</time></trkpt><trkpt lat="45.8609665" lon="11.7331343"><ele>1125.5</ele><time>2026-04-26T14:16:30.025Z</time></trkpt><trkpt lat="45.8610325" lon="11.7331319"><ele>1128.0</ele><time>2026-04-26T14:16:31.02Z</time></trkpt><trkpt lat="45.8611027" lon="11.7331287"><ele>1130.5</ele><time>2026-04-26T14:16:32.009Z</time></trkpt><trkpt lat="45.861178" lon="11.7331231"><ele>1133.0</ele><time>2026-04-26T14:16:33.031Z</time></trkpt><trkpt lat="45.8612536" lon="11.7331042"><ele>1135.5</ele><time>2026-04-26T14:16:34.028Z</time></trkpt><trkpt lat="45.8613354" lon="11.7330788"><ele>1138.0</ele><time>2026-04-26T14:16:35.004Z</time></trkpt><trkpt lat="45.8614203" lon="11.733057"><ele>1138.0</ele><time>2026-04-26T14:16:36.028Z</time></trkpt><trkpt lat="45.861491" lon="11.7329904"><ele>1138.0</ele><time>2026-04-26T14:16:37.034Z</time></trkpt><trkpt lat="45.8615546" lon="11.7328999"><ele>1138.0</ele><time>2026-04-26T14:16:38.016Z</time></trkpt><trkpt lat="45.8615997" lon="11.7327918"><ele>1138.0</ele><time>2026-04-26T14:16:39.02Z</time></trkpt><trkpt lat="45.8616489" lon="11.7326844"><ele>1138.0</ele><time>2026-04-26T14:16:40.025Z</time></trkpt><trkpt lat="45.8617101" lon="11.7325953"><ele>1138.0</ele><time>2026-04-26T14:16:41.028Z</time></trkpt><trkpt lat="45.8617853" lon="11.7325232"><ele>1139.1666666666665</ele><time>2026-04-26T14:16:42.005Z</time></trkpt><trkpt lat="45.8618643" lon="11.7324522"><ele>1140.3333333333333</ele><time>2026-04-26T14:16:43.028Z</time></trkpt><trkpt lat="45.8619422" lon="11.7323853"><ele>1141.5</ele><time>2026-04-26T14:16:44.026Z</time></trkpt><trkpt lat="45.8620022" lon="11.7323062"><ele>1142.6666666666667</ele><time>2026-04-26T14:16:45.002Z</time></trkpt><trkpt lat="45.8620717" lon="11.732246"><ele>1143.8333333333335</ele><time>2026-04-26T14:16:46.021Z</time></trkpt><trkpt lat="45.8621224" lon="11.7321894"><ele>1145.0</ele><time>2026-04-26T14:16:47.013Z</time></trkpt><trkpt lat="45.8622167" lon="11.7321993"><ele>1145.0</ele><time>2026-04-26T14:16:49.02Z</time></trkpt><trkpt lat="45.8622787" lon="11.7322343"><ele>1145.0</ele><time>2026-04-26T14:16:50.026Z</time></trkpt><trkpt lat="45.8623838" lon="11.7322826"><ele>1145.0</ele><time>2026-04-26T14:16:52.011Z</time></trkpt><trkpt lat="45.8624694" lon="11.73223"><ele>1145.0</ele><time>2026-04-26T14:16:55.018Z</time></trkpt><trkpt lat="45.8624449" lon="11.7320749"><ele>1145.0</ele><time>2026-04-26T14:16:57.013Z</time></trkpt><trkpt lat="45.8624695" lon="11.7319902"><ele>1145.0</ele><time>2026-04-26T14:16:59.043Z</time></trkpt><trkpt lat="45.8625304" lon="11.7320663"><ele>1145.0</ele><time>2026-04-26T14:17:01.021Z</time></trkpt><trkpt lat="45.862548" lon="11.7322643"><ele>1145.0</ele><time>2026-04-26T14:17:03.023Z</time></trkpt><trkpt lat="45.8625344" lon="11.7323789"><ele>1145.0</ele><time>2026-04-26T14:17:04.016Z</time></trkpt><trkpt lat="45.8625239" lon="11.732482"><ele>1145.0</ele><time>2026-04-26T14:17:05.017Z</time></trkpt><trkpt lat="45.8624978" lon="11.7326022"><ele>1145.0</ele><time>2026-04-26T14:17:07.018Z</time></trkpt><trkpt lat="45.8625858" lon="11.7325897"><ele>1147.8</ele><time>2026-04-26T14:17:10.035Z</time></trkpt><trkpt lat="45.8626247" lon="11.7324604"><ele>1150.6</ele><time>2026-04-26T14:17:12.015Z</time></trkpt><trkpt lat="45.8626532" lon="11.7322842"><ele>1153.4</ele><time>2026-04-26T14:17:14.023Z</time></trkpt><trkpt lat="45.8626544" lon="11.7321928"><ele>1156.2</ele><time>2026-04-26T14:17:15.011Z</time></trkpt><trkpt lat="45.8626465" lon="11.7320471"><ele>1159.0</ele><time>2026-04-26T14:17:17.012Z</time></trkpt><trkpt lat="45.8626847" lon="11.7319605"><ele>1159.0</ele><time>2026-04-26T14:17:24.04Z</time></trkpt><trkpt lat="45.8627416" lon="11.732038"><ele>1159.0</ele><time>2026-04-26T14:17:27.019Z</time></trkpt><trkpt lat="45.8627517" lon="11.7322081"><ele>1159.0</ele><time>2026-04-26T14:17:29.024Z</time></trkpt><trkpt lat="45.8627603" lon="11.7323224"><ele>1159.0</ele><time>2026-04-26T14:17:30.01Z</time></trkpt><trkpt lat="45.8627699" lon="11.7324399"><ele>1159.0</ele><time>2026-04-26T14:17:31.025Z</time></trkpt><trkpt lat="45.86276" lon="11.7325702"><ele>1159.0</ele><time>2026-04-26T14:17:32.011Z</time></trkpt><trkpt lat="45.8627565" lon="11.7326994"><ele>1159.0</ele><time>2026-04-26T14:17:33.014Z</time></trkpt><trkpt lat="45.8627448" lon="11.7328195"><ele>1159.0</ele><time>2026-04-26T14:17:34.01Z</time></trkpt><trkpt lat="45.8627302" lon="11.7329355"><ele>1159.0</ele><time>2026-04-26T14:17:35.013Z</time></trkpt><trkpt lat="45.8626911" lon="11.7330361"><ele>1159.0</ele><time>2026-04-26T14:17:36.02Z</time></trkpt><trkpt lat="45.8626446" lon="11.7331119"><ele>1159.0</ele><time>2026-04-26T14:17:37.011Z</time></trkpt><trkpt lat="45.8625888" lon="11.7331565"><ele>1159.1666666666665</ele><time>2026-04-26T14:17:38.017Z</time></trkpt><trkpt lat="45.8625161" lon="11.7331841"><ele>1159.3333333333333</ele><time>2026-04-26T14:17:39.026Z</time></trkpt><trkpt lat="45.8624362" lon="11.7332201"><ele>1159.5</ele><time>2026-04-26T14:17:40.022Z</time></trkpt><trkpt lat="45.8623541" lon="11.7332782"><ele>1159.6666666666667</ele><time>2026-04-26T14:17:41.008Z</time></trkpt><trkpt lat="45.8622775" lon="11.7333452"><ele>1159.8333333333335</ele><time>2026-04-26T14:17:42.018Z</time></trkpt><trkpt lat="45.8622016" lon="11.7334198"><ele>1160.0</ele><time>2026-04-26T14:17:43.023Z</time></trkpt><trkpt lat="45.8621257" lon="11.7335129"><ele>1164.5</ele><time>2026-04-26T14:17:44.026Z</time></trkpt><trkpt lat="45.86206" lon="11.733606"><ele>1169.0</ele><time>2026-04-26T14:17:45.016Z</time></trkpt><trkpt lat="45.8619994" lon="11.7336942"><ele>1173.5</ele><time>2026-04-26T14:17:46.023Z</time></trkpt><trkpt lat="45.8619505" lon="11.7337713"><ele>1178.0</ele><time>2026-04-26T14:17:47.014Z</time></trkpt><trkpt lat="45.8619174" lon="11.7338517"><ele>1182.5</ele><time>2026-04-26T14:17:48.003Z</time></trkpt><trkpt lat="45.8618925" lon="11.7339415"><ele>1187.0</ele><time>2026-04-26T14:17:49.016Z</time></trkpt><trkpt lat="45.8618877" lon="11.7340458"><ele>1187.0</ele><time>2026-04-26T14:17:50.006Z</time></trkpt><trkpt lat="45.8618698" lon="11.7341696"><ele>1187.0</ele><time>2026-04-26T14:17:51.008Z</time></trkpt><trkpt lat="45.8618501" lon="11.7342807"><ele>1187.0</ele><time>2026-04-26T14:17:52.016Z</time></trkpt><trkpt lat="45.8618043" lon="11.734381"><ele>1187.0</ele><time>2026-04-26T14:17:53.011Z</time></trkpt><trkpt lat="45.8617504" lon="11.7344751"><ele>1187.0</ele><time>2026-04-26T14:17:54.012Z</time></trkpt><trkpt lat="45.861697" lon="11.734562"><ele>1187.0</ele><time>2026-04-26T14:17:55.012Z</time></trkpt><trkpt lat="45.8616413" lon="11.7346505"><ele>1186.3333333333335</ele><time>2026-04-26T14:17:56.012Z</time></trkpt><trkpt lat="45.861586" lon="11.7347376"><ele>1185.6666666666667</ele><time>2026-04-26T14:17:57.002Z</time></trkpt><trkpt lat="45.8615351" lon="11.7348231"><ele>1185.0</ele><time>2026-04-26T14:17:58.011Z</time></trkpt><trkpt lat="45.861484" lon="11.7349071"><ele>1184.3333333333333</ele><time>2026-04-26T14:17:59.014Z</time></trkpt><trkpt lat="45.8614348" lon="11.7349971"><ele>1183.6666666666665</ele><time>2026-04-26T14:18:00.007Z</time></trkpt><trkpt lat="45.8613866" lon="11.7350929"><ele>1183.0</ele><time>2026-04-26T14:18:01.012Z</time></trkpt><trkpt lat="45.8613394" lon="11.7351876"><ele>1186.3333333333333</ele><time>2026-04-26T14:18:02.008Z</time></trkpt><trkpt lat="45.8612889" lon="11.7352769"><ele>1189.6666666666665</ele><time>2026-04-26T14:18:03.022Z</time></trkpt><trkpt lat="45.8612355" lon="11.7353629"><ele>1193.0</ele><time>2026-04-26T14:18:04.002Z</time></trkpt><trkpt lat="45.8611825" lon="11.7354479"><ele>1196.3333333333333</ele><time>2026-04-26T14:18:05.006Z</time></trkpt><trkpt lat="45.8611296" lon="11.7355331"><ele>1199.6666666666667</ele><time>2026-04-26T14:18:06.011Z</time></trkpt><trkpt lat="45.8610698" lon="11.735606"><ele>1203.0</ele><time>2026-04-26T14:18:07.01Z</time></trkpt><trkpt lat="45.8610122" lon="11.7356798"><ele>1203.0</ele><time>2026-04-26T14:18:08.003Z</time></trkpt><trkpt lat="45.8609526" lon="11.7357504"><ele>1203.0</ele><time>2026-04-26T14:18:09.018Z</time></trkpt><trkpt lat="45.8609014" lon="11.7358255"><ele>1203.0</ele><time>2026-04-26T14:18:10.023Z</time></trkpt><trkpt lat="45.8608553" lon="11.7358944"><ele>1203.0</ele><time>2026-04-26T14:18:11.007Z</time></trkpt><trkpt lat="45.8608153" lon="11.7359651"><ele>1203.0</ele><time>2026-04-26T14:18:12.034Z</time></trkpt><trkpt lat="45.8607848" lon="11.7360597"><ele>1203.0</ele><time>2026-04-26T14:18:13.009Z</time></trkpt><trkpt lat="45.860757" lon="11.7361695"><ele>1203.0</ele><time>2026-04-26T14:18:14.013Z</time></trkpt><trkpt lat="45.8607257" lon="11.7362807"><ele>1200.0</ele><time>2026-04-26T14:18:15.012Z</time></trkpt><trkpt lat="45.8606973" lon="11.736396"><ele>1197.0</ele><time>2026-04-26T14:18:16.012Z</time></trkpt><trkpt lat="45.8606672" lon="11.7365123"><ele>1194.0</ele><time>2026-04-26T14:18:17.011Z</time></trkpt><trkpt lat="45.8606386" lon="11.7366435"><ele>1191.0</ele><time>2026-04-26T14:18:18.013Z</time></trkpt><trkpt lat="45.8606092" lon="11.736769"><ele>1188.0</ele><time>2026-04-26T14:18:19.003Z</time></trkpt><trkpt lat="45.8605797" lon="11.7368914"><ele>1188.0</ele><time>2026-04-26T14:18:20.007Z</time></trkpt><trkpt lat="45.8605612" lon="11.7370149"><ele>1188.0</ele><time>2026-04-26T14:18:21.01Z</time></trkpt><trkpt lat="45.8605565" lon="11.737142"><ele>1188.0</ele><time>2026-04-26T14:18:22.029Z</time></trkpt><trkpt lat="45.8605608" lon="11.7372803"><ele>1188.0</ele><time>2026-04-26T14:18:23.014Z</time></trkpt><trkpt lat="45.8605653" lon="11.7374142"><ele>1188.0</ele><time>2026-04-26T14:18:24.01Z</time></trkpt><trkpt lat="45.8605707" lon="11.7375514"><ele>1188.0</ele><time>2026-04-26T14:18:25.013Z</time></trkpt><trkpt lat="45.8605759" lon="11.7377018"><ele>1188.0</ele><time>2026-04-26T14:18:26.02Z</time></trkpt><trkpt lat="45.8605788" lon="11.7378475"><ele>1188.0</ele><time>2026-04-26T14:18:27.023Z</time></trkpt><trkpt lat="45.8605796" lon="11.7379891"><ele>1188.0</ele><time>2026-04-26T14:18:28.016Z</time></trkpt><trkpt lat="45.8605642" lon="11.738112"><ele>1188.0</ele><time>2026-04-26T14:18:29.017Z</time></trkpt><trkpt lat="45.8605326" lon="11.7382488"><ele>1189.0</ele><time>2026-04-26T14:18:30.009Z</time></trkpt><trkpt lat="45.8605064" lon="11.7383742"><ele>1190.0</ele><time>2026-04-26T14:18:31.013Z</time></trkpt><trkpt lat="45.8604818" lon="11.7384921"><ele>1191.0</ele><time>2026-04-26T14:18:32.012Z</time></trkpt><trkpt lat="45.8604667" lon="11.7386091"><ele>1192.0</ele><time>2026-04-26T14:18:33.014Z</time></trkpt><trkpt lat="45.860456" lon="11.7387317"><ele>1193.0</ele><time>2026-04-26T14:18:34.013Z</time></trkpt><trkpt lat="45.860465" lon="11.7388728"><ele>1194.0</ele><time>2026-04-26T14:18:35.023Z</time></trkpt><trkpt lat="45.860473" lon="11.7390098"><ele>1194.6000000000001</ele><time>2026-04-26T14:18:36.021Z</time></trkpt><trkpt lat="45.860475" lon="11.739145"><ele>1195.2</ele><time>2026-04-26T14:18:37.012Z</time></trkpt><trkpt lat="45.860481" lon="11.7392686"><ele>1195.8000000000002</ele><time>2026-04-26T14:18:38.021Z</time></trkpt><trkpt lat="45.8605" lon="11.7394265"><ele>1196.4</ele><time>2026-04-26T14:18:40.004Z</time></trkpt><trkpt lat="45.8605636" lon="11.7395275"><ele>1197.0</ele><time>2026-04-26T14:18:42.026Z</time></trkpt><trkpt lat="45.8606163" lon="11.7395819"><ele>1197.6666666666667</ele><time>2026-04-26T14:18:43.011Z</time></trkpt><trkpt lat="45.8606671" lon="11.7396736"><ele>1198.3333333333333</ele><time>2026-04-26T14:18:44.023Z</time></trkpt><trkpt lat="45.8607198" lon="11.7397631"><ele>1199.0</ele><time>2026-04-26T14:18:45.009Z</time></trkpt><trkpt lat="45.860772" lon="11.7398236"><ele>1199.6666666666665</ele><time>2026-04-26T14:18:46.015Z</time></trkpt><trkpt lat="45.8608299" lon="11.7398716"><ele>1200.3333333333333</ele><time>2026-04-26T14:18:47.017Z</time></trkpt><trkpt lat="45.8609482" lon="11.7399215"><ele>1201.0</ele><time>2026-04-26T14:18:49.012Z</time></trkpt><trkpt lat="45.8610292" lon="11.7399281"><ele>1201.0</ele><time>2026-04-26T14:18:50.013Z</time></trkpt><trkpt lat="45.8611209" lon="11.739943"><ele>1201.0</ele><time>2026-04-26T14:18:51.018Z</time></trkpt><trkpt lat="45.8612193" lon="11.7399578"><ele>1201.0</ele><time>2026-04-26T14:18:52.011Z</time></trkpt><trkpt lat="45.8613191" lon="11.7399706"><ele>1201.0</ele><time>2026-04-26T14:18:53.008Z</time></trkpt><trkpt lat="45.8614242" lon="11.7399921"><ele>1201.0</ele><time>2026-04-26T14:18:54.017Z</time></trkpt><trkpt lat="45.8615244" lon="11.7400113"><ele>1201.0</ele><time>2026-04-26T14:18:55.008Z</time></trkpt><trkpt lat="45.8616245" lon="11.7400287"><ele>1201.0</ele><time>2026-04-26T14:18:56.012Z</time></trkpt><trkpt lat="45.8617174" lon="11.7400437"><ele>1201.0</ele><time>2026-04-26T14:18:57.011Z</time></trkpt><trkpt lat="45.8618107" lon="11.7400502"><ele>1201.0</ele><time>2026-04-26T14:18:58.012Z</time></trkpt><trkpt lat="45.8619021" lon="11.7400468"><ele>1201.0</ele><time>2026-04-26T14:18:59.006Z</time></trkpt><trkpt lat="45.8620038" lon="11.7400599"><ele>1204.6666666666665</ele><time>2026-04-26T14:19:00.004Z</time></trkpt><trkpt lat="45.8621017" lon="11.7400852"><ele>1208.3333333333333</ele><time>2026-04-26T14:19:01.004Z</time></trkpt><trkpt lat="45.8621809" lon="11.740112"><ele>1212.0</ele><time>2026-04-26T14:19:02.012Z</time></trkpt><trkpt lat="45.862259" lon="11.7401706"><ele>1215.6666666666667</ele><time>2026-04-26T14:19:03.011Z</time></trkpt><trkpt lat="45.8623126" lon="11.740227"><ele>1219.3333333333335</ele><time>2026-04-26T14:19:04.009Z</time></trkpt><trkpt lat="45.8623588" lon="11.7403601"><ele>1223.0</ele><time>2026-04-26T14:19:06.029Z</time></trkpt><trkpt lat="45.862322" lon="11.7404409"><ele>1223.4</ele><time>2026-04-26T14:19:07.009Z</time></trkpt><trkpt lat="45.8622662" lon="11.7405491"><ele>1223.8</ele><time>2026-04-26T14:19:08.01Z</time></trkpt><trkpt lat="45.8622012" lon="11.7406546"><ele>1224.2</ele><time>2026-04-26T14:19:09.009Z</time></trkpt><trkpt lat="45.8621445" lon="11.7407716"><ele>1224.6</ele><time>2026-04-26T14:19:10.016Z</time></trkpt><trkpt lat="45.862079" lon="11.7408964"><ele>1225.0</ele><time>2026-04-26T14:19:11.019Z</time></trkpt><trkpt lat="45.8620135" lon="11.7410182"><ele>1227.0</ele><time>2026-04-26T14:19:12.013Z</time></trkpt><trkpt lat="45.8619512" lon="11.7411397"><ele>1229.0</ele><time>2026-04-26T14:19:13.011Z</time></trkpt><trkpt lat="45.8618907" lon="11.7412578"><ele>1231.0</ele><time>2026-04-26T14:19:14.01Z</time></trkpt><trkpt lat="45.8618427" lon="11.7413625"><ele>1233.0</ele><time>2026-04-26T14:19:15.018Z</time></trkpt><trkpt lat="45.8617979" lon="11.7414671"><ele>1235.0</ele><time>2026-04-26T14:19:16.01Z</time></trkpt><trkpt lat="45.8617675" lon="11.7415608"><ele>1229.2</ele><time>2026-04-26T14:19:17.016Z</time></trkpt><trkpt lat="45.8617562" lon="11.7416694"><ele>1223.4</ele><time>2026-04-26T14:19:18.019Z</time></trkpt><trkpt lat="45.861747" lon="11.7417906"><ele>1217.6</ele><time>2026-04-26T14:19:19.021Z</time></trkpt><trkpt lat="45.8617234" lon="11.7419449"><ele>1211.8</ele><time>2026-04-26T14:19:20.045Z</time></trkpt><trkpt lat="45.8616951" lon="11.7420796"><ele>1206.0</ele><time>2026-04-26T14:19:21.013Z</time></trkpt><trkpt lat="45.861659" lon="11.7422189"><ele>1206.0</ele><time>2026-04-26T14:19:22.016Z</time></trkpt><trkpt lat="45.8616291" lon="11.7423439"><ele>1206.0</ele><time>2026-04-26T14:19:23.009Z</time></trkpt><trkpt lat="45.8615942" lon="11.742464"><ele>1206.0</ele><time>2026-04-26T14:19:24.025Z</time></trkpt><trkpt lat="45.8615531" lon="11.7425658"><ele>1206.0</ele><time>2026-04-26T14:19:25.013Z</time></trkpt><trkpt lat="45.8615169" lon="11.7426646"><ele>1206.0</ele><time>2026-04-26T14:19:26.011Z</time></trkpt><trkpt lat="45.8614907" lon="11.7427635"><ele>1206.0</ele><time>2026-04-26T14:19:27.01Z</time></trkpt><trkpt lat="45.8614813" lon="11.7428864"><ele>1206.2</ele><time>2026-04-26T14:19:28.018Z</time></trkpt><trkpt lat="45.8614778" lon="11.7430245"><ele>1206.3999999999999</ele><time>2026-04-26T14:19:29.009Z</time></trkpt><trkpt lat="45.8614678" lon="11.7431613"><ele>1206.6</ele><time>2026-04-26T14:19:30.009Z</time></trkpt><trkpt lat="45.8614607" lon="11.7432891"><ele>1206.8</ele><time>2026-04-26T14:19:31.013Z</time></trkpt><trkpt lat="45.8614592" lon="11.7434301"><ele>1207.0</ele><time>2026-04-26T14:19:32.022Z</time></trkpt><trkpt lat="45.8614552" lon="11.743582"><ele>1205.8</ele><time>2026-04-26T14:19:33.013Z</time></trkpt><trkpt lat="45.8614513" lon="11.7437055"><ele>1204.6</ele><time>2026-04-26T14:19:34.02Z</time></trkpt><trkpt lat="45.86146" lon="11.7438296"><ele>1203.3999999999999</ele><time>2026-04-26T14:19:35.014Z</time></trkpt><trkpt lat="45.8614926" lon="11.7439621"><ele>1202.2</ele><time>2026-04-26T14:19:36.009Z</time></trkpt><trkpt lat="45.8615276" lon="11.7441039"><ele>1201.0</ele><time>2026-04-26T14:19:37.004Z</time></trkpt><trkpt lat="45.8615656" lon="11.7442418"><ele>1201.0</ele><time>2026-04-26T14:19:38.011Z</time></trkpt><trkpt lat="45.8616092" lon="11.7443762"><ele>1201.0</ele><time>2026-04-26T14:19:39.007Z</time></trkpt><trkpt lat="45.8616557" lon="11.7445108"><ele>1201.0</ele><time>2026-04-26T14:19:40.01Z</time></trkpt><trkpt lat="45.8616948" lon="11.7446416"><ele>1201.0</ele><time>2026-04-26T14:19:41.009Z</time></trkpt><trkpt lat="45.8617408" lon="11.7447834"><ele>1201.0</ele><time>2026-04-26T14:19:42.006Z</time></trkpt><trkpt lat="45.8617848" lon="11.7449173"><ele>1201.8</ele><time>2026-04-26T14:19:43.007Z</time></trkpt><trkpt lat="45.861828" lon="11.7450404"><ele>1202.6</ele><time>2026-04-26T14:19:44.013Z</time></trkpt><trkpt lat="45.8618749" lon="11.7451565"><ele>1203.4</ele><time>2026-04-26T14:19:45.004Z</time></trkpt><trkpt lat="45.8619193" lon="11.7452701"><ele>1204.2</ele><time>2026-04-26T14:19:46.018Z</time></trkpt><trkpt lat="45.8619766" lon="11.7453669"><ele>1205.0</ele><time>2026-04-26T14:19:47.003Z</time></trkpt><trkpt lat="45.8620502" lon="11.7454493"><ele>1205.0</ele><time>2026-04-26T14:19:48.014Z</time></trkpt><trkpt lat="45.862125" lon="11.7455459"><ele>1205.0</ele><time>2026-04-26T14:19:49.013Z</time></trkpt><trkpt lat="45.8621992" lon="11.7456351"><ele>1205.0</ele><time>2026-04-26T14:19:50.023Z</time></trkpt><trkpt lat="45.8622725" lon="11.7457235"><ele>1205.0</ele><time>2026-04-26T14:19:51.014Z</time></trkpt><trkpt lat="45.8623477" lon="11.745806"><ele>1205.0</ele><time>2026-04-26T14:19:52.016Z</time></trkpt><trkpt lat="45.8624145" lon="11.7458736"><ele>1205.0</ele><time>2026-04-26T14:19:53.017Z</time></trkpt><trkpt lat="45.862484" lon="11.7459199"><ele>1205.0</ele><time>2026-04-26T14:19:54.019Z</time></trkpt><trkpt lat="45.8625595" lon="11.7459479"><ele>1205.0</ele><time>2026-04-26T14:19:55.019Z</time></trkpt><trkpt lat="45.8626456" lon="11.7459668"><ele>1205.0</ele><time>2026-04-26T14:19:56.011Z</time></trkpt><trkpt lat="45.8627322" lon="11.7459773"><ele>1205.0</ele><time>2026-04-26T14:19:57.006Z</time></trkpt><trkpt lat="45.8628183" lon="11.7459879"><ele>1205.0</ele><time>2026-04-26T14:19:58.018Z</time></trkpt><trkpt lat="45.8628937" lon="11.7459886"><ele>1207.1666666666667</ele><time>2026-04-26T14:19:59.023Z</time></trkpt><trkpt lat="45.8629772" lon="11.7459786"><ele>1209.3333333333335</ele><time>2026-04-26T14:20:00.011Z</time></trkpt><trkpt lat="45.8630528" lon="11.7459777"><ele>1211.5</ele><time>2026-04-26T14:20:01.03Z</time></trkpt><trkpt lat="45.8631333" lon="11.7460073"><ele>1213.6666666666667</ele><time>2026-04-26T14:20:02.007Z</time></trkpt><trkpt lat="45.8631983" lon="11.7460631"><ele>1215.8333333333333</ele><time>2026-04-26T14:20:03.011Z</time></trkpt><trkpt lat="45.8632502" lon="11.746133"><ele>1218.0</ele><time>2026-04-26T14:20:04.02Z</time></trkpt><trkpt lat="45.8633052" lon="11.7463064"><ele>1218.0</ele><time>2026-04-26T14:20:06.015Z</time></trkpt><trkpt lat="45.8633207" lon="11.7464353"><ele>1218.0</ele><time>2026-04-26T14:20:08.018Z</time></trkpt><trkpt lat="45.8633157" lon="11.7465728"><ele>1218.0</ele><time>2026-04-26T14:20:29.009Z</time></trkpt><trkpt lat="45.8632966" lon="11.7467673"><ele>1218.0</ele><time>2026-04-26T14:20:31.011Z</time></trkpt><trkpt lat="45.8632825" lon="11.746895"><ele>1218.0</ele><time>2026-04-26T14:20:32.008Z</time></trkpt><trkpt lat="45.8632705" lon="11.7470392"><ele>1215.25</ele><time>2026-04-26T14:20:33.022Z</time></trkpt><trkpt lat="45.8632595" lon="11.7471857"><ele>1212.5</ele><time>2026-04-26T14:20:34.031Z</time></trkpt><trkpt lat="45.8632617" lon="11.747344"><ele>1209.75</ele><time>2026-04-26T14:20:35.015Z</time></trkpt><trkpt lat="45.8632822" lon="11.7475195"><ele>1207.0</ele><time>2026-04-26T14:20:36.086Z</time></trkpt><trkpt lat="45.8633078" lon="11.7476888"><ele>1205.2</ele><time>2026-04-26T14:20:37.016Z</time></trkpt><trkpt lat="45.8633419" lon="11.7478474"><ele>1203.4</ele><time>2026-04-26T14:20:38.017Z</time></trkpt><trkpt lat="45.8633844" lon="11.7479858"><ele>1201.6</ele><time>2026-04-26T14:20:39.015Z</time></trkpt><trkpt lat="45.8634439" lon="11.7481203"><ele>1199.8</ele><time>2026-04-26T14:20:40.032Z</time></trkpt><trkpt lat="45.8635212" lon="11.7482459"><ele>1198.0</ele><time>2026-04-26T14:20:41.009Z</time></trkpt><trkpt lat="45.8636078" lon="11.7483681"><ele>1201.75</ele><time>2026-04-26T14:20:42.023Z</time></trkpt><trkpt lat="45.8636958" lon="11.7484891"><ele>1205.5</ele><time>2026-04-26T14:20:43.04Z</time></trkpt><trkpt lat="45.8637864" lon="11.7486114"><ele>1209.25</ele><time>2026-04-26T14:20:44.014Z</time></trkpt><trkpt lat="45.8638742" lon="11.7487349"><ele>1213.0</ele><time>2026-04-26T14:20:45.025Z</time></trkpt><trkpt lat="45.8639602" lon="11.7488564"><ele>1213.0</ele><time>2026-04-26T14:20:46.016Z</time></trkpt><trkpt lat="45.864045" lon="11.7489763"><ele>1213.0</ele><time>2026-04-26T14:20:47.012Z</time></trkpt><trkpt lat="45.8641315" lon="11.7490983"><ele>1213.0</ele><time>2026-04-26T14:20:48.018Z</time></trkpt><trkpt lat="45.8642146" lon="11.7492248"><ele>1213.0</ele><time>2026-04-26T14:20:49.023Z</time></trkpt><trkpt lat="45.8642891" lon="11.7493399"><ele>1215.1666666666665</ele><time>2026-04-26T14:20:50.008Z</time></trkpt><trkpt lat="45.8643495" lon="11.7494408"><ele>1217.3333333333333</ele><time>2026-04-26T14:20:51.022Z</time></trkpt><trkpt lat="45.8644044" lon="11.7495287"><ele>1219.5</ele><time>2026-04-26T14:20:52.008Z</time></trkpt><trkpt lat="45.8644498" lon="11.7496109"><ele>1221.6666666666667</ele><time>2026-04-26T14:20:53.005Z</time></trkpt><trkpt lat="45.8645167" lon="11.749733"><ele>1223.8333333333335</ele><time>2026-04-26T14:20:55.014Z</time></trkpt><trkpt lat="45.8644683" lon="11.7498061"><ele>1226.0</ele><time>2026-04-26T14:20:58.019Z</time></trkpt><trkpt lat="45.8643512" lon="11.7497445"><ele>1226.0</ele><time>2026-04-26T14:21:00.007Z</time></trkpt><trkpt lat="45.8642865" lon="11.749652"><ele>1226.0</ele><time>2026-04-26T14:21:01.017Z</time></trkpt><trkpt lat="45.8642176" lon="11.7495502"><ele>1226.0</ele><time>2026-04-26T14:21:02.017Z</time></trkpt><trkpt lat="45.8641357" lon="11.7494527"><ele>1226.0</ele><time>2026-04-26T14:21:03.015Z</time></trkpt><trkpt lat="45.8640418" lon="11.7493656"><ele>1226.0</ele><time>2026-04-26T14:21:04.016Z</time></trkpt><trkpt lat="45.8639329" lon="11.7492961"><ele>1222.75</ele><time>2026-04-26T14:21:05.016Z</time></trkpt><trkpt lat="45.8638129" lon="11.7492322"><ele>1219.5</ele><time>2026-04-26T14:21:06.027Z</time></trkpt><trkpt lat="45.863691" lon="11.7491675"><ele>1216.25</ele><time>2026-04-26T14:21:07.02Z</time></trkpt><trkpt lat="45.8635666" lon="11.7491067"><ele>1213.0</ele><time>2026-04-26T14:21:08.009Z</time></trkpt><trkpt lat="45.8634404" lon="11.7490424"><ele>1209.0</ele><time>2026-04-26T14:21:09.018Z</time></trkpt><trkpt lat="45.8633165" lon="11.748979"><ele>1205.0</ele><time>2026-04-26T14:21:10.018Z</time></trkpt><trkpt lat="45.8631946" lon="11.7489123"><ele>1201.0</ele><time>2026-04-26T14:21:11.017Z</time></trkpt><trkpt lat="45.8630764" lon="11.7488314"><ele>1197.0</ele><time>2026-04-26T14:21:12.011Z</time></trkpt><trkpt lat="45.862957" lon="11.7487505"><ele>1197.0</ele><time>2026-04-26T14:21:13.002Z</time></trkpt><trkpt lat="45.8628398" lon="11.7486453"><ele>1197.0</ele><time>2026-04-26T14:21:14.024Z</time></trkpt><trkpt lat="45.8627233" lon="11.7485064"><ele>1197.0</ele><time>2026-04-26T14:21:15.009Z</time></trkpt><trkpt lat="45.8626192" lon="11.7483375"><ele>1197.0</ele><time>2026-04-26T14:21:16.017Z</time></trkpt><trkpt lat="45.8625302" lon="11.7481624"><ele>1193.25</ele><time>2026-04-26T14:21:17.023Z</time></trkpt><trkpt lat="45.8624542" lon="11.7479782"><ele>1189.5</ele><time>2026-04-26T14:21:18.026Z</time></trkpt><trkpt lat="45.8623847" lon="11.7478028"><ele>1185.75</ele><time>2026-04-26T14:21:19.027Z</time></trkpt><trkpt lat="45.862313" lon="11.7476241"><ele>1182.0</ele><time>2026-04-26T14:21:20.017Z</time></trkpt><trkpt lat="45.8622106" lon="11.7474749"><ele>1179.0</ele><time>2026-04-26T14:21:21.015Z</time></trkpt><trkpt lat="45.8620952" lon="11.7473489"><ele>1176.0</ele><time>2026-04-26T14:21:22.017Z</time></trkpt><trkpt lat="45.8619832" lon="11.7472368"><ele>1173.0</ele><time>2026-04-26T14:21:23.061Z</time></trkpt><trkpt lat="45.8618769" lon="11.7471241"><ele>1170.0</ele><time>2026-04-26T14:21:24.018Z</time></trkpt><trkpt lat="45.8617783" lon="11.7469873"><ele>1167.0</ele><time>2026-04-26T14:21:25.013Z</time></trkpt><trkpt lat="45.8616805" lon="11.7468515"><ele>1164.0</ele><time>2026-04-26T14:21:26.022Z</time></trkpt><trkpt lat="45.8615868" lon="11.746721"><ele>1161.0</ele><time>2026-04-26T14:21:27.023Z</time></trkpt><trkpt lat="45.8614917" lon="11.746592"><ele>1158.0</ele><time>2026-04-26T14:21:28.003Z</time></trkpt><trkpt lat="45.8614032" lon="11.7464665"><ele>1158.0</ele><time>2026-04-26T14:21:29.023Z</time></trkpt><trkpt lat="45.8613123" lon="11.7463342"><ele>1158.0</ele><time>2026-04-26T14:21:30.021Z</time></trkpt><trkpt lat="45.8612193" lon="11.7462049"><ele>1158.0</ele><time>2026-04-26T14:21:31.009Z</time></trkpt><trkpt lat="45.8611335" lon="11.7460805"><ele>1158.0</ele><time>2026-04-26T14:21:32.019Z</time></trkpt><trkpt lat="45.8610519" lon="11.7459638"><ele>1160.0</ele><time>2026-04-26T14:21:33.024Z</time></trkpt><trkpt lat="45.8609643" lon="11.7458748"><ele>1162.0</ele><time>2026-04-26T14:21:34.009Z</time></trkpt><trkpt lat="45.8608663" lon="11.7458268"><ele>1164.0</ele><time>2026-04-26T14:21:35.026Z</time></trkpt><trkpt lat="45.8607691" lon="11.7458073"><ele>1166.0</ele><time>2026-04-26T14:21:36.019Z</time></trkpt><trkpt lat="45.860677" lon="11.7457893"><ele>1168.0</ele><time>2026-04-26T14:21:37.01Z</time></trkpt><trkpt lat="45.8605942" lon="11.7457481"><ele>1164.5</ele><time>2026-04-26T14:21:38.016Z</time></trkpt><trkpt lat="45.8605272" lon="11.7456736"><ele>1161.0</ele><time>2026-04-26T14:21:39.02Z</time></trkpt><trkpt lat="45.8604811" lon="11.7455673"><ele>1157.5</ele><time>2026-04-26T14:21:40.01Z</time></trkpt><trkpt lat="45.8604621" lon="11.7454448"><ele>1154.0</ele><time>2026-04-26T14:21:41.025Z</time></trkpt><trkpt lat="45.8604561" lon="11.7453134"><ele>1150.5</ele><time>2026-04-26T14:21:42.012Z</time></trkpt><trkpt lat="45.8604532" lon="11.7451838"><ele>1147.0</ele><time>2026-04-26T14:21:43.01Z</time></trkpt><trkpt lat="45.8604444" lon="11.7450578"><ele>1147.0</ele><time>2026-04-26T14:21:44.017Z</time></trkpt><trkpt lat="45.8604352" lon="11.7449391"><ele>1147.0</ele><time>2026-04-26T14:21:45.024Z</time></trkpt><trkpt lat="45.8604251" lon="11.7448302"><ele>1147.0</ele><time>2026-04-26T14:21:46.012Z</time></trkpt><trkpt lat="45.8604178" lon="11.7447287"><ele>1147.0</ele><time>2026-04-26T14:21:47.009Z</time></trkpt><trkpt lat="45.860386" lon="11.7445615"><ele>1147.0</ele><time>2026-04-26T14:21:49.009Z</time></trkpt><trkpt lat="45.8603289" lon="11.7444904"><ele>1147.0</ele><time>2026-04-26T14:21:50.015Z</time></trkpt><trkpt lat="45.8602587" lon="11.744429"><ele>1148.8</ele><time>2026-04-26T14:21:51.012Z</time></trkpt><trkpt lat="45.8601848" lon="11.7443507"><ele>1150.6</ele><time>2026-04-26T14:21:52.008Z</time></trkpt><trkpt lat="45.8601108" lon="11.7442628"><ele>1152.3999999999999</ele><time>2026-04-26T14:21:53.02Z</time></trkpt><trkpt lat="45.8600379" lon="11.7441727"><ele>1154.2</ele><time>2026-04-26T14:21:54.014Z</time></trkpt><trkpt lat="45.8599542" lon="11.7441056"><ele>1156.0</ele><time>2026-04-26T14:21:55.003Z</time></trkpt><trkpt lat="45.8598476" lon="11.7440919"><ele>1150.0</ele><time>2026-04-26T14:21:56.006Z</time></trkpt><trkpt lat="45.8597347" lon="11.7441315"><ele>1144.0</ele><time>2026-04-26T14:21:57.016Z</time></trkpt><trkpt lat="45.8596158" lon="11.744188"><ele>1138.0</ele><time>2026-04-26T14:21:58.005Z</time></trkpt><trkpt lat="45.859491" lon="11.7442424"><ele>1132.0</ele><time>2026-04-26T14:21:59.012Z</time></trkpt><trkpt lat="45.8593686" lon="11.7442985"><ele>1132.75</ele><time>2026-04-26T14:22:00.012Z</time></trkpt><trkpt lat="45.8592403" lon="11.7443441"><ele>1133.5</ele><time>2026-04-26T14:22:01.009Z</time></trkpt><trkpt lat="45.8591111" lon="11.7443799"><ele>1134.25</ele><time>2026-04-26T14:22:02.029Z</time></trkpt><trkpt lat="45.8589822" lon="11.744411"><ele>1135.0</ele><time>2026-04-26T14:22:03.026Z</time></trkpt><trkpt lat="45.8588499" lon="11.7444492"><ele>1138.0</ele><time>2026-04-26T14:22:04.009Z</time></trkpt><trkpt lat="45.8587384" lon="11.7444928"><ele>1141.0</ele><time>2026-04-26T14:22:05.013Z</time></trkpt><trkpt lat="45.858648" lon="11.7445606"><ele>1144.0</ele><time>2026-04-26T14:22:06.023Z</time></trkpt><trkpt lat="45.8585617" lon="11.74463"><ele>1147.0</ele><time>2026-04-26T14:22:07.012Z</time></trkpt><trkpt lat="45.8585242" lon="11.7447626"><ele>1150.0</ele><time>2026-04-26T14:22:08.022Z</time></trkpt><trkpt lat="45.8585124" lon="11.7449146"><ele>1150.0</ele><time>2026-04-26T14:22:09.03Z</time></trkpt><trkpt lat="45.8585058" lon="11.745085"><ele>1150.0</ele><time>2026-04-26T14:22:10.015Z</time></trkpt><trkpt lat="45.8584989" lon="11.7452691"><ele>1150.0</ele><time>2026-04-26T14:22:11.03Z</time></trkpt><trkpt lat="45.8584874" lon="11.74546"><ele>1150.0</ele><time>2026-04-26T14:22:12.015Z</time></trkpt><trkpt lat="45.8584732" lon="11.7456664"><ele>1149.6666666666665</ele><time>2026-04-26T14:22:13.005Z</time></trkpt><trkpt lat="45.8584636" lon="11.7458855"><ele>1149.3333333333333</ele><time>2026-04-26T14:22:14.021Z</time></trkpt><trkpt lat="45.8584589" lon="11.7461106"><ele>1149.0</ele><time>2026-04-26T14:22:15.02Z</time></trkpt><trkpt lat="45.8584497" lon="11.7463414"><ele>1149.0</ele><time>2026-04-26T14:22:16.034Z</time></trkpt><trkpt lat="45.8584356" lon="11.7465735"><ele>1149.0</ele><time>2026-04-26T14:22:17.015Z</time></trkpt><trkpt lat="45.8584189" lon="11.7468095"><ele>1149.0</ele><time>2026-04-26T14:22:18.015Z</time></trkpt><trkpt lat="45.8584051" lon="11.7470529"><ele>1150.3333333333333</ele><time>2026-04-26T14:22:19.018Z</time></trkpt><trkpt lat="45.8583903" lon="11.7472952"><ele>1151.6666666666665</ele><time>2026-04-26T14:22:20.02Z</time></trkpt><trkpt lat="45.8583667" lon="11.7475284"><ele>1153.0</ele><time>2026-04-26T14:22:21.013Z</time></trkpt><trkpt lat="45.8583488" lon="11.7477591"><ele>1155.3333333333333</ele><time>2026-04-26T14:22:22.059Z</time></trkpt><trkpt lat="45.8583341" lon="11.7479874"><ele>1157.6666666666667</ele><time>2026-04-26T14:22:23.015Z</time></trkpt><trkpt lat="45.858341" lon="11.7482169"><ele>1160.0</ele><time>2026-04-26T14:22:24.01Z</time></trkpt><trkpt lat="45.8583471" lon="11.7484516"><ele>1161.0</ele><time>2026-04-26T14:22:25.009Z</time></trkpt><trkpt lat="45.8583723" lon="11.7486855"><ele>1162.0</ele><time>2026-04-26T14:22:26.023Z</time></trkpt><trkpt lat="45.8584057" lon="11.7488971"><ele>1163.0</ele><time>2026-04-26T14:22:27.016Z</time></trkpt><trkpt lat="45.8584578" lon="11.7490887"><ele>1170.25</ele><time>2026-04-26T14:22:28.023Z</time></trkpt><trkpt lat="45.8585292" lon="11.7492709"><ele>1177.5</ele><time>2026-04-26T14:22:29.004Z</time></trkpt><trkpt lat="45.8585994" lon="11.7494307"><ele>1184.75</ele><time>2026-04-26T14:22:30.01Z</time></trkpt><trkpt lat="45.8586642" lon="11.749583"><ele>1192.0</ele><time>2026-04-26T14:22:31.028Z</time></trkpt><trkpt lat="45.8587037" lon="11.7497352"><ele>1193.0</ele><time>2026-04-26T14:22:32.01Z</time></trkpt><trkpt lat="45.8587" lon="11.7499271"><ele>1194.0</ele><time>2026-04-26T14:22:33.011Z</time></trkpt><trkpt lat="45.8586637" lon="11.7501311"><ele>1195.0</ele><time>2026-04-26T14:22:34.011Z</time></trkpt><trkpt lat="45.8586437" lon="11.7503391"><ele>1196.0</ele><time>2026-04-26T14:22:35.009Z</time></trkpt><trkpt lat="45.858635" lon="11.7505478"><ele>1197.25</ele><time>2026-04-26T14:22:36.023Z</time></trkpt><trkpt lat="45.8586417" lon="11.7507602"><ele>1198.5</ele><time>2026-04-26T14:22:37.007Z</time></trkpt><trkpt lat="45.8586522" lon="11.7509617"><ele>1199.75</ele><time>2026-04-26T14:22:38.009Z</time></trkpt><trkpt lat="45.8586631" lon="11.7511378"><ele>1201.0</ele><time>2026-04-26T14:22:39.009Z</time></trkpt><trkpt lat="45.8586535" lon="11.7513125"><ele>1202.0</ele><time>2026-04-26T14:22:40.005Z</time></trkpt><trkpt lat="45.8586023" lon="11.7514895"><ele>1203.0</ele><time>2026-04-26T14:22:41.016Z</time></trkpt><trkpt lat="45.8585504" lon="11.7516655"><ele>1204.0</ele><time>2026-04-26T14:22:42.013Z</time></trkpt><trkpt lat="45.8584886" lon="11.7518435"><ele>1205.0</ele><time>2026-04-26T14:22:43.007Z</time></trkpt><trkpt lat="45.8584144" lon="11.7520191"><ele>1200.5</ele><time>2026-04-26T14:22:44.011Z</time></trkpt><trkpt lat="45.8583886" lon="11.7522251"><ele>1196.0</ele><time>2026-04-26T14:22:45.009Z</time></trkpt><trkpt lat="45.858378" lon="11.7524421"><ele>1191.5</ele><time>2026-04-26T14:22:46.024Z</time></trkpt><trkpt lat="45.8583743" lon="11.7526562"><ele>1187.0</ele><time>2026-04-26T14:22:47.007Z</time></trkpt><trkpt lat="45.8583786" lon="11.7528736"><ele>1187.0</ele><time>2026-04-26T14:22:48.005Z</time></trkpt><trkpt lat="45.8583847" lon="11.753089"><ele>1187.0</ele><time>2026-04-26T14:22:49.016Z</time></trkpt><trkpt lat="45.858426" lon="11.753314"><ele>1187.0</ele><time>2026-04-26T14:22:50.009Z</time></trkpt><trkpt lat="45.8584644" lon="11.753545"><ele>1201.6666666666667</ele><time>2026-04-26T14:22:51.02Z</time></trkpt><trkpt lat="45.858504" lon="11.7537776"><ele>1216.3333333333333</ele><time>2026-04-26T14:22:52.012Z</time></trkpt><trkpt lat="45.8585499" lon="11.7540177"><ele>1231.0</ele><time>2026-04-26T14:22:53.01Z</time></trkpt><trkpt lat="45.8585885" lon="11.7542631"><ele>1232.3333333333333</ele><time>2026-04-26T14:22:54.018Z</time></trkpt><trkpt lat="45.8586285" lon="11.7545064"><ele>1233.6666666666667</ele><time>2026-04-26T14:22:55.012Z</time></trkpt><trkpt lat="45.8586572" lon="11.7547496"><ele>1235.0</ele><time>2026-04-26T14:22:56.006Z</time></trkpt><trkpt lat="45.8586933" lon="11.754997"><ele>1234.0</ele><time>2026-04-26T14:22:57.02Z</time></trkpt><trkpt lat="45.8587249" lon="11.7552413"><ele>1233.0</ele><time>2026-04-26T14:22:58.007Z</time></trkpt><trkpt lat="45.8587794" lon="11.7554678"><ele>1232.0</ele><time>2026-04-26T14:22:59.012Z</time></trkpt><trkpt lat="45.8588191" lon="11.755707"><ele>1232.0</ele><time>2026-04-26T14:23:00.031Z</time></trkpt><trkpt lat="45.8588616" lon="11.7559547"><ele>1232.0</ele><time>2026-04-26T14:23:01.024Z</time></trkpt><trkpt lat="45.8588935" lon="11.7561936"><ele>1232.0</ele><time>2026-04-26T14:23:02.004Z</time></trkpt><trkpt lat="45.8588926" lon="11.7564327"><ele>1230.6666666666667</ele><time>2026-04-26T14:23:03.007Z</time></trkpt><trkpt lat="45.8588938" lon="11.7566505"><ele>1229.3333333333333</ele><time>2026-04-26T14:23:04.004Z</time></trkpt><trkpt lat="45.8589266" lon="11.7568784"><ele>1228.0</ele><time>2026-04-26T14:23:05.021Z</time></trkpt><trkpt lat="45.8589494" lon="11.7571135"><ele>1226.3333333333333</ele><time>2026-04-26T14:23:06.017Z</time></trkpt><trkpt lat="45.8589954" lon="11.7573387"><ele>1224.6666666666667</ele><time>2026-04-26T14:23:07.004Z</time></trkpt><trkpt lat="45.8590299" lon="11.7575542"><ele>1223.0</ele><time>2026-04-26T14:23:08.019Z</time></trkpt><trkpt lat="45.8590359" lon="11.757761"><ele>1222.5</ele><time>2026-04-26T14:23:09.01Z</time></trkpt><trkpt lat="45.8590329" lon="11.7579437"><ele>1222.0</ele><time>2026-04-26T14:23:10.009Z</time></trkpt><trkpt lat="45.8590563" lon="11.7581395"><ele>1221.5</ele><time>2026-04-26T14:23:11.02Z</time></trkpt><trkpt lat="45.8591577" lon="11.7582978"><ele>1221.0</ele><time>2026-04-26T14:23:12.017Z</time></trkpt><trkpt lat="45.859227" lon="11.7584262"><ele>1221.0</ele><time>2026-04-26T14:23:13.008Z</time></trkpt><trkpt lat="45.8592796" lon="11.7585312"><ele>1221.0</ele><time>2026-04-26T14:23:14.014Z</time></trkpt><trkpt lat="45.8593277" lon="11.758618"><ele>1221.0</ele><time>2026-04-26T14:23:15.022Z</time></trkpt><trkpt lat="45.8593765" lon="11.7587132"><ele>1221.0</ele><time>2026-04-26T14:23:17.05Z</time></trkpt><trkpt lat="45.8594095" lon="11.7588355"><ele>1221.0</ele><time>2026-04-26T14:23:32.007Z</time></trkpt><trkpt lat="45.8594606" lon="11.7589642"><ele>1221.0</ele><time>2026-04-26T14:23:34.019Z</time></trkpt><trkpt lat="45.8595123" lon="11.7590932"><ele>1222.8333333333333</ele><time>2026-04-26T14:23:36.011Z</time></trkpt><trkpt lat="45.859545" lon="11.759237"><ele>1224.6666666666667</ele><time>2026-04-26T14:23:38.019Z</time></trkpt><trkpt lat="45.859562" lon="11.7593416"><ele>1226.5</ele><time>2026-04-26T14:23:39.01Z</time></trkpt><trkpt lat="45.8595704" lon="11.7594466"><ele>1228.3333333333335</ele><time>2026-04-26T14:23:40.019Z</time></trkpt><trkpt lat="45.8595899" lon="11.7595425"><ele>1230.1666666666667</ele><time>2026-04-26T14:23:41.014Z</time></trkpt><trkpt lat="45.859627" lon="11.7596418"><ele>1232.0</ele><time>2026-04-26T14:23:42.012Z</time></trkpt><trkpt lat="45.859655" lon="11.7597597"><ele>1232.0</ele><time>2026-04-26T14:23:43.015Z</time></trkpt><trkpt lat="45.8596845" lon="11.7598991"><ele>1232.0</ele><time>2026-04-26T14:23:44.018Z</time></trkpt><trkpt lat="45.8597066" lon="11.7600502"><ele>1232.0</ele><time>2026-04-26T14:23:45.01Z</time></trkpt><trkpt lat="45.859728" lon="11.7601981"><ele>1232.0</ele><time>2026-04-26T14:23:46.022Z</time></trkpt><trkpt lat="45.8597568" lon="11.7603425"><ele>1232.0</ele><time>2026-04-26T14:23:47.012Z</time></trkpt><trkpt lat="45.8597779" lon="11.7604723"><ele>1230.5</ele><time>2026-04-26T14:23:48.022Z</time></trkpt><trkpt lat="45.8598029" lon="11.7605937"><ele>1229.0</ele><time>2026-04-26T14:23:49.011Z</time></trkpt><trkpt lat="45.8598142" lon="11.7607246"><ele>1227.5</ele><time>2026-04-26T14:23:50.02Z</time></trkpt><trkpt lat="45.8598247" lon="11.7608579"><ele>1226.0</ele><time>2026-04-26T14:23:51.018Z</time></trkpt><trkpt lat="45.8598104" lon="11.7609899"><ele>1224.5</ele><time>2026-04-26T14:23:52.006Z</time></trkpt><trkpt lat="45.8597991" lon="11.7611058"><ele>1223.0</ele><time>2026-04-26T14:23:53.03Z</time></trkpt><trkpt lat="45.8598134" lon="11.7612049"><ele>1220.8</ele><time>2026-04-26T14:23:54.023Z</time></trkpt><trkpt lat="45.8598946" lon="11.7613239"><ele>1218.6</ele><time>2026-04-26T14:23:56.011Z</time></trkpt><trkpt lat="45.8599511" lon="11.7613954"><ele>1216.4</ele><time>2026-04-26T14:23:58.039Z</time></trkpt><trkpt lat="45.8599655" lon="11.7614987"><ele>1214.2</ele><time>2026-04-26T14:24:00.023Z</time></trkpt><trkpt lat="45.8598986" lon="11.7615886"><ele>1212.0</ele><time>2026-04-26T14:24:02.006Z</time></trkpt><trkpt lat="45.8597816" lon="11.761626"><ele>1212.0</ele><time>2026-04-26T14:24:04.018Z</time></trkpt><trkpt lat="45.8597096" lon="11.7616203"><ele>1212.0</ele><time>2026-04-26T14:24:05.015Z</time></trkpt><trkpt lat="45.8596356" lon="11.7616234"><ele>1212.0</ele><time>2026-04-26T14:24:06.014Z</time></trkpt><trkpt lat="45.8595401" lon="11.7617054"><ele>1212.0</ele><time>2026-04-26T14:24:08.013Z</time></trkpt><trkpt lat="45.8594816" lon="11.7618438"><ele>1212.0</ele><time>2026-04-26T14:24:10.02Z</time></trkpt><trkpt lat="45.8594349" lon="11.7619924"><ele>1213.0</ele><time>2026-04-26T14:24:12.019Z</time></trkpt><trkpt lat="45.8594236" lon="11.7620844"><ele>1214.0</ele><time>2026-04-26T14:24:13.019Z</time></trkpt><trkpt lat="45.8593927" lon="11.7621708"><ele>1215.0</ele><time>2026-04-26T14:24:14.006Z</time></trkpt><trkpt lat="45.8593501" lon="11.7622596"><ele>1216.0</ele><time>2026-04-26T14:24:15.007Z</time></trkpt><trkpt lat="45.8593068" lon="11.7623422"><ele>1217.0</ele><time>2026-04-26T14:24:16.014Z</time></trkpt><trkpt lat="45.8592486" lon="11.7623932"><ele>1218.0</ele><time>2026-04-26T14:24:17.006Z</time></trkpt><trkpt lat="45.8591588" lon="11.7625029"><ele>1215.4</ele><time>2026-04-26T14:24:19.023Z</time></trkpt><trkpt lat="45.8591027" lon="11.7626489"><ele>1212.8</ele><time>2026-04-26T14:24:21.011Z</time></trkpt><trkpt lat="45.8590465" lon="11.7627839"><ele>1210.2</ele><time>2026-04-26T14:24:23.015Z</time></trkpt><trkpt lat="45.8589721" lon="11.7628903"><ele>1207.6</ele><time>2026-04-26T14:24:25.016Z</time></trkpt><trkpt lat="45.8588958" lon="11.76299"><ele>1205.0</ele><time>2026-04-26T14:24:27.016Z</time></trkpt><trkpt lat="45.8588214" lon="11.7630828"><ele>1205.0</ele><time>2026-04-26T14:24:29.01Z</time></trkpt><trkpt lat="45.8587524" lon="11.7632028"><ele>1205.0</ele><time>2026-04-26T14:24:31.013Z</time></trkpt><trkpt lat="45.8586876" lon="11.7633443"><ele>1205.0</ele><time>2026-04-26T14:24:33.023Z</time></trkpt><trkpt lat="45.8586001" lon="11.7634791"><ele>1205.0</ele><time>2026-04-26T14:24:35.016Z</time></trkpt><trkpt lat="45.8585496" lon="11.7635562"><ele>1205.0</ele><time>2026-04-26T14:24:36.029Z</time></trkpt><trkpt lat="45.8585047" lon="11.7636428"><ele>1205.8333333333335</ele><time>2026-04-26T14:24:37.015Z</time></trkpt><trkpt lat="45.8584643" lon="11.7637379"><ele>1206.6666666666667</ele><time>2026-04-26T14:24:38.015Z</time></trkpt><trkpt lat="45.8584216" lon="11.7638411"><ele>1207.5</ele><time>2026-04-26T14:24:39.015Z</time></trkpt><trkpt lat="45.8583747" lon="11.7639455"><ele>1208.3333333333333</ele><time>2026-04-26T14:24:40.027Z</time></trkpt><trkpt lat="45.85833" lon="11.7640494"><ele>1209.1666666666665</ele><time>2026-04-26T14:24:41.023Z</time></trkpt><trkpt lat="45.8582702" lon="11.7641543"><ele>1210.0</ele><time>2026-04-26T14:24:42.021Z</time></trkpt><trkpt lat="45.8581968" lon="11.7642922"><ele>1208.0</ele><time>2026-04-26T14:24:44.022Z</time></trkpt><trkpt lat="45.8581686" lon="11.7644553"><ele>1206.0</ele><time>2026-04-26T14:24:46.011Z</time></trkpt><trkpt lat="45.8581327" lon="11.7646247"><ele>1204.0</ele><time>2026-04-26T14:24:48.016Z</time></trkpt><trkpt lat="45.858088" lon="11.7646951"><ele>1202.0</ele><time>2026-04-26T14:24:49.01Z</time></trkpt><trkpt lat="45.858023" lon="11.7647413"><ele>1200.0</ele><time>2026-04-26T14:24:50.017Z</time></trkpt><trkpt lat="45.8579487" lon="11.7647671"><ele>1200.0</ele><time>2026-04-26T14:24:51.021Z</time></trkpt><trkpt lat="45.8578785" lon="11.7647935"><ele>1200.0</ele><time>2026-04-26T14:24:52.018Z</time></trkpt><trkpt lat="45.8577756" lon="11.7648193"><ele>1200.0</ele><time>2026-04-26T14:24:54.074Z</time></trkpt><trkpt lat="45.8576829" lon="11.7648516"><ele>1200.0</ele><time>2026-04-26T14:24:56.013Z</time></trkpt><trkpt lat="45.8575939" lon="11.7649049"><ele>1200.0</ele><time>2026-04-26T14:24:58.043Z</time></trkpt><trkpt lat="45.8575208" lon="11.7649932"><ele>1200.2</ele><time>2026-04-26T14:25:00.018Z</time></trkpt><trkpt lat="45.8574691" lon="11.7651274"><ele>1200.4</ele><time>2026-04-26T14:25:02.01Z</time></trkpt><trkpt lat="45.857394" lon="11.7652322"><ele>1200.6</ele><time>2026-04-26T14:25:04.01Z</time></trkpt><trkpt lat="45.8573282" lon="11.7652823"><ele>1200.8</ele><time>2026-04-26T14:25:06.028Z</time></trkpt><trkpt lat="45.8572607" lon="11.7653561"><ele>1201.0</ele><time>2026-04-26T14:25:18.016Z</time></trkpt><trkpt lat="45.857193" lon="11.7654482"><ele>1201.0</ele><time>2026-04-26T14:25:20.012Z</time></trkpt><trkpt lat="45.8571253" lon="11.7654937"><ele>1201.0</ele><time>2026-04-26T14:26:14.013Z</time></trkpt><trkpt lat="45.8570691" lon="11.7655538"><ele>1201.0</ele><time>2026-04-26T14:26:16.038Z</time></trkpt><trkpt lat="45.8569613" lon="11.7656441"><ele>1201.0</ele><time>2026-04-26T14:26:18.018Z</time></trkpt><trkpt lat="45.8568936" lon="11.7656945"><ele>1201.0</ele><time>2026-04-26T14:26:19.008Z</time></trkpt><trkpt lat="45.8568216" lon="11.7657397"><ele>1201.0</ele><time>2026-04-26T14:26:20.011Z</time></trkpt><trkpt lat="45.8567505" lon="11.7657859"><ele>1201.0</ele><time>2026-04-26T14:26:21.014Z</time></trkpt><trkpt lat="45.8566713" lon="11.7658208"><ele>1201.0</ele><time>2026-04-26T14:26:22.029Z</time></trkpt><trkpt lat="45.8565931" lon="11.7658546"><ele>1201.0</ele><time>2026-04-26T14:26:23.003Z</time></trkpt><trkpt lat="45.8565073" lon="11.7658598"><ele>1201.0</ele><time>2026-04-26T14:26:24.025Z</time></trkpt><trkpt lat="45.856421" lon="11.7658562"><ele>1201.0</ele><time>2026-04-26T14:26:25.014Z</time></trkpt><trkpt lat="45.8563282" lon="11.76585"><ele>1201.0</ele><time>2026-04-26T14:26:26.011Z</time></trkpt><trkpt lat="45.8562379" lon="11.7658435"><ele>1201.0</ele><time>2026-04-26T14:26:27.016Z</time></trkpt><trkpt lat="45.8561427" lon="11.7658495"><ele>1201.0</ele><time>2026-04-26T14:26:28.023Z</time></trkpt><trkpt lat="45.8560428" lon="11.7658726"><ele>1201.0</ele><time>2026-04-26T14:26:29.021Z</time></trkpt><trkpt lat="45.8559452" lon="11.7659144"><ele>1201.0</ele><time>2026-04-26T14:26:30.023Z</time></trkpt><trkpt lat="45.8558498" lon="11.7659534"><ele>1201.0</ele><time>2026-04-26T14:26:31.018Z</time></trkpt><trkpt lat="45.8557618" lon="11.7659922"><ele>1202.6</ele><time>2026-04-26T14:26:32.013Z</time></trkpt><trkpt lat="45.8556696" lon="11.7660226"><ele>1204.1999999999998</ele><time>2026-04-26T14:26:33.014Z</time></trkpt><trkpt lat="45.8555719" lon="11.7660441"><ele>1205.8000000000002</ele><time>2026-04-26T14:26:34.02Z</time></trkpt><trkpt lat="45.8554707" lon="11.7660493"><ele>1207.4</ele><time>2026-04-26T14:26:35.017Z</time></trkpt><trkpt lat="45.8553797" lon="11.7660489"><ele>1209.0</ele><time>2026-04-26T14:26:36.016Z</time></trkpt><trkpt lat="45.8553081" lon="11.7660458"><ele>1209.0</ele><time>2026-04-26T14:26:37.014Z</time></trkpt><trkpt lat="45.8552459" lon="11.766019"><ele>1209.0</ele><time>2026-04-26T14:26:38.013Z</time></trkpt><trkpt lat="45.8551727" lon="11.7659341"><ele>1209.0</ele><time>2026-04-26T14:26:40.014Z</time></trkpt><trkpt lat="45.8551782" lon="11.7657891"><ele>1209.0</ele><time>2026-04-26T14:26:43.023Z</time></trkpt><trkpt lat="45.8552696" lon="11.7657135"><ele>1209.0</ele><time>2026-04-26T14:26:45.016Z</time></trkpt><trkpt lat="45.8553418" lon="11.765695"><ele>1209.0</ele><time>2026-04-26T14:26:46.013Z</time></trkpt><trkpt lat="45.855429" lon="11.7656698"><ele>1209.0</ele><time>2026-04-26T14:26:47.012Z</time></trkpt><trkpt lat="45.8555274" lon="11.7656394"><ele>1209.0</ele><time>2026-04-26T14:26:48.018Z</time></trkpt><trkpt lat="45.8556517" lon="11.7655552"><ele>1209.0</ele><time>2026-04-26T14:26:49.016Z</time></trkpt><trkpt lat="45.8557702" lon="11.7654523"><ele>1209.0</ele><time>2026-04-26T14:26:50.016Z</time></trkpt><trkpt lat="45.8558693" lon="11.765365"><ele>1208.8333333333333</ele><time>2026-04-26T14:26:51.008Z</time></trkpt><trkpt lat="45.8559633" lon="11.765297"><ele>1208.6666666666667</ele><time>2026-04-26T14:26:52.015Z</time></trkpt><trkpt lat="45.8560529" lon="11.7652629"><ele>1208.5</ele><time>2026-04-26T14:26:53.013Z</time></trkpt><trkpt lat="45.8561338" lon="11.7652443"><ele>1208.3333333333335</ele><time>2026-04-26T14:26:54.012Z</time></trkpt><trkpt lat="45.8562277" lon="11.7652105"><ele>1208.1666666666667</ele><time>2026-04-26T14:26:56.014Z</time></trkpt><trkpt lat="45.856264" lon="11.7651244"><ele>1208.0</ele><time>2026-04-26T14:26:58.017Z</time></trkpt><trkpt lat="45.8561988" lon="11.7650432"><ele>1208.0</ele><time>2026-04-26T14:27:00.022Z</time></trkpt><trkpt lat="45.8560514" lon="11.765029"><ele>1208.0</ele><time>2026-04-26T14:27:02.016Z</time></trkpt><trkpt lat="45.8559581" lon="11.765037"><ele>1208.0</ele><time>2026-04-26T14:27:03.01Z</time></trkpt><trkpt lat="45.855855" lon="11.7650545"><ele>1208.0</ele><time>2026-04-26T14:27:04.011Z</time></trkpt><trkpt lat="45.8557531" lon="11.7650691"><ele>1208.0</ele><time>2026-04-26T14:27:05.022Z</time></trkpt><trkpt lat="45.8556608" lon="11.765089"><ele>1208.1666666666667</ele><time>2026-04-26T14:27:06.024Z</time></trkpt><trkpt lat="45.8555747" lon="11.7651386"><ele>1208.3333333333335</ele><time>2026-04-26T14:27:07.021Z</time></trkpt><trkpt lat="45.8554969" lon="11.7651738"><ele>1208.5</ele><time>2026-04-26T14:27:08.018Z</time></trkpt><trkpt lat="45.8554226" lon="11.7652076"><ele>1208.6666666666667</ele><time>2026-04-26T14:27:09.02Z</time></trkpt><trkpt lat="45.855354" lon="11.7652244"><ele>1208.8333333333333</ele><time>2026-04-26T14:27:10.023Z</time></trkpt><trkpt lat="45.8552826" lon="11.7652224"><ele>1209.0</ele><time>2026-04-26T14:27:11.025Z</time></trkpt><trkpt lat="45.8552042" lon="11.7652075"><ele>1212.8</ele><time>2026-04-26T14:27:12.016Z</time></trkpt><trkpt lat="45.8551207" lon="11.7651925"><ele>1216.6000000000001</ele><time>2026-04-26T14:27:13.028Z</time></trkpt><trkpt lat="45.85503" lon="11.7651688"><ele>1220.4</ele><time>2026-04-26T14:27:14.012Z</time></trkpt><trkpt lat="45.8549294" lon="11.765131"><ele>1224.2</ele><time>2026-04-26T14:27:15.006Z</time></trkpt><trkpt lat="45.854828" lon="11.7650932"><ele>1228.0</ele><time>2026-04-26T14:27:16.006Z</time></trkpt><trkpt lat="45.8547234" lon="11.7650485"><ele>1228.0</ele><time>2026-04-26T14:27:17.01Z</time></trkpt><trkpt lat="45.8546191" lon="11.7650015"><ele>1228.0</ele><time>2026-04-26T14:27:18.006Z</time></trkpt><trkpt lat="45.8545114" lon="11.7649584"><ele>1228.0</ele><time>2026-04-26T14:27:19.001Z</time></trkpt><trkpt lat="45.8544037" lon="11.7649373"><ele>1228.0</ele><time>2026-04-26T14:27:20.008Z</time></trkpt><trkpt lat="45.8542976" lon="11.7649261"><ele>1228.0</ele><time>2026-04-26T14:27:21.004Z</time></trkpt><trkpt lat="45.8542088" lon="11.7649152"><ele>1228.5</ele><time>2026-04-26T14:27:22.006Z</time></trkpt><trkpt lat="45.8541302" lon="11.7648938"><ele>1229.0</ele><time>2026-04-26T14:27:23.01Z</time></trkpt><trkpt lat="45.8540659" lon="11.7649083"><ele>1229.5</ele><time>2026-04-26T14:27:24.036Z</time></trkpt><trkpt lat="45.853977" lon="11.7649975"><ele>1230.0</ele><time>2026-04-26T14:27:26.023Z</time></trkpt><trkpt lat="45.8539408" lon="11.7651288"><ele>1230.5</ele><time>2026-04-26T14:27:28.005Z</time></trkpt><trkpt lat="45.8539468" lon="11.765227"><ele>1231.0</ele><time>2026-04-26T14:27:29.01Z</time></trkpt><trkpt lat="45.8539543" lon="11.7653211"><ele>1231.0</ele><time>2026-04-26T14:27:30.018Z</time></trkpt><trkpt lat="45.8538849" lon="11.7654339"><ele>1231.0</ele><time>2026-04-26T14:27:32.006Z</time></trkpt><trkpt lat="45.8538237" lon="11.7654754"><ele>1231.0</ele><time>2026-04-26T14:27:33.018Z</time></trkpt><trkpt lat="45.8537405" lon="11.7654949"><ele>1231.0</ele><time>2026-04-26T14:27:34.018Z</time></trkpt><trkpt lat="45.8536385" lon="11.7655118"><ele>1231.0</ele><time>2026-04-26T14:27:35.009Z</time></trkpt><trkpt lat="45.853542" lon="11.7655249"><ele>1231.0</ele><time>2026-04-26T14:27:36.02Z</time></trkpt><trkpt lat="45.8534567" lon="11.7655351"><ele>1231.0</ele><time>2026-04-26T14:27:37.015Z</time></trkpt><trkpt lat="45.8533858" lon="11.7655288"><ele>1231.0</ele><time>2026-04-26T14:27:38.008Z</time></trkpt><trkpt lat="45.8533135" lon="11.7654998"><ele>1231.0</ele><time>2026-04-26T14:27:39.023Z</time></trkpt><trkpt lat="45.853232" lon="11.7654531"><ele>1231.0</ele><time>2026-04-26T14:27:40.016Z</time></trkpt><trkpt lat="45.8531464" lon="11.7654024"><ele>1231.0</ele><time>2026-04-26T14:27:41.013Z</time></trkpt><trkpt lat="45.853049" lon="11.7653399"><ele>1232.2</ele><time>2026-04-26T14:27:42.019Z</time></trkpt><trkpt lat="45.8529476" lon="11.7652786"><ele>1233.3999999999999</ele><time>2026-04-26T14:27:43.016Z</time></trkpt><trkpt lat="45.8528465" lon="11.7652272"><ele>1234.6</ele><time>2026-04-26T14:27:44.011Z</time></trkpt><trkpt lat="45.8527424" lon="11.7651769"><ele>1235.8</ele><time>2026-04-26T14:27:45.015Z</time></trkpt><trkpt lat="45.8526342" lon="11.7651494"><ele>1237.0</ele><time>2026-04-26T14:27:46.008Z</time></trkpt><trkpt lat="45.8525269" lon="11.765133"><ele>1239.6</ele><time>2026-04-26T14:27:47.008Z</time></trkpt><trkpt lat="45.8524279" lon="11.7651251"><ele>1242.2</ele><time>2026-04-26T14:27:48.015Z</time></trkpt><trkpt lat="45.8523365" lon="11.7651348"><ele>1244.8</ele><time>2026-04-26T14:27:49.01Z</time></trkpt><trkpt lat="45.8522446" lon="11.7651465"><ele>1247.4</ele><time>2026-04-26T14:27:50.007Z</time></trkpt><trkpt lat="45.8521503" lon="11.7651914"><ele>1250.0</ele><time>2026-04-26T14:27:51.014Z</time></trkpt><trkpt lat="45.8520585" lon="11.7652281"><ele>1250.2857142857144</ele><time>2026-04-26T14:27:52.01Z</time></trkpt><trkpt lat="45.8519749" lon="11.7652531"><ele>1250.5714285714287</ele><time>2026-04-26T14:27:53.011Z</time></trkpt><trkpt lat="45.8518972" lon="11.7652564"><ele>1250.857142857143</ele><time>2026-04-26T14:27:54.012Z</time></trkpt><trkpt lat="45.8518262" lon="11.7652349"><ele>1251.1428571428573</ele><time>2026-04-26T14:27:55.024Z</time></trkpt><trkpt lat="45.8517633" lon="11.7651957"><ele>1251.4285714285716</ele><time>2026-04-26T14:27:56.015Z</time></trkpt><trkpt lat="45.8517078" lon="11.765134"><ele>1251.7142857142858</ele><time>2026-04-26T14:27:57.015Z</time></trkpt><trkpt lat="45.8516596" lon="11.7650615"><ele>1252.0</ele><time>2026-04-26T14:27:58.008Z</time></trkpt><trkpt lat="45.8515951" lon="11.7649274"><ele>1250.5</ele><time>2026-04-26T14:28:00.023Z</time></trkpt><trkpt lat="45.8515407" lon="11.7648443"><ele>1249.0</ele><time>2026-04-26T14:28:02.016Z</time></trkpt><trkpt lat="45.8514779" lon="11.7648651"><ele>1247.5</ele><time>2026-04-26T14:28:06.006Z</time></trkpt><trkpt lat="45.8514884" lon="11.7649897"><ele>1246.0</ele><time>2026-04-26T14:28:09.021Z</time></trkpt><trkpt lat="45.8515346" lon="11.7651157"><ele>1244.5</ele><time>2026-04-26T14:28:11.022Z</time></trkpt><trkpt lat="45.851599" lon="11.7652315"><ele>1243.0</ele><time>2026-04-26T14:28:13.022Z</time></trkpt><trkpt lat="45.8516445" lon="11.7652991"><ele>1243.0</ele><time>2026-04-26T14:28:14.021Z</time></trkpt><trkpt lat="45.8516872" lon="11.7653748"><ele>1243.0</ele><time>2026-04-26T14:28:15.011Z</time></trkpt><trkpt lat="45.8517397" lon="11.7655299"><ele>1243.0</ele><time>2026-04-26T14:28:17.022Z</time></trkpt><trkpt lat="45.8517154" lon="11.7656888"><ele>1243.0</ele><time>2026-04-26T14:28:19.008Z</time></trkpt><trkpt lat="45.8516216" lon="11.7658115"><ele>1243.0</ele><time>2026-04-26T14:28:21.018Z</time></trkpt><trkpt lat="45.8515613" lon="11.76587"><ele>1243.0</ele><time>2026-04-26T14:28:22.03Z</time></trkpt><trkpt lat="45.8514942" lon="11.7659257"><ele>1243.0</ele><time>2026-04-26T14:28:23.007Z</time></trkpt><trkpt lat="45.8514261" lon="11.765983"><ele>1243.0</ele><time>2026-04-26T14:28:24.007Z</time></trkpt><trkpt lat="45.8513454" lon="11.7660251"><ele>1243.0</ele><time>2026-04-26T14:28:25.032Z</time></trkpt><trkpt lat="45.8512591" lon="11.7660546"><ele>1243.0</ele><time>2026-04-26T14:28:26.008Z</time></trkpt><trkpt lat="45.8511726" lon="11.766083"><ele>1243.0</ele><time>2026-04-26T14:28:27.007Z</time></trkpt><trkpt lat="45.851085" lon="11.7660928"><ele>1242.3333333333333</ele><time>2026-04-26T14:28:28.013Z</time></trkpt><trkpt lat="45.8510041" lon="11.7661019"><ele>1241.6666666666665</ele><time>2026-04-26T14:28:29.012Z</time></trkpt><trkpt lat="45.8509397" lon="11.7661096"><ele>1241.0</ele><time>2026-04-26T14:28:30.002Z</time></trkpt><trkpt lat="45.850837" lon="11.7661627"><ele>1240.3333333333333</ele><time>2026-04-26T14:28:32.007Z</time></trkpt><trkpt lat="45.8507906" lon="11.766239"><ele>1239.6666666666667</ele><time>2026-04-26T14:28:32.997Z</time></trkpt><trkpt lat="45.8507469" lon="11.7663432"><ele>1239.0</ele><time>2026-04-26T14:28:34.011Z</time></trkpt><trkpt lat="45.8506773" lon="11.7664368"><ele>1239.0</ele><time>2026-04-26T14:28:35.017Z</time></trkpt><trkpt lat="45.8506098" lon="11.7665304"><ele>1239.0</ele><time>2026-04-26T14:28:36.005Z</time></trkpt><trkpt lat="45.8505495" lon="11.7666339"><ele>1239.0</ele><time>2026-04-26T14:28:37.005Z</time></trkpt><trkpt lat="45.8504948" lon="11.766736"><ele>1239.0</ele><time>2026-04-26T14:28:38.012Z</time></trkpt><trkpt lat="45.8504471" lon="11.7668235"><ele>1239.0</ele><time>2026-04-26T14:28:39.02Z</time></trkpt><trkpt lat="45.8504123" lon="11.7669066"><ele>1239.0</ele><time>2026-04-26T14:28:40.001Z</time></trkpt><trkpt lat="45.8504027" lon="11.7670217"><ele>1239.5</ele><time>2026-04-26T14:28:41.015Z</time></trkpt><trkpt lat="45.8503913" lon="11.767136"><ele>1240.0</ele><time>2026-04-26T14:28:42.004Z</time></trkpt><trkpt lat="45.8503899" lon="11.7672569"><ele>1240.5</ele><time>2026-04-26T14:28:43.006Z</time></trkpt><trkpt lat="45.8503944" lon="11.7673829"><ele>1241.0</ele><time>2026-04-26T14:28:44.006Z</time></trkpt><trkpt lat="45.8504057" lon="11.7675089"><ele>1241.5</ele><time>2026-04-26T14:28:45.022Z</time></trkpt><trkpt lat="45.8504433" lon="11.7676357"><ele>1242.0</ele><time>2026-04-26T14:28:46.016Z</time></trkpt><trkpt lat="45.8504839" lon="11.7677711"><ele>1239.5</ele><time>2026-04-26T14:28:47.019Z</time></trkpt><trkpt lat="45.8505348" lon="11.7679123"><ele>1237.0</ele><time>2026-04-26T14:28:48.01Z</time></trkpt><trkpt lat="45.8505795" lon="11.7680336"><ele>1234.5</ele><time>2026-04-26T14:28:49.025Z</time></trkpt><trkpt lat="45.8506145" lon="11.7681288"><ele>1232.0</ele><time>2026-04-26T14:28:50.021Z</time></trkpt><trkpt lat="45.8506575" lon="11.7682132"><ele>1229.5</ele><time>2026-04-26T14:28:51.005Z</time></trkpt><trkpt lat="45.8507105" lon="11.7682811"><ele>1227.0</ele><time>2026-04-26T14:28:52.017Z</time></trkpt><trkpt lat="45.850785" lon="11.7683623"><ele>1227.0</ele><time>2026-04-26T14:28:53.01Z</time></trkpt><trkpt lat="45.8508472" lon="11.7684421"><ele>1227.0</ele><time>2026-04-26T14:28:54.002Z</time></trkpt><trkpt lat="45.8508999" lon="11.7685054"><ele>1227.0</ele><time>2026-04-26T14:28:55.016Z</time></trkpt><trkpt lat="45.8509161" lon="11.7685928"><ele>1227.0</ele><time>2026-04-26T14:28:56.01Z</time></trkpt><trkpt lat="45.8508899" lon="11.7687312"><ele>1227.0</ele><time>2026-04-26T14:28:58.013Z</time></trkpt><trkpt lat="45.8508315" lon="11.7687968"><ele>1227.0</ele><time>2026-04-26T14:28:59.025Z</time></trkpt><trkpt lat="45.8507483" lon="11.7688469"><ele>1228.2</ele><time>2026-04-26T14:29:00.007Z</time></trkpt><trkpt lat="45.8506445" lon="11.7688955"><ele>1229.4</ele><time>2026-04-26T14:29:01.01Z</time></trkpt><trkpt lat="45.8505377" lon="11.7689459"><ele>1230.6</ele><time>2026-04-26T14:29:02.029Z</time></trkpt><trkpt lat="45.8504304" lon="11.7689974"><ele>1231.8</ele><time>2026-04-26T14:29:03.019Z</time></trkpt><trkpt lat="45.8503283" lon="11.7690494"><ele>1233.0</ele><time>2026-04-26T14:29:04.023Z</time></trkpt><trkpt lat="45.8502226" lon="11.7690993"><ele>1227.75</ele><time>2026-04-26T14:29:05.003Z</time></trkpt><trkpt lat="45.8501095" lon="11.7691382"><ele>1222.5</ele><time>2026-04-26T14:29:06.012Z</time></trkpt><trkpt lat="45.8499823" lon="11.769175"><ele>1217.25</ele><time>2026-04-26T14:29:07.013Z</time></trkpt><trkpt lat="45.8498622" lon="11.7692015"><ele>1212.0</ele><time>2026-04-26T14:29:08.018Z</time></trkpt><trkpt lat="45.8497494" lon="11.7692407"><ele>1212.0</ele><time>2026-04-26T14:29:09.024Z</time></trkpt><trkpt lat="45.8496416" lon="11.7692946"><ele>1212.0</ele><time>2026-04-26T14:29:10.008Z</time></trkpt><trkpt lat="45.84954" lon="11.7693596"><ele>1212.0</ele><time>2026-04-26T14:29:11.016Z</time></trkpt><trkpt lat="45.8494484" lon="11.7694174"><ele>1212.0</ele><time>2026-04-26T14:29:12.016Z</time></trkpt><trkpt lat="45.8493717" lon="11.7694837"><ele>1212.0</ele><time>2026-04-26T14:29:13.009Z</time></trkpt><trkpt lat="45.8493036" lon="11.7695515"><ele>1209.4</ele><time>2026-04-26T14:29:14.021Z</time></trkpt><trkpt lat="45.8492343" lon="11.769645"><ele>1206.8000000000002</ele><time>2026-04-26T14:29:15.02Z</time></trkpt><trkpt lat="45.849173" lon="11.7697584"><ele>1204.2</ele><time>2026-04-26T14:29:16.012Z</time></trkpt><trkpt lat="45.8491254" lon="11.7698876"><ele>1201.6000000000001</ele><time>2026-04-26T14:29:17.012Z</time></trkpt><trkpt lat="45.8490854" lon="11.7700392"><ele>1199.0</ele><time>2026-04-26T14:29:18.009Z</time></trkpt><trkpt lat="45.8490481" lon="11.7701755"><ele>1201.4</ele><time>2026-04-26T14:29:19.01Z</time></trkpt><trkpt lat="45.8489924" lon="11.7703001"><ele>1203.8000000000002</ele><time>2026-04-26T14:29:20.024Z</time></trkpt><trkpt lat="45.8489393" lon="11.7704301"><ele>1206.1999999999998</ele><time>2026-04-26T14:29:21.024Z</time></trkpt><trkpt lat="45.8488824" lon="11.7705642"><ele>1208.6</ele><time>2026-04-26T14:29:22.007Z</time></trkpt><trkpt lat="45.848867" lon="11.7707201"><ele>1211.0</ele><time>2026-04-26T14:29:23.02Z</time></trkpt><trkpt lat="45.8488555" lon="11.7708845"><ele>1209.5</ele><time>2026-04-26T14:29:24.002Z</time></trkpt><trkpt lat="45.8488515" lon="11.77107"><ele>1208.0</ele><time>2026-04-26T14:29:25.005Z</time></trkpt><trkpt lat="45.8488541" lon="11.7712426"><ele>1206.5</ele><time>2026-04-26T14:29:26.009Z</time></trkpt><trkpt lat="45.8488582" lon="11.7714235"><ele>1205.0</ele><time>2026-04-26T14:29:27.006Z</time></trkpt><trkpt lat="45.8488662" lon="11.7716164"><ele>1205.0</ele><time>2026-04-26T14:29:28.017Z</time></trkpt><trkpt lat="45.8488695" lon="11.7718125"><ele>1205.0</ele><time>2026-04-26T14:29:29.006Z</time></trkpt><trkpt lat="45.8488751" lon="11.7719825"><ele>1205.0</ele><time>2026-04-26T14:29:30.01Z</time></trkpt><trkpt lat="45.848877" lon="11.7721557"><ele>1205.0</ele><time>2026-04-26T14:29:31.006Z</time></trkpt><trkpt lat="45.8488815" lon="11.7723187"><ele>1204.1666666666667</ele><time>2026-04-26T14:29:32.009Z</time></trkpt><trkpt lat="45.848888" lon="11.7724479"><ele>1203.3333333333335</ele><time>2026-04-26T14:29:33.016Z</time></trkpt><trkpt lat="45.8488928" lon="11.7725665"><ele>1202.5</ele><time>2026-04-26T14:29:34.013Z</time></trkpt><trkpt lat="45.8488944" lon="11.7726748"><ele>1201.6666666666667</ele><time>2026-04-26T14:29:35Z</time></trkpt><trkpt lat="45.8489162" lon="11.7728023"><ele>1200.8333333333333</ele><time>2026-04-26T14:29:37.015Z</time></trkpt><trkpt lat="45.8489612" lon="11.7728961"><ele>1200.0</ele><time>2026-04-26T14:29:39.024Z</time></trkpt><trkpt lat="45.8489923" lon="11.7729874"><ele>1199.7142857142856</ele><time>2026-04-26T14:29:41.002Z</time></trkpt><trkpt lat="45.8490133" lon="11.7730935"><ele>1199.4285714285713</ele><time>2026-04-26T14:29:43.001Z</time></trkpt><trkpt lat="45.8490117" lon="11.7731858"><ele>1199.142857142857</ele><time>2026-04-26T14:29:45.013Z</time></trkpt><trkpt lat="45.8490161" lon="11.773282"><ele>1198.8571428571427</ele><time>2026-04-26T14:29:47Z</time></trkpt><trkpt lat="45.8490255" lon="11.7733718"><ele>1198.5714285714284</ele><time>2026-04-26T14:29:49.007Z</time></trkpt><trkpt lat="45.849037" lon="11.7735232"><ele>1198.2857142857142</ele><time>2026-04-26T14:29:52.015Z</time></trkpt><trkpt lat="45.8490381" lon="11.773618"><ele>1198.0</ele><time>2026-04-26T14:29:54.003Z</time></trkpt><trkpt lat="45.8490397" lon="11.773811"><ele>1197.4</ele><time>2026-04-26T14:30:01.01Z</time></trkpt><trkpt lat="45.8490676" lon="11.7739225"><ele>1196.8</ele><time>2026-04-26T14:30:02.017Z</time></trkpt><trkpt lat="45.8491047" lon="11.7740366"><ele>1196.2</ele><time>2026-04-26T14:30:03.003Z</time></trkpt><trkpt lat="45.84914" lon="11.7741615"><ele>1195.6</ele><time>2026-04-26T14:30:04.012Z</time></trkpt><trkpt lat="45.8491806" lon="11.7742909"><ele>1195.0</ele><time>2026-04-26T14:30:05.022Z</time></trkpt><trkpt lat="45.84924" lon="11.7744553"><ele>1201.2</ele><time>2026-04-26T14:30:06.016Z</time></trkpt><trkpt lat="45.8493019" lon="11.7745955"><ele>1207.4</ele><time>2026-04-26T14:30:07.013Z</time></trkpt><trkpt lat="45.849364" lon="11.774704"><ele>1213.6</ele><time>2026-04-26T14:30:08.006Z</time></trkpt><trkpt lat="45.8494347" lon="11.7747985"><ele>1219.8</ele><time>2026-04-26T14:30:09.015Z</time></trkpt><trkpt lat="45.849512" lon="11.7748904"><ele>1226.0</ele><time>2026-04-26T14:30:10.009Z</time></trkpt><trkpt lat="45.849583" lon="11.7749734"><ele>1226.0</ele><time>2026-04-26T14:30:11.015Z</time></trkpt><trkpt lat="45.8496504" lon="11.7750635"><ele>1226.0</ele><time>2026-04-26T14:30:12.016Z</time></trkpt><trkpt lat="45.8497256" lon="11.7751328"><ele>1226.0</ele><time>2026-04-26T14:30:13.02Z</time></trkpt><trkpt lat="45.8497958" lon="11.775198"><ele>1226.0</ele><time>2026-04-26T14:30:14.012Z</time></trkpt><trkpt lat="45.8498638" lon="11.7752675"><ele>1226.0</ele><time>2026-04-26T14:30:15.021Z</time></trkpt><trkpt lat="45.8499223" lon="11.7753441"><ele>1226.0</ele><time>2026-04-26T14:30:16.006Z</time></trkpt><trkpt lat="45.8499689" lon="11.7754324"><ele>1229.6</ele><time>2026-04-26T14:30:17.002Z</time></trkpt><trkpt lat="45.8500031" lon="11.7755499"><ele>1233.1999999999998</ele><time>2026-04-26T14:30:18.015Z</time></trkpt><trkpt lat="45.8500337" lon="11.7756835"><ele>1236.8000000000002</ele><time>2026-04-26T14:30:19.011Z</time></trkpt><trkpt lat="45.8500692" lon="11.775823"><ele>1240.4</ele><time>2026-04-26T14:30:20.007Z</time></trkpt><trkpt lat="45.8501155" lon="11.7759331"><ele>1244.0</ele><time>2026-04-26T14:30:21.011Z</time></trkpt><trkpt lat="45.8501638" lon="11.7760428"><ele>1244.0</ele><time>2026-04-26T14:30:22.009Z</time></trkpt><trkpt lat="45.8502316" lon="11.7761463"><ele>1244.0</ele><time>2026-04-26T14:30:23.005Z</time></trkpt><trkpt lat="45.8503143" lon="11.7762298"><ele>1244.0</ele><time>2026-04-26T14:30:24.009Z</time></trkpt><trkpt lat="45.8503823" lon="11.7763466"><ele>1244.0</ele><time>2026-04-26T14:30:25.011Z</time></trkpt><trkpt lat="45.8504322" lon="11.776466"><ele>1244.0</ele><time>2026-04-26T14:30:26.014Z</time></trkpt><trkpt lat="45.8504554" lon="11.7766003"><ele>1244.0</ele><time>2026-04-26T14:30:27.011Z</time></trkpt><trkpt lat="45.8504747" lon="11.7767518"><ele>1244.0</ele><time>2026-04-26T14:30:28.007Z</time></trkpt><trkpt lat="45.8505006" lon="11.7769012"><ele>1244.0</ele><time>2026-04-26T14:30:29.008Z</time></trkpt><trkpt lat="45.850542" lon="11.777047"><ele>1244.0</ele><time>2026-04-26T14:30:30.006Z</time></trkpt><trkpt lat="45.8505902" lon="11.7771822"><ele>1244.0</ele><time>2026-04-26T14:30:31.005Z</time></trkpt><trkpt lat="45.8506409" lon="11.7773091"><ele>1241.6000000000001</ele><time>2026-04-26T14:30:32.003Z</time></trkpt><trkpt lat="45.8507024" lon="11.7774559"><ele>1239.2</ele><time>2026-04-26T14:30:33.005Z</time></trkpt><trkpt lat="45.8507543" lon="11.7775529"><ele>1236.8000000000002</ele><time>2026-04-26T14:30:34.006Z</time></trkpt><trkpt lat="45.8508168" lon="11.7776271"><ele>1234.4</ele><time>2026-04-26T14:30:35.001Z</time></trkpt><trkpt lat="45.8508964" lon="11.7776989"><ele>1232.0</ele><time>2026-04-26T14:30:36.016Z</time></trkpt><trkpt lat="45.8509686" lon="11.7777644"><ele>1239.2</ele><time>2026-04-26T14:30:37.011Z</time></trkpt><trkpt lat="45.8510209" lon="11.777836"><ele>1246.4</ele><time>2026-04-26T14:30:38.004Z</time></trkpt><trkpt lat="45.8510464" lon="11.7779424"><ele>1253.6</ele><time>2026-04-26T14:30:39.004Z</time></trkpt><trkpt lat="45.851073" lon="11.7780581"><ele>1260.8</ele><time>2026-04-26T14:30:40.007Z</time></trkpt><trkpt lat="45.8510803" lon="11.7782108"><ele>1268.0</ele><time>2026-04-26T14:30:41.003Z</time></trkpt><trkpt lat="45.8510803" lon="11.7783678"><ele>1268.0</ele><time>2026-04-26T14:30:42.005Z</time></trkpt><trkpt lat="45.8511004" lon="11.7785072"><ele>1268.0</ele><time>2026-04-26T14:30:42.995Z</time></trkpt><trkpt lat="45.851153" lon="11.7786508"><ele>1268.0</ele><time>2026-04-26T14:30:44.022Z</time></trkpt><trkpt lat="45.8512009" lon="11.7787803"><ele>1268.0</ele><time>2026-04-26T14:30:45.015Z</time></trkpt><trkpt lat="45.8512731" lon="11.7788671"><ele>1268.0</ele><time>2026-04-26T14:30:46.005Z</time></trkpt><trkpt lat="45.851335" lon="11.7789727"><ele>1265.3333333333335</ele><time>2026-04-26T14:30:47.01Z</time></trkpt><trkpt lat="45.8514133" lon="11.779054"><ele>1262.6666666666667</ele><time>2026-04-26T14:30:48.01Z</time></trkpt><trkpt lat="45.8514878" lon="11.7791236"><ele>1260.0</ele><time>2026-04-26T14:30:49.007Z</time></trkpt><trkpt lat="45.8515486" lon="11.7791936"><ele>1257.3333333333333</ele><time>2026-04-26T14:30:50.011Z</time></trkpt><trkpt lat="45.8515908" lon="11.7792711"><ele>1254.6666666666665</ele><time>2026-04-26T14:30:51.016Z</time></trkpt><trkpt lat="45.8516153" lon="11.779378"><ele>1252.0</ele><time>2026-04-26T14:30:52.01Z</time></trkpt><trkpt lat="45.8516293" lon="11.7794873"><ele>1255.1666666666665</ele><time>2026-04-26T14:30:53.001Z</time></trkpt><trkpt lat="45.8516675" lon="11.779582"><ele>1258.3333333333333</ele><time>2026-04-26T14:30:54.014Z</time></trkpt><trkpt lat="45.8517225" lon="11.7796496"><ele>1261.5</ele><time>2026-04-26T14:30:55.016Z</time></trkpt><trkpt lat="45.8517914" lon="11.7797041"><ele>1264.6666666666667</ele><time>2026-04-26T14:30:56.011Z</time></trkpt><trkpt lat="45.8518826" lon="11.7797325"><ele>1267.8333333333335</ele><time>2026-04-26T14:30:57.01Z</time></trkpt><trkpt lat="45.8519733" lon="11.7797693"><ele>1271.0</ele><time>2026-04-26T14:30:57.999Z</time></trkpt><trkpt lat="45.852059" lon="11.779806"><ele>1271.0</ele><time>2026-04-26T14:30:59.006Z</time></trkpt><trkpt lat="45.8521351" lon="11.7798978"><ele>1271.0</ele><time>2026-04-26T14:31:00.008Z</time></trkpt><trkpt lat="45.8522018" lon="11.7800162"><ele>1271.0</ele><time>2026-04-26T14:31:01.015Z</time></trkpt><trkpt lat="45.8522551" lon="11.7801368"><ele>1271.0</ele><time>2026-04-26T14:31:02.011Z</time></trkpt><trkpt lat="45.8523089" lon="11.7802576"><ele>1271.0</ele><time>2026-04-26T14:31:03.006Z</time></trkpt><trkpt lat="45.8523807" lon="11.7803481"><ele>1273.6</ele><time>2026-04-26T14:31:04.006Z</time></trkpt><trkpt lat="45.8524472" lon="11.7804466"><ele>1276.1999999999998</ele><time>2026-04-26T14:31:05.011Z</time></trkpt><trkpt lat="45.8525152" lon="11.7805425"><ele>1278.8000000000002</ele><time>2026-04-26T14:31:06.017Z</time></trkpt><trkpt lat="45.8525657" lon="11.7806678"><ele>1281.4</ele><time>2026-04-26T14:31:07.008Z</time></trkpt><trkpt lat="45.852598" lon="11.7807757"><ele>1284.0</ele><time>2026-04-26T14:31:08.013Z</time></trkpt><trkpt lat="45.8526849" lon="11.7808957"><ele>1284.0</ele><time>2026-04-26T14:31:10.01Z</time></trkpt><trkpt lat="45.8527549" lon="11.7809422"><ele>1284.0</ele><time>2026-04-26T14:31:11.015Z</time></trkpt><trkpt lat="45.8528464" lon="11.7809928"><ele>1284.0</ele><time>2026-04-26T14:31:12.004Z</time></trkpt><trkpt lat="45.8529454" lon="11.7810474"><ele>1284.0</ele><time>2026-04-26T14:31:13.014Z</time></trkpt><trkpt lat="45.8530444" lon="11.7810783"><ele>1284.0</ele><time>2026-04-26T14:31:14.014Z</time></trkpt><trkpt lat="45.8531378" lon="11.7811096"><ele>1286.0</ele><time>2026-04-26T14:31:15.005Z</time></trkpt><trkpt lat="45.8532139" lon="11.7811395"><ele>1288.0</ele><time>2026-04-26T14:31:16.011Z</time></trkpt><trkpt lat="45.8532806" lon="11.7811839"><ele>1290.0</ele><time>2026-04-26T14:31:17.016Z</time></trkpt><trkpt lat="45.8533434" lon="11.7812863"><ele>1292.0</ele><time>2026-04-26T14:31:18.009Z</time></trkpt><trkpt lat="45.8534003" lon="11.7813929"><ele>1294.0</ele><time>2026-04-26T14:31:19.017Z</time></trkpt><trkpt lat="45.8534664" lon="11.7815178"><ele>1294.0</ele><time>2026-04-26T14:31:20.017Z</time></trkpt><trkpt lat="45.8535361" lon="11.781633"><ele>1294.0</ele><time>2026-04-26T14:31:21.007Z</time></trkpt><trkpt lat="45.8536071" lon="11.7817405"><ele>1294.0</ele><time>2026-04-26T14:31:22.002Z</time></trkpt><trkpt lat="45.8536807" lon="11.7818362"><ele>1294.0</ele><time>2026-04-26T14:31:23.008Z</time></trkpt><trkpt lat="45.853778" lon="11.7819039"><ele>1294.0</ele><time>2026-04-26T14:31:24.005Z</time></trkpt><trkpt lat="45.8538766" lon="11.7819734"><ele>1287.75</ele><time>2026-04-26T14:31:25.011Z</time></trkpt><trkpt lat="45.8539825" lon="11.7820388"><ele>1281.5</ele><time>2026-04-26T14:31:26.001Z</time></trkpt><trkpt lat="45.8540904" lon="11.782114"><ele>1275.25</ele><time>2026-04-26T14:31:27.012Z</time></trkpt><trkpt lat="45.8541922" lon="11.7822079"><ele>1269.0</ele><time>2026-04-26T14:31:28.017Z</time></trkpt><trkpt lat="45.8542856" lon="11.7822949"><ele>1271.4</ele><time>2026-04-26T14:31:29.005Z</time></trkpt><trkpt lat="45.8543629" lon="11.7824015"><ele>1273.8000000000002</ele><time>2026-04-26T14:31:30.007Z</time></trkpt><trkpt lat="45.8544402" lon="11.7825014"><ele>1276.1999999999998</ele><time>2026-04-26T14:31:31.01Z</time></trkpt><trkpt lat="45.8545313" lon="11.7825801"><ele>1278.6</ele><time>2026-04-26T14:31:32.013Z</time></trkpt><trkpt lat="45.8546195" lon="11.7826567"><ele>1281.0</ele><time>2026-04-26T14:31:33Z</time></trkpt><trkpt lat="45.8547007" lon="11.7827312"><ele>1281.0</ele><time>2026-04-26T14:31:34.013Z</time></trkpt><trkpt lat="45.8547606" lon="11.7828268"><ele>1281.0</ele><time>2026-04-26T14:31:35.001Z</time></trkpt><trkpt lat="45.8548201" lon="11.7829259"><ele>1281.0</ele><time>2026-04-26T14:31:36.003Z</time></trkpt><trkpt lat="45.8548748" lon="11.783077"><ele>1281.0</ele><time>2026-04-26T14:31:37.01Z</time></trkpt><trkpt lat="45.8549209" lon="11.7832195"><ele>1281.0</ele><time>2026-04-26T14:31:38.013Z</time></trkpt><trkpt lat="45.8549631" lon="11.7833549"><ele>1281.0</ele><time>2026-04-26T14:31:39.003Z</time></trkpt><trkpt lat="45.8549878" lon="11.7834887"><ele>1281.0</ele><time>2026-04-26T14:31:40.011Z</time></trkpt><trkpt lat="45.8550081" lon="11.7835928"><ele>1281.0</ele><time>2026-04-26T14:31:41.018Z</time></trkpt><trkpt lat="45.8550263" lon="11.7836913"><ele>1281.0</ele><time>2026-04-26T14:31:42.012Z</time></trkpt><trkpt lat="45.8550488" lon="11.7838446"><ele>1281.0</ele><time>2026-04-26T14:31:44.003Z</time></trkpt><trkpt lat="45.8550994" lon="11.7839216"><ele>1281.0</ele><time>2026-04-26T14:31:46.002Z</time></trkpt><trkpt lat="45.8551626" lon="11.7839037"><ele>1282.5</ele><time>2026-04-26T14:31:48Z</time></trkpt><trkpt lat="45.8551984" lon="11.7837677"><ele>1284.0</ele><time>2026-04-26T14:31:51.009Z</time></trkpt><trkpt lat="45.8552191" lon="11.7836026"><ele>1285.5</ele><time>2026-04-26T14:31:53.023Z</time></trkpt><trkpt lat="45.8552444" lon="11.7835036"><ele>1287.0</ele><time>2026-04-26T14:31:54.009Z</time></trkpt><trkpt lat="45.8552718" lon="11.7834049"><ele>1288.5</ele><time>2026-04-26T14:31:55.011Z</time></trkpt><trkpt lat="45.8553087" lon="11.7833033"><ele>1290.0</ele><time>2026-04-26T14:31:56.016Z</time></trkpt><trkpt lat="45.8553474" lon="11.7832205"><ele>1291.8333333333333</ele><time>2026-04-26T14:31:57.007Z</time></trkpt><trkpt lat="45.8554375" lon="11.7831275"><ele>1293.6666666666667</ele><time>2026-04-26T14:31:59.005Z</time></trkpt><trkpt lat="45.8555675" lon="11.7831286"><ele>1295.5</ele><time>2026-04-26T14:32:01.013Z</time></trkpt><trkpt lat="45.8556335" lon="11.7831535"><ele>1297.3333333333335</ele><time>2026-04-26T14:32:02.017Z</time></trkpt><trkpt lat="45.8556863" lon="11.7832031"><ele>1299.1666666666667</ele><time>2026-04-26T14:32:03.014Z</time></trkpt><trkpt lat="45.8557323" lon="11.7832688"><ele>1301.0</ele><time>2026-04-26T14:32:04.012Z</time></trkpt><trkpt lat="45.8557765" lon="11.783348"><ele>1301.0</ele><time>2026-04-26T14:32:05.039Z</time></trkpt><trkpt lat="45.8558136" lon="11.783437"><ele>1301.0</ele><time>2026-04-26T14:32:06.048Z</time></trkpt><trkpt lat="45.8558519" lon="11.7835319"><ele>1301.0</ele><time>2026-04-26T14:32:07.021Z</time></trkpt><trkpt lat="45.8559006" lon="11.7836326"><ele>1301.0</ele><time>2026-04-26T14:32:08.017Z</time></trkpt><trkpt lat="45.85595" lon="11.7837333"><ele>1301.0</ele><time>2026-04-26T14:32:09.02Z</time></trkpt><trkpt lat="45.8559939" lon="11.7838422"><ele>1301.0</ele><time>2026-04-26T14:32:10.016Z</time></trkpt><trkpt lat="45.8560385" lon="11.7839615"><ele>1302.0</ele><time>2026-04-26T14:32:11.036Z</time></trkpt><trkpt lat="45.8560925" lon="11.784095"><ele>1303.0</ele><time>2026-04-26T14:32:12.028Z</time></trkpt><trkpt lat="45.856152" lon="11.7842358"><ele>1304.0</ele><time>2026-04-26T14:32:13.036Z</time></trkpt><trkpt lat="45.856204" lon="11.7843617"><ele>1305.0</ele><time>2026-04-26T14:32:14.008Z</time></trkpt><trkpt lat="45.8562449" lon="11.7844617"><ele>1306.0</ele><time>2026-04-26T14:32:15.024Z</time></trkpt><trkpt lat="45.8562897" lon="11.7845362"><ele>1306.0</ele><time>2026-04-26T14:32:16.013Z</time></trkpt><trkpt lat="45.8563392" lon="11.7845941"><ele>1306.0</ele><time>2026-04-26T14:32:17.022Z</time></trkpt><trkpt lat="45.8564714" lon="11.7846275"><ele>1306.0</ele><time>2026-04-26T14:32:19.022Z</time></trkpt><trkpt lat="45.8565608" lon="11.784629"><ele>1306.0</ele><time>2026-04-26T14:32:20.034Z</time></trkpt><trkpt lat="45.8566595" lon="11.7846312"><ele>1306.0</ele><time>2026-04-26T14:32:21.036Z</time></trkpt><trkpt lat="45.8567496" lon="11.7846554"><ele>1311.6</ele><time>2026-04-26T14:32:22.013Z</time></trkpt><trkpt lat="45.8568342" lon="11.7846921"><ele>1317.1999999999998</ele><time>2026-04-26T14:32:23.001Z</time></trkpt><trkpt lat="45.8569159" lon="11.7847502"><ele>1322.8000000000002</ele><time>2026-04-26T14:32:24.014Z</time></trkpt><trkpt lat="45.8570121" lon="11.7848157"><ele>1328.4</ele><time>2026-04-26T14:32:25.02Z</time></trkpt><trkpt lat="45.8571127" lon="11.7848881"><ele>1334.0</ele><time>2026-04-26T14:32:26.025Z</time></trkpt><trkpt lat="45.8572078" lon="11.7849618"><ele>1334.0</ele><time>2026-04-26T14:32:27.017Z</time></trkpt><trkpt lat="45.8573016" lon="11.7850526"><ele>1334.0</ele><time>2026-04-26T14:32:28.018Z</time></trkpt><trkpt lat="45.857381" lon="11.7851364"><ele>1334.0</ele><time>2026-04-26T14:32:29.019Z</time></trkpt><trkpt lat="45.8574394" lon="11.7852073"><ele>1334.0</ele><time>2026-04-26T14:32:30.017Z</time></trkpt><trkpt lat="45.857494" lon="11.7852756"><ele>1334.0</ele><time>2026-04-26T14:32:31.03Z</time></trkpt><trkpt lat="45.8575237" lon="11.7853788"><ele>1334.0</ele><time>2026-04-26T14:32:32.008Z</time></trkpt><trkpt lat="45.8575328" lon="11.7854816"><ele>1333.5</ele><time>2026-04-26T14:32:33.006Z</time></trkpt><trkpt lat="45.8575241" lon="11.785584"><ele>1333.0</ele><time>2026-04-26T14:32:34.011Z</time></trkpt><trkpt lat="45.8574981" lon="11.7856816"><ele>1332.5</ele><time>2026-04-26T14:32:35.004Z</time></trkpt><trkpt lat="45.8574622" lon="11.7857849"><ele>1332.0</ele><time>2026-04-26T14:32:36.006Z</time></trkpt><trkpt lat="45.8573858" lon="11.7858805"><ele>1331.5</ele><time>2026-04-26T14:32:37.008Z</time></trkpt><trkpt lat="45.857312" lon="11.7859861"><ele>1331.0</ele><time>2026-04-26T14:32:38.009Z</time></trkpt><trkpt lat="45.8572547" lon="11.7860783"><ele>1332.1666666666667</ele><time>2026-04-26T14:32:39.023Z</time></trkpt><trkpt lat="45.8572164" lon="11.7861596"><ele>1333.3333333333335</ele><time>2026-04-26T14:32:40.006Z</time></trkpt><trkpt lat="45.8572093" lon="11.7862521"><ele>1334.5</ele><time>2026-04-26T14:32:41.014Z</time></trkpt><trkpt lat="45.8572399" lon="11.7864077"><ele>1335.6666666666667</ele><time>2026-04-26T14:32:43.008Z</time></trkpt><trkpt lat="45.8573318" lon="11.7865168"><ele>1336.8333333333333</ele><time>2026-04-26T14:32:45.016Z</time></trkpt><trkpt lat="45.8573898" lon="11.7865662"><ele>1338.0</ele><time>2026-04-26T14:32:46.006Z</time></trkpt><trkpt lat="45.8574329" lon="11.7866355"><ele>1338.0</ele><time>2026-04-26T14:32:47.015Z</time></trkpt><trkpt lat="45.857473" lon="11.7867961"><ele>1338.0</ele><time>2026-04-26T14:32:49.005Z</time></trkpt><trkpt lat="45.85745" lon="11.7869452"><ele>1338.0</ele><time>2026-04-26T14:32:51.011Z</time></trkpt><trkpt lat="45.8574335" lon="11.787052"><ele>1338.0</ele><time>2026-04-26T14:32:53.032Z</time></trkpt><trkpt lat="45.8574318" lon="11.7871547"><ele>1338.0</ele><time>2026-04-26T14:33:57.031Z</time></trkpt><trkpt lat="45.8574982" lon="11.7871902"><ele>1338.0</ele><time>2026-04-26T14:41:38.017Z</time></trkpt><trkpt lat="45.8575147" lon="11.7870701"><ele>1338.0</ele><time>2026-04-26T14:41:40.008Z</time></trkpt><trkpt lat="45.8575174" lon="11.786923"><ele>1338.0</ele><time>2026-04-26T14:41:42.017Z</time></trkpt><trkpt lat="45.8575222" lon="11.7867764"><ele>1338.0</ele><time>2026-04-26T14:41:44.014Z</time></trkpt><trkpt lat="45.8575184" lon="11.7865748"><ele>1338.0</ele><time>2026-04-26T14:41:47.003Z</time></trkpt><trkpt lat="45.8575154" lon="11.7864221"><ele>1338.0</ele><time>2026-04-26T14:41:49.009Z</time></trkpt><trkpt lat="45.8575272" lon="11.7862985"><ele>1338.0</ele><time>2026-04-26T14:41:51.004Z</time></trkpt><trkpt lat="45.8575796" lon="11.7862055"><ele>1338.0</ele><time>2026-04-26T14:41:53.016Z</time></trkpt><trkpt lat="45.8576476" lon="11.7861108"><ele>1338.0</ele><time>2026-04-26T14:41:55.02Z</time></trkpt><trkpt lat="45.8577368" lon="11.7859923"><ele>1338.0</ele><time>2026-04-26T14:41:57.007Z</time></trkpt><trkpt lat="45.8577868" lon="11.7859207"><ele>1343.5714285714287</ele><time>2026-04-26T14:41:58.018Z</time></trkpt><trkpt lat="45.8578306" lon="11.7858487"><ele>1349.142857142857</ele><time>2026-04-26T14:41:59.019Z</time></trkpt><trkpt lat="45.8578776" lon="11.7857699"><ele>1354.7142857142858</ele><time>2026-04-26T14:42:00.01Z</time></trkpt><trkpt lat="45.8579135" lon="11.7856764"><ele>1360.2857142857142</ele><time>2026-04-26T14:42:01.009Z</time></trkpt><trkpt lat="45.8579452" lon="11.7855742"><ele>1365.857142857143</ele><time>2026-04-26T14:42:02.018Z</time></trkpt><trkpt lat="45.8579758" lon="11.785473"><ele>1371.4285714285713</ele><time>2026-04-26T14:42:03.009Z</time></trkpt><trkpt lat="45.8580123" lon="11.7853721"><ele>1377.0</ele><time>2026-04-26T14:42:04.012Z</time></trkpt><trkpt lat="45.8580465" lon="11.7852614"><ele>1376.1666666666667</ele><time>2026-04-26T14:42:05.012Z</time></trkpt><trkpt lat="45.8580695" lon="11.7851401"><ele>1375.3333333333333</ele><time>2026-04-26T14:42:06.014Z</time></trkpt><trkpt lat="45.858092" lon="11.7850206"><ele>1374.5</ele><time>2026-04-26T14:42:07.02Z</time></trkpt><trkpt lat="45.8580885" lon="11.7848979"><ele>1373.6666666666665</ele><time>2026-04-26T14:42:08.011Z</time></trkpt><trkpt lat="45.8580776" lon="11.7847733"><ele>1372.8333333333333</ele><time>2026-04-26T14:42:09.022Z</time></trkpt><trkpt lat="45.8580593" lon="11.7846502"><ele>1372.0</ele><time>2026-04-26T14:42:10.013Z</time></trkpt><trkpt lat="45.8580185" lon="11.7845214"><ele>1372.0</ele><time>2026-04-26T14:42:11.017Z</time></trkpt><trkpt lat="45.8579677" lon="11.7843969"><ele>1372.0</ele><time>2026-04-26T14:42:12.007Z</time></trkpt><trkpt lat="45.8579208" lon="11.784274"><ele>1372.0</ele><time>2026-04-26T14:42:13.003Z</time></trkpt><trkpt lat="45.8578766" lon="11.7841608"><ele>1372.0</ele><time>2026-04-26T14:42:14.012Z</time></trkpt><trkpt lat="45.8578278" lon="11.7840391"><ele>1372.0</ele><time>2026-04-26T14:42:15.006Z</time></trkpt><trkpt lat="45.8577853" lon="11.7839287"><ele>1373.0</ele><time>2026-04-26T14:42:16.001Z</time></trkpt><trkpt lat="45.8577384" lon="11.7838144"><ele>1374.0</ele><time>2026-04-26T14:42:17.032Z</time></trkpt><trkpt lat="45.8576796" lon="11.7836968"><ele>1375.0</ele><time>2026-04-26T14:42:18.015Z</time></trkpt><trkpt lat="45.8576144" lon="11.7835872"><ele>1376.0</ele><time>2026-04-26T14:42:19.005Z</time></trkpt><trkpt lat="45.8575563" lon="11.7834736"><ele>1377.0</ele><time>2026-04-26T14:42:20.012Z</time></trkpt><trkpt lat="45.8575009" lon="11.7833503"><ele>1377.0</ele><time>2026-04-26T14:42:21.008Z</time></trkpt><trkpt lat="45.8574417" lon="11.7832363"><ele>1377.0</ele><time>2026-04-26T14:42:22.02Z</time></trkpt><trkpt lat="45.8573862" lon="11.7831309"><ele>1377.0</ele><time>2026-04-26T14:42:23.013Z</time></trkpt><trkpt lat="45.8573271" lon="11.7830367"><ele>1377.0</ele><time>2026-04-26T14:42:24.006Z</time></trkpt><trkpt lat="45.8572809" lon="11.7829441"><ele>1377.0</ele><time>2026-04-26T14:42:25.019Z</time></trkpt><trkpt lat="45.8572448" lon="11.7828667"><ele>1377.0</ele><time>2026-04-26T14:42:26.017Z</time></trkpt><trkpt lat="45.8572112" lon="11.7827875"><ele>1380.8333333333333</ele><time>2026-04-26T14:42:27.005Z</time></trkpt><trkpt lat="45.8571919" lon="11.7826254"><ele>1384.6666666666667</ele><time>2026-04-26T14:42:29.009Z</time></trkpt><trkpt lat="45.8571922" lon="11.7825279"><ele>1388.5</ele><time>2026-04-26T14:42:30.009Z</time></trkpt><trkpt lat="45.8571855" lon="11.7824245"><ele>1392.3333333333335</ele><time>2026-04-26T14:42:31.014Z</time></trkpt><trkpt lat="45.8571481" lon="11.7823141"><ele>1396.1666666666667</ele><time>2026-04-26T14:42:32.015Z</time></trkpt><trkpt lat="45.8571095" lon="11.7822101"><ele>1400.0</ele><time>2026-04-26T14:42:33.014Z</time></trkpt><trkpt lat="45.8570722" lon="11.782108"><ele>1400.0</ele><time>2026-04-26T14:42:34.009Z</time></trkpt><trkpt lat="45.8570373" lon="11.7820036"><ele>1400.0</ele><time>2026-04-26T14:42:35.011Z</time></trkpt><trkpt lat="45.8570072" lon="11.7819142"><ele>1400.0</ele><time>2026-04-26T14:42:36.011Z</time></trkpt><trkpt lat="45.8569381" lon="11.7817888"><ele>1400.0</ele><time>2026-04-26T14:42:38.012Z</time></trkpt><trkpt lat="45.8569086" lon="11.7817062"><ele>1400.0</ele><time>2026-04-26T14:42:40.029Z</time></trkpt><trkpt lat="45.8569664" lon="11.7816572"><ele>1400.0</ele><time>2026-04-26T14:42:44.011Z</time></trkpt><trkpt lat="45.8570228" lon="11.7817252"><ele>1400.0</ele><time>2026-04-26T14:42:46.017Z</time></trkpt><trkpt lat="45.8570928" lon="11.781884"><ele>1400.0</ele><time>2026-04-26T14:42:48.011Z</time></trkpt><trkpt lat="45.8571275" lon="11.7819888"><ele>1400.0</ele><time>2026-04-26T14:42:49.012Z</time></trkpt><trkpt lat="45.857186" lon="11.7820727"><ele>1400.0</ele><time>2026-04-26T14:42:50.023Z</time></trkpt><trkpt lat="45.8572456" lon="11.7821594"><ele>1400.0</ele><time>2026-04-26T14:42:51.012Z</time></trkpt><trkpt lat="45.8573174" lon="11.7822424"><ele>1400.0</ele><time>2026-04-26T14:42:52.008Z</time></trkpt><trkpt lat="45.857382" lon="11.7823298"><ele>1400.0</ele><time>2026-04-26T14:42:53.01Z</time></trkpt><trkpt lat="45.8574371" lon="11.7824161"><ele>1400.0</ele><time>2026-04-26T14:42:54.016Z</time></trkpt><trkpt lat="45.8574918" lon="11.7824999"><ele>1400.0</ele><time>2026-04-26T14:42:55.014Z</time></trkpt><trkpt lat="45.8575499" lon="11.7825601"><ele>1400.0</ele><time>2026-04-26T14:42:56.007Z</time></trkpt><trkpt lat="45.8576139" lon="11.7826057"><ele>1400.0</ele><time>2026-04-26T14:42:57.012Z</time></trkpt><trkpt lat="45.8576898" lon="11.7826409"><ele>1401.8333333333335</ele><time>2026-04-26T14:42:58.018Z</time></trkpt><trkpt lat="45.857771" lon="11.7826769"><ele>1403.6666666666667</ele><time>2026-04-26T14:42:59.01Z</time></trkpt><trkpt lat="45.8578485" lon="11.7827124"><ele>1405.5</ele><time>2026-04-26T14:43:00.007Z</time></trkpt><trkpt lat="45.8579235" lon="11.7827762"><ele>1407.3333333333333</ele><time>2026-04-26T14:43:01.015Z</time></trkpt><trkpt lat="45.8579835" lon="11.7828654"><ele>1409.1666666666665</ele><time>2026-04-26T14:43:02.008Z</time></trkpt><trkpt lat="45.8580519" lon="11.782968"><ele>1411.0</ele><time>2026-04-26T14:43:03.014Z</time></trkpt><trkpt lat="45.8581203" lon="11.7830743"><ele>1411.0</ele><time>2026-04-26T14:43:04.006Z</time></trkpt><trkpt lat="45.8581886" lon="11.7831803"><ele>1411.0</ele><time>2026-04-26T14:43:05.012Z</time></trkpt><trkpt lat="45.8582547" lon="11.7832816"><ele>1411.0</ele><time>2026-04-26T14:43:06.013Z</time></trkpt><trkpt lat="45.8583218" lon="11.7833851"><ele>1411.0</ele><time>2026-04-26T14:43:07.013Z</time></trkpt><trkpt lat="45.8583871" lon="11.7834912"><ele>1411.0</ele><time>2026-04-26T14:43:08.005Z</time></trkpt><trkpt lat="45.8584464" lon="11.7835833"><ele>1411.0</ele><time>2026-04-26T14:43:09.009Z</time></trkpt><trkpt lat="45.8584934" lon="11.7836635"><ele>1411.0</ele><time>2026-04-26T14:43:10.013Z</time></trkpt><trkpt lat="45.8585744" lon="11.7837791"><ele>1411.0</ele><time>2026-04-26T14:43:12.027Z</time></trkpt><trkpt lat="45.8586593" lon="11.7837736"><ele>1411.0</ele><time>2026-04-26T14:43:14.019Z</time></trkpt><trkpt lat="45.8587547" lon="11.7836791"><ele>1411.0</ele><time>2026-04-26T14:43:16.012Z</time></trkpt><trkpt lat="45.8588099" lon="11.7836026"><ele>1411.0</ele><time>2026-04-26T14:43:17.02Z</time></trkpt><trkpt lat="45.8588741" lon="11.7835156"><ele>1411.0</ele><time>2026-04-26T14:43:18.012Z</time></trkpt><trkpt lat="45.8589391" lon="11.783455"><ele>1411.0</ele><time>2026-04-26T14:43:19.006Z</time></trkpt><trkpt lat="45.8590049" lon="11.7833989"><ele>1411.0</ele><time>2026-04-26T14:43:20.02Z</time></trkpt><trkpt lat="45.859086" lon="11.7834043"><ele>1411.0</ele><time>2026-04-26T14:43:21.012Z</time></trkpt><trkpt lat="45.8591743" lon="11.7834399"><ele>1411.0</ele><time>2026-04-26T14:43:22.014Z</time></trkpt><trkpt lat="45.8592647" lon="11.7834875"><ele>1414.3333333333333</ele><time>2026-04-26T14:43:23.017Z</time></trkpt><trkpt lat="45.859349" lon="11.783554"><ele>1417.6666666666665</ele><time>2026-04-26T14:43:24.01Z</time></trkpt><trkpt lat="45.8594271" lon="11.7836152"><ele>1421.0</ele><time>2026-04-26T14:43:25.007Z</time></trkpt><trkpt lat="45.859481" lon="11.7837015"><ele>1424.3333333333333</ele><time>2026-04-26T14:43:26.017Z</time></trkpt><trkpt lat="45.8595239" lon="11.7838015"><ele>1427.6666666666667</ele><time>2026-04-26T14:43:27.014Z</time></trkpt><trkpt lat="45.8595623" lon="11.7838924"><ele>1431.0</ele><time>2026-04-26T14:43:28.005Z</time></trkpt><trkpt lat="45.8596188" lon="11.7839684"><ele>1431.0</ele><time>2026-04-26T14:43:29.014Z</time></trkpt><trkpt lat="45.8596837" lon="11.7840231"><ele>1431.0</ele><time>2026-04-26T14:43:30.009Z</time></trkpt><trkpt lat="45.8597584" lon="11.7840567"><ele>1431.0</ele><time>2026-04-26T14:43:31.002Z</time></trkpt><trkpt lat="45.8598424" lon="11.7840627"><ele>1431.0</ele><time>2026-04-26T14:43:32.021Z</time></trkpt><trkpt lat="45.8599351" lon="11.7840467"><ele>1431.0</ele><time>2026-04-26T14:43:33.006Z</time></trkpt><trkpt lat="45.86003" lon="11.7840326"><ele>1431.0</ele><time>2026-04-26T14:43:34.007Z</time></trkpt><trkpt lat="45.8601234" lon="11.7840292"><ele>1433.1666666666667</ele><time>2026-04-26T14:43:35.018Z</time></trkpt><trkpt lat="45.8602109" lon="11.7840472"><ele>1435.3333333333333</ele><time>2026-04-26T14:43:36.007Z</time></trkpt><trkpt lat="45.8602925" lon="11.7840859"><ele>1437.5</ele><time>2026-04-26T14:43:37.021Z</time></trkpt><trkpt lat="45.8603691" lon="11.7841408"><ele>1439.6666666666665</ele><time>2026-04-26T14:43:38.006Z</time></trkpt><trkpt lat="45.8604487" lon="11.7842112"><ele>1441.8333333333333</ele><time>2026-04-26T14:43:39.013Z</time></trkpt><trkpt lat="45.8605275" lon="11.7842861"><ele>1444.0</ele><time>2026-04-26T14:43:40.001Z</time></trkpt><trkpt lat="45.8605973" lon="11.7843525"><ele>1444.0</ele><time>2026-04-26T14:43:41.005Z</time></trkpt><trkpt lat="45.8606373" lon="11.7844348"><ele>1444.0</ele><time>2026-04-26T14:43:42.009Z</time></trkpt><trkpt lat="45.8606579" lon="11.7845454"><ele>1444.0</ele><time>2026-04-26T14:43:43.001Z</time></trkpt><trkpt lat="45.8606683" lon="11.7846629"><ele>1444.0</ele><time>2026-04-26T14:43:44.006Z</time></trkpt><trkpt lat="45.8606781" lon="11.7847735"><ele>1444.0</ele><time>2026-04-26T14:43:45.011Z</time></trkpt><trkpt lat="45.8606912" lon="11.7848668"><ele>1444.0</ele><time>2026-04-26T14:43:46.03Z</time></trkpt><trkpt lat="45.8607664" lon="11.785006"><ele>1444.0</ele><time>2026-04-26T14:43:48.011Z</time></trkpt><trkpt lat="45.8608307" lon="11.7850561"><ele>1444.0</ele><time>2026-04-26T14:43:49.01Z</time></trkpt><trkpt lat="45.8609017" lon="11.7850956"><ele>1444.0</ele><time>2026-04-26T14:43:50.014Z</time></trkpt><trkpt lat="45.8609783" lon="11.7851417"><ele>1444.0</ele><time>2026-04-26T14:43:51.006Z</time></trkpt><trkpt lat="45.8610572" lon="11.7852025"><ele>1444.0</ele><time>2026-04-26T14:43:52.019Z</time></trkpt><trkpt lat="45.8611362" lon="11.7852771"><ele>1444.0</ele><time>2026-04-26T14:43:53.012Z</time></trkpt><trkpt lat="45.8612015" lon="11.7853715"><ele>1445.6</ele><time>2026-04-26T14:43:54.014Z</time></trkpt><trkpt lat="45.861265" lon="11.7854729"><ele>1447.2</ele><time>2026-04-26T14:43:55.019Z</time></trkpt><trkpt lat="45.8613211" lon="11.7855717"><ele>1448.8</ele><time>2026-04-26T14:43:56.011Z</time></trkpt><trkpt lat="45.8613832" lon="11.785669"><ele>1450.3999999999999</ele><time>2026-04-26T14:43:57.017Z</time></trkpt><trkpt lat="45.8614409" lon="11.7857705"><ele>1452.0</ele><time>2026-04-26T14:43:58.005Z</time></trkpt><trkpt lat="45.86149" lon="11.7858808"><ele>1452.0</ele><time>2026-04-26T14:43:59.01Z</time></trkpt><trkpt lat="45.8615417" lon="11.7859941"><ele>1452.0</ele><time>2026-04-26T14:44:00.005Z</time></trkpt><trkpt lat="45.8615995" lon="11.7861058"><ele>1452.0</ele><time>2026-04-26T14:44:01.025Z</time></trkpt><trkpt lat="45.8616616" lon="11.7862206"><ele>1452.0</ele><time>2026-04-26T14:44:02.011Z</time></trkpt><trkpt lat="45.8617242" lon="11.7863405"><ele>1452.0</ele><time>2026-04-26T14:44:03.007Z</time></trkpt><trkpt lat="45.8617884" lon="11.7864563"><ele>1454.6666666666667</ele><time>2026-04-26T14:44:04.013Z</time></trkpt><trkpt lat="45.8618435" lon="11.7865558"><ele>1457.3333333333333</ele><time>2026-04-26T14:44:05.019Z</time></trkpt><trkpt lat="45.8618927" lon="11.786641"><ele>1460.0</ele><time>2026-04-26T14:44:05.999Z</time></trkpt><trkpt lat="45.8619372" lon="11.786715"><ele>1462.6666666666665</ele><time>2026-04-26T14:44:07.006Z</time></trkpt><trkpt lat="45.8620479" lon="11.786755"><ele>1465.3333333333333</ele><time>2026-04-26T14:44:09.01Z</time></trkpt><trkpt lat="45.8621033" lon="11.7867032"><ele>1468.0</ele><time>2026-04-26T14:44:10.007Z</time></trkpt><trkpt lat="45.8621457" lon="11.7866236"><ele>1468.0</ele><time>2026-04-26T14:44:11.015Z</time></trkpt><trkpt lat="45.8621824" lon="11.7865193"><ele>1468.0</ele><time>2026-04-26T14:44:12.011Z</time></trkpt><trkpt lat="45.862213" lon="11.7864071"><ele>1468.0</ele><time>2026-04-26T14:44:13.009Z</time></trkpt><trkpt lat="45.8622455" lon="11.7863063"><ele>1468.0</ele><time>2026-04-26T14:44:14.022Z</time></trkpt><trkpt lat="45.8622789" lon="11.7862122"><ele>1468.0</ele><time>2026-04-26T14:44:15.012Z</time></trkpt><trkpt lat="45.86239" lon="11.7861264"><ele>1468.0</ele><time>2026-04-26T14:44:17.005Z</time></trkpt><trkpt lat="45.8624663" lon="11.7861148"><ele>1468.0</ele><time>2026-04-26T14:44:18.009Z</time></trkpt><trkpt lat="45.8625521" lon="11.7860986"><ele>1468.0</ele><time>2026-04-26T14:44:19.018Z</time></trkpt><trkpt lat="45.8626463" lon="11.7860772"><ele>1468.0</ele><time>2026-04-26T14:44:20.015Z</time></trkpt><trkpt lat="45.8627349" lon="11.7860579"><ele>1468.0</ele><time>2026-04-26T14:44:21.009Z</time></trkpt><trkpt lat="45.8628097" lon="11.7860428"><ele>1468.0</ele><time>2026-04-26T14:44:22.003Z</time></trkpt><trkpt lat="45.8628983" lon="11.7860808"><ele>1468.0</ele><time>2026-04-26T14:44:24.008Z</time></trkpt><trkpt lat="45.8629715" lon="11.7862124"><ele>1467.5</ele><time>2026-04-26T14:44:26.007Z</time></trkpt><trkpt lat="45.8629773" lon="11.7863255"><ele>1467.0</ele><time>2026-04-26T14:44:27.018Z</time></trkpt><trkpt lat="45.8629904" lon="11.7864413"><ele>1466.5</ele><time>2026-04-26T14:44:28.013Z</time></trkpt><trkpt lat="45.8630193" lon="11.7865464"><ele>1466.0</ele><time>2026-04-26T14:44:29.024Z</time></trkpt><trkpt lat="45.863054" lon="11.786648"><ele>1465.5</ele><time>2026-04-26T14:44:30.012Z</time></trkpt><trkpt lat="45.863116" lon="11.7866926"><ele>1465.0</ele><time>2026-04-26T14:44:31.01Z</time></trkpt><trkpt lat="45.8631925" lon="11.7867098"><ele>1465.0</ele><time>2026-04-26T14:44:32.019Z</time></trkpt><trkpt lat="45.8632813" lon="11.7867019"><ele>1465.0</ele><time>2026-04-26T14:44:33.008Z</time></trkpt><trkpt lat="45.8633765" lon="11.786677"><ele>1465.0</ele><time>2026-04-26T14:44:34.004Z</time></trkpt><trkpt lat="45.8634638" lon="11.7866533"><ele>1465.0</ele><time>2026-04-26T14:44:35.014Z</time></trkpt><trkpt lat="45.8635481" lon="11.7866342"><ele>1465.0</ele><time>2026-04-26T14:44:36.019Z</time></trkpt><trkpt lat="45.8636284" lon="11.7866373"><ele>1465.0</ele><time>2026-04-26T14:44:37.004Z</time></trkpt><trkpt lat="45.8637035" lon="11.7866664"><ele>1466.2</ele><time>2026-04-26T14:44:38.005Z</time></trkpt><trkpt lat="45.863779" lon="11.7867257"><ele>1467.4</ele><time>2026-04-26T14:44:39.012Z</time></trkpt><trkpt lat="45.8638526" lon="11.786814"><ele>1468.6</ele><time>2026-04-26T14:44:40.005Z</time></trkpt><trkpt lat="45.8639238" lon="11.7869162"><ele>1469.8</ele><time>2026-04-26T14:44:41.01Z</time></trkpt><trkpt lat="45.8639956" lon="11.7870061"><ele>1471.0</ele><time>2026-04-26T14:44:42.005Z</time></trkpt><trkpt lat="45.8640754" lon="11.7870755"><ele>1471.0</ele><time>2026-04-26T14:44:43.016Z</time></trkpt><trkpt lat="45.8641583" lon="11.7871439"><ele>1471.0</ele><time>2026-04-26T14:44:44.007Z</time></trkpt><trkpt lat="45.864266" lon="11.7871585"><ele>1471.0</ele><time>2026-04-26T14:44:45.011Z</time></trkpt><trkpt lat="45.8643744" lon="11.7871462"><ele>1471.0</ele><time>2026-04-26T14:44:46.012Z</time></trkpt><trkpt lat="45.8644795" lon="11.7871142"><ele>1471.0</ele><time>2026-04-26T14:44:47.009Z</time></trkpt><trkpt lat="45.8645799" lon="11.7870731"><ele>1469.4</ele><time>2026-04-26T14:44:48.006Z</time></trkpt><trkpt lat="45.8646741" lon="11.7870368"><ele>1467.8</ele><time>2026-04-26T14:44:49.017Z</time></trkpt><trkpt lat="45.8647596" lon="11.787024"><ele>1466.2</ele><time>2026-04-26T14:44:50.01Z</time></trkpt><trkpt lat="45.8648471" lon="11.7870126"><ele>1464.6000000000001</ele><time>2026-04-26T14:44:51.003Z</time></trkpt><trkpt lat="45.8649497" lon="11.7870423"><ele>1463.0</ele><time>2026-04-26T14:44:52.014Z</time></trkpt><trkpt lat="45.8650589" lon="11.7871001"><ele>1461.0</ele><time>2026-04-26T14:44:53.024Z</time></trkpt><trkpt lat="45.8651622" lon="11.7871538"><ele>1459.0</ele><time>2026-04-26T14:44:54.019Z</time></trkpt><trkpt lat="45.8652565" lon="11.7872065"><ele>1457.0</ele><time>2026-04-26T14:44:55.016Z</time></trkpt><trkpt lat="45.8653288" lon="11.7872792"><ele>1455.0</ele><time>2026-04-26T14:44:56.023Z</time></trkpt><trkpt lat="45.8654049" lon="11.7873571"><ele>1453.0</ele><time>2026-04-26T14:44:57.016Z</time></trkpt><trkpt lat="45.8654772" lon="11.7874794"><ele>1453.0</ele><time>2026-04-26T14:44:58.008Z</time></trkpt><trkpt lat="45.8655676" lon="11.7875979"><ele>1453.0</ele><time>2026-04-26T14:44:59.017Z</time></trkpt><trkpt lat="45.8656561" lon="11.7877064"><ele>1453.0</ele><time>2026-04-26T14:45:00.013Z</time></trkpt><trkpt lat="45.8657306" lon="11.7877954"><ele>1453.0</ele><time>2026-04-26T14:45:01.007Z</time></trkpt><trkpt lat="45.8657973" lon="11.7878605"><ele>1453.0</ele><time>2026-04-26T14:45:02.005Z</time></trkpt><trkpt lat="45.8658684" lon="11.7878899"><ele>1456.1666666666665</ele><time>2026-04-26T14:45:03.014Z</time></trkpt><trkpt lat="45.8659467" lon="11.7879183"><ele>1459.3333333333333</ele><time>2026-04-26T14:45:04.011Z</time></trkpt><trkpt lat="45.866036" lon="11.7878818"><ele>1462.5</ele><time>2026-04-26T14:45:05.016Z</time></trkpt><trkpt lat="45.8661055" lon="11.7878261"><ele>1465.6666666666667</ele><time>2026-04-26T14:45:06.009Z</time></trkpt><trkpt lat="45.8661613" lon="11.7877455"><ele>1468.8333333333335</ele><time>2026-04-26T14:45:07.001Z</time></trkpt><trkpt lat="45.8662031" lon="11.7876349"><ele>1472.0</ele><time>2026-04-26T14:45:08.013Z</time></trkpt><trkpt lat="45.8662223" lon="11.7875074"><ele>1472.0</ele><time>2026-04-26T14:45:09.015Z</time></trkpt><trkpt lat="45.8662178" lon="11.7873632"><ele>1472.0</ele><time>2026-04-26T14:45:10.003Z</time></trkpt><trkpt lat="45.8662034" lon="11.7872192"><ele>1472.0</ele><time>2026-04-26T14:45:11.004Z</time></trkpt><trkpt lat="45.8661921" lon="11.7870842"><ele>1472.0</ele><time>2026-04-26T14:45:12.003Z</time></trkpt><trkpt lat="45.8661841" lon="11.7869575"><ele>1472.0</ele><time>2026-04-26T14:45:13.02Z</time></trkpt><trkpt lat="45.8662045" lon="11.7868443"><ele>1472.1666666666667</ele><time>2026-04-26T14:45:14.011Z</time></trkpt><trkpt lat="45.8662406" lon="11.786728"><ele>1472.3333333333335</ele><time>2026-04-26T14:45:15.01Z</time></trkpt><trkpt lat="45.8662827" lon="11.7866094"><ele>1472.5</ele><time>2026-04-26T14:45:16.034Z</time></trkpt><trkpt lat="45.8663313" lon="11.7865151"><ele>1472.6666666666667</ele><time>2026-04-26T14:45:17.024Z</time></trkpt><trkpt lat="45.8663911" lon="11.7864265"><ele>1472.8333333333333</ele><time>2026-04-26T14:45:18.014Z</time></trkpt><trkpt lat="45.8664595" lon="11.7863418"><ele>1473.0</ele><time>2026-04-26T14:45:19.016Z</time></trkpt><trkpt lat="45.8665307" lon="11.7862474"><ele>1473.0</ele><time>2026-04-26T14:45:20.033Z</time></trkpt><trkpt lat="45.8665988" lon="11.7861405"><ele>1473.0</ele><time>2026-04-26T14:45:21.004Z</time></trkpt><trkpt lat="45.8666638" lon="11.786027"><ele>1473.0</ele><time>2026-04-26T14:45:22.021Z</time></trkpt><trkpt lat="45.8667326" lon="11.7859193"><ele>1473.0</ele><time>2026-04-26T14:45:23.017Z</time></trkpt><trkpt lat="45.8668124" lon="11.7858237"><ele>1473.0</ele><time>2026-04-26T14:45:24.011Z</time></trkpt><trkpt lat="45.8668927" lon="11.7857295"><ele>1477.4</ele><time>2026-04-26T14:45:25.012Z</time></trkpt><trkpt lat="45.8669843" lon="11.7856501"><ele>1481.8000000000002</ele><time>2026-04-26T14:45:26.02Z</time></trkpt><trkpt lat="45.8670755" lon="11.7855711"><ele>1486.2</ele><time>2026-04-26T14:45:27.002Z</time></trkpt><trkpt lat="45.8671529" lon="11.7855036"><ele>1490.6</ele><time>2026-04-26T14:45:28.018Z</time></trkpt><trkpt lat="45.8672182" lon="11.7854213"><ele>1495.0</ele><time>2026-04-26T14:45:29.015Z</time></trkpt><trkpt lat="45.8672676" lon="11.785313"><ele>1495.0</ele><time>2026-04-26T14:45:30.01Z</time></trkpt><trkpt lat="45.8673218" lon="11.7851914"><ele>1495.0</ele><time>2026-04-26T14:45:31.016Z</time></trkpt><trkpt lat="45.867349" lon="11.7850467"><ele>1495.0</ele><time>2026-04-26T14:45:32.016Z</time></trkpt><trkpt lat="45.8673749" lon="11.7849059"><ele>1495.0</ele><time>2026-04-26T14:45:33.014Z</time></trkpt><trkpt lat="45.867383" lon="11.7847706"><ele>1495.0</ele><time>2026-04-26T14:45:34.007Z</time></trkpt><trkpt lat="45.8673798" lon="11.7846472"><ele>1493.3333333333333</ele><time>2026-04-26T14:45:35.018Z</time></trkpt><trkpt lat="45.8673783" lon="11.7845389"><ele>1491.6666666666665</ele><time>2026-04-26T14:45:36.018Z</time></trkpt><trkpt lat="45.8673945" lon="11.7844002"><ele>1490.0</ele><time>2026-04-26T14:45:38.011Z</time></trkpt><trkpt lat="45.8674392" lon="11.7843296"><ele>1488.3333333333333</ele><time>2026-04-26T14:45:40.023Z</time></trkpt><trkpt lat="45.8675111" lon="11.7844061"><ele>1486.6666666666667</ele><time>2026-04-26T14:48:10.021Z</time></trkpt><trkpt lat="45.8675189" lon="11.784554"><ele>1485.0</ele><time>2026-04-26T14:48:12.007Z</time></trkpt><trkpt lat="45.8675173" lon="11.7846515"><ele>1485.0</ele><time>2026-04-26T14:48:13.007Z</time></trkpt><trkpt lat="45.867521" lon="11.7847639"><ele>1485.0</ele><time>2026-04-26T14:48:14.018Z</time></trkpt><trkpt lat="45.8675273" lon="11.7848812"><ele>1485.0</ele><time>2026-04-26T14:48:15.009Z</time></trkpt><trkpt lat="45.8675317" lon="11.7849927"><ele>1485.0</ele><time>2026-04-26T14:48:16.01Z</time></trkpt><trkpt lat="45.8675331" lon="11.7850905"><ele>1485.0</ele><time>2026-04-26T14:48:17.016Z</time></trkpt><trkpt lat="45.8675339" lon="11.7851913"><ele>1485.0</ele><time>2026-04-26T14:48:18.024Z</time></trkpt><trkpt lat="45.8675336" lon="11.7853016"><ele>1487.0</ele><time>2026-04-26T14:48:19.013Z</time></trkpt><trkpt lat="45.8675272" lon="11.7854217"><ele>1489.0</ele><time>2026-04-26T14:48:20.034Z</time></trkpt><trkpt lat="45.8675059" lon="11.7855477"><ele>1491.0</ele><time>2026-04-26T14:48:21.011Z</time></trkpt><trkpt lat="45.8674839" lon="11.7856766"><ele>1493.0</ele><time>2026-04-26T14:48:22.013Z</time></trkpt><trkpt lat="45.8674201" lon="11.7857896"><ele>1495.0</ele><time>2026-04-26T14:48:23.014Z</time></trkpt><trkpt lat="45.8673514" lon="11.7859045"><ele>1496.4</ele><time>2026-04-26T14:48:24.022Z</time></trkpt><trkpt lat="45.8672891" lon="11.7860347"><ele>1497.8</ele><time>2026-04-26T14:48:25.016Z</time></trkpt><trkpt lat="45.8672374" lon="11.7861798"><ele>1499.1999999999998</ele><time>2026-04-26T14:48:26.015Z</time></trkpt><trkpt lat="45.8671872" lon="11.7863214"><ele>1500.6</ele><time>2026-04-26T14:48:27.027Z</time></trkpt><trkpt lat="45.867179" lon="11.7864852"><ele>1502.0</ele><time>2026-04-26T14:48:28.019Z</time></trkpt><trkpt lat="45.8671903" lon="11.7866462"><ele>1502.0</ele><time>2026-04-26T14:48:29.021Z</time></trkpt><trkpt lat="45.867214" lon="11.7868101"><ele>1502.0</ele><time>2026-04-26T14:48:30.023Z</time></trkpt><trkpt lat="45.8672494" lon="11.7869605"><ele>1502.0</ele><time>2026-04-26T14:48:31.018Z</time></trkpt><trkpt lat="45.8673057" lon="11.7870932"><ele>1502.0</ele><time>2026-04-26T14:48:32.009Z</time></trkpt><trkpt lat="45.8673866" lon="11.7872038"><ele>1502.0</ele><time>2026-04-26T14:48:33.011Z</time></trkpt><trkpt lat="45.8674922" lon="11.7872795"><ele>1502.5</ele><time>2026-04-26T14:48:34.011Z</time></trkpt><trkpt lat="45.867618" lon="11.7873171"><ele>1503.0</ele><time>2026-04-26T14:48:35.004Z</time></trkpt><trkpt lat="45.8677558" lon="11.7873369"><ele>1503.5</ele><time>2026-04-26T14:48:36.013Z</time></trkpt><trkpt lat="45.8679068" lon="11.7873543"><ele>1504.0</ele><time>2026-04-26T14:48:37.012Z</time></trkpt><trkpt lat="45.8680706" lon="11.7873693"><ele>1504.0</ele><time>2026-04-26T14:48:38.006Z</time></trkpt><trkpt lat="45.868221" lon="11.7873814"><ele>1504.0</ele><time>2026-04-26T14:48:39.027Z</time></trkpt><trkpt lat="45.8683549" lon="11.7874022"><ele>1504.0</ele><time>2026-04-26T14:48:40.015Z</time></trkpt><trkpt lat="45.8684779" lon="11.7874635"><ele>1504.0</ele><time>2026-04-26T14:48:41.01Z</time></trkpt><trkpt lat="45.8685874" lon="11.7875766"><ele>1509.25</ele><time>2026-04-26T14:48:42.016Z</time></trkpt><trkpt lat="45.8686901" lon="11.7876989"><ele>1514.5</ele><time>2026-04-26T14:48:43.021Z</time></trkpt><trkpt lat="45.8687919" lon="11.7878351"><ele>1519.75</ele><time>2026-04-26T14:48:44.034Z</time></trkpt><trkpt lat="45.8688847" lon="11.7879774"><ele>1525.0</ele><time>2026-04-26T14:48:45.023Z</time></trkpt><trkpt lat="45.8689672" lon="11.7881013"><ele>1525.0</ele><time>2026-04-26T14:48:46.018Z</time></trkpt><trkpt lat="45.8690282" lon="11.7882146"><ele>1525.0</ele><time>2026-04-26T14:48:47.011Z</time></trkpt><trkpt lat="45.8690568" lon="11.7883419"><ele>1525.0</ele><time>2026-04-26T14:48:48.02Z</time></trkpt><trkpt lat="45.8690494" lon="11.7884733"><ele>1525.0</ele><time>2026-04-26T14:48:49.013Z</time></trkpt><trkpt lat="45.8690314" lon="11.7886041"><ele>1525.0</ele><time>2026-04-26T14:48:50.004Z</time></trkpt><trkpt lat="45.8689539" lon="11.7886724"><ele>1526.6</ele><time>2026-04-26T14:48:51.014Z</time></trkpt><trkpt lat="45.868863" lon="11.7886978"><ele>1528.2</ele><time>2026-04-26T14:48:52.014Z</time></trkpt><trkpt lat="45.8687564" lon="11.7886873"><ele>1529.8000000000002</ele><time>2026-04-26T14:48:53.007Z</time></trkpt><trkpt lat="45.8686522" lon="11.7886884"><ele>1531.4</ele><time>2026-04-26T14:48:54.014Z</time></trkpt><trkpt lat="45.868563" lon="11.7887148"><ele>1533.0</ele><time>2026-04-26T14:48:55.02Z</time></trkpt><trkpt lat="45.8685017" lon="11.7887732"><ele>1533.0</ele><time>2026-04-26T14:48:56.01Z</time></trkpt><trkpt lat="45.8684777" lon="11.7888669"><ele>1533.0</ele><time>2026-04-26T14:48:57.04Z</time></trkpt><trkpt lat="45.8685395" lon="11.7890073"><ele>1533.0</ele><time>2026-04-26T14:48:59.012Z</time></trkpt><trkpt lat="45.8686251" lon="11.7890027"><ele>1533.0</ele><time>2026-04-26T14:49:00.024Z</time></trkpt><trkpt lat="45.8687382" lon="11.7889929"><ele>1533.0</ele><time>2026-04-26T14:49:01.014Z</time></trkpt><trkpt lat="45.8688571" lon="11.7889656"><ele>1533.0</ele><time>2026-04-26T14:49:02.01Z</time></trkpt><trkpt lat="45.8689924" lon="11.7889663"><ele>1533.0</ele><time>2026-04-26T14:49:03.018Z</time></trkpt><trkpt lat="45.8691123" lon="11.7889492"><ele>1533.0</ele><time>2026-04-26T14:49:04.008Z</time></trkpt><trkpt lat="45.8692078" lon="11.7888955"><ele>1533.0</ele><time>2026-04-26T14:49:05.018Z</time></trkpt><trkpt lat="45.8692783" lon="11.7887877"><ele>1541.75</ele><time>2026-04-26T14:49:06.012Z</time></trkpt><trkpt lat="45.8693215" lon="11.7886241"><ele>1550.5</ele><time>2026-04-26T14:49:07.009Z</time></trkpt><trkpt lat="45.8693449" lon="11.7884131"><ele>1559.25</ele><time>2026-04-26T14:49:08.013Z</time></trkpt><trkpt lat="45.8693566" lon="11.7881739"><ele>1568.0</ele><time>2026-04-26T14:49:09.013Z</time></trkpt><trkpt lat="45.8693734" lon="11.7879422"><ele>1568.0</ele><time>2026-04-26T14:49:10.016Z</time></trkpt><trkpt lat="45.8693927" lon="11.7877492"><ele>1568.0</ele><time>2026-04-26T14:49:11.014Z</time></trkpt><trkpt lat="45.8694374" lon="11.7875804"><ele>1568.0</ele><time>2026-04-26T14:49:12.017Z</time></trkpt><trkpt lat="45.869484" lon="11.7874315"><ele>1568.0</ele><time>2026-04-26T14:49:13.007Z</time></trkpt><trkpt lat="45.8695162" lon="11.7872828"><ele>1566.5</ele><time>2026-04-26T14:49:14.013Z</time></trkpt><trkpt lat="45.8695128" lon="11.7871143"><ele>1565.0</ele><time>2026-04-26T14:49:15.02Z</time></trkpt><trkpt lat="45.8694788" lon="11.7869307"><ele>1563.5</ele><time>2026-04-26T14:49:16.002Z</time></trkpt><trkpt lat="45.8694451" lon="11.7867274"><ele>1562.0</ele><time>2026-04-26T14:49:17.006Z</time></trkpt><trkpt lat="45.8694098" lon="11.7865243"><ele>1561.6666666666665</ele><time>2026-04-26T14:49:18.012Z</time></trkpt><trkpt lat="45.8693783" lon="11.7863527"><ele>1561.3333333333333</ele><time>2026-04-26T14:49:19.01Z</time></trkpt><trkpt lat="45.8693445" lon="11.7862168"><ele>1561.0</ele><time>2026-04-26T14:49:20.014Z</time></trkpt><trkpt lat="45.8693183" lon="11.7861039"><ele>1560.6666666666665</ele><time>2026-04-26T14:49:21.021Z</time></trkpt><trkpt lat="45.8693197" lon="11.7860022"><ele>1560.3333333333333</ele><time>2026-04-26T14:49:22.015Z</time></trkpt><trkpt lat="45.8693337" lon="11.7859034"><ele>1560.0</ele><time>2026-04-26T14:49:23.045Z</time></trkpt><trkpt lat="45.8694269" lon="11.785903"><ele>1560.0</ele><time>2026-04-26T14:49:25.01Z</time></trkpt><trkpt lat="45.8695185" lon="11.7859879"><ele>1560.0</ele><time>2026-04-26T14:49:26.018Z</time></trkpt><trkpt lat="45.8695245" lon="11.786171"><ele>1560.0</ele><time>2026-04-26T14:49:27.015Z</time></trkpt><trkpt lat="45.8695271" lon="11.78638"><ele>1560.0</ele><time>2026-04-26T14:49:28.01Z</time></trkpt><trkpt lat="45.8695874" lon="11.7865907"><ele>1560.0</ele><time>2026-04-26T14:49:29.012Z</time></trkpt><trkpt lat="45.8696593" lon="11.7868027"><ele>1560.0</ele><time>2026-04-26T14:49:30.017Z</time></trkpt><trkpt lat="45.8697599" lon="11.7870036"><ele>1560.0</ele><time>2026-04-26T14:49:31.008Z</time></trkpt><trkpt lat="45.8698314" lon="11.7872177"><ele>1560.6666666666665</ele><time>2026-04-26T14:49:32.009Z</time></trkpt><trkpt lat="45.8698781" lon="11.7874522"><ele>1561.3333333333333</ele><time>2026-04-26T14:49:33.006Z</time></trkpt><trkpt lat="45.8698938" lon="11.7877142"><ele>1562.0</ele><time>2026-04-26T14:49:34.015Z</time></trkpt><trkpt lat="45.8699048" lon="11.7879921"><ele>1564.0</ele><time>2026-04-26T14:49:35.004Z</time></trkpt><trkpt lat="45.8699203" lon="11.7882853"><ele>1566.0</ele><time>2026-04-26T14:49:36.021Z</time></trkpt><trkpt lat="45.8699433" lon="11.7885964"><ele>1568.0</ele><time>2026-04-26T14:49:37.009Z</time></trkpt><trkpt lat="45.8699697" lon="11.7889229"><ele>1569.0</ele><time>2026-04-26T14:49:38.018Z</time></trkpt><trkpt lat="45.8699951" lon="11.7892512"><ele>1570.0</ele><time>2026-04-26T14:49:39.011Z</time></trkpt><trkpt lat="45.8700261" lon="11.7895826"><ele>1570.0</ele><time>2026-04-26T14:49:40.013Z</time></trkpt><trkpt lat="45.8700687" lon="11.7899102"><ele>1570.0</ele><time>2026-04-26T14:49:41.015Z</time></trkpt><trkpt lat="45.8701199" lon="11.7902216"><ele>1583.3333333333335</ele><time>2026-04-26T14:49:42.011Z</time></trkpt><trkpt lat="45.8701723" lon="11.790503"><ele>1596.6666666666665</ele><time>2026-04-26T14:49:43.025Z</time></trkpt><trkpt lat="45.8702179" lon="11.7907458"><ele>1610.0</ele><time>2026-04-26T14:49:44.008Z</time></trkpt><trkpt lat="45.8702495" lon="11.7909539"><ele>1610.75</ele><time>2026-04-26T14:49:45.005Z</time></trkpt><trkpt lat="45.8702567" lon="11.79114"><ele>1611.5</ele><time>2026-04-26T14:49:46.016Z</time></trkpt><trkpt lat="45.8702261" lon="11.7913059"><ele>1612.25</ele><time>2026-04-26T14:49:47.012Z</time></trkpt><trkpt lat="45.8701577" lon="11.7914524"><ele>1613.0</ele><time>2026-04-26T14:49:48.002Z</time></trkpt><trkpt lat="45.8700574" lon="11.7915665"><ele>1610.25</ele><time>2026-04-26T14:49:49.009Z</time></trkpt><trkpt lat="45.869937" lon="11.791648"><ele>1607.5</ele><time>2026-04-26T14:49:50.006Z</time></trkpt><trkpt lat="45.8698036" lon="11.7917328"><ele>1604.75</ele><time>2026-04-26T14:49:51.017Z</time></trkpt><trkpt lat="45.8696648" lon="11.7918423"><ele>1602.0</ele><time>2026-04-26T14:49:52.021Z</time></trkpt><trkpt lat="45.8695202" lon="11.7919654"><ele>1602.0</ele><time>2026-04-26T14:49:53.017Z</time></trkpt><trkpt lat="45.8693729" lon="11.7920906"><ele>1602.0</ele><time>2026-04-26T14:49:54.011Z</time></trkpt><trkpt lat="45.8692235" lon="11.792216"><ele>1602.0</ele><time>2026-04-26T14:49:55.011Z</time></trkpt><trkpt lat="45.869074" lon="11.7923408"><ele>1599.6666666666665</ele><time>2026-04-26T14:49:56.016Z</time></trkpt><trkpt lat="45.8689334" lon="11.792455"><ele>1597.3333333333333</ele><time>2026-04-26T14:49:57.004Z</time></trkpt><trkpt lat="45.8687995" lon="11.7925652"><ele>1595.0</ele><time>2026-04-26T14:49:58.002Z</time></trkpt><trkpt lat="45.8686883" lon="11.7926803"><ele>1598.5</ele><time>2026-04-26T14:49:59.009Z</time></trkpt><trkpt lat="45.868604" lon="11.7928288"><ele>1602.0</ele><time>2026-04-26T14:50:00.007Z</time></trkpt><trkpt lat="45.8685484" lon="11.7930128"><ele>1605.5</ele><time>2026-04-26T14:50:01.006Z</time></trkpt><trkpt lat="45.8685107" lon="11.793218"><ele>1609.0</ele><time>2026-04-26T14:50:02.008Z</time></trkpt><trkpt lat="45.8684771" lon="11.7934342"><ele>1606.0</ele><time>2026-04-26T14:50:03.01Z</time></trkpt><trkpt lat="45.8684362" lon="11.7936575"><ele>1603.0</ele><time>2026-04-26T14:50:04.015Z</time></trkpt><trkpt lat="45.8684007" lon="11.7938833"><ele>1600.0</ele><time>2026-04-26T14:50:05.011Z</time></trkpt><trkpt lat="45.8683837" lon="11.7940936"><ele>1600.0</ele><time>2026-04-26T14:50:06.007Z</time></trkpt><trkpt lat="45.8683832" lon="11.7942856"><ele>1600.0</ele><time>2026-04-26T14:50:07.003Z</time></trkpt><trkpt lat="45.8683895" lon="11.794468"><ele>1600.0</ele><time>2026-04-26T14:50:08.013Z</time></trkpt><trkpt lat="45.8683967" lon="11.7946396"><ele>1600.0</ele><time>2026-04-26T14:50:09.015Z</time></trkpt><trkpt lat="45.8684042" lon="11.7947985"><ele>1602.0000000000002</ele><time>2026-04-26T14:50:10.006Z</time></trkpt><trkpt lat="45.8684088" lon="11.7949385"><ele>1604.0</ele><time>2026-04-26T14:50:11.011Z</time></trkpt><trkpt lat="45.8684007" lon="11.7950663"><ele>1606.0</ele><time>2026-04-26T14:50:12.016Z</time></trkpt><trkpt lat="45.8683735" lon="11.795174"><ele>1608.0</ele><time>2026-04-26T14:50:13.008Z</time></trkpt><trkpt lat="45.8683279" lon="11.7952574"><ele>1610.0000000000002</ele><time>2026-04-26T14:50:14.01Z</time></trkpt><trkpt lat="45.8682686" lon="11.7953206"><ele>1612.0</ele><time>2026-04-26T14:50:15.012Z</time></trkpt><trkpt lat="45.8682031" lon="11.7953819"><ele>1615.0</ele><time>2026-04-26T14:50:16.008Z</time></trkpt><trkpt lat="45.868139" lon="11.79546"><ele>1618.0</ele><time>2026-04-26T14:50:17.008Z</time></trkpt><trkpt lat="45.8680814" lon="11.7955588"><ele>1621.0</ele><time>2026-04-26T14:50:18.018Z</time></trkpt><trkpt lat="45.8680318" lon="11.7956747"><ele>1624.0</ele><time>2026-04-26T14:50:19.017Z</time></trkpt><trkpt lat="45.8679881" lon="11.7958012"><ele>1627.0</ele><time>2026-04-26T14:50:20.015Z</time></trkpt><trkpt lat="45.8679457" lon="11.7959333"><ele>1627.5000000000002</ele><time>2026-04-26T14:50:21.012Z</time></trkpt><trkpt lat="45.8679017" lon="11.7960593"><ele>1628.0</ele><time>2026-04-26T14:50:22.019Z</time></trkpt><trkpt lat="45.8678488" lon="11.7961676"><ele>1628.5</ele><time>2026-04-26T14:50:23.009Z</time></trkpt><trkpt lat="45.8677928" lon="11.7962589"><ele>1629.0</ele><time>2026-04-26T14:50:24.018Z</time></trkpt><trkpt lat="45.8677406" lon="11.7963422"><ele>1629.5000000000002</ele><time>2026-04-26T14:50:25.01Z</time></trkpt><trkpt lat="45.8676929" lon="11.7964392"><ele>1630.0</ele><time>2026-04-26T14:50:26.016Z</time></trkpt><trkpt lat="45.8676527" lon="11.796561"><ele>1630.0</ele><time>2026-04-26T14:50:27.009Z</time></trkpt><trkpt lat="45.8676184" lon="11.7967023"><ele>1630.0</ele><time>2026-04-26T14:50:28.008Z</time></trkpt><trkpt lat="45.867586" lon="11.7968533"><ele>1630.0</ele><time>2026-04-26T14:50:29.006Z</time></trkpt><trkpt lat="45.867555" lon="11.7970041"><ele>1630.0</ele><time>2026-04-26T14:50:30.008Z</time></trkpt><trkpt lat="45.8675271" lon="11.7971405"><ele>1630.0</ele><time>2026-04-26T14:50:31.01Z</time></trkpt><trkpt lat="45.8674999" lon="11.7972721"><ele>1629.8</ele><time>2026-04-26T14:50:32.012Z</time></trkpt><trkpt lat="45.8674694" lon="11.7974027"><ele>1629.6</ele><time>2026-04-26T14:50:33.012Z</time></trkpt><trkpt lat="45.8674297" lon="11.7975283"><ele>1629.4</ele><time>2026-04-26T14:50:34.005Z</time></trkpt><trkpt lat="45.8673752" lon="11.79764"><ele>1629.2</ele><time>2026-04-26T14:50:35.005Z</time></trkpt><trkpt lat="45.8673076" lon="11.7977382"><ele>1629.0</ele><time>2026-04-26T14:50:36.015Z</time></trkpt><trkpt lat="45.8672273" lon="11.7978218"><ele>1632.0</ele><time>2026-04-26T14:50:37.01Z</time></trkpt><trkpt lat="45.8671303" lon="11.7979031"><ele>1635.0</ele><time>2026-04-26T14:50:38.002Z</time></trkpt><trkpt lat="45.8670141" lon="11.7979903"><ele>1638.0</ele><time>2026-04-26T14:50:39.018Z</time></trkpt><trkpt lat="45.8668736" lon="11.7980812"><ele>1641.0</ele><time>2026-04-26T14:50:40.008Z</time></trkpt><trkpt lat="45.866708" lon="11.7981787"><ele>1641.0</ele><time>2026-04-26T14:50:41.009Z</time></trkpt><trkpt lat="45.8665258" lon="11.7982852"><ele>1641.0</ele><time>2026-04-26T14:50:42.024Z</time></trkpt><trkpt lat="45.8663445" lon="11.7983799"><ele>1641.0</ele><time>2026-04-26T14:50:43.018Z</time></trkpt><trkpt lat="45.8661892" lon="11.7984511"><ele>1642.0</ele><time>2026-04-26T14:50:44.009Z</time></trkpt><trkpt lat="45.8660539" lon="11.7985193"><ele>1643.0</ele><time>2026-04-26T14:50:45.014Z</time></trkpt><trkpt lat="45.8659393" lon="11.7985901"><ele>1644.0</ele><time>2026-04-26T14:50:46.015Z</time></trkpt><trkpt lat="45.8658545" lon="11.7986936"><ele>1645.0</ele><time>2026-04-26T14:50:47.014Z</time></trkpt><trkpt lat="45.865803" lon="11.7988394"><ele>1645.0</ele><time>2026-04-26T14:50:48.016Z</time></trkpt><trkpt lat="45.8657875" lon="11.7990224"><ele>1645.0</ele><time>2026-04-26T14:50:49.024Z</time></trkpt><trkpt lat="45.8658043" lon="11.7992246"><ele>1645.0</ele><time>2026-04-26T14:50:50.033Z</time></trkpt><trkpt lat="45.8658438" lon="11.7994185"><ele>1645.0</ele><time>2026-04-26T14:50:51.019Z</time></trkpt><trkpt lat="45.8659248" lon="11.7995972"><ele>1647.0</ele><time>2026-04-26T14:50:52.014Z</time></trkpt><trkpt lat="45.8660289" lon="11.7997344"><ele>1649.0</ele><time>2026-04-26T14:50:53.014Z</time></trkpt><trkpt lat="45.86615" lon="11.7998266"><ele>1651.0</ele><time>2026-04-26T14:50:54.023Z</time></trkpt><trkpt lat="45.8662801" lon="11.7998898"><ele>1653.0</ele><time>2026-04-26T14:50:55.023Z</time></trkpt><trkpt lat="45.8664033" lon="11.7999348"><ele>1653.0</ele><time>2026-04-26T14:50:56.069Z</time></trkpt><trkpt lat="45.8665274" lon="11.79996"><ele>1653.0</ele><time>2026-04-26T14:50:57.016Z</time></trkpt><trkpt lat="45.8666565" lon="11.7999646"><ele>1653.0</ele><time>2026-04-26T14:50:58.008Z</time></trkpt><trkpt lat="45.8667857" lon="11.7999532"><ele>1653.0</ele><time>2026-04-26T14:50:59.018Z</time></trkpt><trkpt lat="45.8669178" lon="11.7999299"><ele>1655.75</ele><time>2026-04-26T14:51:00.013Z</time></trkpt><trkpt lat="45.8670487" lon="11.7999082"><ele>1658.5</ele><time>2026-04-26T14:51:01.018Z</time></trkpt><trkpt lat="45.8671854" lon="11.7998847"><ele>1661.25</ele><time>2026-04-26T14:51:02.033Z</time></trkpt><trkpt lat="45.8673242" lon="11.7998654"><ele>1664.0</ele><time>2026-04-26T14:51:03.027Z</time></trkpt><trkpt lat="45.8674555" lon="11.79986"><ele>1664.0</ele><time>2026-04-26T14:51:04.02Z</time></trkpt><trkpt lat="45.8675778" lon="11.7998747"><ele>1664.0</ele><time>2026-04-26T14:51:05.02Z</time></trkpt><trkpt lat="45.8676909" lon="11.7999081"><ele>1664.0</ele><time>2026-04-26T14:51:06.014Z</time></trkpt><trkpt lat="45.8678133" lon="11.7999373"><ele>1664.0</ele><time>2026-04-26T14:51:07.002Z</time></trkpt><trkpt lat="45.8679121" lon="11.7999968"><ele>1663.1666666666665</ele><time>2026-04-26T14:51:08.011Z</time></trkpt><trkpt lat="45.8679958" lon="11.8000541"><ele>1662.3333333333333</ele><time>2026-04-26T14:51:09.014Z</time></trkpt><trkpt lat="45.8680761" lon="11.8001209"><ele>1661.5</ele><time>2026-04-26T14:51:10.009Z</time></trkpt><trkpt lat="45.8681476" lon="11.8001825"><ele>1660.6666666666665</ele><time>2026-04-26T14:51:11.014Z</time></trkpt><trkpt lat="45.8682179" lon="11.80025"><ele>1659.8333333333333</ele><time>2026-04-26T14:51:12.015Z</time></trkpt><trkpt lat="45.8682826" lon="11.8003162"><ele>1659.0</ele><time>2026-04-26T14:51:13.007Z</time></trkpt><trkpt lat="45.8683467" lon="11.8003879"><ele>1641.0</ele><time>2026-04-26T14:51:14.019Z</time></trkpt><trkpt lat="45.8661892" lon="11.7984511"><ele>1642.0</ele><time>2026-04-26T14:50:44.009Z</time></trkpt><trkpt lat="45.8660539" lon="11.7985193"><ele>1643.0</ele><time>2026-04-26T14:50:45.014Z</time></trkpt><trkpt lat="45.8659393" lon="11.7985901"><ele>1644.0</ele><time>2026-04-26T14:50:46.015Z</time></trkpt><trkpt lat="45.8658545" lon="11.7986936"><ele>1645.0</ele><time>2026-04-26T14:50:47.014Z</time></trkpt><trkpt lat="45.865803" lon="11.7988394"><ele>1645.0</ele><time>2026-04-26T14:50:48.016Z</time></trkpt><trkpt lat="45.8657875" lon="11.7990224"><ele>1645.0</ele><time>2026-04-26T14:50:49.024Z</time></trkpt><trkpt lat="45.8658043" lon="11.7992246"><ele>1645.0</ele><time>2026-04-26T14:50:50.033Z</time></trkpt><trkpt lat="45.8658438" lon="11.7994185"><ele>1645.0</ele><time>2026-04-26T14:50:51.019Z</time></trkpt><trkpt lat="45.8659248" lon="11.7995972"><ele>1647.0</ele><time>2026-04-26T14:50:52.014Z</time></trkpt><trkpt lat="45.8660289" lon="11.7997344"><ele>1649.0</ele><time>2026-04-26T14:50:53.014Z</time></trkpt><trkpt lat="45.86615" lon="11.7998266"><ele>1651.0</ele><time>2026-04-26T14:50:54.023Z</time></trkpt><trkpt lat="45.8662801" lon="11.7998898"><ele>1653.0</ele><time>2026-04-26T14:50:55.023Z</time></trkpt><trkpt lat="45.8664033" lon="11.7999348"><ele>1653.0</ele><time>2026-04-26T14:50:56.069Z</time></trkpt><trkpt lat="45.8665274" lon="11.79996"><ele>1653.0</ele><time>2026-04-26T14:50:57.016Z</time></trkpt><trkpt lat="45.8666565" lon="11.7999646"><ele>1653.0</ele><time>2026-04-26T14:50:58.008Z</time></trkpt><trkpt lat="45.8667857" lon="11.7999532"><ele>1653.0</ele><time>2026-04-26T14:50:59.018Z</time></trkpt><trkpt lat="45.8669178" lon="11.7999299"><ele>1655.75</ele><time>2026-04-26T14:51:00.013Z</time></trkpt><trkpt lat="45.8670487" lon="11.7999082"><ele>1658.5</ele><time>2026-04-26T14:51:01.018Z</time></trkpt><trkpt lat="45.8671854" lon="11.7998847"><ele>1661.25</ele><time>2026-04-26T14:51:02.033Z</time></trkpt><trkpt lat="45.8673242" lon="11.7998654"><ele>1664.0</ele><time>2026-04-26T14:51:03.027Z</time></trkpt><trkpt lat="45.8674555" lon="11.79986"><ele>1664.0</ele><time>2026-04-26T14:51:04.02Z</time></trkpt><trkpt lat="45.8675778" lon="11.7998747"><ele>1664.0</ele><time>2026-04-26T14:51:05.02Z</time></trkpt><trkpt lat="45.8676909" lon="11.7999081"><ele>1664.0</ele><time>2026-04-26T14:51:06.014Z</time></trkpt><trkpt lat="45.8678133" lon="11.7999373"><ele>1664.0</ele><time>2026-04-26T14:51:07.002Z</time></trkpt><trkpt lat="45.8679121" lon="11.7999968"><ele>1663.1666666666665</ele><time>2026-04-26T14:51:08.011Z</time></trkpt><trkpt lat="45.8679958" lon="11.8000541"><ele>1662.3333333333333</ele><time>2026-04-26T14:51:09.014Z</time></trkpt><trkpt lat="45.8680761" lon="11.8001209"><ele>1661.5</ele><time>2026-04-26T14:51:10.009Z</time></trkpt><trkpt lat="45.8681476" lon="11.8001825"><ele>1660.6666666666665</ele><time>2026-04-26T14:51:11.014Z</time></trkpt><trkpt lat="45.8682179" lon="11.80025"><ele>1659.8333333333333</ele><time>2026-04-26T14:51:12.015Z</time></trkpt><trkpt lat="45.8682826" lon="11.8003162"><ele>1659.0</ele><time>2026-04-26T14:51:13.007Z</time></trkpt><trkpt lat="45.8683467" lon="11.8003879"><ele>1659.0</ele><time>2026-04-26T14:51:14.019Z</time></trkpt><trkpt lat="45.8684168" lon="11.8004685"><ele>1659.0</ele><time>2026-04-26T14:51:15.018Z</time></trkpt><trkpt lat="45.8684897" lon="11.8005681"><ele>1659.0</ele><time>2026-04-26T14:51:16.003Z</time></trkpt><trkpt lat="45.8685625" lon="11.8006805"><ele>1659.0</ele><time>2026-04-26T14:51:17.009Z</time></trkpt><trkpt lat="45.8686405" lon="11.8008071"><ele>1659.0</ele><time>2026-04-26T14:51:18.011Z</time></trkpt><trkpt lat="45.8687302" lon="11.8009412"><ele>1663.0</ele><time>2026-04-26T14:51:19.007Z</time></trkpt><trkpt lat="45.8688292" lon="11.8010724"><ele>1667.0</ele><time>2026-04-26T14:51:20.016Z</time></trkpt><trkpt lat="45.8689361" lon="11.8012052"><ele>1671.0</ele><time>2026-04-26T14:51:21.019Z</time></trkpt><trkpt lat="45.8690497" lon="11.8013485"><ele>1675.0</ele><time>2026-04-26T14:51:22.016Z</time></trkpt><trkpt lat="45.8691633" lon="11.8014875"><ele>1675.0</ele><time>2026-04-26T14:51:23.013Z</time></trkpt><trkpt lat="45.8692726" lon="11.8015984"><ele>1675.0</ele><time>2026-04-26T14:51:24.015Z</time></trkpt><trkpt lat="45.8693783" lon="11.8016919"><ele>1675.0</ele><time>2026-04-26T14:51:25.01Z</time></trkpt><trkpt lat="45.8695039" lon="11.8017264"><ele>1675.0</ele><time>2026-04-26T14:51:26.014Z</time></trkpt><trkpt lat="45.8696317" lon="11.8017199"><ele>1678.25</ele><time>2026-04-26T14:51:27.003Z</time></trkpt><trkpt lat="45.8697634" lon="11.8016841"><ele>1681.5</ele><time>2026-04-26T14:51:28.005Z</time></trkpt><trkpt lat="45.8699023" lon="11.801628"><ele>1684.75</ele><time>2026-04-26T14:51:29.01Z</time></trkpt><trkpt lat="45.87005" lon="11.8015788"><ele>1688.0</ele><time>2026-04-26T14:51:30.014Z</time></trkpt><trkpt lat="45.8702004" lon="11.8015399"><ele>1688.75</ele><time>2026-04-26T14:51:31.005Z</time></trkpt><trkpt lat="45.870351" lon="11.8015138"><ele>1689.5</ele><time>2026-04-26T14:51:32.004Z</time></trkpt><trkpt lat="45.8704918" lon="11.8015073"><ele>1690.25</ele><time>2026-04-26T14:51:33.006Z</time></trkpt><trkpt lat="45.8706267" lon="11.8015264"><ele>1691.0</ele><time>2026-04-26T14:51:34.018Z</time></trkpt><trkpt lat="45.8707571" lon="11.8015464"><ele>1691.0</ele><time>2026-04-26T14:51:35.009Z</time></trkpt><trkpt lat="45.8708834" lon="11.8015304"><ele>1691.0</ele><time>2026-04-26T14:51:36.001Z</time></trkpt><trkpt lat="45.8710042" lon="11.8014695"><ele>1691.0</ele><time>2026-04-26T14:51:37.008Z</time></trkpt><trkpt lat="45.8711201" lon="11.8013809"><ele>1691.0</ele><time>2026-04-26T14:51:38.019Z</time></trkpt><trkpt lat="45.8712303" lon="11.8012859"><ele>1690.5</ele><time>2026-04-26T14:51:39.015Z</time></trkpt><trkpt lat="45.8713337" lon="11.8011976"><ele>1690.0</ele><time>2026-04-26T14:51:40.019Z</time></trkpt><trkpt lat="45.8714392" lon="11.8011316"><ele>1689.5</ele><time>2026-04-26T14:51:41.022Z</time></trkpt><trkpt lat="45.8715529" lon="11.8011055"><ele>1689.0</ele><time>2026-04-26T14:51:42.016Z</time></trkpt><trkpt lat="45.8716691" lon="11.8011205"><ele>1693.75</ele><time>2026-04-26T14:51:43.013Z</time></trkpt><trkpt lat="45.8717862" lon="11.8011511"><ele>1698.5</ele><time>2026-04-26T14:51:44.005Z</time></trkpt><trkpt lat="45.8719036" lon="11.801181"><ele>1703.25</ele><time>2026-04-26T14:51:45.015Z</time></trkpt><trkpt lat="45.8720237" lon="11.8012114"><ele>1708.0</ele><time>2026-04-26T14:51:46.015Z</time></trkpt><trkpt lat="45.872144" lon="11.8012406"><ele>1708.0</ele><time>2026-04-26T14:51:47.01Z</time></trkpt><trkpt lat="45.8722624" lon="11.8012716"><ele>1708.0</ele><time>2026-04-26T14:51:48.015Z</time></trkpt><trkpt lat="45.872379" lon="11.8013112"><ele>1708.0</ele><time>2026-04-26T14:51:49.011Z</time></trkpt><trkpt lat="45.872492" lon="11.8013636"><ele>1708.0</ele><time>2026-04-26T14:51:50.01Z</time></trkpt><trkpt lat="45.8725976" lon="11.8014391"><ele>1711.5</ele><time>2026-04-26T14:51:51.005Z</time></trkpt><trkpt lat="45.8726904" lon="11.8015396"><ele>1715.0</ele><time>2026-04-26T14:51:52.004Z</time></trkpt><trkpt lat="45.8727721" lon="11.8016588"><ele>1718.5</ele><time>2026-04-26T14:51:53.01Z</time></trkpt><trkpt lat="45.8728437" lon="11.8017904"><ele>1722.0</ele><time>2026-04-26T14:51:54.011Z</time></trkpt><trkpt lat="45.8729069" lon="11.8019301"><ele>1722.0</ele><time>2026-04-26T14:51:55.025Z</time></trkpt><trkpt lat="45.8729605" lon="11.8020789"><ele>1722.0</ele><time>2026-04-26T14:51:56.029Z</time></trkpt><trkpt lat="45.8730024" lon="11.8022347"><ele>1722.0</ele><time>2026-04-26T14:51:57.012Z</time></trkpt><trkpt lat="45.8730354" lon="11.8023941"><ele>1722.0</ele><time>2026-04-26T14:51:58.016Z</time></trkpt><trkpt lat="45.8730589" lon="11.8025582"><ele>1721.25</ele><time>2026-04-26T14:51:59.006Z</time></trkpt><trkpt lat="45.8730718" lon="11.802724"><ele>1720.5</ele><time>2026-04-26T14:52:00.019Z</time></trkpt><trkpt lat="45.8730845" lon="11.8028909"><ele>1719.75</ele><time>2026-04-26T14:52:01.021Z</time></trkpt><trkpt lat="45.8731089" lon="11.803051"><ele>1719.0</ele><time>2026-04-26T14:52:02.015Z</time></trkpt><trkpt lat="45.8731439" lon="11.8031917"><ele>1719.0</ele><time>2026-04-26T14:52:03.01Z</time></trkpt><trkpt lat="45.8731798" lon="11.8033101"><ele>1719.0</ele><time>2026-04-26T14:52:04.011Z</time></trkpt><trkpt lat="45.8732143" lon="11.8034056"><ele>1719.0</ele><time>2026-04-26T14:52:05.009Z</time></trkpt><trkpt lat="45.8732868" lon="11.8035408"><ele>1719.0</ele><time>2026-04-26T14:52:07.015Z</time></trkpt><trkpt lat="45.8733682" lon="11.8035829"><ele>1719.0</ele><time>2026-04-26T14:52:09.009Z</time></trkpt><trkpt lat="45.8734439" lon="11.8035078"><ele>1712.3333333333333</ele><time>2026-04-26T14:52:11.014Z</time></trkpt><trkpt lat="45.8734898" lon="11.8034105"><ele>1705.6666666666665</ele><time>2026-04-26T14:52:13.013Z</time></trkpt><trkpt lat="45.8735084" lon="11.80326"><ele>1699.0</ele><time>2026-04-26T14:52:48.022Z</time></trkpt><trkpt lat="45.8735314" lon="11.8031621"><ele>1692.3333333333333</ele><time>2026-04-26T14:52:50.003Z</time></trkpt><trkpt lat="45.8735528" lon="11.8030476"><ele>1685.6666666666665</ele><time>2026-04-26T14:52:52.019Z</time></trkpt><trkpt lat="45.873571" lon="11.802928"><ele>1679.0</ele><time>2026-04-26T14:52:53.999Z</time></trkpt><trkpt lat="45.873576" lon="11.8027275"><ele>1679.0</ele><time>2026-04-26T14:52:57.029Z</time></trkpt><trkpt lat="45.8735414" lon="11.802621"><ele>1703.0</ele><time>2026-04-26T14:52:59.016Z</time></trkpt><trkpt lat="45.8734638" lon="11.8025659"><ele>1703.0</ele><time>2026-04-26T14:53:01.007Z</time></trkpt><trkpt lat="45.8733876" lon="11.8025172"><ele>1722.0</ele><time>2026-04-26T14:53:03.044Z</time></trkpt></trkseg><trkseg><trkpt lat="45.873422" lon="11.8026113"><ele>1713.3999999999999</ele><time>2026-04-26T15:43:05.778Z</time></trkpt><trkpt lat="45.8735106" lon="11.8027025"><ele>1704.7999999999997</ele><time>2026-04-26T15:43:07.78Z</time></trkpt><trkpt lat="45.8735411" lon="11.8028356"><ele>1696.2</ele><time>2026-04-26T15:43:09.778Z</time></trkpt><trkpt lat="45.8735341" lon="11.8029838"><ele>1687.6</ele><time>2026-04-26T15:43:11.782Z</time></trkpt><trkpt lat="45.8735091" lon="11.8031368"><ele>1679.0</ele><time>2026-04-26T15:43:13.794Z</time></trkpt><trkpt lat="45.8734727" lon="11.8033094"><ele>1684.6</ele><time>2026-04-26T15:43:15.798Z</time></trkpt><trkpt lat="45.87342" lon="11.8034677"><ele>1690.2</ele><time>2026-04-26T15:43:17.78Z</time></trkpt><trkpt lat="45.8733229" lon="11.8035354"><ele>1695.7999999999997</ele><time>2026-04-26T15:43:19.785Z</time></trkpt><trkpt lat="45.8732217" lon="11.8034209"><ele>1701.3999999999999</ele><time>2026-04-26T15:43:21.77Z</time></trkpt><trkpt lat="45.8731835" lon="11.80332"><ele>1707.0</ele><time>2026-04-26T15:43:22.774Z</time></trkpt><trkpt lat="45.8731501" lon="11.8032036"><ele>1709.3999999999999</ele><time>2026-04-26T15:43:23.777Z</time></trkpt><trkpt lat="45.8731169" lon="11.8030776"><ele>1711.7999999999997</ele><time>2026-04-26T15:43:24.784Z</time></trkpt><trkpt lat="45.873093" lon="11.8029406"><ele>1714.2</ele><time>2026-04-26T15:43:25.773Z</time></trkpt><trkpt lat="45.8730805" lon="11.8027971"><ele>1716.6</ele><time>2026-04-26T15:43:26.779Z</time></trkpt><trkpt lat="45.8730721" lon="11.8026485"><ele>1719.0</ele><time>2026-04-26T15:43:27.751Z</time></trkpt><trkpt lat="45.8730603" lon="11.8024965"><ele>1719.6</ele><time>2026-04-26T15:43:28.756Z</time></trkpt><trkpt lat="45.8730485" lon="11.8023452"><ele>1720.2</ele><time>2026-04-26T15:43:29.755Z</time></trkpt><trkpt lat="45.8730171" lon="11.8021944"><ele>1720.7999999999997</ele><time>2026-04-26T15:43:30.746Z</time></trkpt><trkpt lat="45.8729772" lon="11.8020485"><ele>1721.3999999999999</ele><time>2026-04-26T15:43:31.762Z</time></trkpt><trkpt lat="45.8729293" lon="11.8019027"><ele>1722.0</ele><time>2026-04-26T15:43:32.751Z</time></trkpt><trkpt lat="45.8728701" lon="11.8017645"><ele>1723.0</ele><time>2026-04-26T15:43:33.787Z</time></trkpt><trkpt lat="45.8728007" lon="11.8016331"><ele>1724.0</ele><time>2026-04-26T15:43:34.76Z</time></trkpt><trkpt lat="45.8727206" lon="11.8015123"><ele>1725.0</ele><time>2026-04-26T15:43:35.76Z</time></trkpt><trkpt lat="45.8726283" lon="11.8014069"><ele>1726.0</ele><time>2026-04-26T15:43:36.765Z</time></trkpt><trkpt lat="45.872522" lon="11.8013306"><ele>1721.5</ele><time>2026-04-26T15:43:37.746Z</time></trkpt><trkpt lat="45.8724065" lon="11.8012785"><ele>1717.0</ele><time>2026-04-26T15:43:38.761Z</time></trkpt><trkpt lat="45.8722867" lon="11.8012378"><ele>1712.5</ele><time>2026-04-26T15:43:39.766Z</time></trkpt><trkpt lat="45.872164" lon="11.8012043"><ele>1708.0</ele><time>2026-04-26T15:43:40.763Z</time></trkpt><trkpt lat="45.8720388" lon="11.8011771"><ele>1708.0</ele><time>2026-04-26T15:43:41.759Z</time></trkpt><trkpt lat="45.8719121" lon="11.8011467"><ele>1708.0</ele><time>2026-04-26T15:43:42.766Z</time></trkpt><trkpt lat="45.871785" lon="11.8011115"><ele>1708.0</ele><time>2026-04-26T15:43:43.76Z</time></trkpt><trkpt lat="45.871664" lon="11.8010802"><ele>1708.0</ele><time>2026-04-26T15:43:44.759Z</time></trkpt><trkpt lat="45.8715448" lon="11.8010712"><ele>1703.25</ele><time>2026-04-26T15:43:45.754Z</time></trkpt><trkpt lat="45.8714279" lon="11.8011027"><ele>1698.5</ele><time>2026-04-26T15:43:46.759Z</time></trkpt><trkpt lat="45.8713181" lon="11.8011691"><ele>1693.75</ele><time>2026-04-26T15:43:47.749Z</time></trkpt><trkpt lat="45.8712121" lon="11.8012516"><ele>1689.0</ele><time>2026-04-26T15:43:48.761Z</time></trkpt><trkpt lat="45.8711057" lon="11.801335"><ele>1689.0</ele><time>2026-04-26T15:43:49.768Z</time></trkpt><trkpt lat="45.8709994" lon="11.8014187"><ele>1689.0</ele><time>2026-04-26T15:43:50.771Z</time></trkpt><trkpt lat="45.8708937" lon="11.801475"><ele>1689.0</ele><time>2026-04-26T15:43:51.76Z</time></trkpt><trkpt lat="45.8707826" lon="11.8014886"><ele>1689.0</ele><time>2026-04-26T15:43:52.757Z</time></trkpt><trkpt lat="45.8706726" lon="11.8014677"><ele>1689.5</ele><time>2026-04-26T15:43:53.76Z</time></trkpt><trkpt lat="45.8705618" lon="11.8014446"><ele>1690.0</ele><time>2026-04-26T15:43:54.764Z</time></trkpt><trkpt lat="45.870449" lon="11.8014419"><ele>1690.5</ele><time>2026-04-26T15:43:55.761Z</time></trkpt><trkpt lat="45.8703344" lon="11.801457"><ele>1691.0</ele><time>2026-04-26T15:43:56.764Z</time></trkpt><trkpt lat="45.8702182" lon="11.8014801"><ele>1690.25</ele><time>2026-04-26T15:43:57.755Z</time></trkpt><trkpt lat="45.8700997" lon="11.8015068"><ele>1689.5</ele><time>2026-04-26T15:43:58.76Z</time></trkpt><trkpt lat="45.8699818" lon="11.8015463"><ele>1688.75</ele><time>2026-04-26T15:43:59.759Z</time></trkpt><trkpt lat="45.8698644" lon="11.8015973"><ele>1688.0</ele><time>2026-04-26T15:44:00.759Z</time></trkpt><trkpt lat="45.8697447" lon="11.8016408"><ele>1688.0</ele><time>2026-04-26T15:44:01.773Z</time></trkpt><trkpt lat="45.8696231" lon="11.8016663"><ele>1688.0</ele><time>2026-04-26T15:44:02.771Z</time></trkpt><trkpt lat="45.8695001" lon="11.8016609"><ele>1688.0</ele><time>2026-04-26T15:44:03.765Z</time></trkpt><trkpt lat="45.8693788" lon="11.8016169"><ele>1688.0</ele><time>2026-04-26T15:44:04.761Z</time></trkpt><trkpt lat="45.8692639" lon="11.8015375"><ele>1684.75</ele><time>2026-04-26T15:44:05.762Z</time></trkpt><trkpt lat="45.869157" lon="11.8014331"><ele>1681.5</ele><time>2026-04-26T15:44:06.77Z</time></trkpt><trkpt lat="45.8690501" lon="11.8013282"><ele>1678.25</ele><time>2026-04-26T15:44:07.768Z</time></trkpt><trkpt lat="45.8689471" lon="11.8011986"><ele>1675.0</ele><time>2026-04-26T15:44:08.762Z</time></trkpt><trkpt lat="45.8688374" lon="11.801054"><ele>1683.0</ele><time>2026-04-26T15:44:09.766Z</time></trkpt><trkpt lat="45.8687236" lon="11.8008983"><ele>1691.0</ele><time>2026-04-26T15:44:10.772Z</time></trkpt><trkpt lat="45.8686117" lon="11.800735"><ele>1699.0</ele><time>2026-04-26T15:44:11.752Z</time></trkpt><trkpt lat="45.8685008" lon="11.8005719"><ele>1694.75</ele><time>2026-04-26T15:44:12.756Z</time></trkpt><trkpt lat="45.8683894" lon="11.8004216"><ele>1690.5</ele><time>2026-04-26T15:44:13.766Z</time></trkpt><trkpt lat="45.868275" lon="11.800286"><ele>1686.25</ele><time>2026-04-26T15:44:14.769Z</time></trkpt><trkpt lat="45.8681555" lon="11.80016"><ele>1682.0</ele><time>2026-04-26T15:44:15.758Z</time></trkpt><trkpt lat="45.8680311" lon="11.8000465"><ele>1682.0</ele><time>2026-04-26T15:44:16.772Z</time></trkpt><trkpt lat="45.8679042" lon="11.7999423"><ele>1682.0</ele><time>2026-04-26T15:44:17.756Z</time></trkpt><trkpt lat="45.867768" lon="11.7998696"><ele>1682.0</ele><time>2026-04-26T15:44:18.755Z</time></trkpt><trkpt lat="45.8676154" lon="11.7998202"><ele>1682.0</ele><time>2026-04-26T15:44:19.761Z</time></trkpt><trkpt lat="45.8674613" lon="11.7998016"><ele>1676.0</ele><time>2026-04-26T15:44:20.762Z</time></trkpt><trkpt lat="45.8673071" lon="11.7998074"><ele>1670.0</ele><time>2026-04-26T15:44:21.76Z</time></trkpt><trkpt lat="45.8670215" lon="11.7998523"><ele>1664.0</ele><time>2026-04-26T15:44:23.769Z</time></trkpt><trkpt lat="45.8668878" lon="11.799878"><ele>1661.25</ele><time>2026-04-26T15:44:24.754Z</time></trkpt><trkpt lat="45.866761" lon="11.7998967"><ele>1658.5</ele><time>2026-04-26T15:44:25.764Z</time></trkpt><trkpt lat="45.8666386" lon="11.7999061"><ele>1655.75</ele><time>2026-04-26T15:44:26.764Z</time></trkpt><trkpt lat="45.8665149" lon="11.7999055"><ele>1653.0</ele><time>2026-04-26T15:44:27.771Z</time></trkpt><trkpt lat="45.866392" lon="11.7998857"><ele>1653.0</ele><time>2026-04-26T15:44:28.768Z</time></trkpt><trkpt lat="45.8662765" lon="11.7998402"><ele>1653.0</ele><time>2026-04-26T15:44:29.771Z</time></trkpt><trkpt lat="45.8661677" lon="11.799773"><ele>1653.0</ele><time>2026-04-26T15:44:30.76Z</time></trkpt><trkpt lat="45.8660593" lon="11.7996926"><ele>1653.0</ele><time>2026-04-26T15:44:31.759Z</time></trkpt><trkpt lat="45.8659649" lon="11.7995987"><ele>1651.4</ele><time>2026-04-26T15:44:32.763Z</time></trkpt><trkpt lat="45.8658932" lon="11.799482"><ele>1649.8000000000002</ele><time>2026-04-26T15:44:33.761Z</time></trkpt><trkpt lat="45.8658497" lon="11.7993528"><ele>1648.2</ele><time>2026-04-26T15:44:34.763Z</time></trkpt><trkpt lat="45.865826" lon="11.7992199"><ele>1646.6</ele><time>2026-04-26T15:44:35.76Z</time></trkpt><trkpt lat="45.8658138" lon="11.7990913"><ele>1645.0</ele><time>2026-04-26T15:44:36.764Z</time></trkpt><trkpt lat="45.8658088" lon="11.7989693"><ele>1645.0000000000002</ele><time>2026-04-26T15:44:37.752Z</time></trkpt><trkpt lat="45.8658171" lon="11.7988532"><ele>1645.0</ele><time>2026-04-26T15:44:38.764Z</time></trkpt><trkpt lat="45.865847" lon="11.7987478"><ele>1645.0</ele><time>2026-04-26T15:44:39.757Z</time></trkpt><trkpt lat="45.8659013" lon="11.798656"><ele>1645.0</ele><time>2026-04-26T15:44:40.745Z</time></trkpt><trkpt lat="45.8659745" lon="11.7985779"><ele>1645.0000000000002</ele><time>2026-04-26T15:44:41.742Z</time></trkpt><trkpt lat="45.86607" lon="11.7985097"><ele>1645.0</ele><time>2026-04-26T15:44:42.745Z</time></trkpt><trkpt lat="45.8661837" lon="11.7984443"><ele>1644.0</ele><time>2026-04-26T15:44:43.745Z</time></trkpt><trkpt lat="45.8663114" lon="11.798377"><ele>1643.0</ele><time>2026-04-26T15:44:44.752Z</time></trkpt><trkpt lat="45.8664517" lon="11.7983036"><ele>1642.0</ele><time>2026-04-26T15:44:45.746Z</time></trkpt><trkpt lat="45.8665983" lon="11.7982233"><ele>1641.0</ele><time>2026-04-26T15:44:46.757Z</time></trkpt><trkpt lat="45.8667484" lon="11.7981372"><ele>1646.0</ele><time>2026-04-26T15:44:47.759Z</time></trkpt><trkpt lat="45.8668947" lon="11.7980482"><ele>1651.0</ele><time>2026-04-26T15:44:48.75Z</time></trkpt><trkpt lat="45.8670358" lon="11.7979612"><ele>1656.0</ele><time>2026-04-26T15:44:49.738Z</time></trkpt><trkpt lat="45.8671658" lon="11.7978792"><ele>1656.0</ele><time>2026-04-26T15:44:50.757Z</time></trkpt><trkpt lat="45.8672815" lon="11.7977863"><ele>1656.0</ele><time>2026-04-26T15:44:51.76Z</time></trkpt><trkpt lat="45.8673764" lon="11.7976608"><ele>1656.0</ele><time>2026-04-26T15:44:52.762Z</time></trkpt><trkpt lat="45.8674466" lon="11.7975038"><ele>1656.0</ele><time>2026-04-26T15:44:53.752Z</time></trkpt><trkpt lat="45.8674965" lon="11.7973296"><ele>1649.5</ele><time>2026-04-26T15:44:54.766Z</time></trkpt><trkpt lat="45.8675419" lon="11.797154"><ele>1643.0</ele><time>2026-04-26T15:44:55.747Z</time></trkpt><trkpt lat="45.8675808" lon="11.7969686"><ele>1636.5</ele><time>2026-04-26T15:44:56.763Z</time></trkpt><trkpt lat="45.8676167" lon="11.7967872"><ele>1630.0</ele><time>2026-04-26T15:44:57.764Z</time></trkpt><trkpt lat="45.8676486" lon="11.7966204"><ele>1630.0</ele><time>2026-04-26T15:44:58.777Z</time></trkpt><trkpt lat="45.8677001" lon="11.7964603"><ele>1630.0</ele><time>2026-04-26T15:44:59.759Z</time></trkpt><trkpt lat="45.8677747" lon="11.7963221"><ele>1630.0</ele><time>2026-04-26T15:45:00.761Z</time></trkpt><trkpt lat="45.8678628" lon="11.7961927"><ele>1630.0</ele><time>2026-04-26T15:45:01.763Z</time></trkpt><trkpt lat="45.8679327" lon="11.7960483"><ele>1629.25</ele><time>2026-04-26T15:45:02.759Z</time></trkpt><trkpt lat="45.8679812" lon="11.7958931"><ele>1628.5</ele><time>2026-04-26T15:45:03.762Z</time></trkpt><trkpt lat="45.8680288" lon="11.7957378"><ele>1627.75</ele><time>2026-04-26T15:45:04.766Z</time></trkpt><trkpt lat="45.8680907" lon="11.7955894"><ele>1627.0</ele><time>2026-04-26T15:45:05.77Z</time></trkpt><trkpt lat="45.8681733" lon="11.7954691"><ele>1627.0</ele><time>2026-04-26T15:45:06.756Z</time></trkpt><trkpt lat="45.868266" lon="11.795369"><ele>1627.0</ele><time>2026-04-26T15:45:07.772Z</time></trkpt><trkpt lat="45.8683502" lon="11.7952558"><ele>1627.0</ele><time>2026-04-26T15:45:08.769Z</time></trkpt><trkpt lat="45.8684056" lon="11.7951157"><ele>1627.0</ele><time>2026-04-26T15:45:09.755Z</time></trkpt><trkpt lat="45.8684258" lon="11.7949552"><ele>1623.25</ele><time>2026-04-26T15:45:10.768Z</time></trkpt><trkpt lat="45.8684242" lon="11.7947871"><ele>1619.5</ele><time>2026-04-26T15:45:11.75Z</time></trkpt><trkpt lat="45.8684179" lon="11.7946099"><ele>1615.75</ele><time>2026-04-26T15:45:12.752Z</time></trkpt><trkpt lat="45.8684098" lon="11.7944301"><ele>1612.0</ele><time>2026-04-26T15:45:13.768Z</time></trkpt><trkpt lat="45.8684046" lon="11.7942477"><ele>1611.25</ele><time>2026-04-26T15:45:14.762Z</time></trkpt><trkpt lat="45.8684065" lon="11.7940615"><ele>1610.5</ele><time>2026-04-26T15:45:15.754Z</time></trkpt><trkpt lat="45.8684245" lon="11.7938715"><ele>1609.75</ele><time>2026-04-26T15:45:16.762Z</time></trkpt><trkpt lat="45.8684555" lon="11.7936794"><ele>1609.0</ele><time>2026-04-26T15:45:17.769Z</time></trkpt><trkpt lat="45.8684883" lon="11.7934884"><ele>1609.0</ele><time>2026-04-26T15:45:18.755Z</time></trkpt><trkpt lat="45.8685474" lon="11.7931238"><ele>1609.0</ele><time>2026-04-26T15:45:20.77Z</time></trkpt><trkpt lat="45.8685838" lon="11.7929591"><ele>1609.0</ele><time>2026-04-26T15:45:21.747Z</time></trkpt><trkpt lat="45.8686379" lon="11.7928075"><ele>1609.0</ele><time>2026-04-26T15:45:22.764Z</time></trkpt><trkpt lat="45.8687205" lon="11.7926803"><ele>1609.0</ele><time>2026-04-26T15:45:23.755Z</time></trkpt><trkpt lat="45.8688195" lon="11.7925744"><ele>1609.0</ele><time>2026-04-26T15:45:24.762Z</time></trkpt><trkpt lat="45.8689273" lon="11.7924796"><ele>1609.0</ele><time>2026-04-26T15:45:25.768Z</time></trkpt><trkpt lat="45.8690412" lon="11.7923891"><ele>1606.6666666666667</ele><time>2026-04-26T15:45:26.763Z</time></trkpt><trkpt lat="45.8691582" lon="11.7922992"><ele>1604.3333333333335</ele><time>2026-04-26T15:45:27.766Z</time></trkpt><trkpt lat="45.8693942" lon="11.7921028"><ele>1602.0</ele><time>2026-04-26T15:45:29.771Z</time></trkpt><trkpt lat="45.8695135" lon="11.7920022"><ele>1602.0</ele><time>2026-04-26T15:45:30.772Z</time></trkpt><trkpt lat="45.8696317" lon="11.7919045"><ele>1602.0</ele><time>2026-04-26T15:45:31.774Z</time></trkpt><trkpt lat="45.8697454" lon="11.7918139"><ele>1602.0</ele><time>2026-04-26T15:45:32.769Z</time></trkpt><trkpt lat="45.8698537" lon="11.7917306"><ele>1602.0</ele><time>2026-04-26T15:45:33.746Z</time></trkpt><trkpt lat="45.8699587" lon="11.7916592"><ele>1605.6666666666665</ele><time>2026-04-26T15:45:34.759Z</time></trkpt><trkpt lat="45.8700604" lon="11.79159"><ele>1609.3333333333333</ele><time>2026-04-26T15:45:35.752Z</time></trkpt><trkpt lat="45.87015" lon="11.7914937"><ele>1613.0</ele><time>2026-04-26T15:45:36.773Z</time></trkpt><trkpt lat="45.8702547" lon="11.7912046"><ele>1613.0</ele><time>2026-04-26T15:45:38.759Z</time></trkpt><trkpt lat="45.8702603" lon="11.7910346"><ele>1613.0</ele><time>2026-04-26T15:45:39.748Z</time></trkpt><trkpt lat="45.8702435" lon="11.7908629"><ele>1613.0</ele><time>2026-04-26T15:45:40.756Z</time></trkpt><trkpt lat="45.8702183" lon="11.7906872"><ele>1613.0</ele><time>2026-04-26T15:45:41.759Z</time></trkpt><trkpt lat="45.8701893" lon="11.7905101"><ele>1612.25</ele><time>2026-04-26T15:45:42.769Z</time></trkpt><trkpt lat="45.8701575" lon="11.7903302"><ele>1611.5</ele><time>2026-04-26T15:45:43.755Z</time></trkpt><trkpt lat="45.8701252" lon="11.7901479"><ele>1610.75</ele><time>2026-04-26T15:45:44.765Z</time></trkpt><trkpt lat="45.8700929" lon="11.7899622"><ele>1610.0</ele><time>2026-04-26T15:45:45.77Z</time></trkpt><trkpt lat="45.8700365" lon="11.7895751"><ele>1600.0</ele><time>2026-04-26T15:45:47.733Z</time></trkpt><trkpt lat="45.8700163" lon="11.7893736"><ele>1590.0</ele><time>2026-04-26T15:45:48.768Z</time></trkpt><trkpt lat="45.8699988" lon="11.7891684"><ele>1580.0</ele><time>2026-04-26T15:45:49.755Z</time></trkpt><trkpt lat="45.869982" lon="11.7889609"><ele>1570.0</ele><time>2026-04-26T15:45:50.763Z</time></trkpt><trkpt lat="45.8699656" lon="11.7887537"><ele>1570.0</ele><time>2026-04-26T15:45:51.759Z</time></trkpt><trkpt lat="45.8699506" lon="11.7885595"><ele>1570.0</ele><time>2026-04-26T15:45:52.758Z</time></trkpt><trkpt lat="45.8699352" lon="11.7883701"><ele>1570.0</ele><time>2026-04-26T15:45:53.767Z</time></trkpt><trkpt lat="45.8699191" lon="11.7881895"><ele>1570.0</ele><time>2026-04-26T15:45:54.758Z</time></trkpt><trkpt lat="45.8699025" lon="11.7880125"><ele>1567.3333333333335</ele><time>2026-04-26T15:45:55.753Z</time></trkpt><trkpt lat="45.869891" lon="11.7876568"><ele>1564.6666666666665</ele><time>2026-04-26T15:45:57.764Z</time></trkpt><trkpt lat="45.8698898" lon="11.7874849"><ele>1562.0</ele><time>2026-04-26T15:45:58.754Z</time></trkpt><trkpt lat="45.869871" lon="11.7873208"><ele>1562.0</ele><time>2026-04-26T15:45:59.761Z</time></trkpt><trkpt lat="45.8698324" lon="11.787173"><ele>1562.0</ele><time>2026-04-26T15:46:00.759Z</time></trkpt><trkpt lat="45.8697801" lon="11.787042"><ele>1562.0</ele><time>2026-04-26T15:46:01.756Z</time></trkpt><trkpt lat="45.8697243" lon="11.7869195"><ele>1562.0</ele><time>2026-04-26T15:46:02.754Z</time></trkpt><trkpt lat="45.8696729" lon="11.7867989"><ele>1562.0</ele><time>2026-04-26T15:46:03.761Z</time></trkpt><trkpt lat="45.8696281" lon="11.7866781"><ele>1561.3333333333333</ele><time>2026-04-26T15:46:04.758Z</time></trkpt><trkpt lat="45.8695583" lon="11.7864426"><ele>1560.6666666666665</ele><time>2026-04-26T15:46:06.758Z</time></trkpt><trkpt lat="45.8695239" lon="11.7862394"><ele>1560.0</ele><time>2026-04-26T15:46:08.768Z</time></trkpt><trkpt lat="45.869512" lon="11.7860497"><ele>1560.0</ele><time>2026-04-26T15:46:10.752Z</time></trkpt><trkpt lat="45.8694642" lon="11.7859061"><ele>1560.0</ele><time>2026-04-26T15:46:12.755Z</time></trkpt><trkpt lat="45.8693846" lon="11.7858433"><ele>1560.0</ele><time>2026-04-26T15:46:14.747Z</time></trkpt><trkpt lat="45.8693174" lon="11.7858996"><ele>1560.0</ele><time>2026-04-26T15:46:45.758Z</time></trkpt><trkpt lat="45.8694016" lon="11.7859276"><ele>1560.0</ele><time>2026-04-26T15:46:47.757Z</time></trkpt><trkpt lat="45.8694702" lon="11.7860454"><ele>1560.0</ele><time>2026-04-26T15:46:49.769Z</time></trkpt><trkpt lat="45.869476" lon="11.7861452"><ele>1560.0</ele><time>2026-04-26T15:46:50.773Z</time></trkpt><trkpt lat="45.8694804" lon="11.7862584"><ele>1560.0</ele><time>2026-04-26T15:46:51.768Z</time></trkpt><trkpt lat="45.8694977" lon="11.7863857"><ele>1560.0</ele><time>2026-04-26T15:46:52.768Z</time></trkpt><trkpt lat="45.8695328" lon="11.7865192"><ele>1560.0</ele><time>2026-04-26T15:46:53.768Z</time></trkpt><trkpt lat="45.8695806" lon="11.7866595"><ele>1560.0</ele><time>2026-04-26T15:46:54.77Z</time></trkpt><trkpt lat="45.8696358" lon="11.7868037"><ele>1560.5</ele><time>2026-04-26T15:46:55.764Z</time></trkpt><trkpt lat="45.869696" lon="11.7869489"><ele>1561.0</ele><time>2026-04-26T15:46:56.765Z</time></trkpt><trkpt lat="45.8697566" lon="11.7870935"><ele>1561.5</ele><time>2026-04-26T15:46:57.744Z</time></trkpt><trkpt lat="45.8698111" lon="11.7872385"><ele>1562.0</ele><time>2026-04-26T15:46:58.743Z</time></trkpt><trkpt lat="45.8698471" lon="11.7873954"><ele>1562.0</ele><time>2026-04-26T15:46:59.756Z</time></trkpt><trkpt lat="45.8698588" lon="11.7875667"><ele>1562.0</ele><time>2026-04-26T15:47:00.768Z</time></trkpt><trkpt lat="45.8698621" lon="11.7877483"><ele>1562.0</ele><time>2026-04-26T15:47:01.749Z</time></trkpt><trkpt lat="45.8698686" lon="11.7879375"><ele>1562.0</ele><time>2026-04-26T15:47:02.755Z</time></trkpt><trkpt lat="45.8698804" lon="11.7881315"><ele>1563.5</ele><time>2026-04-26T15:47:03.762Z</time></trkpt><trkpt lat="45.869898" lon="11.7883306"><ele>1565.0</ele><time>2026-04-26T15:47:04.761Z</time></trkpt><trkpt lat="45.8699169" lon="11.7885354"><ele>1566.5</ele><time>2026-04-26T15:47:05.759Z</time></trkpt><trkpt lat="45.8699338" lon="11.788745"><ele>1568.0</ele><time>2026-04-26T15:47:06.764Z</time></trkpt><trkpt lat="45.8699485" lon="11.7889577"><ele>1568.6666666666665</ele><time>2026-04-26T15:47:07.763Z</time></trkpt><trkpt lat="45.8699631" lon="11.7891713"><ele>1569.3333333333335</ele><time>2026-04-26T15:47:08.763Z</time></trkpt><trkpt lat="45.8699809" lon="11.7893855"><ele>1570.0</ele><time>2026-04-26T15:47:09.762Z</time></trkpt><trkpt lat="45.870003" lon="11.7895994"><ele>1570.0</ele><time>2026-04-26T15:47:10.765Z</time></trkpt><trkpt lat="45.8700311" lon="11.7898116"><ele>1570.0</ele><time>2026-04-26T15:47:11.765Z</time></trkpt><trkpt lat="45.870065" lon="11.7900218"><ele>1570.0</ele><time>2026-04-26T15:47:12.767Z</time></trkpt><trkpt lat="45.8701029" lon="11.7902303"><ele>1580.0</ele><time>2026-04-26T15:47:13.761Z</time></trkpt><trkpt lat="45.8701421" lon="11.7904398"><ele>1590.0</ele><time>2026-04-26T15:47:14.763Z</time></trkpt><trkpt lat="45.8701798" lon="11.7906439"><ele>1600.0</ele><time>2026-04-26T15:47:15.753Z</time></trkpt><trkpt lat="45.8702112" lon="11.7908242"><ele>1610.0</ele><time>2026-04-26T15:47:16.757Z</time></trkpt><trkpt lat="45.8702345" lon="11.7909805"><ele>1610.6</ele><time>2026-04-26T15:47:17.765Z</time></trkpt><trkpt lat="45.8702446" lon="11.7911254"><ele>1611.2</ele><time>2026-04-26T15:47:18.764Z</time></trkpt><trkpt lat="45.8702308" lon="11.7912654"><ele>1611.8000000000002</ele><time>2026-04-26T15:47:19.758Z</time></trkpt><trkpt lat="45.8701895" lon="11.7913894"><ele>1612.4</ele><time>2026-04-26T15:47:20.756Z</time></trkpt><trkpt lat="45.8701273" lon="11.7914928"><ele>1613.0</ele><time>2026-04-26T15:47:21.748Z</time></trkpt><trkpt lat="45.8700495" lon="11.791572"><ele>1610.8000000000002</ele><time>2026-04-26T15:47:22.748Z</time></trkpt><trkpt lat="45.8699637" lon="11.7916272"><ele>1608.6</ele><time>2026-04-26T15:47:23.764Z</time></trkpt><trkpt lat="45.8698761" lon="11.7916777"><ele>1606.4</ele><time>2026-04-26T15:47:24.754Z</time></trkpt><trkpt lat="45.8697905" lon="11.7917359"><ele>1604.1999999999998</ele><time>2026-04-26T15:47:25.765Z</time></trkpt><trkpt lat="45.8697088" lon="11.7918017"><ele>1602.0</ele><time>2026-04-26T15:47:26.768Z</time></trkpt><trkpt lat="45.869631" lon="11.7918643"><ele>1602.0</ele><time>2026-04-26T15:47:27.76Z</time></trkpt><trkpt lat="45.8695541" lon="11.7919275"><ele>1602.0</ele><time>2026-04-26T15:47:28.748Z</time></trkpt><trkpt lat="45.8694763" lon="11.7919944"><ele>1602.0</ele><time>2026-04-26T15:47:29.762Z</time></trkpt><trkpt lat="45.8693959" lon="11.7920627"><ele>1602.0</ele><time>2026-04-26T15:47:30.769Z</time></trkpt><trkpt lat="45.8693134" lon="11.7921253"><ele>1602.0</ele><time>2026-04-26T15:47:31.758Z</time></trkpt><trkpt lat="45.8692349" lon="11.7921956"><ele>1600.6</ele><time>2026-04-26T15:47:32.77Z</time></trkpt><trkpt lat="45.8691553" lon="11.7922662"><ele>1599.1999999999998</ele><time>2026-04-26T15:47:33.771Z</time></trkpt><trkpt lat="45.8690755" lon="11.7923323"><ele>1597.8</ele><time>2026-04-26T15:47:34.766Z</time></trkpt><trkpt lat="45.8689968" lon="11.7923922"><ele>1596.4</ele><time>2026-04-26T15:47:35.776Z</time></trkpt><trkpt lat="45.8689202" lon="11.7924494"><ele>1595.0</ele><time>2026-04-26T15:47:36.772Z</time></trkpt><trkpt lat="45.8688409" lon="11.7925065"><ele>1594.9999999999998</ele><time>2026-04-26T15:47:37.771Z</time></trkpt><trkpt lat="45.8687687" lon="11.7925672"><ele>1595.0</ele><time>2026-04-26T15:47:38.767Z</time></trkpt><trkpt lat="45.8687034" lon="11.7926338"><ele>1595.0</ele><time>2026-04-26T15:47:39.768Z</time></trkpt><trkpt lat="45.8686443" lon="11.7927111"><ele>1595.0</ele><time>2026-04-26T15:47:40.765Z</time></trkpt><trkpt lat="45.8685959" lon="11.792797"><ele>1594.9999999999998</ele><time>2026-04-26T15:47:41.768Z</time></trkpt><trkpt lat="45.8685591" lon="11.7928918"><ele>1595.0</ele><time>2026-04-26T15:47:42.756Z</time></trkpt><trkpt lat="45.8685334" lon="11.7929977"><ele>1595.8333333333333</ele><time>2026-04-26T15:47:43.772Z</time></trkpt><trkpt lat="45.8685115" lon="11.7931075"><ele>1596.6666666666665</ele><time>2026-04-26T15:47:44.768Z</time></trkpt><trkpt lat="45.8684938" lon="11.7932173"><ele>1597.5</ele><time>2026-04-26T15:47:45.767Z</time></trkpt><trkpt lat="45.8684751" lon="11.7933356"><ele>1598.3333333333335</ele><time>2026-04-26T15:47:46.768Z</time></trkpt><trkpt lat="45.8684572" lon="11.7934631"><ele>1599.1666666666667</ele><time>2026-04-26T15:47:47.766Z</time></trkpt><trkpt lat="45.868437" lon="11.7935926"><ele>1600.0</ele><time>2026-04-26T15:47:48.768Z</time></trkpt><trkpt lat="45.8684166" lon="11.7937221"><ele>1600.0000000000002</ele><time>2026-04-26T15:47:49.765Z</time></trkpt><trkpt lat="45.8683968" lon="11.7938426"><ele>1600.0</ele><time>2026-04-26T15:47:50.755Z</time></trkpt><trkpt lat="45.8683804" lon="11.7939608"><ele>1600.0</ele><time>2026-04-26T15:47:51.743Z</time></trkpt><trkpt lat="45.8683722" lon="11.7940788"><ele>1600.0</ele><time>2026-04-26T15:47:52.76Z</time></trkpt><trkpt lat="45.8683722" lon="11.7941966"><ele>1600.0000000000002</ele><time>2026-04-26T15:47:53.769Z</time></trkpt><trkpt lat="45.8683761" lon="11.7943163"><ele>1600.0</ele><time>2026-04-26T15:47:54.765Z</time></trkpt><trkpt lat="45.8683804" lon="11.794438"><ele>1602.0000000000002</ele><time>2026-04-26T15:47:55.757Z</time></trkpt><trkpt lat="45.8683853" lon="11.7945606"><ele>1604.0</ele><time>2026-04-26T15:47:56.768Z</time></trkpt><trkpt lat="45.8683905" lon="11.7946823"><ele>1606.0</ele><time>2026-04-26T15:47:57.764Z</time></trkpt><trkpt lat="45.868396" lon="11.7948032"><ele>1608.0</ele><time>2026-04-26T15:47:58.772Z</time></trkpt><trkpt lat="45.8684017" lon="11.794921"><ele>1610.0000000000002</ele><time>2026-04-26T15:47:59.765Z</time></trkpt><trkpt lat="45.8684009" lon="11.7950343"><ele>1612.0</ele><time>2026-04-26T15:48:00.769Z</time></trkpt><trkpt lat="45.8683815" lon="11.7951414"><ele>1614.5000000000002</ele><time>2026-04-26T15:48:01.772Z</time></trkpt><trkpt lat="45.8683422" lon="11.7952375"><ele>1617.0</ele><time>2026-04-26T15:48:02.753Z</time></trkpt><trkpt lat="45.8682833" lon="11.7953127"><ele>1619.5</ele><time>2026-04-26T15:48:03.762Z</time></trkpt><trkpt lat="45.8682166" lon="11.7953735"><ele>1622.0</ele><time>2026-04-26T15:48:04.762Z</time></trkpt><trkpt lat="45.8681524" lon="11.7954365"><ele>1624.5000000000002</ele><time>2026-04-26T15:48:05.766Z</time></trkpt><trkpt lat="45.8680968" lon="11.7955126"><ele>1627.0</ele><time>2026-04-26T15:48:06.777Z</time></trkpt><trkpt lat="45.868046" lon="11.7955865"><ele>1626.9999999999998</ele><time>2026-04-26T15:48:07.767Z</time></trkpt><trkpt lat="45.8680068" lon="11.7956854"><ele>1627.0</ele><time>2026-04-26T15:48:08.765Z</time></trkpt><trkpt lat="45.8679801" lon="11.7957879"><ele>1627.0</ele><time>2026-04-26T15:48:09.763Z</time></trkpt><trkpt lat="45.8679547" lon="11.7958791"><ele>1627.0</ele><time>2026-04-26T15:48:10.762Z</time></trkpt><trkpt lat="45.8679309" lon="11.7959704"><ele>1627.0</ele><time>2026-04-26T15:48:11.761Z</time></trkpt><trkpt lat="45.8679005" lon="11.7960639"><ele>1626.9999999999998</ele><time>2026-04-26T15:48:12.762Z</time></trkpt><trkpt lat="45.8678596" lon="11.7961559"><ele>1627.0</ele><time>2026-04-26T15:48:13.757Z</time></trkpt><trkpt lat="45.8678058" lon="11.7962404"><ele>1627.3333333333335</ele><time>2026-04-26T15:48:14.752Z</time></trkpt><trkpt lat="45.8677436" lon="11.7963293"><ele>1627.6666666666667</ele><time>2026-04-26T15:48:15.774Z</time></trkpt><trkpt lat="45.8676892" lon="11.7964325"><ele>1628.0</ele><time>2026-04-26T15:48:16.773Z</time></trkpt><trkpt lat="45.8676488" lon="11.7965498"><ele>1628.3333333333335</ele><time>2026-04-26T15:48:17.757Z</time></trkpt><trkpt lat="45.8676258" lon="11.7966589"><ele>1628.6666666666667</ele><time>2026-04-26T15:48:18.755Z</time></trkpt><trkpt lat="45.8676059" lon="11.7967725"><ele>1629.0</ele><time>2026-04-26T15:48:19.763Z</time></trkpt><trkpt lat="45.8675806" lon="11.7968904"><ele>1629.0</ele><time>2026-04-26T15:48:20.76Z</time></trkpt><trkpt lat="45.8675566" lon="11.797013"><ele>1629.0</ele><time>2026-04-26T15:48:21.761Z</time></trkpt><trkpt lat="45.8675315" lon="11.7971379"><ele>1629.0</ele><time>2026-04-26T15:48:22.757Z</time></trkpt><trkpt lat="45.8675032" lon="11.7972636"><ele>1629.0</ele><time>2026-04-26T15:48:23.744Z</time></trkpt><trkpt lat="45.8674738" lon="11.7973849"><ele>1629.0</ele><time>2026-04-26T15:48:24.762Z</time></trkpt><trkpt lat="45.8674372" lon="11.7974994"><ele>1629.0</ele><time>2026-04-26T15:48:25.76Z</time></trkpt><trkpt lat="45.8673914" lon="11.7976067"><ele>1634.4</ele><time>2026-04-26T15:48:26.758Z</time></trkpt><trkpt lat="45.8673365" lon="11.7977032"><ele>1639.8000000000002</ele><time>2026-04-26T15:48:27.753Z</time></trkpt><trkpt lat="45.8672672" lon="11.797786"><ele>1645.1999999999998</ele><time>2026-04-26T15:48:28.76Z</time></trkpt><trkpt lat="45.8671796" lon="11.7978512"><ele>1650.6</ele><time>2026-04-26T15:48:29.768Z</time></trkpt><trkpt lat="45.8670836" lon="11.7979062"><ele>1656.0</ele><time>2026-04-26T15:48:30.762Z</time></trkpt><trkpt lat="45.866991" lon="11.7979597"><ele>1656.0</ele><time>2026-04-26T15:48:31.763Z</time></trkpt><trkpt lat="45.8669048" lon="11.7980114"><ele>1656.0</ele><time>2026-04-26T15:48:32.767Z</time></trkpt><trkpt lat="45.8668305" lon="11.7980556"><ele>1656.0</ele><time>2026-04-26T15:48:33.772Z</time></trkpt><trkpt lat="45.8667667" lon="11.7980973"><ele>1656.0</ele><time>2026-04-26T15:48:34.77Z</time></trkpt><trkpt lat="45.86668" lon="11.7981647"><ele>1656.0</ele><time>2026-04-26T15:48:36.766Z</time></trkpt><trkpt lat="45.8667378" lon="11.7981133"><ele>1656.0</ele><time>2026-04-26T15:55:33.758Z</time></trkpt><trkpt lat="45.8668137" lon="11.7980963"><ele>1656.0</ele><time>2026-04-26T15:55:35.758Z</time></trkpt><trkpt lat="45.8669371" lon="11.7980431"><ele>1656.0</ele><time>2026-04-26T15:55:37.758Z</time></trkpt><trkpt lat="45.8670169" lon="11.7979996"><ele>1656.0</ele><time>2026-04-26T15:55:38.768Z</time></trkpt><trkpt lat="45.8671032" lon="11.7979482"><ele>1656.0</ele><time>2026-04-26T15:55:39.748Z</time></trkpt><trkpt lat="45.8671916" lon="11.7978934"><ele>1656.0</ele><time>2026-04-26T15:55:40.752Z</time></trkpt><trkpt lat="45.8672772" lon="11.7978242"><ele>1656.0</ele><time>2026-04-26T15:55:41.768Z</time></trkpt><trkpt lat="45.8673538" lon="11.7977323"><ele>1656.0</ele><time>2026-04-26T15:55:42.756Z</time></trkpt><trkpt lat="45.8674189" lon="11.7976198"><ele>1656.0</ele><time>2026-04-26T15:55:43.753Z</time></trkpt><trkpt lat="45.867467" lon="11.7974903"><ele>1656.0</ele><time>2026-04-26T15:55:44.75Z</time></trkpt><trkpt lat="45.8675011" lon="11.7973477"><ele>1656.0</ele><time>2026-04-26T15:55:45.752Z</time></trkpt><trkpt lat="45.8675306" lon="11.7971997"><ele>1650.8</ele><time>2026-04-26T15:55:46.753Z</time></trkpt><trkpt lat="45.8675614" lon="11.7970487"><ele>1645.6</ele><time>2026-04-26T15:55:47.767Z</time></trkpt><trkpt lat="45.8675945" lon="11.7968982"><ele>1640.4</ele><time>2026-04-26T15:55:48.765Z</time></trkpt><trkpt lat="45.8676265" lon="11.7967468"><ele>1635.2</ele><time>2026-04-26T15:55:49.759Z</time></trkpt><trkpt lat="45.8676638" lon="11.7965943"><ele>1630.0</ele><time>2026-04-26T15:55:50.758Z</time></trkpt><trkpt lat="45.8677201" lon="11.7964514"><ele>1630.0</ele><time>2026-04-26T15:55:51.752Z</time></trkpt><trkpt lat="45.8677971" lon="11.7963262"><ele>1630.0</ele><time>2026-04-26T15:55:52.764Z</time></trkpt><trkpt lat="45.8678748" lon="11.7962032"><ele>1630.0</ele><time>2026-04-26T15:55:53.765Z</time></trkpt><trkpt lat="45.867932" lon="11.7960643"><ele>1630.0</ele><time>2026-04-26T15:55:54.769Z</time></trkpt><trkpt lat="45.8679737" lon="11.7959162"><ele>1629.4</ele><time>2026-04-26T15:55:55.763Z</time></trkpt><trkpt lat="45.8680132" lon="11.7957676"><ele>1628.8</ele><time>2026-04-26T15:55:56.769Z</time></trkpt><trkpt lat="45.8680669" lon="11.7956286"><ele>1628.1999999999998</ele><time>2026-04-26T15:55:57.779Z</time></trkpt><trkpt lat="45.8681383" lon="11.7955077"><ele>1627.6</ele><time>2026-04-26T15:55:58.764Z</time></trkpt><trkpt lat="45.86822" lon="11.7954153"><ele>1627.0</ele><time>2026-04-26T15:55:59.756Z</time></trkpt><trkpt lat="45.8682991" lon="11.79533"><ele>1627.0</ele><time>2026-04-26T15:56:00.773Z</time></trkpt><trkpt lat="45.8683633" lon="11.7952269"><ele>1627.0</ele><time>2026-04-26T15:56:01.766Z</time></trkpt><trkpt lat="45.8684008" lon="11.7950969"><ele>1627.0</ele><time>2026-04-26T15:56:02.755Z</time></trkpt><trkpt lat="45.8684135" lon="11.7949526"><ele>1627.0</ele><time>2026-04-26T15:56:03.746Z</time></trkpt><trkpt lat="45.8684126" lon="11.7948015"><ele>1627.0</ele><time>2026-04-26T15:56:04.754Z</time></trkpt><trkpt lat="45.8684092" lon="11.7946453"><ele>1618.0</ele><time>2026-04-26T15:56:05.762Z</time></trkpt><trkpt lat="45.8683997" lon="11.7943125"><ele>1609.0</ele><time>2026-04-26T15:56:07.764Z</time></trkpt><trkpt lat="45.8683978" lon="11.7941352"><ele>1600.0</ele><time>2026-04-26T15:56:08.752Z</time></trkpt><trkpt lat="45.8684106" lon="11.7939554"><ele>1600.0</ele><time>2026-04-26T15:56:09.762Z</time></trkpt><trkpt lat="45.8684353" lon="11.7937727"><ele>1600.0</ele><time>2026-04-26T15:56:10.764Z</time></trkpt><trkpt lat="45.8684654" lon="11.793587"><ele>1600.0</ele><time>2026-04-26T15:56:11.743Z</time></trkpt><trkpt lat="45.8684949" lon="11.7934091"><ele>1600.0</ele><time>2026-04-26T15:56:12.762Z</time></trkpt><trkpt lat="45.8685207" lon="11.7932432"><ele>1599.0</ele><time>2026-04-26T15:56:13.757Z</time></trkpt><trkpt lat="45.8685492" lon="11.7930832"><ele>1598.0</ele><time>2026-04-26T15:56:14.758Z</time></trkpt><trkpt lat="45.868585" lon="11.7929374"><ele>1597.0</ele><time>2026-04-26T15:56:15.757Z</time></trkpt><trkpt lat="45.8686378" lon="11.792802"><ele>1596.0</ele><time>2026-04-26T15:56:16.762Z</time></trkpt><trkpt lat="45.8687149" lon="11.7926876"><ele>1595.0</ele><time>2026-04-26T15:56:17.756Z</time></trkpt><trkpt lat="45.8688082" lon="11.7925931"><ele>1595.0</ele><time>2026-04-26T15:56:18.76Z</time></trkpt><trkpt lat="45.8689085" lon="11.7925065"><ele>1595.0</ele><time>2026-04-26T15:56:19.77Z</time></trkpt><trkpt lat="45.8690121" lon="11.7924198"><ele>1595.0</ele><time>2026-04-26T15:56:20.761Z</time></trkpt><trkpt lat="45.869119" lon="11.7923314"><ele>1595.0</ele><time>2026-04-26T15:56:21.759Z</time></trkpt><trkpt lat="45.869228" lon="11.792242"><ele>1596.75</ele><time>2026-04-26T15:56:22.768Z</time></trkpt><trkpt lat="45.8693418" lon="11.792147"><ele>1598.5</ele><time>2026-04-26T15:56:23.76Z</time></trkpt><trkpt lat="45.869463" lon="11.7920434"><ele>1600.25</ele><time>2026-04-26T15:56:24.759Z</time></trkpt><trkpt lat="45.8695885" lon="11.7919379"><ele>1602.0</ele><time>2026-04-26T15:56:25.758Z</time></trkpt><trkpt lat="45.8697106" lon="11.7918371"><ele>1604.75</ele><time>2026-04-26T15:56:26.765Z</time></trkpt><trkpt lat="45.8698275" lon="11.791748"><ele>1607.5</ele><time>2026-04-26T15:56:27.764Z</time></trkpt><trkpt lat="45.8699389" lon="11.7916732"><ele>1610.25</ele><time>2026-04-26T15:56:28.773Z</time></trkpt><trkpt lat="45.8700445" lon="11.7916029"><ele>1613.0</ele><time>2026-04-26T15:56:29.768Z</time></trkpt><trkpt lat="45.870134" lon="11.7915114"><ele>1613.0</ele><time>2026-04-26T15:56:30.76Z</time></trkpt><trkpt lat="45.8702025" lon="11.7913887"><ele>1613.0</ele><time>2026-04-26T15:56:31.769Z</time></trkpt><trkpt lat="45.8702439" lon="11.7912395"><ele>1613.0</ele><time>2026-04-26T15:56:32.758Z</time></trkpt><trkpt lat="45.870256" lon="11.7910756"><ele>1613.0</ele><time>2026-04-26T15:56:33.759Z</time></trkpt><trkpt lat="45.8702443" lon="11.7909081"><ele>1612.25</ele><time>2026-04-26T15:56:34.753Z</time></trkpt><trkpt lat="45.8702209" lon="11.7907361"><ele>1611.5</ele><time>2026-04-26T15:56:35.762Z</time></trkpt><trkpt lat="45.8701921" lon="11.7905627"><ele>1610.75</ele><time>2026-04-26T15:56:36.752Z</time></trkpt><trkpt lat="45.8701637" lon="11.7903886"><ele>1610.0</ele><time>2026-04-26T15:56:37.758Z</time></trkpt><trkpt lat="45.8701338" lon="11.790209"><ele>1600.0</ele><time>2026-04-26T15:56:38.758Z</time></trkpt><trkpt lat="45.8701016" lon="11.7900254"><ele>1590.0</ele><time>2026-04-26T15:56:39.752Z</time></trkpt><trkpt lat="45.8700708" lon="11.7898406"><ele>1580.0</ele><time>2026-04-26T15:56:40.759Z</time></trkpt><trkpt lat="45.870044" lon="11.7896487"><ele>1570.0</ele><time>2026-04-26T15:56:41.764Z</time></trkpt><trkpt lat="45.8700234" lon="11.7894519"><ele>1570.0</ele><time>2026-04-26T15:56:42.755Z</time></trkpt><trkpt lat="45.8700071" lon="11.7892493"><ele>1570.0</ele><time>2026-04-26T15:56:43.749Z</time></trkpt><trkpt lat="45.8699912" lon="11.7890464"><ele>1570.0</ele><time>2026-04-26T15:56:44.763Z</time></trkpt><trkpt lat="45.8699745" lon="11.7888412"><ele>1570.0</ele><time>2026-04-26T15:56:45.757Z</time></trkpt><trkpt lat="45.8699574" lon="11.7886387"><ele>1569.5</ele><time>2026-04-26T15:56:46.745Z</time></trkpt><trkpt lat="45.8699401" lon="11.7884373"><ele>1569.0</ele><time>2026-04-26T15:56:47.76Z</time></trkpt><trkpt lat="45.8699243" lon="11.7882417"><ele>1568.5</ele><time>2026-04-26T15:56:48.759Z</time></trkpt><trkpt lat="45.8699102" lon="11.7880537"><ele>1568.0</ele><time>2026-04-26T15:56:49.756Z</time></trkpt><trkpt lat="45.8698989" lon="11.7878726"><ele>1568.0</ele><time>2026-04-26T15:56:50.76Z</time></trkpt><trkpt lat="45.8698926" lon="11.7876906"><ele>1568.0</ele><time>2026-04-26T15:56:51.755Z</time></trkpt><trkpt lat="45.8698908" lon="11.7875059"><ele>1568.0</ele><time>2026-04-26T15:56:52.763Z</time></trkpt><trkpt lat="45.8698704" lon="11.7873248"><ele>1568.0</ele><time>2026-04-26T15:56:53.766Z</time></trkpt><trkpt lat="45.8698243" lon="11.7871514"><ele>1566.5</ele><time>2026-04-26T15:56:54.764Z</time></trkpt><trkpt lat="45.869762" lon="11.7869873"><ele>1565.0</ele><time>2026-04-26T15:56:55.751Z</time></trkpt><trkpt lat="45.8696955" lon="11.786832"><ele>1563.5</ele><time>2026-04-26T15:56:56.748Z</time></trkpt><trkpt lat="45.8696338" lon="11.7866796"><ele>1562.0</ele><time>2026-04-26T15:56:57.752Z</time></trkpt><trkpt lat="45.8695833" lon="11.7865264"><ele>1561.6</ele><time>2026-04-26T15:56:58.751Z</time></trkpt><trkpt lat="45.8695485" lon="11.786371"><ele>1561.1999999999998</ele><time>2026-04-26T15:56:59.758Z</time></trkpt><trkpt lat="45.8695327" lon="11.7862155"><ele>1560.8</ele><time>2026-04-26T15:57:00.762Z</time></trkpt><trkpt lat="45.8695181" lon="11.7860716"><ele>1560.4</ele><time>2026-04-26T15:57:01.763Z</time></trkpt><trkpt lat="45.869491" lon="11.7859566"><ele>1560.0</ele><time>2026-04-26T15:57:02.765Z</time></trkpt><trkpt lat="45.8694395" lon="11.7858783"><ele>1560.0</ele><time>2026-04-26T15:57:03.738Z</time></trkpt><trkpt lat="45.8693538" lon="11.7858279"><ele>1560.0</ele><time>2026-04-26T15:57:05.753Z</time></trkpt><trkpt lat="45.8692896" lon="11.7858219"><ele>1560.0</ele><time>2026-04-26T15:57:09.757Z</time></trkpt><trkpt lat="45.86927" lon="11.7859484"><ele>1560.0</ele><time>2026-04-26T15:57:12.747Z</time></trkpt><trkpt lat="45.8693062" lon="11.7861202"><ele>1560.0</ele><time>2026-04-26T15:57:14.754Z</time></trkpt><trkpt lat="45.8693322" lon="11.786232"><ele>1560.0</ele><time>2026-04-26T15:57:15.765Z</time></trkpt><trkpt lat="45.8693557" lon="11.7863614"><ele>1560.0</ele><time>2026-04-26T15:57:16.766Z</time></trkpt><trkpt lat="45.8693752" lon="11.7865045"><ele>1560.0</ele><time>2026-04-26T15:57:17.764Z</time></trkpt><trkpt lat="45.8693966" lon="11.7866545"><ele>1560.0</ele><time>2026-04-26T15:57:18.751Z</time></trkpt><trkpt lat="45.8694213" lon="11.7868096"><ele>1560.0</ele><time>2026-04-26T15:57:19.761Z</time></trkpt><trkpt lat="45.8694523" lon="11.786964"><ele>1560.4</ele><time>2026-04-26T15:57:20.769Z</time></trkpt><trkpt lat="45.8694872" lon="11.7871118"><ele>1560.8</ele><time>2026-04-26T15:57:21.757Z</time></trkpt><trkpt lat="45.8695012" lon="11.7872608"><ele>1561.1999999999998</ele><time>2026-04-26T15:57:22.75Z</time></trkpt><trkpt lat="45.8694768" lon="11.7873995"><ele>1561.6</ele><time>2026-04-26T15:57:23.749Z</time></trkpt><trkpt lat="45.869419" lon="11.7875203"><ele>1562.0</ele><time>2026-04-26T15:57:24.744Z</time></trkpt><trkpt lat="45.8693617" lon="11.7876425"><ele>1563.1999999999998</ele><time>2026-04-26T15:57:25.758Z</time></trkpt><trkpt lat="45.8693377" lon="11.7877912"><ele>1564.4</ele><time>2026-04-26T15:57:26.76Z</time></trkpt><trkpt lat="45.8693292" lon="11.787949"><ele>1565.6</ele><time>2026-04-26T15:57:27.759Z</time></trkpt><trkpt lat="45.8693225" lon="11.78811"><ele>1566.8000000000002</ele><time>2026-04-26T15:57:28.76Z</time></trkpt><trkpt lat="45.8693155" lon="11.7882704"><ele>1568.0</ele><time>2026-04-26T15:57:29.757Z</time></trkpt><trkpt lat="45.8693096" lon="11.7884283"><ele>1568.4</ele><time>2026-04-26T15:57:30.756Z</time></trkpt><trkpt lat="45.8693001" lon="11.7885832"><ele>1568.8000000000002</ele><time>2026-04-26T15:57:31.76Z</time></trkpt><trkpt lat="45.8692693" lon="11.7887245"><ele>1569.2</ele><time>2026-04-26T15:57:32.745Z</time></trkpt><trkpt lat="45.8692052" lon="11.7888375"><ele>1569.6</ele><time>2026-04-26T15:57:33.755Z</time></trkpt><trkpt lat="45.8691129" lon="11.7889075"><ele>1570.0</ele><time>2026-04-26T15:57:34.754Z</time></trkpt><trkpt lat="45.8690079" lon="11.7889298"><ele>1562.6</ele><time>2026-04-26T15:57:35.752Z</time></trkpt><trkpt lat="45.868901" lon="11.7889322"><ele>1555.2</ele><time>2026-04-26T15:57:36.756Z</time></trkpt><trkpt lat="45.8687984" lon="11.7889452"><ele>1547.8000000000002</ele><time>2026-04-26T15:57:37.756Z</time></trkpt><trkpt lat="45.8687049" lon="11.7889719"><ele>1540.4</ele><time>2026-04-26T15:57:38.76Z</time></trkpt><trkpt lat="45.8686244" lon="11.7890016"><ele>1533.0</ele><time>2026-04-26T15:57:39.763Z</time></trkpt><trkpt lat="45.8685569" lon="11.7890244"><ele>1533.0</ele><time>2026-04-26T15:57:40.747Z</time></trkpt><trkpt lat="45.868504" lon="11.7889732"><ele>1533.0</ele><time>2026-04-26T15:57:41.753Z</time></trkpt><trkpt lat="45.8684868" lon="11.7888844"><ele>1533.0</ele><time>2026-04-26T15:57:42.766Z</time></trkpt><trkpt lat="45.8685128" lon="11.7888019"><ele>1533.0</ele><time>2026-04-26T15:57:43.743Z</time></trkpt><trkpt lat="45.8685721" lon="11.7887574"><ele>1533.0</ele><time>2026-04-26T15:57:44.759Z</time></trkpt><trkpt lat="45.8686525" lon="11.788736"><ele>1533.0</ele><time>2026-04-26T15:57:45.754Z</time></trkpt><trkpt lat="45.8687463" lon="11.7887314"><ele>1533.0</ele><time>2026-04-26T15:57:46.741Z</time></trkpt><trkpt lat="45.8688458" lon="11.7887297"><ele>1533.0</ele><time>2026-04-26T15:57:47.741Z</time></trkpt><trkpt lat="45.8689396" lon="11.788699"><ele>1533.0</ele><time>2026-04-26T15:57:48.756Z</time></trkpt><trkpt lat="45.8690151" lon="11.7886187"><ele>1533.0</ele><time>2026-04-26T15:57:49.75Z</time></trkpt><trkpt lat="45.8690616" lon="11.7885011"><ele>1533.0</ele><time>2026-04-26T15:57:50.734Z</time></trkpt><trkpt lat="45.8690689" lon="11.7883658"><ele>1533.0</ele><time>2026-04-26T15:57:51.753Z</time></trkpt><trkpt lat="45.8690381" lon="11.7882303"><ele>1531.0</ele><time>2026-04-26T15:57:52.753Z</time></trkpt><trkpt lat="45.8689752" lon="11.7881039"><ele>1529.0</ele><time>2026-04-26T15:57:53.757Z</time></trkpt><trkpt lat="45.8688913" lon="11.7879825"><ele>1527.0</ele><time>2026-04-26T15:57:54.758Z</time></trkpt><trkpt lat="45.8687998" lon="11.787854"><ele>1525.0</ele><time>2026-04-26T15:57:55.75Z</time></trkpt><trkpt lat="45.8687142" lon="11.7877268"><ele>1525.0</ele><time>2026-04-26T15:57:56.763Z</time></trkpt><trkpt lat="45.8686297" lon="11.7876049"><ele>1525.0</ele><time>2026-04-26T15:57:57.758Z</time></trkpt><trkpt lat="45.8685353" lon="11.787498"><ele>1525.0</ele><time>2026-04-26T15:57:58.766Z</time></trkpt><trkpt lat="45.8684256" lon="11.787425"><ele>1525.0</ele><time>2026-04-26T15:57:59.762Z</time></trkpt><trkpt lat="45.8683043" lon="11.7873877"><ele>1519.75</ele><time>2026-04-26T15:58:00.756Z</time></trkpt><trkpt lat="45.8681799" lon="11.7873699"><ele>1514.5</ele><time>2026-04-26T15:58:01.764Z</time></trkpt><trkpt lat="45.8680522" lon="11.7873554"><ele>1509.25</ele><time>2026-04-26T15:58:02.755Z</time></trkpt><trkpt lat="45.8679258" lon="11.78734"><ele>1504.0</ele><time>2026-04-26T15:58:03.763Z</time></trkpt><trkpt lat="45.8678022" lon="11.7873268"><ele>1504.0</ele><time>2026-04-26T15:58:04.76Z</time></trkpt><trkpt lat="45.867682" lon="11.7873141"><ele>1504.0</ele><time>2026-04-26T15:58:05.754Z</time></trkpt><trkpt lat="45.8675684" lon="11.787293"><ele>1504.0</ele><time>2026-04-26T15:58:06.755Z</time></trkpt><trkpt lat="45.8674635" lon="11.7872428"><ele>1504.0</ele><time>2026-04-26T15:58:07.761Z</time></trkpt><trkpt lat="45.8673713" lon="11.7871568"><ele>1503.6</ele><time>2026-04-26T15:58:08.756Z</time></trkpt><trkpt lat="45.8672983" lon="11.7870377"><ele>1503.2</ele><time>2026-04-26T15:58:09.754Z</time></trkpt><trkpt lat="45.8672496" lon="11.7868957"><ele>1502.8</ele><time>2026-04-26T15:58:10.758Z</time></trkpt><trkpt lat="45.8672167" lon="11.7867451"><ele>1502.3999999999999</ele><time>2026-04-26T15:58:11.751Z</time></trkpt><trkpt lat="45.8671921" lon="11.7865879"><ele>1502.0</ele><time>2026-04-26T15:58:12.751Z</time></trkpt><trkpt lat="45.8671865" lon="11.786426"><ele>1502.0</ele><time>2026-04-26T15:58:13.76Z</time></trkpt><trkpt lat="45.8672088" lon="11.7862651"><ele>1502.0</ele><time>2026-04-26T15:58:14.755Z</time></trkpt><trkpt lat="45.8672511" lon="11.7861119"><ele>1502.0</ele><time>2026-04-26T15:58:15.765Z</time></trkpt><trkpt lat="45.8673097" lon="11.7859684"><ele>1502.0</ele><time>2026-04-26T15:58:16.759Z</time></trkpt><trkpt lat="45.8673807" lon="11.7858357"><ele>1500.25</ele><time>2026-04-26T15:58:17.763Z</time></trkpt><trkpt lat="45.8674539" lon="11.7857084"><ele>1498.5</ele><time>2026-04-26T15:58:18.759Z</time></trkpt><trkpt lat="45.8675114" lon="11.7855677"><ele>1496.75</ele><time>2026-04-26T15:58:19.765Z</time></trkpt><trkpt lat="45.8675409" lon="11.7854105"><ele>1495.0</ele><time>2026-04-26T15:58:20.756Z</time></trkpt><trkpt lat="45.867548" lon="11.7852453"><ele>1492.5</ele><time>2026-04-26T15:58:21.754Z</time></trkpt><trkpt lat="45.867544" lon="11.7850764"><ele>1490.0</ele><time>2026-04-26T15:58:22.764Z</time></trkpt><trkpt lat="45.8675363" lon="11.7849047"><ele>1487.5</ele><time>2026-04-26T15:58:23.758Z</time></trkpt><trkpt lat="45.8675269" lon="11.7847337"><ele>1485.0</ele><time>2026-04-26T15:58:24.766Z</time></trkpt><trkpt lat="45.8675242" lon="11.7845702"><ele>1485.0</ele><time>2026-04-26T15:58:25.772Z</time></trkpt><trkpt lat="45.8675474" lon="11.7844139"><ele>1485.0</ele><time>2026-04-26T15:58:26.758Z</time></trkpt><trkpt lat="45.8676042" lon="11.7842788"><ele>1485.0</ele><time>2026-04-26T15:58:27.755Z</time></trkpt><trkpt lat="45.8676839" lon="11.7841631"><ele>1485.0</ele><time>2026-04-26T15:58:28.753Z</time></trkpt><trkpt lat="45.8677582" lon="11.7840558"><ele>1485.0</ele><time>2026-04-26T15:58:29.755Z</time></trkpt><trkpt lat="45.867827" lon="11.7839553"><ele>1483.0</ele><time>2026-04-26T15:58:30.755Z</time></trkpt><trkpt lat="45.8678537" lon="11.7838381"><ele>1481.0</ele><time>2026-04-26T15:58:31.755Z</time></trkpt><trkpt lat="45.8678246" lon="11.7837125"><ele>1479.0</ele><time>2026-04-26T15:58:32.758Z</time></trkpt><trkpt lat="45.8677641" lon="11.7835983"><ele>1477.0</ele><time>2026-04-26T15:58:33.75Z</time></trkpt><trkpt lat="45.8676881" lon="11.7834976"><ele>1475.0</ele><time>2026-04-26T15:58:34.76Z</time></trkpt><trkpt lat="45.8676081" lon="11.783392"><ele>1475.0</ele><time>2026-04-26T15:58:35.761Z</time></trkpt><trkpt lat="45.8675241" lon="11.7833012"><ele>1475.0</ele><time>2026-04-26T15:58:36.756Z</time></trkpt><trkpt lat="45.8674362" lon="11.7832108"><ele>1475.0</ele><time>2026-04-26T15:58:37.762Z</time></trkpt><trkpt lat="45.8673476" lon="11.7831097"><ele>1475.0</ele><time>2026-04-26T15:58:38.764Z</time></trkpt><trkpt lat="45.8672467" lon="11.783005"><ele>1475.0</ele><time>2026-04-26T15:58:39.761Z</time></trkpt><trkpt lat="45.8671424" lon="11.7829019"><ele>1475.0</ele><time>2026-04-26T15:58:40.761Z</time></trkpt><trkpt lat="45.8670358" lon="11.7827992"><ele>1475.0</ele><time>2026-04-26T15:58:41.755Z</time></trkpt><trkpt lat="45.8669253" lon="11.7826879"><ele>1475.0</ele><time>2026-04-26T15:58:42.746Z</time></trkpt><trkpt lat="45.8668141" lon="11.7825756"><ele>1471.25</ele><time>2026-04-26T15:58:43.757Z</time></trkpt><trkpt lat="45.8667133" lon="11.7824438"><ele>1467.5</ele><time>2026-04-26T15:58:44.748Z</time></trkpt><trkpt lat="45.8666141" lon="11.7823134"><ele>1463.75</ele><time>2026-04-26T15:58:45.751Z</time></trkpt><trkpt lat="45.8665487" lon="11.7821588"><ele>1460.0</ele><time>2026-04-26T15:58:46.759Z</time></trkpt><trkpt lat="45.8665218" lon="11.7819898"><ele>1461.25</ele><time>2026-04-26T15:58:47.747Z</time></trkpt><trkpt lat="45.866544" lon="11.7818002"><ele>1462.5</ele><time>2026-04-26T15:58:48.754Z</time></trkpt><trkpt lat="45.8665768" lon="11.781624"><ele>1463.75</ele><time>2026-04-26T15:58:49.76Z</time></trkpt><trkpt lat="45.8666065" lon="11.7814474"><ele>1465.0</ele><time>2026-04-26T15:58:50.75Z</time></trkpt><trkpt lat="45.8665768" lon="11.7812779"><ele>1465.0</ele><time>2026-04-26T15:58:51.757Z</time></trkpt><trkpt lat="45.8665319" lon="11.7811207"><ele>1465.0</ele><time>2026-04-26T15:58:52.766Z</time></trkpt><trkpt lat="45.866494" lon="11.7809544"><ele>1465.0</ele><time>2026-04-26T15:58:53.767Z</time></trkpt><trkpt lat="45.8664546" lon="11.7807855"><ele>1465.0</ele><time>2026-04-26T15:58:54.763Z</time></trkpt><trkpt lat="45.8664328" lon="11.7806066"><ele>1465.0</ele><time>2026-04-26T15:58:55.748Z</time></trkpt><trkpt lat="45.8664118" lon="11.7804286"><ele>1465.0</ele><time>2026-04-26T15:58:56.761Z</time></trkpt><trkpt lat="45.8663911" lon="11.7802605"><ele>1465.0</ele><time>2026-04-26T15:58:57.757Z</time></trkpt><trkpt lat="45.8663739" lon="11.7801028"><ele>1465.0</ele><time>2026-04-26T15:58:58.767Z</time></trkpt><trkpt lat="45.866372" lon="11.7799311"><ele>1464.5</ele><time>2026-04-26T15:58:59.759Z</time></trkpt><trkpt lat="45.8663986" lon="11.7797559"><ele>1464.0</ele><time>2026-04-26T15:59:00.76Z</time></trkpt><trkpt lat="45.8664282" lon="11.7795769"><ele>1463.5</ele><time>2026-04-26T15:59:01.758Z</time></trkpt><trkpt lat="45.8664749" lon="11.7794123"><ele>1463.0</ele><time>2026-04-26T15:59:02.77Z</time></trkpt><trkpt lat="45.8665062" lon="11.7792343"><ele>1460.75</ele><time>2026-04-26T15:59:03.763Z</time></trkpt><trkpt lat="45.8665234" lon="11.7790548"><ele>1458.5</ele><time>2026-04-26T15:59:04.746Z</time></trkpt><trkpt lat="45.8665334" lon="11.778874"><ele>1456.25</ele><time>2026-04-26T15:59:05.772Z</time></trkpt><trkpt lat="45.866538" lon="11.7786939"><ele>1454.0</ele><time>2026-04-26T15:59:06.764Z</time></trkpt><trkpt lat="45.8665394" lon="11.778511"><ele>1452.0</ele><time>2026-04-26T15:59:07.764Z</time></trkpt><trkpt lat="45.8665387" lon="11.7783333"><ele>1450.0</ele><time>2026-04-26T15:59:08.764Z</time></trkpt><trkpt lat="45.8665512" lon="11.7781557"><ele>1448.0</ele><time>2026-04-26T15:59:09.764Z</time></trkpt><trkpt lat="45.8665662" lon="11.7779762"><ele>1446.0</ele><time>2026-04-26T15:59:10.741Z</time></trkpt><trkpt lat="45.8666059" lon="11.7778098"><ele>1444.25</ele><time>2026-04-26T15:59:11.747Z</time></trkpt><trkpt lat="45.8666491" lon="11.7776364"><ele>1442.5</ele><time>2026-04-26T15:59:12.752Z</time></trkpt><trkpt lat="45.8666876" lon="11.7774618"><ele>1440.75</ele><time>2026-04-26T15:59:13.761Z</time></trkpt><trkpt lat="45.8667187" lon="11.7772809"><ele>1439.0</ele><time>2026-04-26T15:59:14.76Z</time></trkpt><trkpt lat="45.8667462" lon="11.7770991"><ele>1439.0</ele><time>2026-04-26T15:59:15.76Z</time></trkpt><trkpt lat="45.8667769" lon="11.7769163"><ele>1439.0</ele><time>2026-04-26T15:59:16.764Z</time></trkpt><trkpt lat="45.8668139" lon="11.7767357"><ele>1439.0</ele><time>2026-04-26T15:59:17.759Z</time></trkpt><trkpt lat="45.8668531" lon="11.7765503"><ele>1439.0</ele><time>2026-04-26T15:59:18.759Z</time></trkpt><trkpt lat="45.8668886" lon="11.7763615"><ele>1443.5</ele><time>2026-04-26T15:59:19.761Z</time></trkpt><trkpt lat="45.8669159" lon="11.7761669"><ele>1448.0</ele><time>2026-04-26T15:59:20.765Z</time></trkpt><trkpt lat="45.8669317" lon="11.7759707"><ele>1452.5</ele><time>2026-04-26T15:59:21.764Z</time></trkpt><trkpt lat="45.8669398" lon="11.7757727"><ele>1457.0</ele><time>2026-04-26T15:59:22.76Z</time></trkpt><trkpt lat="45.8669461" lon="11.7755801"><ele>1457.0</ele><time>2026-04-26T15:59:23.758Z</time></trkpt><trkpt lat="45.8669518" lon="11.7753907"><ele>1457.0</ele><time>2026-04-26T15:59:24.775Z</time></trkpt><trkpt lat="45.8669581" lon="11.7751987"><ele>1457.0</ele><time>2026-04-26T15:59:25.761Z</time></trkpt><trkpt lat="45.8669536" lon="11.7750086"><ele>1457.0</ele><time>2026-04-26T15:59:26.762Z</time></trkpt><trkpt lat="45.8669332" lon="11.7748212"><ele>1456.5</ele><time>2026-04-26T15:59:27.76Z</time></trkpt><trkpt lat="45.8669113" lon="11.7746351"><ele>1456.0</ele><time>2026-04-26T15:59:28.742Z</time></trkpt><trkpt lat="45.8668572" lon="11.7744624"><ele>1455.5</ele><time>2026-04-26T15:59:29.755Z</time></trkpt><trkpt lat="45.8667882" lon="11.7742973"><ele>1455.0</ele><time>2026-04-26T15:59:30.748Z</time></trkpt><trkpt lat="45.8667151" lon="11.7741771"><ele>1450.0</ele><time>2026-04-26T15:59:31.755Z</time></trkpt><trkpt lat="45.8666437" lon="11.7740684"><ele>1445.0</ele><time>2026-04-26T15:59:32.759Z</time></trkpt><trkpt lat="45.8665614" lon="11.7740128"><ele>1440.0</ele><time>2026-04-26T15:59:33.757Z</time></trkpt><trkpt lat="45.8664699" lon="11.7739917"><ele>1435.0</ele><time>2026-04-26T15:59:34.755Z</time></trkpt><trkpt lat="45.8663852" lon="11.7740309"><ele>1430.0</ele><time>2026-04-26T15:59:35.752Z</time></trkpt><trkpt lat="45.8662942" lon="11.7740879"><ele>1430.0</ele><time>2026-04-26T15:59:36.753Z</time></trkpt><trkpt lat="45.8662367" lon="11.7742391"><ele>1430.0</ele><time>2026-04-26T15:59:37.754Z</time></trkpt><trkpt lat="45.8661833" lon="11.7744138"><ele>1430.0</ele><time>2026-04-26T15:59:38.764Z</time></trkpt><trkpt lat="45.8661265" lon="11.7746044"><ele>1430.0</ele><time>2026-04-26T15:59:39.763Z</time></trkpt><trkpt lat="45.8660575" lon="11.7748043"><ele>1426.0</ele><time>2026-04-26T15:59:40.743Z</time></trkpt><trkpt lat="45.8659602" lon="11.774991"><ele>1422.0</ele><time>2026-04-26T15:59:41.751Z</time></trkpt><trkpt lat="45.8658589" lon="11.7751787"><ele>1418.0</ele><time>2026-04-26T15:59:42.752Z</time></trkpt><trkpt lat="45.8657545" lon="11.7753641"><ele>1413.0</ele><time>2026-04-26T15:59:43.755Z</time></trkpt><trkpt lat="45.8656537" lon="11.7755554"><ele>1408.0</ele><time>2026-04-26T15:59:44.759Z</time></trkpt><trkpt lat="45.8655444" lon="11.775736"><ele>1403.0</ele><time>2026-04-26T15:59:45.76Z</time></trkpt><trkpt lat="45.8654308" lon="11.7759109"><ele>1402.0</ele><time>2026-04-26T15:59:46.758Z</time></trkpt><trkpt lat="45.865306" lon="11.7760691"><ele>1401.0</ele><time>2026-04-26T15:59:47.756Z</time></trkpt><trkpt lat="45.8651822" lon="11.7762321"><ele>1400.0</ele><time>2026-04-26T15:59:48.761Z</time></trkpt><trkpt lat="45.865061" lon="11.7763871"><ele>1399.6666666666667</ele><time>2026-04-26T15:59:49.752Z</time></trkpt><trkpt lat="45.8649404" lon="11.7765522"><ele>1399.3333333333333</ele><time>2026-04-26T15:59:50.748Z</time></trkpt><trkpt lat="45.8648296" lon="11.7767208"><ele>1399.0</ele><time>2026-04-26T15:59:51.749Z</time></trkpt><trkpt lat="45.8647256" lon="11.7768897"><ele>1395.3333333333333</ele><time>2026-04-26T15:59:52.758Z</time></trkpt><trkpt lat="45.8646245" lon="11.7770551"><ele>1391.6666666666667</ele><time>2026-04-26T15:59:53.772Z</time></trkpt><trkpt lat="45.8645256" lon="11.7772161"><ele>1388.0</ele><time>2026-04-26T15:59:54.763Z</time></trkpt><trkpt lat="45.8644225" lon="11.7773673"><ele>1388.0</ele><time>2026-04-26T15:59:55.765Z</time></trkpt><trkpt lat="45.8643074" lon="11.7775031"><ele>1388.0</ele><time>2026-04-26T15:59:56.758Z</time></trkpt><trkpt lat="45.8641812" lon="11.7776205"><ele>1388.0</ele><time>2026-04-26T15:59:57.759Z</time></trkpt><trkpt lat="45.8640498" lon="11.7776998"><ele>1388.0</ele><time>2026-04-26T15:59:58.76Z</time></trkpt><trkpt lat="45.8639204" lon="11.7777421"><ele>1388.25</ele><time>2026-04-26T15:59:59.762Z</time></trkpt><trkpt lat="45.8638016" lon="11.7777548"><ele>1388.5</ele><time>2026-04-26T16:00:00.739Z</time></trkpt><trkpt lat="45.8636805" lon="11.7777138"><ele>1388.75</ele><time>2026-04-26T16:00:01.752Z</time></trkpt><trkpt lat="45.8635738" lon="11.7776219"><ele>1389.0</ele><time>2026-04-26T16:00:02.749Z</time></trkpt><trkpt lat="45.8634908" lon="11.7774881"><ele>1386.75</ele><time>2026-04-26T16:00:03.768Z</time></trkpt><trkpt lat="45.8634143" lon="11.7773424"><ele>1384.5</ele><time>2026-04-26T16:00:04.759Z</time></trkpt><trkpt lat="45.8633218" lon="11.7772282"><ele>1382.25</ele><time>2026-04-26T16:00:05.754Z</time></trkpt><trkpt lat="45.8632062" lon="11.7771587"><ele>1380.0</ele><time>2026-04-26T16:00:06.755Z</time></trkpt><trkpt lat="45.8630824" lon="11.7771196"><ele>1380.0</ele><time>2026-04-26T16:00:07.76Z</time></trkpt><trkpt lat="45.862963" lon="11.7770559"><ele>1380.0</ele><time>2026-04-26T16:00:08.767Z</time></trkpt><trkpt lat="45.8628557" lon="11.7769512"><ele>1380.0</ele><time>2026-04-26T16:00:09.764Z</time></trkpt><trkpt lat="45.8627554" lon="11.7768253"><ele>1380.0</ele><time>2026-04-26T16:00:10.762Z</time></trkpt><trkpt lat="45.8626505" lon="11.7766927"><ele>1376.6666666666667</ele><time>2026-04-26T16:00:11.756Z</time></trkpt><trkpt lat="45.862537" lon="11.7765562"><ele>1373.3333333333335</ele><time>2026-04-26T16:00:12.763Z</time></trkpt><trkpt lat="45.8624152" lon="11.7764174"><ele>1370.0</ele><time>2026-04-26T16:00:13.747Z</time></trkpt><trkpt lat="45.8622899" lon="11.7762718"><ele>1370.0</ele><time>2026-04-26T16:00:14.777Z</time></trkpt><trkpt lat="45.8621695" lon="11.7761272"><ele>1370.0</ele><time>2026-04-26T16:00:15.754Z</time></trkpt><trkpt lat="45.8620633" lon="11.7759755"><ele>1370.0</ele><time>2026-04-26T16:00:16.761Z</time></trkpt><trkpt lat="45.8619671" lon="11.7758117"><ele>1367.0</ele><time>2026-04-26T16:00:17.753Z</time></trkpt><trkpt lat="45.8619088" lon="11.7756193"><ele>1364.0</ele><time>2026-04-26T16:00:18.755Z</time></trkpt><trkpt lat="45.8618537" lon="11.7754151"><ele>1361.0</ele><time>2026-04-26T16:00:19.76Z</time></trkpt><trkpt lat="45.8617965" lon="11.7752257"><ele>1358.0</ele><time>2026-04-26T16:00:20.757Z</time></trkpt><trkpt lat="45.8617497" lon="11.7750425"><ele>1358.0</ele><time>2026-04-26T16:00:21.761Z</time></trkpt><trkpt lat="45.8617274" lon="11.7748531"><ele>1358.0</ele><time>2026-04-26T16:00:22.736Z</time></trkpt><trkpt lat="45.8617283" lon="11.7746579"><ele>1358.0</ele><time>2026-04-26T16:00:23.743Z</time></trkpt><trkpt lat="45.8617455" lon="11.7744618"><ele>1358.0</ele><time>2026-04-26T16:00:24.75Z</time></trkpt><trkpt lat="45.8617698" lon="11.7742641"><ele>1357.0</ele><time>2026-04-26T16:00:25.755Z</time></trkpt><trkpt lat="45.8617923" lon="11.7740624"><ele>1356.0</ele><time>2026-04-26T16:00:26.736Z</time></trkpt><trkpt lat="45.8617993" lon="11.7738603"><ele>1355.0</ele><time>2026-04-26T16:00:27.747Z</time></trkpt><trkpt lat="45.8617772" lon="11.7736575"><ele>1354.0</ele><time>2026-04-26T16:00:28.748Z</time></trkpt><trkpt lat="45.8617323" lon="11.7734579"><ele>1353.5</ele><time>2026-04-26T16:00:29.755Z</time></trkpt><trkpt lat="45.8616757" lon="11.7732562"><ele>1353.0</ele><time>2026-04-26T16:00:30.749Z</time></trkpt><trkpt lat="45.8616227" lon="11.7730538"><ele>1352.5</ele><time>2026-04-26T16:00:31.763Z</time></trkpt><trkpt lat="45.8615739" lon="11.7728578"><ele>1352.0</ele><time>2026-04-26T16:00:32.764Z</time></trkpt><trkpt lat="45.8615315" lon="11.7726507"><ele>1351.25</ele><time>2026-04-26T16:00:33.756Z</time></trkpt><trkpt lat="45.8615016" lon="11.7724459"><ele>1350.5</ele><time>2026-04-26T16:00:34.748Z</time></trkpt><trkpt lat="45.8614993" lon="11.7722482"><ele>1349.75</ele><time>2026-04-26T16:00:35.749Z</time></trkpt><trkpt lat="45.8615283" lon="11.7720655"><ele>1349.0</ele><time>2026-04-26T16:00:36.757Z</time></trkpt><trkpt lat="45.8615567" lon="11.7718833"><ele>1347.25</ele><time>2026-04-26T16:00:37.754Z</time></trkpt><trkpt lat="45.8616106" lon="11.7717124"><ele>1345.5</ele><time>2026-04-26T16:00:38.751Z</time></trkpt><trkpt lat="45.8616372" lon="11.7715236"><ele>1343.75</ele><time>2026-04-26T16:00:39.767Z</time></trkpt><trkpt lat="45.8616463" lon="11.7713321"><ele>1342.0</ele><time>2026-04-26T16:00:40.758Z</time></trkpt><trkpt lat="45.8616572" lon="11.7711433"><ele>1339.75</ele><time>2026-04-26T16:00:41.756Z</time></trkpt><trkpt lat="45.8616927" lon="11.7709571"><ele>1337.5</ele><time>2026-04-26T16:00:42.765Z</time></trkpt><trkpt lat="45.8617444" lon="11.7707747"><ele>1335.25</ele><time>2026-04-26T16:00:43.748Z</time></trkpt><trkpt lat="45.8618005" lon="11.7705987"><ele>1333.0</ele><time>2026-04-26T16:00:44.743Z</time></trkpt><trkpt lat="45.8618642" lon="11.7704338"><ele>1337.2</ele><time>2026-04-26T16:00:45.757Z</time></trkpt><trkpt lat="45.8619423" lon="11.7702931"><ele>1341.4</ele><time>2026-04-26T16:00:46.763Z</time></trkpt><trkpt lat="45.8620173" lon="11.7701697"><ele>1345.6000000000001</ele><time>2026-04-26T16:00:47.764Z</time></trkpt><trkpt lat="45.8620535" lon="11.7700308"><ele>1349.8000000000002</ele><time>2026-04-26T16:00:48.761Z</time></trkpt><trkpt lat="45.8620576" lon="11.7698813"><ele>1354.0</ele><time>2026-04-26T16:00:49.752Z</time></trkpt><trkpt lat="45.8620337" lon="11.7697273"><ele>1354.0</ele><time>2026-04-26T16:00:50.757Z</time></trkpt><trkpt lat="45.8619991" lon="11.7695756"><ele>1354.0</ele><time>2026-04-26T16:00:51.759Z</time></trkpt><trkpt lat="45.8619659" lon="11.7694245"><ele>1354.0</ele><time>2026-04-26T16:00:52.76Z</time></trkpt><trkpt lat="45.8619394" lon="11.7692714"><ele>1354.0</ele><time>2026-04-26T16:00:53.754Z</time></trkpt><trkpt lat="45.8619469" lon="11.7691117"><ele>1354.0</ele><time>2026-04-26T16:00:54.756Z</time></trkpt><trkpt lat="45.8620321" lon="11.7689919"><ele>1351.6</ele><time>2026-04-26T16:00:55.761Z</time></trkpt><trkpt lat="45.8621292" lon="11.7689037"><ele>1349.2</ele><time>2026-04-26T16:00:56.746Z</time></trkpt><trkpt lat="45.862222" lon="11.7688166"><ele>1346.8</ele><time>2026-04-26T16:00:57.744Z</time></trkpt><trkpt lat="45.8622964" lon="11.7687385"><ele>1344.3999999999999</ele><time>2026-04-26T16:00:58.77Z</time></trkpt><trkpt lat="45.8623427" lon="11.7686375"><ele>1342.0</ele><time>2026-04-26T16:00:59.735Z</time></trkpt><trkpt lat="45.8623444" lon="11.7685222"><ele>1340.1666666666665</ele><time>2026-04-26T16:01:00.748Z</time></trkpt><trkpt lat="45.8623049" lon="11.7684184"><ele>1338.3333333333333</ele><time>2026-04-26T16:01:01.757Z</time></trkpt><trkpt lat="45.8622544" lon="11.7683259"><ele>1336.5</ele><time>2026-04-26T16:01:02.751Z</time></trkpt><trkpt lat="45.8621878" lon="11.7682482"><ele>1334.6666666666667</ele><time>2026-04-26T16:01:03.757Z</time></trkpt><trkpt lat="45.8621377" lon="11.7681406"><ele>1332.8333333333335</ele><time>2026-04-26T16:01:04.764Z</time></trkpt><trkpt lat="45.8621176" lon="11.7680077"><ele>1331.0</ele><time>2026-04-26T16:01:05.756Z</time></trkpt><trkpt lat="45.8621222" lon="11.7678589"><ele>1331.0</ele><time>2026-04-26T16:01:06.76Z</time></trkpt><trkpt lat="45.8621387" lon="11.7677172"><ele>1331.0</ele><time>2026-04-26T16:01:07.756Z</time></trkpt><trkpt lat="45.862135" lon="11.7675851"><ele>1331.0</ele><time>2026-04-26T16:01:08.75Z</time></trkpt><trkpt lat="45.8620863" lon="11.7674716"><ele>1331.0</ele><time>2026-04-26T16:01:09.758Z</time></trkpt><trkpt lat="45.8620048" lon="11.7673991"><ele>1331.0</ele><time>2026-04-26T16:01:10.764Z</time></trkpt><trkpt lat="45.8619045" lon="11.7673398"><ele>1331.25</ele><time>2026-04-26T16:01:11.751Z</time></trkpt><trkpt lat="45.8617905" lon="11.7673221"><ele>1331.5</ele><time>2026-04-26T16:01:12.755Z</time></trkpt><trkpt lat="45.8616642" lon="11.767279"><ele>1331.75</ele><time>2026-04-26T16:01:13.748Z</time></trkpt><trkpt lat="45.8615335" lon="11.7672086"><ele>1332.0</ele><time>2026-04-26T16:01:14.764Z</time></trkpt><trkpt lat="45.8614335" lon="11.7671239"><ele>1327.8</ele><time>2026-04-26T16:01:15.764Z</time></trkpt><trkpt lat="45.8613582" lon="11.7670091"><ele>1323.6</ele><time>2026-04-26T16:01:16.749Z</time></trkpt><trkpt lat="45.8613225" lon="11.7668643"><ele>1319.3999999999999</ele><time>2026-04-26T16:01:17.749Z</time></trkpt><trkpt lat="45.8613231" lon="11.7667089"><ele>1315.1999999999998</ele><time>2026-04-26T16:01:18.751Z</time></trkpt><trkpt lat="45.8613589" lon="11.7665598"><ele>1311.0</ele><time>2026-04-26T16:01:19.753Z</time></trkpt><trkpt lat="45.8614146" lon="11.766425"><ele>1311.0</ele><time>2026-04-26T16:01:20.761Z</time></trkpt><trkpt lat="45.8614817" lon="11.7662911"><ele>1311.0</ele><time>2026-04-26T16:01:21.751Z</time></trkpt><trkpt lat="45.8615469" lon="11.7661395"><ele>1311.0</ele><time>2026-04-26T16:01:22.741Z</time></trkpt><trkpt lat="45.8616042" lon="11.7659758"><ele>1311.0</ele><time>2026-04-26T16:01:23.766Z</time></trkpt><trkpt lat="45.8616555" lon="11.765799"><ele>1311.5</ele><time>2026-04-26T16:01:24.752Z</time></trkpt><trkpt lat="45.8617064" lon="11.7656265"><ele>1312.0</ele><time>2026-04-26T16:01:25.759Z</time></trkpt><trkpt lat="45.8617711" lon="11.7654705"><ele>1312.5</ele><time>2026-04-26T16:01:26.767Z</time></trkpt><trkpt lat="45.8618546" lon="11.7653341"><ele>1313.0</ele><time>2026-04-26T16:01:27.762Z</time></trkpt><trkpt lat="45.8619537" lon="11.7652137"><ele>1308.25</ele><time>2026-04-26T16:01:28.756Z</time></trkpt><trkpt lat="45.8620607" lon="11.7651021"><ele>1303.5</ele><time>2026-04-26T16:01:29.755Z</time></trkpt><trkpt lat="45.8621678" lon="11.764987"><ele>1298.75</ele><time>2026-04-26T16:01:30.752Z</time></trkpt><trkpt lat="45.8622737" lon="11.7648671"><ele>1294.0</ele><time>2026-04-26T16:01:31.743Z</time></trkpt><trkpt lat="45.8623807" lon="11.7647452"><ele>1294.0</ele><time>2026-04-26T16:01:32.751Z</time></trkpt><trkpt lat="45.8624889" lon="11.7646385"><ele>1294.0</ele><time>2026-04-26T16:01:33.749Z</time></trkpt><trkpt lat="45.8625937" lon="11.7645656"><ele>1294.0</ele><time>2026-04-26T16:01:34.755Z</time></trkpt><trkpt lat="45.8626932" lon="11.7645306"><ele>1294.0</ele><time>2026-04-26T16:01:35.752Z</time></trkpt><trkpt lat="45.8627913" lon="11.7645475"><ele>1294.0</ele><time>2026-04-26T16:01:36.744Z</time></trkpt><trkpt lat="45.8628676" lon="11.7646236"><ele>1293.8000000000002</ele><time>2026-04-26T16:01:37.76Z</time></trkpt><trkpt lat="45.8629226" lon="11.7647368"><ele>1293.6000000000001</ele><time>2026-04-26T16:01:38.753Z</time></trkpt><trkpt lat="45.8629624" lon="11.7648701"><ele>1293.4</ele><time>2026-04-26T16:01:39.76Z</time></trkpt><trkpt lat="45.863032" lon="11.7649407"><ele>1293.2</ele><time>2026-04-26T16:01:40.754Z</time></trkpt><trkpt lat="45.8631147" lon="11.7649663"><ele>1293.0</ele><time>2026-04-26T16:01:41.747Z</time></trkpt><trkpt lat="45.863204" lon="11.7649215"><ele>1293.0</ele><time>2026-04-26T16:01:42.743Z</time></trkpt><trkpt lat="45.8632882" lon="11.7648389"><ele>1293.0</ele><time>2026-04-26T16:01:43.746Z</time></trkpt><trkpt lat="45.8633779" lon="11.7647491"><ele>1293.0</ele><time>2026-04-26T16:01:44.752Z</time></trkpt><trkpt lat="45.8634869" lon="11.7646758"><ele>1293.0</ele><time>2026-04-26T16:01:45.748Z</time></trkpt><trkpt lat="45.8636094" lon="11.7646194"><ele>1291.2</ele><time>2026-04-26T16:01:46.749Z</time></trkpt><trkpt lat="45.8637314" lon="11.7645817"><ele>1289.4</ele><time>2026-04-26T16:01:47.752Z</time></trkpt><trkpt lat="45.8638392" lon="11.7645604"><ele>1287.6000000000001</ele><time>2026-04-26T16:01:48.741Z</time></trkpt><trkpt lat="45.8639437" lon="11.7645326"><ele>1285.8000000000002</ele><time>2026-04-26T16:01:49.736Z</time></trkpt><trkpt lat="45.8640279" lon="11.7645822"><ele>1284.0</ele><time>2026-04-26T16:01:50.75Z</time></trkpt><trkpt lat="45.8641072" lon="11.7646678"><ele>1284.0</ele><time>2026-04-26T16:01:51.757Z</time></trkpt><trkpt lat="45.8641912" lon="11.7646875"><ele>1284.0</ele><time>2026-04-26T16:01:52.746Z</time></trkpt><trkpt lat="45.8642891" lon="11.7646364"><ele>1284.0</ele><time>2026-04-26T16:01:53.743Z</time></trkpt><trkpt lat="45.8643719" lon="11.7645641"><ele>1284.0</ele><time>2026-04-26T16:01:54.756Z</time></trkpt><trkpt lat="45.8644352" lon="11.764473"><ele>1284.0</ele><time>2026-04-26T16:01:55.748Z</time></trkpt><trkpt lat="45.864451" lon="11.764358"><ele>1281.25</ele><time>2026-04-26T16:01:56.747Z</time></trkpt><trkpt lat="45.8644235" lon="11.7642321"><ele>1278.5</ele><time>2026-04-26T16:01:57.751Z</time></trkpt><trkpt lat="45.8643809" lon="11.7640994"><ele>1275.75</ele><time>2026-04-26T16:01:58.748Z</time></trkpt><trkpt lat="45.8642973" lon="11.763963"><ele>1273.0</ele><time>2026-04-26T16:01:59.748Z</time></trkpt><trkpt lat="45.8642163" lon="11.7638142"><ele>1273.0</ele><time>2026-04-26T16:02:00.748Z</time></trkpt><trkpt lat="45.8641299" lon="11.7636692"><ele>1273.0</ele><time>2026-04-26T16:02:01.758Z</time></trkpt><trkpt lat="45.86402" lon="11.7635578"><ele>1273.0</ele><time>2026-04-26T16:02:02.757Z</time></trkpt><trkpt lat="45.8638905" lon="11.7634902"><ele>1273.0</ele><time>2026-04-26T16:02:03.761Z</time></trkpt><trkpt lat="45.8637601" lon="11.763466"><ele>1274.8</ele><time>2026-04-26T16:02:04.755Z</time></trkpt><trkpt lat="45.8636431" lon="11.7634499"><ele>1276.6</ele><time>2026-04-26T16:02:05.744Z</time></trkpt><trkpt lat="45.8635394" lon="11.7634245"><ele>1278.3999999999999</ele><time>2026-04-26T16:02:06.762Z</time></trkpt><trkpt lat="45.8634464" lon="11.763361"><ele>1280.1999999999998</ele><time>2026-04-26T16:02:07.756Z</time></trkpt><trkpt lat="45.8633542" lon="11.7632523"><ele>1282.0</ele><time>2026-04-26T16:02:08.751Z</time></trkpt><trkpt lat="45.8632795" lon="11.7631099"><ele>1278.25</ele><time>2026-04-26T16:02:09.755Z</time></trkpt><trkpt lat="45.8632214" lon="11.7629374"><ele>1274.5</ele><time>2026-04-26T16:02:10.758Z</time></trkpt><trkpt lat="45.863179" lon="11.7627438"><ele>1270.75</ele><time>2026-04-26T16:02:11.748Z</time></trkpt><trkpt lat="45.86315" lon="11.7625432"><ele>1267.0</ele><time>2026-04-26T16:02:12.753Z</time></trkpt><trkpt lat="45.8631214" lon="11.7623659"><ele>1267.0</ele><time>2026-04-26T16:02:13.759Z</time></trkpt><trkpt lat="45.8630755" lon="11.7622153"><ele>1267.0</ele><time>2026-04-26T16:02:14.758Z</time></trkpt><trkpt lat="45.8629989" lon="11.7620967"><ele>1267.0</ele><time>2026-04-26T16:02:15.752Z</time></trkpt><trkpt lat="45.8628978" lon="11.7620186"><ele>1267.0</ele><time>2026-04-26T16:02:16.745Z</time></trkpt><trkpt lat="45.8627887" lon="11.7619555"><ele>1267.0</ele><time>2026-04-26T16:02:17.74Z</time></trkpt><trkpt lat="45.8626806" lon="11.7618877"><ele>1267.0</ele><time>2026-04-26T16:02:18.765Z</time></trkpt><trkpt lat="45.8625797" lon="11.7617997"><ele>1267.0</ele><time>2026-04-26T16:02:19.754Z</time></trkpt><trkpt lat="45.8624888" lon="11.7616871"><ele>1267.0</ele><time>2026-04-26T16:02:20.757Z</time></trkpt><trkpt lat="45.8623987" lon="11.761577"><ele>1263.25</ele><time>2026-04-26T16:02:21.763Z</time></trkpt><trkpt lat="45.8622917" lon="11.7615009"><ele>1259.5</ele><time>2026-04-26T16:02:22.75Z</time></trkpt><trkpt lat="45.8621728" lon="11.7614779"><ele>1255.75</ele><time>2026-04-26T16:02:23.749Z</time></trkpt><trkpt lat="45.8620515" lon="11.761488"><ele>1252.0</ele><time>2026-04-26T16:02:24.766Z</time></trkpt><trkpt lat="45.8619258" lon="11.7614938"><ele>1252.0</ele><time>2026-04-26T16:02:25.754Z</time></trkpt><trkpt lat="45.8618141" lon="11.761513"><ele>1252.0</ele><time>2026-04-26T16:02:26.76Z</time></trkpt><trkpt lat="45.8617275" lon="11.7614687"><ele>1252.0</ele><time>2026-04-26T16:02:27.745Z</time></trkpt><trkpt lat="45.8616555" lon="11.7613841"><ele>1252.0</ele><time>2026-04-26T16:02:28.749Z</time></trkpt><trkpt lat="45.8615901" lon="11.761289"><ele>1252.0</ele><time>2026-04-26T16:02:29.756Z</time></trkpt><trkpt lat="45.8615248" lon="11.7611647"><ele>1253.5</ele><time>2026-04-26T16:02:30.76Z</time></trkpt><trkpt lat="45.8614559" lon="11.7610188"><ele>1255.0</ele><time>2026-04-26T16:02:31.753Z</time></trkpt><trkpt lat="45.8613316" lon="11.7609458"><ele>1256.5</ele><time>2026-04-26T16:02:32.755Z</time></trkpt><trkpt lat="45.8611837" lon="11.7609335"><ele>1258.0</ele><time>2026-04-26T16:02:33.769Z</time></trkpt><trkpt lat="45.8610396" lon="11.7609547"><ele>1255.0</ele><time>2026-04-26T16:02:34.753Z</time></trkpt><trkpt lat="45.8609011" lon="11.7609859"><ele>1252.0</ele><time>2026-04-26T16:02:35.75Z</time></trkpt><trkpt lat="45.8607719" lon="11.7610052"><ele>1249.0</ele><time>2026-04-26T16:02:36.757Z</time></trkpt><trkpt lat="45.8606483" lon="11.7609874"><ele>1246.0</ele><time>2026-04-26T16:02:37.75Z</time></trkpt><trkpt lat="45.8605281" lon="11.7609252"><ele>1246.0</ele><time>2026-04-26T16:02:38.754Z</time></trkpt><trkpt lat="45.8604168" lon="11.7608119"><ele>1246.0</ele><time>2026-04-26T16:02:39.746Z</time></trkpt><trkpt lat="45.8603104" lon="11.7606719"><ele>1246.0</ele><time>2026-04-26T16:02:40.751Z</time></trkpt><trkpt lat="45.8602016" lon="11.7605308"><ele>1246.0</ele><time>2026-04-26T16:02:41.745Z</time></trkpt><trkpt lat="45.8601052" lon="11.7603651"><ele>1241.3333333333333</ele><time>2026-04-26T16:02:42.743Z</time></trkpt><trkpt lat="45.8600278" lon="11.7601776"><ele>1236.6666666666667</ele><time>2026-04-26T16:02:43.736Z</time></trkpt><trkpt lat="45.8599621" lon="11.7599746"><ele>1232.0</ele><time>2026-04-26T16:02:44.757Z</time></trkpt><trkpt lat="45.8598903" lon="11.7597777"><ele>1232.0</ele><time>2026-04-26T16:02:45.748Z</time></trkpt><trkpt lat="45.8598041" lon="11.7595957"><ele>1232.0</ele><time>2026-04-26T16:02:46.747Z</time></trkpt><trkpt lat="45.8597211" lon="11.7594219"><ele>1232.0</ele><time>2026-04-26T16:02:47.759Z</time></trkpt><trkpt lat="45.8596405" lon="11.7592435"><ele>1232.0</ele><time>2026-04-26T16:02:48.744Z</time></trkpt><trkpt lat="45.8595577" lon="11.7590807"><ele>1229.25</ele><time>2026-04-26T16:02:49.752Z</time></trkpt><trkpt lat="45.8594655" lon="11.7589273"><ele>1226.5</ele><time>2026-04-26T16:02:50.761Z</time></trkpt><trkpt lat="45.8593794" lon="11.7587766"><ele>1223.75</ele><time>2026-04-26T16:02:51.761Z</time></trkpt><trkpt lat="45.8592911" lon="11.7586323"><ele>1221.0</ele><time>2026-04-26T16:02:52.747Z</time></trkpt><trkpt lat="45.8592053" lon="11.7584848"><ele>1221.0</ele><time>2026-04-26T16:02:53.742Z</time></trkpt><trkpt lat="45.8591243" lon="11.7583328"><ele>1221.0</ele><time>2026-04-26T16:02:54.748Z</time></trkpt><trkpt lat="45.8590586" lon="11.7581812"><ele>1221.0</ele><time>2026-04-26T16:02:55.74Z</time></trkpt><trkpt lat="45.8590153" lon="11.758015"><ele>1221.0</ele><time>2026-04-26T16:02:56.743Z</time></trkpt><trkpt lat="45.8589785" lon="11.7578548"><ele>1221.5</ele><time>2026-04-26T16:02:57.756Z</time></trkpt><trkpt lat="45.8589753" lon="11.7576704"><ele>1222.0</ele><time>2026-04-26T16:02:58.758Z</time></trkpt><trkpt lat="45.8589654" lon="11.7574786"><ele>1222.5</ele><time>2026-04-26T16:02:59.764Z</time></trkpt><trkpt lat="45.8589614" lon="11.7572846"><ele>1223.0</ele><time>2026-04-26T16:03:00.753Z</time></trkpt><trkpt lat="45.8589271" lon="11.7570932"><ele>1223.0</ele><time>2026-04-26T16:03:01.757Z</time></trkpt><trkpt lat="45.8588898" lon="11.7568816"><ele>1223.0</ele><time>2026-04-26T16:03:02.768Z</time></trkpt><trkpt lat="45.8588636" lon="11.7566871"><ele>1223.0</ele><time>2026-04-26T16:03:03.747Z</time></trkpt><trkpt lat="45.8588572" lon="11.756463"><ele>1223.0</ele><time>2026-04-26T16:03:04.755Z</time></trkpt><trkpt lat="45.8588499" lon="11.7562321"><ele>1226.0</ele><time>2026-04-26T16:03:05.757Z</time></trkpt><trkpt lat="45.8588386" lon="11.7560078"><ele>1229.0</ele><time>2026-04-26T16:03:06.756Z</time></trkpt><trkpt lat="45.8588113" lon="11.7557858"><ele>1232.0</ele><time>2026-04-26T16:03:07.754Z</time></trkpt><trkpt lat="45.8587727" lon="11.7555583"><ele>1232.0</ele><time>2026-04-26T16:03:08.753Z</time></trkpt><trkpt lat="45.85873" lon="11.7553405"><ele>1232.0</ele><time>2026-04-26T16:03:09.759Z</time></trkpt><trkpt lat="45.8586942" lon="11.7551179"><ele>1232.0</ele><time>2026-04-26T16:03:10.754Z</time></trkpt><trkpt lat="45.8586567" lon="11.754899"><ele>1231.6666666666667</ele><time>2026-04-26T16:03:11.756Z</time></trkpt><trkpt lat="45.8586199" lon="11.7546764"><ele>1231.3333333333333</ele><time>2026-04-26T16:03:12.758Z</time></trkpt><trkpt lat="45.8585926" lon="11.7544566"><ele>1231.0</ele><time>2026-04-26T16:03:13.756Z</time></trkpt><trkpt lat="45.8585566" lon="11.7542378"><ele>1231.0</ele><time>2026-04-26T16:03:14.761Z</time></trkpt><trkpt lat="45.8585192" lon="11.7540197"><ele>1231.0</ele><time>2026-04-26T16:03:15.757Z</time></trkpt><trkpt lat="45.8584883" lon="11.7538122"><ele>1231.0</ele><time>2026-04-26T16:03:16.753Z</time></trkpt><trkpt lat="45.8584546" lon="11.7536119"><ele>1231.0</ele><time>2026-04-26T16:03:17.76Z</time></trkpt><trkpt lat="45.8584245" lon="11.7534144"><ele>1220.0</ele><time>2026-04-26T16:03:18.749Z</time></trkpt><trkpt lat="45.8583976" lon="11.7532143"><ele>1209.0</ele><time>2026-04-26T16:03:19.763Z</time></trkpt><trkpt lat="45.8583718" lon="11.7530101"><ele>1198.0</ele><time>2026-04-26T16:03:20.763Z</time></trkpt><trkpt lat="45.8583575" lon="11.752805"><ele>1187.0</ele><time>2026-04-26T16:03:21.764Z</time></trkpt><trkpt lat="45.8583597" lon="11.7525963"><ele>1185.75</ele><time>2026-04-26T16:03:22.768Z</time></trkpt><trkpt lat="45.8583631" lon="11.752391"><ele>1184.5</ele><time>2026-04-26T16:03:23.768Z</time></trkpt><trkpt lat="45.8583742" lon="11.7521935"><ele>1183.25</ele><time>2026-04-26T16:03:24.756Z</time></trkpt><trkpt lat="45.8584009" lon="11.751996"><ele>1182.0</ele><time>2026-04-26T16:03:25.762Z</time></trkpt><trkpt lat="45.8584494" lon="11.7518033"><ele>1187.75</ele><time>2026-04-26T16:03:26.752Z</time></trkpt><trkpt lat="45.8585016" lon="11.7516096"><ele>1193.5</ele><time>2026-04-26T16:03:27.76Z</time></trkpt><trkpt lat="45.8585616" lon="11.7514377"><ele>1199.25</ele><time>2026-04-26T16:03:28.758Z</time></trkpt><trkpt lat="45.8586197" lon="11.7512706"><ele>1205.0</ele><time>2026-04-26T16:03:29.746Z</time></trkpt><trkpt lat="45.85867" lon="11.751103"><ele>1204.0</ele><time>2026-04-26T16:03:30.756Z</time></trkpt><trkpt lat="45.858684" lon="11.7509198"><ele>1203.0</ele><time>2026-04-26T16:03:31.754Z</time></trkpt><trkpt lat="45.8586522" lon="11.7507438"><ele>1202.0</ele><time>2026-04-26T16:03:32.761Z</time></trkpt><trkpt lat="45.8586333" lon="11.7505625"><ele>1201.0</ele><time>2026-04-26T16:03:33.768Z</time></trkpt><trkpt lat="45.8586273" lon="11.7503833"><ele>1199.75</ele><time>2026-04-26T16:03:34.759Z</time></trkpt><trkpt lat="45.8586261" lon="11.7501968"><ele>1198.5</ele><time>2026-04-26T16:03:35.753Z</time></trkpt><trkpt lat="45.8586529" lon="11.7500224"><ele>1197.25</ele><time>2026-04-26T16:03:36.758Z</time></trkpt><trkpt lat="45.8586837" lon="11.7498498"><ele>1196.0</ele><time>2026-04-26T16:03:37.757Z</time></trkpt><trkpt lat="45.8587009" lon="11.7496824"><ele>1196.0</ele><time>2026-04-26T16:03:38.755Z</time></trkpt><trkpt lat="45.858665" lon="11.7495281"><ele>1196.0</ele><time>2026-04-26T16:03:39.758Z</time></trkpt><trkpt lat="45.8586082" lon="11.7493906"><ele>1196.0</ele><time>2026-04-26T16:03:40.756Z</time></trkpt><trkpt lat="45.8585451" lon="11.7492525"><ele>1196.0</ele><time>2026-04-26T16:03:41.76Z</time></trkpt><trkpt lat="45.8584737" lon="11.749114"><ele>1187.75</ele><time>2026-04-26T16:03:42.767Z</time></trkpt><trkpt lat="45.8584356" lon="11.7489537"><ele>1179.5</ele><time>2026-04-26T16:03:43.75Z</time></trkpt><trkpt lat="45.858409" lon="11.7487909"><ele>1171.25</ele><time>2026-04-26T16:03:44.747Z</time></trkpt><trkpt lat="45.858387" lon="11.7486307"><ele>1163.0</ele><time>2026-04-26T16:03:45.764Z</time></trkpt><trkpt lat="45.8583716" lon="11.7484758"><ele>1162.4</ele><time>2026-04-26T16:03:46.755Z</time></trkpt><trkpt lat="45.8583501" lon="11.748312"><ele>1161.8</ele><time>2026-04-26T16:03:47.752Z</time></trkpt><trkpt lat="45.8583421" lon="11.7481527"><ele>1161.2</ele><time>2026-04-26T16:03:48.762Z</time></trkpt><trkpt lat="45.8583488" lon="11.7479971"><ele>1160.6</ele><time>2026-04-26T16:03:49.751Z</time></trkpt><trkpt lat="45.858364" lon="11.7478408"><ele>1160.0</ele><time>2026-04-26T16:03:50.748Z</time></trkpt><trkpt lat="45.85838" lon="11.7476815"><ele>1158.25</ele><time>2026-04-26T16:03:51.758Z</time></trkpt><trkpt lat="45.8583941" lon="11.7475232"><ele>1156.5</ele><time>2026-04-26T16:03:52.747Z</time></trkpt><trkpt lat="45.8584084" lon="11.747364"><ele>1154.75</ele><time>2026-04-26T16:03:53.75Z</time></trkpt><trkpt lat="45.8584179" lon="11.7472008"><ele>1153.0</ele><time>2026-04-26T16:03:54.759Z</time></trkpt><trkpt lat="45.8584262" lon="11.7470357"><ele>1152.0</ele><time>2026-04-26T16:03:55.765Z</time></trkpt><trkpt lat="45.8584355" lon="11.7468717"><ele>1151.0</ele><time>2026-04-26T16:03:56.76Z</time></trkpt><trkpt lat="45.8584501" lon="11.7466999"><ele>1150.0</ele><time>2026-04-26T16:03:57.753Z</time></trkpt><trkpt lat="45.8584603" lon="11.7465325"><ele>1149.0</ele><time>2026-04-26T16:03:58.764Z</time></trkpt><trkpt lat="45.8584702" lon="11.746357"><ele>1153.5</ele><time>2026-04-26T16:03:59.753Z</time></trkpt><trkpt lat="45.8584775" lon="11.7461802"><ele>1158.0</ele><time>2026-04-26T16:04:00.765Z</time></trkpt><trkpt lat="45.8584783" lon="11.7460137"><ele>1162.5</ele><time>2026-04-26T16:04:01.775Z</time></trkpt><trkpt lat="45.8584779" lon="11.7458481"><ele>1167.0</ele><time>2026-04-26T16:04:02.755Z</time></trkpt><trkpt lat="45.8584868" lon="11.7456815"><ele>1167.0</ele><time>2026-04-26T16:04:03.767Z</time></trkpt><trkpt lat="45.8585047" lon="11.745512"><ele>1167.0</ele><time>2026-04-26T16:04:04.757Z</time></trkpt><trkpt lat="45.8585233" lon="11.7453427"><ele>1167.0</ele><time>2026-04-26T16:04:05.765Z</time></trkpt><trkpt lat="45.8585348" lon="11.7451754"><ele>1167.0</ele><time>2026-04-26T16:04:06.764Z</time></trkpt><trkpt lat="45.8585456" lon="11.7450176"><ele>1163.6</ele><time>2026-04-26T16:04:07.763Z</time></trkpt><trkpt lat="45.8585574" lon="11.7448793"><ele>1160.2</ele><time>2026-04-26T16:04:08.768Z</time></trkpt><trkpt lat="45.8585894" lon="11.7447513"><ele>1156.8</ele><time>2026-04-26T16:04:09.764Z</time></trkpt><trkpt lat="45.8586547" lon="11.7446515"><ele>1153.4</ele><time>2026-04-26T16:04:10.745Z</time></trkpt><trkpt lat="45.8587234" lon="11.7445491"><ele>1150.0</ele><time>2026-04-26T16:04:11.753Z</time></trkpt><trkpt lat="45.8588195" lon="11.7444943"><ele>1150.0</ele><time>2026-04-26T16:04:12.755Z</time></trkpt><trkpt lat="45.8589286" lon="11.7444725"><ele>1150.0</ele><time>2026-04-26T16:04:13.75Z</time></trkpt><trkpt lat="45.8590434" lon="11.7444592"><ele>1150.0</ele><time>2026-04-26T16:04:14.757Z</time></trkpt><trkpt lat="45.8591614" lon="11.7444356"><ele>1150.0</ele><time>2026-04-26T16:04:15.752Z</time></trkpt><trkpt lat="45.8592839" lon="11.7443977"><ele>1145.5</ele><time>2026-04-26T16:04:16.749Z</time></trkpt><trkpt lat="45.8593968" lon="11.7443553"><ele>1141.0</ele><time>2026-04-26T16:04:17.756Z</time></trkpt><trkpt lat="45.8595082" lon="11.7443087"><ele>1136.5</ele><time>2026-04-26T16:04:18.754Z</time></trkpt><trkpt lat="45.8596164" lon="11.7442628"><ele>1132.0</ele><time>2026-04-26T16:04:19.757Z</time></trkpt><trkpt lat="45.8597219" lon="11.7442258"><ele>1132.0</ele><time>2026-04-26T16:04:20.748Z</time></trkpt><trkpt lat="45.8598188" lon="11.7441977"><ele>1132.0</ele><time>2026-04-26T16:04:21.748Z</time></trkpt><trkpt lat="45.8599132" lon="11.7442023"><ele>1132.0</ele><time>2026-04-26T16:04:22.749Z</time></trkpt><trkpt lat="45.8600025" lon="11.7442151"><ele>1132.0</ele><time>2026-04-26T16:04:23.774Z</time></trkpt><trkpt lat="45.8600591" lon="11.7442807"><ele>1132.0</ele><time>2026-04-26T16:04:24.755Z</time></trkpt><trkpt lat="45.8601097" lon="11.7443361"><ele>1132.0</ele><time>2026-04-26T16:04:25.751Z</time></trkpt><trkpt lat="45.8601946" lon="11.7444619"><ele>1135.0</ele><time>2026-04-26T16:04:27.745Z</time></trkpt><trkpt lat="45.860295" lon="11.7445238"><ele>1138.0</ele><time>2026-04-26T16:04:29.745Z</time></trkpt><trkpt lat="45.8603801" lon="11.7444497"><ele>1141.0</ele><time>2026-04-26T16:04:31.735Z</time></trkpt><trkpt lat="45.8604087" lon="11.7443678"><ele>1144.0</ele><time>2026-04-26T16:04:32.747Z</time></trkpt><trkpt lat="45.8603918" lon="11.7442459"><ele>1147.0</ele><time>2026-04-26T16:04:33.746Z</time></trkpt><trkpt lat="45.8603537" lon="11.7441079"><ele>1149.25</ele><time>2026-04-26T16:04:34.75Z</time></trkpt><trkpt lat="45.8603261" lon="11.7439616"><ele>1151.5</ele><time>2026-04-26T16:04:35.741Z</time></trkpt><trkpt lat="45.8602915" lon="11.7438077"><ele>1153.75</ele><time>2026-04-26T16:04:36.752Z</time></trkpt><trkpt lat="45.8602418" lon="11.7436495"><ele>1156.0</ele><time>2026-04-26T16:04:37.761Z</time></trkpt><trkpt lat="45.8602012" lon="11.7434805"><ele>1157.25</ele><time>2026-04-26T16:04:38.759Z</time></trkpt><trkpt lat="45.8601508" lon="11.7433158"><ele>1158.5</ele><time>2026-04-26T16:04:39.769Z</time></trkpt><trkpt lat="45.8600959" lon="11.7431528"><ele>1159.75</ele><time>2026-04-26T16:04:40.755Z</time></trkpt><trkpt lat="45.8600313" lon="11.7429908"><ele>1161.0</ele><time>2026-04-26T16:04:41.753Z</time></trkpt><trkpt lat="45.8599588" lon="11.7428397"><ele>1153.5</ele><time>2026-04-26T16:04:42.75Z</time></trkpt><trkpt lat="45.8598589" lon="11.7427128"><ele>1146.0</ele><time>2026-04-26T16:04:43.759Z</time></trkpt><trkpt lat="45.8597682" lon="11.7426003"><ele>1138.5</ele><time>2026-04-26T16:04:44.757Z</time></trkpt><trkpt lat="45.8596813" lon="11.7424918"><ele>1131.0</ele><time>2026-04-26T16:04:45.765Z</time></trkpt><trkpt lat="45.8595972" lon="11.742374"><ele>1131.0</ele><time>2026-04-26T16:04:46.752Z</time></trkpt><trkpt lat="45.8595191" lon="11.7422532"><ele>1131.0</ele><time>2026-04-26T16:04:47.748Z</time></trkpt><trkpt lat="45.8594483" lon="11.7421319"><ele>1131.0</ele><time>2026-04-26T16:04:48.758Z</time></trkpt><trkpt lat="45.8593946" lon="11.7419911"><ele>1131.0</ele><time>2026-04-26T16:04:49.753Z</time></trkpt><trkpt lat="45.8593478" lon="11.741859"><ele>1131.0</ele><time>2026-04-26T16:04:50.746Z</time></trkpt><trkpt lat="45.8593044" lon="11.7417304"><ele>1127.1666666666667</ele><time>2026-04-26T16:04:51.758Z</time></trkpt><trkpt lat="45.8592565" lon="11.7416276"><ele>1123.3333333333333</ele><time>2026-04-26T16:04:52.744Z</time></trkpt><trkpt lat="45.8591929" lon="11.7415136"><ele>1119.5</ele><time>2026-04-26T16:04:53.748Z</time></trkpt><trkpt lat="45.8591246" lon="11.7414183"><ele>1115.6666666666665</ele><time>2026-04-26T16:04:54.757Z</time></trkpt><trkpt lat="45.859072" lon="11.7413207"><ele>1111.8333333333333</ele><time>2026-04-26T16:04:55.727Z</time></trkpt><trkpt lat="45.8590624" lon="11.7412124"><ele>1108.0</ele><time>2026-04-26T16:04:56.747Z</time></trkpt><trkpt lat="45.8590797" lon="11.7411026"><ele>1109.0</ele><time>2026-04-26T16:04:57.757Z</time></trkpt><trkpt lat="45.8590848" lon="11.7409918"><ele>1110.0</ele><time>2026-04-26T16:04:58.743Z</time></trkpt><trkpt lat="45.8590841" lon="11.7408692"><ele>1111.0</ele><time>2026-04-26T16:04:59.752Z</time></trkpt><trkpt lat="45.8590439" lon="11.7407715"><ele>1112.0</ele><time>2026-04-26T16:05:00.752Z</time></trkpt><trkpt lat="45.8589818" lon="11.7406922"><ele>1113.0</ele><time>2026-04-26T16:05:01.761Z</time></trkpt><trkpt lat="45.8589125" lon="11.7406264"><ele>1114.0</ele><time>2026-04-26T16:05:02.756Z</time></trkpt><trkpt lat="45.8588287" lon="11.7405606"><ele>1114.0</ele><time>2026-04-26T16:05:03.764Z</time></trkpt><trkpt lat="45.8587407" lon="11.7404889"><ele>1114.0</ele><time>2026-04-26T16:05:04.764Z</time></trkpt><trkpt lat="45.8586553" lon="11.7404078"><ele>1114.0</ele><time>2026-04-26T16:05:05.758Z</time></trkpt><trkpt lat="45.8585808" lon="11.7403093"><ele>1114.0</ele><time>2026-04-26T16:05:06.747Z</time></trkpt><trkpt lat="45.8585164" lon="11.7401965"><ele>1114.0</ele><time>2026-04-26T16:05:07.758Z</time></trkpt><trkpt lat="45.8584545" lon="11.7400765"><ele>1110.6000000000001</ele><time>2026-04-26T16:05:08.754Z</time></trkpt><trkpt lat="45.8583969" lon="11.739951"><ele>1107.2</ele><time>2026-04-26T16:05:09.747Z</time></trkpt><trkpt lat="45.8583379" lon="11.7398262"><ele>1103.8000000000002</ele><time>2026-04-26T16:05:10.76Z</time></trkpt><trkpt lat="45.8582814" lon="11.7397042"><ele>1100.4</ele><time>2026-04-26T16:05:11.749Z</time></trkpt><trkpt lat="45.8582372" lon="11.7395723"><ele>1097.0</ele><time>2026-04-26T16:05:12.749Z</time></trkpt><trkpt lat="45.8582003" lon="11.7394423"><ele>1098.6</ele><time>2026-04-26T16:05:13.762Z</time></trkpt><trkpt lat="45.8581779" lon="11.7393015"><ele>1100.2</ele><time>2026-04-26T16:05:14.766Z</time></trkpt><trkpt lat="45.8581625" lon="11.7391638"><ele>1101.8</ele><time>2026-04-26T16:05:15.744Z</time></trkpt><trkpt lat="45.8581361" lon="11.7390368"><ele>1103.4</ele><time>2026-04-26T16:05:16.758Z</time></trkpt><trkpt lat="45.8581016" lon="11.7389245"><ele>1105.0</ele><time>2026-04-26T16:05:17.749Z</time></trkpt><trkpt lat="45.8580688" lon="11.7388146"><ele>1105.0</ele><time>2026-04-26T16:05:18.762Z</time></trkpt><trkpt lat="45.8580382" lon="11.7387036"><ele>1105.0</ele><time>2026-04-26T16:05:19.748Z</time></trkpt><trkpt lat="45.8580249" lon="11.7385729"><ele>1105.0</ele><time>2026-04-26T16:05:20.746Z</time></trkpt><trkpt lat="45.858028" lon="11.7384465"><ele>1105.0</ele><time>2026-04-26T16:05:21.752Z</time></trkpt><trkpt lat="45.8580484" lon="11.7383179"><ele>1105.0</ele><time>2026-04-26T16:05:22.753Z</time></trkpt><trkpt lat="45.8580679" lon="11.7381924"><ele>1105.0</ele><time>2026-04-26T16:05:23.752Z</time></trkpt><trkpt lat="45.8580896" lon="11.7380608"><ele>1104.8</ele><time>2026-04-26T16:05:24.769Z</time></trkpt><trkpt lat="45.8581068" lon="11.737932"><ele>1104.6</ele><time>2026-04-26T16:05:25.756Z</time></trkpt><trkpt lat="45.8581164" lon="11.7378046"><ele>1104.4</ele><time>2026-04-26T16:05:26.754Z</time></trkpt><trkpt lat="45.85814" lon="11.7376818"><ele>1104.2</ele><time>2026-04-26T16:05:27.754Z</time></trkpt><trkpt lat="45.8581936" lon="11.7375708"><ele>1104.0</ele><time>2026-04-26T16:05:28.766Z</time></trkpt><trkpt lat="45.8582495" lon="11.7374535"><ele>1105.4</ele><time>2026-04-26T16:05:29.742Z</time></trkpt><trkpt lat="45.8583285" lon="11.7373532"><ele>1106.8000000000002</ele><time>2026-04-26T16:05:30.756Z</time></trkpt><trkpt lat="45.8584042" lon="11.7372554"><ele>1108.1999999999998</ele><time>2026-04-26T16:05:31.758Z</time></trkpt><trkpt lat="45.8584695" lon="11.737139"><ele>1109.6</ele><time>2026-04-26T16:05:32.759Z</time></trkpt><trkpt lat="45.8585093" lon="11.7370085"><ele>1111.0</ele><time>2026-04-26T16:05:33.755Z</time></trkpt><trkpt lat="45.8585223" lon="11.7368677"><ele>1111.0</ele><time>2026-04-26T16:05:34.753Z</time></trkpt><trkpt lat="45.858519" lon="11.7367265"><ele>1111.0</ele><time>2026-04-26T16:05:35.757Z</time></trkpt><trkpt lat="45.8585122" lon="11.7365944"><ele>1111.0</ele><time>2026-04-26T16:05:36.758Z</time></trkpt><trkpt lat="45.8585045" lon="11.7364674"><ele>1111.0</ele><time>2026-04-26T16:05:37.763Z</time></trkpt><trkpt lat="45.8584886" lon="11.7363458"><ele>1111.0</ele><time>2026-04-26T16:05:38.753Z</time></trkpt><trkpt lat="45.8584691" lon="11.7362312"><ele>1111.0</ele><time>2026-04-26T16:05:39.755Z</time></trkpt><trkpt lat="45.858452" lon="11.7361179"><ele>1110.6</ele><time>2026-04-26T16:05:40.758Z</time></trkpt><trkpt lat="45.8584341" lon="11.7360023"><ele>1110.1999999999998</ele><time>2026-04-26T16:05:41.752Z</time></trkpt><trkpt lat="45.8584211" lon="11.7358812"><ele>1109.8000000000002</ele><time>2026-04-26T16:05:42.761Z</time></trkpt><trkpt lat="45.858444" lon="11.7357461"><ele>1109.4</ele><time>2026-04-26T16:05:43.756Z</time></trkpt><trkpt lat="45.8584754" lon="11.7356073"><ele>1109.0</ele><time>2026-04-26T16:05:44.759Z</time></trkpt><trkpt lat="45.8585138" lon="11.7354544"><ele>1109.0</ele><time>2026-04-26T16:05:45.755Z</time></trkpt><trkpt lat="45.858553" lon="11.7352955"><ele>1109.0</ele><time>2026-04-26T16:05:46.757Z</time></trkpt><trkpt lat="45.8585917" lon="11.7351314"><ele>1109.0</ele><time>2026-04-26T16:05:47.755Z</time></trkpt><trkpt lat="45.8586303" lon="11.734975"><ele>1109.0</ele><time>2026-04-26T16:05:48.748Z</time></trkpt><trkpt lat="45.8586711" lon="11.7348216"><ele>1107.25</ele><time>2026-04-26T16:05:49.754Z</time></trkpt><trkpt lat="45.8587129" lon="11.7346621"><ele>1105.5</ele><time>2026-04-26T16:05:50.757Z</time></trkpt><trkpt lat="45.8587582" lon="11.7345121"><ele>1103.75</ele><time>2026-04-26T16:05:51.756Z</time></trkpt><trkpt lat="45.8587963" lon="11.734356"><ele>1102.0</ele><time>2026-04-26T16:05:52.747Z</time></trkpt><trkpt lat="45.8588368" lon="11.7342074"><ele>1099.2</ele><time>2026-04-26T16:05:53.748Z</time></trkpt><trkpt lat="45.858866" lon="11.7340565"><ele>1096.4</ele><time>2026-04-26T16:05:54.758Z</time></trkpt><trkpt lat="45.858885" lon="11.7339038"><ele>1093.6</ele><time>2026-04-26T16:05:55.745Z</time></trkpt><trkpt lat="45.8589114" lon="11.7337523"><ele>1090.8</ele><time>2026-04-26T16:05:56.747Z</time></trkpt><trkpt lat="45.8589495" lon="11.7336196"><ele>1088.0</ele><time>2026-04-26T16:05:57.754Z</time></trkpt><trkpt lat="45.8590085" lon="11.7335096"><ele>1085.8</ele><time>2026-04-26T16:05:58.743Z</time></trkpt><trkpt lat="45.8590692" lon="11.7334074"><ele>1083.6</ele><time>2026-04-26T16:05:59.756Z</time></trkpt><trkpt lat="45.8591407" lon="11.7333218"><ele>1081.4</ele><time>2026-04-26T16:06:00.749Z</time></trkpt><trkpt lat="45.859194" lon="11.7332192"><ele>1079.2</ele><time>2026-04-26T16:06:01.752Z</time></trkpt><trkpt lat="45.8592234" lon="11.7330932"><ele>1077.0</ele><time>2026-04-26T16:06:02.739Z</time></trkpt><trkpt lat="45.8591756" lon="11.7329719"><ele>1077.0</ele><time>2026-04-26T16:06:03.745Z</time></trkpt><trkpt lat="45.8591284" lon="11.7328472"><ele>1077.0</ele><time>2026-04-26T16:06:04.741Z</time></trkpt><trkpt lat="45.8590567" lon="11.7327358"><ele>1077.0</ele><time>2026-04-26T16:06:05.756Z</time></trkpt><trkpt lat="45.8589834" lon="11.7326265"><ele>1077.0</ele><time>2026-04-26T16:06:06.746Z</time></trkpt><trkpt lat="45.8589135" lon="11.7325249"><ele>1077.0</ele><time>2026-04-26T16:06:07.754Z</time></trkpt><trkpt lat="45.8588463" lon="11.7324307"><ele>1076.8333333333333</ele><time>2026-04-26T16:06:08.757Z</time></trkpt><trkpt lat="45.8587735" lon="11.7323544"><ele>1076.6666666666667</ele><time>2026-04-26T16:06:09.753Z</time></trkpt><trkpt lat="45.8586962" lon="11.7322966"><ele>1076.5</ele><time>2026-04-26T16:06:10.741Z</time></trkpt><trkpt lat="45.8586157" lon="11.7322669"><ele>1076.3333333333335</ele><time>2026-04-26T16:06:11.757Z</time></trkpt><trkpt lat="45.8585318" lon="11.7322693"><ele>1076.1666666666667</ele><time>2026-04-26T16:06:12.748Z</time></trkpt><trkpt lat="45.8584603" lon="11.7323107"><ele>1076.0</ele><time>2026-04-26T16:06:13.749Z</time></trkpt><trkpt lat="45.8584085" lon="11.7323892"><ele>1074.3333333333335</ele><time>2026-04-26T16:06:14.749Z</time></trkpt><trkpt lat="45.8583809" lon="11.7324932"><ele>1072.6666666666667</ele><time>2026-04-26T16:06:15.738Z</time></trkpt><trkpt lat="45.8583697" lon="11.7326114"><ele>1071.0</ele><time>2026-04-26T16:06:16.75Z</time></trkpt><trkpt lat="45.858364" lon="11.732731"><ele>1069.3333333333333</ele><time>2026-04-26T16:06:17.74Z</time></trkpt><trkpt lat="45.8583611" lon="11.7328456"><ele>1067.6666666666665</ele><time>2026-04-26T16:06:18.74Z</time></trkpt><trkpt lat="45.8583456" lon="11.7329528"><ele>1066.0</ele><time>2026-04-26T16:06:19.761Z</time></trkpt><trkpt lat="45.858308" lon="11.7330451"><ele>1064.8</ele><time>2026-04-26T16:06:20.748Z</time></trkpt><trkpt lat="45.858245" lon="11.7331166"><ele>1063.6</ele><time>2026-04-26T16:06:21.751Z</time></trkpt><trkpt lat="45.8581641" lon="11.7331729"><ele>1062.4</ele><time>2026-04-26T16:06:22.753Z</time></trkpt><trkpt lat="45.8580733" lon="11.7332252"><ele>1061.2</ele><time>2026-04-26T16:06:23.75Z</time></trkpt><trkpt lat="45.8579853" lon="11.733287"><ele>1060.0</ele><time>2026-04-26T16:06:24.759Z</time></trkpt><trkpt lat="45.8579042" lon="11.7333616"><ele>1060.0</ele><time>2026-04-26T16:06:25.761Z</time></trkpt><trkpt lat="45.8578272" lon="11.7334415"><ele>1060.0</ele><time>2026-04-26T16:06:26.764Z</time></trkpt><trkpt lat="45.8577503" lon="11.7335216"><ele>1060.0</ele><time>2026-04-26T16:06:27.761Z</time></trkpt><trkpt lat="45.8576691" lon="11.7335854"><ele>1060.0</ele><time>2026-04-26T16:06:28.762Z</time></trkpt><trkpt lat="45.8575781" lon="11.7336118"><ele>1060.0</ele><time>2026-04-26T16:06:29.752Z</time></trkpt><trkpt lat="45.8574875" lon="11.7336042"><ele>1059.8333333333333</ele><time>2026-04-26T16:06:30.758Z</time></trkpt><trkpt lat="45.8574013" lon="11.7335728"><ele>1059.6666666666665</ele><time>2026-04-26T16:06:31.75Z</time></trkpt><trkpt lat="45.8573156" lon="11.7335394"><ele>1059.5</ele><time>2026-04-26T16:06:32.747Z</time></trkpt><trkpt lat="45.8572349" lon="11.7335008"><ele>1059.3333333333333</ele><time>2026-04-26T16:06:33.758Z</time></trkpt><trkpt lat="45.8571478" lon="11.7334934"><ele>1059.1666666666667</ele><time>2026-04-26T16:06:34.749Z</time></trkpt><trkpt lat="45.8570714" lon="11.73353"><ele>1059.0</ele><time>2026-04-26T16:06:35.754Z</time></trkpt><trkpt lat="45.8570091" lon="11.7336013"><ele>1059.5</ele><time>2026-04-26T16:06:36.755Z</time></trkpt><trkpt lat="45.8569608" lon="11.7336897"><ele>1060.0</ele><time>2026-04-26T16:06:37.752Z</time></trkpt><trkpt lat="45.8569188" lon="11.7337791"><ele>1060.5</ele><time>2026-04-26T16:06:38.758Z</time></trkpt><trkpt lat="45.8568784" lon="11.7338703"><ele>1061.0</ele><time>2026-04-26T16:06:39.756Z</time></trkpt><trkpt lat="45.8568332" lon="11.7339551"><ele>1061.5</ele><time>2026-04-26T16:06:40.758Z</time></trkpt><trkpt lat="45.8567757" lon="11.7340224"><ele>1062.0</ele><time>2026-04-26T16:06:41.75Z</time></trkpt><trkpt lat="45.8567095" lon="11.7340713"><ele>1062.0</ele><time>2026-04-26T16:06:42.762Z</time></trkpt><trkpt lat="45.8566473" lon="11.7341157"><ele>1062.0</ele><time>2026-04-26T16:06:43.755Z</time></trkpt><trkpt lat="45.8565803" lon="11.7341499"><ele>1062.0</ele><time>2026-04-26T16:06:44.751Z</time></trkpt><trkpt lat="45.856507" lon="11.7341929"><ele>1062.0</ele><time>2026-04-26T16:06:45.759Z</time></trkpt><trkpt lat="45.856441" lon="11.7342981"><ele>1062.0</ele><time>2026-04-26T16:06:46.756Z</time></trkpt><trkpt lat="45.8563803" lon="11.7343996"><ele>1062.0</ele><time>2026-04-26T16:06:47.746Z</time></trkpt><trkpt lat="45.8563333" lon="11.7345327"><ele>1060.0</ele><time>2026-04-26T16:06:48.756Z</time></trkpt><trkpt lat="45.8562748" lon="11.7346542"><ele>1058.0</ele><time>2026-04-26T16:06:49.742Z</time></trkpt><trkpt lat="45.8562137" lon="11.7347647"><ele>1056.0</ele><time>2026-04-26T16:06:50.748Z</time></trkpt><trkpt lat="45.8561527" lon="11.7348629"><ele>1054.0</ele><time>2026-04-26T16:06:51.768Z</time></trkpt><trkpt lat="45.8560973" lon="11.7349514"><ele>1052.0</ele><time>2026-04-26T16:06:52.754Z</time></trkpt><trkpt lat="45.8560423" lon="11.7350325"><ele>1052.0</ele><time>2026-04-26T16:06:53.762Z</time></trkpt><trkpt lat="45.8559629" lon="11.7350684"><ele>1052.0</ele><time>2026-04-26T16:06:54.75Z</time></trkpt><trkpt lat="45.8558741" lon="11.735088"><ele>1052.0</ele><time>2026-04-26T16:06:55.743Z</time></trkpt><trkpt lat="45.8557864" lon="11.7350795"><ele>1052.0</ele><time>2026-04-26T16:06:56.741Z</time></trkpt><trkpt lat="45.8557044" lon="11.7350619"><ele>1052.0</ele><time>2026-04-26T16:06:57.747Z</time></trkpt><trkpt lat="45.8556076" lon="11.7350297"><ele>1052.0</ele><time>2026-04-26T16:06:58.733Z</time></trkpt><trkpt lat="45.8555134" lon="11.7349719"><ele>1052.75</ele><time>2026-04-26T16:06:59.738Z</time></trkpt><trkpt lat="45.8554265" lon="11.734875"><ele>1053.5</ele><time>2026-04-26T16:07:00.74Z</time></trkpt><trkpt lat="45.8553303" lon="11.734772"><ele>1054.25</ele><time>2026-04-26T16:07:01.746Z</time></trkpt><trkpt lat="45.8552326" lon="11.7346768"><ele>1055.0</ele><time>2026-04-26T16:07:02.73Z</time></trkpt><trkpt lat="45.8551317" lon="11.7346215"><ele>1053.4</ele><time>2026-04-26T16:07:03.738Z</time></trkpt><trkpt lat="45.8550323" lon="11.7345641"><ele>1051.8</ele><time>2026-04-26T16:07:04.743Z</time></trkpt><trkpt lat="45.8549373" lon="11.7345503"><ele>1050.2</ele><time>2026-04-26T16:07:05.741Z</time></trkpt><trkpt lat="45.854842" lon="11.7345379"><ele>1048.6</ele><time>2026-04-26T16:07:06.729Z</time></trkpt><trkpt lat="45.8547487" lon="11.7345736"><ele>1047.0</ele><time>2026-04-26T16:07:07.731Z</time></trkpt><trkpt lat="45.854672" lon="11.7346553"><ele>1047.0</ele><time>2026-04-26T16:07:08.745Z</time></trkpt><trkpt lat="45.8546057" lon="11.734751"><ele>1047.0</ele><time>2026-04-26T16:07:09.753Z</time></trkpt><trkpt lat="45.8545347" lon="11.7348522"><ele>1047.0</ele><time>2026-04-26T16:07:10.742Z</time></trkpt><trkpt lat="45.8544587" lon="11.7349533"><ele>1047.0</ele><time>2026-04-26T16:07:11.739Z</time></trkpt><trkpt lat="45.854371" lon="11.7350144"><ele>1047.0</ele><time>2026-04-26T16:07:12.741Z</time></trkpt><trkpt lat="45.8542808" lon="11.7350395"><ele>1048.8</ele><time>2026-04-26T16:07:13.727Z</time></trkpt><trkpt lat="45.8541802" lon="11.7350603"><ele>1050.6</ele><time>2026-04-26T16:07:14.741Z</time></trkpt><trkpt lat="45.8540862" lon="11.7351071"><ele>1052.3999999999999</ele><time>2026-04-26T16:07:15.749Z</time></trkpt><trkpt lat="45.8540118" lon="11.7351572"><ele>1054.2</ele><time>2026-04-26T16:07:16.738Z</time></trkpt><trkpt lat="45.8539481" lon="11.7352569"><ele>1056.0</ele><time>2026-04-26T16:07:17.742Z</time></trkpt><trkpt lat="45.8538907" lon="11.7353518"><ele>1054.6</ele><time>2026-04-26T16:07:18.744Z</time></trkpt><trkpt lat="45.8538283" lon="11.7354421"><ele>1053.1999999999998</ele><time>2026-04-26T16:07:19.74Z</time></trkpt><trkpt lat="45.8537521" lon="11.7355092"><ele>1051.8000000000002</ele><time>2026-04-26T16:07:20.746Z</time></trkpt><trkpt lat="45.8536549" lon="11.7355537"><ele>1050.4</ele><time>2026-04-26T16:07:21.744Z</time></trkpt><trkpt lat="45.853552" lon="11.7355952"><ele>1049.0</ele><time>2026-04-26T16:07:22.737Z</time></trkpt><trkpt lat="45.8534502" lon="11.7356364"><ele>1049.0</ele><time>2026-04-26T16:07:23.736Z</time></trkpt><trkpt lat="45.8533524" lon="11.7356869"><ele>1049.0</ele><time>2026-04-26T16:07:24.741Z</time></trkpt><trkpt lat="45.8532598" lon="11.73575"><ele>1049.0</ele><time>2026-04-26T16:07:25.741Z</time></trkpt><trkpt lat="45.8531716" lon="11.7358283"><ele>1049.0</ele><time>2026-04-26T16:07:26.742Z</time></trkpt><trkpt lat="45.853092" lon="11.7358993"><ele>1049.0</ele><time>2026-04-26T16:07:27.744Z</time></trkpt><trkpt lat="45.8530078" lon="11.735979"><ele>1047.8</ele><time>2026-04-26T16:07:28.742Z</time></trkpt><trkpt lat="45.8529224" lon="11.7360625"><ele>1046.6000000000001</ele><time>2026-04-26T16:07:29.745Z</time></trkpt><trkpt lat="45.852837" lon="11.7361427"><ele>1045.4</ele><time>2026-04-26T16:07:30.741Z</time></trkpt><trkpt lat="45.8527557" lon="11.7362228"><ele>1044.2</ele><time>2026-04-26T16:07:31.747Z</time></trkpt><trkpt lat="45.8526694" lon="11.7362998"><ele>1043.0</ele><time>2026-04-26T16:07:32.739Z</time></trkpt><trkpt lat="45.852592" lon="11.7363786"><ele>1043.0</ele><time>2026-04-26T16:07:33.732Z</time></trkpt><trkpt lat="45.8525268" lon="11.7364761"><ele>1043.0</ele><time>2026-04-26T16:07:34.73Z</time></trkpt><trkpt lat="45.8524768" lon="11.7365917"><ele>1043.0</ele><time>2026-04-26T16:07:35.738Z</time></trkpt><trkpt lat="45.8524529" lon="11.7367164"><ele>1043.0</ele><time>2026-04-26T16:07:36.742Z</time></trkpt><trkpt lat="45.8524316" lon="11.7368477"><ele>1043.0</ele><time>2026-04-26T16:07:37.739Z</time></trkpt><trkpt lat="45.852429" lon="11.7369799"><ele>1041.8</ele><time>2026-04-26T16:07:38.732Z</time></trkpt><trkpt lat="45.8524416" lon="11.7371206"><ele>1040.6</ele><time>2026-04-26T16:07:39.741Z</time></trkpt><trkpt lat="45.8524527" lon="11.7372561"><ele>1039.4</ele><time>2026-04-26T16:07:40.744Z</time></trkpt><trkpt lat="45.8524621" lon="11.7373898"><ele>1038.2</ele><time>2026-04-26T16:07:41.729Z</time></trkpt><trkpt lat="45.8524606" lon="11.7375139"><ele>1037.0</ele><time>2026-04-26T16:07:42.734Z</time></trkpt><trkpt lat="45.8524526" lon="11.737637"><ele>1035.3333333333335</ele><time>2026-04-26T16:07:43.732Z</time></trkpt><trkpt lat="45.8524116" lon="11.7377478"><ele>1033.6666666666667</ele><time>2026-04-26T16:07:44.741Z</time></trkpt><trkpt lat="45.8523522" lon="11.737851"><ele>1032.0</ele><time>2026-04-26T16:07:45.734Z</time></trkpt><trkpt lat="45.8522917" lon="11.737937"><ele>1030.3333333333333</ele><time>2026-04-26T16:07:46.746Z</time></trkpt><trkpt lat="45.8522199" lon="11.7380158"><ele>1028.6666666666665</ele><time>2026-04-26T16:07:47.743Z</time></trkpt><trkpt lat="45.8521436" lon="11.7380838"><ele>1027.0</ele><time>2026-04-26T16:07:48.733Z</time></trkpt><trkpt lat="45.852068" lon="11.7381358"><ele>1027.0</ele><time>2026-04-26T16:07:49.742Z</time></trkpt><trkpt lat="45.8519886" lon="11.7381847"><ele>1027.0</ele><time>2026-04-26T16:07:50.732Z</time></trkpt><trkpt lat="45.8519108" lon="11.7382346"><ele>1027.0</ele><time>2026-04-26T16:07:51.741Z</time></trkpt><trkpt lat="45.8518324" lon="11.7382846"><ele>1027.0</ele><time>2026-04-26T16:07:52.741Z</time></trkpt><trkpt lat="45.8517549" lon="11.7383519"><ele>1027.0</ele><time>2026-04-26T16:07:53.737Z</time></trkpt><trkpt lat="45.8517269" lon="11.7384793"><ele>1027.0</ele><time>2026-04-26T16:07:54.741Z</time></trkpt><trkpt lat="45.8517089" lon="11.7386101"><ele>1026.2</ele><time>2026-04-26T16:07:55.735Z</time></trkpt><trkpt lat="45.8517476" lon="11.7387462"><ele>1025.4</ele><time>2026-04-26T16:07:56.732Z</time></trkpt><trkpt lat="45.8518097" lon="11.7388723"><ele>1024.6</ele><time>2026-04-26T16:07:57.725Z</time></trkpt><trkpt lat="45.8518868" lon="11.7389956"><ele>1023.8</ele><time>2026-04-26T16:07:58.739Z</time></trkpt><trkpt lat="45.8519616" lon="11.7391277"><ele>1023.0</ele><time>2026-04-26T16:07:59.738Z</time></trkpt><trkpt lat="45.8520328" lon="11.7392595"><ele>1022.0</ele><time>2026-04-26T16:08:00.743Z</time></trkpt><trkpt lat="45.8520965" lon="11.7393936"><ele>1021.0</ele><time>2026-04-26T16:08:01.739Z</time></trkpt><trkpt lat="45.8521495" lon="11.7395174"><ele>1020.0</ele><time>2026-04-26T16:08:02.744Z</time></trkpt><trkpt lat="45.8521862" lon="11.7396492"><ele>1019.0</ele><time>2026-04-26T16:08:03.732Z</time></trkpt><trkpt lat="45.8522002" lon="11.7397883"><ele>1018.0</ele><time>2026-04-26T16:08:04.73Z</time></trkpt><trkpt lat="45.8521945" lon="11.7399252"><ele>1018.0</ele><time>2026-04-26T16:08:05.741Z</time></trkpt><trkpt lat="45.852174" lon="11.74006"><ele>1018.0</ele><time>2026-04-26T16:08:06.736Z</time></trkpt><trkpt lat="45.8521409" lon="11.7401947"><ele>1018.0</ele><time>2026-04-26T16:08:07.734Z</time></trkpt><trkpt lat="45.8520979" lon="11.7403247"><ele>1018.0</ele><time>2026-04-26T16:08:08.745Z</time></trkpt><trkpt lat="45.8520475" lon="11.7404525"><ele>1018.0</ele><time>2026-04-26T16:08:09.733Z</time></trkpt><trkpt lat="45.8519878" lon="11.7405777"><ele>1018.4</ele><time>2026-04-26T16:08:10.733Z</time></trkpt><trkpt lat="45.8519245" lon="11.7406958"><ele>1018.8</ele><time>2026-04-26T16:08:11.743Z</time></trkpt><trkpt lat="45.8518501" lon="11.7408112"><ele>1019.2</ele><time>2026-04-26T16:08:12.741Z</time></trkpt><trkpt lat="45.8517743" lon="11.7409242"><ele>1019.6</ele><time>2026-04-26T16:08:13.743Z</time></trkpt><trkpt lat="45.8517001" lon="11.7410324"><ele>1020.0</ele><time>2026-04-26T16:08:14.747Z</time></trkpt><trkpt lat="45.8516364" lon="11.7411584"><ele>1020.0</ele><time>2026-04-26T16:08:15.742Z</time></trkpt><trkpt lat="45.85158" lon="11.7413004"><ele>1020.0</ele><time>2026-04-26T16:08:16.741Z</time></trkpt><trkpt lat="45.8515229" lon="11.7414434"><ele>1020.0</ele><time>2026-04-26T16:08:17.732Z</time></trkpt><trkpt lat="45.8514665" lon="11.7416018"><ele>1020.0</ele><time>2026-04-26T16:08:18.725Z</time></trkpt><trkpt lat="45.8514118" lon="11.7417533"><ele>1015.0</ele><time>2026-04-26T16:08:19.744Z</time></trkpt><trkpt lat="45.8513451" lon="11.7418999"><ele>1010.0</ele><time>2026-04-26T16:08:20.739Z</time></trkpt><trkpt lat="45.8512742" lon="11.7420403"><ele>1005.0</ele><time>2026-04-26T16:08:21.745Z</time></trkpt><trkpt lat="45.8512038" lon="11.7421785"><ele>1000.0</ele><time>2026-04-26T16:08:22.742Z</time></trkpt><trkpt lat="45.8511294" lon="11.742301"><ele>1000.0</ele><time>2026-04-26T16:08:23.735Z</time></trkpt><trkpt lat="45.851061" lon="11.7424131"><ele>1000.0</ele><time>2026-04-26T16:08:24.744Z</time></trkpt><trkpt lat="45.8509708" lon="11.7424929"><ele>1000.0</ele><time>2026-04-26T16:08:25.741Z</time></trkpt><trkpt lat="45.850875" lon="11.742561"><ele>1000.0</ele><time>2026-04-26T16:08:26.746Z</time></trkpt><trkpt lat="45.8507782" lon="11.7426279"><ele>1000.0</ele><time>2026-04-26T16:08:27.737Z</time></trkpt><trkpt lat="45.8506849" lon="11.742692"><ele>999.0</ele><time>2026-04-26T16:08:28.743Z</time></trkpt><trkpt lat="45.8505958" lon="11.7427563"><ele>998.0</ele><time>2026-04-26T16:08:29.741Z</time></trkpt><trkpt lat="45.8505121" lon="11.7428148"><ele>997.0</ele><time>2026-04-26T16:08:30.733Z</time></trkpt><trkpt lat="45.8504202" lon="11.7428532"><ele>996.0</ele><time>2026-04-26T16:08:31.747Z</time></trkpt><trkpt lat="45.8503183" lon="11.742859"><ele>995.0</ele><time>2026-04-26T16:08:32.738Z</time></trkpt><trkpt lat="45.8502154" lon="11.7428269"><ele>996.8</ele><time>2026-04-26T16:08:33.728Z</time></trkpt><trkpt lat="45.8501151" lon="11.7427722"><ele>998.6</ele><time>2026-04-26T16:08:34.745Z</time></trkpt><trkpt lat="45.8500144" lon="11.742733"><ele>1000.4000000000001</ele><time>2026-04-26T16:08:35.729Z</time></trkpt><trkpt lat="45.8499135" lon="11.7427105"><ele>1002.2</ele><time>2026-04-26T16:08:36.743Z</time></trkpt><trkpt lat="45.8498127" lon="11.7427142"><ele>1004.0</ele><time>2026-04-26T16:08:37.742Z</time></trkpt><trkpt lat="45.8497116" lon="11.742742"><ele>1004.0</ele><time>2026-04-26T16:08:38.742Z</time></trkpt><trkpt lat="45.8496131" lon="11.7427827"><ele>1004.0000000000001</ele><time>2026-04-26T16:08:39.738Z</time></trkpt><trkpt lat="45.8495164" lon="11.7428237"><ele>1004.0000000000001</ele><time>2026-04-26T16:08:40.737Z</time></trkpt><trkpt lat="45.8494239" lon="11.742861"><ele>1004.0</ele><time>2026-04-26T16:08:41.74Z</time></trkpt><trkpt lat="45.8493274" lon="11.7428862"><ele>1004.0</ele><time>2026-04-26T16:08:42.739Z</time></trkpt><trkpt lat="45.8492304" lon="11.7429012"><ele>1006.2</ele><time>2026-04-26T16:08:43.745Z</time></trkpt><trkpt lat="45.8491327" lon="11.7429247"><ele>1008.4000000000001</ele><time>2026-04-26T16:08:44.746Z</time></trkpt><trkpt lat="45.8490379" lon="11.742967"><ele>1010.6</ele><time>2026-04-26T16:08:45.736Z</time></trkpt><trkpt lat="45.8489466" lon="11.7430266"><ele>1012.8</ele><time>2026-04-26T16:08:46.744Z</time></trkpt><trkpt lat="45.8488601" lon="11.7430951"><ele>1015.0</ele><time>2026-04-26T16:08:47.744Z</time></trkpt><trkpt lat="45.8487781" lon="11.7431712"><ele>1015.0</ele><time>2026-04-26T16:08:48.749Z</time></trkpt><trkpt lat="45.8486982" lon="11.7432554"><ele>1015.0</ele><time>2026-04-26T16:08:49.745Z</time></trkpt><trkpt lat="45.8486215" lon="11.7433471"><ele>1015.0</ele><time>2026-04-26T16:08:50.746Z</time></trkpt><trkpt lat="45.8485415" lon="11.74344"><ele>1015.0</ele><time>2026-04-26T16:08:51.74Z</time></trkpt><trkpt lat="45.8484593" lon="11.7435267"><ele>1015.0</ele><time>2026-04-26T16:08:52.741Z</time></trkpt><trkpt lat="45.8483717" lon="11.743602"><ele>1012.6</ele><time>2026-04-26T16:08:53.744Z</time></trkpt><trkpt lat="45.8482791" lon="11.7436635"><ele>1010.2</ele><time>2026-04-26T16:08:54.743Z</time></trkpt><trkpt lat="45.8481854" lon="11.7437096"><ele>1007.8</ele><time>2026-04-26T16:08:55.747Z</time></trkpt><trkpt lat="45.8480912" lon="11.7437606"><ele>1005.4</ele><time>2026-04-26T16:08:56.741Z</time></trkpt><trkpt lat="45.8479958" lon="11.7438187"><ele>1003.0</ele><time>2026-04-26T16:08:57.742Z</time></trkpt><trkpt lat="45.8479025" lon="11.7438788"><ele>1003.0</ele><time>2026-04-26T16:08:58.748Z</time></trkpt><trkpt lat="45.8478109" lon="11.7439411"><ele>1003.0</ele><time>2026-04-26T16:08:59.738Z</time></trkpt><trkpt lat="45.8477214" lon="11.7439968"><ele>1003.0</ele><time>2026-04-26T16:09:00.741Z</time></trkpt><trkpt lat="45.8476355" lon="11.74403"><ele>1003.0</ele><time>2026-04-26T16:09:01.743Z</time></trkpt><trkpt lat="45.8475493" lon="11.7440279"><ele>1003.0</ele><time>2026-04-26T16:09:02.738Z</time></trkpt><trkpt lat="45.8474706" lon="11.7439807"><ele>1003.9999999999999</ele><time>2026-04-26T16:09:03.741Z</time></trkpt><trkpt lat="45.847407" lon="11.743892"><ele>1005.0</ele><time>2026-04-26T16:09:04.738Z</time></trkpt><trkpt lat="45.8473569" lon="11.7437843"><ele>1006.0</ele><time>2026-04-26T16:09:05.738Z</time></trkpt><trkpt lat="45.8473144" lon="11.7436713"><ele>1007.0</ele><time>2026-04-26T16:09:06.743Z</time></trkpt><trkpt lat="45.8472711" lon="11.74356"><ele>1007.9999999999999</ele><time>2026-04-26T16:09:07.743Z</time></trkpt><trkpt lat="45.8472169" lon="11.7434551"><ele>1009.0</ele><time>2026-04-26T16:09:08.739Z</time></trkpt><trkpt lat="45.8471523" lon="11.7433594"><ele>1010.6</ele><time>2026-04-26T16:09:09.747Z</time></trkpt><trkpt lat="45.847079" lon="11.7432754"><ele>1012.2</ele><time>2026-04-26T16:09:10.744Z</time></trkpt><trkpt lat="45.8469965" lon="11.7432132"><ele>1013.8000000000001</ele><time>2026-04-26T16:09:11.745Z</time></trkpt><trkpt lat="45.8469128" lon="11.7431509"><ele>1015.4000000000001</ele><time>2026-04-26T16:09:12.734Z</time></trkpt><trkpt lat="45.8468159" lon="11.7431434"><ele>1017.0</ele><time>2026-04-26T16:09:13.73Z</time></trkpt><trkpt lat="45.8467172" lon="11.7431366"><ele>1017.0</ele><time>2026-04-26T16:09:14.747Z</time></trkpt><trkpt lat="45.846625" lon="11.743198"><ele>1017.0</ele><time>2026-04-26T16:09:15.749Z</time></trkpt><trkpt lat="45.8465564" lon="11.7433119"><ele>1017.0</ele><time>2026-04-26T16:09:16.739Z</time></trkpt><trkpt lat="45.8464905" lon="11.7434226"><ele>1017.0</ele><time>2026-04-26T16:09:17.741Z</time></trkpt><trkpt lat="45.8464407" lon="11.743545"><ele>1017.0</ele><time>2026-04-26T16:09:18.73Z</time></trkpt><trkpt lat="45.846392" lon="11.7436607"><ele>1014.6</ele><time>2026-04-26T16:09:19.742Z</time></trkpt><trkpt lat="45.8463446" lon="11.7437789"><ele>1012.2</ele><time>2026-04-26T16:09:20.743Z</time></trkpt><trkpt lat="45.8462948" lon="11.7438921"><ele>1009.8</ele><time>2026-04-26T16:09:21.739Z</time></trkpt><trkpt lat="45.8462281" lon="11.7439935"><ele>1007.4</ele><time>2026-04-26T16:09:22.742Z</time></trkpt><trkpt lat="45.8461769" lon="11.7441058"><ele>1005.0</ele><time>2026-04-26T16:09:23.738Z</time></trkpt><trkpt lat="45.8461124" lon="11.7441993"><ele>1005.0</ele><time>2026-04-26T16:09:24.745Z</time></trkpt><trkpt lat="45.8460431" lon="11.7442906"><ele>1005.0</ele><time>2026-04-26T16:09:25.73Z</time></trkpt><trkpt lat="45.8459585" lon="11.7443798"><ele>1005.0</ele><time>2026-04-26T16:09:26.742Z</time></trkpt><trkpt lat="45.8458701" lon="11.7444718"><ele>1005.0</ele><time>2026-04-26T16:09:27.746Z</time></trkpt><trkpt lat="45.84578" lon="11.7445628"><ele>1005.0</ele><time>2026-04-26T16:09:28.741Z</time></trkpt><trkpt lat="45.8456747" lon="11.7446321"><ele>1005.4</ele><time>2026-04-26T16:09:29.749Z</time></trkpt><trkpt lat="45.8455738" lon="11.7446968"><ele>1005.8</ele><time>2026-04-26T16:09:30.744Z</time></trkpt><trkpt lat="45.8454816" lon="11.7447435"><ele>1006.2</ele><time>2026-04-26T16:09:31.739Z</time></trkpt><trkpt lat="45.845383" lon="11.7448035"><ele>1006.6</ele><time>2026-04-26T16:09:32.749Z</time></trkpt><trkpt lat="45.8452882" lon="11.7448648"><ele>1007.0</ele><time>2026-04-26T16:09:33.741Z</time></trkpt><trkpt lat="45.8452074" lon="11.744929"><ele>1007.0000000000001</ele><time>2026-04-26T16:09:34.738Z</time></trkpt><trkpt lat="45.8451313" lon="11.7449924"><ele>1007.0</ele><time>2026-04-26T16:09:35.738Z</time></trkpt><trkpt lat="45.8450632" lon="11.7450466"><ele>1007.0</ele><time>2026-04-26T16:09:36.743Z</time></trkpt><trkpt lat="45.8450118" lon="11.7451163"><ele>1007.0</ele><time>2026-04-26T16:09:37.733Z</time></trkpt><trkpt lat="45.8449431" lon="11.7451639"><ele>1007.0000000000001</ele><time>2026-04-26T16:09:38.742Z</time></trkpt><trkpt lat="45.84487" lon="11.7451875"><ele>1007.0</ele><time>2026-04-26T16:09:39.742Z</time></trkpt><trkpt lat="45.8447843" lon="11.745171"><ele>1008.6</ele><time>2026-04-26T16:09:40.741Z</time></trkpt><trkpt lat="45.8446995" lon="11.7451346"><ele>1010.2</ele><time>2026-04-26T16:09:41.748Z</time></trkpt><trkpt lat="45.8446112" lon="11.7450822"><ele>1011.8</ele><time>2026-04-26T16:09:42.752Z</time></trkpt><trkpt lat="45.8445301" lon="11.7450192"><ele>1013.4</ele><time>2026-04-26T16:09:43.74Z</time></trkpt><trkpt lat="45.8444471" lon="11.744955"><ele>1015.0</ele><time>2026-04-26T16:09:44.738Z</time></trkpt><trkpt lat="45.8443701" lon="11.7448702"><ele>1012.4</ele><time>2026-04-26T16:09:45.74Z</time></trkpt><trkpt lat="45.8442929" lon="11.7447787"><ele>1009.8</ele><time>2026-04-26T16:09:46.741Z</time></trkpt><trkpt lat="45.8442133" lon="11.7446891"><ele>1007.2</ele><time>2026-04-26T16:09:47.747Z</time></trkpt><trkpt lat="45.8441305" lon="11.7445937"><ele>1004.6</ele><time>2026-04-26T16:09:48.741Z</time></trkpt><trkpt lat="45.8440495" lon="11.7444962"><ele>1002.0</ele><time>2026-04-26T16:09:49.741Z</time></trkpt><trkpt lat="45.8439682" lon="11.7443914"><ele>1007.25</ele><time>2026-04-26T16:09:50.745Z</time></trkpt><trkpt lat="45.8438818" lon="11.7442798"><ele>1012.5</ele><time>2026-04-26T16:09:51.74Z</time></trkpt><trkpt lat="45.843797" lon="11.7441651"><ele>1017.75</ele><time>2026-04-26T16:09:52.74Z</time></trkpt><trkpt lat="45.8437079" lon="11.7440493"><ele>1023.0</ele><time>2026-04-26T16:09:53.743Z</time></trkpt><trkpt lat="45.8436267" lon="11.7439217"><ele>1023.0</ele><time>2026-04-26T16:09:54.74Z</time></trkpt><trkpt lat="45.8435567" lon="11.7437829"><ele>1023.0</ele><time>2026-04-26T16:09:55.74Z</time></trkpt><trkpt lat="45.8434902" lon="11.7436416"><ele>1023.0</ele><time>2026-04-26T16:09:56.75Z</time></trkpt><trkpt lat="45.8434235" lon="11.7435117"><ele>1023.0</ele><time>2026-04-26T16:09:57.741Z</time></trkpt><trkpt lat="45.8433585" lon="11.743401"><ele>1020.8333333333334</ele><time>2026-04-26T16:09:58.747Z</time></trkpt><trkpt lat="45.8432939" lon="11.7433032"><ele>1018.6666666666667</ele><time>2026-04-26T16:09:59.741Z</time></trkpt><trkpt lat="45.8432319" lon="11.7432165"><ele>1016.5</ele><time>2026-04-26T16:10:00.741Z</time></trkpt><trkpt lat="45.8431728" lon="11.7431332"><ele>1014.3333333333334</ele><time>2026-04-26T16:10:01.743Z</time></trkpt><trkpt lat="45.8431183" lon="11.7430589"><ele>1012.1666666666667</ele><time>2026-04-26T16:10:02.744Z</time></trkpt><trkpt lat="45.8430601" lon="11.742979"><ele>1010.0</ele><time>2026-04-26T16:10:03.742Z</time></trkpt><trkpt lat="45.8430061" lon="11.7429006"><ele>1010.0000000000001</ele><time>2026-04-26T16:10:04.742Z</time></trkpt><trkpt lat="45.8429647" lon="11.742817"><ele>1010.0</ele><time>2026-04-26T16:10:05.742Z</time></trkpt><trkpt lat="45.8429303" lon="11.7427305"><ele>1010.0</ele><time>2026-04-26T16:10:06.741Z</time></trkpt><trkpt lat="45.8429283" lon="11.7426043"><ele>1010.0</ele><time>2026-04-26T16:10:07.741Z</time></trkpt><trkpt lat="45.842947" lon="11.7424582"><ele>1010.0000000000001</ele><time>2026-04-26T16:10:08.742Z</time></trkpt><trkpt lat="45.8429567" lon="11.7423048"><ele>1010.0</ele><time>2026-04-26T16:10:09.729Z</time></trkpt><trkpt lat="45.8429573" lon="11.7421633"><ele>1012.6</ele><time>2026-04-26T16:10:10.73Z</time></trkpt><trkpt lat="45.8429473" lon="11.7420127"><ele>1015.2</ele><time>2026-04-26T16:10:11.744Z</time></trkpt><trkpt lat="45.8429318" lon="11.7418629"><ele>1017.8</ele><time>2026-04-26T16:10:12.753Z</time></trkpt><trkpt lat="45.8429091" lon="11.7417194"><ele>1020.4</ele><time>2026-04-26T16:10:13.73Z</time></trkpt><trkpt lat="45.8428823" lon="11.7415829"><ele>1023.0</ele><time>2026-04-26T16:10:14.741Z</time></trkpt><trkpt lat="45.8428608" lon="11.7414377"><ele>1024.1666666666667</ele><time>2026-04-26T16:10:15.726Z</time></trkpt><trkpt lat="45.8428436" lon="11.7412938"><ele>1025.3333333333333</ele><time>2026-04-26T16:10:16.733Z</time></trkpt><trkpt lat="45.8428269" lon="11.7411712"><ele>1026.5</ele><time>2026-04-26T16:10:17.743Z</time></trkpt><trkpt lat="45.842812" lon="11.7410523"><ele>1027.6666666666665</ele><time>2026-04-26T16:10:18.737Z</time></trkpt><trkpt lat="45.8427934" lon="11.7409363"><ele>1028.8333333333333</ele><time>2026-04-26T16:10:19.741Z</time></trkpt><trkpt lat="45.8427776" lon="11.7408326"><ele>1030.0</ele><time>2026-04-26T16:10:20.726Z</time></trkpt><trkpt lat="45.8427435" lon="11.740731"><ele>1031.3333333333333</ele><time>2026-04-26T16:10:21.739Z</time></trkpt><trkpt lat="45.8427087" lon="11.7406342"><ele>1032.6666666666665</ele><time>2026-04-26T16:10:22.741Z</time></trkpt><trkpt lat="45.8426522" lon="11.7405554"><ele>1034.0</ele><time>2026-04-26T16:10:23.742Z</time></trkpt><trkpt lat="45.8425673" lon="11.7405289"><ele>1035.3333333333333</ele><time>2026-04-26T16:10:24.741Z</time></trkpt><trkpt lat="45.8424758" lon="11.740534"><ele>1036.6666666666667</ele><time>2026-04-26T16:10:25.739Z</time></trkpt><trkpt lat="45.8423793" lon="11.7405629"><ele>1038.0</ele><time>2026-04-26T16:10:26.742Z</time></trkpt><trkpt lat="45.8422877" lon="11.7405615"><ele>1031.2</ele><time>2026-04-26T16:10:27.738Z</time></trkpt><trkpt lat="45.8421882" lon="11.7405526"><ele>1024.4</ele><time>2026-04-26T16:10:28.739Z</time></trkpt><trkpt lat="45.8420945" lon="11.7405005"><ele>1017.6000000000001</ele><time>2026-04-26T16:10:29.742Z</time></trkpt><trkpt lat="45.8420022" lon="11.7404455"><ele>1010.8000000000001</ele><time>2026-04-26T16:10:30.743Z</time></trkpt><trkpt lat="45.841911" lon="11.7403867"><ele>1004.0</ele><time>2026-04-26T16:10:31.741Z</time></trkpt><trkpt lat="45.8418215" lon="11.740325"><ele>1004.5000000000001</ele><time>2026-04-26T16:10:32.741Z</time></trkpt><trkpt lat="45.8417405" lon="11.740253"><ele>1005.0</ele><time>2026-04-26T16:10:33.741Z</time></trkpt><trkpt lat="45.8416654" lon="11.7401865"><ele>1005.5</ele><time>2026-04-26T16:10:34.735Z</time></trkpt><trkpt lat="45.8416023" lon="11.7401015"><ele>1006.0</ele><time>2026-04-26T16:10:35.744Z</time></trkpt><trkpt lat="45.8415398" lon="11.7400164"><ele>1006.5000000000001</ele><time>2026-04-26T16:10:36.744Z</time></trkpt><trkpt lat="45.8414857" lon="11.7399379"><ele>1007.0</ele><time>2026-04-26T16:10:37.742Z</time></trkpt><trkpt lat="45.8414491" lon="11.7398283"><ele>1007.0</ele><time>2026-04-26T16:10:38.745Z</time></trkpt><trkpt lat="45.841416" lon="11.7397143"><ele>1007.0</ele><time>2026-04-26T16:10:39.743Z</time></trkpt><trkpt lat="45.8413757" lon="11.739613"><ele>1007.0</ele><time>2026-04-26T16:10:40.744Z</time></trkpt><trkpt lat="45.8413306" lon="11.7394939"><ele>1007.0</ele><time>2026-04-26T16:10:41.742Z</time></trkpt><trkpt lat="45.8412639" lon="11.7393673"><ele>1007.0</ele><time>2026-04-26T16:10:42.737Z</time></trkpt><trkpt lat="45.8411961" lon="11.7392466"><ele>1005.0</ele><time>2026-04-26T16:10:43.742Z</time></trkpt><trkpt lat="45.8411194" lon="11.7391524"><ele>1003.0</ele><time>2026-04-26T16:10:44.745Z</time></trkpt><trkpt lat="45.8410321" lon="11.7390655"><ele>1001.0</ele><time>2026-04-26T16:10:45.743Z</time></trkpt><trkpt lat="45.8409468" lon="11.7389867"><ele>999.0</ele><time>2026-04-26T16:10:46.742Z</time></trkpt><trkpt lat="45.8408582" lon="11.7389154"><ele>997.0</ele><time>2026-04-26T16:10:47.745Z</time></trkpt><trkpt lat="45.8407707" lon="11.7388453"><ele>997.0</ele><time>2026-04-26T16:10:48.744Z</time></trkpt><trkpt lat="45.8406956" lon="11.7387519"><ele>997.0</ele><time>2026-04-26T16:10:49.746Z</time></trkpt><trkpt lat="45.8406313" lon="11.7386443"><ele>997.0</ele><time>2026-04-26T16:10:50.741Z</time></trkpt><trkpt lat="45.8405763" lon="11.7385245"><ele>997.0</ele><time>2026-04-26T16:10:51.741Z</time></trkpt><trkpt lat="45.8405284" lon="11.7383998"><ele>997.0</ele><time>2026-04-26T16:10:52.734Z</time></trkpt><trkpt lat="45.8404798" lon="11.7382799"><ele>1000.6</ele><time>2026-04-26T16:10:53.738Z</time></trkpt><trkpt lat="45.8404261" lon="11.7381536"><ele>1004.2</ele><time>2026-04-26T16:10:54.742Z</time></trkpt><trkpt lat="45.840369" lon="11.7380229"><ele>1007.8</ele><time>2026-04-26T16:10:55.742Z</time></trkpt><trkpt lat="45.8403024" lon="11.7379004"><ele>1011.4</ele><time>2026-04-26T16:10:56.739Z</time></trkpt><trkpt lat="45.8402268" lon="11.7377769"><ele>1015.0</ele><time>2026-04-26T16:10:57.742Z</time></trkpt><trkpt lat="45.8401404" lon="11.7376596"><ele>1012.0</ele><time>2026-04-26T16:10:58.742Z</time></trkpt><trkpt lat="45.8400407" lon="11.7375597"><ele>1009.0</ele><time>2026-04-26T16:10:59.741Z</time></trkpt><trkpt lat="45.839919" lon="11.7374626"><ele>1006.0</ele><time>2026-04-26T16:11:00.738Z</time></trkpt><trkpt lat="45.8398011" lon="11.7373675"><ele>1003.0</ele><time>2026-04-26T16:11:01.745Z</time></trkpt><trkpt lat="45.8396927" lon="11.7372728"><ele>1003.0</ele><time>2026-04-26T16:11:02.738Z</time></trkpt><trkpt lat="45.8395937" lon="11.7371785"><ele>1003.0</ele><time>2026-04-26T16:11:03.743Z</time></trkpt><trkpt lat="45.8395049" lon="11.7370892"><ele>1003.0</ele><time>2026-04-26T16:11:04.74Z</time></trkpt><trkpt lat="45.8394241" lon="11.7370025"><ele>1003.0</ele><time>2026-04-26T16:11:05.743Z</time></trkpt><trkpt lat="45.8393469" lon="11.7369225"><ele>1003.0</ele><time>2026-04-26T16:11:06.738Z</time></trkpt><trkpt lat="45.839274" lon="11.7368523"><ele>1001.8</ele><time>2026-04-26T16:11:07.73Z</time></trkpt><trkpt lat="45.8391884" lon="11.7367958"><ele>1000.5999999999999</ele><time>2026-04-26T16:11:08.731Z</time></trkpt><trkpt lat="45.8390945" lon="11.7367591"><ele>999.4000000000001</ele><time>2026-04-26T16:11:09.734Z</time></trkpt><trkpt lat="45.8389933" lon="11.7367445"><ele>998.2</ele><time>2026-04-26T16:11:10.74Z</time></trkpt><trkpt lat="45.8388866" lon="11.7367415"><ele>997.0</ele><time>2026-04-26T16:11:11.74Z</time></trkpt><trkpt lat="45.8387768" lon="11.7367441"><ele>997.0</ele><time>2026-04-26T16:11:12.734Z</time></trkpt><trkpt lat="45.8386717" lon="11.7367444"><ele>997.0</ele><time>2026-04-26T16:11:13.745Z</time></trkpt><trkpt lat="45.8385646" lon="11.7367423"><ele>997.0</ele><time>2026-04-26T16:11:14.745Z</time></trkpt><trkpt lat="45.838458" lon="11.7367384"><ele>997.0</ele><time>2026-04-26T16:11:15.737Z</time></trkpt><trkpt lat="45.8383513" lon="11.7367374"><ele>997.0</ele><time>2026-04-26T16:11:16.732Z</time></trkpt><trkpt lat="45.8382466" lon="11.7367352"><ele>997.6</ele><time>2026-04-26T16:11:17.741Z</time></trkpt><trkpt lat="45.8381446" lon="11.7367335"><ele>998.2</ele><time>2026-04-26T16:11:18.742Z</time></trkpt><trkpt lat="45.838043" lon="11.7367258"><ele>998.8</ele><time>2026-04-26T16:11:19.731Z</time></trkpt><trkpt lat="45.8379394" lon="11.7367013"><ele>999.4</ele><time>2026-04-26T16:11:20.743Z</time></trkpt><trkpt lat="45.8378385" lon="11.7366515"><ele>1000.0</ele><time>2026-04-26T16:11:21.735Z</time></trkpt><trkpt lat="45.8377437" lon="11.7365819"><ele>1000.0</ele><time>2026-04-26T16:11:22.737Z</time></trkpt><trkpt lat="45.8376489" lon="11.7365025"><ele>1000.0</ele><time>2026-04-26T16:11:23.741Z</time></trkpt><trkpt lat="45.8375558" lon="11.7364245"><ele>1000.0</ele><time>2026-04-26T16:11:24.73Z</time></trkpt><trkpt lat="45.8374605" lon="11.7363551"><ele>1000.0</ele><time>2026-04-26T16:11:25.737Z</time></trkpt><trkpt lat="45.8373591" lon="11.7362982"><ele>1000.0</ele><time>2026-04-26T16:11:26.741Z</time></trkpt><trkpt lat="45.8372548" lon="11.7362507"><ele>1000.4</ele><time>2026-04-26T16:11:27.737Z</time></trkpt><trkpt lat="45.8371596" lon="11.7362087"><ele>1000.8</ele><time>2026-04-26T16:11:28.742Z</time></trkpt><trkpt lat="45.8370704" lon="11.7361589"><ele>1001.2</ele><time>2026-04-26T16:11:29.756Z</time></trkpt><trkpt lat="45.8369782" lon="11.7361042"><ele>1001.6</ele><time>2026-04-26T16:11:30.743Z</time></trkpt><trkpt lat="45.836885" lon="11.7360504"><ele>1002.0</ele><time>2026-04-26T16:11:31.74Z</time></trkpt><trkpt lat="45.8367918" lon="11.7360036"><ele>1002.0</ele><time>2026-04-26T16:11:32.749Z</time></trkpt><trkpt lat="45.8366985" lon="11.7359675"><ele>1002.0</ele><time>2026-04-26T16:11:33.731Z</time></trkpt><trkpt lat="45.8366067" lon="11.7359389"><ele>1002.0</ele><time>2026-04-26T16:11:34.733Z</time></trkpt><trkpt lat="45.8365147" lon="11.7359103"><ele>1002.0</ele><time>2026-04-26T16:11:35.738Z</time></trkpt><trkpt lat="45.8364233" lon="11.7358839"><ele>1002.0</ele><time>2026-04-26T16:11:36.746Z</time></trkpt><trkpt lat="45.8363307" lon="11.7358479"><ele>1002.0</ele><time>2026-04-26T16:11:37.74Z</time></trkpt><trkpt lat="45.8362364" lon="11.7357992"><ele>1002.0</ele><time>2026-04-26T16:11:38.736Z</time></trkpt><trkpt lat="45.8361469" lon="11.7357393"><ele>1002.0</ele><time>2026-04-26T16:11:39.74Z</time></trkpt><trkpt lat="45.8360627" lon="11.7356648"><ele>1002.0</ele><time>2026-04-26T16:11:40.744Z</time></trkpt><trkpt lat="45.8359832" lon="11.7355742"><ele>1002.0</ele><time>2026-04-26T16:11:41.739Z</time></trkpt><trkpt lat="45.8359126" lon="11.735475"><ele>1002.3333333333334</ele><time>2026-04-26T16:11:42.741Z</time></trkpt><trkpt lat="45.8358435" lon="11.7353765"><ele>1002.6666666666667</ele><time>2026-04-26T16:11:43.737Z</time></trkpt><trkpt lat="45.8357737" lon="11.7352848"><ele>1003.0</ele><time>2026-04-26T16:11:44.746Z</time></trkpt><trkpt lat="45.8357126" lon="11.7352074"><ele>1003.3333333333334</ele><time>2026-04-26T16:11:45.766Z</time></trkpt><trkpt lat="45.8356611" lon="11.7351465"><ele>1003.6666666666667</ele><time>2026-04-26T16:11:46.76Z</time></trkpt><trkpt lat="45.8355772" lon="11.7350529"><ele>1004.0</ele><time>2026-04-26T16:11:48.798Z</time></trkpt><trkpt lat="45.8354845" lon="11.7349646"><ele>1004.6666666666667</ele><time>2026-04-26T16:11:50.746Z</time></trkpt><trkpt lat="45.8353777" lon="11.7348676"><ele>1005.3333333333334</ele><time>2026-04-26T16:11:52.746Z</time></trkpt><trkpt lat="45.8353198" lon="11.7348154"><ele>1006.0</ele><time>2026-04-26T16:11:53.751Z</time></trkpt><trkpt lat="45.8352609" lon="11.7347573"><ele>1006.6666666666667</ele><time>2026-04-26T16:11:54.74Z</time></trkpt><trkpt lat="45.8351998" lon="11.7346944"><ele>1007.3333333333334</ele><time>2026-04-26T16:11:55.758Z</time></trkpt><trkpt lat="45.8351409" lon="11.7346218"><ele>1008.0</ele><time>2026-04-26T16:11:56.749Z</time></trkpt><trkpt lat="45.835093" lon="11.7345287"><ele>1008.6666666666666</ele><time>2026-04-26T16:11:57.744Z</time></trkpt><trkpt lat="45.8350603" lon="11.7344218"><ele>1009.3333333333333</ele><time>2026-04-26T16:11:58.75Z</time></trkpt><trkpt lat="45.8350345" lon="11.7343072"><ele>1010.0</ele><time>2026-04-26T16:11:59.747Z</time></trkpt><trkpt lat="45.8350094" lon="11.7341916"><ele>1010.6666666666666</ele><time>2026-04-26T16:12:00.752Z</time></trkpt><trkpt lat="45.834975" lon="11.7340846"><ele>1011.3333333333333</ele><time>2026-04-26T16:12:01.74Z</time></trkpt><trkpt lat="45.8349236" lon="11.7340023"><ele>1012.0</ele><time>2026-04-26T16:12:02.743Z</time></trkpt><trkpt lat="45.8348541" lon="11.7339503"><ele>1013.6666666666666</ele><time>2026-04-26T16:12:03.753Z</time></trkpt><trkpt lat="45.8347745" lon="11.7339343"><ele>1015.3333333333333</ele><time>2026-04-26T16:12:04.732Z</time></trkpt><trkpt lat="45.8346923" lon="11.7339422"><ele>1017.0</ele><time>2026-04-26T16:12:05.748Z</time></trkpt><trkpt lat="45.8346099" lon="11.7339615"><ele>1018.6666666666667</ele><time>2026-04-26T16:12:06.746Z</time></trkpt><trkpt lat="45.8345273" lon="11.7339887"><ele>1020.3333333333334</ele><time>2026-04-26T16:12:07.752Z</time></trkpt><trkpt lat="45.8344496" lon="11.7340342"><ele>1022.0</ele><time>2026-04-26T16:12:08.746Z</time></trkpt><trkpt lat="45.834371" lon="11.7341022"><ele>1022.0000000000001</ele><time>2026-04-26T16:12:09.737Z</time></trkpt><trkpt lat="45.8342947" lon="11.7341849"><ele>1022.0</ele><time>2026-04-26T16:12:10.747Z</time></trkpt><trkpt lat="45.8342236" lon="11.734278"><ele>1022.0</ele><time>2026-04-26T16:12:11.76Z</time></trkpt><trkpt lat="45.8341591" lon="11.7343699"><ele>1022.0</ele><time>2026-04-26T16:12:12.739Z</time></trkpt><trkpt lat="45.8341062" lon="11.7344517"><ele>1022.0000000000001</ele><time>2026-04-26T16:12:13.764Z</time></trkpt><trkpt lat="45.8340615" lon="11.7345197"><ele>1022.0</ele><time>2026-04-26T16:12:14.754Z</time></trkpt><trkpt lat="45.8339712" lon="11.734647"><ele>1022.0000000000001</ele><time>2026-04-26T16:12:16.801Z</time></trkpt><trkpt lat="45.8339144" lon="11.7347131"><ele>1022.0</ele><time>2026-04-26T16:12:17.77Z</time></trkpt><trkpt lat="45.8338461" lon="11.7347808"><ele>1022.0</ele><time>2026-04-26T16:12:18.758Z</time></trkpt><trkpt lat="45.8337714" lon="11.7348497"><ele>1022.0</ele><time>2026-04-26T16:12:19.779Z</time></trkpt><trkpt lat="45.8336905" lon="11.7349175"><ele>1022.0000000000001</ele><time>2026-04-26T16:12:20.77Z</time></trkpt><trkpt lat="45.8336016" lon="11.7349747"><ele>1022.0</ele><time>2026-04-26T16:12:21.739Z</time></trkpt><trkpt lat="45.8335093" lon="11.7350154"><ele>1021.5000000000001</ele><time>2026-04-26T16:12:22.756Z</time></trkpt><trkpt lat="45.8334134" lon="11.7350479"><ele>1021.0</ele><time>2026-04-26T16:12:23.766Z</time></trkpt><trkpt lat="45.8333184" lon="11.7350781"><ele>1020.5</ele><time>2026-04-26T16:12:24.77Z</time></trkpt><trkpt lat="45.833232" lon="11.7351058"><ele>1020.0</ele><time>2026-04-26T16:12:25.807Z</time></trkpt><trkpt lat="45.8331552" lon="11.735125"><ele>1019.5000000000001</ele><time>2026-04-26T16:12:26.78Z</time></trkpt><trkpt lat="45.8330865" lon="11.735135"><ele>1019.0</ele><time>2026-04-26T16:12:27.771Z</time></trkpt><trkpt lat="45.8330207" lon="11.7351398"><ele>1019.0000000000001</ele><time>2026-04-26T16:12:28.762Z</time></trkpt><trkpt lat="45.8329516" lon="11.7351508"><ele>1019.0</ele><time>2026-04-26T16:12:29.767Z</time></trkpt><trkpt lat="45.8328828" lon="11.7351855"><ele>1019.0</ele><time>2026-04-26T16:12:30.749Z</time></trkpt><trkpt lat="45.832823" lon="11.7352518"><ele>1019.0</ele><time>2026-04-26T16:12:31.786Z</time></trkpt><trkpt lat="45.8327766" lon="11.7353413"><ele>1019.0000000000001</ele><time>2026-04-26T16:12:32.776Z</time></trkpt><trkpt lat="45.8327372" lon="11.7354406"><ele>1019.0</ele><time>2026-04-26T16:12:33.761Z</time></trkpt><trkpt lat="45.8326997" lon="11.7355378"><ele>1019.5000000000001</ele><time>2026-04-26T16:12:34.757Z</time></trkpt><trkpt lat="45.8326584" lon="11.7356348"><ele>1020.0</ele><time>2026-04-26T16:12:35.774Z</time></trkpt><trkpt lat="45.8326092" lon="11.7357259"><ele>1020.5</ele><time>2026-04-26T16:12:36.759Z</time></trkpt><trkpt lat="45.8325489" lon="11.7358037"><ele>1021.0</ele><time>2026-04-26T16:12:37.761Z</time></trkpt><trkpt lat="45.8324891" lon="11.73588"><ele>1021.5000000000001</ele><time>2026-04-26T16:12:38.743Z</time></trkpt><trkpt lat="45.8324138" lon="11.7359116"><ele>1022.0</ele><time>2026-04-26T16:12:39.748Z</time></trkpt><trkpt lat="45.8323365" lon="11.7359273"><ele>1022.0000000000001</ele><time>2026-04-26T16:12:40.742Z</time></trkpt><trkpt lat="45.8322579" lon="11.7359402"><ele>1022.0</ele><time>2026-04-26T16:12:41.749Z</time></trkpt><trkpt lat="45.8321835" lon="11.7359503"><ele>1022.0</ele><time>2026-04-26T16:12:42.756Z</time></trkpt><trkpt lat="45.8321083" lon="11.7359536"><ele>1022.0</ele><time>2026-04-26T16:12:43.759Z</time></trkpt><trkpt lat="45.8320359" lon="11.7359463"><ele>1022.0000000000001</ele><time>2026-04-26T16:12:44.759Z</time></trkpt><trkpt lat="45.8319613" lon="11.7359361"><ele>1022.0</ele><time>2026-04-26T16:12:45.766Z</time></trkpt><trkpt lat="45.8318841" lon="11.7359417"><ele>1022.0</ele><time>2026-04-26T16:12:46.756Z</time></trkpt><trkpt lat="45.8318132" lon="11.7359758"><ele>1022.0</ele><time>2026-04-26T16:12:47.748Z</time></trkpt><trkpt lat="45.8317536" lon="11.736039"><ele>1022.0</ele><time>2026-04-26T16:12:48.752Z</time></trkpt><trkpt lat="45.8317065" lon="11.7361254"><ele>1022.0</ele><time>2026-04-26T16:12:49.763Z</time></trkpt><trkpt lat="45.831661" lon="11.7362108"><ele>1022.0</ele><time>2026-04-26T16:12:50.757Z</time></trkpt><trkpt lat="45.831635" lon="11.7363154"><ele>1022.0</ele><time>2026-04-26T16:12:51.743Z</time></trkpt><trkpt lat="45.8316163" lon="11.7364038"><ele>1022.0</ele><time>2026-04-26T16:12:52.759Z</time></trkpt><trkpt lat="45.8315769" lon="11.7365717"><ele>1021.4000000000001</ele><time>2026-04-26T16:12:54.745Z</time></trkpt><trkpt lat="45.831503" lon="11.736728"><ele>1020.8000000000001</ele><time>2026-04-26T16:12:56.756Z</time></trkpt><trkpt lat="45.8314433" lon="11.7368008"><ele>1020.2</ele><time>2026-04-26T16:12:57.757Z</time></trkpt><trkpt lat="45.8313692" lon="11.7368503"><ele>1019.6</ele><time>2026-04-26T16:12:58.749Z</time></trkpt><trkpt lat="45.8312852" lon="11.7368769"><ele>1019.0</ele><time>2026-04-26T16:12:59.756Z</time></trkpt><trkpt lat="45.8311957" lon="11.7368845"><ele>1019.0</ele><time>2026-04-26T16:13:00.754Z</time></trkpt><trkpt lat="45.8311006" lon="11.7368844"><ele>1019.0000000000001</ele><time>2026-04-26T16:13:01.751Z</time></trkpt><trkpt lat="45.8309998" lon="11.7368868"><ele>1019.0000000000001</ele><time>2026-04-26T16:13:02.768Z</time></trkpt><trkpt lat="45.8308967" lon="11.7369067"><ele>1019.0</ele><time>2026-04-26T16:13:03.761Z</time></trkpt><trkpt lat="45.8307949" lon="11.736941"><ele>1019.0</ele><time>2026-04-26T16:13:04.762Z</time></trkpt><trkpt lat="45.830692" lon="11.7369689"><ele>1021.4000000000001</ele><time>2026-04-26T16:13:05.772Z</time></trkpt><trkpt lat="45.8305875" lon="11.7369829"><ele>1023.8000000000001</ele><time>2026-04-26T16:13:06.75Z</time></trkpt><trkpt lat="45.8304843" lon="11.7369791"><ele>1026.1999999999998</ele><time>2026-04-26T16:13:07.76Z</time></trkpt><trkpt lat="45.8303834" lon="11.7369637"><ele>1028.6</ele><time>2026-04-26T16:13:08.754Z</time></trkpt><trkpt lat="45.8302857" lon="11.7369433"><ele>1031.0</ele><time>2026-04-26T16:13:09.759Z</time></trkpt><trkpt lat="45.8301874" lon="11.7369229"><ele>1029.6</ele><time>2026-04-26T16:13:10.758Z</time></trkpt><trkpt lat="45.8300859" lon="11.7369016"><ele>1028.1999999999998</ele><time>2026-04-26T16:13:11.76Z</time></trkpt><trkpt lat="45.8299781" lon="11.7368829"><ele>1026.8000000000002</ele><time>2026-04-26T16:13:12.754Z</time></trkpt><trkpt lat="45.8298636" lon="11.7368678"><ele>1025.4</ele><time>2026-04-26T16:13:13.752Z</time></trkpt><trkpt lat="45.8297424" lon="11.736849"><ele>1024.0</ele><time>2026-04-26T16:13:14.761Z</time></trkpt><trkpt lat="45.829619" lon="11.7368236"><ele>1018.25</ele><time>2026-04-26T16:13:15.773Z</time></trkpt><trkpt lat="45.8294987" lon="11.7367933"><ele>1012.5</ele><time>2026-04-26T16:13:16.755Z</time></trkpt><trkpt lat="45.8293797" lon="11.7367601"><ele>1006.75</ele><time>2026-04-26T16:13:17.76Z</time></trkpt><trkpt lat="45.8292658" lon="11.736733"><ele>1001.0</ele><time>2026-04-26T16:13:18.745Z</time></trkpt><trkpt lat="45.829158" lon="11.7367132"><ele>1001.0</ele><time>2026-04-26T16:13:19.74Z</time></trkpt><trkpt lat="45.8290542" lon="11.7367023"><ele>1000.9999999999999</ele><time>2026-04-26T16:13:20.749Z</time></trkpt><trkpt lat="45.828951" lon="11.7366985"><ele>1000.9999999999999</ele><time>2026-04-26T16:13:21.757Z</time></trkpt><trkpt lat="45.8288489" lon="11.7366975"><ele>1001.0</ele><time>2026-04-26T16:13:22.748Z</time></trkpt><trkpt lat="45.8287453" lon="11.7366947"><ele>1001.0</ele><time>2026-04-26T16:13:23.762Z</time></trkpt><trkpt lat="45.8286434" lon="11.736707"><ele>1001.0</ele><time>2026-04-26T16:13:24.751Z</time></trkpt><trkpt lat="45.8285457" lon="11.7367311"><ele>1000.9999999999999</ele><time>2026-04-26T16:13:25.738Z</time></trkpt><trkpt lat="45.8284554" lon="11.7367727"><ele>1000.9999999999999</ele><time>2026-04-26T16:13:26.739Z</time></trkpt><trkpt lat="45.8283776" lon="11.7368344"><ele>1001.0</ele><time>2026-04-26T16:13:27.752Z</time></trkpt><trkpt lat="45.8283111" lon="11.7369174"><ele>1001.0</ele><time>2026-04-26T16:13:28.749Z</time></trkpt><trkpt lat="45.8282563" lon="11.7370188"><ele>1001.1999999999999</ele><time>2026-04-26T16:13:29.747Z</time></trkpt><trkpt lat="45.8282112" lon="11.7371301"><ele>1001.3999999999999</ele><time>2026-04-26T16:13:30.762Z</time></trkpt><trkpt lat="45.8281749" lon="11.7372503"><ele>1001.6</ele><time>2026-04-26T16:13:31.738Z</time></trkpt><trkpt lat="45.828148" lon="11.7373757"><ele>1001.8</ele><time>2026-04-26T16:13:32.735Z</time></trkpt><trkpt lat="45.8281217" lon="11.7375001"><ele>1002.0</ele><time>2026-04-26T16:13:33.733Z</time></trkpt><trkpt lat="45.8281094" lon="11.7376325"><ele>1001.4000000000001</ele><time>2026-04-26T16:13:34.748Z</time></trkpt><trkpt lat="45.8281051" lon="11.7377674"><ele>1000.8000000000001</ele><time>2026-04-26T16:13:35.753Z</time></trkpt><trkpt lat="45.828106" lon="11.7379034"><ele>1000.2</ele><time>2026-04-26T16:13:36.744Z</time></trkpt><trkpt lat="45.8281134" lon="11.7380387"><ele>999.6</ele><time>2026-04-26T16:13:37.755Z</time></trkpt><trkpt lat="45.8281287" lon="11.7381732"><ele>999.0</ele><time>2026-04-26T16:13:38.753Z</time></trkpt><trkpt lat="45.8281504" lon="11.7383028"><ele>999.0</ele><time>2026-04-26T16:13:39.753Z</time></trkpt><trkpt lat="45.8281798" lon="11.7384319"><ele>999.0000000000001</ele><time>2026-04-26T16:13:40.739Z</time></trkpt><trkpt lat="45.8282148" lon="11.7385551"><ele>999.0000000000001</ele><time>2026-04-26T16:13:41.741Z</time></trkpt><trkpt lat="45.8282504" lon="11.7386766"><ele>999.0</ele><time>2026-04-26T16:13:42.756Z</time></trkpt><trkpt lat="45.8282847" lon="11.7388015"><ele>999.0</ele><time>2026-04-26T16:13:43.752Z</time></trkpt><trkpt lat="45.8283146" lon="11.7389273"><ele>997.3333333333334</ele><time>2026-04-26T16:13:44.744Z</time></trkpt><trkpt lat="45.8283382" lon="11.7390552"><ele>995.6666666666667</ele><time>2026-04-26T16:13:45.757Z</time></trkpt><trkpt lat="45.8283529" lon="11.7391819"><ele>994.0</ele><time>2026-04-26T16:13:46.75Z</time></trkpt><trkpt lat="45.828367" lon="11.7393015"><ele>992.3333333333334</ele><time>2026-04-26T16:13:47.75Z</time></trkpt><trkpt lat="45.8283439" lon="11.7394139"><ele>990.6666666666667</ele><time>2026-04-26T16:13:48.755Z</time></trkpt><trkpt lat="45.8283038" lon="11.7395193"><ele>989.0</ele><time>2026-04-26T16:13:49.773Z</time></trkpt><trkpt lat="45.8282517" lon="11.7396181"><ele>987.8333333333334</ele><time>2026-04-26T16:13:50.748Z</time></trkpt><trkpt lat="45.8281956" lon="11.739713"><ele>986.6666666666667</ele><time>2026-04-26T16:13:51.76Z</time></trkpt><trkpt lat="45.8281447" lon="11.7398063"><ele>985.5</ele><time>2026-04-26T16:13:52.753Z</time></trkpt><trkpt lat="45.8281074" lon="11.7399076"><ele>984.3333333333333</ele><time>2026-04-26T16:13:53.75Z</time></trkpt><trkpt lat="45.8280869" lon="11.740021"><ele>983.1666666666666</ele><time>2026-04-26T16:13:54.752Z</time></trkpt><trkpt lat="45.8280868" lon="11.7401389"><ele>982.0</ele><time>2026-04-26T16:13:55.758Z</time></trkpt><trkpt lat="45.8281025" lon="11.7402583"><ele>980.4999999999999</ele><time>2026-04-26T16:13:56.738Z</time></trkpt><trkpt lat="45.8281255" lon="11.7403748"><ele>979.0</ele><time>2026-04-26T16:13:57.749Z</time></trkpt><trkpt lat="45.828161" lon="11.7404795"><ele>977.5</ele><time>2026-04-26T16:13:58.748Z</time></trkpt><trkpt lat="45.8282121" lon="11.7405596"><ele>976.0</ele><time>2026-04-26T16:13:59.752Z</time></trkpt><trkpt lat="45.8282747" lon="11.7406136"><ele>974.4999999999999</ele><time>2026-04-26T16:14:00.75Z</time></trkpt><trkpt lat="45.8283461" lon="11.7406481"><ele>973.0</ele><time>2026-04-26T16:14:01.755Z</time></trkpt><trkpt lat="45.8284357" lon="11.7406714"><ele>973.25</ele><time>2026-04-26T16:14:02.748Z</time></trkpt><trkpt lat="45.8285474" lon="11.7406809"><ele>973.5</ele><time>2026-04-26T16:14:03.749Z</time></trkpt><trkpt lat="45.8286813" lon="11.7406864"><ele>973.75</ele><time>2026-04-26T16:14:04.752Z</time></trkpt><trkpt lat="45.8288324" lon="11.7406939"><ele>974.0</ele><time>2026-04-26T16:14:05.746Z</time></trkpt><trkpt lat="45.8289729" lon="11.7407113"><ele>974.0</ele><time>2026-04-26T16:14:06.746Z</time></trkpt><trkpt lat="45.8291052" lon="11.7407248"><ele>974.0</ele><time>2026-04-26T16:14:07.748Z</time></trkpt><trkpt lat="45.8292274" lon="11.7407419"><ele>974.0</ele><time>2026-04-26T16:14:08.746Z</time></trkpt><trkpt lat="45.8293449" lon="11.7407588"><ele>974.0</ele><time>2026-04-26T16:14:09.756Z</time></trkpt><trkpt lat="45.8294577" lon="11.7407739"><ele>976.5000000000001</ele><time>2026-04-26T16:14:10.744Z</time></trkpt><trkpt lat="45.8295588" lon="11.7407695"><ele>979.0</ele><time>2026-04-26T16:14:11.746Z</time></trkpt><trkpt lat="45.8296371" lon="11.7407952"><ele>981.5</ele><time>2026-04-26T16:14:12.753Z</time></trkpt><trkpt lat="45.8297121" lon="11.7408245"><ele>984.0</ele><time>2026-04-26T16:14:13.755Z</time></trkpt><trkpt lat="45.829747" lon="11.7409214"><ele>986.5000000000001</ele><time>2026-04-26T16:14:14.749Z</time></trkpt><trkpt lat="45.8297546" lon="11.7410398"><ele>989.0</ele><time>2026-04-26T16:14:15.746Z</time></trkpt><trkpt lat="45.8297595" lon="11.7411587"><ele>989.75</ele><time>2026-04-26T16:14:16.746Z</time></trkpt><trkpt lat="45.8297064" lon="11.7412774"><ele>990.5</ele><time>2026-04-26T16:14:17.756Z</time></trkpt><trkpt lat="45.8296418" lon="11.7414194"><ele>991.25</ele><time>2026-04-26T16:14:18.749Z</time></trkpt><trkpt lat="45.8295798" lon="11.7415999"><ele>992.0</ele><time>2026-04-26T16:14:19.75Z</time></trkpt><trkpt lat="45.8295069" lon="11.7418088"><ele>994.3333333333334</ele><time>2026-04-26T16:14:20.755Z</time></trkpt><trkpt lat="45.8294286" lon="11.7420747"><ele>996.6666666666667</ele><time>2026-04-26T16:14:21.764Z</time></trkpt><trkpt lat="45.8293448" lon="11.7423445"><ele>999.0</ele><time>2026-04-26T16:14:22.753Z</time></trkpt><trkpt lat="45.8292591" lon="11.7425838"><ele>987.3333333333333</ele><time>2026-04-26T16:14:23.755Z</time></trkpt><trkpt lat="45.829169" lon="11.7428108"><ele>975.6666666666666</ele><time>2026-04-26T16:14:24.754Z</time></trkpt><trkpt lat="45.8290929" lon="11.7430782"><ele>964.0</ele><time>2026-04-26T16:14:25.753Z</time></trkpt><trkpt lat="45.8290289" lon="11.7433899"><ele>963.3333333333333</ele><time>2026-04-26T16:14:26.752Z</time></trkpt><trkpt lat="45.8289884" lon="11.7436838"><ele>962.6666666666667</ele><time>2026-04-26T16:14:27.785Z</time></trkpt><trkpt lat="45.8289739" lon="11.7439482"><ele>962.0</ele><time>2026-04-26T16:14:28.75Z</time></trkpt><trkpt lat="45.8289792" lon="11.7441737"><ele>962.0</ele><time>2026-04-26T16:14:29.756Z</time></trkpt><trkpt lat="45.8289658" lon="11.7443521"><ele>962.0</ele><time>2026-04-26T16:14:30.749Z</time></trkpt><trkpt lat="45.8289691" lon="11.7445099"><ele>962.0</ele><time>2026-04-26T16:14:31.759Z</time></trkpt><trkpt lat="45.829001" lon="11.7446608"><ele>962.0</ele><time>2026-04-26T16:14:32.746Z</time></trkpt><trkpt lat="45.8290785" lon="11.7448001"><ele>958.75</ele><time>2026-04-26T16:14:33.739Z</time></trkpt><trkpt lat="45.8292045" lon="11.744929"><ele>955.5</ele><time>2026-04-26T16:14:34.755Z</time></trkpt><trkpt lat="45.8293411" lon="11.7450447"><ele>952.25</ele><time>2026-04-26T16:14:35.753Z</time></trkpt><trkpt lat="45.8294665" lon="11.7451021"><ele>949.0</ele><time>2026-04-26T16:14:36.732Z</time></trkpt><trkpt lat="45.8295779" lon="11.7451514"><ele>948.9999999999999</ele><time>2026-04-26T16:14:37.758Z</time></trkpt><trkpt lat="45.8296814" lon="11.7451712"><ele>949.0</ele><time>2026-04-26T16:14:38.749Z</time></trkpt><trkpt lat="45.8297761" lon="11.7451897"><ele>949.0</ele><time>2026-04-26T16:14:39.754Z</time></trkpt><trkpt lat="45.8298544" lon="11.7451864"><ele>949.0</ele><time>2026-04-26T16:14:40.746Z</time></trkpt><trkpt lat="45.8299142" lon="11.7452273"><ele>948.9999999999999</ele><time>2026-04-26T16:14:41.753Z</time></trkpt><trkpt lat="45.829932" lon="11.7453573"><ele>949.0</ele><time>2026-04-26T16:14:43.753Z</time></trkpt><trkpt lat="45.82984" lon="11.7454187"><ele>944.75</ele><time>2026-04-26T16:14:45.77Z</time></trkpt><trkpt lat="45.8297539" lon="11.7453794"><ele>940.5</ele><time>2026-04-26T16:14:46.744Z</time></trkpt><trkpt lat="45.8296561" lon="11.7453206"><ele>936.25</ele><time>2026-04-26T16:14:47.756Z</time></trkpt><trkpt lat="45.8295433" lon="11.7452796"><ele>932.0</ele><time>2026-04-26T16:14:48.747Z</time></trkpt><trkpt lat="45.8294055" lon="11.7452674"><ele>929.0</ele><time>2026-04-26T16:14:49.752Z</time></trkpt><trkpt lat="45.8292719" lon="11.7452701"><ele>926.0</ele><time>2026-04-26T16:14:50.75Z</time></trkpt><trkpt lat="45.8291444" lon="11.7452745"><ele>923.0</ele><time>2026-04-26T16:14:51.75Z</time></trkpt><trkpt lat="45.8290203" lon="11.7452484"><ele>920.0</ele><time>2026-04-26T16:14:52.747Z</time></trkpt><trkpt lat="45.828901" lon="11.745174"><ele>992.0</ele><time>2026-04-26T16:14:53.747Z</time></trkpt><trkpt lat="45.8297595" lon="11.7411587"><ele>992.0</ele><time>2026-04-26T16:14:16.746Z</time></trkpt><trkpt lat="45.8297064" lon="11.7412774"><ele>992.0</ele><time>2026-04-26T16:14:17.756Z</time></trkpt><trkpt lat="45.8296418" lon="11.7414194"><ele>992.0</ele><time>2026-04-26T16:14:18.749Z</time></trkpt><trkpt lat="45.8295798" lon="11.7415999"><ele>992.0</ele><time>2026-04-26T16:14:19.75Z</time></trkpt><trkpt lat="45.8295069" lon="11.7418088"><ele>994.3333333333334</ele><time>2026-04-26T16:14:20.755Z</time></trkpt><trkpt lat="45.8294286" lon="11.7420747"><ele>996.6666666666667</ele><time>2026-04-26T16:14:21.764Z</time></trkpt><trkpt lat="45.8293448" lon="11.7423445"><ele>999.0</ele><time>2026-04-26T16:14:22.753Z</time></trkpt><trkpt lat="45.8292591" lon="11.7425838"><ele>987.3333333333333</ele><time>2026-04-26T16:14:23.755Z</time></trkpt><trkpt lat="45.829169" lon="11.7428108"><ele>975.6666666666666</ele><time>2026-04-26T16:14:24.754Z</time></trkpt><trkpt lat="45.8290929" lon="11.7430782"><ele>964.0</ele><time>2026-04-26T16:14:25.753Z</time></trkpt><trkpt lat="45.8290289" lon="11.7433899"><ele>963.3333333333333</ele><time>2026-04-26T16:14:26.752Z</time></trkpt><trkpt lat="45.8289884" lon="11.7436838"><ele>962.6666666666667</ele><time>2026-04-26T16:14:27.785Z</time></trkpt><trkpt lat="45.8289739" lon="11.7439482"><ele>962.0</ele><time>2026-04-26T16:14:28.75Z</time></trkpt><trkpt lat="45.8289792" lon="11.7441737"><ele>962.0</ele><time>2026-04-26T16:14:29.756Z</time></trkpt><trkpt lat="45.8289658" lon="11.7443521"><ele>962.0</ele><time>2026-04-26T16:14:30.749Z</time></trkpt><trkpt lat="45.8289691" lon="11.7445099"><ele>962.0</ele><time>2026-04-26T16:14:31.759Z</time></trkpt><trkpt lat="45.829001" lon="11.7446608"><ele>962.0</ele><time>2026-04-26T16:14:32.746Z</time></trkpt><trkpt lat="45.8290785" lon="11.7448001"><ele>958.75</ele><time>2026-04-26T16:14:33.739Z</time></trkpt><trkpt lat="45.8292045" lon="11.744929"><ele>955.5</ele><time>2026-04-26T16:14:34.755Z</time></trkpt><trkpt lat="45.8293411" lon="11.7450447"><ele>952.25</ele><time>2026-04-26T16:14:35.753Z</time></trkpt><trkpt lat="45.8294665" lon="11.7451021"><ele>949.0</ele><time>2026-04-26T16:14:36.732Z</time></trkpt><trkpt lat="45.8295779" lon="11.7451514"><ele>948.9999999999999</ele><time>2026-04-26T16:14:37.758Z</time></trkpt><trkpt lat="45.8296814" lon="11.7451712"><ele>949.0</ele><time>2026-04-26T16:14:38.749Z</time></trkpt><trkpt lat="45.8297761" lon="11.7451897"><ele>949.0</ele><time>2026-04-26T16:14:39.754Z</time></trkpt><trkpt lat="45.8298544" lon="11.7451864"><ele>949.0</ele><time>2026-04-26T16:14:40.746Z</time></trkpt><trkpt lat="45.8299142" lon="11.7452273"><ele>948.9999999999999</ele><time>2026-04-26T16:14:41.753Z</time></trkpt><trkpt lat="45.829932" lon="11.7453573"><ele>949.0</ele><time>2026-04-26T16:14:43.753Z</time></trkpt><trkpt lat="45.82984" lon="11.7454187"><ele>944.75</ele><time>2026-04-26T16:14:45.77Z</time></trkpt><trkpt lat="45.8297539" lon="11.7453794"><ele>940.5</ele><time>2026-04-26T16:14:46.744Z</time></trkpt><trkpt lat="45.8296561" lon="11.7453206"><ele>936.25</ele><time>2026-04-26T16:14:47.756Z</time></trkpt><trkpt lat="45.8295433" lon="11.7452796"><ele>932.0</ele><time>2026-04-26T16:14:48.747Z</time></trkpt><trkpt lat="45.8294055" lon="11.7452674"><ele>929.0</ele><time>2026-04-26T16:14:49.752Z</time></trkpt><trkpt lat="45.8292719" lon="11.7452701"><ele>926.0</ele><time>2026-04-26T16:14:50.75Z</time></trkpt><trkpt lat="45.8291444" lon="11.7452745"><ele>923.0</ele><time>2026-04-26T16:14:51.75Z</time></trkpt><trkpt lat="45.8290203" lon="11.7452484"><ele>920.0</ele><time>2026-04-26T16:14:52.747Z</time></trkpt><trkpt lat="45.828901" lon="11.745174"><ele>926.0</ele><time>2026-04-26T16:14:53.747Z</time></trkpt><trkpt lat="45.8287912" lon="11.7450646"><ele>932.0</ele><time>2026-04-26T16:14:54.755Z</time></trkpt><trkpt lat="45.8287076" lon="11.7449657"><ele>938.0</ele><time>2026-04-26T16:14:55.755Z</time></trkpt><trkpt lat="45.8286335" lon="11.7448241"><ele>944.0</ele><time>2026-04-26T16:14:56.75Z</time></trkpt><trkpt lat="45.8285814" lon="11.7446789"><ele>944.0</ele><time>2026-04-26T16:14:57.765Z</time></trkpt><trkpt lat="45.828536" lon="11.7445309"><ele>944.0</ele><time>2026-04-26T16:14:58.747Z</time></trkpt><trkpt lat="45.8285003" lon="11.7443648"><ele>944.0</ele><time>2026-04-26T16:14:59.749Z</time></trkpt><trkpt lat="45.8284696" lon="11.7441891"><ele>944.0</ele><time>2026-04-26T16:15:00.748Z</time></trkpt><trkpt lat="45.8284492" lon="11.7440079"><ele>938.75</ele><time>2026-04-26T16:15:01.751Z</time></trkpt><trkpt lat="45.8284414" lon="11.7438145"><ele>933.5</ele><time>2026-04-26T16:15:02.752Z</time></trkpt><trkpt lat="45.8284367" lon="11.7436214"><ele>928.25</ele><time>2026-04-26T16:15:03.748Z</time></trkpt><trkpt lat="45.8284443" lon="11.7434354"><ele>923.0</ele><time>2026-04-26T16:15:04.756Z</time></trkpt><trkpt lat="45.8284394" lon="11.7432587"><ele>923.0</ele><time>2026-04-26T16:15:05.76Z</time></trkpt><trkpt lat="45.8284251" lon="11.7430849"><ele>923.0</ele><time>2026-04-26T16:15:06.751Z</time></trkpt><trkpt lat="45.8284133" lon="11.7429259"><ele>923.0</ele><time>2026-04-26T16:15:07.75Z</time></trkpt><trkpt lat="45.8283912" lon="11.7427695"><ele>923.0</ele><time>2026-04-26T16:15:08.744Z</time></trkpt><trkpt lat="45.8283497" lon="11.7426361"><ele>923.0</ele><time>2026-04-26T16:15:09.76Z</time></trkpt><trkpt lat="45.8282751" lon="11.7425299"><ele>923.75</ele><time>2026-04-26T16:15:10.753Z</time></trkpt><trkpt lat="45.8281668" lon="11.7424726"><ele>924.5</ele><time>2026-04-26T16:15:11.741Z</time></trkpt><trkpt lat="45.8280592" lon="11.7424202"><ele>925.25</ele><time>2026-04-26T16:15:12.746Z</time></trkpt><trkpt lat="45.8279331" lon="11.7424402"><ele>926.0</ele><time>2026-04-26T16:15:13.746Z</time></trkpt><trkpt lat="45.8278031" lon="11.7424963"><ele>926.0</ele><time>2026-04-26T16:15:14.756Z</time></trkpt><trkpt lat="45.8276776" lon="11.742541"><ele>926.0</ele><time>2026-04-26T16:15:15.741Z</time></trkpt><trkpt lat="45.8275574" lon="11.7425853"><ele>926.0</ele><time>2026-04-26T16:15:16.753Z</time></trkpt><trkpt lat="45.8274357" lon="11.7426168"><ele>926.0</ele><time>2026-04-26T16:15:17.747Z</time></trkpt><trkpt lat="45.827312" lon="11.7426091"><ele>922.0</ele><time>2026-04-26T16:15:18.763Z</time></trkpt><trkpt lat="45.8271784" lon="11.7425733"><ele>918.0</ele><time>2026-04-26T16:15:19.752Z</time></trkpt><trkpt lat="45.8270411" lon="11.7425117"><ele>914.0</ele><time>2026-04-26T16:15:20.752Z</time></trkpt><trkpt lat="45.8269218" lon="11.7424419"><ele>910.0</ele><time>2026-04-26T16:15:21.747Z</time></trkpt><trkpt lat="45.826828" lon="11.7423749"><ele>908.75</ele><time>2026-04-26T16:15:22.757Z</time></trkpt><trkpt lat="45.8267243" lon="11.7422782"><ele>907.5</ele><time>2026-04-26T16:15:23.755Z</time></trkpt><trkpt lat="45.8266417" lon="11.7421667"><ele>906.25</ele><time>2026-04-26T16:15:24.742Z</time></trkpt><trkpt lat="45.8265726" lon="11.7420272"><ele>905.0</ele><time>2026-04-26T16:15:25.748Z</time></trkpt><trkpt lat="45.8265075" lon="11.7418767"><ele>905.0</ele><time>2026-04-26T16:15:26.738Z</time></trkpt><trkpt lat="45.8264411" lon="11.741714"><ele>905.0</ele><time>2026-04-26T16:15:27.743Z</time></trkpt><trkpt lat="45.8263752" lon="11.7415417"><ele>905.0</ele><time>2026-04-26T16:15:28.754Z</time></trkpt><trkpt lat="45.8263055" lon="11.7413612"><ele>905.0</ele><time>2026-04-26T16:15:29.734Z</time></trkpt><trkpt lat="45.8262443" lon="11.7411693"><ele>907.3333333333334</ele><time>2026-04-26T16:15:30.739Z</time></trkpt><trkpt lat="45.8262073" lon="11.74097"><ele>909.6666666666667</ele><time>2026-04-26T16:15:31.759Z</time></trkpt><trkpt lat="45.8261826" lon="11.7407426"><ele>912.0</ele><time>2026-04-26T16:15:32.74Z</time></trkpt><trkpt lat="45.8261577" lon="11.740503"><ele>912.0</ele><time>2026-04-26T16:15:33.767Z</time></trkpt><trkpt lat="45.8261363" lon="11.7402792"><ele>912.0</ele><time>2026-04-26T16:15:34.742Z</time></trkpt><trkpt lat="45.8261192" lon="11.7400642"><ele>912.0</ele><time>2026-04-26T16:15:35.753Z</time></trkpt><trkpt lat="45.826109" lon="11.7398564"><ele>911.25</ele><time>2026-04-26T16:15:36.749Z</time></trkpt><trkpt lat="45.8261042" lon="11.7396584"><ele>910.5</ele><time>2026-04-26T16:15:37.75Z</time></trkpt><trkpt lat="45.8260952" lon="11.7394818"><ele>909.75</ele><time>2026-04-26T16:15:38.743Z</time></trkpt><trkpt lat="45.8260779" lon="11.7393217"><ele>909.0</ele><time>2026-04-26T16:15:39.756Z</time></trkpt><trkpt lat="45.8260147" lon="11.7391827"><ele>899.75</ele><time>2026-04-26T16:15:40.749Z</time></trkpt><trkpt lat="45.8259415" lon="11.739046"><ele>890.5</ele><time>2026-04-26T16:15:41.742Z</time></trkpt><trkpt lat="45.8258687" lon="11.7389146"><ele>881.25</ele><time>2026-04-26T16:15:42.75Z</time></trkpt><trkpt lat="45.8258055" lon="11.7387699"><ele>872.0</ele><time>2026-04-26T16:15:43.741Z</time></trkpt><trkpt lat="45.8257469" lon="11.7386092"><ele>872.75</ele><time>2026-04-26T16:15:44.741Z</time></trkpt><trkpt lat="45.8256653" lon="11.7384602"><ele>873.5</ele><time>2026-04-26T16:15:45.747Z</time></trkpt><trkpt lat="45.8255723" lon="11.7383353"><ele>874.25</ele><time>2026-04-26T16:15:46.749Z</time></trkpt><trkpt lat="45.8254659" lon="11.7382481"><ele>875.0</ele><time>2026-04-26T16:15:47.753Z</time></trkpt><trkpt lat="45.8253659" lon="11.7381651"><ele>875.0</ele><time>2026-04-26T16:15:48.748Z</time></trkpt><trkpt lat="45.8252774" lon="11.7380685"><ele>875.0</ele><time>2026-04-26T16:15:49.757Z</time></trkpt><trkpt lat="45.8252047" lon="11.7379401"><ele>875.0</ele><time>2026-04-26T16:15:50.746Z</time></trkpt><trkpt lat="45.8251512" lon="11.737786"><ele>875.0</ele><time>2026-04-26T16:15:51.739Z</time></trkpt><trkpt lat="45.8250925" lon="11.7376261"><ele>870.75</ele><time>2026-04-26T16:15:52.747Z</time></trkpt><trkpt lat="45.8250124" lon="11.7374881"><ele>866.5</ele><time>2026-04-26T16:15:53.749Z</time></trkpt><trkpt lat="45.8249124" lon="11.7373738"><ele>862.25</ele><time>2026-04-26T16:15:54.732Z</time></trkpt><trkpt lat="45.8247983" lon="11.7372684"><ele>858.0</ele><time>2026-04-26T16:15:55.746Z</time></trkpt><trkpt lat="45.824684" lon="11.7371697"><ele>858.0</ele><time>2026-04-26T16:15:56.748Z</time></trkpt><trkpt lat="45.8245834" lon="11.7370835"><ele>858.0</ele><time>2026-04-26T16:15:57.753Z</time></trkpt><trkpt lat="45.82449" lon="11.7370098"><ele>858.0</ele><time>2026-04-26T16:15:58.737Z</time></trkpt><trkpt lat="45.8244022" lon="11.7369504"><ele>858.0</ele><time>2026-04-26T16:15:59.744Z</time></trkpt><trkpt lat="45.8243121" lon="11.7369027"><ele>858.0</ele><time>2026-04-26T16:16:00.734Z</time></trkpt><trkpt lat="45.8242183" lon="11.7368855"><ele>857.6666666666666</ele><time>2026-04-26T16:16:01.744Z</time></trkpt><trkpt lat="45.8241302" lon="11.7369107"><ele>857.3333333333333</ele><time>2026-04-26T16:16:02.746Z</time></trkpt><trkpt lat="45.8240434" lon="11.7369619"><ele>857.0</ele><time>2026-04-26T16:16:03.748Z</time></trkpt><trkpt lat="45.8239648" lon="11.7370112"><ele>856.6666666666666</ele><time>2026-04-26T16:16:04.746Z</time></trkpt><trkpt lat="45.8238886" lon="11.737063"><ele>856.3333333333333</ele><time>2026-04-26T16:16:05.749Z</time></trkpt><trkpt lat="45.8238226" lon="11.737129"><ele>856.0</ele><time>2026-04-26T16:16:06.749Z</time></trkpt><trkpt lat="45.8237842" lon="11.7372221"><ele>855.9999999999999</ele><time>2026-04-26T16:16:07.756Z</time></trkpt><trkpt lat="45.823784" lon="11.7373268"><ele>856.0</ele><time>2026-04-26T16:16:08.735Z</time></trkpt><trkpt lat="45.8238194" lon="11.7374343"><ele>856.0</ele><time>2026-04-26T16:16:09.755Z</time></trkpt><trkpt lat="45.8238802" lon="11.7375257"><ele>856.0</ele><time>2026-04-26T16:16:10.762Z</time></trkpt><trkpt lat="45.8239536" lon="11.7376105"><ele>855.9999999999999</ele><time>2026-04-26T16:16:11.756Z</time></trkpt><trkpt lat="45.8240283" lon="11.7376977"><ele>856.0</ele><time>2026-04-26T16:16:12.752Z</time></trkpt><trkpt lat="45.8241052" lon="11.7377759"><ele>855.1999999999999</ele><time>2026-04-26T16:16:13.757Z</time></trkpt><trkpt lat="45.8241873" lon="11.7378916"><ele>854.3999999999999</ele><time>2026-04-26T16:16:14.749Z</time></trkpt><trkpt lat="45.8242608" lon="11.7380182"><ele>853.6</ele><time>2026-04-26T16:16:15.758Z</time></trkpt><trkpt lat="45.8243125" lon="11.7381554"><ele>852.8</ele><time>2026-04-26T16:16:16.742Z</time></trkpt><trkpt lat="45.8243396" lon="11.7383076"><ele>852.0</ele><time>2026-04-26T16:16:17.753Z</time></trkpt><trkpt lat="45.8243388" lon="11.7384572"><ele>854.25</ele><time>2026-04-26T16:16:18.757Z</time></trkpt><trkpt lat="45.8243081" lon="11.7386371"><ele>856.5</ele><time>2026-04-26T16:16:19.768Z</time></trkpt><trkpt lat="45.8242742" lon="11.7388294"><ele>858.75</ele><time>2026-04-26T16:16:20.757Z</time></trkpt><trkpt lat="45.8242297" lon="11.7390559"><ele>861.0</ele><time>2026-04-26T16:16:21.75Z</time></trkpt><trkpt lat="45.8241958" lon="11.7392766"><ele>860.25</ele><time>2026-04-26T16:16:22.744Z</time></trkpt><trkpt lat="45.8241754" lon="11.739496"><ele>859.5</ele><time>2026-04-26T16:16:23.753Z</time></trkpt><trkpt lat="45.824151" lon="11.7397061"><ele>858.75</ele><time>2026-04-26T16:16:24.741Z</time></trkpt><trkpt lat="45.8241261" lon="11.7399106"><ele>858.0</ele><time>2026-04-26T16:16:25.75Z</time></trkpt><trkpt lat="45.8240993" lon="11.7400991"><ele>855.75</ele><time>2026-04-26T16:16:26.746Z</time></trkpt><trkpt lat="45.8240581" lon="11.7402613"><ele>853.5</ele><time>2026-04-26T16:16:27.76Z</time></trkpt><trkpt lat="45.8240124" lon="11.7404354"><ele>851.25</ele><time>2026-04-26T16:16:28.745Z</time></trkpt><trkpt lat="45.8239702" lon="11.7406063"><ele>849.0</ele><time>2026-04-26T16:16:29.743Z</time></trkpt><trkpt lat="45.8239504" lon="11.7407729"><ele>849.0</ele><time>2026-04-26T16:16:30.749Z</time></trkpt><trkpt lat="45.8239472" lon="11.7409555"><ele>849.0</ele><time>2026-04-26T16:16:31.736Z</time></trkpt><trkpt lat="45.8239439" lon="11.7411245"><ele>849.0</ele><time>2026-04-26T16:16:32.741Z</time></trkpt><trkpt lat="45.8239213" lon="11.7412824"><ele>849.0</ele><time>2026-04-26T16:16:33.753Z</time></trkpt><trkpt lat="45.8238884" lon="11.7414471"><ele>848.5</ele><time>2026-04-26T16:16:34.742Z</time></trkpt><trkpt lat="45.8238534" lon="11.7416004"><ele>848.0</ele><time>2026-04-26T16:16:35.748Z</time></trkpt><trkpt lat="45.8237923" lon="11.7417375"><ele>847.5</ele><time>2026-04-26T16:16:36.744Z</time></trkpt><trkpt lat="45.8237171" lon="11.7418595"><ele>847.0</ele><time>2026-04-26T16:16:37.752Z</time></trkpt><trkpt lat="45.8236436" lon="11.7419803"><ele>845.8</ele><time>2026-04-26T16:16:38.75Z</time></trkpt><trkpt lat="45.8235846" lon="11.7421184"><ele>844.6</ele><time>2026-04-26T16:16:39.734Z</time></trkpt><trkpt lat="45.8235242" lon="11.7422505"><ele>843.4</ele><time>2026-04-26T16:16:40.736Z</time></trkpt><trkpt lat="45.823471" lon="11.7423994"><ele>842.1999999999999</ele><time>2026-04-26T16:16:41.748Z</time></trkpt><trkpt lat="45.8234294" lon="11.7425282"><ele>841.0</ele><time>2026-04-26T16:16:42.745Z</time></trkpt><trkpt lat="45.8233374" lon="11.7426098"><ele>845.0</ele><time>2026-04-26T16:16:43.766Z</time></trkpt><trkpt lat="45.8232397" lon="11.7426643"><ele>849.0</ele><time>2026-04-26T16:16:44.753Z</time></trkpt><trkpt lat="45.8231311" lon="11.7426862"><ele>852.9999999999999</ele><time>2026-04-26T16:16:45.75Z</time></trkpt><trkpt lat="45.8230204" lon="11.7426943"><ele>857.0</ele><time>2026-04-26T16:16:46.758Z</time></trkpt><trkpt lat="45.8229057" lon="11.7426961"><ele>861.0</ele><time>2026-04-26T16:16:47.753Z</time></trkpt><trkpt lat="45.822796" lon="11.7426784"><ele>861.0</ele><time>2026-04-26T16:16:48.743Z</time></trkpt><trkpt lat="45.8226872" lon="11.7426534"><ele>861.0</ele><time>2026-04-26T16:16:49.753Z</time></trkpt><trkpt lat="45.8225844" lon="11.7425578"><ele>861.0</ele><time>2026-04-26T16:16:50.758Z</time></trkpt><trkpt lat="45.8224768" lon="11.7424866"><ele>861.0</ele><time>2026-04-26T16:16:51.753Z</time></trkpt><trkpt lat="45.8223753" lon="11.7424132"><ele>860.0</ele><time>2026-04-26T16:16:52.758Z</time></trkpt><trkpt lat="45.8222792" lon="11.742343"><ele>858.9999999999999</ele><time>2026-04-26T16:16:53.754Z</time></trkpt><trkpt lat="45.8221824" lon="11.7422824"><ele>857.9999999999999</ele><time>2026-04-26T16:16:54.755Z</time></trkpt><trkpt lat="45.8220791" lon="11.7422483"><ele>857.0</ele><time>2026-04-26T16:16:55.749Z</time></trkpt><trkpt lat="45.821979" lon="11.7422149"><ele>856.0</ele><time>2026-04-26T16:16:56.753Z</time></trkpt><trkpt lat="45.8218749" lon="11.7422136"><ele>854.4</ele><time>2026-04-26T16:16:57.752Z</time></trkpt><trkpt lat="45.8217746" lon="11.7421998"><ele>852.8</ele><time>2026-04-26T16:16:58.757Z</time></trkpt><trkpt lat="45.8216789" lon="11.7421533"><ele>851.1999999999999</ele><time>2026-04-26T16:16:59.749Z</time></trkpt><trkpt lat="45.8215886" lon="11.7420756"><ele>849.5999999999999</ele><time>2026-04-26T16:17:00.756Z</time></trkpt><trkpt lat="45.8215134" lon="11.7419971"><ele>848.0</ele><time>2026-04-26T16:17:01.748Z</time></trkpt><trkpt lat="45.8214299" lon="11.7419363"><ele>848.0</ele><time>2026-04-26T16:17:02.77Z</time></trkpt><trkpt lat="45.8213414" lon="11.7419237"><ele>848.0</ele><time>2026-04-26T16:17:03.746Z</time></trkpt><trkpt lat="45.8212512" lon="11.7419498"><ele>848.0</ele><time>2026-04-26T16:17:04.754Z</time></trkpt><trkpt lat="45.8211633" lon="11.7419946"><ele>848.0</ele><time>2026-04-26T16:17:05.746Z</time></trkpt><trkpt lat="45.8210739" lon="11.7420358"><ele>848.0</ele><time>2026-04-26T16:17:06.75Z</time></trkpt><trkpt lat="45.8209813" lon="11.7420809"><ele>851.4</ele><time>2026-04-26T16:17:07.748Z</time></trkpt><trkpt lat="45.8208815" lon="11.742068"><ele>854.8</ele><time>2026-04-26T16:17:08.749Z</time></trkpt><trkpt lat="45.8207896" lon="11.7420193"><ele>858.2</ele><time>2026-04-26T16:17:09.751Z</time></trkpt><trkpt lat="45.8206951" lon="11.7419557"><ele>861.6</ele><time>2026-04-26T16:17:10.749Z</time></trkpt><trkpt lat="45.820598" lon="11.7418982"><ele>865.0</ele><time>2026-04-26T16:17:11.742Z</time></trkpt><trkpt lat="45.8204967" lon="11.7418493"><ele>865.0</ele><time>2026-04-26T16:17:12.734Z</time></trkpt><trkpt lat="45.8203886" lon="11.7418234"><ele>865.0</ele><time>2026-04-26T16:17:13.748Z</time></trkpt><trkpt lat="45.8202787" lon="11.7418087"><ele>865.0</ele><time>2026-04-26T16:17:14.752Z</time></trkpt><trkpt lat="45.820171" lon="11.7417877"><ele>865.0</ele><time>2026-04-26T16:17:15.745Z</time></trkpt><trkpt lat="45.8200709" lon="11.7417333"><ele>865.0</ele><time>2026-04-26T16:17:16.753Z</time></trkpt><trkpt lat="45.8199872" lon="11.7416333"><ele>857.75</ele><time>2026-04-26T16:17:17.756Z</time></trkpt><trkpt lat="45.8199122" lon="11.7415084"><ele>850.5</ele><time>2026-04-26T16:17:18.755Z</time></trkpt><trkpt lat="45.8198427" lon="11.7413795"><ele>843.25</ele><time>2026-04-26T16:17:19.754Z</time></trkpt><trkpt lat="45.8197687" lon="11.7412529"><ele>836.0</ele><time>2026-04-26T16:17:20.751Z</time></trkpt><trkpt lat="45.8196799" lon="11.7411503"><ele>836.0</ele><time>2026-04-26T16:17:21.759Z</time></trkpt><trkpt lat="45.8195775" lon="11.741076"><ele>836.0</ele><time>2026-04-26T16:17:22.755Z</time></trkpt><trkpt lat="45.8194671" lon="11.7410259"><ele>836.0</ele><time>2026-04-26T16:17:23.752Z</time></trkpt><trkpt lat="45.819353" lon="11.740996"><ele>836.0</ele><time>2026-04-26T16:17:24.753Z</time></trkpt><trkpt lat="45.8192435" lon="11.7409723"><ele>834.5999999999999</ele><time>2026-04-26T16:17:25.748Z</time></trkpt><trkpt lat="45.8191401" lon="11.7409562"><ele>833.2</ele><time>2026-04-26T16:17:26.75Z</time></trkpt><trkpt lat="45.8190389" lon="11.7409466"><ele>831.8</ele><time>2026-04-26T16:17:27.754Z</time></trkpt><trkpt lat="45.8189407" lon="11.7409689"><ele>830.4000000000001</ele><time>2026-04-26T16:17:28.751Z</time></trkpt><trkpt lat="45.8188517" lon="11.7410327"><ele>829.0</ele><time>2026-04-26T16:17:29.742Z</time></trkpt><trkpt lat="45.818775" lon="11.7411201"><ele>827.4000000000001</ele><time>2026-04-26T16:17:30.747Z</time></trkpt><trkpt lat="45.8186989" lon="11.7412174"><ele>825.8</ele><time>2026-04-26T16:17:31.754Z</time></trkpt><trkpt lat="45.8186258" lon="11.7413126"><ele>824.2</ele><time>2026-04-26T16:17:32.751Z</time></trkpt><trkpt lat="45.8185509" lon="11.7414083"><ele>822.5999999999999</ele><time>2026-04-26T16:17:33.742Z</time></trkpt><trkpt lat="45.8184734" lon="11.7415008"><ele>821.0</ele><time>2026-04-26T16:17:34.744Z</time></trkpt><trkpt lat="45.8183985" lon="11.7415859"><ele>821.0</ele><time>2026-04-26T16:17:35.746Z</time></trkpt><trkpt lat="45.8183306" lon="11.7416583"><ele>821.0</ele><time>2026-04-26T16:17:36.744Z</time></trkpt><trkpt lat="45.8182698" lon="11.7417076"><ele>821.0</ele><time>2026-04-26T16:17:37.756Z</time></trkpt><trkpt lat="45.8181572" lon="11.7417677"><ele>821.0</ele><time>2026-04-26T16:17:39.756Z</time></trkpt><trkpt lat="45.8180661" lon="11.7417254"><ele>821.0</ele><time>2026-04-26T16:17:41.739Z</time></trkpt><trkpt lat="45.817979" lon="11.7416794"><ele>821.0</ele><time>2026-04-26T16:17:42.746Z</time></trkpt><trkpt lat="45.8179404" lon="11.7415607"><ele>821.0</ele><time>2026-04-26T16:17:43.741Z</time></trkpt><trkpt lat="45.8178811" lon="11.7414527"><ele>821.0</ele><time>2026-04-26T16:17:44.753Z</time></trkpt><trkpt lat="45.8178032" lon="11.7413533"><ele>821.0</ele><time>2026-04-26T16:17:45.752Z</time></trkpt><trkpt lat="45.8177174" lon="11.7412925"><ele>821.0</ele><time>2026-04-26T16:17:46.738Z</time></trkpt><trkpt lat="45.8176246" lon="11.7412455"><ele>820.0000000000001</ele><time>2026-04-26T16:17:47.739Z</time></trkpt><trkpt lat="45.8175426" lon="11.7412126"><ele>819.0</ele><time>2026-04-26T16:17:48.752Z</time></trkpt><trkpt lat="45.8174589" lon="11.741198"><ele>818.0</ele><time>2026-04-26T16:17:49.746Z</time></trkpt><trkpt lat="45.8173748" lon="11.7411923"><ele>817.0</ele><time>2026-04-26T16:17:50.771Z</time></trkpt><trkpt lat="45.8172984" lon="11.7412474"><ele>816.0000000000001</ele><time>2026-04-26T16:17:51.752Z</time></trkpt><trkpt lat="45.8172335" lon="11.7413544"><ele>815.0</ele><time>2026-04-26T16:17:52.747Z</time></trkpt><trkpt lat="45.8171783" lon="11.7414694"><ele>815.0</ele><time>2026-04-26T16:17:53.765Z</time></trkpt><trkpt lat="45.8171288" lon="11.7415944"><ele>815.0</ele><time>2026-04-26T16:17:54.749Z</time></trkpt><trkpt lat="45.8170817" lon="11.7417117"><ele>815.0</ele><time>2026-04-26T16:17:55.751Z</time></trkpt><trkpt lat="45.8170347" lon="11.7418328"><ele>815.0</ele><time>2026-04-26T16:17:56.747Z</time></trkpt><trkpt lat="45.8169739" lon="11.7419461"><ele>815.0</ele><time>2026-04-26T16:17:57.753Z</time></trkpt><trkpt lat="45.8169028" lon="11.7420331"><ele>809.8</ele><time>2026-04-26T16:17:58.747Z</time></trkpt><trkpt lat="45.8168227" lon="11.7420936"><ele>804.6</ele><time>2026-04-26T16:17:59.745Z</time></trkpt><trkpt lat="45.8167298" lon="11.7421183"><ele>799.4000000000001</ele><time>2026-04-26T16:18:00.743Z</time></trkpt><trkpt lat="45.8166362" lon="11.7421117"><ele>794.2</ele><time>2026-04-26T16:18:01.753Z</time></trkpt><trkpt lat="45.8165387" lon="11.7420923"><ele>789.0</ele><time>2026-04-26T16:18:02.746Z</time></trkpt><trkpt lat="45.8164389" lon="11.7420836"><ele>789.0</ele><time>2026-04-26T16:18:03.749Z</time></trkpt><trkpt lat="45.8163351" lon="11.7420734"><ele>789.0</ele><time>2026-04-26T16:18:04.747Z</time></trkpt><trkpt lat="45.8162313" lon="11.7420615"><ele>789.0</ele><time>2026-04-26T16:18:05.751Z</time></trkpt><trkpt lat="45.8161324" lon="11.7420562"><ele>789.0</ele><time>2026-04-26T16:18:06.745Z</time></trkpt><trkpt lat="45.8160414" lon="11.74203"><ele>789.0</ele><time>2026-04-26T16:18:07.748Z</time></trkpt><trkpt lat="45.8159631" lon="11.7419658"><ele>791.2</ele><time>2026-04-26T16:18:08.743Z</time></trkpt><trkpt lat="45.8159022" lon="11.741867"><ele>793.4000000000001</ele><time>2026-04-26T16:18:09.749Z</time></trkpt><trkpt lat="45.8158528" lon="11.7417459"><ele>795.6</ele><time>2026-04-26T16:18:10.752Z</time></trkpt><trkpt lat="45.8158045" lon="11.7416214"><ele>797.8</ele><time>2026-04-26T16:18:11.75Z</time></trkpt><trkpt lat="45.815758" lon="11.7414964"><ele>800.0</ele><time>2026-04-26T16:18:12.754Z</time></trkpt><trkpt lat="45.8157269" lon="11.7413606"><ele>800.0</ele><time>2026-04-26T16:18:13.754Z</time></trkpt><trkpt lat="45.8157206" lon="11.7412255"><ele>800.0</ele><time>2026-04-26T16:18:14.756Z</time></trkpt><trkpt lat="45.8157228" lon="11.7410935"><ele>800.0</ele><time>2026-04-26T16:18:15.757Z</time></trkpt><trkpt lat="45.8157513" lon="11.7409727"><ele>800.0</ele><time>2026-04-26T16:18:16.756Z</time></trkpt><trkpt lat="45.8157552" lon="11.7408337"><ele>800.0</ele><time>2026-04-26T16:18:17.746Z</time></trkpt><trkpt lat="45.8157238" lon="11.7406725"><ele>800.0</ele><time>2026-04-26T16:18:18.748Z</time></trkpt><trkpt lat="45.8157034" lon="11.7405235"><ele>800.0</ele><time>2026-04-26T16:18:19.749Z</time></trkpt><trkpt lat="45.8156764" lon="11.7403799"><ele>800.0</ele><time>2026-04-26T16:18:20.754Z</time></trkpt><trkpt lat="45.8156609" lon="11.7402234"><ele>800.0</ele><time>2026-04-26T16:18:21.749Z</time></trkpt><trkpt lat="45.8156334" lon="11.7400841"><ele>800.0</ele><time>2026-04-26T16:18:22.748Z</time></trkpt><trkpt lat="45.8155823" lon="11.739961"><ele>800.0</ele><time>2026-04-26T16:18:23.752Z</time></trkpt><trkpt lat="45.8155041" lon="11.7398702"><ele>800.0</ele><time>2026-04-26T16:18:24.75Z</time></trkpt><trkpt lat="45.8154131" lon="11.7398225"><ele>800.0</ele><time>2026-04-26T16:18:25.748Z</time></trkpt><trkpt lat="45.8153188" lon="11.7397761"><ele>800.0</ele><time>2026-04-26T16:18:26.75Z</time></trkpt><trkpt lat="45.8152202" lon="11.7397959"><ele>800.0</ele><time>2026-04-26T16:18:27.747Z</time></trkpt><trkpt lat="45.8151204" lon="11.7398413"><ele>797.25</ele><time>2026-04-26T16:18:28.747Z</time></trkpt><trkpt lat="45.815018" lon="11.7398857"><ele>794.5</ele><time>2026-04-26T16:18:29.753Z</time></trkpt><trkpt lat="45.8149267" lon="11.7399706"><ele>791.75</ele><time>2026-04-26T16:18:30.734Z</time></trkpt><trkpt lat="45.8148486" lon="11.740096"><ele>789.0</ele><time>2026-04-26T16:18:31.746Z</time></trkpt><trkpt lat="45.8147699" lon="11.740234"><ele>786.5</ele><time>2026-04-26T16:18:32.743Z</time></trkpt><trkpt lat="45.8146968" lon="11.7403806"><ele>784.0</ele><time>2026-04-26T16:18:33.746Z</time></trkpt><trkpt lat="45.8146278" lon="11.7405262"><ele>781.5</ele><time>2026-04-26T16:18:34.753Z</time></trkpt><trkpt lat="45.8145633" lon="11.7406686"><ele>779.0</ele><time>2026-04-26T16:18:35.741Z</time></trkpt><trkpt lat="45.8144979" lon="11.7408079"><ele>779.0</ele><time>2026-04-26T16:18:36.737Z</time></trkpt><trkpt lat="45.8144255" lon="11.7409427"><ele>779.0</ele><time>2026-04-26T16:18:37.742Z</time></trkpt><trkpt lat="45.8143294" lon="11.7410241"><ele>779.0</ele><time>2026-04-26T16:18:38.755Z</time></trkpt><trkpt lat="45.8142262" lon="11.7410869"><ele>779.0</ele><time>2026-04-26T16:18:39.734Z</time></trkpt><trkpt lat="45.8141156" lon="11.7411352"><ele>777.0</ele><time>2026-04-26T16:18:40.737Z</time></trkpt><trkpt lat="45.8140062" lon="11.7411839"><ele>775.0</ele><time>2026-04-26T16:18:41.756Z</time></trkpt><trkpt lat="45.8138862" lon="11.741215"><ele>773.0</ele><time>2026-04-26T16:18:42.751Z</time></trkpt><trkpt lat="45.8137662" lon="11.7412296"><ele>771.0</ele><time>2026-04-26T16:18:43.742Z</time></trkpt><trkpt lat="45.8136448" lon="11.7412204"><ele>771.0</ele><time>2026-04-26T16:18:44.748Z</time></trkpt><trkpt lat="45.8135252" lon="11.7412108"><ele>771.0</ele><time>2026-04-26T16:18:45.739Z</time></trkpt><trkpt lat="45.8134104" lon="11.7411887"><ele>771.0</ele><time>2026-04-26T16:18:46.75Z</time></trkpt><trkpt lat="45.8132978" lon="11.7411523"><ele>771.0</ele><time>2026-04-26T16:18:47.746Z</time></trkpt><trkpt lat="45.8131777" lon="11.7410702"><ele>776.25</ele><time>2026-04-26T16:18:48.751Z</time></trkpt><trkpt lat="45.8130525" lon="11.7409794"><ele>781.5</ele><time>2026-04-26T16:18:49.741Z</time></trkpt><trkpt lat="45.8129356" lon="11.7408914"><ele>786.75</ele><time>2026-04-26T16:18:50.742Z</time></trkpt><trkpt lat="45.8128204" lon="11.7408116"><ele>792.0</ele><time>2026-04-26T16:18:51.74Z</time></trkpt><trkpt lat="45.8127057" lon="11.7407389"><ele>792.25</ele><time>2026-04-26T16:18:52.736Z</time></trkpt><trkpt lat="45.8125945" lon="11.7406666"><ele>792.5</ele><time>2026-04-26T16:18:53.753Z</time></trkpt><trkpt lat="45.812481" lon="11.7406049"><ele>792.75</ele><time>2026-04-26T16:18:54.746Z</time></trkpt><trkpt lat="45.8123716" lon="11.7405537"><ele>793.0</ele><time>2026-04-26T16:18:55.743Z</time></trkpt><trkpt lat="45.8122606" lon="11.7405205"><ele>793.0</ele><time>2026-04-26T16:18:56.75Z</time></trkpt><trkpt lat="45.8121541" lon="11.740503"><ele>793.0</ele><time>2026-04-26T16:18:57.758Z</time></trkpt><trkpt lat="45.8120464" lon="11.7405145"><ele>793.0</ele><time>2026-04-26T16:18:58.755Z</time></trkpt><trkpt lat="45.8119477" lon="11.7405537"><ele>793.0</ele><time>2026-04-26T16:18:59.748Z</time></trkpt><trkpt lat="45.8118613" lon="11.7406313"><ele>793.0</ele><time>2026-04-26T16:19:00.746Z</time></trkpt><trkpt lat="45.8117816" lon="11.7407442"><ele>790.5</ele><time>2026-04-26T16:19:01.754Z</time></trkpt><trkpt lat="45.8117047" lon="11.7408724"><ele>788.0</ele><time>2026-04-26T16:19:02.741Z</time></trkpt><trkpt lat="45.8116267" lon="11.7409964"><ele>785.5</ele><time>2026-04-26T16:19:03.738Z</time></trkpt><trkpt lat="45.811553" lon="11.7411171"><ele>783.0</ele><time>2026-04-26T16:19:04.736Z</time></trkpt><trkpt lat="45.8114907" lon="11.7412402"><ele>781.5999999999999</ele><time>2026-04-26T16:19:05.755Z</time></trkpt><trkpt lat="45.8114423" lon="11.7413826"><ele>780.1999999999999</ele><time>2026-04-26T16:19:06.752Z</time></trkpt><trkpt lat="45.8114207" lon="11.7415384"><ele>778.8</ele><time>2026-04-26T16:19:07.748Z</time></trkpt><trkpt lat="45.811421" lon="11.741696"><ele>777.4</ele><time>2026-04-26T16:19:08.75Z</time></trkpt><trkpt lat="45.8114355" lon="11.7418572"><ele>776.0</ele><time>2026-04-26T16:19:09.748Z</time></trkpt><trkpt lat="45.8114711" lon="11.7420034"><ele>774.8</ele><time>2026-04-26T16:19:10.749Z</time></trkpt><trkpt lat="45.8115241" lon="11.7421395"><ele>773.5999999999999</ele><time>2026-04-26T16:19:11.751Z</time></trkpt><trkpt lat="45.8115788" lon="11.7422727"><ele>772.4</ele><time>2026-04-26T16:19:12.752Z</time></trkpt><trkpt lat="45.8116299" lon="11.7423983"><ele>771.2</ele><time>2026-04-26T16:19:13.738Z</time></trkpt><trkpt lat="45.8116817" lon="11.7425157"><ele>770.0</ele><time>2026-04-26T16:19:14.754Z</time></trkpt><trkpt lat="45.8117339" lon="11.7426357"><ele>770.2</ele><time>2026-04-26T16:19:15.748Z</time></trkpt><trkpt lat="45.8117749" lon="11.7427589"><ele>770.4</ele><time>2026-04-26T16:19:16.748Z</time></trkpt><trkpt lat="45.8118006" lon="11.7428864"><ele>770.5999999999999</ele><time>2026-04-26T16:19:17.739Z</time></trkpt><trkpt lat="45.811826" lon="11.7430152"><ele>770.8</ele><time>2026-04-26T16:19:18.754Z</time></trkpt><trkpt lat="45.8118105" lon="11.7431553"><ele>771.0</ele><time>2026-04-26T16:19:19.755Z</time></trkpt><trkpt lat="45.8117794" lon="11.7432894"><ele>769.8</ele><time>2026-04-26T16:19:20.754Z</time></trkpt><trkpt lat="45.8117493" lon="11.7434144"><ele>768.5999999999999</ele><time>2026-04-26T16:19:21.755Z</time></trkpt><trkpt lat="45.8117178" lon="11.7435305"><ele>767.4</ele><time>2026-04-26T16:19:22.75Z</time></trkpt><trkpt lat="45.8117007" lon="11.7436579"><ele>766.2</ele><time>2026-04-26T16:19:23.76Z</time></trkpt><trkpt lat="45.8116947" lon="11.7437937"><ele>765.0</ele><time>2026-04-26T16:19:24.756Z</time></trkpt><trkpt lat="45.811694" lon="11.7439371"><ele>763.2</ele><time>2026-04-26T16:19:25.748Z</time></trkpt><trkpt lat="45.8116976" lon="11.7440761"><ele>761.4</ele><time>2026-04-26T16:19:26.756Z</time></trkpt><trkpt lat="45.8117058" lon="11.7442101"><ele>759.5999999999999</ele><time>2026-04-26T16:19:27.762Z</time></trkpt><trkpt lat="45.8117325" lon="11.7443431"><ele>757.8</ele><time>2026-04-26T16:19:28.758Z</time></trkpt><trkpt lat="45.8117795" lon="11.7444648"><ele>756.0</ele><time>2026-04-26T16:19:29.762Z</time></trkpt><trkpt lat="45.8118283" lon="11.744584"><ele>755.4</ele><time>2026-04-26T16:19:30.75Z</time></trkpt><trkpt lat="45.8119034" lon="11.7446766"><ele>754.8</ele><time>2026-04-26T16:19:31.761Z</time></trkpt><trkpt lat="45.8119897" lon="11.7447539"><ele>754.1999999999999</ele><time>2026-04-26T16:19:32.754Z</time></trkpt><trkpt lat="45.8120816" lon="11.744825"><ele>753.5999999999999</ele><time>2026-04-26T16:19:33.742Z</time></trkpt><trkpt lat="45.8121758" lon="11.7448948"><ele>753.0</ele><time>2026-04-26T16:19:34.753Z</time></trkpt><trkpt lat="45.8122728" lon="11.7449645"><ele>753.0</ele><time>2026-04-26T16:19:35.755Z</time></trkpt><trkpt lat="45.8123733" lon="11.7450361"><ele>753.0</ele><time>2026-04-26T16:19:36.757Z</time></trkpt><trkpt lat="45.812476" lon="11.7451081"><ele>753.0</ele><time>2026-04-26T16:19:37.752Z</time></trkpt><trkpt lat="45.8125789" lon="11.7451786"><ele>753.0</ele><time>2026-04-26T16:19:38.752Z</time></trkpt><trkpt lat="45.8126857" lon="11.7452545"><ele>747.75</ele><time>2026-04-26T16:19:39.752Z</time></trkpt><trkpt lat="45.8127915" lon="11.7453319"><ele>742.5</ele><time>2026-04-26T16:19:40.743Z</time></trkpt><trkpt lat="45.8128987" lon="11.7454021"><ele>737.25</ele><time>2026-04-26T16:19:41.75Z</time></trkpt><trkpt lat="45.8130093" lon="11.7454642"><ele>732.0</ele><time>2026-04-26T16:19:42.741Z</time></trkpt><trkpt lat="45.8131243" lon="11.7455081"><ele>732.0</ele><time>2026-04-26T16:19:43.763Z</time></trkpt><trkpt lat="45.8132374" lon="11.7455343"><ele>732.0</ele><time>2026-04-26T16:19:44.744Z</time></trkpt><trkpt lat="45.813349" lon="11.7455563"><ele>732.0</ele><time>2026-04-26T16:19:45.748Z</time></trkpt><trkpt lat="45.813457" lon="11.7455791"><ele>732.0</ele><time>2026-04-26T16:19:46.749Z</time></trkpt><trkpt lat="45.8135586" lon="11.7456071"><ele>732.0</ele><time>2026-04-26T16:19:47.769Z</time></trkpt><trkpt lat="45.8136554" lon="11.7456423"><ele>730.6666666666666</ele><time>2026-04-26T16:19:48.753Z</time></trkpt><trkpt lat="45.8137451" lon="11.7456791"><ele>729.3333333333334</ele><time>2026-04-26T16:19:49.739Z</time></trkpt><trkpt lat="45.8138299" lon="11.7457103"><ele>728.0</ele><time>2026-04-26T16:19:50.749Z</time></trkpt><trkpt lat="45.8139131" lon="11.7457286"><ele>726.6666666666667</ele><time>2026-04-26T16:19:51.753Z</time></trkpt><trkpt lat="45.8139923" lon="11.7457374"><ele>725.3333333333334</ele><time>2026-04-26T16:19:52.752Z</time></trkpt><trkpt lat="45.8140664" lon="11.7457362"><ele>724.0</ele><time>2026-04-26T16:19:53.753Z</time></trkpt><trkpt lat="45.8141302" lon="11.7457428"><ele>724.0</ele><time>2026-04-26T16:19:54.751Z</time></trkpt><trkpt lat="45.8141973" lon="11.7458388"><ele>724.0</ele><time>2026-04-26T16:19:56.751Z</time></trkpt><trkpt lat="45.8141451" lon="11.7459343"><ele>724.0</ele><time>2026-04-26T16:19:58.738Z</time></trkpt><trkpt lat="45.8140332" lon="11.7459379"><ele>724.0</ele><time>2026-04-26T16:20:00.751Z</time></trkpt><trkpt lat="45.813955" lon="11.7459021"><ele>724.0</ele><time>2026-04-26T16:20:01.761Z</time></trkpt><trkpt lat="45.8138651" lon="11.7458657"><ele>724.0</ele><time>2026-04-26T16:20:02.757Z</time></trkpt><trkpt lat="45.8137706" lon="11.74583"><ele>724.0</ele><time>2026-04-26T16:20:03.758Z</time></trkpt><trkpt lat="45.8136745" lon="11.7457969"><ele>724.0</ele><time>2026-04-26T16:20:04.753Z</time></trkpt><trkpt lat="45.8135771" lon="11.7457644"><ele>724.0</ele><time>2026-04-26T16:20:05.778Z</time></trkpt><trkpt lat="45.8134753" lon="11.7457537"><ele>724.0</ele><time>2026-04-26T16:20:06.776Z</time></trkpt><trkpt lat="45.8133727" lon="11.7457687"><ele>725.6</ele><time>2026-04-26T16:20:07.749Z</time></trkpt><trkpt lat="45.8132729" lon="11.7458016"><ele>727.2</ele><time>2026-04-26T16:20:08.769Z</time></trkpt><trkpt lat="45.8131844" lon="11.7458463"><ele>728.8000000000001</ele><time>2026-04-26T16:20:09.749Z</time></trkpt><trkpt lat="45.8130943" lon="11.7458909"><ele>730.4000000000001</ele><time>2026-04-26T16:20:10.738Z</time></trkpt><trkpt lat="45.813003" lon="11.7459241"><ele>732.0</ele><time>2026-04-26T16:20:11.755Z</time></trkpt><trkpt lat="45.8129111" lon="11.7459448"><ele>732.0</ele><time>2026-04-26T16:20:12.751Z</time></trkpt><trkpt lat="45.8128184" lon="11.7459487"><ele>732.0</ele><time>2026-04-26T16:20:13.781Z</time></trkpt><trkpt lat="45.8127231" lon="11.7459391"><ele>732.0</ele><time>2026-04-26T16:20:14.779Z</time></trkpt><trkpt lat="45.8126257" lon="11.7459218"><ele>732.0</ele><time>2026-04-26T16:20:15.751Z</time></trkpt><trkpt lat="45.8125256" lon="11.7458993"><ele>732.0</ele><time>2026-04-26T16:20:16.757Z</time></trkpt><trkpt lat="45.8124215" lon="11.7458835"><ele>731.0</ele><time>2026-04-26T16:20:17.753Z</time></trkpt><trkpt lat="45.8123137" lon="11.7458755"><ele>730.0</ele><time>2026-04-26T16:20:18.739Z</time></trkpt><trkpt lat="45.8122037" lon="11.7458713"><ele>729.0</ele><time>2026-04-26T16:20:19.749Z</time></trkpt><trkpt lat="45.8120901" lon="11.7458714"><ele>728.0</ele><time>2026-04-26T16:20:20.757Z</time></trkpt><trkpt lat="45.8119729" lon="11.745871"><ele>727.0</ele><time>2026-04-26T16:20:21.754Z</time></trkpt><trkpt lat="45.8118538" lon="11.745873"><ele>724.75</ele><time>2026-04-26T16:20:22.763Z</time></trkpt><trkpt lat="45.8117322" lon="11.745877"><ele>722.5</ele><time>2026-04-26T16:20:23.763Z</time></trkpt><trkpt lat="45.8116081" lon="11.7458811"><ele>720.25</ele><time>2026-04-26T16:20:24.753Z</time></trkpt><trkpt lat="45.8114827" lon="11.7458873"><ele>718.0</ele><time>2026-04-26T16:20:25.773Z</time></trkpt><trkpt lat="45.8113558" lon="11.745895"><ele>718.0</ele><time>2026-04-26T16:20:26.755Z</time></trkpt><trkpt lat="45.8112258" lon="11.7459072"><ele>718.0</ele><time>2026-04-26T16:20:27.74Z</time></trkpt><trkpt lat="45.8110948" lon="11.7459248"><ele>718.0</ele><time>2026-04-26T16:20:28.761Z</time></trkpt><trkpt lat="45.810961" lon="11.7459414"><ele>718.0</ele><time>2026-04-26T16:20:29.757Z</time></trkpt><trkpt lat="45.8108321" lon="11.7459515"><ele>716.0</ele><time>2026-04-26T16:20:30.75Z</time></trkpt><trkpt lat="45.8107087" lon="11.7459544"><ele>714.0</ele><time>2026-04-26T16:20:31.761Z</time></trkpt><trkpt lat="45.8105911" lon="11.7459518"><ele>712.0</ele><time>2026-04-26T16:20:32.771Z</time></trkpt><trkpt lat="45.8104808" lon="11.7459345"><ele>710.0</ele><time>2026-04-26T16:20:33.761Z</time></trkpt><trkpt lat="45.8103734" lon="11.7458891"><ele>710.0</ele><time>2026-04-26T16:20:34.747Z</time></trkpt><trkpt lat="45.8102738" lon="11.7458051"><ele>710.0</ele><time>2026-04-26T16:20:35.751Z</time></trkpt><trkpt lat="45.8101892" lon="11.7456862"><ele>710.0</ele><time>2026-04-26T16:20:36.76Z</time></trkpt><trkpt lat="45.8101266" lon="11.7455447"><ele>710.0</ele><time>2026-04-26T16:20:37.74Z</time></trkpt><trkpt lat="45.8100848" lon="11.7453929"><ele>707.4</ele><time>2026-04-26T16:20:38.757Z</time></trkpt><trkpt lat="45.8100701" lon="11.7452438"><ele>704.8</ele><time>2026-04-26T16:20:39.741Z</time></trkpt><trkpt lat="45.8100838" lon="11.7450956"><ele>702.2</ele><time>2026-04-26T16:20:40.755Z</time></trkpt><trkpt lat="45.8101089" lon="11.7449533"><ele>699.6</ele><time>2026-04-26T16:20:41.762Z</time></trkpt><trkpt lat="45.8101336" lon="11.7448152"><ele>697.0</ele><time>2026-04-26T16:20:42.761Z</time></trkpt><trkpt lat="45.8101255" lon="11.7446682"><ele>697.0</ele><time>2026-04-26T16:20:43.742Z</time></trkpt><trkpt lat="45.8101166" lon="11.7445253"><ele>697.0</ele><time>2026-04-26T16:20:44.749Z</time></trkpt><trkpt lat="45.8100498" lon="11.7444047"><ele>697.0</ele><time>2026-04-26T16:20:45.739Z</time></trkpt><trkpt lat="45.809971" lon="11.7443045"><ele>697.0</ele><time>2026-04-26T16:20:46.753Z</time></trkpt><trkpt lat="45.809892" lon="11.7442048"><ele>697.0</ele><time>2026-04-26T16:20:47.761Z</time></trkpt><trkpt lat="45.8098137" lon="11.7441054"><ele>698.0</ele><time>2026-04-26T16:20:48.751Z</time></trkpt><trkpt lat="45.8097444" lon="11.7439823"><ele>699.0</ele><time>2026-04-26T16:20:49.753Z</time></trkpt><trkpt lat="45.8097013" lon="11.7438453"><ele>700.0</ele><time>2026-04-26T16:20:50.757Z</time></trkpt><trkpt lat="45.8096792" lon="11.7437033"><ele>701.0</ele><time>2026-04-26T16:20:51.744Z</time></trkpt><trkpt lat="45.8096624" lon="11.7435682"><ele>702.0</ele><time>2026-04-26T16:20:52.744Z</time></trkpt><trkpt lat="45.80964" lon="11.7434462"><ele>704.0</ele><time>2026-04-26T16:20:53.74Z</time></trkpt><trkpt lat="45.8095919" lon="11.7433378"><ele>706.0</ele><time>2026-04-26T16:20:54.742Z</time></trkpt><trkpt lat="45.8095215" lon="11.7432625"><ele>708.0</ele><time>2026-04-26T16:20:55.739Z</time></trkpt><trkpt lat="45.8094341" lon="11.7432291"><ele>710.0</ele><time>2026-04-26T16:20:56.756Z</time></trkpt><trkpt lat="45.8093443" lon="11.7431982"><ele>712.0</ele><time>2026-04-26T16:20:57.755Z</time></trkpt><trkpt lat="45.8092461" lon="11.7432125"><ele>707.0</ele><time>2026-04-26T16:20:58.757Z</time></trkpt><trkpt lat="45.8091395" lon="11.7432307"><ele>702.0</ele><time>2026-04-26T16:20:59.745Z</time></trkpt><trkpt lat="45.8090245" lon="11.7432623"><ele>697.0</ele><time>2026-04-26T16:21:00.763Z</time></trkpt><trkpt lat="45.8089109" lon="11.7433059"><ele>692.0</ele><time>2026-04-26T16:21:01.748Z</time></trkpt><trkpt lat="45.8087927" lon="11.7433605"><ele>692.0</ele><time>2026-04-26T16:21:02.761Z</time></trkpt><trkpt lat="45.8086732" lon="11.7434199"><ele>692.0</ele><time>2026-04-26T16:21:03.759Z</time></trkpt><trkpt lat="45.8085565" lon="11.7434887"><ele>692.0</ele><time>2026-04-26T16:21:04.756Z</time></trkpt><trkpt lat="45.8084477" lon="11.7435743"><ele>692.0</ele><time>2026-04-26T16:21:05.751Z</time></trkpt><trkpt lat="45.8083393" lon="11.7436597"><ele>687.4000000000001</ele><time>2026-04-26T16:21:06.753Z</time></trkpt><trkpt lat="45.8082472" lon="11.7437607"><ele>682.8000000000001</ele><time>2026-04-26T16:21:07.753Z</time></trkpt><trkpt lat="45.8081637" lon="11.7438583"><ele>678.2</ele><time>2026-04-26T16:21:08.75Z</time></trkpt><trkpt lat="45.8080817" lon="11.7439543"><ele>673.6</ele><time>2026-04-26T16:21:09.76Z</time></trkpt><trkpt lat="45.8080002" lon="11.7440478"><ele>669.0</ele><time>2026-04-26T16:21:10.757Z</time></trkpt><trkpt lat="45.8079199" lon="11.7441427"><ele>669.0</ele><time>2026-04-26T16:21:11.759Z</time></trkpt><trkpt lat="45.807843" lon="11.7442375"><ele>669.0</ele><time>2026-04-26T16:21:12.736Z</time></trkpt><trkpt lat="45.8077623" lon="11.7443383"><ele>669.0</ele><time>2026-04-26T16:21:13.753Z</time></trkpt><trkpt lat="45.8076827" lon="11.7444375"><ele>669.0</ele><time>2026-04-26T16:21:14.758Z</time></trkpt><trkpt lat="45.8076038" lon="11.7445262"><ele>669.0</ele><time>2026-04-26T16:21:15.752Z</time></trkpt><trkpt lat="45.8075168" lon="11.7446037"><ele>667.4000000000001</ele><time>2026-04-26T16:21:16.75Z</time></trkpt><trkpt lat="45.8074221" lon="11.7446662"><ele>665.8</ele><time>2026-04-26T16:21:17.759Z</time></trkpt><trkpt lat="45.8073209" lon="11.744717"><ele>664.2</ele><time>2026-04-26T16:21:18.763Z</time></trkpt><trkpt lat="45.8072156" lon="11.7447518"><ele>662.5999999999999</ele><time>2026-04-26T16:21:19.753Z</time></trkpt><trkpt lat="45.8071054" lon="11.7447584"><ele>661.0</ele><time>2026-04-26T16:21:20.752Z</time></trkpt><trkpt lat="45.8069962" lon="11.7447422"><ele>661.0</ele><time>2026-04-26T16:21:21.758Z</time></trkpt><trkpt lat="45.8068894" lon="11.7447069"><ele>661.0</ele><time>2026-04-26T16:21:22.752Z</time></trkpt><trkpt lat="45.8067852" lon="11.744651"><ele>661.0</ele><time>2026-04-26T16:21:23.748Z</time></trkpt><trkpt lat="45.8100701" lon="11.7452438"><ele>668.1999999999999</ele><time>2026-04-26T16:20:39.741Z</time></trkpt><trkpt lat="45.8100838" lon="11.7450956"><ele>675.4</ele><time>2026-04-26T16:20:40.755Z</time></trkpt><trkpt lat="45.8101089" lon="11.7449533"><ele>682.6</ele><time>2026-04-26T16:20:41.762Z</time></trkpt><trkpt lat="45.8101336" lon="11.7448152"><ele>689.8</ele><time>2026-04-26T16:20:42.761Z</time></trkpt><trkpt lat="45.8101255" lon="11.7446682"><ele>697.0</ele><time>2026-04-26T16:20:43.742Z</time></trkpt><trkpt lat="45.8101166" lon="11.7445253"><ele>697.0</ele><time>2026-04-26T16:20:44.749Z</time></trkpt><trkpt lat="45.8100498" lon="11.7444047"><ele>697.0</ele><time>2026-04-26T16:20:45.739Z</time></trkpt><trkpt lat="45.809971" lon="11.7443045"><ele>697.0</ele><time>2026-04-26T16:20:46.753Z</time></trkpt><trkpt lat="45.809892" lon="11.7442048"><ele>697.0</ele><time>2026-04-26T16:20:47.761Z</time></trkpt><trkpt lat="45.8098137" lon="11.7441054"><ele>697.0</ele><time>2026-04-26T16:20:48.751Z</time></trkpt><trkpt lat="45.8097444" lon="11.7439823"><ele>698.0</ele><time>2026-04-26T16:20:49.753Z</time></trkpt><trkpt lat="45.8097013" lon="11.7438453"><ele>699.0</ele><time>2026-04-26T16:20:50.757Z</time></trkpt><trkpt lat="45.8096792" lon="11.7437033"><ele>700.0</ele><time>2026-04-26T16:20:51.744Z</time></trkpt><trkpt lat="45.8096624" lon="11.7435682"><ele>701.0</ele><time>2026-04-26T16:20:52.744Z</time></trkpt><trkpt lat="45.80964" lon="11.7434462"><ele>702.0</ele><time>2026-04-26T16:20:53.74Z</time></trkpt><trkpt lat="45.8095919" lon="11.7433378"><ele>704.0</ele><time>2026-04-26T16:20:54.742Z</time></trkpt><trkpt lat="45.8095215" lon="11.7432625"><ele>706.0</ele><time>2026-04-26T16:20:55.739Z</time></trkpt><trkpt lat="45.8094341" lon="11.7432291"><ele>708.0</ele><time>2026-04-26T16:20:56.756Z</time></trkpt><trkpt lat="45.8093443" lon="11.7431982"><ele>710.0</ele><time>2026-04-26T16:20:57.755Z</time></trkpt><trkpt lat="45.8092461" lon="11.7432125"><ele>712.0</ele><time>2026-04-26T16:20:58.757Z</time></trkpt><trkpt lat="45.8091395" lon="11.7432307"><ele>707.0</ele><time>2026-04-26T16:20:59.745Z</time></trkpt><trkpt lat="45.8090245" lon="11.7432623"><ele>702.0</ele><time>2026-04-26T16:21:00.763Z</time></trkpt><trkpt lat="45.8089109" lon="11.7433059"><ele>697.0</ele><time>2026-04-26T16:21:01.748Z</time></trkpt><trkpt lat="45.8087927" lon="11.7433605"><ele>692.0</ele><time>2026-04-26T16:21:02.761Z</time></trkpt><trkpt lat="45.8086732" lon="11.7434199"><ele>692.0</ele><time>2026-04-26T16:21:03.759Z</time></trkpt><trkpt lat="45.8085565" lon="11.7434887"><ele>692.0</ele><time>2026-04-26T16:21:04.756Z</time></trkpt><trkpt lat="45.8084477" lon="11.7435743"><ele>692.0</ele><time>2026-04-26T16:21:05.751Z</time></trkpt><trkpt lat="45.8083393" lon="11.7436597"><ele>692.0</ele><time>2026-04-26T16:21:06.753Z</time></trkpt><trkpt lat="45.8082472" lon="11.7437607"><ele>687.4000000000001</ele><time>2026-04-26T16:21:07.753Z</time></trkpt><trkpt lat="45.8081637" lon="11.7438583"><ele>682.8000000000001</ele><time>2026-04-26T16:21:08.75Z</time></trkpt><trkpt lat="45.8080817" lon="11.7439543"><ele>678.2</ele><time>2026-04-26T16:21:09.76Z</time></trkpt><trkpt lat="45.8080002" lon="11.7440478"><ele>673.6</ele><time>2026-04-26T16:21:10.757Z</time></trkpt><trkpt lat="45.8079199" lon="11.7441427"><ele>669.0</ele><time>2026-04-26T16:21:11.759Z</time></trkpt><trkpt lat="45.807843" lon="11.7442375"><ele>669.0</ele><time>2026-04-26T16:21:12.736Z</time></trkpt><trkpt lat="45.8077623" lon="11.7443383"><ele>669.0</ele><time>2026-04-26T16:21:13.753Z</time></trkpt><trkpt lat="45.8076827" lon="11.7444375"><ele>669.0</ele><time>2026-04-26T16:21:14.758Z</time></trkpt><trkpt lat="45.8076038" lon="11.7445262"><ele>669.0</ele><time>2026-04-26T16:21:15.752Z</time></trkpt><trkpt lat="45.8075168" lon="11.7446037"><ele>669.0</ele><time>2026-04-26T16:21:16.75Z</time></trkpt><trkpt lat="45.8074221" lon="11.7446662"><ele>667.4000000000001</ele><time>2026-04-26T16:21:17.759Z</time></trkpt><trkpt lat="45.8073209" lon="11.744717"><ele>665.8</ele><time>2026-04-26T16:21:18.763Z</time></trkpt><trkpt lat="45.8072156" lon="11.7447518"><ele>664.2</ele><time>2026-04-26T16:21:19.753Z</time></trkpt><trkpt lat="45.8071054" lon="11.7447584"><ele>662.5999999999999</ele><time>2026-04-26T16:21:20.752Z</time></trkpt><trkpt lat="45.8069962" lon="11.7447422"><ele>661.0</ele><time>2026-04-26T16:21:21.758Z</time></trkpt><trkpt lat="45.8068894" lon="11.7447069"><ele>660.25</ele><time>2026-04-26T16:21:22.752Z</time></trkpt><trkpt lat="45.8067852" lon="11.744651"><ele>659.5</ele><time>2026-04-26T16:21:23.748Z</time></trkpt><trkpt lat="45.8066873" lon="11.7445761"><ele>658.75</ele><time>2026-04-26T16:21:24.754Z</time></trkpt><trkpt lat="45.8065929" lon="11.7444813"><ele>658.0</ele><time>2026-04-26T16:21:25.746Z</time></trkpt><trkpt lat="45.8065075" lon="11.7443694"><ele>658.0</ele><time>2026-04-26T16:21:26.752Z</time></trkpt><trkpt lat="45.8064305" lon="11.7442435"><ele>658.0</ele><time>2026-04-26T16:21:27.753Z</time></trkpt><trkpt lat="45.8063615" lon="11.7441032"><ele>658.0</ele><time>2026-04-26T16:21:28.754Z</time></trkpt><trkpt lat="45.8063" lon="11.7439613"><ele>658.0</ele><time>2026-04-26T16:21:29.755Z</time></trkpt><trkpt lat="45.8062457" lon="11.7438243"><ele>658.0</ele><time>2026-04-26T16:21:30.746Z</time></trkpt><trkpt lat="45.8061936" lon="11.743688"><ele>658.0</ele><time>2026-04-26T16:21:31.744Z</time></trkpt><trkpt lat="45.8061476" lon="11.7435466"><ele>658.0</ele><time>2026-04-26T16:21:32.767Z</time></trkpt><trkpt lat="45.8061032" lon="11.7434061"><ele>658.0</ele><time>2026-04-26T16:21:33.77Z</time></trkpt><trkpt lat="45.8060984" lon="11.7432433"><ele>658.0</ele><time>2026-04-26T16:21:34.761Z</time></trkpt><trkpt lat="45.806114" lon="11.7430827"><ele>659.2</ele><time>2026-04-26T16:21:35.745Z</time></trkpt><trkpt lat="45.8061299" lon="11.7429274"><ele>660.4</ele><time>2026-04-26T16:21:36.753Z</time></trkpt><trkpt lat="45.8061624" lon="11.7427884"><ele>661.6</ele><time>2026-04-26T16:21:37.756Z</time></trkpt><trkpt lat="45.8061953" lon="11.7426611"><ele>662.8000000000001</ele><time>2026-04-26T16:21:38.749Z</time></trkpt><trkpt lat="45.8062243" lon="11.7425453"><ele>664.0</ele><time>2026-04-26T16:21:39.756Z</time></trkpt><trkpt lat="45.8062461" lon="11.7424519"><ele>664.4000000000001</ele><time>2026-04-26T16:21:40.749Z</time></trkpt><trkpt lat="45.8062089" lon="11.7423291"><ele>664.8</ele><time>2026-04-26T16:21:42.751Z</time></trkpt><trkpt lat="45.8060952" lon="11.7423853"><ele>665.2</ele><time>2026-04-26T16:21:44.76Z</time></trkpt><trkpt lat="45.8060512" lon="11.7424979"><ele>665.5999999999999</ele><time>2026-04-26T16:21:45.754Z</time></trkpt><trkpt lat="45.8060172" lon="11.7426402"><ele>666.0</ele><time>2026-04-26T16:21:46.749Z</time></trkpt><trkpt lat="45.8059785" lon="11.7427961"><ele>657.5</ele><time>2026-04-26T16:21:47.754Z</time></trkpt><trkpt lat="45.8059301" lon="11.7429596"><ele>649.0</ele><time>2026-04-26T16:21:48.739Z</time></trkpt><trkpt lat="45.8058781" lon="11.7431276"><ele>640.5</ele><time>2026-04-26T16:21:49.742Z</time></trkpt><trkpt lat="45.8058268" lon="11.7432864"><ele>632.0</ele><time>2026-04-26T16:21:50.761Z</time></trkpt><trkpt lat="45.8057791" lon="11.7434402"><ele>632.5</ele><time>2026-04-26T16:21:51.771Z</time></trkpt><trkpt lat="45.8057364" lon="11.7435906"><ele>633.0</ele><time>2026-04-26T16:21:52.755Z</time></trkpt><trkpt lat="45.8056944" lon="11.7437405"><ele>633.5</ele><time>2026-04-26T16:21:53.757Z</time></trkpt><trkpt lat="45.8056684" lon="11.7438988"><ele>634.0</ele><time>2026-04-26T16:21:54.775Z</time></trkpt><trkpt lat="45.8056488" lon="11.7440595"><ele>634.0</ele><time>2026-04-26T16:21:55.757Z</time></trkpt><trkpt lat="45.8056397" lon="11.7442274"><ele>634.0</ele><time>2026-04-26T16:21:56.757Z</time></trkpt><trkpt lat="45.8056409" lon="11.7443962"><ele>634.0</ele><time>2026-04-26T16:21:57.762Z</time></trkpt><trkpt lat="45.8056548" lon="11.7445662"><ele>634.0</ele><time>2026-04-26T16:21:58.757Z</time></trkpt><trkpt lat="45.805679" lon="11.7447355"><ele>631.75</ele><time>2026-04-26T16:21:59.753Z</time></trkpt><trkpt lat="45.8057116" lon="11.7448977"><ele>629.5</ele><time>2026-04-26T16:22:00.754Z</time></trkpt><trkpt lat="45.8057505" lon="11.7450599"><ele>627.25</ele><time>2026-04-26T16:22:01.767Z</time></trkpt><trkpt lat="45.8057801" lon="11.7452219"><ele>625.0</ele><time>2026-04-26T16:22:02.753Z</time></trkpt><trkpt lat="45.8057823" lon="11.7453915"><ele>623.5</ele><time>2026-04-26T16:22:03.752Z</time></trkpt><trkpt lat="45.8057604" lon="11.7455539"><ele>622.0</ele><time>2026-04-26T16:22:04.751Z</time></trkpt><trkpt lat="45.8057316" lon="11.7457119"><ele>620.5</ele><time>2026-04-26T16:22:05.755Z</time></trkpt><trkpt lat="45.8057076" lon="11.7458751"><ele>619.0</ele><time>2026-04-26T16:22:06.756Z</time></trkpt><trkpt lat="45.8056926" lon="11.7460421"><ele>617.75</ele><time>2026-04-26T16:22:07.751Z</time></trkpt><trkpt lat="45.8056836" lon="11.7462134"><ele>616.5</ele><time>2026-04-26T16:22:08.755Z</time></trkpt><trkpt lat="45.8056812" lon="11.7463778"><ele>615.25</ele><time>2026-04-26T16:22:09.76Z</time></trkpt><trkpt lat="45.8056865" lon="11.7465417"><ele>614.0</ele><time>2026-04-26T16:22:10.756Z</time></trkpt><trkpt lat="45.8057021" lon="11.7467082"><ele>614.0</ele><time>2026-04-26T16:22:11.764Z</time></trkpt><trkpt lat="45.805728" lon="11.7468729"><ele>614.0</ele><time>2026-04-26T16:22:12.756Z</time></trkpt><trkpt lat="45.8057627" lon="11.7470356"><ele>614.0</ele><time>2026-04-26T16:22:13.756Z</time></trkpt><trkpt lat="45.8058061" lon="11.7471922"><ele>614.0</ele><time>2026-04-26T16:22:14.763Z</time></trkpt><trkpt lat="45.8058575" lon="11.7473466"><ele>611.0</ele><time>2026-04-26T16:22:15.757Z</time></trkpt><trkpt lat="45.8059113" lon="11.7474936"><ele>608.0</ele><time>2026-04-26T16:22:16.759Z</time></trkpt><trkpt lat="45.8059663" lon="11.747631"><ele>605.0</ele><time>2026-04-26T16:22:17.741Z</time></trkpt><trkpt lat="45.8060276" lon="11.7477512"><ele>602.0</ele><time>2026-04-26T16:22:18.759Z</time></trkpt><trkpt lat="45.8060974" lon="11.7478518"><ele>599.0</ele><time>2026-04-26T16:22:19.769Z</time></trkpt><trkpt lat="45.806173" lon="11.7479301"><ele>599.0</ele><time>2026-04-26T16:22:20.74Z</time></trkpt><trkpt lat="45.8062493" lon="11.7479951"><ele>599.0</ele><time>2026-04-26T16:22:21.765Z</time></trkpt><trkpt lat="45.8063178" lon="11.7480555"><ele>599.0</ele><time>2026-04-26T16:22:22.745Z</time></trkpt><trkpt lat="45.8063725" lon="11.7481188"><ele>599.0</ele><time>2026-04-26T16:22:23.761Z</time></trkpt><trkpt lat="45.8064081" lon="11.7482738"><ele>599.0</ele><time>2026-04-26T16:22:25.757Z</time></trkpt><trkpt lat="45.8063137" lon="11.7483599"><ele>599.0</ele><time>2026-04-26T16:22:27.749Z</time></trkpt><trkpt lat="45.8062452" lon="11.7483317"><ele>599.0</ele><time>2026-04-26T16:22:28.741Z</time></trkpt><trkpt lat="45.8061663" lon="11.7482959"><ele>599.0</ele><time>2026-04-26T16:22:29.754Z</time></trkpt><trkpt lat="45.8060842" lon="11.7482135"><ele>599.0</ele><time>2026-04-26T16:22:30.753Z</time></trkpt><trkpt lat="45.8060014" lon="11.7481271"><ele>599.0</ele><time>2026-04-26T16:22:31.761Z</time></trkpt><trkpt lat="45.8059271" lon="11.7480397"><ele>598.4</ele><time>2026-04-26T16:22:32.765Z</time></trkpt><trkpt lat="45.8058498" lon="11.7479525"><ele>597.8</ele><time>2026-04-26T16:22:33.759Z</time></trkpt><trkpt lat="45.8057712" lon="11.747862"><ele>597.2</ele><time>2026-04-26T16:22:34.763Z</time></trkpt><trkpt lat="45.8056968" lon="11.7477642"><ele>596.6</ele><time>2026-04-26T16:22:35.742Z</time></trkpt><trkpt lat="45.8056315" lon="11.7476559"><ele>596.0</ele><time>2026-04-26T16:22:36.757Z</time></trkpt><trkpt lat="45.8055765" lon="11.7475324"><ele>596.0</ele><time>2026-04-26T16:22:37.768Z</time></trkpt><trkpt lat="45.8055254" lon="11.7474014"><ele>596.0</ele><time>2026-04-26T16:22:38.755Z</time></trkpt><trkpt lat="45.8054777" lon="11.7472705"><ele>596.0</ele><time>2026-04-26T16:22:39.749Z</time></trkpt><trkpt lat="45.8054317" lon="11.7471418"><ele>596.0</ele><time>2026-04-26T16:22:40.752Z</time></trkpt><trkpt lat="45.8053816" lon="11.7470149"><ele>596.0</ele><time>2026-04-26T16:22:41.753Z</time></trkpt><trkpt lat="45.8053272" lon="11.7468889"><ele>599.6</ele><time>2026-04-26T16:22:42.752Z</time></trkpt><trkpt lat="45.8052653" lon="11.7467644"><ele>603.2</ele><time>2026-04-26T16:22:43.754Z</time></trkpt><trkpt lat="45.8052015" lon="11.7466346"><ele>606.8</ele><time>2026-04-26T16:22:44.757Z</time></trkpt><trkpt lat="45.8051427" lon="11.7464957"><ele>610.4</ele><time>2026-04-26T16:22:45.743Z</time></trkpt><trkpt lat="45.8050909" lon="11.7463462"><ele>614.0</ele><time>2026-04-26T16:22:46.752Z</time></trkpt><trkpt lat="45.8050462" lon="11.7461874"><ele>607.0</ele><time>2026-04-26T16:22:47.743Z</time></trkpt><trkpt lat="45.8050071" lon="11.7460265"><ele>600.0</ele><time>2026-04-26T16:22:48.758Z</time></trkpt><trkpt lat="45.80497" lon="11.745861"><ele>593.0</ele><time>2026-04-26T16:22:49.753Z</time></trkpt><trkpt lat="45.8049328" lon="11.7456958"><ele>586.0</ele><time>2026-04-26T16:22:50.74Z</time></trkpt><trkpt lat="45.8048915" lon="11.7455367"><ele>586.0</ele><time>2026-04-26T16:22:51.753Z</time></trkpt><trkpt lat="45.8048381" lon="11.7453854"><ele>586.0</ele><time>2026-04-26T16:22:52.741Z</time></trkpt><trkpt lat="45.8047709" lon="11.7452424"><ele>586.0</ele><time>2026-04-26T16:22:53.75Z</time></trkpt><trkpt lat="45.8046981" lon="11.7451037"><ele>586.0</ele><time>2026-04-26T16:22:54.742Z</time></trkpt><trkpt lat="45.8046277" lon="11.7449602"><ele>587.75</ele><time>2026-04-26T16:22:55.758Z</time></trkpt><trkpt lat="45.8045652" lon="11.7448102"><ele>589.5</ele><time>2026-04-26T16:22:56.75Z</time></trkpt><trkpt lat="45.8045129" lon="11.7446505"><ele>591.25</ele><time>2026-04-26T16:22:57.761Z</time></trkpt><trkpt lat="45.8044752" lon="11.7444786"><ele>593.0</ele><time>2026-04-26T16:22:58.738Z</time></trkpt><trkpt lat="45.8044504" lon="11.7443056"><ele>593.8</ele><time>2026-04-26T16:22:59.745Z</time></trkpt><trkpt lat="45.8044373" lon="11.744142"><ele>594.5999999999999</ele><time>2026-04-26T16:23:00.751Z</time></trkpt><trkpt lat="45.8044255" lon="11.7439948"><ele>595.4000000000001</ele><time>2026-04-26T16:23:01.739Z</time></trkpt><trkpt lat="45.8044138" lon="11.7438681"><ele>596.2</ele><time>2026-04-26T16:23:02.747Z</time></trkpt><trkpt lat="45.8043874" lon="11.7437574"><ele>597.0</ele><time>2026-04-26T16:23:03.74Z</time></trkpt><trkpt lat="45.8043629" lon="11.7436514"><ele>590.4</ele><time>2026-04-26T16:23:04.745Z</time></trkpt><trkpt lat="45.804287" lon="11.7436192"><ele>583.8000000000001</ele><time>2026-04-26T16:23:05.743Z</time></trkpt><trkpt lat="45.8042021" lon="11.7436278"><ele>577.2</ele><time>2026-04-26T16:23:06.752Z</time></trkpt><trkpt lat="45.8041071" lon="11.7436642"><ele>570.6</ele><time>2026-04-26T16:23:07.741Z</time></trkpt><trkpt lat="45.8040121" lon="11.7437169"><ele>564.0</ele><time>2026-04-26T16:23:08.745Z</time></trkpt><trkpt lat="45.8039176" lon="11.7437702"><ele>564.0</ele><time>2026-04-26T16:23:09.736Z</time></trkpt><trkpt lat="45.803819" lon="11.7438263"><ele>564.0</ele><time>2026-04-26T16:23:10.741Z</time></trkpt><trkpt lat="45.8037195" lon="11.7438792"><ele>564.0</ele><time>2026-04-26T16:23:11.748Z</time></trkpt><trkpt lat="45.8036211" lon="11.7439329"><ele>564.0</ele><time>2026-04-26T16:23:12.747Z</time></trkpt><trkpt lat="45.8035271" lon="11.7439712"><ele>564.0</ele><time>2026-04-26T16:23:13.747Z</time></trkpt><trkpt lat="45.8034322" lon="11.7440072"><ele>562.0</ele><time>2026-04-26T16:23:14.742Z</time></trkpt><trkpt lat="45.803338" lon="11.743994"><ele>560.0</ele><time>2026-04-26T16:23:15.749Z</time></trkpt><trkpt lat="45.803246" lon="11.743959"><ele>558.0</ele><time>2026-04-26T16:23:16.751Z</time></trkpt><trkpt lat="45.8031609" lon="11.7439147"><ele>556.0</ele><time>2026-04-26T16:23:17.742Z</time></trkpt><trkpt lat="45.8030783" lon="11.7438675"><ele>554.0</ele><time>2026-04-26T16:23:18.752Z</time></trkpt><trkpt lat="45.8030004" lon="11.7438219"><ele>554.0</ele><time>2026-04-26T16:23:19.739Z</time></trkpt><trkpt lat="45.8029245" lon="11.7437822"><ele>554.0</ele><time>2026-04-26T16:23:20.756Z</time></trkpt><trkpt lat="45.8028513" lon="11.743755"><ele>554.0</ele><time>2026-04-26T16:23:21.749Z</time></trkpt><trkpt lat="45.8027866" lon="11.7437343"><ele>554.0</ele><time>2026-04-26T16:23:22.756Z</time></trkpt><trkpt lat="45.8027028" lon="11.7438289"><ele>554.0</ele><time>2026-04-26T16:23:24.741Z</time></trkpt><trkpt lat="45.8027108" lon="11.7439232"><ele>554.0</ele><time>2026-04-26T16:23:25.739Z</time></trkpt><trkpt lat="45.8027572" lon="11.7440045"><ele>554.0</ele><time>2026-04-26T16:23:26.751Z</time></trkpt><trkpt lat="45.8028265" lon="11.7440638"><ele>554.0</ele><time>2026-04-26T16:23:27.741Z</time></trkpt><trkpt lat="45.8029034" lon="11.7441104"><ele>554.0</ele><time>2026-04-26T16:23:28.754Z</time></trkpt><trkpt lat="45.8029777" lon="11.7441661"><ele>554.0</ele><time>2026-04-26T16:23:29.753Z</time></trkpt><trkpt lat="45.803048" lon="11.7442355"><ele>554.0</ele><time>2026-04-26T16:23:30.738Z</time></trkpt><trkpt lat="45.8031104" lon="11.7443119"><ele>554.0</ele><time>2026-04-26T16:23:31.746Z</time></trkpt><trkpt lat="45.8031717" lon="11.7443851"><ele>554.6666666666666</ele><time>2026-04-26T16:23:32.751Z</time></trkpt><trkpt lat="45.8032344" lon="11.7444472"><ele>555.3333333333333</ele><time>2026-04-26T16:23:33.748Z</time></trkpt><trkpt lat="45.8033006" lon="11.7445072"><ele>556.0</ele><time>2026-04-26T16:23:34.744Z</time></trkpt><trkpt lat="45.803366" lon="11.7445663"><ele>556.6666666666666</ele><time>2026-04-26T16:23:35.759Z</time></trkpt><trkpt lat="45.8034426" lon="11.7445894"><ele>557.3333333333334</ele><time>2026-04-26T16:23:36.754Z</time></trkpt><trkpt lat="45.8035184" lon="11.7446105"><ele>558.0</ele><time>2026-04-26T16:23:37.742Z</time></trkpt><trkpt lat="45.8035908" lon="11.7445649"><ele>557.9999999999999</ele><time>2026-04-26T16:23:38.76Z</time></trkpt><trkpt lat="45.8036545" lon="11.7445133"><ele>558.0</ele><time>2026-04-26T16:23:39.746Z</time></trkpt><trkpt lat="45.80372" lon="11.7444739"><ele>558.0</ele><time>2026-04-26T16:23:40.751Z</time></trkpt><trkpt lat="45.8037803" lon="11.7444373"><ele>558.0</ele><time>2026-04-26T16:23:41.763Z</time></trkpt><trkpt lat="45.8038382" lon="11.7444837"><ele>558.0</ele><time>2026-04-26T16:23:42.755Z</time></trkpt><trkpt lat="45.8038702" lon="11.7445707"><ele>557.9999999999999</ele><time>2026-04-26T16:23:43.748Z</time></trkpt><trkpt lat="45.803877" lon="11.7446873"><ele>558.0</ele><time>2026-04-26T16:23:44.761Z</time></trkpt><trkpt lat="45.8038735" lon="11.7448149"><ele>558.0</ele><time>2026-04-26T16:23:45.768Z</time></trkpt><trkpt lat="45.8038572" lon="11.7449567"><ele>558.0</ele><time>2026-04-26T16:23:46.756Z</time></trkpt><trkpt lat="45.8038306" lon="11.7450893"><ele>558.0</ele><time>2026-04-26T16:23:47.753Z</time></trkpt><trkpt lat="45.8037928" lon="11.7452111"><ele>558.0</ele><time>2026-04-26T16:23:48.746Z</time></trkpt><trkpt lat="45.8037542" lon="11.7453344"><ele>558.0</ele><time>2026-04-26T16:23:49.753Z</time></trkpt><trkpt lat="45.8037238" lon="11.7454664"><ele>556.0</ele><time>2026-04-26T16:23:50.757Z</time></trkpt><trkpt lat="45.803715" lon="11.7456089"><ele>554.0</ele><time>2026-04-26T16:23:51.739Z</time></trkpt><trkpt lat="45.8037274" lon="11.7457581"><ele>552.0</ele><time>2026-04-26T16:23:52.747Z</time></trkpt><trkpt lat="45.8037569" lon="11.7459071"><ele>550.0</ele><time>2026-04-26T16:23:53.734Z</time></trkpt><trkpt lat="45.8038022" lon="11.746052"><ele>548.0</ele><time>2026-04-26T16:23:54.747Z</time></trkpt><trkpt lat="45.803862" lon="11.746189"><ele>542.5</ele><time>2026-04-26T16:23:55.759Z</time></trkpt><trkpt lat="45.8039331" lon="11.7463184"><ele>537.0</ele><time>2026-04-26T16:23:56.758Z</time></trkpt><trkpt lat="45.804011" lon="11.7464422"><ele>531.5</ele><time>2026-04-26T16:23:57.752Z</time></trkpt><trkpt lat="45.8040892" lon="11.7465656"><ele>526.0</ele><time>2026-04-26T16:23:58.753Z</time></trkpt><trkpt lat="45.8041739" lon="11.7466888"><ele>526.0</ele><time>2026-04-26T16:23:59.764Z</time></trkpt><trkpt lat="45.8042569" lon="11.7468163"><ele>526.0</ele><time>2026-04-26T16:24:00.755Z</time></trkpt><trkpt lat="45.8043468" lon="11.7469478"><ele>526.0</ele><time>2026-04-26T16:24:01.763Z</time></trkpt><trkpt lat="45.8044359" lon="11.747082"><ele>526.0</ele><time>2026-04-26T16:24:02.762Z</time></trkpt><trkpt lat="45.8045244" lon="11.7472223"><ele>525.0</ele><time>2026-04-26T16:24:03.756Z</time></trkpt><trkpt lat="45.8046063" lon="11.7473678"><ele>524.0</ele><time>2026-04-26T16:24:04.754Z</time></trkpt><trkpt lat="45.8046791" lon="11.7475267"><ele>523.0</ele><time>2026-04-26T16:24:05.77Z</time></trkpt><trkpt lat="45.8047468" lon="11.7476931"><ele>522.0</ele><time>2026-04-26T16:24:06.752Z</time></trkpt><trkpt lat="45.804805" lon="11.747863"><ele>522.0</ele><time>2026-04-26T16:24:07.755Z</time></trkpt><trkpt lat="45.8048586" lon="11.7480385"><ele>522.0</ele><time>2026-04-26T16:24:08.751Z</time></trkpt><trkpt lat="45.8049112" lon="11.7482124"><ele>522.0</ele><time>2026-04-26T16:24:09.76Z</time></trkpt><trkpt lat="45.8049632" lon="11.7483919"><ele>522.0</ele><time>2026-04-26T16:24:10.735Z</time></trkpt><trkpt lat="45.8050153" lon="11.7485682"><ele>516.0</ele><time>2026-04-26T16:24:11.756Z</time></trkpt><trkpt lat="45.8050701" lon="11.748748"><ele>510.0</ele><time>2026-04-26T16:24:12.756Z</time></trkpt><trkpt lat="45.8051239" lon="11.7489273"><ele>504.0</ele><time>2026-04-26T16:24:13.741Z</time></trkpt><trkpt lat="45.8051735" lon="11.7490999"><ele>498.0</ele><time>2026-04-26T16:24:14.756Z</time></trkpt><trkpt lat="45.8052205" lon="11.7492658"><ele>502.79999999999995</ele><time>2026-04-26T16:24:15.753Z</time></trkpt><trkpt lat="45.8052663" lon="11.7494267"><ele>507.59999999999997</ele><time>2026-04-26T16:24:16.753Z</time></trkpt><trkpt lat="45.8053083" lon="11.7495757"><ele>512.4000000000001</ele><time>2026-04-26T16:24:17.769Z</time></trkpt><trkpt lat="45.8053395" lon="11.7497085"><ele>517.2</ele><time>2026-04-26T16:24:18.751Z</time></trkpt><trkpt lat="45.8053572" lon="11.7498357"><ele>522.0</ele><time>2026-04-26T16:24:19.753Z</time></trkpt><trkpt lat="45.805378" lon="11.7499631"><ele>522.0</ele><time>2026-04-26T16:24:20.76Z</time></trkpt><trkpt lat="45.8054225" lon="11.7500815"><ele>522.0</ele><time>2026-04-26T16:24:21.75Z</time></trkpt><trkpt lat="45.8054916" lon="11.7501766"><ele>522.0</ele><time>2026-04-26T16:24:22.739Z</time></trkpt><trkpt lat="45.8055719" lon="11.7502573"><ele>522.0</ele><time>2026-04-26T16:24:23.741Z</time></trkpt><trkpt lat="45.8056573" lon="11.7503308"><ele>522.0</ele><time>2026-04-26T16:24:24.759Z</time></trkpt><trkpt lat="45.8057443" lon="11.7504064"><ele>522.6</ele><time>2026-04-26T16:24:25.753Z</time></trkpt><trkpt lat="45.8058332" lon="11.7504804"><ele>523.2</ele><time>2026-04-26T16:24:26.755Z</time></trkpt><trkpt lat="45.805924" lon="11.750564"><ele>523.8</ele><time>2026-04-26T16:24:27.755Z</time></trkpt><trkpt lat="45.8060107" lon="11.7506565"><ele>524.4</ele><time>2026-04-26T16:24:28.77Z</time></trkpt><trkpt lat="45.8060945" lon="11.7507633"><ele>525.0</ele><time>2026-04-26T16:24:29.759Z</time></trkpt><trkpt lat="45.8061691" lon="11.7508847"><ele>525.0</ele><time>2026-04-26T16:24:30.756Z</time></trkpt><trkpt lat="45.8062415" lon="11.7510109"><ele>525.0</ele><time>2026-04-26T16:24:31.753Z</time></trkpt><trkpt lat="45.8063135" lon="11.7511387"><ele>525.0</ele><time>2026-04-26T16:24:32.757Z</time></trkpt><trkpt lat="45.8063805" lon="11.7512619"><ele>525.0</ele><time>2026-04-26T16:24:33.742Z</time></trkpt><trkpt lat="45.8064407" lon="11.7513883"><ele>525.0</ele><time>2026-04-26T16:24:34.754Z</time></trkpt><trkpt lat="45.8064945" lon="11.7515232"><ele>518.8</ele><time>2026-04-26T16:24:35.759Z</time></trkpt><trkpt lat="45.8065532" lon="11.7516558"><ele>512.6</ele><time>2026-04-26T16:24:36.76Z</time></trkpt><trkpt lat="45.8066281" lon="11.7517747"><ele>506.4</ele><time>2026-04-26T16:24:37.752Z</time></trkpt><trkpt lat="45.8067172" lon="11.7518758"><ele>500.2</ele><time>2026-04-26T16:24:38.742Z</time></trkpt><trkpt lat="45.806811" lon="11.7519638"><ele>494.0</ele><time>2026-04-26T16:24:39.755Z</time></trkpt><trkpt lat="45.8069026" lon="11.7520475"><ele>488.6</ele><time>2026-04-26T16:24:40.77Z</time></trkpt><trkpt lat="45.8069913" lon="11.7521268"><ele>483.2</ele><time>2026-04-26T16:24:41.749Z</time></trkpt><trkpt lat="45.8070783" lon="11.7522002"><ele>477.80000000000007</ele><time>2026-04-26T16:24:42.759Z</time></trkpt><trkpt lat="45.80717" lon="11.7522609"><ele>472.40000000000003</ele><time>2026-04-26T16:24:43.756Z</time></trkpt><trkpt lat="45.8072695" lon="11.7522966"><ele>467.0</ele><time>2026-04-26T16:24:44.756Z</time></trkpt><trkpt lat="45.8073745" lon="11.7523147"><ele>467.0</ele><time>2026-04-26T16:24:45.743Z</time></trkpt><trkpt lat="45.8074818" lon="11.752329"><ele>467.00000000000006</ele><time>2026-04-26T16:24:46.762Z</time></trkpt><trkpt lat="45.8075919" lon="11.7523443"><ele>467.00000000000006</ele><time>2026-04-26T16:24:47.75Z</time></trkpt><trkpt lat="45.8077051" lon="11.7523625"><ele>467.0</ele><time>2026-04-26T16:24:48.758Z</time></trkpt><trkpt lat="45.8078213" lon="11.7523788"><ele>467.0</ele><time>2026-04-26T16:24:49.754Z</time></trkpt><trkpt lat="45.8079387" lon="11.7523935"><ele>467.25</ele><time>2026-04-26T16:24:50.752Z</time></trkpt><trkpt lat="45.8080576" lon="11.752408"><ele>467.5</ele><time>2026-04-26T16:24:51.754Z</time></trkpt><trkpt lat="45.80818" lon="11.7524201"><ele>467.75</ele><time>2026-04-26T16:24:52.768Z</time></trkpt><trkpt lat="45.8083024" lon="11.7524215"><ele>468.0</ele><time>2026-04-26T16:24:53.747Z</time></trkpt><trkpt lat="45.8084275" lon="11.7524136"><ele>465.25</ele><time>2026-04-26T16:24:54.747Z</time></trkpt><trkpt lat="45.8085541" lon="11.7524017"><ele>462.5</ele><time>2026-04-26T16:24:55.751Z</time></trkpt><trkpt lat="45.8086802" lon="11.7523901"><ele>459.75</ele><time>2026-04-26T16:24:56.741Z</time></trkpt><trkpt lat="45.8088064" lon="11.7523786"><ele>457.0</ele><time>2026-04-26T16:24:57.767Z</time></trkpt><trkpt lat="45.808926" lon="11.7523656"><ele>457.0</ele><time>2026-04-26T16:24:58.741Z</time></trkpt><trkpt lat="45.8090411" lon="11.7523422"><ele>457.00000000000006</ele><time>2026-04-26T16:24:59.745Z</time></trkpt><trkpt lat="45.8091502" lon="11.7523203"><ele>457.00000000000006</ele><time>2026-04-26T16:25:00.757Z</time></trkpt><trkpt lat="45.8092559" lon="11.7523008"><ele>457.0</ele><time>2026-04-26T16:25:01.767Z</time></trkpt><trkpt lat="45.8093606" lon="11.7522724"><ele>457.0</ele><time>2026-04-26T16:25:02.751Z</time></trkpt><trkpt lat="45.8094692" lon="11.7522337"><ele>453.20000000000005</ele><time>2026-04-26T16:25:03.754Z</time></trkpt><trkpt lat="45.8095789" lon="11.7521926"><ele>449.40000000000003</ele><time>2026-04-26T16:25:04.751Z</time></trkpt><trkpt lat="45.809683" lon="11.7521164"><ele>445.59999999999997</ele><time>2026-04-26T16:25:05.753Z</time></trkpt><trkpt lat="45.8097839" lon="11.7520426"><ele>441.79999999999995</ele><time>2026-04-26T16:25:06.756Z</time></trkpt><trkpt lat="45.8098752" lon="11.7519725"><ele>438.0</ele><time>2026-04-26T16:25:07.749Z</time></trkpt><trkpt lat="45.8099691" lon="11.7519234"><ele>438.0</ele><time>2026-04-26T16:25:08.756Z</time></trkpt><trkpt lat="45.8100653" lon="11.7518861"><ele>437.99999999999994</ele><time>2026-04-26T16:25:09.738Z</time></trkpt><trkpt lat="45.8101689" lon="11.7518735"><ele>437.99999999999994</ele><time>2026-04-26T16:25:10.747Z</time></trkpt><trkpt lat="45.810265" lon="11.7518664"><ele>438.0</ele><time>2026-04-26T16:25:11.769Z</time></trkpt><trkpt lat="45.8103618" lon="11.7518349"><ele>438.0</ele><time>2026-04-26T16:25:12.766Z</time></trkpt><trkpt lat="45.8104515" lon="11.7517995"><ele>440.8333333333333</ele><time>2026-04-26T16:25:13.764Z</time></trkpt><trkpt lat="45.8105258" lon="11.7517688"><ele>443.66666666666663</ele><time>2026-04-26T16:25:14.757Z</time></trkpt><trkpt lat="45.8106321" lon="11.7517485"><ele>446.5</ele><time>2026-04-26T16:25:16.755Z</time></trkpt><trkpt lat="45.8106657" lon="11.7518529"><ele>449.3333333333333</ele><time>2026-04-26T16:25:18.755Z</time></trkpt><trkpt lat="45.8106181" lon="11.7519631"><ele>452.16666666666663</ele><time>2026-04-26T16:25:20.752Z</time></trkpt><trkpt lat="45.810549" lon="11.7519792"><ele>455.0</ele><time>2026-04-26T16:25:21.752Z</time></trkpt><trkpt lat="45.8104651" lon="11.751987"><ele>451.6</ele><time>2026-04-26T16:25:22.741Z</time></trkpt><trkpt lat="45.810372" lon="11.7519972"><ele>448.2</ele><time>2026-04-26T16:25:23.734Z</time></trkpt><trkpt lat="45.8102728" lon="11.752015"><ele>444.79999999999995</ele><time>2026-04-26T16:25:24.728Z</time></trkpt><trkpt lat="45.8101726" lon="11.7520329"><ele>441.4</ele><time>2026-04-26T16:25:25.741Z</time></trkpt><trkpt lat="45.8100734" lon="11.7520668"><ele>438.0</ele><time>2026-04-26T16:25:26.736Z</time></trkpt><trkpt lat="45.8099779" lon="11.7521009"><ele>438.0</ele><time>2026-04-26T16:25:27.74Z</time></trkpt><trkpt lat="45.809887" lon="11.7521565"><ele>437.99999999999994</ele><time>2026-04-26T16:25:28.75Z</time></trkpt><trkpt lat="45.8098059" lon="11.7522593"><ele>437.99999999999994</ele><time>2026-04-26T16:25:29.752Z</time></trkpt><trkpt lat="45.8097296" lon="11.7523662"><ele>438.0</ele><time>2026-04-26T16:25:30.755Z</time></trkpt><trkpt lat="45.8096479" lon="11.7524575"><ele>438.0</ele><time>2026-04-26T16:25:31.753Z</time></trkpt><trkpt lat="45.8095526" lon="11.7525474"><ele>438.0</ele><time>2026-04-26T16:25:32.765Z</time></trkpt><trkpt lat="45.8094524" lon="11.7526147"><ele>437.99999999999994</ele><time>2026-04-26T16:25:33.748Z</time></trkpt><trkpt lat="45.8093554" lon="11.7526738"><ele>437.99999999999994</ele><time>2026-04-26T16:25:34.759Z</time></trkpt><trkpt lat="45.809245" lon="11.7527116"><ele>438.0</ele><time>2026-04-26T16:25:35.755Z</time></trkpt><trkpt lat="45.8091386" lon="11.7527509"><ele>438.0</ele><time>2026-04-26T16:25:36.74Z</time></trkpt><trkpt lat="45.8090319" lon="11.7527911"><ele>433.4</ele><time>2026-04-26T16:25:37.742Z</time></trkpt><trkpt lat="45.8089284" lon="11.7528266"><ele>428.79999999999995</ele><time>2026-04-26T16:25:38.758Z</time></trkpt><trkpt lat="45.8088278" lon="11.7528731"><ele>424.2</ele><time>2026-04-26T16:25:39.769Z</time></trkpt><trkpt lat="45.8087272" lon="11.7529249"><ele>419.6</ele><time>2026-04-26T16:25:40.75Z</time></trkpt><trkpt lat="45.8086223" lon="11.7529783"><ele>415.0</ele><time>2026-04-26T16:25:41.741Z</time></trkpt><trkpt lat="45.8085123" lon="11.7530221"><ele>416.5</ele><time>2026-04-26T16:25:42.737Z</time></trkpt><trkpt lat="45.808397" lon="11.7530556"><ele>418.0</ele><time>2026-04-26T16:25:43.74Z</time></trkpt><trkpt lat="45.8082787" lon="11.7530859"><ele>419.5</ele><time>2026-04-26T16:25:44.742Z</time></trkpt><trkpt lat="45.8081583" lon="11.7531159"><ele>421.0</ele><time>2026-04-26T16:25:45.74Z</time></trkpt><trkpt lat="45.808036" lon="11.753146"><ele>421.0</ele><time>2026-04-26T16:25:46.739Z</time></trkpt><trkpt lat="45.8079111" lon="11.7531762"><ele>421.0</ele><time>2026-04-26T16:25:47.736Z</time></trkpt><trkpt lat="45.807787" lon="11.753198"><ele>421.0</ele><time>2026-04-26T16:25:48.743Z</time></trkpt><trkpt lat="45.807663" lon="11.7532174"><ele>421.0</ele><time>2026-04-26T16:25:49.749Z</time></trkpt><trkpt lat="45.8074151" lon="11.7532638"><ele>423.25</ele><time>2026-04-26T16:25:51.742Z</time></trkpt><trkpt lat="45.8072969" lon="11.7533089"><ele>425.5</ele><time>2026-04-26T16:25:52.734Z</time></trkpt><trkpt lat="45.8071801" lon="11.7533444"><ele>427.75</ele><time>2026-04-26T16:25:53.739Z</time></trkpt><trkpt lat="45.8070584" lon="11.7533637"><ele>430.0</ele><time>2026-04-26T16:25:54.739Z</time></trkpt><trkpt lat="45.8069335" lon="11.7533623"><ele>425.0</ele><time>2026-04-26T16:25:55.741Z</time></trkpt><trkpt lat="45.8068062" lon="11.7533366"><ele>420.0</ele><time>2026-04-26T16:25:56.737Z</time></trkpt><trkpt lat="45.8066755" lon="11.7533086"><ele>415.0</ele><time>2026-04-26T16:25:57.749Z</time></trkpt><trkpt lat="45.8065472" lon="11.7532438"><ele>410.0</ele><time>2026-04-26T16:25:58.74Z</time></trkpt><trkpt lat="45.8064241" lon="11.7531645"><ele>410.0</ele><time>2026-04-26T16:25:59.734Z</time></trkpt><trkpt lat="45.8063063" lon="11.7530744"><ele>410.0</ele><time>2026-04-26T16:26:00.734Z</time></trkpt><trkpt lat="45.8061907" lon="11.7529787"><ele>410.0</ele><time>2026-04-26T16:26:01.74Z</time></trkpt><trkpt lat="45.8060767" lon="11.7528837"><ele>410.0</ele><time>2026-04-26T16:26:02.736Z</time></trkpt><trkpt lat="45.8059616" lon="11.7527868"><ele>412.5</ele><time>2026-04-26T16:26:03.735Z</time></trkpt><trkpt lat="45.8058486" lon="11.7526883"><ele>415.0</ele><time>2026-04-26T16:26:04.725Z</time></trkpt><trkpt lat="45.8057397" lon="11.7525956"><ele>417.5</ele><time>2026-04-26T16:26:05.74Z</time></trkpt><trkpt lat="45.8056316" lon="11.7525062"><ele>420.0</ele><time>2026-04-26T16:26:06.736Z</time></trkpt><trkpt lat="45.8055225" lon="11.7524135"><ele>420.0</ele><time>2026-04-26T16:26:07.737Z</time></trkpt><trkpt lat="45.8054134" lon="11.7523235"><ele>420.0</ele><time>2026-04-26T16:26:08.74Z</time></trkpt><trkpt lat="45.8053015" lon="11.75223"><ele>420.0</ele><time>2026-04-26T16:26:09.737Z</time></trkpt><trkpt lat="45.8051889" lon="11.7521364"><ele>420.0</ele><time>2026-04-26T16:26:10.74Z</time></trkpt><trkpt lat="45.8050748" lon="11.7520409"><ele>418.75</ele><time>2026-04-26T16:26:11.74Z</time></trkpt><trkpt lat="45.8049566" lon="11.7519418"><ele>417.5</ele><time>2026-04-26T16:26:12.73Z</time></trkpt><trkpt lat="45.8048384" lon="11.7518452"><ele>416.25</ele><time>2026-04-26T16:26:13.738Z</time></trkpt><trkpt lat="45.8047264" lon="11.7517544"><ele>415.0</ele><time>2026-04-26T16:26:14.739Z</time></trkpt><trkpt lat="45.8046164" lon="11.7516623"><ele>415.0</ele><time>2026-04-26T16:26:15.738Z</time></trkpt><trkpt lat="45.8045129" lon="11.7515675"><ele>415.0</ele><time>2026-04-26T16:26:16.731Z</time></trkpt><trkpt lat="45.8044208" lon="11.7514682"><ele>415.0</ele><time>2026-04-26T16:26:17.74Z</time></trkpt><trkpt lat="45.8043364" lon="11.7513594"><ele>415.0</ele><time>2026-04-26T16:26:18.728Z</time></trkpt><trkpt lat="45.8042536" lon="11.7512511"><ele>410.5</ele><time>2026-04-26T16:26:19.737Z</time></trkpt><trkpt lat="45.8041961" lon="11.7511047"><ele>406.0</ele><time>2026-04-26T16:26:20.742Z</time></trkpt><trkpt lat="45.8041386" lon="11.7509593"><ele>401.5</ele><time>2026-04-26T16:26:21.737Z</time></trkpt><trkpt lat="45.8040745" lon="11.7508072"><ele>397.0</ele><time>2026-04-26T16:26:22.735Z</time></trkpt><trkpt lat="45.8040023" lon="11.7506552"><ele>397.0</ele><time>2026-04-26T16:26:23.73Z</time></trkpt><trkpt lat="45.8039286" lon="11.7505026"><ele>397.0</ele><time>2026-04-26T16:26:24.75Z</time></trkpt><trkpt lat="45.8038554" lon="11.7503459"><ele>397.0</ele><time>2026-04-26T16:26:25.737Z</time></trkpt><trkpt lat="45.803779" lon="11.7501877"><ele>397.0</ele><time>2026-04-26T16:26:26.736Z</time></trkpt><trkpt lat="45.8036993" lon="11.7500219"><ele>401.0</ele><time>2026-04-26T16:26:27.751Z</time></trkpt><trkpt lat="45.803617" lon="11.7498571"><ele>405.0</ele><time>2026-04-26T16:26:28.743Z</time></trkpt><trkpt lat="45.8035312" lon="11.7497004"><ele>409.0</ele><time>2026-04-26T16:26:29.749Z</time></trkpt><trkpt lat="45.8034481" lon="11.7495465"><ele>413.0</ele><time>2026-04-26T16:26:30.732Z</time></trkpt><trkpt lat="45.8033647" lon="11.7493972"><ele>407.5</ele><time>2026-04-26T16:26:31.734Z</time></trkpt><trkpt lat="45.8032811" lon="11.7492541"><ele>402.0</ele><time>2026-04-26T16:26:32.754Z</time></trkpt><trkpt lat="45.8031942" lon="11.749121"><ele>396.5</ele><time>2026-04-26T16:26:33.748Z</time></trkpt><trkpt lat="45.8031083" lon="11.7489972"><ele>391.0</ele><time>2026-04-26T16:26:34.757Z</time></trkpt><trkpt lat="45.8030232" lon="11.7488848"><ele>391.0</ele><time>2026-04-26T16:26:35.74Z</time></trkpt><trkpt lat="45.8029294" lon="11.7488076"><ele>391.0</ele><time>2026-04-26T16:26:36.758Z</time></trkpt><trkpt lat="45.8028213" lon="11.7487769"><ele>391.0</ele><time>2026-04-26T16:26:37.744Z</time></trkpt><trkpt lat="45.802704" lon="11.7487669"><ele>391.0</ele><time>2026-04-26T16:26:38.747Z</time></trkpt><trkpt lat="45.8025891" lon="11.7487615"><ele>382.0</ele><time>2026-04-26T16:26:39.748Z</time></trkpt><trkpt lat="45.8024707" lon="11.7487577"><ele>373.0</ele><time>2026-04-26T16:26:40.736Z</time></trkpt><trkpt lat="45.8023582" lon="11.7487433"><ele>364.0</ele><time>2026-04-26T16:26:41.743Z</time></trkpt><trkpt lat="45.802249" lon="11.7487251"><ele>355.0</ele><time>2026-04-26T16:26:42.75Z</time></trkpt><trkpt lat="45.8021327" lon="11.7486966"><ele>355.0</ele><time>2026-04-26T16:26:43.734Z</time></trkpt><trkpt lat="45.8020191" lon="11.7486422"><ele>355.0</ele><time>2026-04-26T16:26:44.737Z</time></trkpt><trkpt lat="45.8019116" lon="11.7485748"><ele>355.0</ele><time>2026-04-26T16:26:45.747Z</time></trkpt><trkpt lat="45.8018088" lon="11.7484918"><ele>355.0</ele><time>2026-04-26T16:26:46.759Z</time></trkpt><trkpt lat="45.8017063" lon="11.7484075"><ele>357.25</ele><time>2026-04-26T16:26:47.75Z</time></trkpt><trkpt lat="45.8016087" lon="11.7483047"><ele>359.5</ele><time>2026-04-26T16:26:48.745Z</time></trkpt><trkpt lat="45.8015066" lon="11.7481779"><ele>361.75</ele><time>2026-04-26T16:26:49.74Z</time></trkpt><trkpt lat="45.8014067" lon="11.7480561"><ele>364.0</ele><time>2026-04-26T16:26:50.75Z</time></trkpt><trkpt lat="45.8013088" lon="11.747938"><ele>364.0</ele><time>2026-04-26T16:26:51.734Z</time></trkpt><trkpt lat="45.8012121" lon="11.7478274"><ele>364.0</ele><time>2026-04-26T16:26:52.751Z</time></trkpt><trkpt lat="45.8011166" lon="11.7477187"><ele>364.0</ele><time>2026-04-26T16:26:53.752Z</time></trkpt><trkpt lat="45.8010353" lon="11.747624"><ele>364.0</ele><time>2026-04-26T16:26:54.749Z</time></trkpt><trkpt lat="45.8009548" lon="11.7475298"><ele>360.79999999999995</ele><time>2026-04-26T16:26:55.75Z</time></trkpt><trkpt lat="45.8008817" lon="11.7474474"><ele>357.59999999999997</ele><time>2026-04-26T16:26:56.738Z</time></trkpt><trkpt lat="45.8008163" lon="11.7473471"><ele>354.4</ele><time>2026-04-26T16:26:57.75Z</time></trkpt><trkpt lat="45.8007626" lon="11.7472381"><ele>351.2</ele><time>2026-04-26T16:26:58.752Z</time></trkpt><trkpt lat="45.8007125" lon="11.7471365"><ele>348.0</ele><time>2026-04-26T16:26:59.743Z</time></trkpt><trkpt lat="45.8006778" lon="11.7470215"><ele>348.0</ele><time>2026-04-26T16:27:00.738Z</time></trkpt><trkpt lat="45.8005926" lon="11.7468997"><ele>348.0</ele><time>2026-04-26T16:27:02.74Z</time></trkpt><trkpt lat="45.8004989" lon="11.7470234"><ele>348.0</ele><time>2026-04-26T16:27:04.747Z</time></trkpt><trkpt lat="45.8005116" lon="11.7471255"><ele>348.0</ele><time>2026-04-26T16:27:05.744Z</time></trkpt><trkpt lat="45.8005499" lon="11.7472203"><ele>348.0</ele><time>2026-04-26T16:27:06.754Z</time></trkpt><trkpt lat="45.8005944" lon="11.74732"><ele>348.0</ele><time>2026-04-26T16:27:07.738Z</time></trkpt><trkpt lat="45.8006672" lon="11.747412"><ele>348.0</ele><time>2026-04-26T16:27:08.736Z</time></trkpt><trkpt lat="45.8007413" lon="11.7475063"><ele>348.0</ele><time>2026-04-26T16:27:09.736Z</time></trkpt><trkpt lat="45.8008046" lon="11.747615"><ele>348.0</ele><time>2026-04-26T16:27:10.754Z</time></trkpt><trkpt lat="45.8008731" lon="11.7477379"><ele>348.0</ele><time>2026-04-26T16:27:11.745Z</time></trkpt><trkpt lat="45.8009356" lon="11.747874"><ele>351.2</ele><time>2026-04-26T16:27:12.756Z</time></trkpt><trkpt lat="45.8009956" lon="11.7480136"><ele>354.4</ele><time>2026-04-26T16:27:13.744Z</time></trkpt><trkpt lat="45.8010584" lon="11.7481489"><ele>357.59999999999997</ele><time>2026-04-26T16:27:14.756Z</time></trkpt><trkpt lat="45.8011216" lon="11.7482745"><ele>360.79999999999995</ele><time>2026-04-26T16:27:15.748Z</time></trkpt><trkpt lat="45.8011829" lon="11.7484048"><ele>364.0</ele><time>2026-04-26T16:27:16.734Z</time></trkpt><trkpt lat="45.8012428" lon="11.7485269"><ele>356.4</ele><time>2026-04-26T16:27:17.744Z</time></trkpt><trkpt lat="45.801304" lon="11.7486389"><ele>348.79999999999995</ele><time>2026-04-26T16:27:18.753Z</time></trkpt><trkpt lat="45.8013675" lon="11.7487544"><ele>341.20000000000005</ele><time>2026-04-26T16:27:19.754Z</time></trkpt><trkpt lat="45.8014317" lon="11.7488728"><ele>333.6</ele><time>2026-04-26T16:27:20.738Z</time></trkpt><trkpt lat="45.8014974" lon="11.7489948"><ele>326.0</ele><time>2026-04-26T16:27:21.75Z</time></trkpt><trkpt lat="45.801569" lon="11.7491113"><ele>326.0</ele><time>2026-04-26T16:27:22.736Z</time></trkpt><trkpt lat="45.801651" lon="11.7492183"><ele>326.0</ele><time>2026-04-26T16:27:23.757Z</time></trkpt><trkpt lat="45.8017451" lon="11.7493094"><ele>326.0</ele><time>2026-04-26T16:27:24.74Z</time></trkpt><trkpt lat="45.8018473" lon="11.7493888"><ele>326.0</ele><time>2026-04-26T16:27:25.751Z</time></trkpt><trkpt lat="45.8019544" lon="11.7494567"><ele>324.6</ele><time>2026-04-26T16:27:26.744Z</time></trkpt><trkpt lat="45.8020601" lon="11.7495225"><ele>323.20000000000005</ele><time>2026-04-26T16:27:27.755Z</time></trkpt><trkpt lat="45.8021646" lon="11.7495885"><ele>321.79999999999995</ele><time>2026-04-26T16:27:28.749Z</time></trkpt><trkpt lat="45.80227" lon="11.7496583"><ele>320.4</ele><time>2026-04-26T16:27:29.747Z</time></trkpt><trkpt lat="45.8023596" lon="11.7497311"><ele>319.0</ele><time>2026-04-26T16:27:30.747Z</time></trkpt><trkpt lat="45.8024364" lon="11.7498209"><ele>319.0</ele><time>2026-04-26T16:27:31.752Z</time></trkpt><trkpt lat="45.8025031" lon="11.7499195"><ele>319.0</ele><time>2026-04-26T16:27:32.75Z</time></trkpt><trkpt lat="45.8025567" lon="11.7500394"><ele>319.0</ele><time>2026-04-26T16:27:33.752Z</time></trkpt><trkpt lat="45.8026019" lon="11.7501727"><ele>319.0</ele><time>2026-04-26T16:27:34.75Z</time></trkpt><trkpt lat="45.8026445" lon="11.7503174"><ele>319.0</ele><time>2026-04-26T16:27:35.737Z</time></trkpt><trkpt lat="45.8026919" lon="11.7504561"><ele>319.6</ele><time>2026-04-26T16:27:36.756Z</time></trkpt><trkpt lat="45.8027326" lon="11.7505894"><ele>320.2</ele><time>2026-04-26T16:27:37.763Z</time></trkpt><trkpt lat="45.8027757" lon="11.7507265"><ele>320.8</ele><time>2026-04-26T16:27:38.736Z</time></trkpt><trkpt lat="45.8028225" lon="11.7508682"><ele>321.40000000000003</ele><time>2026-04-26T16:27:39.756Z</time></trkpt><trkpt lat="45.8028708" lon="11.7510184"><ele>322.0</ele><time>2026-04-26T16:27:40.753Z</time></trkpt><trkpt lat="45.8029194" lon="11.7511719"><ele>322.0</ele><time>2026-04-26T16:27:41.757Z</time></trkpt><trkpt lat="45.8029719" lon="11.7513267"><ele>322.0</ele><time>2026-04-26T16:27:42.757Z</time></trkpt><trkpt lat="45.8030237" lon="11.7514826"><ele>322.0</ele><time>2026-04-26T16:27:43.756Z</time></trkpt><trkpt lat="45.803079" lon="11.7516454"><ele>322.0</ele><time>2026-04-26T16:27:44.753Z</time></trkpt><trkpt lat="45.8031369" lon="11.7518145"><ele>313.0</ele><time>2026-04-26T16:27:45.754Z</time></trkpt><trkpt lat="45.8031952" lon="11.7519801"><ele>304.0</ele><time>2026-04-26T16:27:46.742Z</time></trkpt><trkpt lat="45.8032541" lon="11.7521499"><ele>295.0</ele><time>2026-04-26T16:27:47.753Z</time></trkpt><trkpt lat="45.8033161" lon="11.7523257"><ele>286.0</ele><time>2026-04-26T16:27:48.761Z</time></trkpt><trkpt lat="45.803378" lon="11.7525016"><ele>286.0</ele><time>2026-04-26T16:27:49.748Z</time></trkpt><trkpt lat="45.8034588" lon="11.7526713"><ele>286.0</ele><time>2026-04-26T16:27:50.741Z</time></trkpt><trkpt lat="45.8035477" lon="11.7528304"><ele>286.0</ele><time>2026-04-26T16:27:51.752Z</time></trkpt><trkpt lat="45.803642" lon="11.7529922"><ele>286.0</ele><time>2026-04-26T16:27:52.75Z</time></trkpt><trkpt lat="45.8037371" lon="11.7531538"><ele>289.75</ele><time>2026-04-26T16:27:53.748Z</time></trkpt><trkpt lat="45.80383" lon="11.7533103"><ele>293.5</ele><time>2026-04-26T16:27:54.76Z</time></trkpt><trkpt lat="45.8039199" lon="11.7534609"><ele>297.25</ele><time>2026-04-26T16:27:55.741Z</time></trkpt><trkpt lat="45.8040012" lon="11.7536027"><ele>301.0</ele><time>2026-04-26T16:27:56.749Z</time></trkpt><trkpt lat="45.8040837" lon="11.753744"><ele>303.5</ele><time>2026-04-26T16:27:57.748Z</time></trkpt><trkpt lat="45.8041678" lon="11.753885"><ele>306.0</ele><time>2026-04-26T16:27:58.759Z</time></trkpt><trkpt lat="45.8042553" lon="11.7540313"><ele>308.5</ele><time>2026-04-26T16:27:59.74Z</time></trkpt><trkpt lat="45.8043455" lon="11.7541798"><ele>311.0</ele><time>2026-04-26T16:28:00.746Z</time></trkpt><trkpt lat="45.8044469" lon="11.7543252"><ele>302.0</ele><time>2026-04-26T16:28:01.75Z</time></trkpt><trkpt lat="45.8045528" lon="11.7544659"><ele>293.0</ele><time>2026-04-26T16:28:02.754Z</time></trkpt><trkpt lat="45.8046582" lon="11.7545998"><ele>284.0</ele><time>2026-04-26T16:28:03.761Z</time></trkpt><trkpt lat="45.8047635" lon="11.7547378"><ele>275.0</ele><time>2026-04-26T16:28:04.754Z</time></trkpt><trkpt lat="45.8048697" lon="11.7548787"><ele>275.0</ele><time>2026-04-26T16:28:05.761Z</time></trkpt><trkpt lat="45.8049764" lon="11.7550211"><ele>275.0</ele><time>2026-04-26T16:28:06.764Z</time></trkpt><trkpt lat="45.8050827" lon="11.7551665"><ele>275.0</ele><time>2026-04-26T16:28:07.76Z</time></trkpt><trkpt lat="45.8051908" lon="11.7553103"><ele>275.0</ele><time>2026-04-26T16:28:08.767Z</time></trkpt><trkpt lat="45.8053025" lon="11.755443"><ele>272.25</ele><time>2026-04-26T16:28:09.753Z</time></trkpt><trkpt lat="45.8054234" lon="11.7555666"><ele>269.5</ele><time>2026-04-26T16:28:10.751Z</time></trkpt><trkpt lat="45.8055445" lon="11.7556885"><ele>266.75</ele><time>2026-04-26T16:28:11.757Z</time></trkpt><trkpt lat="45.8056717" lon="11.7557905"><ele>264.0</ele><time>2026-04-26T16:28:12.761Z</time></trkpt><trkpt lat="45.8057994" lon="11.755883"><ele>264.0</ele><time>2026-04-26T16:28:13.751Z</time></trkpt><trkpt lat="45.8059303" lon="11.7559738"><ele>264.0</ele><time>2026-04-26T16:28:14.751Z</time></trkpt><trkpt lat="45.806066" lon="11.7560613"><ele>264.0</ele><time>2026-04-26T16:28:15.739Z</time></trkpt><trkpt lat="45.8062029" lon="11.7561463"><ele>264.0</ele><time>2026-04-26T16:28:16.751Z</time></trkpt><trkpt lat="45.8063338" lon="11.7562291"><ele>258.75</ele><time>2026-04-26T16:28:17.758Z</time></trkpt><trkpt lat="45.8064612" lon="11.7563098"><ele>253.5</ele><time>2026-04-26T16:28:18.743Z</time></trkpt><trkpt lat="45.8065896" lon="11.7563747"><ele>248.25</ele><time>2026-04-26T16:28:19.736Z</time></trkpt><trkpt lat="45.8067182" lon="11.756428"><ele>243.0</ele><time>2026-04-26T16:28:20.756Z</time></trkpt><trkpt lat="45.8068395" lon="11.7564682"><ele>243.0</ele><time>2026-04-26T16:28:21.759Z</time></trkpt><trkpt lat="45.8069604" lon="11.7565065"><ele>243.0</ele><time>2026-04-26T16:28:22.75Z</time></trkpt><trkpt lat="45.8070782" lon="11.7565438"><ele>243.0</ele><time>2026-04-26T16:28:23.757Z</time></trkpt><trkpt lat="45.8071934" lon="11.756577"><ele>243.0</ele><time>2026-04-26T16:28:24.756Z</time></trkpt><trkpt lat="45.8073057" lon="11.7566081"><ele>243.0</ele><time>2026-04-26T16:28:25.734Z</time></trkpt><trkpt lat="45.807412" lon="11.7566277"><ele>243.0</ele><time>2026-04-26T16:28:26.753Z</time></trkpt><trkpt lat="45.8075024" lon="11.756644"><ele>243.0</ele><time>2026-04-26T16:28:27.745Z</time></trkpt><trkpt lat="45.8075788" lon="11.7566573"><ele>243.0</ele><time>2026-04-26T16:28:28.743Z</time></trkpt><trkpt lat="45.8076426" lon="11.7566682"><ele>243.0</ele><time>2026-04-26T16:28:29.75Z</time></trkpt><trkpt lat="45.8077218" lon="11.7567091"><ele>243.0</ele><time>2026-04-26T16:28:31.753Z</time></trkpt><trkpt lat="45.8077482" lon="11.7568008"><ele>243.0</ele><time>2026-04-26T16:28:33.736Z</time></trkpt><trkpt lat="45.8076804" lon="11.7568915"><ele>243.0</ele><time>2026-04-26T16:28:35.749Z</time></trkpt><trkpt lat="45.8075519" lon="11.7568787"><ele>243.0</ele><time>2026-04-26T16:28:37.755Z</time></trkpt><trkpt lat="45.8074646" lon="11.756854"><ele>243.0</ele><time>2026-04-26T16:28:38.751Z</time></trkpt><trkpt lat="45.8073743" lon="11.7568377"><ele>243.0</ele><time>2026-04-26T16:28:39.75Z</time></trkpt><trkpt lat="45.8072758" lon="11.756829"><ele>243.0</ele><time>2026-04-26T16:28:40.747Z</time></trkpt><trkpt lat="45.8071748" lon="11.75682"><ele>243.0</ele><time>2026-04-26T16:28:41.744Z</time></trkpt><trkpt lat="45.8070708" lon="11.7568154"><ele>243.0</ele><time>2026-04-26T16:28:42.752Z</time></trkpt><trkpt lat="45.8069641" lon="11.7568103"><ele>243.0</ele><time>2026-04-26T16:28:43.744Z</time></trkpt><trkpt lat="45.8068538" lon="11.7568052"><ele>243.0</ele><time>2026-04-26T16:28:44.753Z</time></trkpt><trkpt lat="45.8067419" lon="11.7568004"><ele>241.75</ele><time>2026-04-26T16:28:45.746Z</time></trkpt><trkpt lat="45.8066246" lon="11.7567926"><ele>240.5</ele><time>2026-04-26T16:28:46.754Z</time></trkpt><trkpt lat="45.806505" lon="11.7567815"><ele>239.25</ele><time>2026-04-26T16:28:47.73Z</time></trkpt><trkpt lat="45.8063829" lon="11.7567664"><ele>238.0</ele><time>2026-04-26T16:28:48.748Z</time></trkpt><trkpt lat="45.8062596" lon="11.7567491"><ele>238.0</ele><time>2026-04-26T16:28:49.765Z</time></trkpt><trkpt lat="45.8061334" lon="11.7567308"><ele>238.0</ele><time>2026-04-26T16:28:50.75Z</time></trkpt><trkpt lat="45.8060056" lon="11.7567119"><ele>238.0</ele><time>2026-04-26T16:28:51.76Z</time></trkpt><trkpt lat="45.8058812" lon="11.7566898"><ele>238.0</ele><time>2026-04-26T16:28:52.75Z</time></trkpt><trkpt lat="45.8057609" lon="11.7566624"><ele>234.5</ele><time>2026-04-26T16:28:53.753Z</time></trkpt><trkpt lat="45.8056418" lon="11.7566403"><ele>231.0</ele><time>2026-04-26T16:28:54.753Z</time></trkpt><trkpt lat="45.8055301" lon="11.7566007"><ele>227.5</ele><time>2026-04-26T16:28:55.751Z</time></trkpt><trkpt lat="45.8054206" lon="11.7565563"><ele>224.0</ele><time>2026-04-26T16:28:56.756Z</time></trkpt><trkpt lat="45.8053126" lon="11.7565133"><ele>224.0</ele><time>2026-04-26T16:28:57.767Z</time></trkpt><trkpt lat="45.8052088" lon="11.7564734"><ele>223.99999999999997</ele><time>2026-04-26T16:28:58.77Z</time></trkpt><trkpt lat="45.8051057" lon="11.756431"><ele>223.99999999999997</ele><time>2026-04-26T16:28:59.737Z</time></trkpt><trkpt lat="45.8049977" lon="11.7563885"><ele>224.0</ele><time>2026-04-26T16:29:00.759Z</time></trkpt><trkpt lat="45.8048922" lon="11.7563521"><ele>224.0</ele><time>2026-04-26T16:29:01.759Z</time></trkpt><trkpt lat="45.8047864" lon="11.7563255"><ele>221.0</ele><time>2026-04-26T16:29:02.755Z</time></trkpt><trkpt lat="45.804677" lon="11.7563222"><ele>217.99999999999997</ele><time>2026-04-26T16:29:03.75Z</time></trkpt><trkpt lat="45.8045709" lon="11.7563438"><ele>215.0</ele><time>2026-04-26T16:29:04.747Z</time></trkpt><trkpt lat="45.8044699" lon="11.7563952"><ele>212.0</ele><time>2026-04-26T16:29:05.756Z</time></trkpt><trkpt lat="45.8043808" lon="11.7564747"><ele>209.0</ele><time>2026-04-26T16:29:06.749Z</time></trkpt><trkpt lat="45.804302" lon="11.7565658"><ele>207.66666666666669</ele><time>2026-04-26T16:29:07.761Z</time></trkpt><trkpt lat="45.8042274" lon="11.7566534"><ele>206.33333333333334</ele><time>2026-04-26T16:29:08.762Z</time></trkpt><trkpt lat="45.8041484" lon="11.7567264"><ele>205.0</ele><time>2026-04-26T16:29:09.764Z</time></trkpt><trkpt lat="45.804072" lon="11.756782"><ele>203.66666666666669</ele><time>2026-04-26T16:29:10.753Z</time></trkpt><trkpt lat="45.8040001" lon="11.7568273"><ele>202.33333333333334</ele><time>2026-04-26T16:29:11.748Z</time></trkpt><trkpt lat="45.8039294" lon="11.7568695"><ele>201.0</ele><time>2026-04-26T16:29:12.755Z</time></trkpt><trkpt lat="45.8038647" lon="11.7569084"><ele>200.0</ele><time>2026-04-26T16:29:13.752Z</time></trkpt><trkpt lat="45.8038041" lon="11.7569413"><ele>199.0</ele><time>2026-04-26T16:29:14.75Z</time></trkpt><trkpt lat="45.803688" lon="11.7570085"><ele>198.0</ele><time>2026-04-26T16:29:16.763Z</time></trkpt><trkpt lat="45.8036288" lon="11.7570417"><ele>197.0</ele><time>2026-04-26T16:29:17.747Z</time></trkpt><trkpt lat="45.8035688" lon="11.7570774"><ele>196.0</ele><time>2026-04-26T16:29:18.744Z</time></trkpt><trkpt lat="45.8035089" lon="11.757113"><ele>195.0</ele><time>2026-04-26T16:29:19.74Z</time></trkpt><trkpt lat="45.8034506" lon="11.7571498"><ele>194.0</ele><time>2026-04-26T16:29:20.741Z</time></trkpt><trkpt lat="45.8033375" lon="11.7572204"><ele>193.79999999999998</ele><time>2026-04-26T16:29:22.736Z</time></trkpt><trkpt lat="45.8032298" lon="11.7572908"><ele>193.6</ele><time>2026-04-26T16:29:24.739Z</time></trkpt><trkpt lat="45.8031214" lon="11.7573633"><ele>193.4</ele><time>2026-04-26T16:29:26.758Z</time></trkpt><trkpt lat="45.8030152" lon="11.7574304"><ele>193.2</ele><time>2026-04-26T16:29:28.769Z</time></trkpt><trkpt lat="45.8029573" lon="11.7574672"><ele>193.0</ele><time>2026-04-26T16:29:29.745Z</time></trkpt><trkpt lat="45.8028975" lon="11.7575051"><ele>192.99999999999997</ele><time>2026-04-26T16:29:30.752Z</time></trkpt><trkpt lat="45.8028369" lon="11.7575426"><ele>193.0</ele><time>2026-04-26T16:29:31.761Z</time></trkpt><trkpt lat="45.8027263" lon="11.7576135"><ele>193.0</ele><time>2026-04-26T16:29:33.751Z</time></trkpt><trkpt lat="45.8026175" lon="11.7576836"><ele>193.0</ele><time>2026-04-26T16:29:35.751Z</time></trkpt><trkpt lat="45.8025592" lon="11.7577216"><ele>192.99999999999997</ele><time>2026-04-26T16:29:36.767Z</time></trkpt><trkpt lat="45.8025" lon="11.7577594"><ele>193.0</ele><time>2026-04-26T16:29:37.757Z</time></trkpt><trkpt lat="45.8023881" lon="11.7578291"><ele>192.2</ele><time>2026-04-26T16:29:39.755Z</time></trkpt><trkpt lat="45.8022813" lon="11.7578775"><ele>191.4</ele><time>2026-04-26T16:29:41.762Z</time></trkpt><trkpt lat="45.8021633" lon="11.7578999"><ele>190.6</ele><time>2026-04-26T16:29:43.739Z</time></trkpt><trkpt lat="45.8020976" lon="11.757899"><ele>189.79999999999998</ele><time>2026-04-26T16:29:44.755Z</time></trkpt><trkpt lat="45.802035" lon="11.7578871"><ele>189.0</ele><time>2026-04-26T16:29:45.757Z</time></trkpt><trkpt lat="45.8019057" lon="11.7578499"><ele>189.0</ele><time>2026-04-26T16:29:47.733Z</time></trkpt><trkpt lat="45.8018367" lon="11.7578472"><ele>189.0</ele><time>2026-04-26T16:29:48.751Z</time></trkpt><trkpt lat="45.8017673" lon="11.7578576"><ele>189.0</ele><time>2026-04-26T16:29:49.754Z</time></trkpt><trkpt lat="45.8016946" lon="11.7578807"><ele>189.0</ele><time>2026-04-26T16:29:50.752Z</time></trkpt><trkpt lat="45.8016226" lon="11.7579072"><ele>189.0</ele><time>2026-04-26T16:29:51.757Z</time></trkpt><trkpt lat="45.8015502" lon="11.7579233"><ele>189.0</ele><time>2026-04-26T16:29:52.756Z</time></trkpt><trkpt lat="45.8014824" lon="11.7579236"><ele>189.0</ele><time>2026-04-26T16:29:53.761Z</time></trkpt><trkpt lat="45.8014194" lon="11.757903"><ele>188.71428571428572</ele><time>2026-04-26T16:29:54.751Z</time></trkpt><trkpt lat="45.8013619" lon="11.7578641"><ele>188.42857142857144</ele><time>2026-04-26T16:29:55.748Z</time></trkpt><trkpt lat="45.8013091" lon="11.7578146"><ele>188.14285714285714</ele><time>2026-04-26T16:29:56.753Z</time></trkpt><trkpt lat="45.8012586" lon="11.7577553"><ele>187.85714285714286</ele><time>2026-04-26T16:29:57.759Z</time></trkpt><trkpt lat="45.8012058" lon="11.757693"><ele>187.57142857142858</ele><time>2026-04-26T16:29:58.75Z</time></trkpt><trkpt lat="45.801152" lon="11.7576326"><ele>187.28571428571428</ele><time>2026-04-26T16:29:59.76Z</time></trkpt><trkpt lat="45.8010976" lon="11.7575735"><ele>187.0</ele><time>2026-04-26T16:30:00.763Z</time></trkpt><trkpt lat="45.8010391" lon="11.7575164"><ele>186.57142857142856</ele><time>2026-04-26T16:30:01.761Z</time></trkpt><trkpt lat="45.8009767" lon="11.7574598"><ele>186.14285714285717</ele><time>2026-04-26T16:30:02.747Z</time></trkpt><trkpt lat="45.8009128" lon="11.7574055"><ele>185.71428571428572</ele><time>2026-04-26T16:30:03.754Z</time></trkpt><trkpt lat="45.8008498" lon="11.7573532"><ele>185.28571428571428</ele><time>2026-04-26T16:30:04.767Z</time></trkpt><trkpt lat="45.8007877" lon="11.7573015"><ele>184.85714285714283</ele><time>2026-04-26T16:30:05.753Z</time></trkpt><trkpt lat="45.8007278" lon="11.7572493"><ele>184.42857142857144</ele><time>2026-04-26T16:30:06.735Z</time></trkpt><trkpt lat="45.8006701" lon="11.757194"><ele>184.0</ele><time>2026-04-26T16:30:07.745Z</time></trkpt><trkpt lat="45.8006102" lon="11.757134"><ele>184.0</ele><time>2026-04-26T16:30:08.731Z</time></trkpt><trkpt lat="45.8005491" lon="11.757072"><ele>184.0</ele><time>2026-04-26T16:30:09.756Z</time></trkpt><trkpt lat="45.8004919" lon="11.7570106"><ele>184.0</ele><time>2026-04-26T16:30:10.749Z</time></trkpt><trkpt lat="45.8004414" lon="11.7569456"><ele>184.0</ele><time>2026-04-26T16:30:11.753Z</time></trkpt><trkpt lat="45.8003676" lon="11.7568113"><ele>184.0</ele><time>2026-04-26T16:30:13.757Z</time></trkpt><trkpt lat="45.8003031" lon="11.7566693"><ele>184.0</ele><time>2026-04-26T16:30:15.743Z</time></trkpt><trkpt lat="45.8002095" lon="11.756557"><ele>184.0</ele><time>2026-04-26T16:30:17.758Z</time></trkpt><trkpt lat="45.8001404" lon="11.7565254"><ele>184.0</ele><time>2026-04-26T16:30:18.748Z</time></trkpt><trkpt lat="45.8000654" lon="11.7565079"><ele>184.0</ele><time>2026-04-26T16:30:19.758Z</time></trkpt><trkpt lat="45.7999919" lon="11.7564937"><ele>184.0</ele><time>2026-04-26T16:30:20.752Z</time></trkpt><trkpt lat="45.7999204" lon="11.7564802"><ele>184.0</ele><time>2026-04-26T16:30:21.754Z</time></trkpt><trkpt lat="45.7998495" lon="11.7564679"><ele>184.0</ele><time>2026-04-26T16:30:22.744Z</time></trkpt><trkpt lat="45.7997792" lon="11.756457"><ele>184.0</ele><time>2026-04-26T16:30:23.753Z</time></trkpt><trkpt lat="45.7997031" lon="11.7564482"><ele>184.0</ele><time>2026-04-26T16:30:24.751Z</time></trkpt><trkpt lat="45.7996219" lon="11.7564353"><ele>184.0</ele><time>2026-04-26T16:30:25.754Z</time></trkpt><trkpt lat="45.7995382" lon="11.7564217"><ele>184.0</ele><time>2026-04-26T16:30:26.749Z</time></trkpt><trkpt lat="45.7994628" lon="11.7564106"><ele>184.0</ele><time>2026-04-26T16:30:27.762Z</time></trkpt><trkpt lat="45.7993984" lon="11.7564076"><ele>183.2857142857143</ele><time>2026-04-26T16:30:28.741Z</time></trkpt><trkpt lat="45.7993014" lon="11.7564167"><ele>182.57142857142856</ele><time>2026-04-26T16:30:30.736Z</time></trkpt><trkpt lat="45.7992336" lon="11.7564281"><ele>181.85714285714286</ele><time>2026-04-26T16:30:32.759Z</time></trkpt><trkpt lat="45.7991679" lon="11.7564447"><ele>181.14285714285717</ele><time>2026-04-26T16:30:35.747Z</time></trkpt><trkpt lat="45.7990964" lon="11.7564748"><ele>180.42857142857144</ele><time>2026-04-26T16:30:39.754Z</time></trkpt><trkpt lat="45.7990316" lon="11.7565023"><ele>179.71428571428572</ele><time>2026-04-26T16:30:44.754Z</time></trkpt><trkpt lat="45.7989616" lon="11.7565268"><ele>179.0</ele><time>2026-04-26T16:30:48.757Z</time></trkpt><trkpt lat="45.7988763" lon="11.7565522"><ele>179.0</ele><time>2026-04-26T16:30:51.75Z</time></trkpt><trkpt lat="45.7988051" lon="11.7565741"><ele>179.0</ele><time>2026-04-26T16:30:53.75Z</time></trkpt><trkpt lat="45.7987175" lon="11.7565872"><ele>179.0</ele><time>2026-04-26T16:30:55.758Z</time></trkpt><trkpt lat="45.7986065" lon="11.7566026"><ele>179.0</ele><time>2026-04-26T16:30:57.755Z</time></trkpt><trkpt lat="45.7985427" lon="11.7566132"><ele>179.0</ele><time>2026-04-26T16:30:58.764Z</time></trkpt><trkpt lat="45.798471" lon="11.7566275"><ele>179.0</ele><time>2026-04-26T16:30:59.749Z</time></trkpt><trkpt lat="45.798392" lon="11.7566448"><ele>178.33333333333331</ele><time>2026-04-26T16:31:00.773Z</time></trkpt><trkpt lat="45.79831" lon="11.7566617"><ele>177.66666666666666</ele><time>2026-04-26T16:31:01.749Z</time></trkpt><trkpt lat="45.7982279" lon="11.7566806"><ele>177.0</ele><time>2026-04-26T16:31:02.769Z</time></trkpt><trkpt lat="45.7981467" lon="11.7567"><ele>176.33333333333334</ele><time>2026-04-26T16:31:03.755Z</time></trkpt><trkpt lat="45.7980667" lon="11.7567163"><ele>175.66666666666669</ele><time>2026-04-26T16:31:04.767Z</time></trkpt><trkpt lat="45.7979937" lon="11.7567339"><ele>175.0</ele><time>2026-04-26T16:31:05.753Z</time></trkpt><trkpt lat="45.7979291" lon="11.7567577"><ele>175.0</ele><time>2026-04-26T16:31:06.753Z</time></trkpt><trkpt lat="45.797868" lon="11.7567812"><ele>175.0</ele><time>2026-04-26T16:31:07.745Z</time></trkpt><trkpt lat="45.7977765" lon="11.7568268"><ele>175.0</ele><time>2026-04-26T16:31:09.755Z</time></trkpt><trkpt lat="45.7977132" lon="11.7568628"><ele>175.0</ele><time>2026-04-26T16:31:11.759Z</time></trkpt><trkpt lat="45.7976502" lon="11.756911"><ele>175.0</ele><time>2026-04-26T16:31:21.757Z</time></trkpt><trkpt lat="45.7975922" lon="11.7569624"><ele>175.0</ele><time>2026-04-26T16:31:31.756Z</time></trkpt><trkpt lat="45.7975279" lon="11.7570321"><ele>175.0</ele><time>2026-04-26T16:31:34.757Z</time></trkpt><trkpt lat="45.7974658" lon="11.7570948"><ele>174.66666666666669</ele><time>2026-04-26T16:31:38.748Z</time></trkpt><trkpt lat="45.7973856" lon="11.7571629"><ele>174.33333333333334</ele><time>2026-04-26T16:31:52.752Z</time></trkpt><trkpt lat="45.7973174" lon="11.7572241"><ele>174.0</ele><time>2026-04-26T16:31:57.75Z</time></trkpt><trkpt lat="45.797247" lon="11.7572675"><ele>173.66666666666666</ele><time>2026-04-26T16:32:00.782Z</time></trkpt><trkpt lat="45.7971661" lon="11.7573061"><ele>173.33333333333331</ele><time>2026-04-26T16:32:03.748Z</time></trkpt><trkpt lat="45.7970745" lon="11.7573583"><ele>173.0</ele><time>2026-04-26T16:32:06.742Z</time></trkpt><trkpt lat="45.7969956" lon="11.7574013"><ele>173.0</ele><time>2026-04-26T16:32:08.749Z</time></trkpt><trkpt lat="45.7969265" lon="11.7574224"><ele>173.0</ele><time>2026-04-26T16:32:10.75Z</time></trkpt><trkpt lat="45.796862" lon="11.7574381"><ele>173.0</ele><time>2026-04-26T16:32:12.75Z</time></trkpt><trkpt lat="45.7967829" lon="11.757489"><ele>173.0</ele><time>2026-04-26T16:32:15.74Z</time></trkpt><trkpt lat="45.7967132" lon="11.7575674"><ele>173.0</ele><time>2026-04-26T16:32:18.757Z</time></trkpt><trkpt lat="45.7966463" lon="11.7576455"><ele>173.0</ele><time>2026-04-26T16:32:21.752Z</time></trkpt><trkpt lat="45.7965876" lon="11.7577091"><ele>172.42857142857142</ele><time>2026-04-26T16:32:23.753Z</time></trkpt><trkpt lat="45.7965268" lon="11.7577741"><ele>171.85714285714286</ele><time>2026-04-26T16:32:25.76Z</time></trkpt><trkpt lat="45.7964655" lon="11.7578337"><ele>171.28571428571428</ele><time>2026-04-26T16:32:27.736Z</time></trkpt><trkpt lat="45.7964128" lon="11.7578896"><ele>170.71428571428572</ele><time>2026-04-26T16:32:29.743Z</time></trkpt><trkpt lat="45.7963625" lon="11.7579566"><ele>170.14285714285714</ele><time>2026-04-26T16:32:31.749Z</time></trkpt><trkpt lat="45.7963174" lon="11.7580374"><ele>169.57142857142858</ele><time>2026-04-26T16:32:33.764Z</time></trkpt><trkpt lat="45.7962681" lon="11.7581357"><ele>169.0</ele><time>2026-04-26T16:32:38.743Z</time></trkpt><trkpt lat="45.7962267" lon="11.7582148"><ele>169.0</ele><time>2026-04-26T16:32:42.743Z</time></trkpt><trkpt lat="45.7961786" lon="11.7582871"><ele>169.0</ele><time>2026-04-26T16:32:46.749Z</time></trkpt><trkpt lat="45.796124" lon="11.7583599"><ele>169.0</ele><time>2026-04-26T16:32:48.756Z</time></trkpt><trkpt lat="45.7960638" lon="11.7584945"><ele>169.0</ele><time>2026-04-26T16:32:50.749Z</time></trkpt><trkpt lat="45.795996" lon="11.7586357"><ele>169.0</ele><time>2026-04-26T16:32:52.751Z</time></trkpt><trkpt lat="45.7959543" lon="11.7587204"><ele>169.0</ele><time>2026-04-26T16:32:53.754Z</time></trkpt><trkpt lat="45.7959134" lon="11.7588011"><ele>170.25</ele><time>2026-04-26T16:32:54.745Z</time></trkpt><trkpt lat="45.7958501" lon="11.7589231"><ele>171.5</ele><time>2026-04-26T16:32:56.748Z</time></trkpt><trkpt lat="45.7957899" lon="11.7590495"><ele>172.75</ele><time>2026-04-26T16:32:58.757Z</time></trkpt><trkpt lat="45.7957185" lon="11.759194"><ele>174.0</ele><time>2026-04-26T16:33:00.763Z</time></trkpt><trkpt lat="45.7956444" lon="11.7593302"><ele>175.33333333333334</ele><time>2026-04-26T16:33:02.755Z</time></trkpt><trkpt lat="45.7955968" lon="11.7594063"><ele>176.66666666666666</ele><time>2026-04-26T16:33:03.759Z</time></trkpt><trkpt lat="45.7955436" lon="11.7594808"><ele>178.0</ele><time>2026-04-26T16:33:04.753Z</time></trkpt><trkpt lat="45.7954782" lon="11.7595533"><ele>179.33333333333331</ele><time>2026-04-26T16:33:05.757Z</time></trkpt><trkpt lat="45.7954046" lon="11.7596168"><ele>180.66666666666666</ele><time>2026-04-26T16:33:06.759Z</time></trkpt><trkpt lat="45.7953259" lon="11.759666"><ele>182.0</ele><time>2026-04-26T16:33:07.763Z</time></trkpt><trkpt lat="45.7952389" lon="11.7597059"><ele>179.0</ele><time>2026-04-26T16:33:08.749Z</time></trkpt><trkpt lat="45.7951453" lon="11.7597395"><ele>176.0</ele><time>2026-04-26T16:33:09.75Z</time></trkpt><trkpt lat="45.7950527" lon="11.7597684"><ele>173.0</ele><time>2026-04-26T16:33:10.758Z</time></trkpt><trkpt lat="45.7949582" lon="11.7597976"><ele>170.0</ele><time>2026-04-26T16:33:11.758Z</time></trkpt><trkpt lat="45.7948641" lon="11.7598291"><ele>167.0</ele><time>2026-04-26T16:33:12.765Z</time></trkpt><trkpt lat="45.7947811" lon="11.7598557"><ele>167.0</ele><time>2026-04-26T16:33:13.756Z</time></trkpt><trkpt lat="45.7946999" lon="11.7598793"><ele>167.0</ele><time>2026-04-26T16:33:14.749Z</time></trkpt><trkpt lat="45.7946183" lon="11.7599049"><ele>167.0</ele><time>2026-04-26T16:33:15.733Z</time></trkpt><trkpt lat="45.7945374" lon="11.7599296"><ele>167.0</ele><time>2026-04-26T16:33:16.753Z</time></trkpt><trkpt lat="45.7944501" lon="11.7599541"><ele>167.0</ele><time>2026-04-26T16:33:17.765Z</time></trkpt><trkpt lat="45.7943584" lon="11.7599792"><ele>167.0</ele><time>2026-04-26T16:33:18.759Z</time></trkpt><trkpt lat="45.7942591" lon="11.7600076"><ele>166.2</ele><time>2026-04-26T16:33:19.752Z</time></trkpt><trkpt lat="45.7941548" lon="11.760041"><ele>165.39999999999998</ele><time>2026-04-26T16:33:20.753Z</time></trkpt><trkpt lat="45.7940516" lon="11.7600751"><ele>164.60000000000002</ele><time>2026-04-26T16:33:21.756Z</time></trkpt><trkpt lat="45.793954" lon="11.7601078"><ele>163.8</ele><time>2026-04-26T16:33:22.757Z</time></trkpt><trkpt lat="45.7938567" lon="11.7601437"><ele>163.0</ele><time>2026-04-26T16:33:23.769Z</time></trkpt><trkpt lat="45.7937589" lon="11.7601851"><ele>162.60000000000002</ele><time>2026-04-26T16:33:24.754Z</time></trkpt><trkpt lat="45.7936618" lon="11.7602357"><ele>162.20000000000002</ele><time>2026-04-26T16:33:25.753Z</time></trkpt><trkpt lat="45.7935648" lon="11.7602958"><ele>161.8</ele><time>2026-04-26T16:33:26.749Z</time></trkpt><trkpt lat="45.7934664" lon="11.7603683"><ele>161.4</ele><time>2026-04-26T16:33:27.754Z</time></trkpt><trkpt lat="45.7933675" lon="11.7604523"><ele>161.0</ele><time>2026-04-26T16:33:28.757Z</time></trkpt><trkpt lat="45.7932754" lon="11.7605383"><ele>161.0</ele><time>2026-04-26T16:33:29.752Z</time></trkpt><trkpt lat="45.7931851" lon="11.7606264"><ele>161.0</ele><time>2026-04-26T16:33:30.749Z</time></trkpt><trkpt lat="45.7930928" lon="11.7607176"><ele>161.0</ele><time>2026-04-26T16:33:31.754Z</time></trkpt><trkpt lat="45.7930054" lon="11.7608058"><ele>161.0</ele><time>2026-04-26T16:33:32.752Z</time></trkpt><trkpt lat="45.7929162" lon="11.7608959"><ele>161.0</ele><time>2026-04-26T16:33:33.745Z</time></trkpt><trkpt lat="45.7928328" lon="11.760982"><ele>161.0</ele><time>2026-04-26T16:33:34.747Z</time></trkpt><trkpt lat="45.7927532" lon="11.7610652"><ele>161.0</ele><time>2026-04-26T16:33:35.755Z</time></trkpt><trkpt lat="45.7926729" lon="11.7611492"><ele>161.0</ele><time>2026-04-26T16:33:36.742Z</time></trkpt><trkpt lat="45.7925932" lon="11.7612363"><ele>161.0</ele><time>2026-04-26T16:33:37.745Z</time></trkpt><trkpt lat="45.7925099" lon="11.7613318"><ele>161.0</ele><time>2026-04-26T16:33:38.767Z</time></trkpt><trkpt lat="45.7924242" lon="11.7614289"><ele>160.4</ele><time>2026-04-26T16:33:39.742Z</time></trkpt><trkpt lat="45.792336" lon="11.7615225"><ele>159.8</ele><time>2026-04-26T16:33:40.739Z</time></trkpt><trkpt lat="45.7922451" lon="11.7616105"><ele>159.20000000000002</ele><time>2026-04-26T16:33:41.767Z</time></trkpt><trkpt lat="45.7921589" lon="11.7616941"><ele>158.60000000000002</ele><time>2026-04-26T16:33:42.761Z</time></trkpt><trkpt lat="45.7920757" lon="11.7617749"><ele>158.0</ele><time>2026-04-26T16:33:43.755Z</time></trkpt><trkpt lat="45.7919974" lon="11.7618525"><ele>157.8</ele><time>2026-04-26T16:33:44.753Z</time></trkpt><trkpt lat="45.7919223" lon="11.7619275"><ele>157.60000000000002</ele><time>2026-04-26T16:33:45.76Z</time></trkpt><trkpt lat="45.7918431" lon="11.7620098"><ele>157.39999999999998</ele><time>2026-04-26T16:33:46.747Z</time></trkpt><trkpt lat="45.791755" lon="11.762104"><ele>157.2</ele><time>2026-04-26T16:33:47.762Z</time></trkpt><trkpt lat="45.7916575" lon="11.7622087"><ele>157.0</ele><time>2026-04-26T16:33:48.745Z</time></trkpt><trkpt lat="45.7915509" lon="11.7623227"><ele>156.75</ele><time>2026-04-26T16:33:49.741Z</time></trkpt><trkpt lat="45.7914371" lon="11.7624361"><ele>156.5</ele><time>2026-04-26T16:33:50.755Z</time></trkpt><trkpt lat="45.7913138" lon="11.7625462"><ele>156.25</ele><time>2026-04-26T16:33:51.741Z</time></trkpt><trkpt lat="45.7911797" lon="11.7626509"><ele>156.0</ele><time>2026-04-26T16:33:52.744Z</time></trkpt><trkpt lat="45.7910375" lon="11.7627481"><ele>155.66666666666666</ele><time>2026-04-26T16:33:53.739Z</time></trkpt><trkpt lat="45.79089" lon="11.7628396"><ele>155.33333333333331</ele><time>2026-04-26T16:33:54.757Z</time></trkpt><trkpt lat="45.7907437" lon="11.7629258"><ele>155.0</ele><time>2026-04-26T16:33:55.762Z</time></trkpt><trkpt lat="45.790601" lon="11.7630098"><ele>155.0</ele><time>2026-04-26T16:33:56.758Z</time></trkpt><trkpt lat="45.7904596" lon="11.763092"><ele>155.0</ele><time>2026-04-26T16:33:57.743Z</time></trkpt><trkpt lat="45.7903184" lon="11.763174"><ele>155.0</ele><time>2026-04-26T16:33:58.75Z</time></trkpt><trkpt lat="45.7901791" lon="11.7632573"><ele>154.0</ele><time>2026-04-26T16:33:59.746Z</time></trkpt><trkpt lat="45.7900382" lon="11.7633355"><ele>153.0</ele><time>2026-04-26T16:34:00.742Z</time></trkpt><trkpt lat="45.7898996" lon="11.7634189"><ele>152.0</ele><time>2026-04-26T16:34:01.749Z</time></trkpt><trkpt lat="45.789761" lon="11.7635019"><ele>152.0</ele><time>2026-04-26T16:34:02.741Z</time></trkpt><trkpt lat="45.7896242" lon="11.7635849"><ele>152.0</ele><time>2026-04-26T16:34:03.741Z</time></trkpt><trkpt lat="45.7894912" lon="11.7636653"><ele>152.0</ele><time>2026-04-26T16:34:04.754Z</time></trkpt><trkpt lat="45.7893649" lon="11.763741"><ele>152.0</ele><time>2026-04-26T16:34:05.754Z</time></trkpt><trkpt lat="45.7892408" lon="11.7638139"><ele>152.0</ele><time>2026-04-26T16:34:06.755Z</time></trkpt><trkpt lat="45.7891223" lon="11.7638838"><ele>152.0</ele><time>2026-04-26T16:34:07.749Z</time></trkpt><trkpt lat="45.7890017" lon="11.7639555"><ele>152.0</ele><time>2026-04-26T16:34:08.753Z</time></trkpt><trkpt lat="45.7888834" lon="11.7640237"><ele>152.0</ele><time>2026-04-26T16:34:09.741Z</time></trkpt><trkpt lat="45.788769" lon="11.7640876"><ele>152.0</ele><time>2026-04-26T16:34:10.749Z</time></trkpt><trkpt lat="45.7886568" lon="11.7641494"><ele>152.0</ele><time>2026-04-26T16:34:11.749Z</time></trkpt><trkpt lat="45.7885436" lon="11.7642092"><ele>152.0</ele><time>2026-04-26T16:34:12.75Z</time></trkpt><trkpt lat="45.7884303" lon="11.7642622"><ele>152.0</ele><time>2026-04-26T16:34:13.736Z</time></trkpt><trkpt lat="45.7883178" lon="11.7643067"><ele>152.0</ele><time>2026-04-26T16:34:14.749Z</time></trkpt><trkpt lat="45.788203" lon="11.764348"><ele>152.0</ele><time>2026-04-26T16:34:15.747Z</time></trkpt><trkpt lat="45.7880856" lon="11.7643881"><ele>152.0</ele><time>2026-04-26T16:34:16.754Z</time></trkpt><trkpt lat="45.7879709" lon="11.764427"><ele>152.0</ele><time>2026-04-26T16:34:17.754Z</time></trkpt><trkpt lat="45.7878566" lon="11.7644639"><ele>152.0</ele><time>2026-04-26T16:34:18.728Z</time></trkpt><trkpt lat="45.7877457" lon="11.764499"><ele>152.0</ele><time>2026-04-26T16:34:19.748Z</time></trkpt><trkpt lat="45.7876371" lon="11.7645321"><ele>152.0</ele><time>2026-04-26T16:34:20.743Z</time></trkpt><trkpt lat="45.7875396" lon="11.764564"><ele>152.0</ele><time>2026-04-26T16:34:21.753Z</time></trkpt><trkpt lat="45.7874515" lon="11.7645875"><ele>152.0</ele><time>2026-04-26T16:34:22.735Z</time></trkpt><trkpt lat="45.7873676" lon="11.764597"><ele>152.16666666666666</ele><time>2026-04-26T16:34:23.732Z</time></trkpt><trkpt lat="45.787289" lon="11.764594"><ele>152.33333333333331</ele><time>2026-04-26T16:34:24.75Z</time></trkpt><trkpt lat="45.7872117" lon="11.7645777"><ele>152.5</ele><time>2026-04-26T16:34:25.742Z</time></trkpt><trkpt lat="45.7871323" lon="11.7645393"><ele>152.66666666666666</ele><time>2026-04-26T16:34:26.747Z</time></trkpt><trkpt lat="45.7870524" lon="11.7644742"><ele>152.83333333333334</ele><time>2026-04-26T16:34:27.748Z</time></trkpt><trkpt lat="45.7869735" lon="11.7643938"><ele>153.0</ele><time>2026-04-26T16:34:28.737Z</time></trkpt><trkpt lat="45.7869028" lon="11.7642954"><ele>152.4</ele><time>2026-04-26T16:34:29.781Z</time></trkpt><trkpt lat="45.786845" lon="11.7641742"><ele>151.8</ele><time>2026-04-26T16:34:30.73Z</time></trkpt><trkpt lat="45.7868008" lon="11.7640375"><ele>151.2</ele><time>2026-04-26T16:34:31.754Z</time></trkpt><trkpt lat="45.7867614" lon="11.7638862"><ele>150.6</ele><time>2026-04-26T16:34:32.755Z</time></trkpt><trkpt lat="45.7867223" lon="11.7637234"><ele>150.0</ele><time>2026-04-26T16:34:33.753Z</time></trkpt><trkpt lat="45.7866807" lon="11.7635415"><ele>149.25</ele><time>2026-04-26T16:34:34.753Z</time></trkpt><trkpt lat="45.7866381" lon="11.7633506"><ele>148.5</ele><time>2026-04-26T16:34:35.754Z</time></trkpt><trkpt lat="45.7865965" lon="11.7631604"><ele>147.75</ele><time>2026-04-26T16:34:36.741Z</time></trkpt><trkpt lat="45.7865587" lon="11.7629826"><ele>147.0</ele><time>2026-04-26T16:34:37.746Z</time></trkpt><trkpt lat="45.78652" lon="11.762805"><ele>147.75</ele><time>2026-04-26T16:34:38.752Z</time></trkpt><trkpt lat="45.7864779" lon="11.7626226"><ele>148.5</ele><time>2026-04-26T16:34:39.74Z</time></trkpt><trkpt lat="45.7864336" lon="11.7624323"><ele>149.25</ele><time>2026-04-26T16:34:40.752Z</time></trkpt><trkpt lat="45.786388" lon="11.7622363"><ele>150.0</ele><time>2026-04-26T16:34:41.75Z</time></trkpt><trkpt lat="45.7863399" lon="11.7620415"><ele>149.75</ele><time>2026-04-26T16:34:42.749Z</time></trkpt><trkpt lat="45.7862878" lon="11.7618478"><ele>149.5</ele><time>2026-04-26T16:34:43.741Z</time></trkpt><trkpt lat="45.7862272" lon="11.7616697"><ele>149.25</ele><time>2026-04-26T16:34:44.746Z</time></trkpt><trkpt lat="45.7861621" lon="11.7614784"><ele>149.0</ele><time>2026-04-26T16:34:45.754Z</time></trkpt><trkpt lat="45.7861044" lon="11.7612941"><ele>149.0</ele><time>2026-04-26T16:34:46.756Z</time></trkpt><trkpt lat="45.7860587" lon="11.7611032"><ele>149.0</ele><time>2026-04-26T16:34:47.747Z</time></trkpt><trkpt lat="45.7860149" lon="11.7609067"><ele>149.0</ele><time>2026-04-26T16:34:48.746Z</time></trkpt><trkpt lat="45.7859726" lon="11.7607072"><ele>149.0</ele><time>2026-04-26T16:34:49.746Z</time></trkpt><trkpt lat="45.785934" lon="11.7605059"><ele>148.5</ele><time>2026-04-26T16:34:50.755Z</time></trkpt><trkpt lat="45.7858939" lon="11.7603056"><ele>148.0</ele><time>2026-04-26T16:34:51.738Z</time></trkpt><trkpt lat="45.7858528" lon="11.7601093"><ele>147.5</ele><time>2026-04-26T16:34:52.75Z</time></trkpt><trkpt lat="45.785815" lon="11.7599239"><ele>147.0</ele><time>2026-04-26T16:34:53.752Z</time></trkpt><trkpt lat="45.7857802" lon="11.759748"><ele>147.0</ele><time>2026-04-26T16:34:54.758Z</time></trkpt><trkpt lat="45.7857475" lon="11.7595847"><ele>147.0</ele><time>2026-04-26T16:34:55.749Z</time></trkpt><trkpt lat="45.7857156" lon="11.7594372"><ele>147.0</ele><time>2026-04-26T16:34:56.752Z</time></trkpt><trkpt lat="45.7856847" lon="11.7592994"><ele>147.0</ele><time>2026-04-26T16:34:57.755Z</time></trkpt><trkpt lat="45.7856532" lon="11.7591754"><ele>147.0</ele><time>2026-04-26T16:34:58.76Z</time></trkpt><trkpt lat="45.7856218" lon="11.7590669"><ele>147.2</ele><time>2026-04-26T16:34:59.749Z</time></trkpt><trkpt lat="45.7855899" lon="11.7589737"><ele>147.39999999999998</ele><time>2026-04-26T16:35:00.74Z</time></trkpt><trkpt lat="45.7855593" lon="11.7588928"><ele>147.60000000000002</ele><time>2026-04-26T16:35:01.754Z</time></trkpt><trkpt lat="45.7855063" lon="11.7587488"><ele>147.8</ele><time>2026-04-26T16:35:03.753Z</time></trkpt><trkpt lat="45.7854688" lon="11.7585744"><ele>148.0</ele><time>2026-04-26T16:35:05.751Z</time></trkpt><trkpt lat="45.7854538" lon="11.7584729"><ele>148.0</ele><time>2026-04-26T16:35:06.742Z</time></trkpt><trkpt lat="45.7854356" lon="11.7583852"><ele>148.0</ele><time>2026-04-26T16:35:07.769Z</time></trkpt><trkpt lat="45.7853691" lon="11.7582464"><ele>148.0</ele><time>2026-04-26T16:35:09.749Z</time></trkpt><trkpt lat="45.7852446" lon="11.7582101"><ele>148.0</ele><time>2026-04-26T16:35:11.753Z</time></trkpt><trkpt lat="45.7851571" lon="11.758228"><ele>148.0</ele><time>2026-04-26T16:35:12.761Z</time></trkpt><trkpt lat="45.7850661" lon="11.7582236"><ele>147.0</ele><time>2026-04-26T16:35:13.744Z</time></trkpt><trkpt lat="45.7849715" lon="11.7581778"><ele>146.0</ele><time>2026-04-26T16:35:14.759Z</time></trkpt><trkpt lat="45.784865" lon="11.7580872"><ele>145.0</ele><time>2026-04-26T16:35:15.75Z</time></trkpt><trkpt lat="45.7847439" lon="11.7579589"><ele>144.0</ele><time>2026-04-26T16:35:16.742Z</time></trkpt><trkpt lat="45.7846326" lon="11.7578307"><ele>144.0</ele><time>2026-04-26T16:35:17.756Z</time></trkpt><trkpt lat="45.7845322" lon="11.7577043"><ele>144.0</ele><time>2026-04-26T16:35:18.754Z</time></trkpt><trkpt lat="45.784434" lon="11.757579"><ele>144.0</ele><time>2026-04-26T16:35:19.758Z</time></trkpt><trkpt lat="45.7843375" lon="11.7574514"><ele>144.0</ele><time>2026-04-26T16:35:20.755Z</time></trkpt><trkpt lat="45.7842454" lon="11.7573207"><ele>144.0</ele><time>2026-04-26T16:35:21.753Z</time></trkpt><trkpt lat="45.7841492" lon="11.7571871"><ele>144.0</ele><time>2026-04-26T16:35:22.744Z</time></trkpt><trkpt lat="45.7840591" lon="11.7570481"><ele>144.0</ele><time>2026-04-26T16:35:23.76Z</time></trkpt><trkpt lat="45.7839758" lon="11.7569156"><ele>144.0</ele><time>2026-04-26T16:35:24.746Z</time></trkpt><trkpt lat="45.7838897" lon="11.7567927"><ele>143.6</ele><time>2026-04-26T16:35:25.751Z</time></trkpt><trkpt lat="45.7838173" lon="11.7566663"><ele>143.2</ele><time>2026-04-26T16:35:26.764Z</time></trkpt><trkpt lat="45.7837567" lon="11.7565395"><ele>142.79999999999998</ele><time>2026-04-26T16:35:27.742Z</time></trkpt><trkpt lat="45.7837032" lon="11.7564231"><ele>142.4</ele><time>2026-04-26T16:35:28.748Z</time></trkpt><trkpt lat="45.7836775" lon="11.7562812"><ele>142.0</ele><time>2026-04-26T16:35:29.746Z</time></trkpt><trkpt lat="45.7836761" lon="11.7561389"><ele>142.0</ele><time>2026-04-26T16:35:30.737Z</time></trkpt><trkpt lat="45.7837054" lon="11.7560074"><ele>142.0</ele><time>2026-04-26T16:35:31.757Z</time></trkpt><trkpt lat="45.7837519" lon="11.7558916"><ele>142.0</ele><time>2026-04-26T16:35:32.752Z</time></trkpt><trkpt lat="45.7838137" lon="11.7557972"><ele>142.0</ele><time>2026-04-26T16:35:33.758Z</time></trkpt><trkpt lat="45.7838913" lon="11.7557318"><ele>142.0</ele><time>2026-04-26T16:35:34.759Z</time></trkpt><trkpt lat="45.7839769" lon="11.7556885"><ele>142.0</ele><time>2026-04-26T16:35:35.765Z</time></trkpt><trkpt lat="45.7840619" lon="11.7556743"><ele>142.0</ele><time>2026-04-26T16:35:36.751Z</time></trkpt><trkpt lat="45.7841467" lon="11.7556863"><ele>142.0</ele><time>2026-04-26T16:35:37.743Z</time></trkpt><trkpt lat="45.7842287" lon="11.7557234"><ele>142.0</ele><time>2026-04-26T16:35:38.749Z</time></trkpt><trkpt lat="45.7843036" lon="11.7557949"><ele>142.0</ele><time>2026-04-26T16:35:39.761Z</time></trkpt><trkpt lat="45.7843645" lon="11.7558954"><ele>142.0</ele><time>2026-04-26T16:35:40.742Z</time></trkpt><trkpt lat="45.7844245" lon="11.7560079"><ele>142.0</ele><time>2026-04-26T16:35:41.756Z</time></trkpt><trkpt lat="45.784444" lon="11.7561449"><ele>142.0</ele><time>2026-04-26T16:35:42.746Z</time></trkpt><trkpt lat="45.7844347" lon="11.7562979"><ele>142.0</ele><time>2026-04-26T16:35:43.754Z</time></trkpt><trkpt lat="45.784392" lon="11.7564481"><ele>142.0</ele><time>2026-04-26T16:35:44.753Z</time></trkpt><trkpt lat="45.7843258" lon="11.7565962"><ele>142.0</ele><time>2026-04-26T16:35:45.757Z</time></trkpt><trkpt lat="45.7842409" lon="11.7567472"><ele>142.66666666666669</ele><time>2026-04-26T16:35:46.752Z</time></trkpt><trkpt lat="45.7841438" lon="11.7569069"><ele>143.33333333333334</ele><time>2026-04-26T16:35:47.744Z</time></trkpt><trkpt lat="45.7840345" lon="11.7570813"><ele>144.0</ele><time>2026-04-26T16:35:48.733Z</time></trkpt><trkpt lat="45.7839276" lon="11.7572424"><ele>144.0</ele><time>2026-04-26T16:35:49.741Z</time></trkpt><trkpt lat="45.7838191" lon="11.7573884"><ele>144.0</ele><time>2026-04-26T16:35:50.746Z</time></trkpt><trkpt lat="45.7837029" lon="11.7575302"><ele>144.0</ele><time>2026-04-26T16:35:51.735Z</time></trkpt><trkpt lat="45.7835789" lon="11.7576693"><ele>142.66666666666666</ele><time>2026-04-26T16:35:52.766Z</time></trkpt><trkpt lat="45.7834536" lon="11.7578077"><ele>141.33333333333331</ele><time>2026-04-26T16:35:53.759Z</time></trkpt><trkpt lat="45.7833239" lon="11.7579507"><ele>140.0</ele><time>2026-04-26T16:35:54.746Z</time></trkpt><trkpt lat="45.7831885" lon="11.7580932"><ele>140.0</ele><time>2026-04-26T16:35:55.769Z</time></trkpt><trkpt lat="45.7830461" lon="11.7582324"><ele>140.0</ele><time>2026-04-26T16:35:56.751Z</time></trkpt><trkpt lat="45.7828978" lon="11.7583667"><ele>140.0</ele><time>2026-04-26T16:35:57.745Z</time></trkpt><trkpt lat="45.7827454" lon="11.7584981"><ele>139.33333333333331</ele><time>2026-04-26T16:35:58.74Z</time></trkpt><trkpt lat="45.7825862" lon="11.7586319"><ele>138.66666666666666</ele><time>2026-04-26T16:35:59.744Z</time></trkpt><trkpt lat="45.7824224" lon="11.7587647"><ele>138.0</ele><time>2026-04-26T16:36:00.75Z</time></trkpt><trkpt lat="45.7822549" lon="11.758891"><ele>138.0</ele><time>2026-04-26T16:36:01.749Z</time></trkpt><trkpt lat="45.7820829" lon="11.759012"><ele>138.0</ele><time>2026-04-26T16:36:02.751Z</time></trkpt><trkpt lat="45.7819081" lon="11.7591275"><ele>138.0</ele><time>2026-04-26T16:36:03.738Z</time></trkpt><trkpt lat="45.7817336" lon="11.7592352"><ele>138.0</ele><time>2026-04-26T16:36:04.755Z</time></trkpt><trkpt lat="45.7815594" lon="11.7593372"><ele>138.0</ele><time>2026-04-26T16:36:05.761Z</time></trkpt><trkpt lat="45.7813822" lon="11.7594335"><ele>138.0</ele><time>2026-04-26T16:36:06.764Z</time></trkpt><trkpt lat="45.7812023" lon="11.7595255"><ele>137.66666666666666</ele><time>2026-04-26T16:36:07.753Z</time></trkpt><trkpt lat="45.7810162" lon="11.7596211"><ele>137.33333333333331</ele><time>2026-04-26T16:36:08.736Z</time></trkpt><trkpt lat="45.7808254" lon="11.7597173"><ele>137.0</ele><time>2026-04-26T16:36:09.755Z</time></trkpt><trkpt lat="45.7806313" lon="11.7598165"><ele>136.66666666666666</ele><time>2026-04-26T16:36:10.749Z</time></trkpt><trkpt lat="45.780434" lon="11.7599198"><ele>136.33333333333334</ele><time>2026-04-26T16:36:11.743Z</time></trkpt><trkpt lat="45.7802345" lon="11.7600233"><ele>136.0</ele><time>2026-04-26T16:36:12.748Z</time></trkpt><trkpt lat="45.7800337" lon="11.7601266"><ele>135.0</ele><time>2026-04-26T16:36:13.75Z</time></trkpt><trkpt lat="45.7798336" lon="11.7602301"><ele>134.0</ele><time>2026-04-26T16:36:14.764Z</time></trkpt><trkpt lat="45.779635" lon="11.7603318"><ele>133.0</ele><time>2026-04-26T16:36:15.748Z</time></trkpt><trkpt lat="45.779441" lon="11.7604316"><ele>132.66666666666669</ele><time>2026-04-26T16:36:16.76Z</time></trkpt><trkpt lat="45.7792499" lon="11.760532"><ele>132.33333333333334</ele><time>2026-04-26T16:36:17.753Z</time></trkpt><trkpt lat="45.7790599" lon="11.7606305"><ele>132.0</ele><time>2026-04-26T16:36:18.753Z</time></trkpt><trkpt lat="45.7788709" lon="11.7607269"><ele>132.0</ele><time>2026-04-26T16:36:19.752Z</time></trkpt><trkpt lat="45.7786843" lon="11.7608243"><ele>132.0</ele><time>2026-04-26T16:36:20.752Z</time></trkpt><trkpt lat="45.7784975" lon="11.7609222"><ele>132.0</ele><time>2026-04-26T16:36:21.767Z</time></trkpt><trkpt lat="45.7783092" lon="11.7610188"><ele>132.0</ele><time>2026-04-26T16:36:22.753Z</time></trkpt><trkpt lat="45.7781195" lon="11.7611182"><ele>132.0</ele><time>2026-04-26T16:36:23.752Z</time></trkpt><trkpt lat="45.7779279" lon="11.7612197"><ele>132.0</ele><time>2026-04-26T16:36:24.747Z</time></trkpt><trkpt lat="45.7777362" lon="11.7613189"><ele>132.0</ele><time>2026-04-26T16:36:25.758Z</time></trkpt><trkpt lat="45.7775403" lon="11.7614194"><ele>132.0</ele><time>2026-04-26T16:36:26.74Z</time></trkpt><trkpt lat="45.7773411" lon="11.761522"><ele>132.0</ele><time>2026-04-26T16:36:27.737Z</time></trkpt><trkpt lat="45.777131" lon="11.7616328"><ele>132.0</ele><time>2026-04-26T16:36:28.736Z</time></trkpt><trkpt lat="45.7769127" lon="11.7617492"><ele>132.0</ele><time>2026-04-26T16:36:29.745Z</time></trkpt><trkpt lat="45.7767011" lon="11.7618604"><ele>131.33333333333334</ele><time>2026-04-26T16:36:30.748Z</time></trkpt><trkpt lat="45.7764942" lon="11.7619681"><ele>130.66666666666669</ele><time>2026-04-26T16:36:31.764Z</time></trkpt><trkpt lat="45.7762894" lon="11.7620746"><ele>130.0</ele><time>2026-04-26T16:36:32.744Z</time></trkpt><trkpt lat="45.7760868" lon="11.7621811"><ele>129.33333333333334</ele><time>2026-04-26T16:36:33.753Z</time></trkpt><trkpt lat="45.7758883" lon="11.7622869"><ele>128.66666666666666</ele><time>2026-04-26T16:36:34.736Z</time></trkpt><trkpt lat="45.7756916" lon="11.7623955"><ele>128.0</ele><time>2026-04-26T16:36:35.748Z</time></trkpt><trkpt lat="45.7754938" lon="11.7625054"><ele>128.0</ele><time>2026-04-26T16:36:36.751Z</time></trkpt><trkpt lat="45.7752944" lon="11.7626145"><ele>128.0</ele><time>2026-04-26T16:36:37.749Z</time></trkpt><trkpt lat="45.7750942" lon="11.7627232"><ele>128.0</ele><time>2026-04-26T16:36:38.744Z</time></trkpt><trkpt lat="45.7748937" lon="11.7628309"><ele>127.66666666666666</ele><time>2026-04-26T16:36:39.748Z</time></trkpt><trkpt lat="45.774693" lon="11.7629385"><ele>127.33333333333334</ele><time>2026-04-26T16:36:40.751Z</time></trkpt><trkpt lat="45.774492" lon="11.7630466"><ele>127.0</ele><time>2026-04-26T16:36:41.75Z</time></trkpt><trkpt lat="45.7742897" lon="11.7631573"><ele>127.0</ele><time>2026-04-26T16:36:42.756Z</time></trkpt><trkpt lat="45.7740878" lon="11.763268"><ele>127.0</ele><time>2026-04-26T16:36:43.728Z</time></trkpt><trkpt lat="45.7738851" lon="11.7633779"><ele>127.0</ele><time>2026-04-26T16:36:44.731Z</time></trkpt><trkpt lat="45.7736819" lon="11.7634879"><ele>127.66666666666667</ele><time>2026-04-26T16:36:45.726Z</time></trkpt><trkpt lat="45.7734791" lon="11.7635991"><ele>128.33333333333334</ele><time>2026-04-26T16:36:46.733Z</time></trkpt><trkpt lat="45.7732769" lon="11.7637077"><ele>129.0</ele><time>2026-04-26T16:36:47.75Z</time></trkpt><trkpt lat="45.7730758" lon="11.7638134"><ele>129.0</ele><time>2026-04-26T16:36:48.752Z</time></trkpt><trkpt lat="45.7728766" lon="11.7639231"><ele>129.0</ele><time>2026-04-26T16:36:49.737Z</time></trkpt><trkpt lat="45.77268" lon="11.7640323"><ele>129.0</ele><time>2026-04-26T16:36:50.729Z</time></trkpt><trkpt lat="45.7724857" lon="11.764141"><ele>129.0</ele><time>2026-04-26T16:36:51.729Z</time></trkpt><trkpt lat="45.7722941" lon="11.7642476"><ele>129.0</ele><time>2026-04-26T16:36:52.736Z</time></trkpt><trkpt lat="45.7721021" lon="11.7643517"><ele>129.0</ele><time>2026-04-26T16:36:53.729Z</time></trkpt><trkpt lat="45.771909" lon="11.7644562"><ele>128.33333333333334</ele><time>2026-04-26T16:36:54.74Z</time></trkpt><trkpt lat="45.7717131" lon="11.7645618"><ele>127.66666666666667</ele><time>2026-04-26T16:36:55.751Z</time></trkpt><trkpt lat="45.7715164" lon="11.7646648"><ele>127.0</ele><time>2026-04-26T16:36:56.731Z</time></trkpt><trkpt lat="45.771312" lon="11.7647706"><ele>127.0</ele><time>2026-04-26T16:36:57.736Z</time></trkpt><trkpt lat="45.7711065" lon="11.7648805"><ele>127.0</ele><time>2026-04-26T16:36:58.734Z</time></trkpt><trkpt lat="45.7708994" lon="11.7649914"><ele>127.0</ele><time>2026-04-26T16:36:59.731Z</time></trkpt><trkpt lat="45.7706897" lon="11.7651084"><ele>126.66666666666667</ele><time>2026-04-26T16:37:00.732Z</time></trkpt><trkpt lat="45.7704806" lon="11.7652225"><ele>126.33333333333334</ele><time>2026-04-26T16:37:01.745Z</time></trkpt><trkpt lat="45.7702712" lon="11.7653346"><ele>126.0</ele><time>2026-04-26T16:37:02.732Z</time></trkpt><trkpt lat="45.7700658" lon="11.7654461"><ele>126.0</ele><time>2026-04-26T16:37:03.732Z</time></trkpt><trkpt lat="45.7698624" lon="11.7655554"><ele>126.0</ele><time>2026-04-26T16:37:04.736Z</time></trkpt><trkpt lat="45.7696623" lon="11.7656641"><ele>126.0</ele><time>2026-04-26T16:37:05.732Z</time></trkpt><trkpt lat="45.7694644" lon="11.7657708"><ele>125.33333333333334</ele><time>2026-04-26T16:37:06.741Z</time></trkpt><trkpt lat="45.7692619" lon="11.7658849"><ele>124.66666666666667</ele><time>2026-04-26T16:37:07.741Z</time></trkpt><trkpt lat="45.7690591" lon="11.7659949"><ele>124.0</ele><time>2026-04-26T16:37:08.747Z</time></trkpt><trkpt lat="45.768855" lon="11.7661047"><ele>124.0</ele><time>2026-04-26T16:37:09.735Z</time></trkpt><trkpt lat="45.7686477" lon="11.7662175"><ele>124.0</ele><time>2026-04-26T16:37:10.74Z</time></trkpt><trkpt lat="45.7684398" lon="11.7663283"><ele>124.0</ele><time>2026-04-26T16:37:11.736Z</time></trkpt><trkpt lat="45.7682312" lon="11.7664399"><ele>123.0</ele><time>2026-04-26T16:37:12.733Z</time></trkpt><trkpt lat="45.7680215" lon="11.7665513"><ele>122.0</ele><time>2026-04-26T16:37:13.733Z</time></trkpt><trkpt lat="45.7678084" lon="11.7666655"><ele>122.5</ele><time>2026-04-26T16:37:14.743Z</time></trkpt><trkpt lat="45.7675932" lon="11.766784"><ele>123.0</ele><time>2026-04-26T16:37:15.736Z</time></trkpt><trkpt lat="45.7673728" lon="11.7669055"><ele>121.5</ele><time>2026-04-26T16:37:16.734Z</time></trkpt><trkpt lat="45.7671416" lon="11.7670295"><ele>120.0</ele><time>2026-04-26T16:37:17.753Z</time></trkpt><trkpt lat="45.7669053" lon="11.7671567"><ele>120.5</ele><time>2026-04-26T16:37:18.743Z</time></trkpt><trkpt lat="45.7666705" lon="11.7672821"><ele>121.0</ele><time>2026-04-26T16:37:19.747Z</time></trkpt><trkpt lat="45.7664407" lon="11.7674042"><ele>121.0</ele><time>2026-04-26T16:37:20.736Z</time></trkpt><trkpt lat="45.7662243" lon="11.7675202"><ele>121.0</ele><time>2026-04-26T16:37:21.733Z</time></trkpt><trkpt lat="45.7660198" lon="11.7676321"><ele>120.33333333333334</ele><time>2026-04-26T16:37:22.734Z</time></trkpt><trkpt lat="45.7658218" lon="11.7677436"><ele>119.66666666666666</ele><time>2026-04-26T16:37:23.737Z</time></trkpt><trkpt lat="45.765626" lon="11.767856"><ele>119.0</ele><time>2026-04-26T16:37:24.739Z</time></trkpt><trkpt lat="45.7654337" lon="11.7679736"><ele>119.0</ele><time>2026-04-26T16:37:25.742Z</time></trkpt><trkpt lat="45.7652428" lon="11.7680967"><ele>119.0</ele><time>2026-04-26T16:37:26.739Z</time></trkpt><trkpt lat="45.7650537" lon="11.7682246"><ele>119.0</ele><time>2026-04-26T16:37:27.743Z</time></trkpt><trkpt lat="45.7648661" lon="11.7683533"><ele>119.0</ele><time>2026-04-26T16:37:28.735Z</time></trkpt><trkpt lat="45.7646819" lon="11.768484"><ele>119.0</ele><time>2026-04-26T16:37:29.738Z</time></trkpt><trkpt lat="45.7645006" lon="11.7686185"><ele>119.0</ele><time>2026-04-26T16:37:30.738Z</time></trkpt><trkpt lat="45.7643214" lon="11.7687526"><ele>119.0</ele><time>2026-04-26T16:37:31.744Z</time></trkpt><trkpt lat="45.7641431" lon="11.7688866"><ele>119.0</ele><time>2026-04-26T16:37:32.739Z</time></trkpt><trkpt lat="45.7639657" lon="11.7690241"><ele>119.0</ele><time>2026-04-26T16:37:33.759Z</time></trkpt><trkpt lat="45.7637885" lon="11.7691666"><ele>119.0</ele><time>2026-04-26T16:37:34.736Z</time></trkpt><trkpt lat="45.7636106" lon="11.7693113"><ele>119.0</ele><time>2026-04-26T16:37:35.736Z</time></trkpt><trkpt lat="45.7634314" lon="11.7694575"><ele>119.0</ele><time>2026-04-26T16:37:36.75Z</time></trkpt><trkpt lat="45.7632544" lon="11.7696016"><ele>118.0</ele><time>2026-04-26T16:37:37.749Z</time></trkpt><trkpt lat="45.7630801" lon="11.7697452"><ele>117.0</ele><time>2026-04-26T16:37:38.722Z</time></trkpt><trkpt lat="45.7629077" lon="11.7698882"><ele>116.0</ele><time>2026-04-26T16:37:39.739Z</time></trkpt><trkpt lat="45.7627347" lon="11.77003"><ele>115.33333333333333</ele><time>2026-04-26T16:37:40.745Z</time></trkpt><trkpt lat="45.762562" lon="11.7701715"><ele>114.66666666666666</ele><time>2026-04-26T16:37:41.735Z</time></trkpt><trkpt lat="45.7623877" lon="11.7703144"><ele>114.0</ele><time>2026-04-26T16:37:42.734Z</time></trkpt><trkpt lat="45.7622077" lon="11.7704631"><ele>114.0</ele><time>2026-04-26T16:37:43.736Z</time></trkpt><trkpt lat="45.7620238" lon="11.7706167"><ele>114.0</ele><time>2026-04-26T16:37:44.733Z</time></trkpt><trkpt lat="45.7618382" lon="11.7707689"><ele>114.0</ele><time>2026-04-26T16:37:45.728Z</time></trkpt><trkpt lat="45.7616513" lon="11.7709201"><ele>114.33333333333334</ele><time>2026-04-26T16:37:46.756Z</time></trkpt><trkpt lat="45.7614645" lon="11.7710719"><ele>114.66666666666667</ele><time>2026-04-26T16:37:47.735Z</time></trkpt><trkpt lat="45.7612787" lon="11.7712237"><ele>115.0</ele><time>2026-04-26T16:37:48.755Z</time></trkpt><trkpt lat="45.7610929" lon="11.7713768"><ele>115.0</ele><time>2026-04-26T16:37:49.742Z</time></trkpt><trkpt lat="45.7609048" lon="11.7715311"><ele>115.0</ele><time>2026-04-26T16:37:50.746Z</time></trkpt><trkpt lat="45.7607139" lon="11.7716849"><ele>115.0</ele><time>2026-04-26T16:37:51.755Z</time></trkpt><trkpt lat="45.7605207" lon="11.7718385"><ele>114.66666666666667</ele><time>2026-04-26T16:37:52.751Z</time></trkpt><trkpt lat="45.7603245" lon="11.7719914"><ele>114.33333333333334</ele><time>2026-04-26T16:37:53.742Z</time></trkpt><trkpt lat="45.7601261" lon="11.7721421"><ele>114.0</ele><time>2026-04-26T16:37:54.769Z</time></trkpt><trkpt lat="45.7599286" lon="11.7722917"><ele>114.0</ele><time>2026-04-26T16:37:55.747Z</time></trkpt><trkpt lat="45.7597325" lon="11.7724409"><ele>114.0</ele><time>2026-04-26T16:37:56.745Z</time></trkpt><trkpt lat="45.7595363" lon="11.772588"><ele>114.0</ele><time>2026-04-26T16:37:57.746Z</time></trkpt><trkpt lat="45.7593373" lon="11.7727304"><ele>112.0</ele><time>2026-04-26T16:37:58.749Z</time></trkpt><trkpt lat="45.7591355" lon="11.7728702"><ele>110.0</ele><time>2026-04-26T16:37:59.754Z</time></trkpt><trkpt lat="45.7589278" lon="11.7730117"><ele>110.0</ele><time>2026-04-26T16:38:00.757Z</time></trkpt><trkpt lat="45.7587084" lon="11.7731597"><ele>110.0</ele><time>2026-04-26T16:38:01.757Z</time></trkpt><trkpt lat="45.7584769" lon="11.7733136"><ele>110.5</ele><time>2026-04-26T16:38:02.759Z</time></trkpt><trkpt lat="45.7582324" lon="11.7734678"><ele>111.0</ele><time>2026-04-26T16:38:03.752Z</time></trkpt><trkpt lat="45.757974" lon="11.7736215"><ele>111.0</ele><time>2026-04-26T16:38:04.744Z</time></trkpt><trkpt lat="45.757703" lon="11.7737752"><ele>111.0</ele><time>2026-04-26T16:38:05.751Z</time></trkpt><trkpt lat="45.7574197" lon="11.7739302"><ele>111.0</ele><time>2026-04-26T16:38:06.749Z</time></trkpt><trkpt lat="45.7571441" lon="11.7740742"><ele>111.0</ele><time>2026-04-26T16:38:07.757Z</time></trkpt><trkpt lat="45.7568841" lon="11.7742025"><ele>111.0</ele><time>2026-04-26T16:38:08.755Z</time></trkpt><trkpt lat="45.7566383" lon="11.774318"><ele>111.0</ele><time>2026-04-26T16:38:09.746Z</time></trkpt><trkpt lat="45.7564068" lon="11.7744247"><ele>111.0</ele><time>2026-04-26T16:38:10.747Z</time></trkpt><trkpt lat="45.7561838" lon="11.774524"><ele>111.0</ele><time>2026-04-26T16:38:11.745Z</time></trkpt><trkpt lat="45.7559666" lon="11.7746193"><ele>111.66666666666666</ele><time>2026-04-26T16:38:12.738Z</time></trkpt><trkpt lat="45.7557556" lon="11.774709"><ele>112.33333333333333</ele><time>2026-04-26T16:38:13.754Z</time></trkpt><trkpt lat="45.7555465" lon="11.7747944"><ele>113.0</ele><time>2026-04-26T16:38:14.746Z</time></trkpt><trkpt lat="45.7553346" lon="11.7748816"><ele>110.0</ele><time>2026-04-26T16:38:15.759Z</time></trkpt><trkpt lat="45.7551199" lon="11.7749727"><ele>107.0</ele><time>2026-04-26T16:38:16.749Z</time></trkpt><trkpt lat="45.7549035" lon="11.7750664"><ele>107.0</ele><time>2026-04-26T16:38:17.749Z</time></trkpt><trkpt lat="45.7546851" lon="11.7751602"><ele>107.0</ele><time>2026-04-26T16:38:18.748Z</time></trkpt><trkpt lat="45.7544639" lon="11.7752539"><ele>108.0</ele><time>2026-04-26T16:38:19.751Z</time></trkpt><trkpt lat="45.754242" lon="11.7753438"><ele>109.0</ele><time>2026-04-26T16:38:20.758Z</time></trkpt><trkpt lat="45.75402" lon="11.7754326"><ele>109.0</ele><time>2026-04-26T16:38:21.763Z</time></trkpt><trkpt lat="45.7537996" lon="11.7755163"><ele>109.0</ele><time>2026-04-26T16:38:22.734Z</time></trkpt><trkpt lat="45.7535806" lon="11.7755973"><ele>108.5</ele><time>2026-04-26T16:38:23.732Z</time></trkpt><trkpt lat="45.7533613" lon="11.7756775"><ele>108.0</ele><time>2026-04-26T16:38:24.742Z</time></trkpt><trkpt lat="45.7531391" lon="11.7757513"><ele>108.0</ele><time>2026-04-26T16:38:25.75Z</time></trkpt><trkpt lat="45.7529141" lon="11.7758151"><ele>108.0</ele><time>2026-04-26T16:38:26.745Z</time></trkpt><trkpt lat="45.7526863" lon="11.7758714"><ele>108.0</ele><time>2026-04-26T16:38:27.77Z</time></trkpt><trkpt lat="45.752457" lon="11.7759235"><ele>108.0</ele><time>2026-04-26T16:38:28.735Z</time></trkpt><trkpt lat="45.7522263" lon="11.7759719"><ele>108.0</ele><time>2026-04-26T16:38:29.749Z</time></trkpt><trkpt lat="45.7519935" lon="11.776015"><ele>108.0</ele><time>2026-04-26T16:38:30.741Z</time></trkpt><trkpt lat="45.7517584" lon="11.7760517"><ele>107.5</ele><time>2026-04-26T16:38:31.765Z</time></trkpt><trkpt lat="45.7515234" lon="11.7760795"><ele>107.0</ele><time>2026-04-26T16:38:32.739Z</time></trkpt><trkpt lat="45.7512918" lon="11.7761003"><ele>107.0</ele><time>2026-04-26T16:38:33.746Z</time></trkpt><trkpt lat="45.7510608" lon="11.7761161"><ele>107.0</ele><time>2026-04-26T16:38:34.745Z</time></trkpt><trkpt lat="45.75083" lon="11.7761271"><ele>106.5</ele><time>2026-04-26T16:38:35.752Z</time></trkpt><trkpt lat="45.7505983" lon="11.7761335"><ele>106.0</ele><time>2026-04-26T16:38:36.752Z</time></trkpt><trkpt lat="45.750366" lon="11.7761388"><ele>106.0</ele><time>2026-04-26T16:38:37.744Z</time></trkpt><trkpt lat="45.7501316" lon="11.7761431"><ele>106.0</ele><time>2026-04-26T16:38:38.74Z</time></trkpt><trkpt lat="45.7498967" lon="11.7761461"><ele>106.0</ele><time>2026-04-26T16:38:39.752Z</time></trkpt><trkpt lat="45.7496552" lon="11.7761536"><ele>106.0</ele><time>2026-04-26T16:38:40.75Z</time></trkpt><trkpt lat="45.7494089" lon="11.776168"><ele>105.5</ele><time>2026-04-26T16:38:41.76Z</time></trkpt><trkpt lat="45.7491597" lon="11.7761855"><ele>105.0</ele><time>2026-04-26T16:38:42.735Z</time></trkpt><trkpt lat="45.7488986" lon="11.7761961"><ele>105.0</ele><time>2026-04-26T16:38:43.754Z</time></trkpt><trkpt lat="45.7486394" lon="11.7761969"><ele>105.0</ele><time>2026-04-26T16:38:44.734Z</time></trkpt><trkpt lat="45.7483779" lon="11.7762002"><ele>105.0</ele><time>2026-04-26T16:38:45.752Z</time></trkpt><trkpt lat="45.748119" lon="11.776203"><ele>105.0</ele><time>2026-04-26T16:38:46.745Z</time></trkpt><trkpt lat="45.7478549" lon="11.7762117"><ele>105.5</ele><time>2026-04-26T16:38:47.759Z</time></trkpt><trkpt lat="45.7475971" lon="11.7762168"><ele>106.0</ele><time>2026-04-26T16:38:48.737Z</time></trkpt><trkpt lat="45.7473388" lon="11.7762185"><ele>106.0</ele><time>2026-04-26T16:38:49.758Z</time></trkpt><trkpt lat="45.7470906" lon="11.7762207"><ele>106.0</ele><time>2026-04-26T16:38:50.747Z</time></trkpt><trkpt lat="45.7468428" lon="11.7762213"><ele>104.5</ele><time>2026-04-26T16:38:51.751Z</time></trkpt><trkpt lat="45.7465963" lon="11.7762219"><ele>103.0</ele><time>2026-04-26T16:38:52.759Z</time></trkpt><trkpt lat="45.7463526" lon="11.7762238"><ele>103.0</ele><time>2026-04-26T16:38:53.752Z</time></trkpt><trkpt lat="45.7461099" lon="11.7762258"><ele>103.0</ele><time>2026-04-26T16:38:54.735Z</time></trkpt><trkpt lat="45.7458677" lon="11.7762283"><ele>102.5</ele><time>2026-04-26T16:38:55.74Z</time></trkpt><trkpt lat="45.7456279" lon="11.7762303"><ele>102.0</ele><time>2026-04-26T16:38:56.741Z</time></trkpt><trkpt lat="45.745393" lon="11.7762308"><ele>102.5</ele><time>2026-04-26T16:38:57.735Z</time></trkpt><trkpt lat="45.7451624" lon="11.7762278"><ele>103.0</ele><time>2026-04-26T16:38:58.732Z</time></trkpt><trkpt lat="45.7449371" lon="11.7762215"><ele>103.0</ele><time>2026-04-26T16:38:59.727Z</time></trkpt><trkpt lat="45.744721" lon="11.7762018"><ele>103.0</ele><time>2026-04-26T16:39:00.721Z</time></trkpt><trkpt lat="45.7445117" lon="11.7761748"><ele>103.0</ele><time>2026-04-26T16:39:01.725Z</time></trkpt><trkpt lat="45.7443076" lon="11.7761407"><ele>103.0</ele><time>2026-04-26T16:39:02.725Z</time></trkpt><trkpt lat="45.7441088" lon="11.7761063"><ele>103.0</ele><time>2026-04-26T16:39:03.731Z</time></trkpt><trkpt lat="45.7439185" lon="11.7760697"><ele>103.0</ele><time>2026-04-26T16:39:04.732Z</time></trkpt><trkpt lat="45.7437334" lon="11.776033"><ele>102.66666666666667</ele><time>2026-04-26T16:39:05.737Z</time></trkpt><trkpt lat="45.7435499" lon="11.7759896"><ele>102.33333333333334</ele><time>2026-04-26T16:39:06.724Z</time></trkpt><trkpt lat="45.7433596" lon="11.7759468"><ele>102.0</ele><time>2026-04-26T16:39:07.744Z</time></trkpt><trkpt lat="45.7431789" lon="11.7759026"><ele>102.0</ele><time>2026-04-26T16:39:08.757Z</time></trkpt><trkpt lat="45.7430043" lon="11.775856"><ele>102.0</ele><time>2026-04-26T16:39:09.759Z</time></trkpt><trkpt lat="45.7428304" lon="11.7758025"><ele>102.0</ele><time>2026-04-26T16:39:10.731Z</time></trkpt><trkpt lat="45.7426519" lon="11.7757376"><ele>102.0</ele><time>2026-04-26T16:39:11.76Z</time></trkpt><trkpt lat="45.7424808" lon="11.7756644"><ele>102.0</ele><time>2026-04-26T16:39:12.745Z</time></trkpt><trkpt lat="45.7423154" lon="11.7755756"><ele>102.0</ele><time>2026-04-26T16:39:13.74Z</time></trkpt><trkpt lat="45.7421564" lon="11.7754755"><ele>102.0</ele><time>2026-04-26T16:39:14.734Z</time></trkpt><trkpt lat="45.7420008" lon="11.7753609"><ele>102.0</ele><time>2026-04-26T16:39:15.747Z</time></trkpt><trkpt lat="45.7418499" lon="11.7752367"><ele>102.0</ele><time>2026-04-26T16:39:16.73Z</time></trkpt><trkpt lat="45.7416956" lon="11.7751067"><ele>102.66666666666666</ele><time>2026-04-26T16:39:17.743Z</time></trkpt><trkpt lat="45.7415382" lon="11.774976"><ele>103.33333333333333</ele><time>2026-04-26T16:39:18.749Z</time></trkpt><trkpt lat="45.7413868" lon="11.774842"><ele>104.0</ele><time>2026-04-26T16:39:19.735Z</time></trkpt><trkpt lat="45.7412357" lon="11.7746966"><ele>104.0</ele><time>2026-04-26T16:39:20.741Z</time></trkpt><trkpt lat="45.7410697" lon="11.7745494"><ele>104.0</ele><time>2026-04-26T16:39:21.751Z</time></trkpt><trkpt lat="45.7409135" lon="11.7744119"><ele>104.0</ele><time>2026-04-26T16:39:22.744Z</time></trkpt><trkpt lat="45.7407622" lon="11.774288"><ele>102.5</ele><time>2026-04-26T16:39:23.74Z</time></trkpt><trkpt lat="45.7406096" lon="11.774168"><ele>101.0</ele><time>2026-04-26T16:39:24.74Z</time></trkpt><trkpt lat="45.7403093" lon="11.7738807"><ele>101.66666666666666</ele><time>2026-04-26T16:39:26.725Z</time></trkpt><trkpt lat="45.7401387" lon="11.7737783"><ele>102.33333333333334</ele><time>2026-04-26T16:39:27.747Z</time></trkpt><trkpt lat="45.7399734" lon="11.7736863"><ele>103.0</ele><time>2026-04-26T16:39:28.739Z</time></trkpt><trkpt lat="45.7398313" lon="11.7735479"><ele>103.33333333333334</ele><time>2026-04-26T16:39:29.748Z</time></trkpt><trkpt lat="45.7397119" lon="11.7733688"><ele>103.66666666666666</ele><time>2026-04-26T16:39:30.739Z</time></trkpt><trkpt lat="45.7396103" lon="11.7731777"><ele>104.0</ele><time>2026-04-26T16:39:31.759Z</time></trkpt><trkpt lat="45.7395553" lon="11.7729195"><ele>104.0</ele><time>2026-04-26T16:39:32.74Z</time></trkpt><trkpt lat="45.7394803" lon="11.77271"><ele>104.0</ele><time>2026-04-26T16:39:33.762Z</time></trkpt><trkpt lat="45.7394119" lon="11.772489"><ele>104.0</ele><time>2026-04-26T16:39:34.761Z</time></trkpt><trkpt lat="45.7393617" lon="11.7722671"><ele>103.0</ele><time>2026-04-26T16:39:35.745Z</time></trkpt><trkpt lat="45.7393144" lon="11.7720471"><ele>102.0</ele><time>2026-04-26T16:39:36.746Z</time></trkpt><trkpt lat="45.7392718" lon="11.7718247"><ele>101.0</ele><time>2026-04-26T16:39:37.743Z</time></trkpt><trkpt lat="45.7392415" lon="11.7715986"><ele>101.0</ele><time>2026-04-26T16:39:38.746Z</time></trkpt><trkpt lat="45.739227" lon="11.7713721"><ele>101.0</ele><time>2026-04-26T16:39:39.731Z</time></trkpt><trkpt lat="45.73923" lon="11.7711485"><ele>101.0</ele><time>2026-04-26T16:39:40.74Z</time></trkpt><trkpt lat="45.7392366" lon="11.7709296"><ele>101.33333333333333</ele><time>2026-04-26T16:39:41.743Z</time></trkpt><trkpt lat="45.7392393" lon="11.7707084"><ele>101.66666666666666</ele><time>2026-04-26T16:39:42.734Z</time></trkpt><trkpt lat="45.7392365" lon="11.7704912"><ele>102.0</ele><time>2026-04-26T16:39:43.741Z</time></trkpt><trkpt lat="45.7392022" lon="11.7702637"><ele>102.33333333333334</ele><time>2026-04-26T16:39:44.737Z</time></trkpt><trkpt lat="45.7391539" lon="11.7700453"><ele>102.66666666666667</ele><time>2026-04-26T16:39:45.76Z</time></trkpt><trkpt lat="45.7391124" lon="11.7698231"><ele>103.0</ele><time>2026-04-26T16:39:46.753Z</time></trkpt><trkpt lat="45.7390747" lon="11.7695944"><ele>103.0</ele><time>2026-04-26T16:39:47.762Z</time></trkpt><trkpt lat="45.7390273" lon="11.76937"><ele>103.0</ele><time>2026-04-26T16:39:48.759Z</time></trkpt><trkpt lat="45.7389716" lon="11.7691615"><ele>103.0</ele><time>2026-04-26T16:39:49.745Z</time></trkpt><trkpt lat="45.7388919" lon="11.768949"><ele>102.66666666666667</ele><time>2026-04-26T16:39:50.751Z</time></trkpt><trkpt lat="45.7388138" lon="11.7687396"><ele>102.33333333333334</ele><time>2026-04-26T16:39:51.741Z</time></trkpt><trkpt lat="45.7387303" lon="11.7685344"><ele>102.0</ele><time>2026-04-26T16:39:52.738Z</time></trkpt><trkpt lat="45.7386508" lon="11.7683231"><ele>102.0</ele><time>2026-04-26T16:39:53.758Z</time></trkpt><trkpt lat="45.7385837" lon="11.7680965"><ele>102.0</ele><time>2026-04-26T16:39:54.749Z</time></trkpt><trkpt lat="45.7385282" lon="11.7678608"><ele>102.0</ele><time>2026-04-26T16:39:55.747Z</time></trkpt><trkpt lat="45.7384746" lon="11.7676174"><ele>102.33333333333334</ele><time>2026-04-26T16:39:56.732Z</time></trkpt><trkpt lat="45.738435" lon="11.7673599"><ele>102.66666666666667</ele><time>2026-04-26T16:39:57.744Z</time></trkpt><trkpt lat="45.7383867" lon="11.7671112"><ele>103.0</ele><time>2026-04-26T16:39:58.732Z</time></trkpt><trkpt lat="45.7383435" lon="11.766866"><ele>102.66666666666667</ele><time>2026-04-26T16:39:59.738Z</time></trkpt><trkpt lat="45.7383006" lon="11.7666074"><ele>102.33333333333334</ele><time>2026-04-26T16:40:00.746Z</time></trkpt><trkpt lat="45.7382578" lon="11.766351"><ele>102.0</ele><time>2026-04-26T16:40:01.748Z</time></trkpt><trkpt lat="45.7382217" lon="11.766093"><ele>102.0</ele><time>2026-04-26T16:40:02.749Z</time></trkpt><trkpt lat="45.7381783" lon="11.7658411"><ele>102.0</ele><time>2026-04-26T16:40:03.74Z</time></trkpt><trkpt lat="45.7381333" lon="11.7655853"><ele>102.0</ele><time>2026-04-26T16:40:04.767Z</time></trkpt><trkpt lat="45.7380879" lon="11.7653316"><ele>102.0</ele><time>2026-04-26T16:40:05.748Z</time></trkpt><trkpt lat="45.7380437" lon="11.7650762"><ele>102.0</ele><time>2026-04-26T16:40:06.751Z</time></trkpt><trkpt lat="45.7380016" lon="11.7648276"><ele>102.0</ele><time>2026-04-26T16:40:07.742Z</time></trkpt><trkpt lat="45.7379592" lon="11.7645868"><ele>102.0</ele><time>2026-04-26T16:40:08.738Z</time></trkpt><trkpt lat="45.7379185" lon="11.7643522"><ele>102.0</ele><time>2026-04-26T16:40:09.744Z</time></trkpt><trkpt lat="45.7378793" lon="11.7641235"><ele>102.0</ele><time>2026-04-26T16:40:10.746Z</time></trkpt><trkpt lat="45.7378406" lon="11.7638975"><ele>102.0</ele><time>2026-04-26T16:40:11.758Z</time></trkpt><trkpt lat="45.7378029" lon="11.7636712"><ele>102.0</ele><time>2026-04-26T16:40:12.778Z</time></trkpt><trkpt lat="45.7377647" lon="11.7634474"><ele>102.0</ele><time>2026-04-26T16:40:13.737Z</time></trkpt><trkpt lat="45.7377265" lon="11.7632247"><ele>101.75</ele><time>2026-04-26T16:40:14.764Z</time></trkpt><trkpt lat="45.7376894" lon="11.7630083"><ele>101.5</ele><time>2026-04-26T16:40:15.785Z</time></trkpt><trkpt lat="45.7376559" lon="11.7628139"><ele>101.25</ele><time>2026-04-26T16:40:16.752Z</time></trkpt><trkpt lat="45.7376246" lon="11.7626328"><ele>101.0</ele><time>2026-04-26T16:40:17.746Z</time></trkpt><trkpt lat="45.7375964" lon="11.7624684"><ele>101.0</ele><time>2026-04-26T16:40:18.744Z</time></trkpt><trkpt lat="45.7375621" lon="11.7623128"><ele>101.0</ele><time>2026-04-26T16:40:19.752Z</time></trkpt><trkpt lat="45.7375364" lon="11.7621848"><ele>101.0</ele><time>2026-04-26T16:40:20.729Z</time></trkpt><trkpt lat="45.7375142" lon="11.7620609"><ele>101.0</ele><time>2026-04-26T16:40:21.733Z</time></trkpt><trkpt lat="45.7374938" lon="11.7619592"><ele>101.0</ele><time>2026-04-26T16:40:22.738Z</time></trkpt><trkpt lat="45.7374929" lon="11.7618337"><ele>101.0</ele><time>2026-04-26T16:40:24.761Z</time></trkpt><trkpt lat="45.7374952" lon="11.7616999"><ele>101.0</ele><time>2026-04-26T16:40:27.739Z</time></trkpt><trkpt lat="45.7374608" lon="11.7615559"><ele>101.0</ele><time>2026-04-26T16:40:29.736Z</time></trkpt><trkpt lat="45.7374574" lon="11.7614385"><ele>101.0</ele><time>2026-04-26T16:40:30.733Z</time></trkpt><trkpt lat="45.7374591" lon="11.7612962"><ele>101.0</ele><time>2026-04-26T16:40:31.739Z</time></trkpt><trkpt lat="45.737471" lon="11.7611425"><ele>101.4</ele><time>2026-04-26T16:40:32.734Z</time></trkpt><trkpt lat="45.7374853" lon="11.7609865"><ele>101.8</ele><time>2026-04-26T16:40:33.747Z</time></trkpt><trkpt lat="45.7374957" lon="11.7608325"><ele>102.2</ele><time>2026-04-26T16:40:34.74Z</time></trkpt><trkpt lat="45.7375013" lon="11.7606762"><ele>102.60000000000001</ele><time>2026-04-26T16:40:35.751Z</time></trkpt><trkpt lat="45.737504" lon="11.7605346"><ele>103.0</ele><time>2026-04-26T16:40:36.736Z</time></trkpt><trkpt lat="45.7374993" lon="11.760415"><ele>103.00000000000001</ele><time>2026-04-26T16:40:37.745Z</time></trkpt><trkpt lat="45.7374893" lon="11.7603026"><ele>103.0</ele><time>2026-04-26T16:40:38.734Z</time></trkpt><trkpt lat="45.7374728" lon="11.7601819"><ele>103.0</ele><time>2026-04-26T16:40:39.74Z</time></trkpt><trkpt lat="45.7374559" lon="11.7600563"><ele>103.0</ele><time>2026-04-26T16:40:40.726Z</time></trkpt><trkpt lat="45.7374385" lon="11.7599424"><ele>103.00000000000001</ele><time>2026-04-26T16:40:41.738Z</time></trkpt><trkpt lat="45.7374246" lon="11.7598362"><ele>103.0</ele><time>2026-04-26T16:40:42.737Z</time></trkpt><trkpt lat="45.7374058" lon="11.759744"><ele>103.0</ele><time>2026-04-26T16:40:43.722Z</time></trkpt><trkpt lat="45.737382" lon="11.7596146"><ele>103.0</ele><time>2026-04-26T16:40:45.737Z</time></trkpt><trkpt lat="45.7373665" lon="11.7594569"><ele>103.0</ele><time>2026-04-26T16:40:51.744Z</time></trkpt><trkpt lat="45.7373915" lon="11.7593282"><ele>103.0</ele><time>2026-04-26T16:40:53.742Z</time></trkpt><trkpt lat="45.7374527" lon="11.7591845"><ele>103.0</ele><time>2026-04-26T16:40:55.746Z</time></trkpt><trkpt lat="45.7374765" lon="11.759098"><ele>103.0</ele><time>2026-04-26T16:40:56.752Z</time></trkpt><trkpt lat="45.7374661" lon="11.7589181"><ele>103.0</ele><time>2026-04-26T16:40:58.732Z</time></trkpt><trkpt lat="45.7374266" lon="11.7588284"><ele>103.0</ele><time>2026-04-26T16:40:59.731Z</time></trkpt><trkpt lat="45.7373653" lon="11.758751"><ele>103.0</ele><time>2026-04-26T16:41:00.749Z</time></trkpt><trkpt lat="45.7372937" lon="11.758677"><ele>103.0</ele><time>2026-04-26T16:41:01.755Z</time></trkpt><trkpt lat="45.7372241" lon="11.7585827"><ele>102.75</ele><time>2026-04-26T16:41:02.738Z</time></trkpt><trkpt lat="45.737167" lon="11.7584547"><ele>102.5</ele><time>2026-04-26T16:41:03.727Z</time></trkpt><trkpt lat="45.7371204" lon="11.7582998"><ele>102.25</ele><time>2026-04-26T16:41:04.754Z</time></trkpt><trkpt lat="45.7370804" lon="11.7581242"><ele>102.0</ele><time>2026-04-26T16:41:05.733Z</time></trkpt><trkpt lat="45.7370442" lon="11.7579311"><ele>102.0</ele><time>2026-04-26T16:41:06.736Z</time></trkpt><trkpt lat="45.7370111" lon="11.7577264"><ele>102.0</ele><time>2026-04-26T16:41:07.747Z</time></trkpt><trkpt lat="45.73698" lon="11.7575134"><ele>102.0</ele><time>2026-04-26T16:41:08.741Z</time></trkpt><trkpt lat="45.7369516" lon="11.7572936"><ele>102.0</ele><time>2026-04-26T16:41:09.743Z</time></trkpt><trkpt lat="45.7369223" lon="11.7570669"><ele>102.0</ele><time>2026-04-26T16:41:10.733Z</time></trkpt><trkpt lat="45.736892" lon="11.7568391"><ele>102.0</ele><time>2026-04-26T16:41:11.735Z</time></trkpt><trkpt lat="45.7368628" lon="11.7566125"><ele>101.66666666666666</ele><time>2026-04-26T16:41:12.751Z</time></trkpt><trkpt lat="45.7368316" lon="11.7563779"><ele>101.33333333333333</ele><time>2026-04-26T16:41:13.762Z</time></trkpt><trkpt lat="45.7367998" lon="11.756137"><ele>101.0</ele><time>2026-04-26T16:41:14.77Z</time></trkpt><trkpt lat="45.7367679" lon="11.7558914"><ele>101.0</ele><time>2026-04-26T16:41:15.741Z</time></trkpt><trkpt lat="45.7367345" lon="11.7556447"><ele>101.0</ele><time>2026-04-26T16:41:16.738Z</time></trkpt><trkpt lat="45.7366973" lon="11.7553808"><ele>101.0</ele><time>2026-04-26T16:41:17.739Z</time></trkpt><trkpt lat="45.7366574" lon="11.7550973"><ele>101.0</ele><time>2026-04-26T16:41:18.744Z</time></trkpt><trkpt lat="45.7366175" lon="11.7548031"><ele>101.0</ele><time>2026-04-26T16:41:19.741Z</time></trkpt><trkpt lat="45.7365794" lon="11.7545031"><ele>101.0</ele><time>2026-04-26T16:41:20.734Z</time></trkpt><trkpt lat="45.7365445" lon="11.754204"><ele>101.0</ele><time>2026-04-26T16:41:21.738Z</time></trkpt><trkpt lat="45.7365104" lon="11.7539143"><ele>101.0</ele><time>2026-04-26T16:41:22.74Z</time></trkpt><trkpt lat="45.7364776" lon="11.7536421"><ele>101.0</ele><time>2026-04-26T16:41:23.728Z</time></trkpt><trkpt lat="45.7364463" lon="11.7533876"><ele>100.66666666666666</ele><time>2026-04-26T16:41:24.735Z</time></trkpt><trkpt lat="45.7364173" lon="11.7531401"><ele>100.33333333333334</ele><time>2026-04-26T16:41:25.738Z</time></trkpt><trkpt lat="45.7363913" lon="11.752896"><ele>100.0</ele><time>2026-04-26T16:41:26.751Z</time></trkpt><trkpt lat="45.7363679" lon="11.7526519"><ele>101.0</ele><time>2026-04-26T16:41:27.744Z</time></trkpt><trkpt lat="45.7363473" lon="11.7524069"><ele>102.0</ele><time>2026-04-26T16:41:28.739Z</time></trkpt><trkpt lat="45.7363284" lon="11.7521588"><ele>103.0</ele><time>2026-04-26T16:41:29.734Z</time></trkpt><trkpt lat="45.73631" lon="11.7519145"><ele>103.33333333333334</ele><time>2026-04-26T16:41:30.753Z</time></trkpt><trkpt lat="45.7362924" lon="11.7516725"><ele>103.66666666666666</ele><time>2026-04-26T16:41:31.739Z</time></trkpt><trkpt lat="45.736278" lon="11.7514285"><ele>104.0</ele><time>2026-04-26T16:41:32.755Z</time></trkpt><trkpt lat="45.7362676" lon="11.7511821"><ele>103.66666666666666</ele><time>2026-04-26T16:41:33.759Z</time></trkpt><trkpt lat="45.7362592" lon="11.7509344"><ele>103.33333333333334</ele><time>2026-04-26T16:41:34.733Z</time></trkpt><trkpt lat="45.7362522" lon="11.7506855"><ele>103.0</ele><time>2026-04-26T16:41:35.733Z</time></trkpt><trkpt lat="45.7362469" lon="11.7504375"><ele>102.66666666666667</ele><time>2026-04-26T16:41:36.742Z</time></trkpt><trkpt lat="45.7362456" lon="11.7501975"><ele>102.33333333333334</ele><time>2026-04-26T16:41:37.734Z</time></trkpt><trkpt lat="45.7362392" lon="11.749953"><ele>102.0</ele><time>2026-04-26T16:41:38.737Z</time></trkpt><trkpt lat="45.736237" lon="11.7497264"><ele>102.0</ele><time>2026-04-26T16:41:39.744Z</time></trkpt><trkpt lat="45.7362473" lon="11.749498"><ele>102.0</ele><time>2026-04-26T16:41:40.736Z</time></trkpt><trkpt lat="45.7362519" lon="11.7492873"><ele>102.0</ele><time>2026-04-26T16:41:41.745Z</time></trkpt><trkpt lat="45.7362574" lon="11.7490699"><ele>102.0</ele><time>2026-04-26T16:41:42.745Z</time></trkpt><trkpt lat="45.7362666" lon="11.7488591"><ele>102.0</ele><time>2026-04-26T16:41:43.756Z</time></trkpt><trkpt lat="45.7362755" lon="11.7486565"><ele>102.0</ele><time>2026-04-26T16:41:44.739Z</time></trkpt><trkpt lat="45.7362858" lon="11.7484551"><ele>102.0</ele><time>2026-04-26T16:41:45.732Z</time></trkpt><trkpt lat="45.7362926" lon="11.7482527"><ele>102.25</ele><time>2026-04-26T16:41:46.73Z</time></trkpt><trkpt lat="45.7363049" lon="11.7480463"><ele>102.5</ele><time>2026-04-26T16:41:47.724Z</time></trkpt><trkpt lat="45.7363135" lon="11.7478383"><ele>102.75</ele><time>2026-04-26T16:41:48.735Z</time></trkpt><trkpt lat="45.7363196" lon="11.7476287"><ele>103.0</ele><time>2026-04-26T16:41:49.728Z</time></trkpt><trkpt lat="45.736329" lon="11.7474128"><ele>102.33333333333334</ele><time>2026-04-26T16:41:50.746Z</time></trkpt><trkpt lat="45.7363374" lon="11.7471909"><ele>101.66666666666666</ele><time>2026-04-26T16:41:51.757Z</time></trkpt><trkpt lat="45.7363448" lon="11.7469617"><ele>101.0</ele><time>2026-04-26T16:41:52.737Z</time></trkpt><trkpt lat="45.7363557" lon="11.7467246"><ele>101.33333333333333</ele><time>2026-04-26T16:41:53.745Z</time></trkpt><trkpt lat="45.7363651" lon="11.7464856"><ele>101.66666666666666</ele><time>2026-04-26T16:41:54.742Z</time></trkpt><trkpt lat="45.7363752" lon="11.7462447"><ele>102.0</ele><time>2026-04-26T16:41:55.724Z</time></trkpt><trkpt lat="45.7363847" lon="11.7460019"><ele>102.0</ele><time>2026-04-26T16:41:56.752Z</time></trkpt><trkpt lat="45.7363955" lon="11.7457577"><ele>102.0</ele><time>2026-04-26T16:41:57.732Z</time></trkpt><trkpt lat="45.736407" lon="11.7455109"><ele>102.0</ele><time>2026-04-26T16:41:58.737Z</time></trkpt><trkpt lat="45.7364181" lon="11.7452645"><ele>101.66666666666666</ele><time>2026-04-26T16:41:59.738Z</time></trkpt><trkpt lat="45.7364303" lon="11.7450199"><ele>101.33333333333333</ele><time>2026-04-26T16:42:00.763Z</time></trkpt><trkpt lat="45.7364429" lon="11.7447808"><ele>101.0</ele><time>2026-04-26T16:42:01.752Z</time></trkpt><trkpt lat="45.7364518" lon="11.7445409"><ele>101.33333333333333</ele><time>2026-04-26T16:42:02.73Z</time></trkpt><trkpt lat="45.7364612" lon="11.7443015"><ele>101.66666666666666</ele><time>2026-04-26T16:42:03.739Z</time></trkpt><trkpt lat="45.7364712" lon="11.7440752"><ele>102.0</ele><time>2026-04-26T16:42:04.742Z</time></trkpt><trkpt lat="45.7364809" lon="11.7438604"><ele>102.0</ele><time>2026-04-26T16:42:05.735Z</time></trkpt><trkpt lat="45.7364896" lon="11.7436542"><ele>102.0</ele><time>2026-04-26T16:42:06.733Z</time></trkpt><trkpt lat="45.7364984" lon="11.7434591"><ele>102.0</ele><time>2026-04-26T16:42:07.745Z</time></trkpt><trkpt lat="45.7365082" lon="11.7432672"><ele>102.0</ele><time>2026-04-26T16:42:08.738Z</time></trkpt><trkpt lat="45.7365178" lon="11.7430835"><ele>102.19999999999999</ele><time>2026-04-26T16:42:09.734Z</time></trkpt><trkpt lat="45.7365274" lon="11.7429105"><ele>102.4</ele><time>2026-04-26T16:42:10.73Z</time></trkpt><trkpt lat="45.7365347" lon="11.7427491"><ele>102.6</ele><time>2026-04-26T16:42:11.734Z</time></trkpt><trkpt lat="45.7365389" lon="11.742601"><ele>102.80000000000001</ele><time>2026-04-26T16:42:12.743Z</time></trkpt><trkpt lat="45.7365356" lon="11.7424693"><ele>103.0</ele><time>2026-04-26T16:42:13.733Z</time></trkpt><trkpt lat="45.7365255" lon="11.7423555"><ele>102.99999999999999</ele><time>2026-04-26T16:42:14.738Z</time></trkpt><trkpt lat="45.7365102" lon="11.7422503"><ele>103.0</ele><time>2026-04-26T16:42:15.735Z</time></trkpt><trkpt lat="45.7364914" lon="11.7421529"><ele>103.0</ele><time>2026-04-26T16:42:16.756Z</time></trkpt><trkpt lat="45.7364706" lon="11.7420597"><ele>103.0</ele><time>2026-04-26T16:42:17.75Z</time></trkpt><trkpt lat="45.736451" lon="11.7419588"><ele>103.0</ele><time>2026-04-26T16:42:18.75Z</time></trkpt><trkpt lat="45.7364429" lon="11.7418472"><ele>102.99999999999999</ele><time>2026-04-26T16:42:19.739Z</time></trkpt><trkpt lat="45.7364448" lon="11.7417275"><ele>103.0</ele><time>2026-04-26T16:42:20.754Z</time></trkpt><trkpt lat="45.7364367" lon="11.7416044"><ele>103.0</ele><time>2026-04-26T16:42:21.747Z</time></trkpt><trkpt lat="45.7364072" lon="11.7414861"><ele>103.0</ele><time>2026-04-26T16:42:22.753Z</time></trkpt><trkpt lat="45.7363517" lon="11.7413848"><ele>103.0</ele><time>2026-04-26T16:42:23.746Z</time></trkpt><trkpt lat="45.7362719" lon="11.7413098"><ele>103.0</ele><time>2026-04-26T16:42:24.756Z</time></trkpt><trkpt lat="45.7361877" lon="11.7412306"><ele>103.0</ele><time>2026-04-26T16:42:25.751Z</time></trkpt><trkpt lat="45.7361054" lon="11.7411527"><ele>102.25</ele><time>2026-04-26T16:42:26.753Z</time></trkpt><trkpt lat="45.7360491" lon="11.7410222"><ele>101.5</ele><time>2026-04-26T16:42:27.731Z</time></trkpt><trkpt lat="45.7360209" lon="11.7408562"><ele>100.75</ele><time>2026-04-26T16:42:28.753Z</time></trkpt><trkpt lat="45.7360196" lon="11.7406785"><ele>100.0</ele><time>2026-04-26T16:42:29.737Z</time></trkpt><trkpt lat="45.7360271" lon="11.7405007"><ele>100.0</ele><time>2026-04-26T16:42:30.737Z</time></trkpt><trkpt lat="45.7360434" lon="11.7403105"><ele>100.0</ele><time>2026-04-26T16:42:31.754Z</time></trkpt><trkpt lat="45.7360614" lon="11.7401167"><ele>100.0</ele><time>2026-04-26T16:42:32.751Z</time></trkpt><trkpt lat="45.7360827" lon="11.7399164"><ele>100.0</ele><time>2026-04-26T16:42:33.753Z</time></trkpt><trkpt lat="45.7361043" lon="11.7397138"><ele>100.0</ele><time>2026-04-26T16:42:34.753Z</time></trkpt><trkpt lat="45.7361261" lon="11.7395149"><ele>100.0</ele><time>2026-04-26T16:42:35.754Z</time></trkpt><trkpt lat="45.7361526" lon="11.7393142"><ele>100.0</ele><time>2026-04-26T16:42:36.746Z</time></trkpt><trkpt lat="45.736184" lon="11.7391101"><ele>100.0</ele><time>2026-04-26T16:42:37.739Z</time></trkpt><trkpt lat="45.7362204" lon="11.7388995"><ele>100.0</ele><time>2026-04-26T16:42:38.746Z</time></trkpt><trkpt lat="45.7362599" lon="11.7386859"><ele>100.0</ele><time>2026-04-26T16:42:39.752Z</time></trkpt><trkpt lat="45.7363021" lon="11.7384698"><ele>100.0</ele><time>2026-04-26T16:42:40.74Z</time></trkpt><trkpt lat="45.7363489" lon="11.7382485"><ele>100.33333333333334</ele><time>2026-04-26T16:42:41.75Z</time></trkpt><trkpt lat="45.7363995" lon="11.7380266"><ele>100.66666666666666</ele><time>2026-04-26T16:42:42.747Z</time></trkpt><trkpt lat="45.7364542" lon="11.7378054"><ele>101.0</ele><time>2026-04-26T16:42:43.748Z</time></trkpt><trkpt lat="45.7365118" lon="11.7375809"><ele>101.0</ele><time>2026-04-26T16:42:44.752Z</time></trkpt><trkpt lat="45.7365703" lon="11.7373548"><ele>101.0</ele><time>2026-04-26T16:42:45.734Z</time></trkpt><trkpt lat="45.7366301" lon="11.7371263"><ele>101.0</ele><time>2026-04-26T16:42:46.743Z</time></trkpt><trkpt lat="45.7366885" lon="11.7368951"><ele>100.66666666666666</ele><time>2026-04-26T16:42:47.755Z</time></trkpt><trkpt lat="45.7367461" lon="11.7366601"><ele>100.33333333333334</ele><time>2026-04-26T16:42:48.74Z</time></trkpt><trkpt lat="45.7368041" lon="11.736421"><ele>100.0</ele><time>2026-04-26T16:42:49.754Z</time></trkpt><trkpt lat="45.7368627" lon="11.7361754"><ele>100.33333333333334</ele><time>2026-04-26T16:42:50.747Z</time></trkpt><trkpt lat="45.7369218" lon="11.7359201"><ele>100.66666666666666</ele><time>2026-04-26T16:42:51.748Z</time></trkpt><trkpt lat="45.7369835" lon="11.7356522"><ele>101.0</ele><time>2026-04-26T16:42:52.74Z</time></trkpt><trkpt lat="45.737046" lon="11.7353843"><ele>100.66666666666666</ele><time>2026-04-26T16:42:53.751Z</time></trkpt><trkpt lat="45.7371054" lon="11.7351266"><ele>100.33333333333334</ele><time>2026-04-26T16:42:54.755Z</time></trkpt><trkpt lat="45.7371638" lon="11.7348755"><ele>100.0</ele><time>2026-04-26T16:42:55.727Z</time></trkpt><trkpt lat="45.7372216" lon="11.7346281"><ele>100.0</ele><time>2026-04-26T16:42:56.754Z</time></trkpt><trkpt lat="45.7372776" lon="11.7343885"><ele>100.0</ele><time>2026-04-26T16:42:57.735Z</time></trkpt><trkpt lat="45.7373299" lon="11.7341654"><ele>100.0</ele><time>2026-04-26T16:42:58.762Z</time></trkpt><trkpt lat="45.7373785" lon="11.7339532"><ele>100.0</ele><time>2026-04-26T16:42:59.737Z</time></trkpt><trkpt lat="45.7374284" lon="11.7337415"><ele>100.0</ele><time>2026-04-26T16:43:00.751Z</time></trkpt><trkpt lat="45.7374788" lon="11.7335284"><ele>100.0</ele><time>2026-04-26T16:43:01.737Z</time></trkpt><trkpt lat="45.7375274" lon="11.7333239"><ele>100.0</ele><time>2026-04-26T16:43:02.751Z</time></trkpt><trkpt lat="45.737574" lon="11.7331312"><ele>100.0</ele><time>2026-04-26T16:43:03.756Z</time></trkpt><trkpt lat="45.7376175" lon="11.732947"><ele>100.0</ele><time>2026-04-26T16:43:04.749Z</time></trkpt><trkpt lat="45.7376599" lon="11.7327634"><ele>100.0</ele><time>2026-04-26T16:43:05.74Z</time></trkpt><trkpt lat="45.737702" lon="11.7325799"><ele>99.75</ele><time>2026-04-26T16:43:06.738Z</time></trkpt><trkpt lat="45.7377437" lon="11.7323986"><ele>99.5</ele><time>2026-04-26T16:43:07.751Z</time></trkpt><trkpt lat="45.7377831" lon="11.7322293"><ele>99.25</ele><time>2026-04-26T16:43:08.773Z</time></trkpt><trkpt lat="45.7378188" lon="11.7320799"><ele>99.0</ele><time>2026-04-26T16:43:09.743Z</time></trkpt><trkpt lat="45.7378496" lon="11.731952"><ele>99.16666666666667</ele><time>2026-04-26T16:43:10.764Z</time></trkpt><trkpt lat="45.7378748" lon="11.7318558"><ele>99.33333333333334</ele><time>2026-04-26T16:43:11.755Z</time></trkpt><trkpt lat="45.7379097" lon="11.7317589"><ele>99.5</ele><time>2026-04-26T16:43:13.751Z</time></trkpt><trkpt lat="45.7379737" lon="11.731693"><ele>99.66666666666667</ele><time>2026-04-26T16:43:15.751Z</time></trkpt><trkpt lat="45.738094" lon="11.7316713"><ele>99.83333333333334</ele><time>2026-04-26T16:43:17.748Z</time></trkpt><trkpt lat="45.7381702" lon="11.7316773"><ele>100.0</ele><time>2026-04-26T16:43:18.757Z</time></trkpt><trkpt lat="45.7382536" lon="11.7316774"><ele>100.00000000000001</ele><time>2026-04-26T16:43:19.741Z</time></trkpt><trkpt lat="45.7383385" lon="11.7316594"><ele>100.0</ele><time>2026-04-26T16:43:20.752Z</time></trkpt><trkpt lat="45.7384217" lon="11.7316196"><ele>100.0</ele><time>2026-04-26T16:43:21.757Z</time></trkpt><trkpt lat="45.7384857" lon="11.7315655"><ele>100.0</ele><time>2026-04-26T16:43:22.75Z</time></trkpt><trkpt lat="45.7385273" lon="11.731497"><ele>100.0</ele><time>2026-04-26T16:43:23.736Z</time></trkpt><trkpt lat="45.7385458" lon="11.7314084"><ele>100.00000000000001</ele><time>2026-04-26T16:43:24.752Z</time></trkpt><trkpt lat="45.7385402" lon="11.7313115"><ele>100.0</ele><time>2026-04-26T16:43:25.75Z</time></trkpt><trkpt lat="45.7385111" lon="11.7312268"><ele>100.00000000000001</ele><time>2026-04-26T16:43:26.745Z</time></trkpt><trkpt lat="45.7384607" lon="11.7311555"><ele>100.0</ele><time>2026-04-26T16:43:27.752Z</time></trkpt><trkpt lat="45.7383931" lon="11.7311046"><ele>100.0</ele><time>2026-04-26T16:43:28.75Z</time></trkpt><trkpt lat="45.7383093" lon="11.7310715"><ele>100.0</ele><time>2026-04-26T16:43:29.749Z</time></trkpt><trkpt lat="45.7382094" lon="11.7310592"><ele>100.00000000000001</ele><time>2026-04-26T16:43:30.732Z</time></trkpt><trkpt lat="45.738101" lon="11.7310661"><ele>100.0</ele><time>2026-04-26T16:43:31.739Z</time></trkpt><trkpt lat="45.7379979" lon="11.731098"><ele>100.0</ele><time>2026-04-26T16:43:32.745Z</time></trkpt><trkpt lat="45.7379033" lon="11.7311506"><ele>100.0</ele><time>2026-04-26T16:43:33.754Z</time></trkpt><trkpt lat="45.737811" lon="11.7311959"><ele>100.0</ele><time>2026-04-26T16:43:34.744Z</time></trkpt><trkpt lat="45.7377126" lon="11.7312098"><ele>100.0</ele><time>2026-04-26T16:43:35.735Z</time></trkpt><trkpt lat="45.7376003" lon="11.7311966"><ele>100.0</ele><time>2026-04-26T16:43:36.751Z</time></trkpt><trkpt lat="45.7374819" lon="11.7311792"><ele>100.0</ele><time>2026-04-26T16:43:37.75Z</time></trkpt><trkpt lat="45.7373637" lon="11.7311734"><ele>100.0</ele><time>2026-04-26T16:43:38.738Z</time></trkpt><trkpt lat="45.7372474" lon="11.7311871"><ele>100.0</ele><time>2026-04-26T16:43:39.742Z</time></trkpt><trkpt lat="45.7371398" lon="11.7312216"><ele>100.0</ele><time>2026-04-26T16:43:40.751Z</time></trkpt><trkpt lat="45.7370457" lon="11.7312676"><ele>100.0</ele><time>2026-04-26T16:43:41.748Z</time></trkpt><trkpt lat="45.7369605" lon="11.7313201"><ele>99.6</ele><time>2026-04-26T16:43:42.753Z</time></trkpt><trkpt lat="45.7368779" lon="11.7313861"><ele>99.2</ele><time>2026-04-26T16:43:43.735Z</time></trkpt><trkpt lat="45.7367998" lon="11.7314646"><ele>98.80000000000001</ele><time>2026-04-26T16:43:44.768Z</time></trkpt><trkpt lat="45.7367287" lon="11.7315409"><ele>98.4</ele><time>2026-04-26T16:43:45.751Z</time></trkpt><trkpt lat="45.7366545" lon="11.7316069"><ele>98.0</ele><time>2026-04-26T16:43:46.752Z</time></trkpt><trkpt lat="45.7365686" lon="11.7316625"><ele>98.0</ele><time>2026-04-26T16:43:47.748Z</time></trkpt><trkpt lat="45.7364736" lon="11.7316976"><ele>98.0</ele><time>2026-04-26T16:43:48.742Z</time></trkpt><trkpt lat="45.7363706" lon="11.7317224"><ele>98.0</ele><time>2026-04-26T16:43:49.761Z</time></trkpt><trkpt lat="45.7362605" lon="11.7317545"><ele>98.0</ele><time>2026-04-26T16:43:50.766Z</time></trkpt><trkpt lat="45.7361451" lon="11.7318005"><ele>98.0</ele><time>2026-04-26T16:43:51.734Z</time></trkpt><trkpt lat="45.7360277" lon="11.7318553"><ele>98.5</ele><time>2026-04-26T16:43:52.751Z</time></trkpt><trkpt lat="45.7359089" lon="11.7319147"><ele>99.0</ele><time>2026-04-26T16:43:53.75Z</time></trkpt><trkpt lat="45.7357897" lon="11.7319765"><ele>99.5</ele><time>2026-04-26T16:43:54.755Z</time></trkpt><trkpt lat="45.7356705" lon="11.7320386"><ele>100.0</ele><time>2026-04-26T16:43:55.749Z</time></trkpt><trkpt lat="45.7355544" lon="11.7321021"><ele>100.0</ele><time>2026-04-26T16:43:56.736Z</time></trkpt><trkpt lat="45.7354432" lon="11.7321683"><ele>100.0</ele><time>2026-04-26T16:43:57.74Z</time></trkpt><trkpt lat="45.7353332" lon="11.7322448"><ele>100.0</ele><time>2026-04-26T16:43:58.753Z</time></trkpt><trkpt lat="45.7352265" lon="11.7323316"><ele>100.0</ele><time>2026-04-26T16:43:59.744Z</time></trkpt><trkpt lat="45.7351265" lon="11.7324175"><ele>100.0</ele><time>2026-04-26T16:44:00.748Z</time></trkpt><trkpt lat="45.7350278" lon="11.7325003"><ele>100.0</ele><time>2026-04-26T16:44:01.766Z</time></trkpt><trkpt lat="45.7349286" lon="11.732583"><ele>100.0</ele><time>2026-04-26T16:44:02.77Z</time></trkpt><trkpt lat="45.7348294" lon="11.7326595"><ele>100.0</ele><time>2026-04-26T16:44:03.756Z</time></trkpt><trkpt lat="45.7347302" lon="11.7327255"><ele>100.2</ele><time>2026-04-26T16:44:04.763Z</time></trkpt><trkpt lat="45.7346312" lon="11.732781"><ele>100.4</ele><time>2026-04-26T16:44:05.768Z</time></trkpt><trkpt lat="45.7345278" lon="11.7328326"><ele>100.6</ele><time>2026-04-26T16:44:06.755Z</time></trkpt><trkpt lat="45.7344226" lon="11.7328812"><ele>100.8</ele><time>2026-04-26T16:44:07.755Z</time></trkpt><trkpt lat="45.734318" lon="11.7329261"><ele>101.0</ele><time>2026-04-26T16:44:08.753Z</time></trkpt><trkpt lat="45.7342115" lon="11.7329701"><ele>101.25</ele><time>2026-04-26T16:44:09.757Z</time></trkpt><trkpt lat="45.7341045" lon="11.7330077"><ele>101.5</ele><time>2026-04-26T16:44:10.737Z</time></trkpt><trkpt lat="45.7339935" lon="11.733042"><ele>101.75</ele><time>2026-04-26T16:44:11.746Z</time></trkpt><trkpt lat="45.7338785" lon="11.7330739"><ele>102.0</ele><time>2026-04-26T16:44:12.75Z</time></trkpt><trkpt lat="45.7337612" lon="11.7331038"><ele>102.0</ele><time>2026-04-26T16:44:13.742Z</time></trkpt><trkpt lat="45.7336408" lon="11.7331312"><ele>102.0</ele><time>2026-04-26T16:44:14.752Z</time></trkpt><trkpt lat="45.7335199" lon="11.7331565"><ele>102.0</ele><time>2026-04-26T16:44:15.763Z</time></trkpt><trkpt lat="45.7334079" lon="11.7331781"><ele>102.0</ele><time>2026-04-26T16:44:16.76Z</time></trkpt><trkpt lat="45.7333058" lon="11.7331978"><ele>101.33333333333333</ele><time>2026-04-26T16:44:17.757Z</time></trkpt><trkpt lat="45.7332124" lon="11.7332136"><ele>100.66666666666666</ele><time>2026-04-26T16:44:18.751Z</time></trkpt><trkpt lat="45.7331277" lon="11.7332154"><ele>100.0</ele><time>2026-04-26T16:44:19.756Z</time></trkpt><trkpt lat="45.7330478" lon="11.733196"><ele>99.33333333333333</ele><time>2026-04-26T16:44:20.76Z</time></trkpt><trkpt lat="45.732966" lon="11.733163"><ele>98.66666666666666</ele><time>2026-04-26T16:44:21.753Z</time></trkpt><trkpt lat="45.7328859" lon="11.733145"><ele>98.0</ele><time>2026-04-26T16:44:22.75Z</time></trkpt><trkpt lat="45.7328069" lon="11.7331616"><ele>97.99999999999999</ele><time>2026-04-26T16:44:23.767Z</time></trkpt><trkpt lat="45.7327326" lon="11.7332079"><ele>98.0</ele><time>2026-04-26T16:44:24.756Z</time></trkpt><trkpt lat="45.7326653" lon="11.7332627"><ele>98.0</ele><time>2026-04-26T16:44:25.765Z</time></trkpt><trkpt lat="45.7325933" lon="11.7333141"><ele>98.0</ele><time>2026-04-26T16:44:26.746Z</time></trkpt><trkpt lat="45.7325136" lon="11.7333515"><ele>97.99999999999999</ele><time>2026-04-26T16:44:27.742Z</time></trkpt><trkpt lat="45.7324245" lon="11.733375"><ele>98.0</ele><time>2026-04-26T16:44:28.751Z</time></trkpt><trkpt lat="45.7323289" lon="11.7333932"><ele>98.0</ele><time>2026-04-26T16:44:29.757Z</time></trkpt><trkpt lat="45.7322292" lon="11.7334134"><ele>98.0</ele><time>2026-04-26T16:44:30.764Z</time></trkpt><trkpt lat="45.7321267" lon="11.7334344"><ele>98.0</ele><time>2026-04-26T16:44:31.749Z</time></trkpt><trkpt lat="45.7320182" lon="11.7334569"><ele>98.0</ele><time>2026-04-26T16:44:32.743Z</time></trkpt><trkpt lat="45.7319071" lon="11.7334803"><ele>98.0</ele><time>2026-04-26T16:44:33.758Z</time></trkpt><trkpt lat="45.731796" lon="11.7335024"><ele>98.0</ele><time>2026-04-26T16:44:34.747Z</time></trkpt><trkpt lat="45.7316828" lon="11.733522"><ele>98.0</ele><time>2026-04-26T16:44:35.754Z</time></trkpt><trkpt lat="45.7315698" lon="11.7335364"><ele>98.0</ele><time>2026-04-26T16:44:36.763Z</time></trkpt><trkpt lat="45.73146" lon="11.7335427"><ele>98.0</ele><time>2026-04-26T16:44:37.751Z</time></trkpt><trkpt lat="45.7313448" lon="11.7335442"><ele>98.0</ele><time>2026-04-26T16:44:38.744Z</time></trkpt><trkpt lat="45.7312279" lon="11.7335445"><ele>98.0</ele><time>2026-04-26T16:44:39.74Z</time></trkpt><trkpt lat="45.7311162" lon="11.7335458"><ele>98.0</ele><time>2026-04-26T16:44:40.75Z</time></trkpt><trkpt lat="45.7309997" lon="11.7335451"><ele>98.0</ele><time>2026-04-26T16:44:41.769Z</time></trkpt><trkpt lat="45.730884" lon="11.7335435"><ele>97.83333333333333</ele><time>2026-04-26T16:44:42.762Z</time></trkpt><trkpt lat="45.7307703" lon="11.7335387"><ele>97.66666666666666</ele><time>2026-04-26T16:44:43.751Z</time></trkpt><trkpt lat="45.7306677" lon="11.7335348"><ele>97.5</ele><time>2026-04-26T16:44:44.751Z</time></trkpt><trkpt lat="45.7305787" lon="11.7335286"><ele>97.33333333333334</ele><time>2026-04-26T16:44:45.76Z</time></trkpt><trkpt lat="45.7305023" lon="11.7335255"><ele>97.16666666666667</ele><time>2026-04-26T16:44:46.756Z</time></trkpt><trkpt lat="45.7304394" lon="11.7335216"><ele>97.0</ele><time>2026-04-26T16:44:47.761Z</time></trkpt><trkpt lat="45.7303196" lon="11.7335197"><ele>97.0</ele><time>2026-04-26T16:44:49.753Z</time></trkpt><trkpt lat="45.7302326" lon="11.7335188"><ele>97.0</ele><time>2026-04-26T16:44:50.756Z</time></trkpt><trkpt lat="45.7301288" lon="11.7335215"><ele>97.0</ele><time>2026-04-26T16:44:51.749Z</time></trkpt><trkpt lat="45.7300171" lon="11.7335306"><ele>97.0</ele><time>2026-04-26T16:44:52.746Z</time></trkpt><trkpt lat="45.7299075" lon="11.7335465"><ele>97.0</ele><time>2026-04-26T16:44:53.747Z</time></trkpt><trkpt lat="45.7297915" lon="11.7335749"><ele>97.0</ele><time>2026-04-26T16:44:54.759Z</time></trkpt><trkpt lat="45.7296689" lon="11.7336183"><ele>97.0</ele><time>2026-04-26T16:44:55.735Z</time></trkpt><trkpt lat="45.7295424" lon="11.7336744"><ele>97.0</ele><time>2026-04-26T16:44:56.745Z</time></trkpt><trkpt lat="45.7294151" lon="11.7337345"><ele>97.0</ele><time>2026-04-26T16:44:57.748Z</time></trkpt><trkpt lat="45.7292828" lon="11.7337965"><ele>96.75</ele><time>2026-04-26T16:44:58.755Z</time></trkpt><trkpt lat="45.7291423" lon="11.7338619"><ele>96.5</ele><time>2026-04-26T16:44:59.75Z</time></trkpt><trkpt lat="45.7290048" lon="11.7339262"><ele>96.25</ele><time>2026-04-26T16:45:00.752Z</time></trkpt><trkpt lat="45.7288715" lon="11.7339887"><ele>96.0</ele><time>2026-04-26T16:45:01.75Z</time></trkpt><trkpt lat="45.7287396" lon="11.7340517"><ele>96.0</ele><time>2026-04-26T16:45:02.732Z</time></trkpt><trkpt lat="45.7286093" lon="11.7341152"><ele>96.0</ele><time>2026-04-26T16:45:03.76Z</time></trkpt><trkpt lat="45.7284759" lon="11.7341728"><ele>96.0</ele><time>2026-04-26T16:45:04.761Z</time></trkpt><trkpt lat="45.7283374" lon="11.7342101"><ele>96.0</ele><time>2026-04-26T16:45:05.747Z</time></trkpt><trkpt lat="45.7281944" lon="11.7342268"><ele>96.0</ele><time>2026-04-26T16:45:06.738Z</time></trkpt><trkpt lat="45.7280441" lon="11.7342371"><ele>96.0</ele><time>2026-04-26T16:45:07.737Z</time></trkpt><trkpt lat="45.7278875" lon="11.7342476"><ele>96.0</ele><time>2026-04-26T16:45:08.764Z</time></trkpt><trkpt lat="45.7277382" lon="11.7342556"><ele>96.25</ele><time>2026-04-26T16:45:09.747Z</time></trkpt><trkpt lat="45.7276001" lon="11.7342616"><ele>96.5</ele><time>2026-04-26T16:45:10.751Z</time></trkpt><trkpt lat="45.7274694" lon="11.734266"><ele>96.75</ele><time>2026-04-26T16:45:11.738Z</time></trkpt><trkpt lat="45.7273478" lon="11.7342684"><ele>97.0</ele><time>2026-04-26T16:45:12.767Z</time></trkpt><trkpt lat="45.7272434" lon="11.7342655"><ele>97.0</ele><time>2026-04-26T16:45:13.753Z</time></trkpt><trkpt lat="45.7271566" lon="11.7342486"><ele>97.0</ele><time>2026-04-26T16:45:14.746Z</time></trkpt><trkpt lat="45.7270784" lon="11.7342071"><ele>97.0</ele><time>2026-04-26T16:45:15.755Z</time></trkpt><trkpt lat="45.7270082" lon="11.7341311"><ele>97.0</ele><time>2026-04-26T16:45:16.76Z</time></trkpt><trkpt lat="45.7269488" lon="11.7340247"><ele>97.0</ele><time>2026-04-26T16:45:17.749Z</time></trkpt><trkpt lat="45.7268856" lon="11.7339035"><ele>97.0</ele><time>2026-04-26T16:45:18.75Z</time></trkpt><trkpt lat="45.726803" lon="11.7337932"><ele>97.0</ele><time>2026-04-26T16:45:19.734Z</time></trkpt><trkpt lat="45.7266986" lon="11.73371"><ele>97.0</ele><time>2026-04-26T16:45:20.754Z</time></trkpt><trkpt lat="45.7265758" lon="11.7336515"><ele>97.0</ele><time>2026-04-26T16:45:21.744Z</time></trkpt><trkpt lat="45.7264383" lon="11.7336059"><ele>97.0</ele><time>2026-04-26T16:45:22.735Z</time></trkpt><trkpt lat="45.7262878" lon="11.7335606"><ele>97.0</ele><time>2026-04-26T16:45:23.756Z</time></trkpt><trkpt lat="45.7261377" lon="11.7335172"><ele>97.0</ele><time>2026-04-26T16:45:24.738Z</time></trkpt><trkpt lat="45.7259826" lon="11.7334719"><ele>95.66666666666667</ele><time>2026-04-26T16:45:25.758Z</time></trkpt><trkpt lat="45.7258233" lon="11.7334234"><ele>94.33333333333334</ele><time>2026-04-26T16:45:26.748Z</time></trkpt><trkpt lat="45.7256567" lon="11.7333734"><ele>93.0</ele><time>2026-04-26T16:45:27.774Z</time></trkpt><trkpt lat="45.7254779" lon="11.7333193"><ele>93.0</ele><time>2026-04-26T16:45:28.752Z</time></trkpt><trkpt lat="45.7252919" lon="11.7332626"><ele>93.0</ele><time>2026-04-26T16:45:29.749Z</time></trkpt><trkpt lat="45.7251078" lon="11.7332069"><ele>93.0</ele><time>2026-04-26T16:45:30.77Z</time></trkpt><trkpt lat="45.7249273" lon="11.7331531"><ele>94.0</ele><time>2026-04-26T16:45:31.748Z</time></trkpt><trkpt lat="45.7247581" lon="11.7331039"><ele>95.0</ele><time>2026-04-26T16:45:32.767Z</time></trkpt><trkpt lat="45.7245986" lon="11.7330591"><ele>96.0</ele><time>2026-04-26T16:45:33.738Z</time></trkpt><trkpt lat="45.7244403" lon="11.7330251"><ele>95.33333333333333</ele><time>2026-04-26T16:45:34.756Z</time></trkpt><trkpt lat="45.7242808" lon="11.7330096"><ele>94.66666666666666</ele><time>2026-04-26T16:45:35.761Z</time></trkpt><trkpt lat="45.7241284" lon="11.7330129"><ele>94.0</ele><time>2026-04-26T16:45:36.76Z</time></trkpt><trkpt lat="45.7239774" lon="11.7330294"><ele>94.0</ele><time>2026-04-26T16:45:37.742Z</time></trkpt><trkpt lat="45.723822" lon="11.7330595"><ele>94.0</ele><time>2026-04-26T16:45:38.737Z</time></trkpt><trkpt lat="45.7236606" lon="11.7330923"><ele>94.0</ele><time>2026-04-26T16:45:39.765Z</time></trkpt><trkpt lat="45.7234934" lon="11.7331181"><ele>94.0</ele><time>2026-04-26T16:45:40.761Z</time></trkpt><trkpt lat="45.7233205" lon="11.7331442"><ele>94.0</ele><time>2026-04-26T16:45:41.754Z</time></trkpt><trkpt lat="45.7231442" lon="11.7331714"><ele>94.0</ele><time>2026-04-26T16:45:42.75Z</time></trkpt><trkpt lat="45.7229687" lon="11.7331993"><ele>94.0</ele><time>2026-04-26T16:45:43.737Z</time></trkpt><trkpt lat="45.7227964" lon="11.7332217"><ele>94.0</ele><time>2026-04-26T16:45:44.754Z</time></trkpt><trkpt lat="45.7226174" lon="11.7332318"><ele>94.0</ele><time>2026-04-26T16:45:45.743Z</time></trkpt><trkpt lat="45.7224425" lon="11.7332333"><ele>93.33333333333333</ele><time>2026-04-26T16:45:46.753Z</time></trkpt><trkpt lat="45.7222665" lon="11.7332323"><ele>92.66666666666667</ele><time>2026-04-26T16:45:47.753Z</time></trkpt><trkpt lat="45.7220968" lon="11.733229"><ele>92.0</ele><time>2026-04-26T16:45:48.758Z</time></trkpt><trkpt lat="45.721931" lon="11.7332291"><ele>91.5</ele><time>2026-04-26T16:45:49.734Z</time></trkpt><trkpt lat="45.7217757" lon="11.7332301"><ele>91.0</ele><time>2026-04-26T16:45:50.748Z</time></trkpt><trkpt lat="45.72163" lon="11.7332295"><ele>90.5</ele><time>2026-04-26T16:45:51.74Z</time></trkpt><trkpt lat="45.721495" lon="11.7332186"><ele>90.0</ele><time>2026-04-26T16:45:52.763Z</time></trkpt><trkpt lat="45.7213761" lon="11.7331948"><ele>90.0</ele><time>2026-04-26T16:45:53.765Z</time></trkpt><trkpt lat="45.7212761" lon="11.7331549"><ele>90.0</ele><time>2026-04-26T16:45:54.738Z</time></trkpt><trkpt lat="45.7212052" lon="11.7331067"><ele>90.0</ele><time>2026-04-26T16:45:55.736Z</time></trkpt><trkpt lat="45.7211517" lon="11.7330434"><ele>90.0</ele><time>2026-04-26T16:45:57.74Z</time></trkpt><trkpt lat="45.7210994" lon="11.7329382"><ele>90.0</ele><time>2026-04-26T16:45:59.746Z</time></trkpt><trkpt lat="45.7210451" lon="11.7328698"><ele>90.0</ele><time>2026-04-26T16:46:00.741Z</time></trkpt><trkpt lat="45.7209793" lon="11.7328463"><ele>90.5</ele><time>2026-04-26T16:46:01.746Z</time></trkpt><trkpt lat="45.7209073" lon="11.7328686"><ele>91.0</ele><time>2026-04-26T16:46:02.753Z</time></trkpt><trkpt lat="45.7208343" lon="11.7329188"><ele>91.5</ele><time>2026-04-26T16:46:03.75Z</time></trkpt><trkpt lat="45.7207515" lon="11.732957"><ele>92.0</ele><time>2026-04-26T16:46:04.739Z</time></trkpt><trkpt lat="45.7206569" lon="11.7329621"><ele>92.5</ele><time>2026-04-26T16:46:05.752Z</time></trkpt><trkpt lat="45.7205487" lon="11.7329484"><ele>93.0</ele><time>2026-04-26T16:46:06.741Z</time></trkpt><trkpt lat="45.7204275" lon="11.7329316"><ele>93.0</ele><time>2026-04-26T16:46:07.737Z</time></trkpt><trkpt lat="45.7202974" lon="11.7329168"><ele>93.0</ele><time>2026-04-26T16:46:08.751Z</time></trkpt><trkpt lat="45.7201588" lon="11.7328996"><ele>93.0</ele><time>2026-04-26T16:46:09.749Z</time></trkpt><trkpt lat="45.7200115" lon="11.7328813"><ele>93.0</ele><time>2026-04-26T16:46:10.751Z</time></trkpt><trkpt lat="45.719855" lon="11.7328618"><ele>93.0</ele><time>2026-04-26T16:46:11.742Z</time></trkpt><trkpt lat="45.7196948" lon="11.7328389"><ele>93.0</ele><time>2026-04-26T16:46:12.74Z</time></trkpt><trkpt lat="45.7195315" lon="11.7328192"><ele>93.0</ele><time>2026-04-26T16:46:13.738Z</time></trkpt><trkpt lat="45.7193666" lon="11.732797"><ele>92.33333333333333</ele><time>2026-04-26T16:46:14.739Z</time></trkpt><trkpt lat="45.7191976" lon="11.7327713"><ele>91.66666666666666</ele><time>2026-04-26T16:46:15.75Z</time></trkpt><trkpt lat="45.7190276" lon="11.7327521"><ele>91.0</ele><time>2026-04-26T16:46:16.745Z</time></trkpt><trkpt lat="45.7188559" lon="11.7327283"><ele>91.0</ele><time>2026-04-26T16:46:17.772Z</time></trkpt><trkpt lat="45.7186815" lon="11.7327078"><ele>91.0</ele><time>2026-04-26T16:46:18.741Z</time></trkpt><trkpt lat="45.718504" lon="11.7326894"><ele>91.0</ele><time>2026-04-26T16:46:19.75Z</time></trkpt><trkpt lat="45.7183242" lon="11.7326783"><ele>90.66666666666666</ele><time>2026-04-26T16:46:20.761Z</time></trkpt><trkpt lat="45.7181429" lon="11.7326749"><ele>90.33333333333333</ele><time>2026-04-26T16:46:21.748Z</time></trkpt><trkpt lat="45.7179593" lon="11.732677"><ele>90.0</ele><time>2026-04-26T16:46:22.753Z</time></trkpt><trkpt lat="45.7177735" lon="11.7326774"><ele>90.0</ele><time>2026-04-26T16:46:23.752Z</time></trkpt><trkpt lat="45.7175854" lon="11.7326744"><ele>90.0</ele><time>2026-04-26T16:46:24.741Z</time></trkpt><trkpt lat="45.7173949" lon="11.7326622"><ele>90.0</ele><time>2026-04-26T16:46:25.763Z</time></trkpt><trkpt lat="45.7172026" lon="11.7326349"><ele>90.0</ele><time>2026-04-26T16:46:26.75Z</time></trkpt><trkpt lat="45.7170094" lon="11.732594"><ele>90.0</ele><time>2026-04-26T16:46:27.749Z</time></trkpt><trkpt lat="45.7168153" lon="11.7325432"><ele>90.0</ele><time>2026-04-26T16:46:28.742Z</time></trkpt><trkpt lat="45.7166195" lon="11.7324882"><ele>90.0</ele><time>2026-04-26T16:46:29.752Z</time></trkpt><trkpt lat="45.7164235" lon="11.7324318"><ele>90.0</ele><time>2026-04-26T16:46:30.754Z</time></trkpt><trkpt lat="45.7162276" lon="11.7323757"><ele>90.0</ele><time>2026-04-26T16:46:31.752Z</time></trkpt><trkpt lat="45.7160314" lon="11.7323202"><ele>90.0</ele><time>2026-04-26T16:46:32.763Z</time></trkpt><trkpt lat="45.715835" lon="11.7322638"><ele>90.0</ele><time>2026-04-26T16:46:33.76Z</time></trkpt><trkpt lat="45.7156366" lon="11.7322054"><ele>90.0</ele><time>2026-04-26T16:46:34.748Z</time></trkpt><trkpt lat="45.7154356" lon="11.7321456"><ele>89.33333333333333</ele><time>2026-04-26T16:46:35.756Z</time></trkpt><trkpt lat="45.7152339" lon="11.7320863"><ele>88.66666666666666</ele><time>2026-04-26T16:46:36.748Z</time></trkpt><trkpt lat="45.7150327" lon="11.7320281"><ele>88.0</ele><time>2026-04-26T16:46:37.738Z</time></trkpt><trkpt lat="45.7148327" lon="11.7319686"><ele>88.0</ele><time>2026-04-26T16:46:38.756Z</time></trkpt><trkpt lat="45.7146347" lon="11.7319095"><ele>88.0</ele><time>2026-04-26T16:46:39.743Z</time></trkpt><trkpt lat="45.7144396" lon="11.7318507"><ele>88.0</ele><time>2026-04-26T16:46:40.751Z</time></trkpt><trkpt lat="45.7142467" lon="11.7317937"><ele>87.66666666666666</ele><time>2026-04-26T16:46:41.756Z</time></trkpt><trkpt lat="45.7140535" lon="11.7317397"><ele>87.33333333333333</ele><time>2026-04-26T16:46:42.741Z</time></trkpt><trkpt lat="45.7138598" lon="11.7316889"><ele>87.0</ele><time>2026-04-26T16:46:43.741Z</time></trkpt><trkpt lat="45.7136642" lon="11.7316417"><ele>87.33333333333333</ele><time>2026-04-26T16:46:44.755Z</time></trkpt><trkpt lat="45.7134688" lon="11.7315992"><ele>87.66666666666666</ele><time>2026-04-26T16:46:45.755Z</time></trkpt><trkpt lat="45.713272" lon="11.7315595"><ele>88.0</ele><time>2026-04-26T16:46:46.758Z</time></trkpt><trkpt lat="45.7130754" lon="11.7315249"><ele>88.0</ele><time>2026-04-26T16:46:47.755Z</time></trkpt><trkpt lat="45.71288" lon="11.7315048"><ele>88.0</ele><time>2026-04-26T16:46:48.731Z</time></trkpt><trkpt lat="45.7126808" lon="11.7315012"><ele>88.0</ele><time>2026-04-26T16:46:49.761Z</time></trkpt><trkpt lat="45.7124881" lon="11.7315106"><ele>87.66666666666666</ele><time>2026-04-26T16:46:50.751Z</time></trkpt><trkpt lat="45.7122954" lon="11.7315257"><ele>87.33333333333333</ele><time>2026-04-26T16:46:51.751Z</time></trkpt><trkpt lat="45.7121035" lon="11.7315414"><ele>87.0</ele><time>2026-04-26T16:46:52.752Z</time></trkpt><trkpt lat="45.7119121" lon="11.7315554"><ele>86.33333333333333</ele><time>2026-04-26T16:46:53.759Z</time></trkpt><trkpt lat="45.7117242" lon="11.7315685"><ele>85.66666666666666</ele><time>2026-04-26T16:46:54.754Z</time></trkpt><trkpt lat="45.7115454" lon="11.7315803"><ele>85.0</ele><time>2026-04-26T16:46:55.749Z</time></trkpt><trkpt lat="45.7113803" lon="11.7315911"><ele>85.0</ele><time>2026-04-26T16:46:56.74Z</time></trkpt><trkpt lat="45.7112252" lon="11.7316016"><ele>85.0</ele><time>2026-04-26T16:46:57.76Z</time></trkpt><trkpt lat="45.7110829" lon="11.7316111"><ele>85.0</ele><time>2026-04-26T16:46:58.739Z</time></trkpt><trkpt lat="45.7109469" lon="11.7316202"><ele>85.0</ele><time>2026-04-26T16:46:59.74Z</time></trkpt><trkpt lat="45.710814" lon="11.731629"><ele>85.0</ele><time>2026-04-26T16:47:00.765Z</time></trkpt><trkpt lat="45.710686" lon="11.7316379"><ele>85.0</ele><time>2026-04-26T16:47:01.751Z</time></trkpt><trkpt lat="45.7105611" lon="11.7316453"><ele>85.0</ele><time>2026-04-26T16:47:02.757Z</time></trkpt><trkpt lat="45.7104407" lon="11.7316514"><ele>85.0</ele><time>2026-04-26T16:47:03.751Z</time></trkpt><trkpt lat="45.7103231" lon="11.7316565"><ele>85.25</ele><time>2026-04-26T16:47:04.741Z</time></trkpt><trkpt lat="45.7102028" lon="11.7316624"><ele>85.5</ele><time>2026-04-26T16:47:05.751Z</time></trkpt><trkpt lat="45.7100797" lon="11.7316709"><ele>85.75</ele><time>2026-04-26T16:47:06.745Z</time></trkpt><trkpt lat="45.7099517" lon="11.7316788"><ele>86.0</ele><time>2026-04-26T16:47:07.748Z</time></trkpt><trkpt lat="45.7098246" lon="11.7316846"><ele>86.0</ele><time>2026-04-26T16:47:08.75Z</time></trkpt><trkpt lat="45.7096933" lon="11.7316912"><ele>86.0</ele><time>2026-04-26T16:47:09.763Z</time></trkpt><trkpt lat="45.7095639" lon="11.7317031"><ele>86.0</ele><time>2026-04-26T16:47:10.758Z</time></trkpt><trkpt lat="45.7094379" lon="11.7317115"><ele>86.0</ele><time>2026-04-26T16:47:11.75Z</time></trkpt><trkpt lat="45.7093186" lon="11.7317175"><ele>85.5</ele><time>2026-04-26T16:47:12.749Z</time></trkpt><trkpt lat="45.709204" lon="11.7317222"><ele>85.0</ele><time>2026-04-26T16:47:13.754Z</time></trkpt><trkpt lat="45.7090961" lon="11.7317278"><ele>84.5</ele><time>2026-04-26T16:47:14.742Z</time></trkpt><trkpt lat="45.7089823" lon="11.7317363"><ele>84.0</ele><time>2026-04-26T16:47:15.749Z</time></trkpt><trkpt lat="45.7088628" lon="11.7317518"><ele>84.0</ele><time>2026-04-26T16:47:16.742Z</time></trkpt><trkpt lat="45.7087404" lon="11.7317665"><ele>84.0</ele><time>2026-04-26T16:47:17.754Z</time></trkpt><trkpt lat="45.7086169" lon="11.7317866"><ele>84.0</ele><time>2026-04-26T16:47:18.761Z</time></trkpt><trkpt lat="45.7084958" lon="11.7318027"><ele>84.0</ele><time>2026-04-26T16:47:19.753Z</time></trkpt><trkpt lat="45.7083799" lon="11.731819"><ele>84.0</ele><time>2026-04-26T16:47:20.752Z</time></trkpt><trkpt lat="45.7082689" lon="11.7318291"><ele>84.0</ele><time>2026-04-26T16:47:21.746Z</time></trkpt><trkpt lat="45.7081639" lon="11.7318438"><ele>84.0</ele><time>2026-04-26T16:47:22.739Z</time></trkpt><trkpt lat="45.708064" lon="11.7318593"><ele>84.0</ele><time>2026-04-26T16:47:23.752Z</time></trkpt><trkpt lat="45.7079579" lon="11.7318874"><ele>84.0</ele><time>2026-04-26T16:47:24.749Z</time></trkpt><trkpt lat="45.7078628" lon="11.7319256"><ele>84.0</ele><time>2026-04-26T16:47:25.752Z</time></trkpt><trkpt lat="45.7077624" lon="11.7319632"><ele>84.0</ele><time>2026-04-26T16:47:26.743Z</time></trkpt><trkpt lat="45.7076596" lon="11.7319971"><ele>84.0</ele><time>2026-04-26T16:47:27.742Z</time></trkpt><trkpt lat="45.7075634" lon="11.7320233"><ele>84.0</ele><time>2026-04-26T16:47:28.75Z</time></trkpt><trkpt lat="45.7074634" lon="11.7320457"><ele>84.0</ele><time>2026-04-26T16:47:29.754Z</time></trkpt><trkpt lat="45.7073562" lon="11.7320644"><ele>83.75</ele><time>2026-04-26T16:47:30.751Z</time></trkpt><trkpt lat="45.7072448" lon="11.7320853"><ele>83.5</ele><time>2026-04-26T16:47:31.752Z</time></trkpt><trkpt lat="45.7071287" lon="11.7321046"><ele>83.25</ele><time>2026-04-26T16:47:32.741Z</time></trkpt><trkpt lat="45.7070109" lon="11.7321244"><ele>83.0</ele><time>2026-04-26T16:47:33.751Z</time></trkpt><trkpt lat="45.7068855" lon="11.7321454"><ele>82.75</ele><time>2026-04-26T16:47:34.754Z</time></trkpt><trkpt lat="45.7067538" lon="11.7321707"><ele>82.5</ele><time>2026-04-26T16:47:35.752Z</time></trkpt><trkpt lat="45.7066131" lon="11.7322022"><ele>82.25</ele><time>2026-04-26T16:47:36.769Z</time></trkpt><trkpt lat="45.706469" lon="11.7322344"><ele>82.0</ele><time>2026-04-26T16:47:37.756Z</time></trkpt><trkpt lat="45.7063207" lon="11.7322741"><ele>82.0</ele><time>2026-04-26T16:47:38.751Z</time></trkpt><trkpt lat="45.7061688" lon="11.7323192"><ele>82.0</ele><time>2026-04-26T16:47:39.735Z</time></trkpt><trkpt lat="45.7060164" lon="11.732365"><ele>82.0</ele><time>2026-04-26T16:47:40.749Z</time></trkpt><trkpt lat="45.7058655" lon="11.7324103"><ele>81.66666666666666</ele><time>2026-04-26T16:47:41.744Z</time></trkpt><trkpt lat="45.705714" lon="11.7324547"><ele>81.33333333333333</ele><time>2026-04-26T16:47:42.761Z</time></trkpt><trkpt lat="45.7055597" lon="11.7325004"><ele>81.0</ele><time>2026-04-26T16:47:43.748Z</time></trkpt><trkpt lat="45.7054023" lon="11.7325468"><ele>80.66666666666667</ele><time>2026-04-26T16:47:44.75Z</time></trkpt><trkpt lat="45.7052417" lon="11.7325936"><ele>80.33333333333334</ele><time>2026-04-26T16:47:45.771Z</time></trkpt><trkpt lat="45.7050783" lon="11.73264"><ele>80.0</ele><time>2026-04-26T16:47:46.754Z</time></trkpt><trkpt lat="45.7049107" lon="11.7326853"><ele>80.0</ele><time>2026-04-26T16:47:47.753Z</time></trkpt><trkpt lat="45.704739" lon="11.7327267"><ele>80.0</ele><time>2026-04-26T16:47:48.738Z</time></trkpt><trkpt lat="45.704563" lon="11.7327587"><ele>80.0</ele><time>2026-04-26T16:47:49.733Z</time></trkpt><trkpt lat="45.7043852" lon="11.7327838"><ele>80.0</ele><time>2026-04-26T16:47:50.751Z</time></trkpt><trkpt lat="45.704206" lon="11.7328046"><ele>80.0</ele><time>2026-04-26T16:47:51.755Z</time></trkpt><trkpt lat="45.7040233" lon="11.7328245"><ele>80.0</ele><time>2026-04-26T16:47:52.754Z</time></trkpt><trkpt lat="45.7038372" lon="11.732845"><ele>80.0</ele><time>2026-04-26T16:47:53.751Z</time></trkpt><trkpt lat="45.703649" lon="11.7328644"><ele>80.0</ele><time>2026-04-26T16:47:54.756Z</time></trkpt><trkpt lat="45.7034601" lon="11.7328836"><ele>80.0</ele><time>2026-04-26T16:47:55.752Z</time></trkpt><trkpt lat="45.7032708" lon="11.7329042"><ele>79.66666666666667</ele><time>2026-04-26T16:47:56.758Z</time></trkpt><trkpt lat="45.7030809" lon="11.7329238"><ele>79.33333333333333</ele><time>2026-04-26T16:47:57.74Z</time></trkpt><trkpt lat="45.7028894" lon="11.7329435"><ele>79.0</ele><time>2026-04-26T16:47:58.757Z</time></trkpt><trkpt lat="45.7026953" lon="11.7329631"><ele>78.66666666666666</ele><time>2026-04-26T16:47:59.757Z</time></trkpt><trkpt lat="45.7025018" lon="11.7329804"><ele>78.33333333333333</ele><time>2026-04-26T16:48:00.748Z</time></trkpt><trkpt lat="45.7023126" lon="11.7329969"><ele>78.0</ele><time>2026-04-26T16:48:01.757Z</time></trkpt><trkpt lat="45.7021279" lon="11.7330104"><ele>78.0</ele><time>2026-04-26T16:48:02.764Z</time></trkpt><trkpt lat="45.7019435" lon="11.7330209"><ele>78.0</ele><time>2026-04-26T16:48:03.756Z</time></trkpt><trkpt lat="45.7017579" lon="11.7330283"><ele>78.0</ele><time>2026-04-26T16:48:04.756Z</time></trkpt><trkpt lat="45.7015688" lon="11.7330339"><ele>78.0</ele><time>2026-04-26T16:48:05.753Z</time></trkpt><trkpt lat="45.701375" lon="11.7330391"><ele>78.0</ele><time>2026-04-26T16:48:06.736Z</time></trkpt><trkpt lat="45.7011772" lon="11.7330427"><ele>78.0</ele><time>2026-04-26T16:48:07.749Z</time></trkpt><trkpt lat="45.7009736" lon="11.7330405"><ele>78.0</ele><time>2026-04-26T16:48:08.757Z</time></trkpt><trkpt lat="45.7007705" lon="11.7330306"><ele>78.0</ele><time>2026-04-26T16:48:09.756Z</time></trkpt><trkpt lat="45.7005709" lon="11.7330124"><ele>78.0</ele><time>2026-04-26T16:48:10.748Z</time></trkpt><trkpt lat="45.7003713" lon="11.7329862"><ele>78.33333333333333</ele><time>2026-04-26T16:48:11.762Z</time></trkpt><trkpt lat="45.7001705" lon="11.7329549"><ele>78.66666666666666</ele><time>2026-04-26T16:48:12.749Z</time></trkpt><trkpt lat="45.6999687" lon="11.7329194"><ele>79.0</ele><time>2026-04-26T16:48:13.772Z</time></trkpt><trkpt lat="45.699766" lon="11.7328841"><ele>79.0</ele><time>2026-04-26T16:48:14.768Z</time></trkpt><trkpt lat="45.6995621" lon="11.7328502"><ele>79.0</ele><time>2026-04-26T16:48:15.754Z</time></trkpt><trkpt lat="45.6993578" lon="11.7328153"><ele>79.0</ele><time>2026-04-26T16:48:16.755Z</time></trkpt><trkpt lat="45.6991582" lon="11.7327835"><ele>79.0</ele><time>2026-04-26T16:48:17.751Z</time></trkpt><trkpt lat="45.6989632" lon="11.7327543"><ele>79.0</ele><time>2026-04-26T16:48:18.735Z</time></trkpt><trkpt lat="45.6987731" lon="11.7327237"><ele>79.0</ele><time>2026-04-26T16:48:19.747Z</time></trkpt><trkpt lat="45.6985899" lon="11.7326933"><ele>78.66666666666666</ele><time>2026-04-26T16:48:20.748Z</time></trkpt><trkpt lat="45.6984071" lon="11.7326672"><ele>78.33333333333333</ele><time>2026-04-26T16:48:21.753Z</time></trkpt><trkpt lat="45.6982157" lon="11.7326522"><ele>78.0</ele><time>2026-04-26T16:48:22.748Z</time></trkpt><trkpt lat="45.6980081" lon="11.7326423"><ele>78.0</ele><time>2026-04-26T16:48:23.737Z</time></trkpt><trkpt lat="45.6977785" lon="11.7326482"><ele>78.0</ele><time>2026-04-26T16:48:24.749Z</time></trkpt><trkpt lat="45.6975302" lon="11.7326278"><ele>78.0</ele><time>2026-04-26T16:48:25.754Z</time></trkpt><trkpt lat="45.6972995" lon="11.732609"><ele>78.0</ele><time>2026-04-26T16:48:26.751Z</time></trkpt><trkpt lat="45.6970842" lon="11.7325896"><ele>78.0</ele><time>2026-04-26T16:48:27.73Z</time></trkpt><trkpt lat="45.6968802" lon="11.7325805"><ele>77.33333333333333</ele><time>2026-04-26T16:48:28.729Z</time></trkpt><trkpt lat="45.6966799" lon="11.7325772"><ele>76.66666666666666</ele><time>2026-04-26T16:48:29.767Z</time></trkpt><trkpt lat="45.6964765" lon="11.7325822"><ele>76.0</ele><time>2026-04-26T16:48:30.736Z</time></trkpt><trkpt lat="45.6962721" lon="11.732589"><ele>75.66666666666666</ele><time>2026-04-26T16:48:31.747Z</time></trkpt><trkpt lat="45.6960759" lon="11.7325911"><ele>75.33333333333333</ele><time>2026-04-26T16:48:32.752Z</time></trkpt><trkpt lat="45.695893" lon="11.7325884"><ele>75.0</ele><time>2026-04-26T16:48:33.743Z</time></trkpt><trkpt lat="45.6957293" lon="11.7325763"><ele>75.0</ele><time>2026-04-26T16:48:34.747Z</time></trkpt><trkpt lat="45.6955849" lon="11.7325533"><ele>75.0</ele><time>2026-04-26T16:48:35.732Z</time></trkpt><trkpt lat="45.6954608" lon="11.7325154"><ele>75.0</ele><time>2026-04-26T16:48:36.749Z</time></trkpt><trkpt lat="45.6953529" lon="11.7324583"><ele>75.0</ele><time>2026-04-26T16:48:37.752Z</time></trkpt><trkpt lat="45.6952591" lon="11.7323826"><ele>75.2</ele><time>2026-04-26T16:48:38.751Z</time></trkpt><trkpt lat="45.6951734" lon="11.7323125"><ele>75.4</ele><time>2026-04-26T16:48:39.744Z</time></trkpt><trkpt lat="45.6950816" lon="11.7322857"><ele>75.6</ele><time>2026-04-26T16:48:40.749Z</time></trkpt><trkpt lat="45.6949825" lon="11.7323171"><ele>75.8</ele><time>2026-04-26T16:48:41.743Z</time></trkpt><trkpt lat="45.6948778" lon="11.7323981"><ele>76.0</ele><time>2026-04-26T16:48:42.746Z</time></trkpt><trkpt lat="45.6947554" lon="11.7324832"><ele>76.0</ele><time>2026-04-26T16:48:43.75Z</time></trkpt><trkpt lat="45.6946079" lon="11.7325449"><ele>76.0</ele><time>2026-04-26T16:48:44.756Z</time></trkpt><trkpt lat="45.6944342" lon="11.7325732"><ele>76.0</ele><time>2026-04-26T16:48:45.753Z</time></trkpt><trkpt lat="45.6942406" lon="11.7325845"><ele>75.66666666666666</ele><time>2026-04-26T16:48:46.749Z</time></trkpt><trkpt lat="45.6940247" lon="11.732572"><ele>75.33333333333333</ele><time>2026-04-26T16:48:47.748Z</time></trkpt><trkpt lat="45.6937941" lon="11.7325721"><ele>75.0</ele><time>2026-04-26T16:48:48.753Z</time></trkpt><trkpt lat="45.6935495" lon="11.7325911"><ele>75.0</ele><time>2026-04-26T16:48:49.744Z</time></trkpt><trkpt lat="45.6933027" lon="11.7326156"><ele>75.0</ele><time>2026-04-26T16:48:50.761Z</time></trkpt><trkpt lat="45.6930666" lon="11.7326432"><ele>75.0</ele><time>2026-04-26T16:48:51.755Z</time></trkpt><trkpt lat="45.6928443" lon="11.7326708"><ele>75.0</ele><time>2026-04-26T16:48:52.75Z</time></trkpt><trkpt lat="45.6926357" lon="11.7326944"><ele>75.0</ele><time>2026-04-26T16:48:53.756Z</time></trkpt><trkpt lat="45.6924354" lon="11.7327195"><ele>75.33333333333333</ele><time>2026-04-26T16:48:54.75Z</time></trkpt><trkpt lat="45.6922367" lon="11.7327524"><ele>75.66666666666666</ele><time>2026-04-26T16:48:55.765Z</time></trkpt><trkpt lat="45.6920422" lon="11.7328064"><ele>76.0</ele><time>2026-04-26T16:48:56.753Z</time></trkpt><trkpt lat="45.6918499" lon="11.7328799"><ele>75.0</ele><time>2026-04-26T16:48:57.747Z</time></trkpt><trkpt lat="45.6916572" lon="11.7329557"><ele>74.0</ele><time>2026-04-26T16:48:58.753Z</time></trkpt><trkpt lat="45.6914513" lon="11.7330112"><ele>73.0</ele><time>2026-04-26T16:48:59.758Z</time></trkpt><trkpt lat="45.6912446" lon="11.7330393"><ele>73.0</ele><time>2026-04-26T16:49:00.746Z</time></trkpt><trkpt lat="45.6910261" lon="11.7330607"><ele>73.0</ele><time>2026-04-26T16:49:01.754Z</time></trkpt><trkpt lat="45.6908044" lon="11.7330811"><ele>73.0</ele><time>2026-04-26T16:49:02.744Z</time></trkpt><trkpt lat="45.6905822" lon="11.733106"><ele>73.0</ele><time>2026-04-26T16:49:03.755Z</time></trkpt><trkpt lat="45.6903732" lon="11.7331258"><ele>73.0</ele><time>2026-04-26T16:49:04.757Z</time></trkpt><trkpt lat="45.6901884" lon="11.7331451"><ele>73.0</ele><time>2026-04-26T16:49:05.747Z</time></trkpt><trkpt lat="45.6900285" lon="11.7331564"><ele>73.0</ele><time>2026-04-26T16:49:06.752Z</time></trkpt><trkpt lat="45.6898845" lon="11.7331625"><ele>73.0</ele><time>2026-04-26T16:49:07.755Z</time></trkpt><trkpt lat="45.6897514" lon="11.7331489"><ele>73.0</ele><time>2026-04-26T16:49:08.749Z</time></trkpt><trkpt lat="45.689622" lon="11.7330837"><ele>73.0</ele><time>2026-04-26T16:49:09.748Z</time></trkpt><trkpt lat="45.6895026" lon="11.7329643"><ele>72.66666666666666</ele><time>2026-04-26T16:49:10.747Z</time></trkpt><trkpt lat="45.6893982" lon="11.7327984"><ele>72.33333333333333</ele><time>2026-04-26T16:49:11.752Z</time></trkpt><trkpt lat="45.6893136" lon="11.7326"><ele>72.0</ele><time>2026-04-26T16:49:12.752Z</time></trkpt><trkpt lat="45.6892469" lon="11.7323716"><ele>72.0</ele><time>2026-04-26T16:49:13.749Z</time></trkpt><trkpt lat="45.6891991" lon="11.73212"><ele>72.0</ele><time>2026-04-26T16:49:14.742Z</time></trkpt><trkpt lat="45.6891575" lon="11.731853"><ele>72.0</ele><time>2026-04-26T16:49:15.749Z</time></trkpt><trkpt lat="45.6891168" lon="11.7316016"><ele>72.0</ele><time>2026-04-26T16:49:16.74Z</time></trkpt><trkpt lat="45.6890753" lon="11.731367"><ele>72.0</ele><time>2026-04-26T16:49:17.754Z</time></trkpt><trkpt lat="45.6890295" lon="11.73115"><ele>72.0</ele><time>2026-04-26T16:49:18.741Z</time></trkpt><trkpt lat="45.6889667" lon="11.7309429"><ele>72.0</ele><time>2026-04-26T16:49:19.751Z</time></trkpt><trkpt lat="45.6888749" lon="11.7307541"><ele>72.0</ele><time>2026-04-26T16:49:20.736Z</time></trkpt><trkpt lat="45.6887471" lon="11.7305974"><ele>72.0</ele><time>2026-04-26T16:49:21.751Z</time></trkpt><trkpt lat="45.6885864" lon="11.7304902"><ele>71.66666666666667</ele><time>2026-04-26T16:49:22.748Z</time></trkpt><trkpt lat="45.6884112" lon="11.7304003"><ele>71.33333333333334</ele><time>2026-04-26T16:49:23.742Z</time></trkpt><trkpt lat="45.68819" lon="11.7303956"><ele>71.0</ele><time>2026-04-26T16:49:24.754Z</time></trkpt><trkpt lat="45.6879708" lon="11.7303986"><ele>71.0</ele><time>2026-04-26T16:49:25.753Z</time></trkpt><trkpt lat="45.6877617" lon="11.7304037"><ele>71.0</ele><time>2026-04-26T16:49:26.749Z</time></trkpt><trkpt lat="45.6875621" lon="11.7304129"><ele>71.0</ele><time>2026-04-26T16:49:27.753Z</time></trkpt><trkpt lat="45.6873689" lon="11.7304175"><ele>71.0</ele><time>2026-04-26T16:49:28.76Z</time></trkpt><trkpt lat="45.6871848" lon="11.7304225"><ele>71.0</ele><time>2026-04-26T16:49:29.758Z</time></trkpt><trkpt lat="45.6870081" lon="11.7304267"><ele>71.0</ele><time>2026-04-26T16:49:30.757Z</time></trkpt><trkpt lat="45.6868382" lon="11.7304308"><ele>71.0</ele><time>2026-04-26T16:49:31.755Z</time></trkpt><trkpt lat="45.6866834" lon="11.7304332"><ele>71.0</ele><time>2026-04-26T16:49:32.738Z</time></trkpt><trkpt lat="45.6865394" lon="11.7304361"><ele>71.0</ele><time>2026-04-26T16:49:33.762Z</time></trkpt><trkpt lat="45.6864133" lon="11.7304397"><ele>71.0</ele><time>2026-04-26T16:49:34.754Z</time></trkpt><trkpt lat="45.6863174" lon="11.7304399"><ele>71.0</ele><time>2026-04-26T16:49:35.757Z</time></trkpt><trkpt lat="45.6862429" lon="11.7304388"><ele>71.0</ele><time>2026-04-26T16:49:36.762Z</time></trkpt><trkpt lat="45.6861728" lon="11.7304402"><ele>71.0</ele><time>2026-04-26T16:49:37.758Z</time></trkpt><trkpt lat="45.6861098" lon="11.7304428"><ele>71.0</ele><time>2026-04-26T16:49:38.758Z</time></trkpt><trkpt lat="45.6860031" lon="11.7304444"><ele>71.0</ele><time>2026-04-26T16:49:40.765Z</time></trkpt><trkpt lat="45.6859026" lon="11.7304474"><ele>71.0</ele><time>2026-04-26T16:49:42.764Z</time></trkpt><trkpt lat="45.6858027" lon="11.7304316"><ele>71.0</ele><time>2026-04-26T16:49:44.75Z</time></trkpt><trkpt lat="45.6857404" lon="11.7302935"><ele>71.0</ele><time>2026-04-26T16:49:46.739Z</time></trkpt><trkpt lat="45.6857197" lon="11.7301859"><ele>71.0</ele><time>2026-04-26T16:49:47.752Z</time></trkpt><trkpt lat="45.6857185" lon="11.7300425"><ele>71.0</ele><time>2026-04-26T16:49:48.75Z</time></trkpt><trkpt lat="45.6856928" lon="11.7298927"><ele>71.0</ele><time>2026-04-26T16:49:49.756Z</time></trkpt><trkpt lat="45.6856684" lon="11.7297306"><ele>70.8</ele><time>2026-04-26T16:49:50.765Z</time></trkpt><trkpt lat="45.6856434" lon="11.7295603"><ele>70.6</ele><time>2026-04-26T16:49:51.755Z</time></trkpt><trkpt lat="45.685623" lon="11.7294032"><ele>70.4</ele><time>2026-04-26T16:49:52.765Z</time></trkpt><trkpt lat="45.6856053" lon="11.7292634"><ele>70.2</ele><time>2026-04-26T16:49:53.757Z</time></trkpt><trkpt lat="45.6855846" lon="11.7291468"><ele>70.0</ele><time>2026-04-26T16:49:54.761Z</time></trkpt><trkpt lat="45.6855472" lon="11.7290592"><ele>70.0</ele><time>2026-04-26T16:49:55.74Z</time></trkpt><trkpt lat="45.6854797" lon="11.729005"><ele>70.0</ele><time>2026-04-26T16:49:56.757Z</time></trkpt><trkpt lat="45.685389" lon="11.7289813"><ele>70.0</ele><time>2026-04-26T16:49:57.764Z</time></trkpt><trkpt lat="45.6852807" lon="11.7289703"><ele>70.0</ele><time>2026-04-26T16:49:58.753Z</time></trkpt><trkpt lat="45.6851638" lon="11.7289575"><ele>70.0</ele><time>2026-04-26T16:49:59.762Z</time></trkpt><trkpt lat="45.6850358" lon="11.7289408"><ele>70.25</ele><time>2026-04-26T16:50:00.757Z</time></trkpt><trkpt lat="45.684903" lon="11.7289218"><ele>70.5</ele><time>2026-04-26T16:50:01.743Z</time></trkpt><trkpt lat="45.6847664" lon="11.7289003"><ele>70.75</ele><time>2026-04-26T16:50:02.742Z</time></trkpt><trkpt lat="45.6846257" lon="11.7288789"><ele>71.0</ele><time>2026-04-26T16:50:03.757Z</time></trkpt><trkpt lat="45.6844808" lon="11.7288591"><ele>70.75</ele><time>2026-04-26T16:50:04.754Z</time></trkpt><trkpt lat="45.6843378" lon="11.7288398"><ele>70.5</ele><time>2026-04-26T16:50:05.759Z</time></trkpt><trkpt lat="45.684201" lon="11.7288209"><ele>70.25</ele><time>2026-04-26T16:50:06.752Z</time></trkpt><trkpt lat="45.684068" lon="11.7288022"><ele>70.0</ele><time>2026-04-26T16:50:07.749Z</time></trkpt><trkpt lat="45.6839396" lon="11.7287836"><ele>70.0</ele><time>2026-04-26T16:50:08.753Z</time></trkpt><trkpt lat="45.683818" lon="11.728766"><ele>70.0</ele><time>2026-04-26T16:50:09.747Z</time></trkpt><trkpt lat="45.6837067" lon="11.7287485"><ele>70.0</ele><time>2026-04-26T16:50:10.753Z</time></trkpt><trkpt lat="45.6836047" lon="11.7287319"><ele>70.0</ele><time>2026-04-26T16:50:11.759Z</time></trkpt><trkpt lat="45.6835141" lon="11.7287141"><ele>70.0</ele><time>2026-04-26T16:50:12.769Z</time></trkpt><trkpt lat="45.6834363" lon="11.7287007"><ele>70.0</ele><time>2026-04-26T16:50:13.747Z</time></trkpt><trkpt lat="45.683371" lon="11.7286941"><ele>70.0</ele><time>2026-04-26T16:50:14.748Z</time></trkpt><trkpt lat="45.6832742" lon="11.7286801"><ele>70.0</ele><time>2026-04-26T16:50:16.761Z</time></trkpt><trkpt lat="45.6831895" lon="11.7286644"><ele>70.0</ele><time>2026-04-26T16:50:27.77Z</time></trkpt><trkpt lat="45.6830906" lon="11.7287022"><ele>70.0</ele><time>2026-04-26T16:50:31.779Z</time></trkpt><trkpt lat="45.6830792" lon="11.7287932"><ele>70.0</ele><time>2026-04-26T16:50:32.781Z</time></trkpt><trkpt lat="45.6830868" lon="11.7289284"><ele>70.0</ele><time>2026-04-26T16:50:33.786Z</time></trkpt><trkpt lat="45.6831049" lon="11.7290975"><ele>70.0</ele><time>2026-04-26T16:50:34.78Z</time></trkpt><trkpt lat="45.6831239" lon="11.7292696"><ele>70.0</ele><time>2026-04-26T16:50:35.78Z</time></trkpt><trkpt lat="45.6831404" lon="11.7294238"><ele>70.0</ele><time>2026-04-26T16:50:36.792Z</time></trkpt><trkpt lat="45.683153" lon="11.7295662"><ele>70.0</ele><time>2026-04-26T16:50:37.782Z</time></trkpt><trkpt lat="45.6831648" lon="11.7297078"><ele>70.0</ele><time>2026-04-26T16:50:38.774Z</time></trkpt><trkpt lat="45.6831734" lon="11.7298375"><ele>70.0</ele><time>2026-04-26T16:50:39.77Z</time></trkpt><trkpt lat="45.6831724" lon="11.729949"><ele>70.0</ele><time>2026-04-26T16:50:40.779Z</time></trkpt><trkpt lat="45.6831486" lon="11.7300454"><ele>70.0</ele><time>2026-04-26T16:50:41.774Z</time></trkpt><trkpt lat="45.6830985" lon="11.7301301"><ele>70.0</ele><time>2026-04-26T16:50:42.784Z</time></trkpt><trkpt lat="45.6830329" lon="11.7302148"><ele>69.8</ele><time>2026-04-26T16:50:43.776Z</time></trkpt><trkpt lat="45.6829571" lon="11.7302944"><ele>69.6</ele><time>2026-04-26T16:50:44.787Z</time></trkpt><trkpt lat="45.6828691" lon="11.7303579"><ele>69.4</ele><time>2026-04-26T16:50:45.772Z</time></trkpt><trkpt lat="45.6827701" lon="11.7304012"><ele>69.2</ele><time>2026-04-26T16:50:46.769Z</time></trkpt><trkpt lat="45.6826664" lon="11.7304311"><ele>69.0</ele><time>2026-04-26T16:50:47.779Z</time></trkpt><trkpt lat="45.6825554" lon="11.7304572"><ele>69.0</ele><time>2026-04-26T16:50:48.768Z</time></trkpt><trkpt lat="45.6824378" lon="11.7304815"><ele>69.0</ele><time>2026-04-26T16:50:49.767Z</time></trkpt><trkpt lat="45.682317" lon="11.7305083"><ele>69.0</ele><time>2026-04-26T16:50:50.819Z</time></trkpt><trkpt lat="45.6820634" lon="11.7305667"><ele>69.0</ele><time>2026-04-26T16:50:52.775Z</time></trkpt><trkpt lat="45.6819336" lon="11.7306021"><ele>69.0</ele><time>2026-04-26T16:50:53.769Z</time></trkpt><trkpt lat="45.6818062" lon="11.7306438"><ele>69.0</ele><time>2026-04-26T16:50:54.767Z</time></trkpt><trkpt lat="45.681674" lon="11.7306817"><ele>69.0</ele><time>2026-04-26T16:50:55.766Z</time></trkpt><trkpt lat="45.6815356" lon="11.7307201"><ele>69.0</ele><time>2026-04-26T16:50:56.769Z</time></trkpt><trkpt lat="45.6813903" lon="11.7307583"><ele>69.0</ele><time>2026-04-26T16:50:57.767Z</time></trkpt><trkpt lat="45.6812376" lon="11.7307934"><ele>69.0</ele><time>2026-04-26T16:50:58.77Z</time></trkpt><trkpt lat="45.6810836" lon="11.7308294"><ele>68.66666666666667</ele><time>2026-04-26T16:50:59.772Z</time></trkpt><trkpt lat="45.6809338" lon="11.7308635"><ele>68.33333333333334</ele><time>2026-04-26T16:51:00.771Z</time></trkpt><trkpt lat="45.680783" lon="11.7308939"><ele>68.0</ele><time>2026-04-26T16:51:01.782Z</time></trkpt><trkpt lat="45.6806347" lon="11.7309274"><ele>68.0</ele><time>2026-04-26T16:51:02.769Z</time></trkpt><trkpt lat="45.6804993" lon="11.7309576"><ele>68.0</ele><time>2026-04-26T16:51:03.769Z</time></trkpt><trkpt lat="45.6803737" lon="11.7309865"><ele>68.0</ele><time>2026-04-26T16:51:04.769Z</time></trkpt><trkpt lat="45.680258" lon="11.7310142"><ele>68.0</ele><time>2026-04-26T16:51:05.763Z</time></trkpt><trkpt lat="45.6801598" lon="11.7310381"><ele>67.83333333333334</ele><time>2026-04-26T16:51:06.766Z</time></trkpt><trkpt lat="45.6800743" lon="11.7310582"><ele>67.66666666666667</ele><time>2026-04-26T16:51:07.765Z</time></trkpt><trkpt lat="45.6799989" lon="11.731075"><ele>67.5</ele><time>2026-04-26T16:51:08.766Z</time></trkpt><trkpt lat="45.6799313" lon="11.7310887"><ele>67.33333333333333</ele><time>2026-04-26T16:51:09.768Z</time></trkpt><trkpt lat="45.6798083" lon="11.73112"><ele>67.16666666666666</ele><time>2026-04-26T16:51:11.768Z</time></trkpt><trkpt lat="45.6797376" lon="11.7311352"><ele>67.0</ele><time>2026-04-26T16:51:12.768Z</time></trkpt><trkpt lat="45.6796591" lon="11.7311551"><ele>67.0</ele><time>2026-04-26T16:51:13.771Z</time></trkpt><trkpt lat="45.6795716" lon="11.7311744"><ele>67.0</ele><time>2026-04-26T16:51:14.765Z</time></trkpt><trkpt lat="45.6794781" lon="11.7311955"><ele>67.0</ele><time>2026-04-26T16:51:15.77Z</time></trkpt><trkpt lat="45.6793856" lon="11.7312159"><ele>67.0</ele><time>2026-04-26T16:51:16.766Z</time></trkpt><trkpt lat="45.679298" lon="11.7312373"><ele>67.0</ele><time>2026-04-26T16:51:17.767Z</time></trkpt><trkpt lat="45.6792221" lon="11.7312574"><ele>67.0</ele><time>2026-04-26T16:51:18.779Z</time></trkpt><trkpt lat="45.6791371" lon="11.7312758"><ele>66.8</ele><time>2026-04-26T16:51:19.764Z</time></trkpt><trkpt lat="45.6790493" lon="11.7312909"><ele>66.6</ele><time>2026-04-26T16:51:20.761Z</time></trkpt><trkpt lat="45.6789549" lon="11.7313117"><ele>66.39999999999999</ele><time>2026-04-26T16:51:21.769Z</time></trkpt><trkpt lat="45.6788511" lon="11.7313349"><ele>66.2</ele><time>2026-04-26T16:51:22.767Z</time></trkpt><trkpt lat="45.6787347" lon="11.7313617"><ele>66.0</ele><time>2026-04-26T16:51:23.772Z</time></trkpt><trkpt lat="45.6786089" lon="11.7313899"><ele>65.66666666666667</ele><time>2026-04-26T16:51:24.771Z</time></trkpt><trkpt lat="45.6784694" lon="11.7314314"><ele>65.33333333333334</ele><time>2026-04-26T16:51:25.772Z</time></trkpt><trkpt lat="45.6783123" lon="11.7314875"><ele>65.0</ele><time>2026-04-26T16:51:26.771Z</time></trkpt><trkpt lat="45.6781262" lon="11.7315444"><ele>65.0</ele><time>2026-04-26T16:51:27.772Z</time></trkpt><trkpt lat="45.6779181" lon="11.7315965"><ele>65.0</ele><time>2026-04-26T16:51:28.764Z</time></trkpt><trkpt lat="45.6776719" lon="11.7316615"><ele>64.5</ele><time>2026-04-26T16:51:29.768Z</time></trkpt><trkpt lat="45.6774096" lon="11.7317227"><ele>64.0</ele><time>2026-04-26T16:51:30.769Z</time></trkpt><trkpt lat="45.6771388" lon="11.7317829"><ele>63.5</ele><time>2026-04-26T16:51:31.768Z</time></trkpt><trkpt lat="45.6768569" lon="11.7318337"><ele>63.0</ele><time>2026-04-26T16:51:32.776Z</time></trkpt><trkpt lat="45.6765641" lon="11.7318907"><ele>62.5</ele><time>2026-04-26T16:51:33.772Z</time></trkpt><trkpt lat="45.6762699" lon="11.7319542"><ele>62.0</ele><time>2026-04-26T16:51:34.77Z</time></trkpt><trkpt lat="45.6759746" lon="11.7320206"><ele>63.0</ele><time>2026-04-26T16:51:35.769Z</time></trkpt><trkpt lat="45.675681" lon="11.7320893"><ele>64.0</ele><time>2026-04-26T16:51:36.769Z</time></trkpt><trkpt lat="45.6753897" lon="11.7321611"><ele>63.5</ele><time>2026-04-26T16:51:37.783Z</time></trkpt><trkpt lat="45.6751034" lon="11.7322298"><ele>63.0</ele><time>2026-04-26T16:51:38.771Z</time></trkpt><trkpt lat="45.6748324" lon="11.732295"><ele>63.0</ele><time>2026-04-26T16:51:39.773Z</time></trkpt><trkpt lat="45.6745817" lon="11.7323529"><ele>63.0</ele><time>2026-04-26T16:51:40.765Z</time></trkpt><trkpt lat="45.6743417" lon="11.7324123"><ele>62.5</ele><time>2026-04-26T16:51:41.769Z</time></trkpt><trkpt lat="45.6741098" lon="11.7324762"><ele>62.0</ele><time>2026-04-26T16:51:42.766Z</time></trkpt><trkpt lat="45.6738779" lon="11.7325306"><ele>62.0</ele><time>2026-04-26T16:51:43.772Z</time></trkpt><trkpt lat="45.6736367" lon="11.7325904"><ele>62.0</ele><time>2026-04-26T16:51:44.768Z</time></trkpt><trkpt lat="45.6733895" lon="11.7326511"><ele>61.5</ele><time>2026-04-26T16:51:45.77Z</time></trkpt><trkpt lat="45.6731355" lon="11.7327136"><ele>61.0</ele><time>2026-04-26T16:51:46.774Z</time></trkpt><trkpt lat="45.6728778" lon="11.7327715"><ele>61.5</ele><time>2026-04-26T16:51:47.769Z</time></trkpt><trkpt lat="45.6726168" lon="11.7328249"><ele>62.0</ele><time>2026-04-26T16:51:48.766Z</time></trkpt><trkpt lat="45.6723522" lon="11.7328787"><ele>62.0</ele><time>2026-04-26T16:51:49.773Z</time></trkpt><trkpt lat="45.6720879" lon="11.7329337"><ele>62.0</ele><time>2026-04-26T16:51:50.766Z</time></trkpt><trkpt lat="45.671832" lon="11.7329864"><ele>62.5</ele><time>2026-04-26T16:51:51.768Z</time></trkpt><trkpt lat="45.6715915" lon="11.7330346"><ele>63.0</ele><time>2026-04-26T16:51:52.766Z</time></trkpt><trkpt lat="45.6713678" lon="11.7330777"><ele>63.0</ele><time>2026-04-26T16:51:53.768Z</time></trkpt><trkpt lat="45.6711608" lon="11.7331188"><ele>63.0</ele><time>2026-04-26T16:51:54.763Z</time></trkpt><trkpt lat="45.6709698" lon="11.7331551"><ele>63.0</ele><time>2026-04-26T16:51:55.768Z</time></trkpt><trkpt lat="45.6707933" lon="11.7331879"><ele>63.0</ele><time>2026-04-26T16:51:56.765Z</time></trkpt><trkpt lat="45.6706327" lon="11.7332175"><ele>63.0</ele><time>2026-04-26T16:51:57.779Z</time></trkpt><trkpt lat="45.6705027" lon="11.7332451"><ele>63.0</ele><time>2026-04-26T16:51:58.766Z</time></trkpt><trkpt lat="45.6703966" lon="11.7332701"><ele>63.0</ele><time>2026-04-26T16:51:59.769Z</time></trkpt><trkpt lat="45.6703045" lon="11.7332858"><ele>62.25</ele><time>2026-04-26T16:52:00.769Z</time></trkpt><trkpt lat="45.6702278" lon="11.7332515"><ele>61.5</ele><time>2026-04-26T16:52:01.774Z</time></trkpt><trkpt lat="45.6701672" lon="11.7331468"><ele>60.75</ele><time>2026-04-26T16:52:02.765Z</time></trkpt><trkpt lat="45.6701216" lon="11.7329778"><ele>60.0</ele><time>2026-04-26T16:52:03.766Z</time></trkpt><trkpt lat="45.6700818" lon="11.7327521"><ele>60.0</ele><time>2026-04-26T16:52:04.765Z</time></trkpt><trkpt lat="45.6700328" lon="11.7324872"><ele>60.0</ele><time>2026-04-26T16:52:05.766Z</time></trkpt><trkpt lat="45.6699764" lon="11.732195"><ele>60.0</ele><time>2026-04-26T16:52:06.773Z</time></trkpt><trkpt lat="45.6699126" lon="11.7318806"><ele>60.0</ele><time>2026-04-26T16:52:07.767Z</time></trkpt><trkpt lat="45.6698427" lon="11.7315533"><ele>60.0</ele><time>2026-04-26T16:52:08.769Z</time></trkpt><trkpt lat="45.6697703" lon="11.7312231"><ele>60.0</ele><time>2026-04-26T16:52:09.767Z</time></trkpt><trkpt lat="45.6696951" lon="11.7308953"><ele>60.0</ele><time>2026-04-26T16:52:10.763Z</time></trkpt><trkpt lat="45.6696191" lon="11.7305699"><ele>60.0</ele><time>2026-04-26T16:52:11.771Z</time></trkpt><trkpt lat="45.6695427" lon="11.7302486"><ele>60.0</ele><time>2026-04-26T16:52:12.77Z</time></trkpt><trkpt lat="45.6694682" lon="11.7299276"><ele>60.0</ele><time>2026-04-26T16:52:13.768Z</time></trkpt><trkpt lat="45.6693986" lon="11.7296051"><ele>60.0</ele><time>2026-04-26T16:52:14.771Z</time></trkpt><trkpt lat="45.6693336" lon="11.7292794"><ele>60.0</ele><time>2026-04-26T16:52:15.769Z</time></trkpt><trkpt lat="45.6692709" lon="11.7289488"><ele>60.0</ele><time>2026-04-26T16:52:16.77Z</time></trkpt><trkpt lat="45.6692072" lon="11.7286162"><ele>61.0</ele><time>2026-04-26T16:52:17.764Z</time></trkpt><trkpt lat="45.6691417" lon="11.7282799"><ele>62.0</ele><time>2026-04-26T16:52:18.767Z</time></trkpt><trkpt lat="45.6690741" lon="11.7279416"><ele>61.0</ele><time>2026-04-26T16:52:19.778Z</time></trkpt><trkpt lat="45.6690054" lon="11.7276025"><ele>60.0</ele><time>2026-04-26T16:52:20.762Z</time></trkpt><trkpt lat="45.6689355" lon="11.7272641"><ele>60.0</ele><time>2026-04-26T16:52:21.762Z</time></trkpt><trkpt lat="45.6688659" lon="11.7269249"><ele>60.0</ele><time>2026-04-26T16:52:22.761Z</time></trkpt><trkpt lat="45.6687972" lon="11.7265852"><ele>60.0</ele><time>2026-04-26T16:52:23.77Z</time></trkpt><trkpt lat="45.6687285" lon="11.7262452"><ele>60.0</ele><time>2026-04-26T16:52:24.767Z</time></trkpt><trkpt lat="45.6686586" lon="11.7259058"><ele>60.0</ele><time>2026-04-26T16:52:25.764Z</time></trkpt><trkpt lat="45.6685885" lon="11.7255666"><ele>60.0</ele><time>2026-04-26T16:52:26.778Z</time></trkpt><trkpt lat="45.6685202" lon="11.7252266"><ele>60.0</ele><time>2026-04-26T16:52:27.768Z</time></trkpt><trkpt lat="45.6684543" lon="11.7248844"><ele>60.0</ele><time>2026-04-26T16:52:28.772Z</time></trkpt><trkpt lat="45.6683892" lon="11.7245418"><ele>60.0</ele><time>2026-04-26T16:52:29.768Z</time></trkpt><trkpt lat="45.6683245" lon="11.7241991"><ele>60.0</ele><time>2026-04-26T16:52:30.768Z</time></trkpt><trkpt lat="45.6682584" lon="11.7238569"><ele>61.0</ele><time>2026-04-26T16:52:31.767Z</time></trkpt><trkpt lat="45.6681902" lon="11.7235165"><ele>62.0</ele><time>2026-04-26T16:52:32.769Z</time></trkpt><trkpt lat="45.6681184" lon="11.7231778"><ele>62.0</ele><time>2026-04-26T16:52:33.766Z</time></trkpt><trkpt lat="45.6680372" lon="11.7228288"><ele>62.0</ele><time>2026-04-26T16:52:34.77Z</time></trkpt><trkpt lat="45.6679548" lon="11.7224905"><ele>61.5</ele><time>2026-04-26T16:52:35.767Z</time></trkpt><trkpt lat="45.6678765" lon="11.7221736"><ele>61.0</ele><time>2026-04-26T16:52:36.774Z</time></trkpt><trkpt lat="45.6678049" lon="11.7218709"><ele>60.666666666666664</ele><time>2026-04-26T16:52:37.764Z</time></trkpt><trkpt lat="45.66774" lon="11.7215675"><ele>60.33333333333333</ele><time>2026-04-26T16:52:38.77Z</time></trkpt><trkpt lat="45.6676799" lon="11.7212601"><ele>60.0</ele><time>2026-04-26T16:52:39.77Z</time></trkpt><trkpt lat="45.6676276" lon="11.7209712"><ele>59.33333333333333</ele><time>2026-04-26T16:52:40.768Z</time></trkpt><trkpt lat="45.667584" lon="11.720718"><ele>58.666666666666664</ele><time>2026-04-26T16:52:41.769Z</time></trkpt><trkpt lat="45.6675445" lon="11.7204932"><ele>58.0</ele><time>2026-04-26T16:52:42.768Z</time></trkpt><trkpt lat="45.6675066" lon="11.7202914"><ele>58.4</ele><time>2026-04-26T16:52:43.763Z</time></trkpt><trkpt lat="45.6674745" lon="11.7201265"><ele>58.8</ele><time>2026-04-26T16:52:44.768Z</time></trkpt><trkpt lat="45.667455" lon="11.7200035"><ele>59.2</ele><time>2026-04-26T16:52:45.765Z</time></trkpt><trkpt lat="45.6674473" lon="11.7198652"><ele>59.6</ele><time>2026-04-26T16:52:47.764Z</time></trkpt><trkpt lat="45.6675242" lon="11.7197968"><ele>60.0</ele><time>2026-04-26T16:52:56.768Z</time></trkpt><trkpt lat="45.667556" lon="11.7199166"><ele>60.0</ele><time>2026-04-26T16:52:59.775Z</time></trkpt><trkpt lat="45.6674955" lon="11.7198264"><ele>60.0</ele><time>2026-04-26T16:53:23.763Z</time></trkpt><trkpt lat="45.6675762" lon="11.7197185"><ele>60.0</ele><time>2026-04-26T16:53:25.768Z</time></trkpt><trkpt lat="45.6676434" lon="11.7196058"><ele>60.0</ele><time>2026-04-26T16:53:27.767Z</time></trkpt><trkpt lat="45.6677475" lon="11.7195807"><ele>60.0</ele><time>2026-04-26T16:53:29.764Z</time></trkpt><trkpt lat="45.6678146" lon="11.7195851"><ele>62.0</ele><time>2026-04-26T16:53:31.783Z</time></trkpt></trkseg></trk></gpx>